<?xml version='1.0' encoding='UTF-8'?><gpx version="1.1" creator="JPX - https://github.com/jenetics/jpx" xmlns="http://www.topografix.com/GPX/1/1"><trk><trkseg><trkpt lat="45.48535884308457" lon="10.307487832996303"><ele>134.0</ele><time>2026-04-26T18:45:53.001Z</time></trkpt><trkpt lat="45.48536024279003" lon="10.30765403025605"><ele>134.0</ele><time>2026-04-26T18:46:02.001Z</time></trkpt><trkpt lat="45.48534389250624" lon="10.307820064251874"><ele>134.0</ele><time>2026-04-26T18:46:04.001Z</time></trkpt><trkpt lat="45.485348163159024" lon="10.307991027216792"><ele>134.0</ele><time>2026-04-26T18:46:06.001Z</time></trkpt><trkpt lat="45.485346671572835" lon="10.30808084465827"><ele>134.0</ele><time>2026-04-26T18:46:07.001Z</time></trkpt><trkpt lat="45.48526646863782" lon="10.308134533934423"><ele>134.0</ele><time>2026-04-26T18:46:08.001Z</time></trkpt><trkpt lat="45.485343209800284" lon="10.308263269806721"><ele>134.0</ele><time>2026-04-26T18:46:09.001Z</time></trkpt><trkpt lat="45.485343797897315" lon="10.308364266730365"><ele>134.0</ele><time>2026-04-26T18:46:10.001Z</time></trkpt><trkpt lat="45.485330212661594" lon="10.308468017913238"><ele>134.0</ele><time>2026-04-26T18:46:11.001Z</time></trkpt><trkpt lat="45.48531512253183" lon="10.308575429886258"><ele>134.0</ele><time>2026-04-26T18:46:12.001Z</time></trkpt><trkpt lat="45.4852986250171" lon="10.308679702021864"><ele>134.0</ele><time>2026-04-26T18:46:13.001Z</time></trkpt><trkpt lat="45.485276031296046" lon="10.308782384213512"><ele>134.0</ele><time>2026-04-26T18:46:14.001Z</time></trkpt><trkpt lat="45.48524908479114" lon="10.308882884492192"><ele>134.0</ele><time>2026-04-26T18:46:15.001Z</time></trkpt><trkpt lat="45.48521799798963" lon="10.308990970482126"><ele>134.0</ele><time>2026-04-26T18:46:16.001Z</time></trkpt><trkpt lat="45.48519314841544" lon="10.30909178997726"><ele>134.0</ele><time>2026-04-26T18:46:17.001Z</time></trkpt><trkpt lat="45.48514433679249" lon="10.309186022514705"><ele>134.0</ele><time>2026-04-26T18:46:18.001Z</time></trkpt><trkpt lat="45.48511702974181" lon="10.309289662520825"><ele>134.0</ele><time>2026-04-26T18:46:19.001Z</time></trkpt><trkpt lat="45.48508906751973" lon="10.309394308434488"><ele>134.2</ele><time>2026-04-26T18:46:20.001Z</time></trkpt><trkpt lat="45.485058768772696" lon="10.309507698568677"><ele>134.4</ele><time>2026-04-26T18:46:21.001Z</time></trkpt><trkpt lat="45.48502743545212" lon="10.309624960485047"><ele>134.6</ele><time>2026-04-26T18:46:22.001Z</time></trkpt><trkpt lat="45.48499656177915" lon="10.309740502229687"><ele>134.8</ele><time>2026-04-26T18:46:23.001Z</time></trkpt><trkpt lat="45.4849791792751" lon="10.309886302985204"><ele>135.0</ele><time>2026-04-26T18:46:24.001Z</time></trkpt><trkpt lat="45.4850200470834" lon="10.310037680642514"><ele>135.25</ele><time>2026-04-26T18:46:25.001Z</time></trkpt><trkpt lat="45.48501264800336" lon="10.310194765349737"><ele>135.5</ele><time>2026-04-26T18:46:26.001Z</time></trkpt><trkpt lat="45.48498455482613" lon="10.31037647540124"><ele>135.75</ele><time>2026-04-26T18:46:27.001Z</time></trkpt><trkpt lat="45.48493509538571" lon="10.310585061762641"><ele>136.0</ele><time>2026-04-26T18:46:28.001Z</time></trkpt><trkpt lat="45.48486790404674" lon="10.310834352976734"><ele>136.0</ele><time>2026-04-26T18:46:29.001Z</time></trkpt><trkpt lat="45.48479022301725" lon="10.311127196401845"><ele>136.0</ele><time>2026-04-26T18:46:30.001Z</time></trkpt><trkpt lat="45.48470795954362" lon="10.311462686459794"><ele>136.0</ele><time>2026-04-26T18:46:31.001Z</time></trkpt><trkpt lat="45.48462486999292" lon="10.311829423075817"><ele>136.0</ele><time>2026-04-26T18:46:32.001Z</time></trkpt><trkpt lat="45.48454412816817" lon="10.312219823854198"><ele>135.0</ele><time>2026-04-26T18:46:33.001Z</time></trkpt><trkpt lat="45.484453291097466" lon="10.312630477040756"><ele>134.0</ele><time>2026-04-26T18:46:34.001Z</time></trkpt><trkpt lat="45.48434766905224" lon="10.313052225668264"><ele>134.5</ele><time>2026-04-26T18:46:35.001Z</time></trkpt><trkpt lat="45.48424035631037" lon="10.313472430984078"><ele>135.0</ele><time>2026-04-26T18:46:36.001Z</time></trkpt><trkpt lat="45.48413779209716" lon="10.313876319245717"><ele>135.5</ele><time>2026-04-26T18:46:37.001Z</time></trkpt><trkpt lat="45.48403844247565" lon="10.314278775414396"><ele>136.0</ele><time>2026-04-26T18:46:38.001Z</time></trkpt><trkpt lat="45.48394137199394" lon="10.314667449473019"><ele>136.5</ele><time>2026-04-26T18:46:39.001Z</time></trkpt><trkpt lat="45.48384494342403" lon="10.315057614018478"><ele>137.0</ele><time>2026-04-26T18:46:40.002Z</time></trkpt><trkpt lat="45.483750278484955" lon="10.315451664076585"><ele>135.5</ele><time>2026-04-26T18:46:41.002Z</time></trkpt><trkpt lat="45.483657903712896" lon="10.315844758771386"><ele>134.0</ele><time>2026-04-26T18:46:42.002Z</time></trkpt><trkpt lat="45.48356886523778" lon="10.31624261332078"><ele>134.0</ele><time>2026-04-26T18:46:43.002Z</time></trkpt><trkpt lat="45.483479584389826" lon="10.31664452196625"><ele>134.0</ele><time>2026-04-26T18:46:44.002Z</time></trkpt><trkpt lat="45.483393084402415" lon="10.317051808276736"><ele>134.0</ele><time>2026-04-26T18:46:45.002Z</time></trkpt><trkpt lat="45.4833057475793" lon="10.31745701315745"><ele>134.0</ele><time>2026-04-26T18:46:46.002Z</time></trkpt><trkpt lat="45.48321474307648" lon="10.317862061961469"><ele>135.5</ele><time>2026-04-26T18:46:47.002Z</time></trkpt><trkpt lat="45.483121462193246" lon="10.318268136725795"><ele>137.0</ele><time>2026-04-26T18:46:48.002Z</time></trkpt><trkpt lat="45.483030353001084" lon="10.318675938526718"><ele>136.5</ele><time>2026-04-26T18:46:49.002Z</time></trkpt><trkpt lat="45.48294038990027" lon="10.319090056820855"><ele>136.0</ele><time>2026-04-26T18:46:50.002Z</time></trkpt><trkpt lat="45.48285202255504" lon="10.319509071748262"><ele>135.5</ele><time>2026-04-26T18:46:51.002Z</time></trkpt><trkpt lat="45.482761237152914" lon="10.319930610503988"><ele>135.0</ele><time>2026-04-26T18:46:52.002Z</time></trkpt><trkpt lat="45.48267146446279" lon="10.320353588635655"><ele>135.0</ele><time>2026-04-26T18:46:53.002Z</time></trkpt><trkpt lat="45.48258022498606" lon="10.320775581400705"><ele>135.0</ele><time>2026-04-26T18:46:54.001Z</time></trkpt><trkpt lat="45.482489470735565" lon="10.321197138053899"><ele>134.0</ele><time>2026-04-26T18:46:55.001Z</time></trkpt><trkpt lat="45.482394765589056" lon="10.321615033041745"><ele>133.0</ele><time>2026-04-26T18:46:56.001Z</time></trkpt><trkpt lat="45.48230504953431" lon="10.322033382924253"><ele>134.0</ele><time>2026-04-26T18:46:57.001Z</time></trkpt><trkpt lat="45.482211784233286" lon="10.322444488943297"><ele>135.0</ele><time>2026-04-26T18:46:58.001Z</time></trkpt><trkpt lat="45.482117768651705" lon="10.322859062710592"><ele>135.0</ele><time>2026-04-26T18:46:59.001Z</time></trkpt><trkpt lat="45.482026146004785" lon="10.323272293095929"><ele>135.0</ele><time>2026-04-26T18:47:00.001Z</time></trkpt><trkpt lat="45.481934308498055" lon="10.323683374643839"><ele>135.0</ele><time>2026-04-26T18:47:01.001Z</time></trkpt><trkpt lat="45.48184323306168" lon="10.324091790905113"><ele>135.0</ele><time>2026-04-26T18:47:02.001Z</time></trkpt><trkpt lat="45.481752694678654" lon="10.324498242643479"><ele>135.5</ele><time>2026-04-26T18:47:03.001Z</time></trkpt><trkpt lat="45.48166146526819" lon="10.324904741800479"><ele>136.0</ele><time>2026-04-26T18:47:04.001Z</time></trkpt><trkpt lat="45.48156734047876" lon="10.325308744055338"><ele>136.5</ele><time>2026-04-26T18:47:05.001Z</time></trkpt><trkpt lat="45.48147217641019" lon="10.325709556466402"><ele>137.0</ele><time>2026-04-26T18:47:06.001Z</time></trkpt><trkpt lat="45.4813817511448" lon="10.326107869220925"><ele>136.0</ele><time>2026-04-26T18:47:07.001Z</time></trkpt><trkpt lat="45.48129676115743" lon="10.32651095736147"><ele>135.0</ele><time>2026-04-26T18:47:08.001Z</time></trkpt><trkpt lat="45.48120944439175" lon="10.326913033721347"><ele>135.5</ele><time>2026-04-26T18:47:09.001Z</time></trkpt><trkpt lat="45.481123015619566" lon="10.32731494148882"><ele>136.0</ele><time>2026-04-26T18:47:10.001Z</time></trkpt><trkpt lat="45.4810329143428" lon="10.327712348828989"><ele>136.0</ele><time>2026-04-26T18:47:11.001Z</time></trkpt><trkpt lat="45.480943468523364" lon="10.328108688238046"><ele>136.0</ele><time>2026-04-26T18:47:12.001Z</time></trkpt><trkpt lat="45.48085270221839" lon="10.328503394719846"><ele>136.0</ele><time>2026-04-26T18:47:13.001Z</time></trkpt><trkpt lat="45.48076282328174" lon="10.328898786122716"><ele>136.0</ele><time>2026-04-26T18:47:14.001Z</time></trkpt><trkpt lat="45.48066957675856" lon="10.329291033762209"><ele>136.0</ele><time>2026-04-26T18:47:15.001Z</time></trkpt><trkpt lat="45.48057004289112" lon="10.329679479044838"><ele>136.0</ele><time>2026-04-26T18:47:16.001Z</time></trkpt><trkpt lat="45.480471994741414" lon="10.330067378295144"><ele>136.0</ele><time>2026-04-26T18:47:17.001Z</time></trkpt><trkpt lat="45.48037895940303" lon="10.330455327764"><ele>136.0</ele><time>2026-04-26T18:47:18.001Z</time></trkpt><trkpt lat="45.48028860268974" lon="10.330844550306633"><ele>136.0</ele><time>2026-04-26T18:47:19.001Z</time></trkpt><trkpt lat="45.480201332205716" lon="10.33123571773812"><ele>136.0</ele><time>2026-04-26T18:47:20.001Z</time></trkpt><trkpt lat="45.480116514004244" lon="10.331628065455904"><ele>136.0</ele><time>2026-04-26T18:47:21.001Z</time></trkpt><trkpt lat="45.48003017407739" lon="10.332018790432667"><ele>136.0</ele><time>2026-04-26T18:47:22.001Z</time></trkpt><trkpt lat="45.47994322140262" lon="10.33240813276302"><ele>136.5</ele><time>2026-04-26T18:47:23.001Z</time></trkpt><trkpt lat="45.479854316994135" lon="10.332797477398458"><ele>137.0</ele><time>2026-04-26T18:47:24.001Z</time></trkpt><trkpt lat="45.47976418476147" lon="10.333186671656144"><ele>137.0</ele><time>2026-04-26T18:47:25.001Z</time></trkpt><trkpt lat="45.47967516469952" lon="10.333573827716801"><ele>137.0</ele><time>2026-04-26T18:47:26.001Z</time></trkpt><trkpt lat="45.47958698545068" lon="10.33396579146227"><ele>137.0</ele><time>2026-04-26T18:47:27.001Z</time></trkpt><trkpt lat="45.47949897251518" lon="10.334360109549076"><ele>137.0</ele><time>2026-04-26T18:47:28.001Z</time></trkpt><trkpt lat="45.479411834094016" lon="10.334756804924071"><ele>137.0</ele><time>2026-04-26T18:47:29.001Z</time></trkpt><trkpt lat="45.479322104108945" lon="10.335155067160061"><ele>137.0</ele><time>2026-04-26T18:47:30.001Z</time></trkpt><trkpt lat="45.479233363841054" lon="10.335554597609518"><ele>136.5</ele><time>2026-04-26T18:47:31.001Z</time></trkpt><trkpt lat="45.479143117152375" lon="10.335952436445604"><ele>136.0</ele><time>2026-04-26T18:47:32.001Z</time></trkpt><trkpt lat="45.47905244162695" lon="10.336350069850411"><ele>136.0</ele><time>2026-04-26T18:47:33.001Z</time></trkpt><trkpt lat="45.47896206995305" lon="10.336750872532226"><ele>136.0</ele><time>2026-04-26T18:47:34.001Z</time></trkpt><trkpt lat="45.47887145008523" lon="10.337152956123317"><ele>135.5</ele><time>2026-04-26T18:47:35.001Z</time></trkpt><trkpt lat="45.47878529100181" lon="10.337557626830794"><ele>135.0</ele><time>2026-04-26T18:47:36.001Z</time></trkpt><trkpt lat="45.47869952249469" lon="10.33796737618611"><ele>135.5</ele><time>2026-04-26T18:47:37.001Z</time></trkpt><trkpt lat="45.47861506798465" lon="10.338378748450445"><ele>136.0</ele><time>2026-04-26T18:47:38.001Z</time></trkpt><trkpt lat="45.4785288514723" lon="10.338788610353577"><ele>137.0</ele><time>2026-04-26T18:47:39.001Z</time></trkpt><trkpt lat="45.47843943868521" lon="10.339199115549414"><ele>138.0</ele><time>2026-04-26T18:47:40.001Z</time></trkpt><trkpt lat="45.478350807101386" lon="10.339607413842721"><ele>137.0</ele><time>2026-04-26T18:47:41.001Z</time></trkpt><trkpt lat="45.47825914464766" lon="10.340015358407493"><ele>136.0</ele><time>2026-04-26T18:47:42.001Z</time></trkpt><trkpt lat="45.478166546022315" lon="10.34042223421362"><ele>136.0</ele><time>2026-04-26T18:47:43.001Z</time></trkpt><trkpt lat="45.47807502670792" lon="10.34082868649703"><ele>136.0</ele><time>2026-04-26T18:47:44.001Z</time></trkpt><trkpt lat="45.4779837170273" lon="10.34123638093137"><ele>136.0</ele><time>2026-04-26T18:47:45.001Z</time></trkpt><trkpt lat="45.47789074700359" lon="10.341643263389631"><ele>136.0</ele><time>2026-04-26T18:47:46.001Z</time></trkpt><trkpt lat="45.477795550886384" lon="10.342051301487082"><ele>135.5</ele><time>2026-04-26T18:47:47.001Z</time></trkpt><trkpt lat="45.477693122172596" lon="10.342456693058926"><ele>135.0</ele><time>2026-04-26T18:47:48.001Z</time></trkpt><trkpt lat="45.47758982090125" lon="10.342861467237121"><ele>135.0</ele><time>2026-04-26T18:47:49.001Z</time></trkpt><trkpt lat="45.477491845456996" lon="10.343265214379562"><ele>135.0</ele><time>2026-04-26T18:47:50.001Z</time></trkpt><trkpt lat="45.47739999797124" lon="10.343671243073029"><ele>136.0</ele><time>2026-04-26T18:47:51.001Z</time></trkpt><trkpt lat="45.47731196480909" lon="10.344076697509939"><ele>137.0</ele><time>2026-04-26T18:47:52.001Z</time></trkpt><trkpt lat="45.47722258756718" lon="10.344482003083852"><ele>136.5</ele><time>2026-04-26T18:47:53.001Z</time></trkpt><trkpt lat="45.47713318862009" lon="10.344886212883324"><ele>136.0</ele><time>2026-04-26T18:47:54.001Z</time></trkpt><trkpt lat="45.47704335376711" lon="10.345286937727035"><ele>135.5</ele><time>2026-04-26T18:47:55.001Z</time></trkpt><trkpt lat="45.47695346082644" lon="10.345685799021794"><ele>135.0</ele><time>2026-04-26T18:47:56.001Z</time></trkpt><trkpt lat="45.4768623102733" lon="10.346081615858253"><ele>135.5</ele><time>2026-04-26T18:47:57.001Z</time></trkpt><trkpt lat="45.47677161387287" lon="10.346476225978678"><ele>136.0</ele><time>2026-04-26T18:47:58.001Z</time></trkpt><trkpt lat="45.47668289434225" lon="10.346873012355806"><ele>137.0</ele><time>2026-04-26T18:47:59.001Z</time></trkpt><trkpt lat="45.476593770301925" lon="10.34727371705657"><ele>138.0</ele><time>2026-04-26T18:48:00.001Z</time></trkpt><trkpt lat="45.47650380211678" lon="10.347673877250278"><ele>137.5</ele><time>2026-04-26T18:48:01.001Z</time></trkpt><trkpt lat="45.47641340660393" lon="10.348075744242932"><ele>137.0</ele><time>2026-04-26T18:48:02.001Z</time></trkpt><trkpt lat="45.47632515261108" lon="10.348488506744983"><ele>136.5</ele><time>2026-04-26T18:48:03.001Z</time></trkpt><trkpt lat="45.47623846875031" lon="10.348919490359718"><ele>136.0</ele><time>2026-04-26T18:48:04.001Z</time></trkpt><trkpt lat="45.476152609223526" lon="10.349360628970974"><ele>136.5</ele><time>2026-04-26T18:48:05.001Z</time></trkpt><trkpt lat="45.476060972331574" lon="10.349803406748551"><ele>137.0</ele><time>2026-04-26T18:48:06.001Z</time></trkpt><trkpt lat="45.47596489394775" lon="10.350243123017684"><ele>136.5</ele><time>2026-04-26T18:48:07.001Z</time></trkpt><trkpt lat="45.47586830817468" lon="10.350676367660903"><ele>136.0</ele><time>2026-04-26T18:48:08.001Z</time></trkpt><trkpt lat="45.47577118852727" lon="10.351100941278943"><ele>136.5</ele><time>2026-04-26T18:48:09.001Z</time></trkpt><trkpt lat="45.47567600559823" lon="10.351520073977152"><ele>137.0</ele><time>2026-04-26T18:48:10.001Z</time></trkpt><trkpt lat="45.4755814047552" lon="10.35193354890439"><ele>136.5</ele><time>2026-04-26T18:48:11.001Z</time></trkpt><trkpt lat="45.47548244109939" lon="10.352341456751155"><ele>136.0</ele><time>2026-04-26T18:48:12.001Z</time></trkpt><trkpt lat="45.475373335967646" lon="10.352748391693519"><ele>136.5</ele><time>2026-04-26T18:48:13.001Z</time></trkpt><trkpt lat="45.47526879401634" lon="10.353157792443534"><ele>137.0</ele><time>2026-04-26T18:48:14.001Z</time></trkpt><trkpt lat="45.475168719816935" lon="10.353568038980645"><ele>137.0</ele><time>2026-04-26T18:48:15.001Z</time></trkpt><trkpt lat="45.47508522185365" lon="10.353983074197352"><ele>137.0</ele><time>2026-04-26T18:48:16.001Z</time></trkpt><trkpt lat="45.47499239441192" lon="10.354396691733593"><ele>136.5</ele><time>2026-04-26T18:48:17.001Z</time></trkpt><trkpt lat="45.47489890204915" lon="10.354814520571468"><ele>136.0</ele><time>2026-04-26T18:48:18.001Z</time></trkpt><trkpt lat="45.47480669633154" lon="10.355230227027212"><ele>136.5</ele><time>2026-04-26T18:48:19.001Z</time></trkpt><trkpt lat="45.474714908853805" lon="10.355647323642122"><ele>137.0</ele><time>2026-04-26T18:48:20.001Z</time></trkpt><trkpt lat="45.474620818184945" lon="10.356061494779329"><ele>136.0</ele><time>2026-04-26T18:48:21.001Z</time></trkpt><trkpt lat="45.474527616678465" lon="10.35647405787396"><ele>135.0</ele><time>2026-04-26T18:48:22.001Z</time></trkpt><trkpt lat="45.4744349588535" lon="10.356887397458424"><ele>134.5</ele><time>2026-04-26T18:48:23.001Z</time></trkpt><trkpt lat="45.474343387811004" lon="10.35730142049878"><ele>134.0</ele><time>2026-04-26T18:48:24.001Z</time></trkpt><trkpt lat="45.47425304556646" lon="10.357717490396844"><ele>134.5</ele><time>2026-04-26T18:48:25.001Z</time></trkpt><trkpt lat="45.4741602440103" lon="10.358131837772925"><ele>135.0</ele><time>2026-04-26T18:48:26.001Z</time></trkpt><trkpt lat="45.474065547670584" lon="10.358545512817177"><ele>135.5</ele><time>2026-04-26T18:48:27.001Z</time></trkpt><trkpt lat="45.473971599425646" lon="10.358959138643739"><ele>136.0</ele><time>2026-04-26T18:48:28.001Z</time></trkpt><trkpt lat="45.473877741258" lon="10.359373201052716"><ele>136.0</ele><time>2026-04-26T18:48:29.001Z</time></trkpt><trkpt lat="45.47378483926652" lon="10.359789390733365"><ele>136.0</ele><time>2026-04-26T18:48:30.001Z</time></trkpt><trkpt lat="45.473692269709524" lon="10.360204938749"><ele>135.5</ele><time>2026-04-26T18:48:31.001Z</time></trkpt><trkpt lat="45.47359992879128" lon="10.3606221511802"><ele>135.0</ele><time>2026-04-26T18:48:32.001Z</time></trkpt><trkpt lat="45.47350570075551" lon="10.361039225946433"><ele>135.0</ele><time>2026-04-26T18:48:33.001Z</time></trkpt><trkpt lat="45.473412352594934" lon="10.361456438541895"><ele>135.0</ele><time>2026-04-26T18:48:34.001Z</time></trkpt><trkpt lat="45.47331791968893" lon="10.361872802658208"><ele>135.0</ele><time>2026-04-26T18:48:35.001Z</time></trkpt><trkpt lat="45.47322253094118" lon="10.362289444298547"><ele>135.0</ele><time>2026-04-26T18:48:36.001Z</time></trkpt><trkpt lat="45.47312980895167" lon="10.362707593896646"><ele>134.5</ele><time>2026-04-26T18:48:37.001Z</time></trkpt><trkpt lat="45.473034560219574" lon="10.363125183768796"><ele>134.0</ele><time>2026-04-26T18:48:38.001Z</time></trkpt><trkpt lat="45.47293936796424" lon="10.36354209307062"><ele>134.5</ele><time>2026-04-26T18:48:39.001Z</time></trkpt><trkpt lat="45.47284472574589" lon="10.36395754408961"><ele>135.0</ele><time>2026-04-26T18:48:40.001Z</time></trkpt><trkpt lat="45.47275066316931" lon="10.36437162819553"><ele>135.0</ele><time>2026-04-26T18:48:41.001Z</time></trkpt><trkpt lat="45.472659053675805" lon="10.364785469774235"><ele>135.0</ele><time>2026-04-26T18:48:42.001Z</time></trkpt><trkpt lat="45.47256641775938" lon="10.365197766985153"><ele>135.5</ele><time>2026-04-26T18:48:43.001Z</time></trkpt><trkpt lat="45.47247491386316" lon="10.36561053994977"><ele>136.0</ele><time>2026-04-26T18:48:44.001Z</time></trkpt><trkpt lat="45.472382372868985" lon="10.366022780280367"><ele>136.0</ele><time>2026-04-26T18:48:45.001Z</time></trkpt><trkpt lat="45.47229063001764" lon="10.366434420072656"><ele>136.0</ele><time>2026-04-26T18:48:46.001Z</time></trkpt><trkpt lat="45.47219836885778" lon="10.366846160056612"><ele>135.5</ele><time>2026-04-26T18:48:47.001Z</time></trkpt><trkpt lat="45.472105565482565" lon="10.367258963110704"><ele>135.0</ele><time>2026-04-26T18:48:48.001Z</time></trkpt><trkpt lat="45.4720141057445" lon="10.367669770605307"><ele>135.5</ele><time>2026-04-26T18:48:49.001Z</time></trkpt><trkpt lat="45.47192336885741" lon="10.36808081673364"><ele>136.0</ele><time>2026-04-26T18:48:50.001Z</time></trkpt><trkpt lat="45.47183096259757" lon="10.368491347343179"><ele>136.0</ele><time>2026-04-26T18:48:51.001Z</time></trkpt><trkpt lat="45.47173827012339" lon="10.368902305495006"><ele>136.0</ele><time>2026-04-26T18:48:52.001Z</time></trkpt><trkpt lat="45.47164515425441" lon="10.369311739521596"><ele>136.5</ele><time>2026-04-26T18:48:53.001Z</time></trkpt><trkpt lat="45.4715529122816" lon="10.369722975637691"><ele>137.0</ele><time>2026-04-26T18:48:54.001Z</time></trkpt><trkpt lat="45.47145984768346" lon="10.370136247298587"><ele>136.5</ele><time>2026-04-26T18:48:55.001Z</time></trkpt><trkpt lat="45.47136741835751" lon="10.37054903211482"><ele>136.0</ele><time>2026-04-26T18:48:56.001Z</time></trkpt><trkpt lat="45.47127503518785" lon="10.370960176375013"><ele>135.5</ele><time>2026-04-26T18:48:57.001Z</time></trkpt><trkpt lat="45.471183603490985" lon="10.371370917208536"><ele>135.0</ele><time>2026-04-26T18:48:58.001Z</time></trkpt><trkpt lat="45.47109043678916" lon="10.371784181733434"><ele>134.5</ele><time>2026-04-26T18:48:59.001Z</time></trkpt><trkpt lat="45.47099718325307" lon="10.372196218216057"><ele>134.0</ele><time>2026-04-26T18:49:00Z</time></trkpt><trkpt lat="45.47090529626098" lon="10.37260710428957"><ele>134.0</ele><time>2026-04-26T18:49:01Z</time></trkpt><trkpt lat="45.47081171589111" lon="10.373014423923953"><ele>134.0</ele><time>2026-04-26T18:49:02Z</time></trkpt><trkpt lat="45.470720270653864" lon="10.373421002035524"><ele>134.5</ele><time>2026-04-26T18:49:03Z</time></trkpt><trkpt lat="45.470629215402866" lon="10.373825998628403"><ele>135.0</ele><time>2026-04-26T18:49:04Z</time></trkpt><trkpt lat="45.47053722989796" lon="10.374233225419427"><ele>135.0</ele><time>2026-04-26T18:49:05Z</time></trkpt><trkpt lat="45.47044546240896" lon="10.37463820374873"><ele>135.0</ele><time>2026-04-26T18:49:06Z</time></trkpt><trkpt lat="45.47035377667788" lon="10.375045027625088"><ele>135.0</ele><time>2026-04-26T18:49:07Z</time></trkpt><trkpt lat="45.470261029428016" lon="10.375451527160683"><ele>135.0</ele><time>2026-04-26T18:49:08Z</time></trkpt><trkpt lat="45.47016838512618" lon="10.375858565114523"><ele>135.0</ele><time>2026-04-26T18:49:09Z</time></trkpt><trkpt lat="45.47007669298344" lon="10.37626613058378"><ele>135.0</ele><time>2026-04-26T18:49:10Z</time></trkpt><trkpt lat="45.46998581186779" lon="10.37667261812857"><ele>135.0</ele><time>2026-04-26T18:49:11Z</time></trkpt><trkpt lat="45.46989665258595" lon="10.37707883751664"><ele>135.0</ele><time>2026-04-26T18:49:12Z</time></trkpt><trkpt lat="45.469807311126644" lon="10.377481234657955"><ele>135.5</ele><time>2026-04-26T18:49:13Z</time></trkpt><trkpt lat="45.46971523917462" lon="10.377883496020456"><ele>136.0</ele><time>2026-04-26T18:49:14Z</time></trkpt><trkpt lat="45.46962320816672" lon="10.378283408200298"><ele>136.0</ele><time>2026-04-26T18:49:15Z</time></trkpt><trkpt lat="45.46953257788819" lon="10.378684143494526"><ele>136.0</ele><time>2026-04-26T18:49:16Z</time></trkpt><trkpt lat="45.46944080243139" lon="10.379082747954389"><ele>136.0</ele><time>2026-04-26T18:49:17Z</time></trkpt><trkpt lat="45.46934977520105" lon="10.379480108027964"><ele>136.0</ele><time>2026-04-26T18:49:18Z</time></trkpt><trkpt lat="45.4692595190525" lon="10.379876521885544"><ele>135.5</ele><time>2026-04-26T18:49:19Z</time></trkpt><trkpt lat="45.469169106401765" lon="10.380276199785742"><ele>135.0</ele><time>2026-04-26T18:49:20Z</time></trkpt><trkpt lat="45.469079520431016" lon="10.380677741240307"><ele>135.0</ele><time>2026-04-26T18:49:21Z</time></trkpt><trkpt lat="45.46899125030844" lon="10.38108121251236"><ele>135.0</ele><time>2026-04-26T18:49:22Z</time></trkpt><trkpt lat="45.468904635573566" lon="10.381484899961071"><ele>135.0</ele><time>2026-04-26T18:49:23Z</time></trkpt><trkpt lat="45.468820591563684" lon="10.381889626359303"><ele>135.0</ele><time>2026-04-26T18:49:24Z</time></trkpt><trkpt lat="45.468735706581086" lon="10.382293987788831"><ele>135.0</ele><time>2026-04-26T18:49:25Z</time></trkpt><trkpt lat="45.4686498749685" lon="10.382697485498909"><ele>135.0</ele><time>2026-04-26T18:49:26Z</time></trkpt><trkpt lat="45.46856119795984" lon="10.383100229291617"><ele>135.0</ele><time>2026-04-26T18:49:27Z</time></trkpt><trkpt lat="45.46847385079337" lon="10.383506138503941"><ele>135.0</ele><time>2026-04-26T18:49:28Z</time></trkpt><trkpt lat="45.468386146532374" lon="10.383911914058153"><ele>134.5</ele><time>2026-04-26T18:49:29Z</time></trkpt><trkpt lat="45.468298517809465" lon="10.384318618584725"><ele>134.0</ele><time>2026-04-26T18:49:30Z</time></trkpt><trkpt lat="45.468218623281224" lon="10.384730972334694"><ele>134.0</ele><time>2026-04-26T18:49:31Z</time></trkpt><trkpt lat="45.46814454745998" lon="10.385146009136495"><ele>134.0</ele><time>2026-04-26T18:49:32Z</time></trkpt><trkpt lat="45.46807362306942" lon="10.385563521252847"><ele>134.0</ele><time>2026-04-26T18:49:33Z</time></trkpt><trkpt lat="45.468004433503495" lon="10.385980302844544"><ele>134.0</ele><time>2026-04-26T18:49:34Z</time></trkpt><trkpt lat="45.46793449083564" lon="10.386398970853481"><ele>133.5</ele><time>2026-04-26T18:49:35Z</time></trkpt><trkpt lat="45.467861238686815" lon="10.386820972757492"><ele>133.0</ele><time>2026-04-26T18:49:36Z</time></trkpt><trkpt lat="45.46778686353072" lon="10.387244271592591"><ele>133.0</ele><time>2026-04-26T18:49:37Z</time></trkpt><trkpt lat="45.467714008591805" lon="10.387669441093472"><ele>133.0</ele><time>2026-04-26T18:49:38Z</time></trkpt><trkpt lat="45.46764214041276" lon="10.388091985394837"><ele>132.5</ele><time>2026-04-26T18:49:39Z</time></trkpt><trkpt lat="45.467572743633795" lon="10.388513264265207"><ele>132.0</ele><time>2026-04-26T18:49:40Z</time></trkpt><trkpt lat="45.467503034874795" lon="10.38893302006635"><ele>132.0</ele><time>2026-04-26T18:49:41Z</time></trkpt><trkpt lat="45.46743176738404" lon="10.389350203240761"><ele>132.0</ele><time>2026-04-26T18:49:42Z</time></trkpt><trkpt lat="45.46736274557095" lon="10.389767627180772"><ele>132.0</ele><time>2026-04-26T18:49:43Z</time></trkpt><trkpt lat="45.46729358068252" lon="10.390182714534046"><ele>132.0</ele><time>2026-04-26T18:49:44Z</time></trkpt><trkpt lat="45.4672242892295" lon="10.390597021509658"><ele>131.5</ele><time>2026-04-26T18:49:45Z</time></trkpt><trkpt lat="45.46715601854547" lon="10.391012846982907"><ele>131.0</ele><time>2026-04-26T18:49:46.001Z</time></trkpt><trkpt lat="45.4670876548895" lon="10.391431430300136"><ele>131.0</ele><time>2026-04-26T18:49:47.001Z</time></trkpt><trkpt lat="45.46701968234818" lon="10.391849667412695"><ele>131.0</ele><time>2026-04-26T18:49:48.001Z</time></trkpt><trkpt lat="45.466949635924195" lon="10.392266235299727"><ele>130.5</ele><time>2026-04-26T18:49:49.001Z</time></trkpt><trkpt lat="45.466877784213615" lon="10.392683313693135"><ele>130.0</ele><time>2026-04-26T18:49:50.001Z</time></trkpt><trkpt lat="45.466804722324646" lon="10.393103095827604"><ele>130.0</ele><time>2026-04-26T18:49:51.001Z</time></trkpt><trkpt lat="45.46673265943057" lon="10.393522548285757"><ele>130.0</ele><time>2026-04-26T18:49:52.001Z</time></trkpt><trkpt lat="45.4666647732088" lon="10.393944042995939"><ele>130.0</ele><time>2026-04-26T18:49:53.001Z</time></trkpt><trkpt lat="45.466596979178036" lon="10.394364365112253"><ele>130.0</ele><time>2026-04-26T18:49:54.001Z</time></trkpt><trkpt lat="45.46652982366322" lon="10.394784639223133"><ele>129.5</ele><time>2026-04-26T18:49:55.001Z</time></trkpt><trkpt lat="45.46645901974046" lon="10.395204067802023"><ele>129.0</ele><time>2026-04-26T18:49:56.001Z</time></trkpt><trkpt lat="45.46638263166584" lon="10.39561865075816"><ele>129.5</ele><time>2026-04-26T18:49:57.001Z</time></trkpt><trkpt lat="45.46630135064816" lon="10.396032543943209"><ele>130.0</ele><time>2026-04-26T18:49:58.001Z</time></trkpt><trkpt lat="45.466218942593606" lon="10.396450352558894"><ele>130.0</ele><time>2026-04-26T18:49:59.001Z</time></trkpt><trkpt lat="45.46614016859128" lon="10.396867763385568"><ele>130.0</ele><time>2026-04-26T18:50:00.001Z</time></trkpt><trkpt lat="45.46606720548925" lon="10.397286029558702"><ele>130.0</ele><time>2026-04-26T18:50:01.001Z</time></trkpt><trkpt lat="45.46599977246011" lon="10.397705868320855"><ele>130.0</ele><time>2026-04-26T18:50:02.001Z</time></trkpt><trkpt lat="45.4659331962031" lon="10.398125736000383"><ele>130.0</ele><time>2026-04-26T18:50:03.001Z</time></trkpt><trkpt lat="45.46586644751449" lon="10.398548125556598"><ele>130.0</ele><time>2026-04-26T18:50:04.001Z</time></trkpt><trkpt lat="45.46579886867721" lon="10.398968606236068"><ele>130.0</ele><time>2026-04-26T18:50:05.001Z</time></trkpt><trkpt lat="45.465734564326056" lon="10.399387197700014"><ele>130.0</ele><time>2026-04-26T18:50:06.001Z</time></trkpt><trkpt lat="45.46567571409389" lon="10.399807441410193"><ele>130.5</ele><time>2026-04-26T18:50:07.001Z</time></trkpt><trkpt lat="45.46562359581215" lon="10.400229424254011"><ele>131.0</ele><time>2026-04-26T18:50:08.001Z</time></trkpt><trkpt lat="45.465577260741604" lon="10.400654446682905"><ele>131.5</ele><time>2026-04-26T18:50:09.001Z</time></trkpt><trkpt lat="45.46553602777874" lon="10.401082319245893"><ele>132.0</ele><time>2026-04-26T18:50:10.001Z</time></trkpt><trkpt lat="45.46549904309382" lon="10.401513063289972"><ele>131.0</ele><time>2026-04-26T18:50:11.001Z</time></trkpt><trkpt lat="45.465463938905636" lon="10.401945086943439"><ele>130.0</ele><time>2026-04-26T18:50:12.001Z</time></trkpt><trkpt lat="45.465430004564666" lon="10.402378654342844"><ele>128.5</ele><time>2026-04-26T18:50:13.001Z</time></trkpt><trkpt lat="45.465395318696665" lon="10.402815924844313"><ele>127.0</ele><time>2026-04-26T18:50:14.001Z</time></trkpt><trkpt lat="45.46535901727357" lon="10.403252929067994"><ele>127.0</ele><time>2026-04-26T18:50:15.001Z</time></trkpt><trkpt lat="45.465322373958514" lon="10.403692578243046"><ele>127.0</ele><time>2026-04-26T18:50:16.001Z</time></trkpt><trkpt lat="45.465286037780835" lon="10.404131296367202"><ele>126.5</ele><time>2026-04-26T18:50:17.001Z</time></trkpt><trkpt lat="45.46525162782221" lon="10.404569823711423"><ele>126.0</ele><time>2026-04-26T18:50:18.001Z</time></trkpt><trkpt lat="45.46521833954785" lon="10.405005344266055"><ele>126.0</ele><time>2026-04-26T18:50:19.001Z</time></trkpt><trkpt lat="45.46518425693131" lon="10.405434496118348"><ele>126.0</ele><time>2026-04-26T18:50:20.001Z</time></trkpt><trkpt lat="45.46515092922991" lon="10.40584432896992"><ele>126.0</ele><time>2026-04-26T18:50:21.001Z</time></trkpt><trkpt lat="45.465114802913696" lon="10.406271886939601"><ele>126.0</ele><time>2026-04-26T18:50:22.001Z</time></trkpt><trkpt lat="45.465078696887325" lon="10.406704210573114"><ele>126.5</ele><time>2026-04-26T18:50:23.001Z</time></trkpt><trkpt lat="45.46504305753694" lon="10.407137552399282"><ele>127.0</ele><time>2026-04-26T18:50:24.001Z</time></trkpt><trkpt lat="45.46500802806932" lon="10.407573210129316"><ele>128.5</ele><time>2026-04-26T18:50:25.001Z</time></trkpt><trkpt lat="45.46497312497594" lon="10.40800789763273"><ele>130.0</ele><time>2026-04-26T18:50:26.001Z</time></trkpt><trkpt lat="45.46493617837673" lon="10.408438761265009"><ele>130.5</ele><time>2026-04-26T18:50:27.001Z</time></trkpt><trkpt lat="45.464898492925606" lon="10.408869363915093"><ele>131.0</ele><time>2026-04-26T18:50:28.001Z</time></trkpt><trkpt lat="45.46486241302904" lon="10.409302360573793"><ele>132.0</ele><time>2026-04-26T18:50:29.001Z</time></trkpt><trkpt lat="45.464828173371146" lon="10.409738208961715"><ele>133.0</ele><time>2026-04-26T18:50:30.001Z</time></trkpt><trkpt lat="45.46479184264442" lon="10.410175205316062"><ele>134.5</ele><time>2026-04-26T18:50:31.001Z</time></trkpt><trkpt lat="45.464755936164224" lon="10.41061414552314"><ele>136.0</ele><time>2026-04-26T18:50:32.001Z</time></trkpt><trkpt lat="45.46472041287068" lon="10.411053565083076"><ele>137.0</ele><time>2026-04-26T18:50:33.001Z</time></trkpt><trkpt lat="45.46468458391704" lon="10.411490654306482"><ele>138.0</ele><time>2026-04-26T18:50:34.001Z</time></trkpt><trkpt lat="45.46464943487295" lon="10.411927941330639"><ele>138.0</ele><time>2026-04-26T18:50:35.001Z</time></trkpt><trkpt lat="45.46461438750996" lon="10.412364527979653"><ele>138.0</ele><time>2026-04-26T18:50:36.001Z</time></trkpt><trkpt lat="45.46457899057386" lon="10.412803068208785"><ele>137.0</ele><time>2026-04-26T18:50:37.001Z</time></trkpt><trkpt lat="45.46454307811658" lon="10.413240847727785"><ele>136.0</ele><time>2026-04-26T18:50:38.001Z</time></trkpt><trkpt lat="45.464506919524716" lon="10.41367467635957"><ele>137.0</ele><time>2026-04-26T18:50:39.001Z</time></trkpt><trkpt lat="45.46447015490262" lon="10.414108852946322"><ele>138.0</ele><time>2026-04-26T18:50:40.001Z</time></trkpt><trkpt lat="45.46443287965453" lon="10.414544876455295"><ele>140.0</ele><time>2026-04-26T18:50:41.001Z</time></trkpt><trkpt lat="45.464395304804114" lon="10.414981548506155"><ele>142.0</ele><time>2026-04-26T18:50:42.001Z</time></trkpt><trkpt lat="45.464358902341075" lon="10.41542086015058"><ele>144.5</ele><time>2026-04-26T18:50:43.001Z</time></trkpt><trkpt lat="45.464322417348235" lon="10.415861167452015"><ele>147.0</ele><time>2026-04-26T18:50:44.001Z</time></trkpt><trkpt lat="45.464286982542376" lon="10.41629805533617"><ele>148.0</ele><time>2026-04-26T18:50:45.001Z</time></trkpt><trkpt lat="45.46425069040798" lon="10.416731004994777"><ele>149.0</ele><time>2026-04-26T18:50:46.001Z</time></trkpt><trkpt lat="45.46421630071556" lon="10.4171596426878"><ele>149.0</ele><time>2026-04-26T18:50:47.001Z</time></trkpt><trkpt lat="45.464183423569196" lon="10.4175883175308"><ele>149.0</ele><time>2026-04-26T18:50:48.001Z</time></trkpt><trkpt lat="45.46414957700579" lon="10.418037517132797"><ele>150.0</ele><time>2026-04-26T18:50:49.001Z</time></trkpt><trkpt lat="45.464121879287696" lon="10.418496136340982"><ele>151.0</ele><time>2026-04-26T18:50:50.001Z</time></trkpt><trkpt lat="45.464095294877794" lon="10.418945437804238"><ele>153.5</ele><time>2026-04-26T18:50:51.001Z</time></trkpt><trkpt lat="45.46406647844865" lon="10.419394787224528"><ele>156.0</ele><time>2026-04-26T18:50:52.001Z</time></trkpt><trkpt lat="45.4640333753237" lon="10.419839452580476"><ele>157.5</ele><time>2026-04-26T18:50:53.001Z</time></trkpt><trkpt lat="45.46399587285618" lon="10.4202783735747"><ele>159.0</ele><time>2026-04-26T18:50:54.001Z</time></trkpt><trkpt lat="45.46395941037143" lon="10.420710682189439"><ele>155.5</ele><time>2026-04-26T18:50:55.001Z</time></trkpt><trkpt lat="45.46393024126518" lon="10.421141742794733"><ele>152.0</ele><time>2026-04-26T18:50:56.001Z</time></trkpt><trkpt lat="45.46390293823119" lon="10.421586121147135"><ele>148.5</ele><time>2026-04-26T18:50:57.001Z</time></trkpt><trkpt lat="45.46386996461548" lon="10.422036468409395"><ele>145.0</ele><time>2026-04-26T18:50:58.001Z</time></trkpt><trkpt lat="45.463836574566784" lon="10.422492491087764"><ele>143.0</ele><time>2026-04-26T18:50:59.001Z</time></trkpt><trkpt lat="45.46379997270933" lon="10.422948598034099"><ele>141.0</ele><time>2026-04-26T18:51:00.001Z</time></trkpt><trkpt lat="45.463760155437726" lon="10.423412543331304"><ele>137.5</ele><time>2026-04-26T18:51:01.001Z</time></trkpt><trkpt lat="45.463722297981285" lon="10.42386729995557"><ele>134.0</ele><time>2026-04-26T18:51:02.001Z</time></trkpt><trkpt lat="45.46367964098687" lon="10.424317748193115"><ele>132.0</ele><time>2026-04-26T18:51:03.001Z</time></trkpt><trkpt lat="45.46363761897475" lon="10.42476689725701"><ele>130.0</ele><time>2026-04-26T18:51:04.001Z</time></trkpt><trkpt lat="45.46359407762067" lon="10.425214689026202"><ele>130.0</ele><time>2026-04-26T18:51:05.001Z</time></trkpt><trkpt lat="45.46355373120456" lon="10.42565750490588"><ele>130.0</ele><time>2026-04-26T18:51:06Z</time></trkpt><trkpt lat="45.46351624227401" lon="10.426102789547102"><ele>130.5</ele><time>2026-04-26T18:51:07Z</time></trkpt><trkpt lat="45.46347895349248" lon="10.42654295356347"><ele>131.0</ele><time>2026-04-26T18:51:08Z</time></trkpt><trkpt lat="45.463441817284924" lon="10.426980660833506"><ele>132.0</ele><time>2026-04-26T18:51:09Z</time></trkpt><trkpt lat="45.46340713201577" lon="10.427413895857567"><ele>133.0</ele><time>2026-04-26T18:51:10Z</time></trkpt><trkpt lat="45.46337312410541" lon="10.427847570522891"><ele>132.5</ele><time>2026-04-26T18:51:11Z</time></trkpt><trkpt lat="45.46333790767311" lon="10.428277536479852"><ele>132.0</ele><time>2026-04-26T18:51:12Z</time></trkpt><trkpt lat="45.46330234741971" lon="10.428706042309775"><ele>131.0</ele><time>2026-04-26T18:51:13Z</time></trkpt><trkpt lat="45.463266774019374" lon="10.429133697351263"><ele>130.0</ele><time>2026-04-26T18:51:14Z</time></trkpt><trkpt lat="45.46321935034995" lon="10.429557438372997"><ele>131.0</ele><time>2026-04-26T18:51:15Z</time></trkpt><trkpt lat="45.4631658976153" lon="10.42997697405368"><ele>132.0</ele><time>2026-04-26T18:51:16Z</time></trkpt><trkpt lat="45.46311252595758" lon="10.43039416733783"><ele>132.0</ele><time>2026-04-26T18:51:17Z</time></trkpt><trkpt lat="45.46305571655815" lon="10.430812684133018"><ele>132.0</ele><time>2026-04-26T18:51:18Z</time></trkpt><trkpt lat="45.4629955242675" lon="10.431232935268206"><ele>132.5</ele><time>2026-04-26T18:51:19Z</time></trkpt><trkpt lat="45.46293212723762" lon="10.431651333937749"><ele>133.0</ele><time>2026-04-26T18:51:20Z</time></trkpt><trkpt lat="45.46286189240796" lon="10.432067376086307"><ele>133.0</ele><time>2026-04-26T18:51:21Z</time></trkpt><trkpt lat="45.46278821679057" lon="10.43248489436572"><ele>133.0</ele><time>2026-04-26T18:51:22Z</time></trkpt><trkpt lat="45.46270963422012" lon="10.432899895644262"><ele>132.0</ele><time>2026-04-26T18:51:23Z</time></trkpt><trkpt lat="45.462628993017034" lon="10.433312785340357"><ele>131.0</ele><time>2026-04-26T18:51:24Z</time></trkpt><trkpt lat="45.46254432090702" lon="10.433724306864947"><ele>131.5</ele><time>2026-04-26T18:51:25Z</time></trkpt><trkpt lat="45.46245890171454" lon="10.43413329197058"><ele>132.0</ele><time>2026-04-26T18:51:26Z</time></trkpt><trkpt lat="45.46237420576559" lon="10.434541185926442"><ele>132.0</ele><time>2026-04-26T18:51:27Z</time></trkpt><trkpt lat="45.462289492838906" lon="10.434950951753839"><ele>132.0</ele><time>2026-04-26T18:51:28Z</time></trkpt><trkpt lat="45.46220452382244" lon="10.435362522597732"><ele>131.5</ele><time>2026-04-26T18:51:29Z</time></trkpt><trkpt lat="45.46211949613072" lon="10.435773472470704"><ele>131.0</ele><time>2026-04-26T18:51:30Z</time></trkpt><trkpt lat="45.46203491647896" lon="10.436184104682239"><ele>131.0</ele><time>2026-04-26T18:51:31Z</time></trkpt><trkpt lat="45.461951959248324" lon="10.436593465689183"><ele>131.0</ele><time>2026-04-26T18:51:32Z</time></trkpt><trkpt lat="45.461866650991084" lon="10.437002353689664"><ele>131.0</ele><time>2026-04-26T18:51:33Z</time></trkpt><trkpt lat="45.46178176288238" lon="10.437411454170187"><ele>131.0</ele><time>2026-04-26T18:51:34Z</time></trkpt><trkpt lat="45.46169588022286" lon="10.437819168423545"><ele>130.5</ele><time>2026-04-26T18:51:35Z</time></trkpt><trkpt lat="45.46160975638394" lon="10.438227225006509"><ele>130.0</ele><time>2026-04-26T18:51:36Z</time></trkpt><trkpt lat="45.46152455237232" lon="10.438636017913863"><ele>130.5</ele><time>2026-04-26T18:51:37Z</time></trkpt><trkpt lat="45.46143962271366" lon="10.439043292037294"><ele>131.0</ele><time>2026-04-26T18:51:38Z</time></trkpt><trkpt lat="45.46135583453387" lon="10.439451729422274"><ele>131.0</ele><time>2026-04-26T18:51:39Z</time></trkpt><trkpt lat="45.461271827713055" lon="10.439859083203837"><ele>131.0</ele><time>2026-04-26T18:51:40Z</time></trkpt><trkpt lat="45.46118663815501" lon="10.440264872188717"><ele>132.0</ele><time>2026-04-26T18:51:41Z</time></trkpt><trkpt lat="45.46110095251122" lon="10.440670276972313"><ele>133.0</ele><time>2026-04-26T18:51:42Z</time></trkpt><trkpt lat="45.461015730520174" lon="10.441075917731686"><ele>133.0</ele><time>2026-04-26T18:51:43Z</time></trkpt><trkpt lat="45.460931706940265" lon="10.441481558244837"><ele>133.0</ele><time>2026-04-26T18:51:44Z</time></trkpt><trkpt lat="45.46084599362391" lon="10.441887189897345"><ele>134.5</ele><time>2026-04-26T18:51:45Z</time></trkpt><trkpt lat="45.4607632476952" lon="10.442297029196466"><ele>136.0</ele><time>2026-04-26T18:51:46Z</time></trkpt><trkpt lat="45.46067982528883" lon="10.442708657266293"><ele>135.0</ele><time>2026-04-26T18:51:47Z</time></trkpt><trkpt lat="45.46059620856452" lon="10.443123271491205"><ele>134.0</ele><time>2026-04-26T18:51:48Z</time></trkpt><trkpt lat="45.46051349604479" lon="10.44353434597699"><ele>133.0</ele><time>2026-04-26T18:51:49Z</time></trkpt><trkpt lat="45.46042840839714" lon="10.443944845731329"><ele>132.0</ele><time>2026-04-26T18:51:50Z</time></trkpt><trkpt lat="45.460344917200935" lon="10.44435343346775"><ele>132.5</ele><time>2026-04-26T18:51:51Z</time></trkpt><trkpt lat="45.46025971355505" lon="10.444763056432992"><ele>133.0</ele><time>2026-04-26T18:51:52Z</time></trkpt><trkpt lat="45.46017475682127" lon="10.445171582325383"><ele>132.5</ele><time>2026-04-26T18:51:53Z</time></trkpt><trkpt lat="45.460089533069215" lon="10.445579654587512"><ele>132.0</ele><time>2026-04-26T18:51:54Z</time></trkpt><trkpt lat="45.46000524246843" lon="10.445986936411671"><ele>131.5</ele><time>2026-04-26T18:51:55Z</time></trkpt><trkpt lat="45.4599187963821" lon="10.446393328318731"><ele>131.0</ele><time>2026-04-26T18:51:56Z</time></trkpt><trkpt lat="45.45983494023314" lon="10.446798937780992"><ele>131.5</ele><time>2026-04-26T18:51:57Z</time></trkpt><trkpt lat="45.459749919020695" lon="10.447204834170048"><ele>132.0</ele><time>2026-04-26T18:51:58Z</time></trkpt><trkpt lat="45.45966498429217" lon="10.447610914060377"><ele>132.5</ele><time>2026-04-26T18:51:59Z</time></trkpt><trkpt lat="45.45957935654274" lon="10.448015816803531"><ele>133.0</ele><time>2026-04-26T18:52:00Z</time></trkpt><trkpt lat="45.45949399933722" lon="10.448422378757202"><ele>133.5</ele><time>2026-04-26T18:52:01Z</time></trkpt><trkpt lat="45.45941008576972" lon="10.448834878055134"><ele>134.0</ele><time>2026-04-26T18:52:02Z</time></trkpt><trkpt lat="45.45932431317702" lon="10.449246904632693"><ele>134.5</ele><time>2026-04-26T18:52:03Z</time></trkpt><trkpt lat="45.45924007928185" lon="10.449658977852057"><ele>135.0</ele><time>2026-04-26T18:52:04Z</time></trkpt><trkpt lat="45.45915537431261" lon="10.450070752476671"><ele>135.0</ele><time>2026-04-26T18:52:05Z</time></trkpt><trkpt lat="45.459071151649255" lon="10.450481066977254"><ele>135.0</ele><time>2026-04-26T18:52:06Z</time></trkpt><trkpt lat="45.45898566875251" lon="10.45088940424594"><ele>134.5</ele><time>2026-04-26T18:52:07Z</time></trkpt><trkpt lat="45.45889946443542" lon="10.451298122838525"><ele>134.0</ele><time>2026-04-26T18:52:08Z</time></trkpt><trkpt lat="45.458814865428614" lon="10.451709857406689"><ele>135.0</ele><time>2026-04-26T18:52:09.001Z</time></trkpt><trkpt lat="45.45872639573881" lon="10.452124364825947"><ele>136.0</ele><time>2026-04-26T18:52:10.001Z</time></trkpt><trkpt lat="45.4586301942558" lon="10.452536380889047"><ele>136.0</ele><time>2026-04-26T18:52:11.001Z</time></trkpt><trkpt lat="45.45854384661386" lon="10.452953928384286"><ele>136.0</ele><time>2026-04-26T18:52:12.001Z</time></trkpt><trkpt lat="45.45845544578225" lon="10.453372981401598"><ele>137.0</ele><time>2026-04-26T18:52:13.001Z</time></trkpt><trkpt lat="45.45836655887999" lon="10.453790169512029"><ele>138.0</ele><time>2026-04-26T18:52:14.001Z</time></trkpt><trkpt lat="45.45827241440389" lon="10.454204234212362"><ele>138.0</ele><time>2026-04-26T18:52:15.001Z</time></trkpt><trkpt lat="45.45817118039906" lon="10.454617756972429"><ele>138.0</ele><time>2026-04-26T18:52:16.001Z</time></trkpt><trkpt lat="45.4580634559723" lon="10.455027744580006"><ele>138.5</ele><time>2026-04-26T18:52:17.001Z</time></trkpt><trkpt lat="45.457958441483115" lon="10.455439854968287"><ele>139.0</ele><time>2026-04-26T18:52:18.001Z</time></trkpt><trkpt lat="45.45785452131244" lon="10.455851865796673"><ele>139.0</ele><time>2026-04-26T18:52:19.001Z</time></trkpt><trkpt lat="45.457755530271825" lon="10.456261748667647"><ele>139.0</ele><time>2026-04-26T18:52:20.001Z</time></trkpt><trkpt lat="45.45765300850194" lon="10.456671508999179"><ele>139.0</ele><time>2026-04-26T18:52:21.001Z</time></trkpt><trkpt lat="45.4575538807573" lon="10.457081355321597"><ele>139.0</ele><time>2026-04-26T18:52:22.001Z</time></trkpt><trkpt lat="45.4574534710174" lon="10.457490154955439"><ele>140.0</ele><time>2026-04-26T18:52:23.001Z</time></trkpt><trkpt lat="45.4573526722342" lon="10.45789931942515"><ele>141.0</ele><time>2026-04-26T18:52:24.001Z</time></trkpt><trkpt lat="45.457251963021555" lon="10.458303966691526"><ele>141.5</ele><time>2026-04-26T18:52:25.001Z</time></trkpt><trkpt lat="45.45715198261665" lon="10.45870745269557"><ele>142.0</ele><time>2026-04-26T18:52:26.001Z</time></trkpt><trkpt lat="45.45705187650132" lon="10.4591083917057"><ele>142.0</ele><time>2026-04-26T18:52:27.001Z</time></trkpt><trkpt lat="45.45695171379848" lon="10.459506538345174"><ele>142.0</ele><time>2026-04-26T18:52:28.001Z</time></trkpt><trkpt lat="45.456855468034966" lon="10.459901454334439"><ele>141.0</ele><time>2026-04-26T18:52:29.001Z</time></trkpt><trkpt lat="45.45675805588378" lon="10.460300356491913"><ele>140.0</ele><time>2026-04-26T18:52:30.001Z</time></trkpt><trkpt lat="45.45665900524094" lon="10.460699846633403"><ele>139.5</ele><time>2026-04-26T18:52:31.001Z</time></trkpt><trkpt lat="45.45655798907255" lon="10.461100775144834"><ele>139.0</ele><time>2026-04-26T18:52:32.001Z</time></trkpt><trkpt lat="45.456460288999864" lon="10.461503167421617"><ele>139.5</ele><time>2026-04-26T18:52:33.001Z</time></trkpt><trkpt lat="45.45635944299737" lon="10.461901996269146"><ele>140.0</ele><time>2026-04-26T18:52:34.001Z</time></trkpt><trkpt lat="45.456257079680746" lon="10.462303309511865"><ele>140.0</ele><time>2026-04-26T18:52:35.001Z</time></trkpt><trkpt lat="45.45615785804883" lon="10.462702106498412"><ele>140.0</ele><time>2026-04-26T18:52:36.001Z</time></trkpt><trkpt lat="45.45605939580599" lon="10.463100883295198"><ele>140.5</ele><time>2026-04-26T18:52:37.001Z</time></trkpt><trkpt lat="45.45596365955427" lon="10.463502624240187"><ele>141.0</ele><time>2026-04-26T18:52:38.001Z</time></trkpt><trkpt lat="45.4558672937495" lon="10.46389947059708"><ele>142.0</ele><time>2026-04-26T18:52:39.001Z</time></trkpt><trkpt lat="45.455769870960474" lon="10.464296531107209"><ele>143.0</ele><time>2026-04-26T18:52:40.001Z</time></trkpt><trkpt lat="45.45567104740016" lon="10.464695823977829"><ele>143.0</ele><time>2026-04-26T18:52:41.001Z</time></trkpt><trkpt lat="45.45557221952317" lon="10.465091271454003"><ele>143.0</ele><time>2026-04-26T18:52:42.001Z</time></trkpt><trkpt lat="45.45547371197157" lon="10.465489330534703"><ele>143.5</ele><time>2026-04-26T18:52:43.001Z</time></trkpt><trkpt lat="45.45537419471643" lon="10.465887941549829"><ele>144.0</ele><time>2026-04-26T18:52:44.001Z</time></trkpt><trkpt lat="45.45527344809973" lon="10.466287271436201"><ele>144.0</ele><time>2026-04-26T18:52:45.001Z</time></trkpt><trkpt lat="45.455173283594014" lon="10.466683798255534"><ele>144.0</ele><time>2026-04-26T18:52:46.001Z</time></trkpt><trkpt lat="45.455073288196076" lon="10.467082649250838"><ele>143.0</ele><time>2026-04-26T18:52:47.001Z</time></trkpt><trkpt lat="45.45497340343933" lon="10.467480977803328"><ele>142.0</ele><time>2026-04-26T18:52:48.001Z</time></trkpt><trkpt lat="45.4548767204457" lon="10.467880605330238"><ele>142.5</ele><time>2026-04-26T18:52:49.001Z</time></trkpt><trkpt lat="45.454781133577406" lon="10.468281713056802"><ele>143.0</ele><time>2026-04-26T18:52:50.001Z</time></trkpt><trkpt lat="45.45468865369839" lon="10.46868433923498"><ele>144.0</ele><time>2026-04-26T18:52:51.001Z</time></trkpt><trkpt lat="45.4545993533681" lon="10.469086450615189"><ele>145.0</ele><time>2026-04-26T18:52:52.001Z</time></trkpt><trkpt lat="45.45452101780884" lon="10.469494656398382"><ele>145.0</ele><time>2026-04-26T18:52:53.001Z</time></trkpt><trkpt lat="45.45444315398359" lon="10.469902694829015"><ele>145.0</ele><time>2026-04-26T18:52:54.001Z</time></trkpt><trkpt lat="45.45436984001647" lon="10.470315288909877"><ele>145.0</ele><time>2026-04-26T18:52:55.001Z</time></trkpt><trkpt lat="45.4543032242627" lon="10.470728622863609"><ele>145.0</ele><time>2026-04-26T18:52:56.001Z</time></trkpt><trkpt lat="45.45424183794927" lon="10.471143613157746"><ele>146.0</ele><time>2026-04-26T18:52:57.001Z</time></trkpt><trkpt lat="45.454185615619934" lon="10.471559947423152"><ele>147.0</ele><time>2026-04-26T18:52:58.001Z</time></trkpt><trkpt lat="45.45413159477151" lon="10.471977128665118"><ele>146.0</ele><time>2026-04-26T18:52:59.001Z</time></trkpt><trkpt lat="45.45408235903397" lon="10.472397204742986"><ele>145.0</ele><time>2026-04-26T18:53:00.001Z</time></trkpt><trkpt lat="45.454038331026716" lon="10.472816647955977"><ele>146.0</ele><time>2026-04-26T18:53:01.001Z</time></trkpt><trkpt lat="45.4540000388604" lon="10.473238263322882"><ele>147.0</ele><time>2026-04-26T18:53:02.001Z</time></trkpt><trkpt lat="45.45396526875465" lon="10.473661429069608"><ele>147.0</ele><time>2026-04-26T18:53:03.001Z</time></trkpt><trkpt lat="45.4539306649871" lon="10.474086768442167"><ele>147.0</ele><time>2026-04-26T18:53:04.001Z</time></trkpt><trkpt lat="45.453892154928745" lon="10.474512038590747"><ele>147.5</ele><time>2026-04-26T18:53:05.001Z</time></trkpt><trkpt lat="45.453853275504684" lon="10.474937987215652"><ele>148.0</ele><time>2026-04-26T18:53:06.001Z</time></trkpt><trkpt lat="45.4538148457002" lon="10.475365277718605"><ele>148.0</ele><time>2026-04-26T18:53:07.001Z</time></trkpt><trkpt lat="45.453778165266534" lon="10.475794303846058"><ele>148.0</ele><time>2026-04-26T18:53:08.001Z</time></trkpt><trkpt lat="45.453746468255545" lon="10.476223604944494"><ele>149.0</ele><time>2026-04-26T18:53:09.001Z</time></trkpt><trkpt lat="45.453721487114564" lon="10.47665252131687"><ele>150.0</ele><time>2026-04-26T18:53:10.001Z</time></trkpt><trkpt lat="45.45370478016223" lon="10.47708488689471"><ele>150.0</ele><time>2026-04-26T18:53:11.001Z</time></trkpt><trkpt lat="45.45368871934564" lon="10.477514468722479"><ele>150.0</ele><time>2026-04-26T18:53:12Z</time></trkpt><trkpt lat="45.453671691959364" lon="10.477945211276923"><ele>149.5</ele><time>2026-04-26T18:53:13Z</time></trkpt><trkpt lat="45.45365341244273" lon="10.478376437351184"><ele>149.0</ele><time>2026-04-26T18:53:14Z</time></trkpt><trkpt lat="45.45363648924211" lon="10.478807717441574"><ele>148.5</ele><time>2026-04-26T18:53:15Z</time></trkpt><trkpt lat="45.45362127720728" lon="10.479239660429151"><ele>148.0</ele><time>2026-04-26T18:53:16Z</time></trkpt><trkpt lat="45.453607540053035" lon="10.479671877412457"><ele>147.0</ele><time>2026-04-26T18:53:17Z</time></trkpt><trkpt lat="45.453589844363115" lon="10.480107209580176"><ele>146.0</ele><time>2026-04-26T18:53:18Z</time></trkpt><trkpt lat="45.45356746372112" lon="10.48053740819361"><ele>146.0</ele><time>2026-04-26T18:53:19Z</time></trkpt><trkpt lat="45.4535475174151" lon="10.480971959055939"><ele>146.0</ele><time>2026-04-26T18:53:20Z</time></trkpt><trkpt lat="45.453528693619496" lon="10.481405750889365"><ele>146.5</ele><time>2026-04-26T18:53:21Z</time></trkpt><trkpt lat="45.45351021420084" lon="10.48184034974879"><ele>147.0</ele><time>2026-04-26T18:53:22Z</time></trkpt><trkpt lat="45.45349456476644" lon="10.482274923333543"><ele>147.0</ele><time>2026-04-26T18:53:23Z</time></trkpt><trkpt lat="45.45347801578275" lon="10.482711067943725"><ele>147.0</ele><time>2026-04-26T18:53:24Z</time></trkpt><trkpt lat="45.4534521691713" lon="10.483146976015043"><ele>148.0</ele><time>2026-04-26T18:53:25Z</time></trkpt><trkpt lat="45.453414686107614" lon="10.483581504567105"><ele>149.0</ele><time>2026-04-26T18:53:26Z</time></trkpt><trkpt lat="45.4533678623018" lon="10.48401515618373"><ele>150.5</ele><time>2026-04-26T18:53:27Z</time></trkpt><trkpt lat="45.45331316008959" lon="10.484448653824446"><ele>152.0</ele><time>2026-04-26T18:53:28Z</time></trkpt><trkpt lat="45.45325732547891" lon="10.484882036351774"><ele>153.0</ele><time>2026-04-26T18:53:29Z</time></trkpt><trkpt lat="45.45320426642633" lon="10.485315723530752"><ele>154.0</ele><time>2026-04-26T18:53:30Z</time></trkpt><trkpt lat="45.453154031006314" lon="10.485746099144292"><ele>157.0</ele><time>2026-04-26T18:53:31Z</time></trkpt><trkpt lat="45.453104763246905" lon="10.486175612371012"><ele>160.0</ele><time>2026-04-26T18:53:32Z</time></trkpt><trkpt lat="45.45305608412445" lon="10.486602940496086"><ele>162.0</ele><time>2026-04-26T18:53:33Z</time></trkpt><trkpt lat="45.453006229760156" lon="10.487027784342118"><ele>164.0</ele><time>2026-04-26T18:53:34Z</time></trkpt><trkpt lat="45.45295654389268" lon="10.487450866111104"><ele>164.5</ele><time>2026-04-26T18:53:35Z</time></trkpt><trkpt lat="45.4529079664804" lon="10.487871662538819"><ele>165.0</ele><time>2026-04-26T18:53:36Z</time></trkpt><trkpt lat="45.45285949488165" lon="10.488289715883516"><ele>165.0</ele><time>2026-04-26T18:53:37Z</time></trkpt><trkpt lat="45.452810987360174" lon="10.488707688604848"><ele>165.0</ele><time>2026-04-26T18:53:38Z</time></trkpt><trkpt lat="45.45276148945539" lon="10.48912681641689"><ele>165.0</ele><time>2026-04-26T18:53:39Z</time></trkpt><trkpt lat="45.45271241234171" lon="10.489545666572175"><ele>165.0</ele><time>2026-04-26T18:53:40Z</time></trkpt><trkpt lat="45.452664120028736" lon="10.48996589311558"><ele>166.5</ele><time>2026-04-26T18:53:41Z</time></trkpt><trkpt lat="45.45261453173447" lon="10.490386968033082"><ele>168.0</ele><time>2026-04-26T18:53:42Z</time></trkpt><trkpt lat="45.45256479359639" lon="10.490806561124009"><ele>169.0</ele><time>2026-04-26T18:53:43Z</time></trkpt><trkpt lat="45.45251534695804" lon="10.491226891914863"><ele>170.0</ele><time>2026-04-26T18:53:44Z</time></trkpt><trkpt lat="45.452466391038094" lon="10.491645709432788"><ele>170.0</ele><time>2026-04-26T18:53:45Z</time></trkpt><trkpt lat="45.45241876125176" lon="10.492066095342732"><ele>170.0</ele><time>2026-04-26T18:53:46Z</time></trkpt><trkpt lat="45.452370458598345" lon="10.492486511546897"><ele>170.5</ele><time>2026-04-26T18:53:47Z</time></trkpt><trkpt lat="45.45232195217004" lon="10.492910801254007"><ele>171.0</ele><time>2026-04-26T18:53:48Z</time></trkpt><trkpt lat="45.45227164796912" lon="10.49334103106361"><ele>176.0</ele><time>2026-04-26T18:53:49Z</time></trkpt><trkpt lat="45.45222269057198" lon="10.493774030267158"><ele>181.0</ele><time>2026-04-26T18:53:50Z</time></trkpt><trkpt lat="45.45217251410684" lon="10.494208484543616"><ele>179.5</ele><time>2026-04-26T18:53:51Z</time></trkpt><trkpt lat="45.45212204017153" lon="10.494641871499255"><ele>178.0</ele><time>2026-04-26T18:53:52Z</time></trkpt><trkpt lat="45.452071243743035" lon="10.495076500572356"><ele>180.0</ele><time>2026-04-26T18:53:53Z</time></trkpt><trkpt lat="45.45201975075491" lon="10.495512145878548"><ele>182.0</ele><time>2026-04-26T18:53:54Z</time></trkpt><trkpt lat="45.45196645895333" lon="10.49594826882076"><ele>185.0</ele><time>2026-04-26T18:53:55Z</time></trkpt><trkpt lat="45.451911240061925" lon="10.496383059405208"><ele>188.0</ele><time>2026-04-26T18:53:56Z</time></trkpt><trkpt lat="45.45185768330953" lon="10.49681973236464"><ele>190.0</ele><time>2026-04-26T18:53:57Z</time></trkpt><trkpt lat="45.451805051743605" lon="10.497256957905506"><ele>192.0</ele><time>2026-04-26T18:53:58Z</time></trkpt><trkpt lat="45.45175535426436" lon="10.497694246425095"><ele>191.0</ele><time>2026-04-26T18:53:59Z</time></trkpt><trkpt lat="45.45170627822938" lon="10.49813237412578"><ele>190.0</ele><time>2026-04-26T18:54:00Z</time></trkpt><trkpt lat="45.45165840470637" lon="10.498571874208555"><ele>186.5</ele><time>2026-04-26T18:54:01Z</time></trkpt><trkpt lat="45.451607398693305" lon="10.499009980119938"><ele>183.0</ele><time>2026-04-26T18:54:02Z</time></trkpt><trkpt lat="45.45155682888992" lon="10.49945070520894"><ele>180.5</ele><time>2026-04-26T18:54:03Z</time></trkpt><trkpt lat="45.45151078961656" lon="10.499892970762456"><ele>178.0</ele><time>2026-04-26T18:54:04Z</time></trkpt><trkpt lat="45.45147053299435" lon="10.500338401534096"><ele>177.0</ele><time>2026-04-26T18:54:05Z</time></trkpt><trkpt lat="45.451429868600634" lon="10.50078675115449"><ele>176.0</ele><time>2026-04-26T18:54:06Z</time></trkpt><trkpt lat="45.45138852697613" lon="10.501234313682044"><ele>178.0</ele><time>2026-04-26T18:54:07Z</time></trkpt><trkpt lat="45.45134652303012" lon="10.50168201338543"><ele>180.0</ele><time>2026-04-26T18:54:08Z</time></trkpt><trkpt lat="45.45130516182348" lon="10.50213020906258"><ele>176.0</ele><time>2026-04-26T18:54:09Z</time></trkpt><trkpt lat="45.45126281033364" lon="10.502579203805242"><ele>172.0</ele><time>2026-04-26T18:54:10Z</time></trkpt><trkpt lat="45.4512207521694" lon="10.503029928399862"><ele>172.0</ele><time>2026-04-26T18:54:11Z</time></trkpt><trkpt lat="45.45117878964735" lon="10.503481150715007"><ele>172.0</ele><time>2026-04-26T18:54:12Z</time></trkpt><trkpt lat="45.45113618502243" lon="10.503933411574865"><ele>171.0</ele><time>2026-04-26T18:54:13Z</time></trkpt><trkpt lat="45.451091771390914" lon="10.504388172396313"><ele>170.0</ele><time>2026-04-26T18:54:14Z</time></trkpt><trkpt lat="45.45104607214383" lon="10.50484379293309"><ele>168.5</ele><time>2026-04-26T18:54:15Z</time></trkpt><trkpt lat="45.451000838779336" lon="10.505301143092568"><ele>167.0</ele><time>2026-04-26T18:54:16Z</time></trkpt><trkpt lat="45.45095640015429" lon="10.50575767943872"><ele>166.5</ele><time>2026-04-26T18:54:17Z</time></trkpt><trkpt lat="45.45091309212553" lon="10.506213733748192"><ele>166.0</ele><time>2026-04-26T18:54:18Z</time></trkpt><trkpt lat="45.45087067380035" lon="10.50666934334126"><ele>165.0</ele><time>2026-04-26T18:54:19Z</time></trkpt><trkpt lat="45.45082932882069" lon="10.507125188406887"><ele>164.0</ele><time>2026-04-26T18:54:20Z</time></trkpt><trkpt lat="45.45078610584257" lon="10.507580950319335"><ele>163.5</ele><time>2026-04-26T18:54:21Z</time></trkpt><trkpt lat="45.45074228234735" lon="10.508038346803101"><ele>163.0</ele><time>2026-04-26T18:54:22Z</time></trkpt><trkpt lat="45.45069767989731" lon="10.50849582543571"><ele>162.0</ele><time>2026-04-26T18:54:23Z</time></trkpt><trkpt lat="45.45065320640095" lon="10.508954006366412"><ele>161.0</ele><time>2026-04-26T18:54:24Z</time></trkpt><trkpt lat="45.45061075806479" lon="10.509412672424114"><ele>159.0</ele><time>2026-04-26T18:54:25Z</time></trkpt><trkpt lat="45.45056829997163" lon="10.509870935110122"><ele>157.0</ele><time>2026-04-26T18:54:26Z</time></trkpt><trkpt lat="45.45052396964605" lon="10.510328247693497"><ele>153.5</ele><time>2026-04-26T18:54:27Z</time></trkpt><trkpt lat="45.45047980072406" lon="10.510785770440346"><ele>150.0</ele><time>2026-04-26T18:54:28.001Z</time></trkpt><trkpt lat="45.450435480058864" lon="10.511242135083336"><ele>147.5</ele><time>2026-04-26T18:54:29.001Z</time></trkpt><trkpt lat="45.450392969208735" lon="10.511690986969018"><ele>145.0</ele><time>2026-04-26T18:54:30.001Z</time></trkpt><trkpt lat="45.450353007257206" lon="10.51211982073591"><ele>142.5</ele><time>2026-04-26T18:54:31.001Z</time></trkpt><trkpt lat="45.450312762670976" lon="10.512559969812106"><ele>140.0</ele><time>2026-04-26T18:54:32.001Z</time></trkpt><trkpt lat="45.45026954024487" lon="10.51300710780189"><ele>139.5</ele><time>2026-04-26T18:54:33.001Z</time></trkpt><trkpt lat="45.45022671979948" lon="10.513456281979519"><ele>139.0</ele><time>2026-04-26T18:54:34.001Z</time></trkpt><trkpt lat="45.45018224184079" lon="10.51390819663027"><ele>137.5</ele><time>2026-04-26T18:54:35.001Z</time></trkpt><trkpt lat="45.450139101564375" lon="10.514359148902246"><ele>136.0</ele><time>2026-04-26T18:54:36.001Z</time></trkpt><trkpt lat="45.45009943713274" lon="10.514807285056605"><ele>135.5</ele><time>2026-04-26T18:54:37.001Z</time></trkpt><trkpt lat="45.45005844054395" lon="10.515251606957284"><ele>135.0</ele><time>2026-04-26T18:54:38.001Z</time></trkpt><trkpt lat="45.45001592049493" lon="10.515696025634181"><ele>135.0</ele><time>2026-04-26T18:54:39.001Z</time></trkpt><trkpt lat="45.44997383031597" lon="10.516141719489227"><ele>135.0</ele><time>2026-04-26T18:54:40.001Z</time></trkpt><trkpt lat="45.449930857884496" lon="10.516586595949448"><ele>134.5</ele><time>2026-04-26T18:54:41.001Z</time></trkpt><trkpt lat="45.44988855545478" lon="10.517029632352848"><ele>134.0</ele><time>2026-04-26T18:54:42.001Z</time></trkpt><trkpt lat="45.44984763098166" lon="10.517472215263187"><ele>133.5</ele><time>2026-04-26T18:54:43.001Z</time></trkpt><trkpt lat="45.44980558097644" lon="10.517912537756814"><ele>133.0</ele><time>2026-04-26T18:54:44.001Z</time></trkpt><trkpt lat="45.44976287966225" lon="10.518351096366477"><ele>134.0</ele><time>2026-04-26T18:54:45.001Z</time></trkpt><trkpt lat="45.449720013301736" lon="10.518789833238733"><ele>135.0</ele><time>2026-04-26T18:54:46.001Z</time></trkpt><trkpt lat="45.44967779680032" lon="10.519228426368226"><ele>135.0</ele><time>2026-04-26T18:54:47.001Z</time></trkpt><trkpt lat="45.449635351029166" lon="10.519667667810124"><ele>135.0</ele><time>2026-04-26T18:54:48.001Z</time></trkpt><trkpt lat="45.44959435573018" lon="10.520109457077686"><ele>136.0</ele><time>2026-04-26T18:54:49.001Z</time></trkpt><trkpt lat="45.44955292396146" lon="10.520544389618799"><ele>137.0</ele><time>2026-04-26T18:54:50.001Z</time></trkpt><trkpt lat="45.4495091380272" lon="10.520980726343254"><ele>136.0</ele><time>2026-04-26T18:54:51.001Z</time></trkpt><trkpt lat="45.44946544096365" lon="10.52142366647762"><ele>135.0</ele><time>2026-04-26T18:54:52.001Z</time></trkpt><trkpt lat="45.44942109230872" lon="10.521865804364209"><ele>134.0</ele><time>2026-04-26T18:54:53.001Z</time></trkpt><trkpt lat="45.4493780793885" lon="10.522302936177164"><ele>133.0</ele><time>2026-04-26T18:54:54.001Z</time></trkpt><trkpt lat="45.44932920328671" lon="10.522739384386586"><ele>133.5</ele><time>2026-04-26T18:54:55.001Z</time></trkpt><trkpt lat="45.4492810015382" lon="10.523176743536672"><ele>134.0</ele><time>2026-04-26T18:54:56.001Z</time></trkpt><trkpt lat="45.44922723107224" lon="10.5236134982258"><ele>137.0</ele><time>2026-04-26T18:54:57.001Z</time></trkpt><trkpt lat="45.44916743289194" lon="10.524049214738005"><ele>140.0</ele><time>2026-04-26T18:54:58.001Z</time></trkpt><trkpt lat="45.44910272059317" lon="10.524483376648115"><ele>138.5</ele><time>2026-04-26T18:54:59.001Z</time></trkpt><trkpt lat="45.44903498598951" lon="10.524916975725377"><ele>137.0</ele><time>2026-04-26T18:55:00.001Z</time></trkpt><trkpt lat="45.44896628153057" lon="10.52534853498633"><ele>132.0</ele><time>2026-04-26T18:55:01.001Z</time></trkpt><trkpt lat="45.44889608036644" lon="10.525779518616854"><ele>127.0</ele><time>2026-04-26T18:55:02.001Z</time></trkpt><trkpt lat="45.44882385813734" lon="10.526208879504162"><ele>123.5</ele><time>2026-04-26T18:55:03.001Z</time></trkpt><trkpt lat="45.44874913003891" lon="10.526636309843688"><ele>120.0</ele><time>2026-04-26T18:55:04.001Z</time></trkpt><trkpt lat="45.44866877689824" lon="10.527062858225333"><ele>119.0</ele><time>2026-04-26T18:55:05.001Z</time></trkpt><trkpt lat="45.448585180252365" lon="10.527488652935812"><ele>118.0</ele><time>2026-04-26T18:55:06.001Z</time></trkpt><trkpt lat="45.448497348575344" lon="10.527911101913064"><ele>117.5</ele><time>2026-04-26T18:55:07.001Z</time></trkpt><trkpt lat="45.44840474901274" lon="10.52833181834089"><ele>117.0</ele><time>2026-04-26T18:55:08.001Z</time></trkpt><trkpt lat="45.44830775543278" lon="10.528749969682146"><ele>116.0</ele><time>2026-04-26T18:55:09.001Z</time></trkpt><trkpt lat="45.448206324075585" lon="10.52916959681164"><ele>115.0</ele><time>2026-04-26T18:55:10.001Z</time></trkpt><trkpt lat="45.44810229700744" lon="10.529589818244625"><ele>115.0</ele><time>2026-04-26T18:55:11.001Z</time></trkpt><trkpt lat="45.447993547520454" lon="10.530009615508225"><ele>115.0</ele><time>2026-04-26T18:55:12.001Z</time></trkpt><trkpt lat="45.447881845595376" lon="10.53042962984332"><ele>115.0</ele><time>2026-04-26T18:55:13.001Z</time></trkpt><trkpt lat="45.44776721226665" lon="10.53084789912882"><ele>115.0</ele><time>2026-04-26T18:55:14.001Z</time></trkpt><trkpt lat="45.44764980041643" lon="10.531264526156992"><ele>115.0</ele><time>2026-04-26T18:55:15.001Z</time></trkpt><trkpt lat="45.447529113577644" lon="10.531676669639449"><ele>115.0</ele><time>2026-04-26T18:55:16.001Z</time></trkpt><trkpt lat="45.44740412311679" lon="10.532086296699415"><ele>115.5</ele><time>2026-04-26T18:55:17.001Z</time></trkpt><trkpt lat="45.44727809651927" lon="10.532495355618178"><ele>116.0</ele><time>2026-04-26T18:55:18Z</time></trkpt><trkpt lat="45.447148386645985" lon="10.532901701824054"><ele>114.5</ele><time>2026-04-26T18:55:19Z</time></trkpt><trkpt lat="45.44701797342448" lon="10.53330617540377"><ele>113.0</ele><time>2026-04-26T18:55:20Z</time></trkpt><trkpt lat="45.44688955195742" lon="10.533711221507845"><ele>113.0</ele><time>2026-04-26T18:55:21Z</time></trkpt><trkpt lat="45.44676256055704" lon="10.534115991751115"><ele>113.0</ele><time>2026-04-26T18:55:22Z</time></trkpt><trkpt lat="45.44663760304472" lon="10.534520888684737"><ele>114.0</ele><time>2026-04-26T18:55:23Z</time></trkpt><trkpt lat="45.44651631546831" lon="10.534926828219383"><ele>115.0</ele><time>2026-04-26T18:55:24Z</time></trkpt><trkpt lat="45.446397791944115" lon="10.535333688682577"><ele>114.0</ele><time>2026-04-26T18:55:25Z</time></trkpt><trkpt lat="45.446282678666364" lon="10.535740708772629"><ele>113.0</ele><time>2026-04-26T18:55:26Z</time></trkpt><trkpt lat="45.446170513829195" lon="10.536149117155869"><ele>114.0</ele><time>2026-04-26T18:55:27Z</time></trkpt><trkpt lat="45.44606284736113" lon="10.536558604731317"><ele>115.0</ele><time>2026-04-26T18:55:28Z</time></trkpt><trkpt lat="45.44595846346721" lon="10.536971482177027"><ele>114.0</ele><time>2026-04-26T18:55:29Z</time></trkpt><trkpt lat="45.445857524624174" lon="10.537385272786656"><ele>113.0</ele><time>2026-04-26T18:55:30Z</time></trkpt><trkpt lat="45.445759234501686" lon="10.537800754046145"><ele>111.5</ele><time>2026-04-26T18:55:31Z</time></trkpt><trkpt lat="45.44566687247222" lon="10.538219379711695"><ele>110.0</ele><time>2026-04-26T18:55:32Z</time></trkpt><trkpt lat="45.445578362611585" lon="10.538640857396791"><ele>111.0</ele><time>2026-04-26T18:55:33Z</time></trkpt><trkpt lat="45.44549332971297" lon="10.53906469836777"><ele>112.0</ele><time>2026-04-26T18:55:34Z</time></trkpt><trkpt lat="45.44541270280529" lon="10.539493093546135"><ele>110.0</ele><time>2026-04-26T18:55:35Z</time></trkpt><trkpt lat="45.445331559416346" lon="10.53991937116813"><ele>108.0</ele><time>2026-04-26T18:55:36Z</time></trkpt><trkpt lat="45.445250880694154" lon="10.54034900761881"><ele>106.0</ele><time>2026-04-26T18:55:37Z</time></trkpt><trkpt lat="45.44516981032612" lon="10.540777581728463"><ele>104.0</ele><time>2026-04-26T18:55:38Z</time></trkpt><trkpt lat="45.445091229093634" lon="10.541208829958558"><ele>103.5</ele><time>2026-04-26T18:55:39Z</time></trkpt><trkpt lat="45.445012135322905" lon="10.541640266436492"><ele>103.0</ele><time>2026-04-26T18:55:40Z</time></trkpt><trkpt lat="45.44493296992075" lon="10.54207043942466"><ele>103.0</ele><time>2026-04-26T18:55:41Z</time></trkpt><trkpt lat="45.44485279456217" lon="10.542499702691098"><ele>103.0</ele><time>2026-04-26T18:55:42Z</time></trkpt><trkpt lat="45.44477377228543" lon="10.542928973498054"><ele>103.0</ele><time>2026-04-26T18:55:43Z</time></trkpt><trkpt lat="45.44469349183986" lon="10.543356859860271"><ele>103.0</ele><time>2026-04-26T18:55:44Z</time></trkpt><trkpt lat="45.44461368086859" lon="10.543784091188984"><ele>103.0</ele><time>2026-04-26T18:55:45Z</time></trkpt><trkpt lat="45.44453617775436" lon="10.54421060609216"><ele>103.0</ele><time>2026-04-26T18:55:46Z</time></trkpt><trkpt lat="45.44445732962267" lon="10.544636117506231"><ele>103.0</ele><time>2026-04-26T18:55:47Z</time></trkpt><trkpt lat="45.444379400626204" lon="10.545061231905493"><ele>103.0</ele><time>2026-04-26T18:55:48Z</time></trkpt><trkpt lat="45.444300772330294" lon="10.545486252794342"><ele>103.0</ele><time>2026-04-26T18:55:49Z</time></trkpt><trkpt lat="45.444219695090936" lon="10.545910409918887"><ele>103.0</ele><time>2026-04-26T18:55:50Z</time></trkpt><trkpt lat="45.44413943962765" lon="10.54633279011551"><ele>101.0</ele><time>2026-04-26T18:55:51Z</time></trkpt><trkpt lat="45.44406163357683" lon="10.546759497212205"><ele>99.0</ele><time>2026-04-26T18:55:52Z</time></trkpt><trkpt lat="45.44398346124726" lon="10.547188399780591"><ele>97.0</ele><time>2026-04-26T18:55:53Z</time></trkpt><trkpt lat="45.44390575161592" lon="10.547618806170714"><ele>95.0</ele><time>2026-04-26T18:55:54Z</time></trkpt><trkpt lat="45.443828070679004" lon="10.548051091220929"><ele>93.0</ele><time>2026-04-26T18:55:55Z</time></trkpt><trkpt lat="45.44374863380173" lon="10.548483777614868"><ele>91.0</ele><time>2026-04-26T18:55:56Z</time></trkpt><trkpt lat="45.44366969263172" lon="10.548918811151756"><ele>90.5</ele><time>2026-04-26T18:55:57Z</time></trkpt><trkpt lat="45.44359028214695" lon="10.549354450027028"><ele>90.0</ele><time>2026-04-26T18:55:58Z</time></trkpt><trkpt lat="45.443510307416474" lon="10.549789613974745"><ele>89.5</ele><time>2026-04-26T18:55:59Z</time></trkpt><trkpt lat="45.44343021302208" lon="10.55022465391752"><ele>89.0</ele><time>2026-04-26T18:56:00Z</time></trkpt><trkpt lat="45.44335000216703" lon="10.550659272789122"><ele>89.0</ele><time>2026-04-26T18:56:01Z</time></trkpt><trkpt lat="45.44327008242547" lon="10.551094158921371"><ele>89.0</ele><time>2026-04-26T18:56:02Z</time></trkpt><trkpt lat="45.44318947172972" lon="10.55152814182424"><ele>89.0</ele><time>2026-04-26T18:56:03Z</time></trkpt><trkpt lat="45.44311005272094" lon="10.551961036246981"><ele>89.0</ele><time>2026-04-26T18:56:04Z</time></trkpt><trkpt lat="45.44303037363111" lon="10.55239235831521"><ele>89.0</ele><time>2026-04-26T18:56:05Z</time></trkpt><trkpt lat="45.442948503523056" lon="10.552821183485104"><ele>89.0</ele><time>2026-04-26T18:56:06Z</time></trkpt><trkpt lat="45.44286700458637" lon="10.553249829172445"><ele>88.5</ele><time>2026-04-26T18:56:07Z</time></trkpt><trkpt lat="45.442788719133816" lon="10.553678737825095"><ele>88.0</ele><time>2026-04-26T18:56:08Z</time></trkpt><trkpt lat="45.442710751205325" lon="10.554107780386357"><ele>88.0</ele><time>2026-04-26T18:56:09Z</time></trkpt><trkpt lat="45.44263081174047" lon="10.554537249599457"><ele>88.0</ele><time>2026-04-26T18:56:10Z</time></trkpt><trkpt lat="45.44255240656036" lon="10.554966619667866"><ele>88.0</ele><time>2026-04-26T18:56:11Z</time></trkpt><trkpt lat="45.44247381925049" lon="10.55539467666318"><ele>88.0</ele><time>2026-04-26T18:56:12Z</time></trkpt><trkpt lat="45.44239473470762" lon="10.555822749943037"><ele>87.0</ele><time>2026-04-26T18:56:13Z</time></trkpt><trkpt lat="45.44231528595762" lon="10.556250532004468"><ele>86.0</ele><time>2026-04-26T18:56:14Z</time></trkpt><trkpt lat="45.44223666058924" lon="10.556676742669852"><ele>86.0</ele><time>2026-04-26T18:56:15Z</time></trkpt><trkpt lat="45.44215972372313" lon="10.557102390816485"><ele>86.0</ele><time>2026-04-26T18:56:16Z</time></trkpt><trkpt lat="45.4420809489204" lon="10.557527419038744"><ele>85.5</ele><time>2026-04-26T18:56:17Z</time></trkpt><trkpt lat="45.44200433741786" lon="10.557950475871415"><ele>85.0</ele><time>2026-04-26T18:56:18Z</time></trkpt><trkpt lat="45.44192732408366" lon="10.55837239502316"><ele>86.0</ele><time>2026-04-26T18:56:19Z</time></trkpt><trkpt lat="45.441851146867" lon="10.558793715667795"><ele>87.0</ele><time>2026-04-26T18:56:20Z</time></trkpt><trkpt lat="45.441774666020166" lon="10.559213647794268"><ele>87.0</ele><time>2026-04-26T18:56:21Z</time></trkpt><trkpt lat="45.44169823209994" lon="10.559633601217907"><ele>87.0</ele><time>2026-04-26T18:56:22Z</time></trkpt><trkpt lat="45.44162004214924" lon="10.56005222622756"><ele>86.5</ele><time>2026-04-26T18:56:23Z</time></trkpt><trkpt lat="45.44154264021744" lon="10.56047145465432"><ele>86.0</ele><time>2026-04-26T18:56:24Z</time></trkpt><trkpt lat="45.441462815895555" lon="10.560892303701822"><ele>86.5</ele><time>2026-04-26T18:56:25Z</time></trkpt><trkpt lat="45.441382244215184" lon="10.561315769070793"><ele>87.0</ele><time>2026-04-26T18:56:26Z</time></trkpt><trkpt lat="45.441303969490875" lon="10.561741668766626"><ele>88.5</ele><time>2026-04-26T18:56:27Z</time></trkpt><trkpt lat="45.44122351035207" lon="10.562168837835486"><ele>90.0</ele><time>2026-04-26T18:56:28Z</time></trkpt><trkpt lat="45.44114469112363" lon="10.5625982531143"><ele>89.5</ele><time>2026-04-26T18:56:29Z</time></trkpt><trkpt lat="45.44106484810954" lon="10.563029132102884"><ele>89.0</ele><time>2026-04-26T18:56:30Z</time></trkpt><trkpt lat="45.440986023224404" lon="10.563462477507725"><ele>88.0</ele><time>2026-04-26T18:56:31Z</time></trkpt><trkpt lat="45.440908375280756" lon="10.563891659554365"><ele>87.0</ele><time>2026-04-26T18:56:32Z</time></trkpt><trkpt lat="45.44083115192781" lon="10.564318610120603"><ele>87.5</ele><time>2026-04-26T18:56:33Z</time></trkpt><trkpt lat="45.440751226256594" lon="10.564744151649519"><ele>88.0</ele><time>2026-04-26T18:56:34Z</time></trkpt><trkpt lat="45.44067122791044" lon="10.565171444042747"><ele>88.0</ele><time>2026-04-26T18:56:35Z</time></trkpt><trkpt lat="45.44059064943637" lon="10.565600162404179"><ele>88.0</ele><time>2026-04-26T18:56:36Z</time></trkpt><trkpt lat="45.44051048121015" lon="10.566029373452368"><ele>87.0</ele><time>2026-04-26T18:56:37Z</time></trkpt><trkpt lat="45.44043020117609" lon="10.56645766213601"><ele>86.0</ele><time>2026-04-26T18:56:38Z</time></trkpt><trkpt lat="45.44035039318399" lon="10.566885544153298"><ele>86.5</ele><time>2026-04-26T18:56:39Z</time></trkpt><trkpt lat="45.44027182721829" lon="10.567312194990725"><ele>87.0</ele><time>2026-04-26T18:56:40Z</time></trkpt><trkpt lat="45.440194016614086" lon="10.567737881477935"><ele>88.0</ele><time>2026-04-26T18:56:41Z</time></trkpt><trkpt lat="45.44011459369071" lon="10.568164954942095"><ele>89.0</ele><time>2026-04-26T18:56:42Z</time></trkpt><trkpt lat="45.44003531260066" lon="10.568590942239922"><ele>88.5</ele><time>2026-04-26T18:56:43Z</time></trkpt><trkpt lat="45.43995783684962" lon="10.569018577566718"><ele>88.0</ele><time>2026-04-26T18:56:44Z</time></trkpt><trkpt lat="45.43988577166433" lon="10.56944848533574"><ele>88.0</ele><time>2026-04-26T18:56:45Z</time></trkpt><trkpt lat="45.43980438105159" lon="10.569875259213884"><ele>88.0</ele><time>2026-04-26T18:56:46Z</time></trkpt><trkpt lat="45.43972131783687" lon="10.570299720782977"><ele>87.5</ele><time>2026-04-26T18:56:47Z</time></trkpt><trkpt lat="45.43964030080431" lon="10.570724488908276"><ele>87.0</ele><time>2026-04-26T18:56:48Z</time></trkpt><trkpt lat="45.43955940316249" lon="10.571147268777091"><ele>86.0</ele><time>2026-04-26T18:56:49.001Z</time></trkpt><trkpt lat="45.4394800806637" lon="10.571566810976572"><ele>85.0</ele><time>2026-04-26T18:56:50.001Z</time></trkpt><trkpt lat="45.43940063010045" lon="10.571986438906206"><ele>85.0</ele><time>2026-04-26T18:56:51.001Z</time></trkpt><trkpt lat="45.43932426686722" lon="10.572405211747403"><ele>85.0</ele><time>2026-04-26T18:56:52.001Z</time></trkpt><trkpt lat="45.4392456481046" lon="10.572827752054769"><ele>86.0</ele><time>2026-04-26T18:56:53.001Z</time></trkpt><trkpt lat="45.43916720485514" lon="10.573249894457966"><ele>87.0</ele><time>2026-04-26T18:56:54.001Z</time></trkpt><trkpt lat="45.439090797199924" lon="10.573674723471283"><ele>86.5</ele><time>2026-04-26T18:56:55.001Z</time></trkpt><trkpt lat="45.4390108592478" lon="10.574101322809948"><ele>86.0</ele><time>2026-04-26T18:56:56.001Z</time></trkpt><trkpt lat="45.43893229675117" lon="10.574527907236916"><ele>86.0</ele><time>2026-04-26T18:56:57.001Z</time></trkpt><trkpt lat="45.43885299627001" lon="10.574955860604836"><ele>86.0</ele><time>2026-04-26T18:56:58.001Z</time></trkpt><trkpt lat="45.43877543988441" lon="10.575383384311758"><ele>86.5</ele><time>2026-04-26T18:56:59.001Z</time></trkpt><trkpt lat="45.43869723860125" lon="10.575810154908792"><ele>87.0</ele><time>2026-04-26T18:57:00.001Z</time></trkpt><trkpt lat="45.43861854343588" lon="10.576236257848942"><ele>87.0</ele><time>2026-04-26T18:57:01.001Z</time></trkpt><trkpt lat="45.43853923993062" lon="10.576664271735721"><ele>87.0</ele><time>2026-04-26T18:57:02.001Z</time></trkpt><trkpt lat="45.43846217057893" lon="10.577091822495513"><ele>86.5</ele><time>2026-04-26T18:57:03.001Z</time></trkpt><trkpt lat="45.438383390449474" lon="10.57751861717458"><ele>86.0</ele><time>2026-04-26T18:57:04.001Z</time></trkpt><trkpt lat="45.43830472213133" lon="10.577946180127196"><ele>86.0</ele><time>2026-04-26T18:57:05.001Z</time></trkpt><trkpt lat="45.43822614971405" lon="10.578372154635991"><ele>86.0</ele><time>2026-04-26T18:57:06.001Z</time></trkpt><trkpt lat="45.4381464850776" lon="10.578800296269732"><ele>86.5</ele><time>2026-04-26T18:57:07.001Z</time></trkpt><trkpt lat="45.438065277814225" lon="10.57922593251155"><ele>87.0</ele><time>2026-04-26T18:57:08.001Z</time></trkpt><trkpt lat="45.437985998819904" lon="10.579651727134488"><ele>85.0</ele><time>2026-04-26T18:57:09.001Z</time></trkpt><trkpt lat="45.43790599615965" lon="10.580078530084664"><ele>83.0</ele><time>2026-04-26T18:57:10.001Z</time></trkpt><trkpt lat="45.43782734047039" lon="10.580503737098436"><ele>83.0</ele><time>2026-04-26T18:57:11.001Z</time></trkpt><trkpt lat="45.43774709892878" lon="10.58092946717889"><ele>83.0</ele><time>2026-04-26T18:57:12.001Z</time></trkpt><trkpt lat="45.43766794693623" lon="10.581355350341749"><ele>83.0</ele><time>2026-04-26T18:57:13.001Z</time></trkpt><trkpt lat="45.43758932308571" lon="10.581780582000784"><ele>83.0</ele><time>2026-04-26T18:57:14.001Z</time></trkpt><trkpt lat="45.43750991297494" lon="10.582204627081785"><ele>83.0</ele><time>2026-04-26T18:57:15.001Z</time></trkpt><trkpt lat="45.43743050474421" lon="10.58262867111124"><ele>83.0</ele><time>2026-04-26T18:57:16.001Z</time></trkpt><trkpt lat="45.43735023853042" lon="10.583053174330235"><ele>83.0</ele><time>2026-04-26T18:57:17.001Z</time></trkpt><trkpt lat="45.43727220634185" lon="10.583479866378458"><ele>83.0</ele><time>2026-04-26T18:57:18.001Z</time></trkpt><trkpt lat="45.43719291693687" lon="10.583908311654275"><ele>83.0</ele><time>2026-04-26T18:57:19.001Z</time></trkpt><trkpt lat="45.43711248032994" lon="10.584338510152692"><ele>83.0</ele><time>2026-04-26T18:57:20.001Z</time></trkpt><trkpt lat="45.43703270046044" lon="10.584770218308527"><ele>83.0</ele><time>2026-04-26T18:57:21.001Z</time></trkpt><trkpt lat="45.436949551911475" lon="10.585201872514833"><ele>83.0</ele><time>2026-04-26T18:57:22.001Z</time></trkpt><trkpt lat="45.436867613905314" lon="10.58563404297678"><ele>83.0</ele><time>2026-04-26T18:57:23.001Z</time></trkpt><trkpt lat="45.436786687374784" lon="10.58606645082907"><ele>83.0</ele><time>2026-04-26T18:57:24Z</time></trkpt><trkpt lat="45.436710401470805" lon="10.58649945743953"><ele>83.0</ele><time>2026-04-26T18:57:25Z</time></trkpt><trkpt lat="45.43663198150246" lon="10.586935622235012"><ele>83.0</ele><time>2026-04-26T18:57:26Z</time></trkpt><trkpt lat="45.436556155417925" lon="10.587371001931126"><ele>82.0</ele><time>2026-04-26T18:57:27Z</time></trkpt><trkpt lat="45.43648253701116" lon="10.587808519370133"><ele>81.0</ele><time>2026-04-26T18:57:28Z</time></trkpt><trkpt lat="45.43641195064144" lon="10.588248817157185"><ele>81.5</ele><time>2026-04-26T18:57:29Z</time></trkpt><trkpt lat="45.43634122594278" lon="10.588691063550026"><ele>82.0</ele><time>2026-04-26T18:57:30Z</time></trkpt><trkpt lat="45.43626782457157" lon="10.589132796945917"><ele>83.5</ele><time>2026-04-26T18:57:31Z</time></trkpt><trkpt lat="45.43619492431631" lon="10.589577033111986"><ele>85.0</ele><time>2026-04-26T18:57:32Z</time></trkpt><trkpt lat="45.43611814987499" lon="10.59002128765049"><ele>85.5</ele><time>2026-04-26T18:57:33Z</time></trkpt><trkpt lat="45.4360384164266" lon="10.590463190546552"><ele>86.0</ele><time>2026-04-26T18:57:34Z</time></trkpt><trkpt lat="45.435956151634606" lon="10.590898935731436"><ele>84.5</ele><time>2026-04-26T18:57:35Z</time></trkpt><trkpt lat="45.43587337965283" lon="10.59132071642696"><ele>83.0</ele><time>2026-04-26T18:57:36Z</time></trkpt><trkpt lat="45.43578929409096" lon="10.591754834305387"><ele>83.0</ele><time>2026-04-26T18:57:37Z</time></trkpt><trkpt lat="45.43570997568136" lon="10.592183322750136"><ele>83.0</ele><time>2026-04-26T18:57:38Z</time></trkpt><trkpt lat="45.43562843613207" lon="10.592614054257343"><ele>83.0</ele><time>2026-04-26T18:57:39Z</time></trkpt><trkpt lat="45.43554679657557" lon="10.593044614166011"><ele>83.0</ele><time>2026-04-26T18:57:40Z</time></trkpt><trkpt lat="45.43546360550443" lon="10.593469164768704"><ele>84.5</ele><time>2026-04-26T18:57:41Z</time></trkpt><trkpt lat="45.435373934743566" lon="10.593888961584927"><ele>86.0</ele><time>2026-04-26T18:57:42Z</time></trkpt><trkpt lat="45.435283598261165" lon="10.594305065994394"><ele>85.5</ele><time>2026-04-26T18:57:43Z</time></trkpt><trkpt lat="45.435190229296374" lon="10.59472670682623"><ele>85.0</ele><time>2026-04-26T18:57:44Z</time></trkpt><trkpt lat="45.435098883475874" lon="10.595146468326496"><ele>85.0</ele><time>2026-04-26T18:57:45Z</time></trkpt><trkpt lat="45.435011616151066" lon="10.595566821465333"><ele>85.0</ele><time>2026-04-26T18:57:46Z</time></trkpt><trkpt lat="45.434929127561574" lon="10.595987237582134"><ele>84.5</ele><time>2026-04-26T18:57:47Z</time></trkpt><trkpt lat="45.43485094504603" lon="10.596409572482052"><ele>84.0</ele><time>2026-04-26T18:57:48Z</time></trkpt><trkpt lat="45.43477712224856" lon="10.596833023076359"><ele>84.5</ele><time>2026-04-26T18:57:49Z</time></trkpt><trkpt lat="45.434707820469505" lon="10.597259438495762"><ele>85.0</ele><time>2026-04-26T18:57:50Z</time></trkpt><trkpt lat="45.43464199803481" lon="10.59768724373582"><ele>84.0</ele><time>2026-04-26T18:57:51Z</time></trkpt><trkpt lat="45.434581298580014" lon="10.598115961414878"><ele>83.0</ele><time>2026-04-26T18:57:52Z</time></trkpt><trkpt lat="45.434522118633026" lon="10.59854697587528"><ele>83.0</ele><time>2026-04-26T18:57:53Z</time></trkpt><trkpt lat="45.43446618910671" lon="10.59898059919124"><ele>83.0</ele><time>2026-04-26T18:57:54Z</time></trkpt><trkpt lat="45.43441418770809" lon="10.599415366426213"><ele>82.5</ele><time>2026-04-26T18:57:55Z</time></trkpt><trkpt lat="45.43436655901062" lon="10.599850823947781"><ele>82.0</ele><time>2026-04-26T18:57:56Z</time></trkpt><trkpt lat="45.43432291414933" lon="10.600284891935738"><ele>83.5</ele><time>2026-04-26T18:57:57Z</time></trkpt><trkpt lat="45.434282121674414" lon="10.600718297121029"><ele>85.0</ele><time>2026-04-26T18:57:58Z</time></trkpt><trkpt lat="45.434244245589525" lon="10.601153078049256"><ele>85.0</ele><time>2026-04-26T18:57:59Z</time></trkpt><trkpt lat="45.43421048627952" lon="10.601587840133144"><ele>85.0</ele><time>2026-04-26T18:58:00Z</time></trkpt><trkpt lat="45.434180814285185" lon="10.602024531195609"><ele>85.0</ele><time>2026-04-26T18:58:01Z</time></trkpt><trkpt lat="45.43415452175571" lon="10.602462892007976"><ele>85.0</ele><time>2026-04-26T18:58:02Z</time></trkpt><trkpt lat="45.43413050323707" lon="10.60290250774754"><ele>84.5</ele><time>2026-04-26T18:58:03Z</time></trkpt><trkpt lat="45.43410982423958" lon="10.603344264444047"><ele>84.0</ele><time>2026-04-26T18:58:04Z</time></trkpt><trkpt lat="45.43409077781196" lon="10.603787862474825"><ele>85.0</ele><time>2026-04-26T18:58:05Z</time></trkpt><trkpt lat="45.43406950155873" lon="10.604231821041761"><ele>86.0</ele><time>2026-04-26T18:58:06Z</time></trkpt><trkpt lat="45.43404776978327" lon="10.604677370078177"><ele>86.0</ele><time>2026-04-26T18:58:07Z</time></trkpt><trkpt lat="45.43402712514434" lon="10.605125003182456"><ele>86.0</ele><time>2026-04-26T18:58:08Z</time></trkpt><trkpt lat="45.43400613223285" lon="10.60557110572027"><ele>86.5</ele><time>2026-04-26T18:58:09Z</time></trkpt><trkpt lat="45.433986452080376" lon="10.606016739161277"><ele>87.0</ele><time>2026-04-26T18:58:10Z</time></trkpt><trkpt lat="45.433964865971724" lon="10.60646228062853"><ele>85.5</ele><time>2026-04-26T18:58:11Z</time></trkpt><trkpt lat="45.43394522931027" lon="10.606907100093462"><ele>84.0</ele><time>2026-04-26T18:58:12Z</time></trkpt><trkpt lat="45.433925803798076" lon="10.607341126020811"><ele>84.0</ele><time>2026-04-26T18:58:13Z</time></trkpt><trkpt lat="45.433906251585576" lon="10.60775936289733"><ele>84.0</ele><time>2026-04-26T18:58:14Z</time></trkpt><trkpt lat="45.43388511387267" lon="10.60819024108537"><ele>83.5</ele><time>2026-04-26T18:58:15Z</time></trkpt><trkpt lat="45.43386437446437" lon="10.608623714254652"><ele>83.0</ele><time>2026-04-26T18:58:16Z</time></trkpt><trkpt lat="45.43384239715582" lon="10.609058120623802"><ele>83.5</ele><time>2026-04-26T18:58:17Z</time></trkpt><trkpt lat="45.433822200702366" lon="10.609496333302443"><ele>84.0</ele><time>2026-04-26T18:58:18Z</time></trkpt><trkpt lat="45.43380267755675" lon="10.609935063552065"><ele>84.0</ele><time>2026-04-26T18:58:19Z</time></trkpt><trkpt lat="45.43378681679615" lon="10.610374945999851"><ele>84.0</ele><time>2026-04-26T18:58:20Z</time></trkpt><trkpt lat="45.43377229403783" lon="10.61081547946193"><ele>84.0</ele><time>2026-04-26T18:58:21Z</time></trkpt><trkpt lat="45.43375656680004" lon="10.611257564875887"><ele>84.0</ele><time>2026-04-26T18:58:22Z</time></trkpt><trkpt lat="45.43374120714494" lon="10.611700672693301"><ele>83.5</ele><time>2026-04-26T18:58:23Z</time></trkpt><trkpt lat="45.43372269756435" lon="10.612138924757005"><ele>83.0</ele><time>2026-04-26T18:58:24Z</time></trkpt><trkpt lat="45.43370182093244" lon="10.612576150851682"><ele>82.5</ele><time>2026-04-26T18:58:25Z</time></trkpt><trkpt lat="45.43368069318476" lon="10.613012711332006"><ele>82.0</ele><time>2026-04-26T18:58:26Z</time></trkpt><trkpt lat="45.433658956776206" lon="10.61344790097516"><ele>82.5</ele><time>2026-04-26T18:58:27Z</time></trkpt><trkpt lat="45.43363720078071" lon="10.613884598454648"><ele>83.0</ele><time>2026-04-26T18:58:28Z</time></trkpt><trkpt lat="45.433615629663464" lon="10.614321512790278"><ele>83.0</ele><time>2026-04-26T18:58:29Z</time></trkpt><trkpt lat="45.43359504138724" lon="10.614758719798967"><ele>83.0</ele><time>2026-04-26T18:58:30Z</time></trkpt><trkpt lat="45.43357355723118" lon="10.61519651513515"><ele>83.0</ele><time>2026-04-26T18:58:31Z</time></trkpt><trkpt lat="45.433552381192285" lon="10.615634879185878"><ele>83.0</ele><time>2026-04-26T18:58:32Z</time></trkpt><trkpt lat="45.43353039533252" lon="10.616072906673223"><ele>83.0</ele><time>2026-04-26T18:58:33Z</time></trkpt><trkpt lat="45.43350861995359" lon="10.61650898016105"><ele>83.0</ele><time>2026-04-26T18:58:34Z</time></trkpt><trkpt lat="45.43348617145375" lon="10.616944633793647"><ele>82.0</ele><time>2026-04-26T18:58:35Z</time></trkpt><trkpt lat="45.433462931162516" lon="10.617383162709993"><ele>81.0</ele><time>2026-04-26T18:58:36Z</time></trkpt><trkpt lat="45.43344102765642" lon="10.617824473335155"><ele>80.0</ele><time>2026-04-26T18:58:37Z</time></trkpt><trkpt lat="45.433419638802214" lon="10.618267805838599"><ele>79.0</ele><time>2026-04-26T18:58:38Z</time></trkpt><trkpt lat="45.43339775806785" lon="10.618711389218282"><ele>78.5</ele><time>2026-04-26T18:58:39Z</time></trkpt><trkpt lat="45.43337526933748" lon="10.619155764651618"><ele>78.0</ele><time>2026-04-26T18:58:40Z</time></trkpt><trkpt lat="45.43335355836807" lon="10.619601252168993"><ele>77.5</ele><time>2026-04-26T18:58:41Z</time></trkpt><trkpt lat="45.43333240017944" lon="10.620045646752988"><ele>77.0</ele><time>2026-04-26T18:58:42Z</time></trkpt><trkpt lat="45.433311491699094" lon="10.620489548381704"><ele>76.5</ele><time>2026-04-26T18:58:43Z</time></trkpt><trkpt lat="45.43329038042481" lon="10.62093311694764"><ele>76.0</ele><time>2026-04-26T18:58:44Z</time></trkpt><trkpt lat="45.43326899037228" lon="10.62137962836257"><ele>77.0</ele><time>2026-04-26T18:58:45Z</time></trkpt><trkpt lat="45.433246616533374" lon="10.621825367475848"><ele>78.0</ele><time>2026-04-26T18:58:46Z</time></trkpt><trkpt lat="45.43322450887932" lon="10.622272447345976"><ele>78.0</ele><time>2026-04-26T18:58:47Z</time></trkpt><trkpt lat="45.433201805028546" lon="10.622717659934493"><ele>78.0</ele><time>2026-04-26T18:58:48Z</time></trkpt><trkpt lat="45.43317823616571" lon="10.623166898805696"><ele>78.0</ele><time>2026-04-26T18:58:49Z</time></trkpt><trkpt lat="45.433155541609246" lon="10.623618489260714"><ele>78.0</ele><time>2026-04-26T18:58:50Z</time></trkpt><trkpt lat="45.433126861322904" lon="10.624068926893226"><ele>77.0</ele><time>2026-04-26T18:58:51Z</time></trkpt><trkpt lat="45.433091645935974" lon="10.624518239957178"><ele>76.0</ele><time>2026-04-26T18:58:52Z</time></trkpt><trkpt lat="45.433057242533" lon="10.62496629966026"><ele>75.5</ele><time>2026-04-26T18:58:53Z</time></trkpt><trkpt lat="45.43302910608023" lon="10.625414330137923"><ele>75.0</ele><time>2026-04-26T18:58:54Z</time></trkpt><trkpt lat="45.43300748881869" lon="10.625863823937964"><ele>74.5</ele><time>2026-04-26T18:58:55Z</time></trkpt><trkpt lat="45.43299034577282" lon="10.626313814820774"><ele>74.0</ele><time>2026-04-26T18:58:56Z</time></trkpt><trkpt lat="45.43297134180705" lon="10.626766175878071"><ele>75.5</ele><time>2026-04-26T18:58:57Z</time></trkpt><trkpt lat="45.43294976315781" lon="10.627218662027236"><ele>77.0</ele><time>2026-04-26T18:58:58Z</time></trkpt><trkpt lat="45.43292765401176" lon="10.627670122962444"><ele>77.0</ele><time>2026-04-26T18:58:59Z</time></trkpt><trkpt lat="45.432906009251965" lon="10.628121329205847"><ele>77.0</ele><time>2026-04-26T18:59:00Z</time></trkpt><trkpt lat="45.43288288302285" lon="10.6285731114786"><ele>77.0</ele><time>2026-04-26T18:59:01Z</time></trkpt><trkpt lat="45.43286185838981" lon="10.629022439790381"><ele>77.0</ele><time>2026-04-26T18:59:02Z</time></trkpt><trkpt lat="45.432841189679664" lon="10.629471189428125"><ele>77.0</ele><time>2026-04-26T18:59:03Z</time></trkpt><trkpt lat="45.4328209816528" lon="10.629919859182923"><ele>77.0</ele><time>2026-04-26T18:59:04Z</time></trkpt><trkpt lat="45.4327982098722" lon="10.630371091847978"><ele>76.5</ele><time>2026-04-26T18:59:05Z</time></trkpt><trkpt lat="45.43277383656399" lon="10.630822072205845"><ele>76.0</ele><time>2026-04-26T18:59:06Z</time></trkpt><trkpt lat="45.432749289584464" lon="10.631272586927825"><ele>75.5</ele><time>2026-04-26T18:59:07Z</time></trkpt><trkpt lat="45.432725595974745" lon="10.631721228647338"><ele>75.0</ele><time>2026-04-26T18:59:08.001Z</time></trkpt><trkpt lat="45.43270407819651" lon="10.632169643746007"><ele>75.0</ele><time>2026-04-26T18:59:09.001Z</time></trkpt><trkpt lat="45.43268160352247" lon="10.632617876141028"><ele>75.0</ele><time>2026-04-26T18:59:10.001Z</time></trkpt><trkpt lat="45.43265914207909" lon="10.633064630045878"><ele>75.5</ele><time>2026-04-26T18:59:11.001Z</time></trkpt><trkpt lat="45.43263853364688" lon="10.633511836139697"><ele>76.0</ele><time>2026-04-26T18:59:12.001Z</time></trkpt><trkpt lat="45.43261788597362" lon="10.633960914431837"><ele>77.5</ele><time>2026-04-26T18:59:13.001Z</time></trkpt><trkpt lat="45.432598644245715" lon="10.634411318248178"><ele>79.0</ele><time>2026-04-26T18:59:14.001Z</time></trkpt><trkpt lat="45.432580421305104" lon="10.63486143217855"><ele>78.5</ele><time>2026-04-26T18:59:15.001Z</time></trkpt><trkpt lat="45.432559997294575" lon="10.63531137939612"><ele>78.0</ele><time>2026-04-26T18:59:16.001Z</time></trkpt><trkpt lat="45.432538937031026" lon="10.6357609383002"><ele>79.5</ele><time>2026-04-26T18:59:17.001Z</time></trkpt><trkpt lat="45.432516861168224" lon="10.636208213452882"><ele>81.0</ele><time>2026-04-26T18:59:18.001Z</time></trkpt><trkpt lat="45.43249631503427" lon="10.63665657943046"><ele>81.0</ele><time>2026-04-26T18:59:19.001Z</time></trkpt><trkpt lat="45.432474247609846" lon="10.63710552769682"><ele>81.0</ele><time>2026-04-26T18:59:20.001Z</time></trkpt><trkpt lat="45.43245199024656" lon="10.637553811720682"><ele>79.5</ele><time>2026-04-26T18:59:21.001Z</time></trkpt><trkpt lat="45.43242919990232" lon="10.638001346585964"><ele>78.0</ele><time>2026-04-26T18:59:22.001Z</time></trkpt><trkpt lat="45.43240799439054" lon="10.638453071801228"><ele>76.5</ele><time>2026-04-26T18:59:23.001Z</time></trkpt><trkpt lat="45.43239131518136" lon="10.638905403278272"><ele>75.0</ele><time>2026-04-26T18:59:24.001Z</time></trkpt><trkpt lat="45.43237507315949" lon="10.639357912456065"><ele>75.5</ele><time>2026-04-26T18:59:25.001Z</time></trkpt><trkpt lat="45.43235606506511" lon="10.639811140867568"><ele>76.0</ele><time>2026-04-26T18:59:26.001Z</time></trkpt><trkpt lat="45.43233092455959" lon="10.640263436101975"><ele>76.0</ele><time>2026-04-26T18:59:27.001Z</time></trkpt><trkpt lat="45.43230268230467" lon="10.640716308291136"><ele>76.0</ele><time>2026-04-26T18:59:28.001Z</time></trkpt><trkpt lat="45.43227126158879" lon="10.641167942538333"><ele>76.0</ele><time>2026-04-26T18:59:29.001Z</time></trkpt><trkpt lat="45.43224174860344" lon="10.641619932912581"><ele>76.0</ele><time>2026-04-26T18:59:30Z</time></trkpt><trkpt lat="45.43221256041722" lon="10.642073576485993"><ele>76.0</ele><time>2026-04-26T18:59:31Z</time></trkpt><trkpt lat="45.432183349842234" lon="10.642526688120167"><ele>76.0</ele><time>2026-04-26T18:59:32Z</time></trkpt><trkpt lat="45.43215608240662" lon="10.64297897127808"><ele>76.5</ele><time>2026-04-26T18:59:33Z</time></trkpt><trkpt lat="45.43212705339939" lon="10.643428307834101"><ele>77.0</ele><time>2026-04-26T18:59:34Z</time></trkpt><trkpt lat="45.43209230785019" lon="10.64387607621374"><ele>77.0</ele><time>2026-04-26T18:59:35Z</time></trkpt><trkpt lat="45.43205416797683" lon="10.644322607350665"><ele>77.0</ele><time>2026-04-26T18:59:36Z</time></trkpt><trkpt lat="45.432014585039795" lon="10.64476998004321"><ele>76.0</ele><time>2026-04-26T18:59:37Z</time></trkpt><trkpt lat="45.431978664901" lon="10.64521683527228"><ele>75.0</ele><time>2026-04-26T18:59:38Z</time></trkpt><trkpt lat="45.43194799493557" lon="10.645662749163819"><ele>75.0</ele><time>2026-04-26T18:59:39Z</time></trkpt><trkpt lat="45.43192094222595" lon="10.646106687666009"><ele>75.0</ele><time>2026-04-26T18:59:40Z</time></trkpt><trkpt lat="45.43189315467966" lon="10.646549441555496"><ele>75.0</ele><time>2026-04-26T18:59:41Z</time></trkpt><trkpt lat="45.431864594537274" lon="10.646990353519982"><ele>75.0</ele><time>2026-04-26T18:59:42Z</time></trkpt><trkpt lat="45.431836911821684" lon="10.647429232481445"><ele>75.0</ele><time>2026-04-26T18:59:43Z</time></trkpt><trkpt lat="45.4318101934283" lon="10.647865714133143"><ele>75.0</ele><time>2026-04-26T18:59:44Z</time></trkpt><trkpt lat="45.43178349138242" lon="10.648299811425531"><ele>75.0</ele><time>2026-04-26T18:59:45Z</time></trkpt><trkpt lat="45.43175541315326" lon="10.6487338948112"><ele>75.0</ele><time>2026-04-26T18:59:46Z</time></trkpt><trkpt lat="45.43172715221028" lon="10.649167140377767"><ele>75.5</ele><time>2026-04-26T18:59:47Z</time></trkpt><trkpt lat="45.43169866066885" lon="10.649601130185486"><ele>76.0</ele><time>2026-04-26T18:59:48Z</time></trkpt><trkpt lat="45.43166978359903" lon="10.650035252776599"><ele>76.0</ele><time>2026-04-26T18:59:49Z</time></trkpt><trkpt lat="45.431642708595284" lon="10.650470571413068"><ele>76.0</ele><time>2026-04-26T18:59:50Z</time></trkpt><trkpt lat="45.431615837456384" lon="10.65090928517324"><ele>77.0</ele><time>2026-04-26T18:59:51Z</time></trkpt><trkpt lat="45.431587766704915" lon="10.65135187723591"><ele>78.0</ele><time>2026-04-26T18:59:52Z</time></trkpt><trkpt lat="45.43155751717631" lon="10.651798102029913"><ele>77.0</ele><time>2026-04-26T18:59:53Z</time></trkpt><trkpt lat="45.4315296536274" lon="10.652245799378942"><ele>76.0</ele><time>2026-04-26T18:59:54Z</time></trkpt><trkpt lat="45.43150201792758" lon="10.652691136816676"><ele>76.0</ele><time>2026-04-26T18:59:55Z</time></trkpt><trkpt lat="45.431472111845835" lon="10.653136039521417"><ele>76.0</ele><time>2026-04-26T18:59:56Z</time></trkpt><trkpt lat="45.431444171026165" lon="10.653580254772592"><ele>76.0</ele><time>2026-04-26T18:59:57Z</time></trkpt><trkpt lat="45.431416965748205" lon="10.65402612101659"><ele>76.0</ele><time>2026-04-26T18:59:58Z</time></trkpt><trkpt lat="45.43138855416097" lon="10.654471732289705"><ele>77.0</ele><time>2026-04-26T18:59:59Z</time></trkpt><trkpt lat="45.43135972076716" lon="10.654918973627806"><ele>78.0</ele><time>2026-04-26T19:00:00Z</time></trkpt><trkpt lat="45.431329810221364" lon="10.655365446485055"><ele>79.5</ele><time>2026-04-26T19:00:01Z</time></trkpt><trkpt lat="45.431299980397114" lon="10.655813984481355"><ele>81.0</ele><time>2026-04-26T19:00:02Z</time></trkpt><trkpt lat="45.431269926719" lon="10.65626135058973"><ele>81.0</ele><time>2026-04-26T19:00:03Z</time></trkpt><trkpt lat="45.431241198832915" lon="10.656706414839942"><ele>81.0</ele><time>2026-04-26T19:00:04Z</time></trkpt><trkpt lat="45.43121334127786" lon="10.657151356583547"><ele>82.5</ele><time>2026-04-26T19:00:05Z</time></trkpt><trkpt lat="45.43118393204856" lon="10.657596143451892"><ele>84.0</ele><time>2026-04-26T19:00:06Z</time></trkpt><trkpt lat="45.43115405016212" lon="10.658041527241906"><ele>85.0</ele><time>2026-04-26T19:00:07Z</time></trkpt><trkpt lat="45.431124413111135" lon="10.65848586865547"><ele>86.0</ele><time>2026-04-26T19:00:08Z</time></trkpt><trkpt lat="45.43109688713825" lon="10.658931274792863"><ele>86.0</ele><time>2026-04-26T19:00:09Z</time></trkpt><trkpt lat="45.43107372113908" lon="10.659376131678899"><ele>86.0</ele><time>2026-04-26T19:00:10Z</time></trkpt><trkpt lat="45.43105219692299" lon="10.659822539289841"><ele>84.5</ele><time>2026-04-26T19:00:11Z</time></trkpt><trkpt lat="45.431029893054266" lon="10.660268446413529"><ele>83.0</ele><time>2026-04-26T19:00:12Z</time></trkpt><trkpt lat="45.431013739193496" lon="10.66071852593357"><ele>79.5</ele><time>2026-04-26T19:00:13Z</time></trkpt><trkpt lat="45.43099162242027" lon="10.661168428447404"><ele>76.0</ele><time>2026-04-26T19:00:14Z</time></trkpt><trkpt lat="45.4309671532459" lon="10.661620706969106"><ele>76.0</ele><time>2026-04-26T19:00:15Z</time></trkpt><trkpt lat="45.43093869880845" lon="10.662077743970697"><ele>76.0</ele><time>2026-04-26T19:00:16Z</time></trkpt><trkpt lat="45.4309078407207" lon="10.662537957691368"><ele>75.5</ele><time>2026-04-26T19:00:17Z</time></trkpt><trkpt lat="45.43087874855333" lon="10.663000637409311"><ele>75.0</ele><time>2026-04-26T19:00:18Z</time></trkpt><trkpt lat="45.43084961796985" lon="10.663464932957924"><ele>75.0</ele><time>2026-04-26T19:00:19Z</time></trkpt><trkpt lat="45.43081753325297" lon="10.663931362224918"><ele>75.0</ele><time>2026-04-26T19:00:20Z</time></trkpt><trkpt lat="45.43078549417815" lon="10.664398253042718"><ele>75.5</ele><time>2026-04-26T19:00:21Z</time></trkpt><trkpt lat="45.43075345521926" lon="10.664864542115883"><ele>76.0</ele><time>2026-04-26T19:00:22Z</time></trkpt><trkpt lat="45.43072151385445" lon="10.665330056968276"><ele>77.0</ele><time>2026-04-26T19:00:23Z</time></trkpt><trkpt lat="45.43069208328078" lon="10.665796256454641"><ele>78.0</ele><time>2026-04-26T19:00:24Z</time></trkpt><trkpt lat="45.430654224738845" lon="10.666262300579469"><ele>80.0</ele><time>2026-04-26T19:00:25Z</time></trkpt><trkpt lat="45.43061337020434" lon="10.666725805056045"><ele>82.0</ele><time>2026-04-26T19:00:26Z</time></trkpt><trkpt lat="45.43057198074607" lon="10.667187665364184"><ele>83.5</ele><time>2026-04-26T19:00:27Z</time></trkpt><trkpt lat="45.430531545366954" lon="10.667644986077251"><ele>85.0</ele><time>2026-04-26T19:00:28Z</time></trkpt><trkpt lat="45.43049433981038" lon="10.668100645463705"><ele>86.5</ele><time>2026-04-26T19:00:29Z</time></trkpt><trkpt lat="45.43046175091428" lon="10.668555414088926"><ele>88.0</ele><time>2026-04-26T19:00:30Z</time></trkpt><trkpt lat="45.43043138004571" lon="10.66901107936313"><ele>88.0</ele><time>2026-04-26T19:00:31Z</time></trkpt><trkpt lat="45.430402592960995" lon="10.669462005390807"><ele>88.0</ele><time>2026-04-26T19:00:32Z</time></trkpt><trkpt lat="45.430374959170926" lon="10.669906345721238"><ele>86.0</ele><time>2026-04-26T19:00:33Z</time></trkpt><trkpt lat="45.43035534379809" lon="10.670344393307136"><ele>84.0</ele><time>2026-04-26T19:00:34Z</time></trkpt><trkpt lat="45.430338310516056" lon="10.670782974519632"><ele>82.5</ele><time>2026-04-26T19:00:35Z</time></trkpt><trkpt lat="45.430317205653466" lon="10.671219418108121"><ele>81.0</ele><time>2026-04-26T19:00:36Z</time></trkpt><trkpt lat="45.43029052290851" lon="10.67165463221852"><ele>81.5</ele><time>2026-04-26T19:00:37Z</time></trkpt><trkpt lat="45.430261306976675" lon="10.672088231033772"><ele>82.0</ele><time>2026-04-26T19:00:38Z</time></trkpt><trkpt lat="45.43023218527097" lon="10.672520481462788"><ele>82.5</ele><time>2026-04-26T19:00:39Z</time></trkpt><trkpt lat="45.43020333864016" lon="10.672952714012744"><ele>83.0</ele><time>2026-04-26T19:00:40Z</time></trkpt><trkpt lat="45.43017663459402" lon="10.673386859922196"><ele>84.0</ele><time>2026-04-26T19:00:41Z</time></trkpt><trkpt lat="45.43014925531189" lon="10.673822170475098"><ele>85.0</ele><time>2026-04-26T19:00:42Z</time></trkpt><trkpt lat="45.43012095051961" lon="10.674260119730295"><ele>85.0</ele><time>2026-04-26T19:00:43Z</time></trkpt><trkpt lat="45.4300921146475" lon="10.674699247469565"><ele>85.0</ele><time>2026-04-26T19:00:44Z</time></trkpt><trkpt lat="45.43006112845965" lon="10.67514053766427"><ele>84.5</ele><time>2026-04-26T19:00:45Z</time></trkpt><trkpt lat="45.43003011646208" lon="10.675582615961538"><ele>84.0</ele><time>2026-04-26T19:00:46Z</time></trkpt><trkpt lat="45.42999790365162" lon="10.676025025396978"><ele>83.5</ele><time>2026-04-26T19:00:47Z</time></trkpt><trkpt lat="45.42996333291097" lon="10.676466518813015"><ele>83.0</ele><time>2026-04-26T19:00:48Z</time></trkpt><trkpt lat="45.42992814266129" lon="10.676909107390077"><ele>83.0</ele><time>2026-04-26T19:00:49Z</time></trkpt><trkpt lat="45.429893263581995" lon="10.677354284621458"><ele>83.0</ele><time>2026-04-26T19:00:50Z</time></trkpt><trkpt lat="45.429859187648674" lon="10.677800847867635"><ele>84.0</ele><time>2026-04-26T19:00:51Z</time></trkpt><trkpt lat="45.429825494896455" lon="10.678247633707162"><ele>85.0</ele><time>2026-04-26T19:00:52Z</time></trkpt><trkpt lat="45.42979581743251" lon="10.678695731227705"><ele>85.0</ele><time>2026-04-26T19:00:53Z</time></trkpt><trkpt lat="45.4297670887695" lon="10.679141945741456"><ele>85.0</ele><time>2026-04-26T19:00:54Z</time></trkpt><trkpt lat="45.42974010533816" lon="10.679587161422342"><ele>85.5</ele><time>2026-04-26T19:00:55Z</time></trkpt><trkpt lat="45.42971302173562" lon="10.680031221213692"><ele>86.0</ele><time>2026-04-26T19:00:56Z</time></trkpt><trkpt lat="45.429684898170834" lon="10.68047416484595"><ele>86.0</ele><time>2026-04-26T19:00:57Z</time></trkpt><trkpt lat="45.42965624594737" lon="10.68091490414111"><ele>86.0</ele><time>2026-04-26T19:00:58Z</time></trkpt><trkpt lat="45.42962832896474" lon="10.681354675397627"><ele>87.0</ele><time>2026-04-26T19:00:59Z</time></trkpt><trkpt lat="45.429600306603014" lon="10.681794523040638"><ele>88.0</ele><time>2026-04-26T19:01:00Z</time></trkpt><trkpt lat="45.42957351779593" lon="10.682233699746847"><ele>91.0</ele><time>2026-04-26T19:01:01Z</time></trkpt><trkpt lat="45.429547171323534" lon="10.682671155872265"><ele>94.0</ele><time>2026-04-26T19:01:02Z</time></trkpt><trkpt lat="45.429519887513244" lon="10.683106349380349"><ele>93.0</ele><time>2026-04-26T19:01:03Z</time></trkpt><trkpt lat="45.429492469883826" lon="10.683541305339642"><ele>92.0</ele><time>2026-04-26T19:01:04Z</time></trkpt><trkpt lat="45.42946224747861" lon="10.683976365101318"><ele>92.0</ele><time>2026-04-26T19:01:05Z</time></trkpt><trkpt lat="45.42943177827468" lon="10.684412681221993"><ele>92.0</ele><time>2026-04-26T19:01:06Z</time></trkpt><trkpt lat="45.429403208721425" lon="10.684848380278392"><ele>88.5</ele><time>2026-04-26T19:01:07Z</time></trkpt><trkpt lat="45.429379868170436" lon="10.685282048655035"><ele>85.0</ele><time>2026-04-26T19:01:08Z</time></trkpt><trkpt lat="45.429361154063045" lon="10.685718511435635"><ele>84.5</ele><time>2026-04-26T19:01:09Z</time></trkpt><trkpt lat="45.429344622452334" lon="10.686156634218571"><ele>84.0</ele><time>2026-04-26T19:01:10Z</time></trkpt><trkpt lat="45.429323086607305" lon="10.686595575901165"><ele>84.5</ele><time>2026-04-26T19:01:11Z</time></trkpt><trkpt lat="45.42930439904537" lon="10.687034701680256"><ele>85.0</ele><time>2026-04-26T19:01:12Z</time></trkpt><trkpt lat="45.42928481045636" lon="10.687474655687735"><ele>84.5</ele><time>2026-04-26T19:01:13Z</time></trkpt><trkpt lat="45.42926920061735" lon="10.68791733513299"><ele>84.0</ele><time>2026-04-26T19:01:14Z</time></trkpt><trkpt lat="45.42925660655596" lon="10.688361152146236"><ele>83.0</ele><time>2026-04-26T19:01:15Z</time></trkpt><trkpt lat="45.429245545013046" lon="10.688803959901618"><ele>82.0</ele><time>2026-04-26T19:01:16Z</time></trkpt><trkpt lat="45.42923818562635" lon="10.689247785390359"><ele>82.0</ele><time>2026-04-26T19:01:17Z</time></trkpt><trkpt lat="45.429233007267854" lon="10.689694705875041"><ele>82.0</ele><time>2026-04-26T19:01:18Z</time></trkpt><trkpt lat="45.42922995310804" lon="10.69014321116162"><ele>82.5</ele><time>2026-04-26T19:01:19Z</time></trkpt><trkpt lat="45.4292277750076" lon="10.69059293099749"><ele>83.0</ele><time>2026-04-26T19:01:20Z</time></trkpt><trkpt lat="45.42922239870532" lon="10.691041105519156"><ele>82.5</ele><time>2026-04-26T19:01:21Z</time></trkpt><trkpt lat="45.42921496666232" lon="10.691490103970775"><ele>82.0</ele><time>2026-04-26T19:01:22Z</time></trkpt><trkpt lat="45.429208438475655" lon="10.691937605250892"><ele>82.0</ele><time>2026-04-26T19:01:23.001Z</time></trkpt><trkpt lat="45.42920589508652" lon="10.692385702192725"><ele>82.0</ele><time>2026-04-26T19:01:24.001Z</time></trkpt><trkpt lat="45.42920660359019" lon="10.692833617527292"><ele>82.0</ele><time>2026-04-26T19:01:25.001Z</time></trkpt><trkpt lat="45.429209548045144" lon="10.693279679249276"><ele>82.0</ele><time>2026-04-26T19:01:26.001Z</time></trkpt><trkpt lat="45.42921535239195" lon="10.693724773063089"><ele>82.0</ele><time>2026-04-26T19:01:27.001Z</time></trkpt><trkpt lat="45.42922163490669" lon="10.6941681513187"><ele>82.0</ele><time>2026-04-26T19:01:28.001Z</time></trkpt><trkpt lat="45.42922388549386" lon="10.694609553761024"><ele>81.5</ele><time>2026-04-26T19:01:29.001Z</time></trkpt><trkpt lat="45.429227105764745" lon="10.695051111005485"><ele>81.0</ele><time>2026-04-26T19:01:30.001Z</time></trkpt><trkpt lat="45.429228808436896" lon="10.69549248636024"><ele>80.5</ele><time>2026-04-26T19:01:31.001Z</time></trkpt><trkpt lat="45.4292295760066" lon="10.695934245039812"><ele>80.0</ele><time>2026-04-26T19:01:32.001Z</time></trkpt><trkpt lat="45.429230706669635" lon="10.696371303553388"><ele>78.5</ele><time>2026-04-26T19:01:33.001Z</time></trkpt><trkpt lat="45.429232815883005" lon="10.696811529079687"><ele>77.0</ele><time>2026-04-26T19:01:34.001Z</time></trkpt><trkpt lat="45.429236289038144" lon="10.697247174573025"><ele>76.0</ele><time>2026-04-26T19:01:35.001Z</time></trkpt><trkpt lat="45.42924177433714" lon="10.697679657877977"><ele>75.0</ele><time>2026-04-26T19:01:36Z</time></trkpt><trkpt lat="45.429248070867004" lon="10.698110259490957"><ele>74.0</ele><time>2026-04-26T19:01:37Z</time></trkpt><trkpt lat="45.429252787731606" lon="10.698540726306604"><ele>73.0</ele><time>2026-04-26T19:01:38Z</time></trkpt><trkpt lat="45.4292562368269" lon="10.698973072836495"><ele>72.5</ele><time>2026-04-26T19:01:39Z</time></trkpt><trkpt lat="45.42925819458279" lon="10.69940624957443"><ele>72.0</ele><time>2026-04-26T19:01:40Z</time></trkpt><trkpt lat="45.4292595247687" lon="10.699838314029453"><ele>65.5</ele><time>2026-04-26T19:01:41Z</time></trkpt><trkpt lat="45.429259434471156" lon="10.700266395649212"><ele>59.0</ele><time>2026-04-26T19:01:42Z</time></trkpt><trkpt lat="45.42926211751856" lon="10.700694777370025"><ele>62.5</ele><time>2026-04-26T19:01:43Z</time></trkpt><trkpt lat="45.42926592073641" lon="10.701124128496357"><ele>66.0</ele><time>2026-04-26T19:01:44Z</time></trkpt><trkpt lat="45.4292699980122" lon="10.70155329602515"><ele>68.0</ele><time>2026-04-26T19:01:45Z</time></trkpt><trkpt lat="45.42927331397144" lon="10.701981687444492"><ele>70.0</ele><time>2026-04-26T19:01:46Z</time></trkpt><trkpt lat="45.42927478860434" lon="10.70240681517862"><ele>72.0</ele><time>2026-04-26T19:01:47Z</time></trkpt><trkpt lat="45.42927862813467" lon="10.702827526427875"><ele>74.0</ele><time>2026-04-26T19:01:48Z</time></trkpt><trkpt lat="45.42928213182585" lon="10.70324389411042"><ele>75.5</ele><time>2026-04-26T19:01:49Z</time></trkpt><trkpt lat="45.42928660087004" lon="10.703649953738466"><ele>77.0</ele><time>2026-04-26T19:01:50Z</time></trkpt><trkpt lat="45.429290033222834" lon="10.704039760107777"><ele>78.5</ele><time>2026-04-26T19:01:51Z</time></trkpt><trkpt lat="45.42929149676056" lon="10.704431605458069"><ele>80.0</ele><time>2026-04-26T19:01:52Z</time></trkpt><trkpt lat="45.42929423633795" lon="10.704836812926725"><ele>81.5</ele><time>2026-04-26T19:01:53Z</time></trkpt><trkpt lat="45.4292946821884" lon="10.705250788571869"><ele>83.0</ele><time>2026-04-26T19:01:54Z</time></trkpt><trkpt lat="45.42929488984948" lon="10.705669100655365"><ele>82.5</ele><time>2026-04-26T19:01:55Z</time></trkpt><trkpt lat="45.42929502320422" lon="10.706088668602156"><ele>82.0</ele><time>2026-04-26T19:01:56Z</time></trkpt><trkpt lat="45.42929633270343" lon="10.706509608334704"><ele>83.0</ele><time>2026-04-26T19:01:57Z</time></trkpt><trkpt lat="45.42930267818338" lon="10.706928610671554"><ele>84.0</ele><time>2026-04-26T19:01:58Z</time></trkpt><trkpt lat="45.42931019114952" lon="10.707344503503657"><ele>84.5</ele><time>2026-04-26T19:01:59Z</time></trkpt><trkpt lat="45.42931353552602" lon="10.707763227639965"><ele>85.0</ele><time>2026-04-26T19:02:00Z</time></trkpt><trkpt lat="45.429316308893256" lon="10.708183645646011"><ele>86.0</ele><time>2026-04-26T19:02:01Z</time></trkpt><trkpt lat="45.42931812337453" lon="10.708604261271255"><ele>87.0</ele><time>2026-04-26T19:02:02Z</time></trkpt><trkpt lat="45.42932128075252" lon="10.709025011274658"><ele>88.5</ele><time>2026-04-26T19:02:03Z</time></trkpt><trkpt lat="45.42932444424281" lon="10.709447558639464"><ele>90.0</ele><time>2026-04-26T19:02:04Z</time></trkpt><trkpt lat="45.42932865783961" lon="10.709871754872943"><ele>91.5</ele><time>2026-04-26T19:02:05Z</time></trkpt><trkpt lat="45.42933176740233" lon="10.710298183942967"><ele>93.0</ele><time>2026-04-26T19:02:06Z</time></trkpt><trkpt lat="45.42933480565826" lon="10.710726434267084"><ele>95.0</ele><time>2026-04-26T19:02:07Z</time></trkpt><trkpt lat="45.429337952971416" lon="10.711156673694434"><ele>97.0</ele><time>2026-04-26T19:02:08Z</time></trkpt><trkpt lat="45.42934154229853" lon="10.711586708200679"><ele>98.0</ele><time>2026-04-26T19:02:09Z</time></trkpt><trkpt lat="45.42934546555946" lon="10.712015476066004"><ele>99.0</ele><time>2026-04-26T19:02:10Z</time></trkpt><trkpt lat="45.42934906330502" lon="10.712442729124577"><ele>99.5</ele><time>2026-04-26T19:02:11Z</time></trkpt><trkpt lat="45.429350698765454" lon="10.71286966077166"><ele>100.0</ele><time>2026-04-26T19:02:12Z</time></trkpt><trkpt lat="45.42935016691283" lon="10.713295872114905"><ele>101.5</ele><time>2026-04-26T19:02:13Z</time></trkpt><trkpt lat="45.429351551532605" lon="10.713721250825332"><ele>103.0</ele><time>2026-04-26T19:02:14Z</time></trkpt><trkpt lat="45.42935540999049" lon="10.714148003714334"><ele>102.0</ele><time>2026-04-26T19:02:15Z</time></trkpt><trkpt lat="45.429360374190914" lon="10.7145722095758"><ele>101.0</ele><time>2026-04-26T19:02:16Z</time></trkpt><trkpt lat="45.42936971017516" lon="10.714992239617098"><ele>100.0</ele><time>2026-04-26T19:02:17Z</time></trkpt><trkpt lat="45.42937975510045" lon="10.715411711143616"><ele>99.0</ele><time>2026-04-26T19:02:18Z</time></trkpt><trkpt lat="45.42938878064933" lon="10.71583143616994"><ele>99.0</ele><time>2026-04-26T19:02:19Z</time></trkpt><trkpt lat="45.429396108926944" lon="10.71625130618926"><ele>99.0</ele><time>2026-04-26T19:02:20Z</time></trkpt><trkpt lat="45.42940099869715" lon="10.716674621614109"><ele>98.5</ele><time>2026-04-26T19:02:21Z</time></trkpt><trkpt lat="45.42940469705818" lon="10.71710075340003"><ele>98.0</ele><time>2026-04-26T19:02:22Z</time></trkpt><trkpt lat="45.42941277108347" lon="10.71752952009807"><ele>98.0</ele><time>2026-04-26T19:02:23Z</time></trkpt><trkpt lat="45.429423799502274" lon="10.717964510331335"><ele>98.0</ele><time>2026-04-26T19:02:24Z</time></trkpt><trkpt lat="45.429434104248" lon="10.718407181852106"><ele>98.5</ele><time>2026-04-26T19:02:25Z</time></trkpt><trkpt lat="45.429441067775606" lon="10.718849053955203"><ele>99.0</ele><time>2026-04-26T19:02:26Z</time></trkpt><trkpt lat="45.429445898528584" lon="10.71929104458741"><ele>99.5</ele><time>2026-04-26T19:02:27Z</time></trkpt><trkpt lat="45.42944862644911" lon="10.719736526773985"><ele>100.0</ele><time>2026-04-26T19:02:28Z</time></trkpt><trkpt lat="45.42944802752846" lon="10.72018394850131"><ele>100.0</ele><time>2026-04-26T19:02:29Z</time></trkpt><trkpt lat="45.4294498005674" lon="10.7206316668472"><ele>100.0</ele><time>2026-04-26T19:02:30Z</time></trkpt><trkpt lat="45.42945239326797" lon="10.721077267714588"><ele>100.5</ele><time>2026-04-26T19:02:31Z</time></trkpt><trkpt lat="45.429454296532775" lon="10.721522233241972"><ele>101.0</ele><time>2026-04-26T19:02:32Z</time></trkpt><trkpt lat="45.4294566905236" lon="10.721967622742424"><ele>102.0</ele><time>2026-04-26T19:02:33Z</time></trkpt><trkpt lat="45.429459198848164" lon="10.722412492314172"><ele>103.0</ele><time>2026-04-26T19:02:34Z</time></trkpt><trkpt lat="45.429462081659985" lon="10.722855914769719"><ele>104.0</ele><time>2026-04-26T19:02:35Z</time></trkpt><trkpt lat="45.429463069279976" lon="10.723301013547884"><ele>105.0</ele><time>2026-04-26T19:02:36Z</time></trkpt><trkpt lat="45.42946529429718" lon="10.723746159656894"><ele>105.5</ele><time>2026-04-26T19:02:37Z</time></trkpt><trkpt lat="45.429468620639696" lon="10.724191634976961"><ele>106.0</ele><time>2026-04-26T19:02:38Z</time></trkpt><trkpt lat="45.42947164513605" lon="10.724636150552394"><ele>107.0</ele><time>2026-04-26T19:02:39Z</time></trkpt><trkpt lat="45.429474125657286" lon="10.725080851626403"><ele>108.0</ele><time>2026-04-26T19:02:40Z</time></trkpt><trkpt lat="45.42947513680579" lon="10.725527552584971"><ele>108.5</ele><time>2026-04-26T19:02:41Z</time></trkpt><trkpt lat="45.429473156759876" lon="10.725975967750793"><ele>109.0</ele><time>2026-04-26T19:02:42Z</time></trkpt><trkpt lat="45.4294671375614" lon="10.726425997387866"><ele>109.5</ele><time>2026-04-26T19:02:43Z</time></trkpt><trkpt lat="45.42945739167435" lon="10.726879101018149"><ele>110.0</ele><time>2026-04-26T19:02:44Z</time></trkpt><trkpt lat="45.42944630066034" lon="10.727335016970471"><ele>108.0</ele><time>2026-04-26T19:02:45Z</time></trkpt><trkpt lat="45.42943143808924" lon="10.72779310339277"><ele>106.0</ele><time>2026-04-26T19:02:46Z</time></trkpt><trkpt lat="45.42941339369887" lon="10.728253374476242"><ele>104.0</ele><time>2026-04-26T19:02:47Z</time></trkpt><trkpt lat="45.42939291513478" lon="10.728716707600514"><ele>102.0</ele><time>2026-04-26T19:02:48Z</time></trkpt><trkpt lat="45.429368649406115" lon="10.729181856873819"><ele>102.0</ele><time>2026-04-26T19:02:49Z</time></trkpt><trkpt lat="45.42934259497241" lon="10.729645478900064"><ele>102.0</ele><time>2026-04-26T19:02:50Z</time></trkpt><trkpt lat="45.42931585512953" lon="10.73010760254615"><ele>102.0</ele><time>2026-04-26T19:02:51Z</time></trkpt><trkpt lat="45.42928393218707" lon="10.730570018329123"><ele>102.0</ele><time>2026-04-26T19:02:52Z</time></trkpt><trkpt lat="45.42924882656454" lon="10.731031236179252"><ele>102.5</ele><time>2026-04-26T19:02:53Z</time></trkpt><trkpt lat="45.429211261180896" lon="10.731492168948897"><ele>103.0</ele><time>2026-04-26T19:02:54Z</time></trkpt><trkpt lat="45.429172263438545" lon="10.731952876974532"><ele>103.0</ele><time>2026-04-26T19:02:55Z</time></trkpt><trkpt lat="45.429129015636725" lon="10.732413036229083"><ele>103.0</ele><time>2026-04-26T19:02:56Z</time></trkpt><trkpt lat="45.429082651411136" lon="10.732872535423999"><ele>103.5</ele><time>2026-04-26T19:02:57Z</time></trkpt><trkpt lat="45.42903494004898" lon="10.733331100997065"><ele>104.0</ele><time>2026-04-26T19:02:58Z</time></trkpt><trkpt lat="45.428988073142186" lon="10.73378935648196"><ele>102.0</ele><time>2026-04-26T19:02:59Z</time></trkpt><trkpt lat="45.428940415534406" lon="10.734248108530851"><ele>100.0</ele><time>2026-04-26T19:03:00Z</time></trkpt><trkpt lat="45.42889233329803" lon="10.734705915164653"><ele>100.0</ele><time>2026-04-26T19:03:01Z</time></trkpt><trkpt lat="45.42884636337976" lon="10.73516270994335"><ele>100.0</ele><time>2026-04-26T19:03:02Z</time></trkpt><trkpt lat="45.42880033595461" lon="10.735619400559559"><ele>100.0</ele><time>2026-04-26T19:03:03Z</time></trkpt><trkpt lat="45.4287532751064" lon="10.736075126600566"><ele>100.0</ele><time>2026-04-26T19:03:04Z</time></trkpt><trkpt lat="45.42870517945973" lon="10.736529765690406"><ele>98.5</ele><time>2026-04-26T19:03:05Z</time></trkpt><trkpt lat="45.42865804990347" lon="10.73698217292441"><ele>97.0</ele><time>2026-04-26T19:03:06Z</time></trkpt><trkpt lat="45.42861095762693" lon="10.737435167772405"><ele>97.0</ele><time>2026-04-26T19:03:07Z</time></trkpt><trkpt lat="45.42856384669037" lon="10.737889196781138"><ele>97.0</ele><time>2026-04-26T19:03:08Z</time></trkpt><trkpt lat="45.42851800291529" lon="10.738342512615553"><ele>96.5</ele><time>2026-04-26T19:03:09Z</time></trkpt><trkpt lat="45.42847208204121" lon="10.738794264424385"><ele>96.0</ele><time>2026-04-26T19:03:10Z</time></trkpt><trkpt lat="45.428424651342" lon="10.739243121310533"><ele>96.0</ele><time>2026-04-26T19:03:11Z</time></trkpt><trkpt lat="45.42837422350257" lon="10.739688102064816"><ele>96.0</ele><time>2026-04-26T19:03:12Z</time></trkpt><trkpt lat="45.42831832745305" lon="10.740131212447707"><ele>96.5</ele><time>2026-04-26T19:03:13Z</time></trkpt><trkpt lat="45.42826050012715" lon="10.740574577045194"><ele>97.0</ele><time>2026-04-26T19:03:14Z</time></trkpt><trkpt lat="45.428205095557644" lon="10.741019679503262"><ele>97.0</ele><time>2026-04-26T19:03:15Z</time></trkpt><trkpt lat="45.42815791914172" lon="10.74146699337798"><ele>97.0</ele><time>2026-04-26T19:03:16Z</time></trkpt><trkpt lat="45.428114914747894" lon="10.741916350558839"><ele>97.0</ele><time>2026-04-26T19:03:17Z</time></trkpt><trkpt lat="45.428070618825274" lon="10.742364571431771"><ele>97.0</ele><time>2026-04-26T19:03:18Z</time></trkpt><trkpt lat="45.42802686102787" lon="10.742812893075715"><ele>95.5</ele><time>2026-04-26T19:03:19Z</time></trkpt><trkpt lat="45.42798111387269" lon="10.743258545246956"><ele>94.0</ele><time>2026-04-26T19:03:20Z</time></trkpt><trkpt lat="45.42793758866437" lon="10.743706711567308"><ele>94.0</ele><time>2026-04-26T19:03:21Z</time></trkpt><trkpt lat="45.427892558511424" lon="10.744158477717788"><ele>94.0</ele><time>2026-04-26T19:03:22Z</time></trkpt><trkpt lat="45.42784809086616" lon="10.74460955809135"><ele>94.0</ele><time>2026-04-26T19:03:23Z</time></trkpt><trkpt lat="45.42780344495189" lon="10.745061723402738"><ele>94.0</ele><time>2026-04-26T19:03:24Z</time></trkpt><trkpt lat="45.42775700152494" lon="10.745512768502207"><ele>94.0</ele><time>2026-04-26T19:03:25Z</time></trkpt><trkpt lat="45.427710795305025" lon="10.745959116475158"><ele>94.0</ele><time>2026-04-26T19:03:26Z</time></trkpt><trkpt lat="45.42766484566856" lon="10.74640232930891"><ele>94.5</ele><time>2026-04-26T19:03:27Z</time></trkpt><trkpt lat="45.42761870840026" lon="10.746843118407444"><ele>95.0</ele><time>2026-04-26T19:03:28Z</time></trkpt><trkpt lat="45.427572731211036" lon="10.747280653236366"><ele>96.5</ele><time>2026-04-26T19:03:29Z</time></trkpt><trkpt lat="45.427529366972216" lon="10.747717760397567"><ele>98.0</ele><time>2026-04-26T19:03:30Z</time></trkpt><trkpt lat="45.427486258449925" lon="10.74815633047488"><ele>99.5</ele><time>2026-04-26T19:03:31Z</time></trkpt><trkpt lat="45.42744239088048" lon="10.748594392718603"><ele>101.0</ele><time>2026-04-26T19:03:32.001Z</time></trkpt><trkpt lat="45.42739828525674" lon="10.74903307850298"><ele>102.0</ele><time>2026-04-26T19:03:33.001Z</time></trkpt><trkpt lat="45.427353811273356" lon="10.749471845067763"><ele>103.0</ele><time>2026-04-26T19:03:34.001Z</time></trkpt><trkpt lat="45.427309832684315" lon="10.74990954609227"><ele>104.0</ele><time>2026-04-26T19:03:35.001Z</time></trkpt><trkpt lat="45.42726677620112" lon="10.750345834042069"><ele>105.0</ele><time>2026-04-26T19:03:36.001Z</time></trkpt><trkpt lat="45.42722339545109" lon="10.750784037756366"><ele>104.5</ele><time>2026-04-26T19:03:37.001Z</time></trkpt><trkpt lat="45.4271788624733" lon="10.751223163143134"><ele>104.0</ele><time>2026-04-26T19:03:38.001Z</time></trkpt><trkpt lat="45.42713461757655" lon="10.751662781897554"><ele>103.0</ele><time>2026-04-26T19:03:39.001Z</time></trkpt><trkpt lat="45.427091207573625" lon="10.752104643198157"><ele>102.0</ele><time>2026-04-26T19:03:40.001Z</time></trkpt><trkpt lat="45.427048257670144" lon="10.7525467720513"><ele>101.5</ele><time>2026-04-26T19:03:41.001Z</time></trkpt><trkpt lat="45.42700438386776" lon="10.752989059262474"><ele>101.0</ele><time>2026-04-26T19:03:42Z</time></trkpt><trkpt lat="45.42695853798959" lon="10.75343256575454"><ele>101.0</ele><time>2026-04-26T19:03:43Z</time></trkpt><trkpt lat="45.42691593183554" lon="10.753875281506165"><ele>101.0</ele><time>2026-04-26T19:03:44Z</time></trkpt><trkpt lat="45.42687217664866" lon="10.75431683065514"><ele>100.5</ele><time>2026-04-26T19:03:45Z</time></trkpt><trkpt lat="45.426830801755905" lon="10.75476014353336"><ele>100.0</ele><time>2026-04-26T19:03:46Z</time></trkpt><trkpt lat="45.42678611213579" lon="10.755203510771821"><ele>100.5</ele><time>2026-04-26T19:03:47Z</time></trkpt><trkpt lat="45.42674152848121" lon="10.75564460915101"><ele>101.0</ele><time>2026-04-26T19:03:48Z</time></trkpt><trkpt lat="45.426695542113684" lon="10.756085503457038"><ele>101.0</ele><time>2026-04-26T19:03:49Z</time></trkpt><trkpt lat="45.426646104466585" lon="10.756526925443273"><ele>101.0</ele><time>2026-04-26T19:03:50Z</time></trkpt><trkpt lat="45.42659004541604" lon="10.756962966764089"><ele>100.5</ele><time>2026-04-26T19:03:51Z</time></trkpt><trkpt lat="45.42653706428277" lon="10.757403690333305"><ele>100.0</ele><time>2026-04-26T19:03:52Z</time></trkpt><trkpt lat="45.426486982106525" lon="10.757843339910233"><ele>101.0</ele><time>2026-04-26T19:03:53Z</time></trkpt><trkpt lat="45.42644148463124" lon="10.758285659926045"><ele>102.0</ele><time>2026-04-26T19:03:54Z</time></trkpt><trkpt lat="45.42639700707309" lon="10.758726022486472"><ele>102.0</ele><time>2026-04-26T19:03:55Z</time></trkpt><trkpt lat="45.426351485373054" lon="10.759162128349752"><ele>102.0</ele><time>2026-04-26T19:03:56Z</time></trkpt><trkpt lat="45.4263053097134" lon="10.759596816797053"><ele>102.0</ele><time>2026-04-26T19:03:57Z</time></trkpt><trkpt lat="45.42626027926137" lon="10.760029868710786"><ele>102.0</ele><time>2026-04-26T19:03:58Z</time></trkpt><trkpt lat="45.42621624231653" lon="10.76046125399133"><ele>102.0</ele><time>2026-04-26T19:03:59Z</time></trkpt><trkpt lat="45.426170400692605" lon="10.760890603251456"><ele>102.0</ele><time>2026-04-26T19:04:00Z</time></trkpt><trkpt lat="45.42612650054496" lon="10.76131856892718"><ele>101.5</ele><time>2026-04-26T19:04:01Z</time></trkpt><trkpt lat="45.42608352295075" lon="10.76174597246968"><ele>101.0</ele><time>2026-04-26T19:04:02Z</time></trkpt><trkpt lat="45.426040036563826" lon="10.762175471892894"><ele>102.0</ele><time>2026-04-26T19:04:03Z</time></trkpt><trkpt lat="45.42599750731348" lon="10.762607656537043"><ele>103.0</ele><time>2026-04-26T19:04:04Z</time></trkpt><trkpt lat="45.42595512553198" lon="10.763042413332897"><ele>103.0</ele><time>2026-04-26T19:04:05Z</time></trkpt><trkpt lat="45.42591196923958" lon="10.763477917600131"><ele>103.0</ele><time>2026-04-26T19:04:06Z</time></trkpt><trkpt lat="45.4258691349337" lon="10.763915047363161"><ele>102.0</ele><time>2026-04-26T19:04:07Z</time></trkpt><trkpt lat="45.42582298041125" lon="10.764351988512104"><ele>101.0</ele><time>2026-04-26T19:04:08Z</time></trkpt><trkpt lat="45.42577603943119" lon="10.764787800989396"><ele>99.5</ele><time>2026-04-26T19:04:09Z</time></trkpt><trkpt lat="45.425730288947705" lon="10.765223604499019"><ele>98.0</ele><time>2026-04-26T19:04:10Z</time></trkpt><trkpt lat="45.4256846391027" lon="10.765661308397164"><ele>99.0</ele><time>2026-04-26T19:04:11Z</time></trkpt><trkpt lat="45.42564217741069" lon="10.766102086270392"><ele>100.0</ele><time>2026-04-26T19:04:12Z</time></trkpt><trkpt lat="45.42560472920385" lon="10.76654510924124"><ele>101.5</ele><time>2026-04-26T19:04:13Z</time></trkpt><trkpt lat="45.42556639661757" lon="10.766990380085414"><ele>103.0</ele><time>2026-04-26T19:04:14Z</time></trkpt><trkpt lat="45.42552559431228" lon="10.76743721534197"><ele>103.5</ele><time>2026-04-26T19:04:15Z</time></trkpt><trkpt lat="45.425481070501185" lon="10.767883955428472"><ele>104.0</ele><time>2026-04-26T19:04:16Z</time></trkpt><trkpt lat="45.425431069927384" lon="10.768330644093256"><ele>104.0</ele><time>2026-04-26T19:04:17Z</time></trkpt><trkpt lat="45.42537401421128" lon="10.768777300055977"><ele>104.0</ele><time>2026-04-26T19:04:18Z</time></trkpt><trkpt lat="45.425312795496836" lon="10.769222958442064"><ele>103.5</ele><time>2026-04-26T19:04:19Z</time></trkpt><trkpt lat="45.42524677133064" lon="10.769665811025545"><ele>103.0</ele><time>2026-04-26T19:04:20Z</time></trkpt><trkpt lat="45.42517547971469" lon="10.770107911761619"><ele>103.0</ele><time>2026-04-26T19:04:21Z</time></trkpt><trkpt lat="45.42509744446882" lon="10.770548753333875"><ele>103.0</ele><time>2026-04-26T19:04:22Z</time></trkpt><trkpt lat="45.42501503276385" lon="10.770987456172401"><ele>104.0</ele><time>2026-04-26T19:04:23Z</time></trkpt><trkpt lat="45.424926118272445" lon="10.771422416546734"><ele>105.0</ele><time>2026-04-26T19:04:24Z</time></trkpt><trkpt lat="45.42482902285173" lon="10.771852724381597"><ele>104.5</ele><time>2026-04-26T19:04:25Z</time></trkpt><trkpt lat="45.42472804794879" lon="10.7722798976809"><ele>104.0</ele><time>2026-04-26T19:04:26Z</time></trkpt><trkpt lat="45.42462289405135" lon="10.772704720965647"><ele>103.0</ele><time>2026-04-26T19:04:27Z</time></trkpt><trkpt lat="45.42451233453341" lon="10.773124472548108"><ele>102.0</ele><time>2026-04-26T19:04:28Z</time></trkpt><trkpt lat="45.42439771743701" lon="10.773540384870783"><ele>104.0</ele><time>2026-04-26T19:04:29Z</time></trkpt><trkpt lat="45.42427877746277" lon="10.773950654740366"><ele>106.0</ele><time>2026-04-26T19:04:30Z</time></trkpt><trkpt lat="45.42415449937805" lon="10.774356504838487"><ele>107.0</ele><time>2026-04-26T19:04:31Z</time></trkpt><trkpt lat="45.42402257845631" lon="10.774761253504082"><ele>108.0</ele><time>2026-04-26T19:04:32Z</time></trkpt><trkpt lat="45.423884917083996" lon="10.775162642192319"><ele>112.0</ele><time>2026-04-26T19:04:33Z</time></trkpt><trkpt lat="45.423741560065906" lon="10.77556124287523"><ele>116.0</ele><time>2026-04-26T19:04:34Z</time></trkpt><trkpt lat="45.423595358625114" lon="10.775956427779121"><ele>117.0</ele><time>2026-04-26T19:04:35Z</time></trkpt><trkpt lat="45.42344531521385" lon="10.776347243100222"><ele>118.0</ele><time>2026-04-26T19:04:36Z</time></trkpt><trkpt lat="45.42329346110296" lon="10.776731049723582"><ele>119.5</ele><time>2026-04-26T19:04:37Z</time></trkpt><trkpt lat="45.42314249178562" lon="10.777113723248195"><ele>121.0</ele><time>2026-04-26T19:04:38Z</time></trkpt><trkpt lat="45.42299256300434" lon="10.777494513511757"><ele>123.0</ele><time>2026-04-26T19:04:39Z</time></trkpt><trkpt lat="45.42284419595751" lon="10.77787033153385"><ele>125.0</ele><time>2026-04-26T19:04:40Z</time></trkpt><trkpt lat="45.42269803796469" lon="10.778238872620667"><ele>126.0</ele><time>2026-04-26T19:04:41Z</time></trkpt><trkpt lat="45.42255775370443" lon="10.778592546636782"><ele>127.0</ele><time>2026-04-26T19:04:42Z</time></trkpt><trkpt lat="45.42242629849964" lon="10.778929063532601"><ele>127.0</ele><time>2026-04-26T19:04:43Z</time></trkpt><trkpt lat="45.4222934658607" lon="10.779270514204738"><ele>127.0</ele><time>2026-04-26T19:04:44Z</time></trkpt><trkpt lat="45.422154918110664" lon="10.779620163455965"><ele>126.0</ele><time>2026-04-26T19:04:45Z</time></trkpt><trkpt lat="45.422018556240396" lon="10.779968371593693"><ele>125.0</ele><time>2026-04-26T19:04:46Z</time></trkpt><trkpt lat="45.421885379456434" lon="10.780315202472853"><ele>125.0</ele><time>2026-04-26T19:04:47Z</time></trkpt><trkpt lat="45.42175818222689" lon="10.78067825614751"><ele>125.0</ele><time>2026-04-26T19:04:48Z</time></trkpt><trkpt lat="45.4216272560497" lon="10.781051059456907"><ele>124.5</ele><time>2026-04-26T19:04:49Z</time></trkpt><trkpt lat="45.421482947228306" lon="10.781428393915627"><ele>124.0</ele><time>2026-04-26T19:04:50Z</time></trkpt><trkpt lat="45.42133443767338" lon="10.781808608314984"><ele>123.0</ele><time>2026-04-26T19:04:51Z</time></trkpt><trkpt lat="45.42118932991269" lon="10.782201622695805"><ele>122.0</ele><time>2026-04-26T19:04:52Z</time></trkpt><trkpt lat="45.42104802726952" lon="10.782591342012987"><ele>123.5</ele><time>2026-04-26T19:04:53Z</time></trkpt><trkpt lat="45.420908284401854" lon="10.78298199640895"><ele>125.0</ele><time>2026-04-26T19:04:54Z</time></trkpt><trkpt lat="45.42076979001818" lon="10.78337683286499"><ele>124.5</ele><time>2026-04-26T19:04:55Z</time></trkpt><trkpt lat="45.42062952934196" lon="10.783771190286153"><ele>124.0</ele><time>2026-04-26T19:04:56Z</time></trkpt><trkpt lat="45.42048790737907" lon="10.784162170804853"><ele>124.0</ele><time>2026-04-26T19:04:57Z</time></trkpt><trkpt lat="45.420350933223254" lon="10.784553091812212"><ele>124.0</ele><time>2026-04-26T19:04:58Z</time></trkpt><trkpt lat="45.42022087293996" lon="10.7849479246884"><ele>124.5</ele><time>2026-04-26T19:04:59Z</time></trkpt><trkpt lat="45.42009259513031" lon="10.785343368684288"><ele>125.0</ele><time>2026-04-26T19:05:00Z</time></trkpt><trkpt lat="45.41997091111252" lon="10.785743984126015"><ele>126.0</ele><time>2026-04-26T19:05:01Z</time></trkpt><trkpt lat="45.41985263091351" lon="10.786146597099352"><ele>127.0</ele><time>2026-04-26T19:05:02Z</time></trkpt><trkpt lat="45.41973572959791" lon="10.786548072174597"><ele>125.0</ele><time>2026-04-26T19:05:03Z</time></trkpt><trkpt lat="45.41962402860566" lon="10.786949547304063"><ele>123.0</ele><time>2026-04-26T19:05:04Z</time></trkpt><trkpt lat="45.41951565909624" lon="10.787355597020937"><ele>122.0</ele><time>2026-04-26T19:05:05Z</time></trkpt><trkpt lat="45.4194060902464" lon="10.787759659108866"><ele>121.0</ele><time>2026-04-26T19:05:06Z</time></trkpt><trkpt lat="45.419300892958724" lon="10.788170587672184"><ele>122.0</ele><time>2026-04-26T19:05:07Z</time></trkpt><trkpt lat="45.41919738252141" lon="10.7885922156339"><ele>123.0</ele><time>2026-04-26T19:05:08Z</time></trkpt><trkpt lat="45.419098148364924" lon="10.789025793043155"><ele>125.5</ele><time>2026-04-26T19:05:09Z</time></trkpt><trkpt lat="45.41899839860132" lon="10.789463151865244"><ele>128.0</ele><time>2026-04-26T19:05:10Z</time></trkpt><trkpt lat="45.418899130897344" lon="10.789901308007618"><ele>127.5</ele><time>2026-04-26T19:05:11Z</time></trkpt><trkpt lat="45.41879933718217" lon="10.790341708370802"><ele>127.0</ele><time>2026-04-26T19:05:12Z</time></trkpt><trkpt lat="45.418699959070175" lon="10.790781543818417"><ele>126.5</ele><time>2026-04-26T19:05:13Z</time></trkpt><trkpt lat="45.418602514067175" lon="10.791221581159647"><ele>126.0</ele><time>2026-04-26T19:05:14Z</time></trkpt><trkpt lat="45.418504300703276" lon="10.791661964621783"><ele>125.5</ele><time>2026-04-26T19:05:15Z</time></trkpt><trkpt lat="45.41840704579661" lon="10.792098091368976"><ele>125.0</ele><time>2026-04-26T19:05:16Z</time></trkpt><trkpt lat="45.4183167543292" lon="10.792533978262382"><ele>125.0</ele><time>2026-04-26T19:05:17Z</time></trkpt><trkpt lat="45.418234238234604" lon="10.792969687619454"><ele>125.0</ele><time>2026-04-26T19:05:18Z</time></trkpt><trkpt lat="45.41815583352059" lon="10.793403564200995"><ele>123.0</ele><time>2026-04-26T19:05:19Z</time></trkpt><trkpt lat="45.41807773653605" lon="10.793833323660975"><ele>121.0</ele><time>2026-04-26T19:05:20Z</time></trkpt><trkpt lat="45.4179967641687" lon="10.794260790425836"><ele>119.5</ele><time>2026-04-26T19:05:21Z</time></trkpt><trkpt lat="45.41791726118361" lon="10.794686796291614"><ele>118.0</ele><time>2026-04-26T19:05:22Z</time></trkpt><trkpt lat="45.41784555405656" lon="10.795114327705592"><ele>118.0</ele><time>2026-04-26T19:05:23Z</time></trkpt><trkpt lat="45.41778042346983" lon="10.795543909256402"><ele>118.0</ele><time>2026-04-26T19:05:24Z</time></trkpt><trkpt lat="45.417719578885134" lon="10.795974412986757"><ele>118.0</ele><time>2026-04-26T19:05:25Z</time></trkpt><trkpt lat="45.41766271745154" lon="10.796409566423995"><ele>118.0</ele><time>2026-04-26T19:05:26Z</time></trkpt><trkpt lat="45.41760721068732" lon="10.796845091903744"><ele>118.0</ele><time>2026-04-26T19:05:27Z</time></trkpt><trkpt lat="45.4175544510228" lon="10.797280365070028"><ele>118.0</ele><time>2026-04-26T19:05:28Z</time></trkpt><trkpt lat="45.41750558225095" lon="10.797716624665915"><ele>118.5</ele><time>2026-04-26T19:05:29Z</time></trkpt><trkpt lat="45.417460405388034" lon="10.798154169818748"><ele>119.0</ele><time>2026-04-26T19:05:30Z</time></trkpt><trkpt lat="45.41741522563116" lon="10.798593530742549"><ele>118.5</ele><time>2026-04-26T19:05:31Z</time></trkpt><trkpt lat="45.417368489059456" lon="10.799033145938152"><ele>118.0</ele><time>2026-04-26T19:05:32Z</time></trkpt><trkpt lat="45.41732039354434" lon="10.799475605293349"><ele>118.0</ele><time>2026-04-26T19:05:33Z</time></trkpt><trkpt lat="45.41727343697437" lon="10.79991751455159"><ele>118.0</ele><time>2026-04-26T19:05:34Z</time></trkpt><trkpt lat="45.41722782904274" lon="10.800360999559036"><ele>116.5</ele><time>2026-04-26T19:05:35Z</time></trkpt><trkpt lat="45.41718140739906" lon="10.80080616524014"><ele>115.0</ele><time>2026-04-26T19:05:36Z</time></trkpt><trkpt lat="45.41713357391119" lon="10.801250457929855"><ele>115.0</ele><time>2026-04-26T19:05:37Z</time></trkpt><trkpt lat="45.41708406834797" lon="10.801693874210399"><ele>115.0</ele><time>2026-04-26T19:05:38Z</time></trkpt><trkpt lat="45.4170351863843" lon="10.80213476792831"><ele>115.0</ele><time>2026-04-26T19:05:39Z</time></trkpt><trkpt lat="45.41698942301576" lon="10.802573818200818"><ele>115.0</ele><time>2026-04-26T19:05:40Z</time></trkpt><trkpt lat="45.416944324617994" lon="10.80301197874271"><ele>114.5</ele><time>2026-04-26T19:05:41Z</time></trkpt><trkpt lat="45.41689841992581" lon="10.803452319590088"><ele>114.0</ele><time>2026-04-26T19:05:42Z</time></trkpt><trkpt lat="45.41685359629852" lon="10.803892094772468"><ele>113.5</ele><time>2026-04-26T19:05:43Z</time></trkpt><trkpt lat="45.416808053199695" lon="10.804331720597832"><ele>113.0</ele><time>2026-04-26T19:05:44Z</time></trkpt><trkpt lat="45.416761336392845" lon="10.804770932280091"><ele>114.0</ele><time>2026-04-26T19:05:45Z</time></trkpt><trkpt lat="45.41671394346541" lon="10.805211575528062"><ele>115.0</ele><time>2026-04-26T19:05:46.001Z</time></trkpt><trkpt lat="45.41666670737592" lon="10.805652601633659"><ele>116.0</ele><time>2026-04-26T19:05:47.001Z</time></trkpt><trkpt lat="45.41662036348183" lon="10.806093465830925"><ele>117.0</ele><time>2026-04-26T19:05:48Z</time></trkpt><trkpt lat="45.41657453169949" lon="10.806532991035379"><ele>116.0</ele><time>2026-04-26T19:05:49Z</time></trkpt><trkpt lat="45.41652638141086" lon="10.806972667166967"><ele>115.0</ele><time>2026-04-26T19:05:50Z</time></trkpt><trkpt lat="45.416478064521755" lon="10.807409097027312"><ele>115.0</ele><time>2026-04-26T19:05:51Z</time></trkpt><trkpt lat="45.41643250537859" lon="10.807844192192523"><ele>115.0</ele><time>2026-04-26T19:05:52Z</time></trkpt><trkpt lat="45.41638858297935" lon="10.808278830148005"><ele>115.5</ele><time>2026-04-26T19:05:53Z</time></trkpt><trkpt lat="45.41634463140362" lon="10.808712687018716"><ele>116.0</ele><time>2026-04-26T19:05:54Z</time></trkpt><trkpt lat="45.41630372355521" lon="10.809146323371301"><ele>120.5</ele><time>2026-04-26T19:05:55Z</time></trkpt><trkpt lat="45.41626700396078" lon="10.809579854516826"><ele>125.0</ele><time>2026-04-26T19:05:56Z</time></trkpt><trkpt lat="45.41623827898529" lon="10.810012993257631"><ele>125.5</ele><time>2026-04-26T19:05:57Z</time></trkpt><trkpt lat="45.41621488651558" lon="10.810446348738163"><ele>126.0</ele><time>2026-04-26T19:05:58Z</time></trkpt><trkpt lat="45.4161976592707" lon="10.810882190871165"><ele>124.0</ele><time>2026-04-26T19:05:59Z</time></trkpt><trkpt lat="45.416187562639976" lon="10.811319800199383"><ele>122.0</ele><time>2026-04-26T19:06:00Z</time></trkpt><trkpt lat="45.41618143783762" lon="10.811758449058543"><ele>121.0</ele><time>2026-04-26T19:06:01Z</time></trkpt><trkpt lat="45.416176344763194" lon="10.812196566276745"><ele>120.0</ele><time>2026-04-26T19:06:02Z</time></trkpt><trkpt lat="45.41617656674573" lon="10.812636313750755"><ele>120.0</ele><time>2026-04-26T19:06:03Z</time></trkpt><trkpt lat="45.41618703611433" lon="10.813073576848788"><ele>120.0</ele><time>2026-04-26T19:06:04Z</time></trkpt><trkpt lat="45.41620341481535" lon="10.813513673607947"><ele>120.0</ele><time>2026-04-26T19:06:05Z</time></trkpt><trkpt lat="45.416224185679845" lon="10.813954081625793"><ele>120.0</ele><time>2026-04-26T19:06:06Z</time></trkpt><trkpt lat="45.41625173437659" lon="10.814394543281846"><ele>120.0</ele><time>2026-04-26T19:06:07Z</time></trkpt><trkpt lat="45.4162818209879" lon="10.814835376686649"><ele>120.0</ele><time>2026-04-26T19:06:08Z</time></trkpt><trkpt lat="45.416316047583" lon="10.815276798207712"><ele>119.5</ele><time>2026-04-26T19:06:09Z</time></trkpt><trkpt lat="45.41635236358171" lon="10.815718367456727"><ele>119.0</ele><time>2026-04-26T19:06:10Z</time></trkpt><trkpt lat="45.41638831818224" lon="10.816162409782859"><ele>120.0</ele><time>2026-04-26T19:06:11Z</time></trkpt><trkpt lat="45.41642139269074" lon="10.816606210132386"><ele>121.0</ele><time>2026-04-26T19:06:12Z</time></trkpt><trkpt lat="45.41645256931692" lon="10.817046975982656"><ele>119.0</ele><time>2026-04-26T19:06:13Z</time></trkpt><trkpt lat="45.41648385907335" lon="10.817486593685032"><ele>117.0</ele><time>2026-04-26T19:06:14Z</time></trkpt><trkpt lat="45.41651563635802" lon="10.817924445997122"><ele>115.5</ele><time>2026-04-26T19:06:15Z</time></trkpt><trkpt lat="45.41654606992955" lon="10.818359758222952"><ele>114.0</ele><time>2026-04-26T19:06:16Z</time></trkpt><trkpt lat="45.41657699459157" lon="10.818794172787294"><ele>113.0</ele><time>2026-04-26T19:06:17Z</time></trkpt><trkpt lat="45.416608582237416" lon="10.819223940391277"><ele>112.0</ele><time>2026-04-26T19:06:18Z</time></trkpt><trkpt lat="45.41664201817815" lon="10.819653094965455"><ele>111.5</ele><time>2026-04-26T19:06:19Z</time></trkpt><trkpt lat="45.41667627748363" lon="10.820084972339327"><ele>111.0</ele><time>2026-04-26T19:06:20Z</time></trkpt><trkpt lat="45.416710315118394" lon="10.820518419276851"><ele>110.0</ele><time>2026-04-26T19:06:21Z</time></trkpt><trkpt lat="45.41674276744617" lon="10.820953627634355"><ele>109.0</ele><time>2026-04-26T19:06:22Z</time></trkpt><trkpt lat="45.41677599869163" lon="10.821388930167172"><ele>107.5</ele><time>2026-04-26T19:06:23Z</time></trkpt><trkpt lat="45.41680924663989" lon="10.821825488144679"><ele>106.0</ele><time>2026-04-26T19:06:24Z</time></trkpt><trkpt lat="45.41684208660084" lon="10.822261709615583"><ele>106.0</ele><time>2026-04-26T19:06:25Z</time></trkpt><trkpt lat="45.416872549644744" lon="10.822699296418016"><ele>106.0</ele><time>2026-04-26T19:06:26Z</time></trkpt><trkpt lat="45.416903359165104" lon="10.823138042849473"><ele>107.0</ele><time>2026-04-26T19:06:27Z</time></trkpt><trkpt lat="45.4169342580078" lon="10.823577301414465"><ele>108.0</ele><time>2026-04-26T19:06:28Z</time></trkpt><trkpt lat="45.41696551352775" lon="10.824016317154804"><ele>108.5</ele><time>2026-04-26T19:06:29Z</time></trkpt><trkpt lat="45.41699877177509" lon="10.824454277036997"><ele>109.0</ele><time>2026-04-26T19:06:30Z</time></trkpt><trkpt lat="45.41703093292172" lon="10.824890917081808"><ele>107.5</ele><time>2026-04-26T19:06:31Z</time></trkpt><trkpt lat="45.41706395271241" lon="10.825325978195261"><ele>106.0</ele><time>2026-04-26T19:06:32Z</time></trkpt><trkpt lat="45.417097407998384" lon="10.825751555406418"><ele>106.5</ele><time>2026-04-26T19:06:33Z</time></trkpt><trkpt lat="45.41712973927135" lon="10.826173418151923"><ele>107.0</ele><time>2026-04-26T19:06:34Z</time></trkpt><trkpt lat="45.41716227488844" lon="10.826595214093345"><ele>107.0</ele><time>2026-04-26T19:06:35Z</time></trkpt><trkpt lat="45.417195880419584" lon="10.827019094784571"><ele>107.0</ele><time>2026-04-26T19:06:36Z</time></trkpt><trkpt lat="45.41722688875764" lon="10.827438317879324"><ele>106.0</ele><time>2026-04-26T19:06:37Z</time></trkpt><trkpt lat="45.41725662180843" lon="10.827842276273364"><ele>105.0</ele><time>2026-04-26T19:06:38Z</time></trkpt><trkpt lat="45.41728410156987" lon="10.828231376389295"><ele>104.5</ele><time>2026-04-26T19:06:39Z</time></trkpt><trkpt lat="45.41731248591014" lon="10.828635712293048"><ele>104.0</ele><time>2026-04-26T19:06:40Z</time></trkpt><trkpt lat="45.41734180367047" lon="10.829062679921217"><ele>104.0</ele><time>2026-04-26T19:06:41Z</time></trkpt><trkpt lat="45.41733654510957" lon="10.829514015243676"><ele>104.0</ele><time>2026-04-26T19:06:42Z</time></trkpt><trkpt lat="45.41740504944779" lon="10.829940022779754"><ele>104.5</ele><time>2026-04-26T19:06:43Z</time></trkpt><trkpt lat="45.41743757012915" lon="10.830384324920113"><ele>105.0</ele><time>2026-04-26T19:06:44Z</time></trkpt><trkpt lat="45.41747022824305" lon="10.830825969764073"><ele>105.0</ele><time>2026-04-26T19:06:45Z</time></trkpt><trkpt lat="45.41750323281301" lon="10.831264392401103"><ele>105.0</ele><time>2026-04-26T19:06:46Z</time></trkpt><trkpt lat="45.41753946907913" lon="10.831702713324631"><ele>106.5</ele><time>2026-04-26T19:06:47Z</time></trkpt><trkpt lat="45.4175787791006" lon="10.832138825028329"><ele>108.0</ele><time>2026-04-26T19:06:48Z</time></trkpt><trkpt lat="45.41761830519963" lon="10.832573573960843"><ele>109.5</ele><time>2026-04-26T19:06:49Z</time></trkpt><trkpt lat="45.41765747629204" lon="10.833004964744397"><ele>111.0</ele><time>2026-04-26T19:06:50Z</time></trkpt><trkpt lat="45.417689778481375" lon="10.833430275508517"><ele>111.0</ele><time>2026-04-26T19:06:51Z</time></trkpt><trkpt lat="45.41772211065633" lon="10.833846492894498"><ele>111.0</ele><time>2026-04-26T19:06:52Z</time></trkpt><trkpt lat="45.41775298740918" lon="10.834259570016078"><ele>112.0</ele><time>2026-04-26T19:06:53Z</time></trkpt><trkpt lat="45.41778627624422" lon="10.834675361650865"><ele>113.0</ele><time>2026-04-26T19:06:54Z</time></trkpt><trkpt lat="45.41781545319822" lon="10.835087572460022"><ele>113.0</ele><time>2026-04-26T19:06:55Z</time></trkpt><trkpt lat="45.41784293663389" lon="10.835502371812076"><ele>113.0</ele><time>2026-04-26T19:06:56Z</time></trkpt><trkpt lat="45.41787355156392" lon="10.835922759577958"><ele>114.0</ele><time>2026-04-26T19:06:57Z</time></trkpt><trkpt lat="45.41789989505486" lon="10.836355555979917"><ele>115.0</ele><time>2026-04-26T19:06:58Z</time></trkpt><trkpt lat="45.41791932441815" lon="10.836798636530252"><ele>115.0</ele><time>2026-04-26T19:06:59Z</time></trkpt><trkpt lat="45.41793071351361" lon="10.837249564999139"><ele>115.0</ele><time>2026-04-26T19:07:00Z</time></trkpt><trkpt lat="45.41793755333964" lon="10.837705994193733"><ele>114.5</ele><time>2026-04-26T19:07:01Z</time></trkpt><trkpt lat="45.41794118431853" lon="10.838166929954756"><ele>114.0</ele><time>2026-04-26T19:07:02Z</time></trkpt><trkpt lat="45.417940198328836" lon="10.83863032481055"><ele>114.5</ele><time>2026-04-26T19:07:03Z</time></trkpt><trkpt lat="45.41793487381175" lon="10.839094000129851"><ele>115.0</ele><time>2026-04-26T19:07:04Z</time></trkpt><trkpt lat="45.417921967927775" lon="10.839558173369381"><ele>115.0</ele><time>2026-04-26T19:07:05Z</time></trkpt><trkpt lat="45.41790450375603" lon="10.840023223306982"><ele>115.0</ele><time>2026-04-26T19:07:06Z</time></trkpt><trkpt lat="45.41788153781222" lon="10.840492508481864"><ele>115.5</ele><time>2026-04-26T19:07:07Z</time></trkpt><trkpt lat="45.41785819899863" lon="10.84095684391103"><ele>116.0</ele><time>2026-04-26T19:07:08Z</time></trkpt><trkpt lat="45.41783059881119" lon="10.841418495350876"><ele>115.5</ele><time>2026-04-26T19:07:09Z</time></trkpt><trkpt lat="45.4177992349135" lon="10.841872972086657"><ele>115.0</ele><time>2026-04-26T19:07:10Z</time></trkpt><trkpt lat="45.41776523740214" lon="10.84232337080368"><ele>113.0</ele><time>2026-04-26T19:07:11Z</time></trkpt><trkpt lat="45.41772791753294" lon="10.842780218972008"><ele>111.0</ele><time>2026-04-26T19:07:12Z</time></trkpt><trkpt lat="45.41768908458904" lon="10.84323902087592"><ele>109.0</ele><time>2026-04-26T19:07:13Z</time></trkpt><trkpt lat="45.417647374739985" lon="10.843701767296453"><ele>107.0</ele><time>2026-04-26T19:07:14Z</time></trkpt><trkpt lat="45.417599575327785" lon="10.844165189229958"><ele>107.5</ele><time>2026-04-26T19:07:15Z</time></trkpt><trkpt lat="45.41754563026768" lon="10.844629511696297"><ele>108.0</ele><time>2026-04-26T19:07:16Z</time></trkpt><trkpt lat="45.417488362028074" lon="10.84509504540984"><ele>106.0</ele><time>2026-04-26T19:07:17Z</time></trkpt><trkpt lat="45.41742900997335" lon="10.845555114254761"><ele>104.0</ele><time>2026-04-26T19:07:18Z</time></trkpt><trkpt lat="45.41737044959845" lon="10.84599733459308"><ele>103.0</ele><time>2026-04-26T19:07:19Z</time></trkpt><trkpt lat="45.417310976635484" lon="10.846451305407806"><ele>102.0</ele><time>2026-04-26T19:07:20Z</time></trkpt><trkpt lat="45.4172499047228" lon="10.846908812286326"><ele>101.5</ele><time>2026-04-26T19:07:21Z</time></trkpt><trkpt lat="45.417184117165725" lon="10.84736728528632"><ele>101.0</ele><time>2026-04-26T19:07:22Z</time></trkpt><trkpt lat="45.417111556171065" lon="10.847826169052201"><ele>99.0</ele><time>2026-04-26T19:07:23Z</time></trkpt><trkpt lat="45.4170263973359" lon="10.848281946293515"><ele>97.0</ele><time>2026-04-26T19:07:24Z</time></trkpt><trkpt lat="45.416937947716214" lon="10.848738934888495"><ele>96.5</ele><time>2026-04-26T19:07:25Z</time></trkpt><trkpt lat="45.416847330135894" lon="10.849197270444558"><ele>96.0</ele><time>2026-04-26T19:07:26Z</time></trkpt><trkpt lat="45.41675450121266" lon="10.8496573163733"><ele>95.5</ele><time>2026-04-26T19:07:27Z</time></trkpt><trkpt lat="45.41666012533968" lon="10.850116654997755"><ele>95.0</ele><time>2026-04-26T19:07:28Z</time></trkpt><trkpt lat="45.4165699526895" lon="10.850578777501937"><ele>93.5</ele><time>2026-04-26T19:07:29Z</time></trkpt><trkpt lat="45.41647945784507" lon="10.85104037865419"><ele>92.0</ele><time>2026-04-26T19:07:30Z</time></trkpt><trkpt lat="45.41639254361661" lon="10.851502211662995"><ele>91.5</ele><time>2026-04-26T19:07:31Z</time></trkpt><trkpt lat="45.41631110170225" lon="10.85195575918945"><ele>91.0</ele><time>2026-04-26T19:07:32Z</time></trkpt><trkpt lat="45.41623720571679" lon="10.852409168982536"><ele>90.5</ele><time>2026-04-26T19:07:33Z</time></trkpt><trkpt lat="45.41615932404418" lon="10.852863844411544"><ele>90.0</ele><time>2026-04-26T19:07:34Z</time></trkpt><trkpt lat="45.41608085149268" lon="10.853310922477409"><ele>89.5</ele><time>2026-04-26T19:07:35Z</time></trkpt><trkpt lat="45.416005619687716" lon="10.853748794966014"><ele>89.0</ele><time>2026-04-26T19:07:36Z</time></trkpt><trkpt lat="45.41593098241296" lon="10.854178034676027"><ele>89.0</ele><time>2026-04-26T19:07:37Z</time></trkpt><trkpt lat="45.41585547236433" lon="10.85461439975895"><ele>89.0</ele><time>2026-04-26T19:07:38Z</time></trkpt><trkpt lat="45.415779995973026" lon="10.855050176372846"><ele>89.5</ele><time>2026-04-26T19:07:39Z</time></trkpt><trkpt lat="45.415705927505606" lon="10.85548622982394"><ele>90.0</ele><time>2026-04-26T19:07:40Z</time></trkpt><trkpt lat="45.41563011336113" lon="10.855920024336788"><ele>89.0</ele><time>2026-04-26T19:07:41Z</time></trkpt><trkpt lat="45.415554772601716" lon="10.85635196803706"><ele>88.0</ele><time>2026-04-26T19:07:42Z</time></trkpt><trkpt lat="45.41548001974153" lon="10.856780913368196"><ele>88.0</ele><time>2026-04-26T19:07:43Z</time></trkpt><trkpt lat="45.41540716407195" lon="10.857208488548618"><ele>88.0</ele><time>2026-04-26T19:07:44Z</time></trkpt><trkpt lat="45.415339155725" lon="10.85763735258723"><ele>87.5</ele><time>2026-04-26T19:07:45Z</time></trkpt><trkpt lat="45.41527454500517" lon="10.858069140823877"><ele>87.0</ele><time>2026-04-26T19:07:46Z</time></trkpt><trkpt lat="45.41521225959491" lon="10.858503260947781"><ele>86.5</ele><time>2026-04-26T19:07:47Z</time></trkpt><trkpt lat="45.41515556106855" lon="10.858938142391494"><ele>86.0</ele><time>2026-04-26T19:07:48Z</time></trkpt><trkpt lat="45.41510578162205" lon="10.859371314371883"><ele>86.0</ele><time>2026-04-26T19:07:49Z</time></trkpt><trkpt lat="45.41505962899613" lon="10.859806543192823"><ele>86.0</ele><time>2026-04-26T19:07:50Z</time></trkpt><trkpt lat="45.41501598398784" lon="10.860241719937935"><ele>85.0</ele><time>2026-04-26T19:07:51Z</time></trkpt><trkpt lat="45.41497493022678" lon="10.860679023363566"><ele>84.0</ele><time>2026-04-26T19:07:52Z</time></trkpt><trkpt lat="45.41493747115822" lon="10.861119115832885"><ele>83.5</ele><time>2026-04-26T19:07:53Z</time></trkpt><trkpt lat="45.41490437707425" lon="10.861559711264203"><ele>83.0</ele><time>2026-04-26T19:07:54Z</time></trkpt><trkpt lat="45.41487592894638" lon="10.862001656689651"><ele>83.0</ele><time>2026-04-26T19:07:55Z</time></trkpt><trkpt lat="45.41484950126217" lon="10.8624449100881"><ele>83.0</ele><time>2026-04-26T19:07:56Z</time></trkpt><trkpt lat="45.4148255221522" lon="10.862888952929204"><ele>83.0</ele><time>2026-04-26T19:07:57Z</time></trkpt><trkpt lat="45.4148019369687" lon="10.863332405850636"><ele>83.0</ele><time>2026-04-26T19:07:58Z</time></trkpt><trkpt lat="45.41477802636356" lon="10.863774026989448"><ele>82.5</ele><time>2026-04-26T19:07:59Z</time></trkpt><trkpt lat="45.41475359217485" lon="10.864215034992604"><ele>82.0</ele><time>2026-04-26T19:08:00Z</time></trkpt><trkpt lat="45.41472808463414" lon="10.86465441806276"><ele>82.0</ele><time>2026-04-26T19:08:01Z</time></trkpt><trkpt lat="45.41470203561843" lon="10.8650913249067"><ele>82.0</ele><time>2026-04-26T19:08:02Z</time></trkpt><trkpt lat="45.4146767964371" lon="10.865527460598544"><ele>82.0</ele><time>2026-04-26T19:08:03Z</time></trkpt><trkpt lat="45.414652881215744" lon="10.86596321463822"><ele>82.0</ele><time>2026-04-26T19:08:04Z</time></trkpt><trkpt lat="45.414628466314234" lon="10.866397513272481"><ele>81.0</ele><time>2026-04-26T19:08:05Z</time></trkpt><trkpt lat="45.414605009228374" lon="10.866830456157507"><ele>80.0</ele><time>2026-04-26T19:08:06Z</time></trkpt><trkpt lat="45.41458222136065" lon="10.867261347391583"><ele>80.5</ele><time>2026-04-26T19:08:07Z</time></trkpt><trkpt lat="45.41455911941767" lon="10.867689950460575"><ele>81.0</ele><time>2026-04-26T19:08:08Z</time></trkpt><trkpt lat="45.41453412854534" lon="10.86811698402452"><ele>81.5</ele><time>2026-04-26T19:08:09Z</time></trkpt><trkpt lat="45.4145085394643" lon="10.868541108941175"><ele>82.0</ele><time>2026-04-26T19:08:10Z</time></trkpt><trkpt lat="45.41448712137729" lon="10.868964990291449"><ele>82.5</ele><time>2026-04-26T19:08:11Z</time></trkpt><trkpt lat="45.414460814480115" lon="10.869388544787114"><ele>83.0</ele><time>2026-04-26T19:08:12Z</time></trkpt><trkpt lat="45.41443400763301" lon="10.869810616338011"><ele>83.0</ele><time>2026-04-26T19:08:13Z</time></trkpt><trkpt lat="45.41440773165503" lon="10.870230618787476"><ele>83.0</ele><time>2026-04-26T19:08:14Z</time></trkpt><trkpt lat="45.41438286599826" lon="10.87064930520272"><ele>82.5</ele><time>2026-04-26T19:08:15Z</time></trkpt><trkpt lat="45.414359294814126" lon="10.871069379467162"><ele>82.0</ele><time>2026-04-26T19:08:16Z</time></trkpt><trkpt lat="45.41433510148435" lon="10.871491725030282"><ele>81.0</ele><time>2026-04-26T19:08:17Z</time></trkpt><trkpt lat="45.414309559458054" lon="10.871917412849994"><ele>80.0</ele><time>2026-04-26T19:08:18Z</time></trkpt><trkpt lat="45.41429029728098" lon="10.87234429319734"><ele>80.5</ele><time>2026-04-26T19:08:19Z</time></trkpt><trkpt lat="45.41427465807895" lon="10.872772481347033"><ele>81.0</ele><time>2026-04-26T19:08:20Z</time></trkpt><trkpt lat="45.41425793658925" lon="10.873202340976967"><ele>80.5</ele><time>2026-04-26T19:08:21Z</time></trkpt><trkpt lat="45.41423860910884" lon="10.873633740672014"><ele>80.0</ele><time>2026-04-26T19:08:22Z</time></trkpt><trkpt lat="45.41421565768765" lon="10.874065827857835"><ele>81.0</ele><time>2026-04-26T19:08:23Z</time></trkpt><trkpt lat="45.41418857274155" lon="10.874496719393802"><ele>82.0</ele><time>2026-04-26T19:08:24Z</time></trkpt><trkpt lat="45.41416159659667" lon="10.874929216984814"><ele>83.0</ele><time>2026-04-26T19:08:25Z</time></trkpt><trkpt lat="45.41413544237829" lon="10.875364641754185"><ele>84.0</ele><time>2026-04-26T19:08:26Z</time></trkpt><trkpt lat="45.414108868632034" lon="10.875803443055975"><ele>82.5</ele><time>2026-04-26T19:08:27Z</time></trkpt><trkpt lat="45.41407688812013" lon="10.876244299840696"><ele>81.0</ele><time>2026-04-26T19:08:28Z</time></trkpt><trkpt lat="45.41403980275554" lon="10.876685950092053"><ele>81.0</ele><time>2026-04-26T19:08:29Z</time></trkpt><trkpt lat="45.41400169113596" lon="10.877129629159592"><ele>81.0</ele><time>2026-04-26T19:08:30Z</time></trkpt><trkpt lat="45.41396690122956" lon="10.877571309857734"><ele>81.0</ele><time>2026-04-26T19:08:31Z</time></trkpt><trkpt lat="45.41393808942174" lon="10.878013409535074"><ele>81.0</ele><time>2026-04-26T19:08:32Z</time></trkpt><trkpt lat="45.41391580523765" lon="10.87845733492326"><ele>81.5</ele><time>2026-04-26T19:08:33Z</time></trkpt><trkpt lat="45.41389351552043" lon="10.878903681490618"><ele>82.0</ele><time>2026-04-26T19:08:34Z</time></trkpt><trkpt lat="45.413869262938505" lon="10.879350658136435"><ele>81.0</ele><time>2026-04-26T19:08:35Z</time></trkpt><trkpt lat="45.41384402915325" lon="10.879798743296838"><ele>80.0</ele><time>2026-04-26T19:08:36Z</time></trkpt><trkpt lat="45.41381742398443" lon="10.880246518945972"><ele>80.0</ele><time>2026-04-26T19:08:37Z</time></trkpt><trkpt lat="45.41379020814065" lon="10.8806929140318"><ele>80.0</ele><time>2026-04-26T19:08:38Z</time></trkpt><trkpt lat="45.413763853416015" lon="10.881138752264082"><ele>80.0</ele><time>2026-04-26T19:08:39Z</time></trkpt><trkpt lat="45.41373893611352" lon="10.881582583579846"><ele>80.0</ele><time>2026-04-26T19:08:40Z</time></trkpt><trkpt lat="45.41371317356597" lon="10.882024253218484"><ele>80.0</ele><time>2026-04-26T19:08:41Z</time></trkpt><trkpt lat="45.41368793039558" lon="10.882466930400085"><ele>80.0</ele><time>2026-04-26T19:08:42Z</time></trkpt><trkpt lat="45.413663526788596" lon="10.882909270339704"><ele>80.0</ele><time>2026-04-26T19:08:43Z</time></trkpt><trkpt lat="45.41363956022076" lon="10.883350854760055"><ele>80.0</ele><time>2026-04-26T19:08:44Z</time></trkpt><trkpt lat="45.41361494998306" lon="10.883792545328005"><ele>80.5</ele><time>2026-04-26T19:08:45Z</time></trkpt><trkpt lat="45.413588528959096" lon="10.884232298643644"><ele>81.0</ele><time>2026-04-26T19:08:46Z</time></trkpt><trkpt lat="45.413561799576016" lon="10.884671033827"><ele>80.5</ele><time>2026-04-26T19:08:47Z</time></trkpt><trkpt lat="45.41353582950963" lon="10.885111690475615"><ele>80.0</ele><time>2026-04-26T19:08:48Z</time></trkpt><trkpt lat="45.4135121634061" lon="10.885556078764845"><ele>79.5</ele><time>2026-04-26T19:08:49Z</time></trkpt><trkpt lat="45.413486704394835" lon="10.88599948698519"><ele>79.0</ele><time>2026-04-26T19:08:50Z</time></trkpt><trkpt lat="45.4134629358485" lon="10.886444247819947"><ele>79.5</ele><time>2026-04-26T19:08:51Z</time></trkpt><trkpt lat="45.413437963298016" lon="10.886889223260283"><ele>80.0</ele><time>2026-04-26T19:08:52Z</time></trkpt><trkpt lat="45.41341231583174" lon="10.887334538054958"><ele>80.0</ele><time>2026-04-26T19:08:53Z</time></trkpt><trkpt lat="45.41338744070526" lon="10.88777521156624"><ele>80.0</ele><time>2026-04-26T19:08:54Z</time></trkpt><trkpt lat="45.41336642097906" lon="10.888211426576696"><ele>79.5</ele><time>2026-04-26T19:08:55Z</time></trkpt><trkpt lat="45.413351571331894" lon="10.88865253921804"><ele>79.0</ele><time>2026-04-26T19:08:56Z</time></trkpt><trkpt lat="45.41333810705504" lon="10.889100894331632"><ele>79.0</ele><time>2026-04-26T19:08:57Z</time></trkpt><trkpt lat="45.41332238069203" lon="10.889552875360891"><ele>79.0</ele><time>2026-04-26T19:08:58Z</time></trkpt><trkpt lat="45.413300045645826" lon="10.890006093479974"><ele>78.0</ele><time>2026-04-26T19:08:59Z</time></trkpt><trkpt lat="45.4132719180628" lon="10.89046199753938"><ele>77.0</ele><time>2026-04-26T19:09:00Z</time></trkpt><trkpt lat="45.41323340205578" lon="10.89091793150801"><ele>77.5</ele><time>2026-04-26T19:09:01Z</time></trkpt><trkpt lat="45.41318806899404" lon="10.89137478841948"><ele>78.0</ele><time>2026-04-26T19:09:02Z</time></trkpt><trkpt lat="45.41313985545734" lon="10.891833262320002"><ele>78.0</ele><time>2026-04-26T19:09:03Z</time></trkpt><trkpt lat="45.413087250582116" lon="10.89229200298807"><ele>78.0</ele><time>2026-04-26T19:09:04Z</time></trkpt><trkpt lat="45.41303041740916" lon="10.89274955052884"><ele>77.5</ele><time>2026-04-26T19:09:05Z</time></trkpt><trkpt lat="45.412972823546255" lon="10.893204891277106"><ele>77.0</ele><time>2026-04-26T19:09:06Z</time></trkpt><trkpt lat="45.41291249756626" lon="10.893657890413236"><ele>77.0</ele><time>2026-04-26T19:09:07Z</time></trkpt><trkpt lat="45.412846620494925" lon="10.894109174969119"><ele>77.0</ele><time>2026-04-26T19:09:08Z</time></trkpt><trkpt lat="45.41277575556899" lon="10.894557141673165"><ele>77.0</ele><time>2026-04-26T19:09:09Z</time></trkpt><trkpt lat="45.41270071761621" lon="10.895003340317563"><ele>77.0</ele><time>2026-04-26T19:09:10Z</time></trkpt><trkpt lat="45.412623523581466" lon="10.895448186988823"><ele>77.0</ele><time>2026-04-26T19:09:11Z</time></trkpt><trkpt lat="45.412541324787114" lon="10.895891452809723"><ele>77.0</ele><time>2026-04-26T19:09:12Z</time></trkpt><trkpt lat="45.412453849302004" lon="10.896333906509865"><ele>77.0</ele><time>2026-04-26T19:09:13Z</time></trkpt><trkpt lat="45.41236655396484" lon="10.896775633876139"><ele>77.0</ele><time>2026-04-26T19:09:14Z</time></trkpt><trkpt lat="45.41227108020068" lon="10.897211646301171"><ele>77.5</ele><time>2026-04-26T19:09:15Z</time></trkpt><trkpt lat="45.4121667839149" lon="10.897644594201317"><ele>78.0</ele><time>2026-04-26T19:09:16Z</time></trkpt><trkpt lat="45.41205533334938" lon="10.898075161711715"><ele>77.0</ele><time>2026-04-26T19:09:17Z</time></trkpt><trkpt lat="45.41194350220441" lon="10.89850576919539"><ele>76.0</ele><time>2026-04-26T19:09:18Z</time></trkpt><trkpt lat="45.41183307806263" lon="10.898937160838358"><ele>75.5</ele><time>2026-04-26T19:09:19Z</time></trkpt><trkpt lat="45.41172385974732" lon="10.8993699668844"><ele>75.0</ele><time>2026-04-26T19:09:20Z</time></trkpt><trkpt lat="45.41161127798288" lon="10.899801220904926"><ele>76.0</ele><time>2026-04-26T19:09:21Z</time></trkpt><trkpt lat="45.41149379996171" lon="10.90022875762935"><ele>77.0</ele><time>2026-04-26T19:09:22Z</time></trkpt><trkpt lat="45.4113751450646" lon="10.900656533944744"><ele>76.0</ele><time>2026-04-26T19:09:23Z</time></trkpt><trkpt lat="45.41125541008799" lon="10.901080632577614"><ele>75.0</ele><time>2026-04-26T19:09:24Z</time></trkpt><trkpt lat="45.41114008475859" lon="10.901499184430598"><ele>75.5</ele><time>2026-04-26T19:09:25Z</time></trkpt><trkpt lat="45.41102626245088" lon="10.90191465633554"><ele>76.0</ele><time>2026-04-26T19:09:26Z</time></trkpt><trkpt lat="45.41091345509194" lon="10.902332284514594"><ele>75.5</ele><time>2026-04-26T19:09:27Z</time></trkpt><trkpt lat="45.410800598198676" lon="10.902749944543725"><ele>75.0</ele><time>2026-04-26T19:09:28Z</time></trkpt><trkpt lat="45.41068772399922" lon="10.903168493346733"><ele>74.5</ele><time>2026-04-26T19:09:29Z</time></trkpt><trkpt lat="45.41057359589756" lon="10.903586143190203"><ele>74.0</ele><time>2026-04-26T19:09:30Z</time></trkpt><trkpt lat="45.41045898719577" lon="10.904003147391192"><ele>73.5</ele><time>2026-04-26T19:09:31Z</time></trkpt><trkpt lat="45.410344595372116" lon="10.904420824051615"><ele>73.0</ele><time>2026-04-26T19:09:32Z</time></trkpt><trkpt lat="45.41023132541543" lon="10.90484014927732"><ele>73.5</ele><time>2026-04-26T19:09:33Z</time></trkpt><trkpt lat="45.41011833869919" lon="10.905257666697619"><ele>74.0</ele><time>2026-04-26T19:09:34Z</time></trkpt><trkpt lat="45.410004982823544" lon="10.905673926429648"><ele>73.0</ele><time>2026-04-26T19:09:35Z</time></trkpt><trkpt lat="45.40989131146063" lon="10.906088916451694"><ele>72.0</ele><time>2026-04-26T19:09:36Z</time></trkpt><trkpt lat="45.40977777245166" lon="10.906503364256972"><ele>72.0</ele><time>2026-04-26T19:09:37Z</time></trkpt><trkpt lat="45.40966311364053" lon="10.906915089361926"><ele>72.0</ele><time>2026-04-26T19:09:38Z</time></trkpt><trkpt lat="45.40954298705252" lon="10.90732205473749"><ele>73.0</ele><time>2026-04-26T19:09:39Z</time></trkpt><trkpt lat="45.40942094654813" lon="10.907726912295688"><ele>74.0</ele><time>2026-04-26T19:09:40Z</time></trkpt><trkpt lat="45.40930122374651" lon="10.908134243954809"><ele>73.0</ele><time>2026-04-26T19:09:41Z</time></trkpt><trkpt lat="45.40918506259846" lon="10.908543671285782"><ele>72.0</ele><time>2026-04-26T19:09:42Z</time></trkpt><trkpt lat="45.40907335760924" lon="10.908954311631717"><ele>73.0</ele><time>2026-04-26T19:09:43Z</time></trkpt><trkpt lat="45.408961970823874" lon="10.90936424336349"><ele>74.0</ele><time>2026-04-26T19:09:44Z</time></trkpt><trkpt lat="45.40885085701095" lon="10.909771373950507"><ele>72.5</ele><time>2026-04-26T19:09:45Z</time></trkpt><trkpt lat="45.4087408938146" lon="10.910175199262827"><ele>71.0</ele><time>2026-04-26T19:09:46Z</time></trkpt><trkpt lat="45.40863119919971" lon="10.910576760180573"><ele>70.5</ele><time>2026-04-26T19:09:47Z</time></trkpt><trkpt lat="45.40852234540888" lon="10.910979522800973"><ele>70.0</ele><time>2026-04-26T19:09:48Z</time></trkpt><trkpt lat="45.40841336115105" lon="10.911382959190513"><ele>69.5</ele><time>2026-04-26T19:09:49Z</time></trkpt><trkpt lat="45.408302857119644" lon="10.911786271365328"><ele>69.0</ele><time>2026-04-26T19:09:50Z</time></trkpt><trkpt lat="45.40819235439819" lon="10.912190806822997"><ele>69.5</ele><time>2026-04-26T19:09:51Z</time></trkpt><trkpt lat="45.40808215514064" lon="10.912595119738072"><ele>70.0</ele><time>2026-04-26T19:09:52Z</time></trkpt><trkpt lat="45.40797230308575" lon="10.913000203225742"><ele>71.0</ele><time>2026-04-26T19:09:53Z</time></trkpt><trkpt lat="45.40786052087943" lon="10.913403654458014"><ele>72.0</ele><time>2026-04-26T19:09:54Z</time></trkpt><trkpt lat="45.407747042516355" lon="10.913809494502416"><ele>72.0</ele><time>2026-04-26T19:09:55Z</time></trkpt><trkpt lat="45.40763333925638" lon="10.914214912134701"><ele>72.0</ele><time>2026-04-26T19:09:56Z</time></trkpt><trkpt lat="45.40752714441465" lon="10.91462348137704"><ele>71.5</ele><time>2026-04-26T19:09:57Z</time></trkpt><trkpt lat="45.4074174022688" lon="10.915034484086409"><ele>71.0</ele><time>2026-04-26T19:09:58Z</time></trkpt><trkpt lat="45.40730501475466" lon="10.915445755871128"><ele>71.0</ele><time>2026-04-26T19:09:59Z</time></trkpt><trkpt lat="45.40719113376694" lon="10.915854763153327"><ele>71.0</ele><time>2026-04-26T19:10:00Z</time></trkpt><trkpt lat="45.40707708280886" lon="10.916261535246091"><ele>70.0</ele><time>2026-04-26T19:10:01Z</time></trkpt><trkpt lat="45.40696423230883" lon="10.916666507688886"><ele>69.0</ele><time>2026-04-26T19:10:02Z</time></trkpt><trkpt lat="45.40685345159854" lon="10.917074155768828"><ele>69.0</ele><time>2026-04-26T19:10:03Z</time></trkpt><trkpt lat="45.406745092374514" lon="10.917486236384184"><ele>69.0</ele><time>2026-04-26T19:10:04Z</time></trkpt><trkpt lat="45.406635222070555" lon="10.917900494210922"><ele>69.0</ele><time>2026-04-26T19:10:05Z</time></trkpt><trkpt lat="45.406526656647365" lon="10.918313546281436"><ele>69.0</ele><time>2026-04-26T19:10:06Z</time></trkpt><trkpt lat="45.40642263302788" lon="10.918727858356837"><ele>68.0</ele><time>2026-04-26T19:10:07Z</time></trkpt><trkpt lat="45.406319878035646" lon="10.919144174642694"><ele>67.0</ele><time>2026-04-26T19:10:08Z</time></trkpt><trkpt lat="45.40621356298278" lon="10.91955845258872"><ele>67.0</ele><time>2026-04-26T19:10:09Z</time></trkpt><trkpt lat="45.40610345789794" lon="10.919969874896063"><ele>67.0</ele><time>2026-04-26T19:10:10Z</time></trkpt><trkpt lat="45.40599199566242" lon="10.920379624970604"><ele>66.5</ele><time>2026-04-26T19:10:11Z</time></trkpt><trkpt lat="45.40588126255933" lon="10.920793258017932"><ele>66.0</ele><time>2026-04-26T19:10:12Z</time></trkpt><trkpt lat="45.40576985102108" lon="10.921208942689077"><ele>66.0</ele><time>2026-04-26T19:10:13Z</time></trkpt><trkpt lat="45.40565794822302" lon="10.921626552499959"><ele>66.0</ele><time>2026-04-26T19:10:14Z</time></trkpt><trkpt lat="45.405551175480234" lon="10.922048114805694"><ele>66.5</ele><time>2026-04-26T19:10:15Z</time></trkpt><trkpt lat="45.405444518481204" lon="10.922474805391102"><ele>67.0</ele><time>2026-04-26T19:10:16Z</time></trkpt><trkpt lat="45.40533284228616" lon="10.922903817133687"><ele>66.0</ele><time>2026-04-26T19:10:17Z</time></trkpt><trkpt lat="45.40521505763844" lon="10.923332491504512"><ele>65.0</ele><time>2026-04-26T19:10:18Z</time></trkpt><trkpt lat="45.4050961003258" lon="10.923757126848097"><ele>64.5</ele><time>2026-04-26T19:10:19Z</time></trkpt><trkpt lat="45.404969689731466" lon="10.92417606582396"><ele>64.0</ele><time>2026-04-26T19:10:20Z</time></trkpt><trkpt lat="45.40483981270344" lon="10.924595054650545"><ele>64.0</ele><time>2026-04-26T19:10:21Z</time></trkpt><trkpt lat="45.40471355135555" lon="10.925019013186896"><ele>64.0</ele><time>2026-04-26T19:10:22Z</time></trkpt><trkpt lat="45.40459371322959" lon="10.925448101277128"><ele>65.5</ele><time>2026-04-26T19:10:23Z</time></trkpt><trkpt lat="45.40447789790902" lon="10.925876212947932"><ele>67.0</ele><time>2026-04-26T19:10:24Z</time></trkpt><trkpt lat="45.404364793241534" lon="10.926299740433402"><ele>66.5</ele><time>2026-04-26T19:10:25Z</time></trkpt><trkpt lat="45.40426024430523" lon="10.926732481377112"><ele>66.0</ele><time>2026-04-26T19:10:26Z</time></trkpt><trkpt lat="45.40416349332504" lon="10.92715908242788"><ele>66.0</ele><time>2026-04-26T19:10:27Z</time></trkpt><trkpt lat="45.404075234106166" lon="10.927586160532396"><ele>66.0</ele><time>2026-04-26T19:10:28Z</time></trkpt><trkpt lat="45.40399185587031" lon="10.928014604233482"><ele>66.0</ele><time>2026-04-26T19:10:29Z</time></trkpt><trkpt lat="45.40390989892484" lon="10.928441480904757"><ele>66.0</ele><time>2026-04-26T19:10:30Z</time></trkpt><trkpt lat="45.403825868995774" lon="10.928868664626897"><ele>67.5</ele><time>2026-04-26T19:10:31Z</time></trkpt><trkpt lat="45.40373414700767" lon="10.929291792125333"><ele>69.0</ele><time>2026-04-26T19:10:32Z</time></trkpt><trkpt lat="45.403638240846796" lon="10.929711931302565"><ele>69.0</ele><time>2026-04-26T19:10:33Z</time></trkpt><trkpt lat="45.403542281436614" lon="10.930131227463939"><ele>69.0</ele><time>2026-04-26T19:10:34Z</time></trkpt><trkpt lat="45.40345129943744" lon="10.930551278850427"><ele>68.5</ele><time>2026-04-26T19:10:35Z</time></trkpt><trkpt lat="45.403367006617" lon="10.930975759974428"><ele>68.0</ele><time>2026-04-26T19:10:36Z</time></trkpt><trkpt lat="45.403284973803345" lon="10.931404798214524"><ele>66.5</ele><time>2026-04-26T19:10:37Z</time></trkpt><trkpt lat="45.403201346056804" lon="10.931837019598886"><ele>65.0</ele><time>2026-04-26T19:10:38Z</time></trkpt><trkpt lat="45.40311438030379" lon="10.932269603258256"><ele>64.5</ele><time>2026-04-26T19:10:39Z</time></trkpt><trkpt lat="45.40302662321531" lon="10.932699340695862"><ele>64.0</ele><time>2026-04-26T19:10:40Z</time></trkpt><trkpt lat="45.402940761981526" lon="10.933128538850749"><ele>64.0</ele><time>2026-04-26T19:10:41Z</time></trkpt><trkpt lat="45.40285441176627" lon="10.933555896381035"><ele>64.0</ele><time>2026-04-26T19:10:42Z</time></trkpt><trkpt lat="45.402769099514565" lon="10.93398247598853"><ele>64.0</ele><time>2026-04-26T19:10:43Z</time></trkpt><trkpt lat="45.40268221716354" lon="10.93440996838077"><ele>64.0</ele><time>2026-04-26T19:10:44Z</time></trkpt><trkpt lat="45.40259447651642" lon="10.934837255703219"><ele>64.5</ele><time>2026-04-26T19:10:45Z</time></trkpt><trkpt lat="45.402508178136955" lon="10.935262944209438"><ele>65.0</ele><time>2026-04-26T19:10:46Z</time></trkpt><trkpt lat="45.40242157258562" lon="10.93568824141413"><ele>64.5</ele><time>2026-04-26T19:10:47Z</time></trkpt><trkpt lat="45.40233544210695" lon="10.936114298325101"><ele>64.0</ele><time>2026-04-26T19:10:48Z</time></trkpt><trkpt lat="45.40225129915615" lon="10.936540651314079"><ele>63.0</ele><time>2026-04-26T19:10:49Z</time></trkpt><trkpt lat="45.402166279843534" lon="10.936966125265693"><ele>62.0</ele><time>2026-04-26T19:10:50Z</time></trkpt><trkpt lat="45.402079409249204" lon="10.937391592446367"><ele>62.0</ele><time>2026-04-26T19:10:51Z</time></trkpt><trkpt lat="45.401993117722306" lon="10.937817209433119"><ele>62.0</ele><time>2026-04-26T19:10:52Z</time></trkpt><trkpt lat="45.40190810408334" lon="10.938241455845949"><ele>61.5</ele><time>2026-04-26T19:10:53Z</time></trkpt><trkpt lat="45.40182426477422" lon="10.938665633759989"><ele>61.0</ele><time>2026-04-26T19:10:54Z</time></trkpt><trkpt lat="45.40173917569426" lon="10.93908837657483"><ele>60.0</ele><time>2026-04-26T19:10:55Z</time></trkpt><trkpt lat="45.40165458307925" lon="10.939511029069331"><ele>59.0</ele><time>2026-04-26T19:10:56Z</time></trkpt><trkpt lat="45.40156937940059" lon="10.939932997553983"><ele>60.0</ele><time>2026-04-26T19:10:57Z</time></trkpt><trkpt lat="45.40149020067248" lon="10.940356627805793"><ele>61.0</ele><time>2026-04-26T19:10:58Z</time></trkpt><trkpt lat="45.401411200957114" lon="10.940783211701014"><ele>60.0</ele><time>2026-04-26T19:10:59Z</time></trkpt><trkpt lat="45.40133153138444" lon="10.941208252175121"><ele>59.0</ele><time>2026-04-26T19:11:00Z</time></trkpt><trkpt lat="45.40125255825944" lon="10.941631315723482"><ele>60.0</ele><time>2026-04-26T19:11:01Z</time></trkpt><trkpt lat="45.401172169952055" lon="10.942051268404695"><ele>61.0</ele><time>2026-04-26T19:11:02Z</time></trkpt><trkpt lat="45.40108889533108" lon="10.942468742386094"><ele>60.0</ele><time>2026-04-26T19:11:03Z</time></trkpt><trkpt lat="45.40099907281131" lon="10.94288249840914"><ele>59.0</ele><time>2026-04-26T19:11:04Z</time></trkpt><trkpt lat="45.400902647588964" lon="10.943292718110726"><ele>59.5</ele><time>2026-04-26T19:11:05Z</time></trkpt><trkpt lat="45.40080855404729" lon="10.94370245881122"><ele>60.0</ele><time>2026-04-26T19:11:06Z</time></trkpt><trkpt lat="45.400719405703285" lon="10.944113465182484"><ele>59.5</ele><time>2026-04-26T19:11:07Z</time></trkpt><trkpt lat="45.4006352920708" lon="10.944524967708238"><ele>59.0</ele><time>2026-04-26T19:11:08Z</time></trkpt><trkpt lat="45.40055679781921" lon="10.944937434838208"><ele>59.5</ele><time>2026-04-26T19:11:09Z</time></trkpt><trkpt lat="45.40047525940567" lon="10.945350532601937"><ele>60.0</ele><time>2026-04-26T19:11:10Z</time></trkpt><trkpt lat="45.40039123231366" lon="10.94576167373102"><ele>60.5</ele><time>2026-04-26T19:11:11Z</time></trkpt><trkpt lat="45.40030681634793" lon="10.946173319438868"><ele>61.0</ele><time>2026-04-26T19:11:12Z</time></trkpt><trkpt lat="45.40022328704395" lon="10.946584165026184"><ele>60.0</ele><time>2026-04-26T19:11:13Z</time></trkpt><trkpt lat="45.40014213695189" lon="10.946997708908057"><ele>59.0</ele><time>2026-04-26T19:11:14Z</time></trkpt><trkpt lat="45.400058578189196" lon="10.947402542882225"><ele>58.5</ele><time>2026-04-26T19:11:15Z</time></trkpt><trkpt lat="45.3999755156393" lon="10.947816047114628"><ele>58.0</ele><time>2026-04-26T19:11:16Z</time></trkpt><trkpt lat="45.3998897592791" lon="10.948226710067743"><ele>58.5</ele><time>2026-04-26T19:11:17Z</time></trkpt><trkpt lat="45.39980399984253" lon="10.948638795504397"><ele>59.0</ele><time>2026-04-26T19:11:18Z</time></trkpt><trkpt lat="45.39971718938262" lon="10.949050133187853"><ele>58.0</ele><time>2026-04-26T19:11:19Z</time></trkpt><trkpt lat="45.399631286735264" lon="10.949461804713428"><ele>57.0</ele><time>2026-04-26T19:11:20Z</time></trkpt><trkpt lat="45.399547116909105" lon="10.949873375106943"><ele>58.5</ele><time>2026-04-26T19:11:21Z</time></trkpt><trkpt lat="45.399462726188304" lon="10.950283162540863"><ele>60.0</ele><time>2026-04-26T19:11:22Z</time></trkpt><trkpt lat="45.39937696002634" lon="10.95069736500754"><ele>60.5</ele><time>2026-04-26T19:11:23Z</time></trkpt><trkpt lat="45.39929266321391" lon="10.951114426718904"><ele>61.0</ele><time>2026-04-26T19:11:24Z</time></trkpt><trkpt lat="45.39921032211318" lon="10.951533391937334"><ele>61.0</ele><time>2026-04-26T19:11:25Z</time></trkpt><trkpt lat="45.399127988826386" lon="10.951954383091646"><ele>61.0</ele><time>2026-04-26T19:11:26Z</time></trkpt><trkpt lat="45.399043794648406" lon="10.952375249876875"><ele>60.5</ele><time>2026-04-26T19:11:27Z</time></trkpt><trkpt lat="45.39895875952658" lon="10.952795776848783"><ele>60.0</ele><time>2026-04-26T19:11:28Z</time></trkpt><trkpt lat="45.39887328032084" lon="10.953216449040994"><ele>59.5</ele><time>2026-04-26T19:11:29Z</time></trkpt><trkpt lat="45.398788255125396" lon="10.953636804108326"><ele>59.0</ele><time>2026-04-26T19:11:30Z</time></trkpt><trkpt lat="45.39870382483484" lon="10.954057027055175"><ele>61.0</ele><time>2026-04-26T19:11:31Z</time></trkpt><trkpt lat="45.39862097601479" lon="10.954476247271817"><ele>63.0</ele><time>2026-04-26T19:11:32Z</time></trkpt><trkpt lat="45.39853895176887" lon="10.954894903747515"><ele>62.5</ele><time>2026-04-26T19:11:33Z</time></trkpt><trkpt lat="45.39845669378341" lon="10.955313395750824"><ele>62.0</ele><time>2026-04-26T19:11:34Z</time></trkpt><trkpt lat="45.3983778333448" lon="10.95573084751204"><ele>61.0</ele><time>2026-04-26T19:11:35Z</time></trkpt><trkpt lat="45.39830664083873" lon="10.956149614380438"><ele>60.0</ele><time>2026-04-26T19:11:36Z</time></trkpt><trkpt lat="45.39824488978819" lon="10.95656917646019"><ele>60.0</ele><time>2026-04-26T19:11:37Z</time></trkpt><trkpt lat="45.39818964782965" lon="10.95699052828702"><ele>60.0</ele><time>2026-04-26T19:11:38Z</time></trkpt><trkpt lat="45.398141788286615" lon="10.957412587124702"><ele>60.0</ele><time>2026-04-26T19:11:39Z</time></trkpt><trkpt lat="45.39809901940305" lon="10.957837447520708"><ele>60.0</ele><time>2026-04-26T19:11:40Z</time></trkpt><trkpt lat="45.39805643416924" lon="10.958262601664172"><ele>59.5</ele><time>2026-04-26T19:11:41Z</time></trkpt><trkpt lat="45.39801277443486" lon="10.958688968217876"><ele>59.0</ele><time>2026-04-26T19:11:42Z</time></trkpt><trkpt lat="45.39796318374502" lon="10.959113354453496"><ele>59.0</ele><time>2026-04-26T19:11:43Z</time></trkpt><trkpt lat="45.39790875490977" lon="10.95953414064158"><ele>59.0</ele><time>2026-04-26T19:11:44Z</time></trkpt><trkpt lat="45.39785748426954" lon="10.959953114272082"><ele>59.5</ele><time>2026-04-26T19:11:45Z</time></trkpt><trkpt lat="45.39780963543512" lon="10.960366819542292"><ele>60.0</ele><time>2026-04-26T19:11:46Z</time></trkpt><trkpt lat="45.397773632491464" lon="10.960774478079518"><ele>60.0</ele><time>2026-04-26T19:11:47Z</time></trkpt><trkpt lat="45.39774704855002" lon="10.961188210226975"><ele>60.0</ele><time>2026-04-26T19:11:48Z</time></trkpt><trkpt lat="45.39772201851771" lon="10.961614579097322"><ele>59.0</ele><time>2026-04-26T19:11:49Z</time></trkpt><trkpt lat="45.397696559235676" lon="10.962049741499381"><ele>58.0</ele><time>2026-04-26T19:11:50Z</time></trkpt><trkpt lat="45.39767554956513" lon="10.962490117249347"><ele>58.0</ele><time>2026-04-26T19:11:51Z</time></trkpt><trkpt lat="45.39765647743572" lon="10.962935825135691"><ele>58.0</ele><time>2026-04-26T19:11:52Z</time></trkpt><trkpt lat="45.39763678266251" lon="10.963379225613116"><ele>58.0</ele><time>2026-04-26T19:11:53Z</time></trkpt><trkpt lat="45.39762094379952" lon="10.963820577826048"><ele>58.0</ele><time>2026-04-26T19:11:54Z</time></trkpt><trkpt lat="45.397605057395246" lon="10.964264285001518"><ele>58.0</ele><time>2026-04-26T19:11:55Z</time></trkpt><trkpt lat="45.39758498370525" lon="10.96470993003252"><ele>58.0</ele><time>2026-04-26T19:11:56Z</time></trkpt><trkpt lat="45.39756562740271" lon="10.965157003107267"><ele>57.5</ele><time>2026-04-26T19:11:57Z</time></trkpt><trkpt lat="45.39754609232145" lon="10.965605281544692"><ele>57.0</ele><time>2026-04-26T19:11:58Z</time></trkpt><trkpt lat="45.3975242150502" lon="10.96605592859474"><ele>56.5</ele><time>2026-04-26T19:11:59Z</time></trkpt><trkpt lat="45.39749837981671" lon="10.966507528826453"><ele>56.0</ele><time>2026-04-26T19:12:00Z</time></trkpt><trkpt lat="45.3974756094901" lon="10.966960073196448"><ele>57.0</ele><time>2026-04-26T19:12:01Z</time></trkpt><trkpt lat="45.39745284818687" lon="10.967411234367061"><ele>58.0</ele><time>2026-04-26T19:12:02Z</time></trkpt><trkpt lat="45.3974283293444" lon="10.967859894311921"><ele>56.0</ele><time>2026-04-26T19:12:03Z</time></trkpt><trkpt lat="45.39740328816832" lon="10.96830656429734"><ele>54.0</ele><time>2026-04-26T19:12:04Z</time></trkpt><trkpt lat="45.39738992211478" lon="10.968751687369165"><ele>55.5</ele><time>2026-04-26T19:12:05Z</time></trkpt><trkpt lat="45.397376565847715" lon="10.969196734928587"><ele>57.0</ele><time>2026-04-26T19:12:06Z</time></trkpt><trkpt lat="45.39736069801255" lon="10.969641469035656"><ele>57.5</ele><time>2026-04-26T19:12:07Z</time></trkpt><trkpt lat="45.39734240287267" lon="10.970086468970878"><ele>58.0</ele><time>2026-04-26T19:12:08Z</time></trkpt><trkpt lat="45.39732305934739" lon="10.97053087303066"><ele>56.5</ele><time>2026-04-26T19:12:09Z</time></trkpt><trkpt lat="45.397303100530706" lon="10.970974291753588"><ele>55.0</ele><time>2026-04-26T19:12:10Z</time></trkpt><trkpt lat="45.397286165743765" lon="10.971415929251641"><ele>55.0</ele><time>2026-04-26T19:12:11Z</time></trkpt><trkpt lat="45.397270999324" lon="10.971858650771912"><ele>55.0</ele><time>2026-04-26T19:12:12Z</time></trkpt><trkpt lat="45.3972556878902" lon="10.97229710081216"><ele>56.5</ele><time>2026-04-26T19:12:13Z</time></trkpt><trkpt lat="45.397235228454214" lon="10.972738336062275"><ele>58.0</ele><time>2026-04-26T19:12:14Z</time></trkpt><trkpt lat="45.39720853620332" lon="10.973178858007419"><ele>57.0</ele><time>2026-04-26T19:12:15Z</time></trkpt><trkpt lat="45.39717737045613" lon="10.973617749800137"><ele>56.0</ele><time>2026-04-26T19:12:16Z</time></trkpt><trkpt lat="45.39714830516537" lon="10.974055604359114"><ele>56.0</ele><time>2026-04-26T19:12:17Z</time></trkpt><trkpt lat="45.39712320663893" lon="10.97449449913094"><ele>56.0</ele><time>2026-04-26T19:12:18Z</time></trkpt><trkpt lat="45.39710415431154" lon="10.974935461989803"><ele>55.5</ele><time>2026-04-26T19:12:19Z</time></trkpt><trkpt lat="45.39708778001799" lon="10.97537922745664"><ele>55.0</ele><time>2026-04-26T19:12:20Z</time></trkpt><trkpt lat="45.39707178345488" lon="10.975823031621765"><ele>55.0</ele><time>2026-04-26T19:12:21Z</time></trkpt><trkpt lat="45.397054973200966" lon="10.976265531892508"><ele>55.0</ele><time>2026-04-26T19:12:22Z</time></trkpt><trkpt lat="45.39703822657516" lon="10.976708437942769"><ele>53.0</ele><time>2026-04-26T19:12:23Z</time></trkpt><trkpt lat="45.39701967027629" lon="10.977150565897057"><ele>51.0</ele><time>2026-04-26T19:12:24Z</time></trkpt><trkpt lat="45.39699885075666" lon="10.977592000074818"><ele>51.0</ele><time>2026-04-26T19:12:25Z</time></trkpt><trkpt lat="45.39697812452315" lon="10.97803523887501"><ele>51.0</ele><time>2026-04-26T19:12:26Z</time></trkpt><trkpt lat="45.396958031888644" lon="10.978476571434745"><ele>51.5</ele><time>2026-04-26T19:12:27Z</time></trkpt><trkpt lat="45.39694252214621" lon="10.978917343306156"><ele>52.0</ele><time>2026-04-26T19:12:28Z</time></trkpt><trkpt lat="45.396934147646874" lon="10.97935751656186"><ele>51.0</ele><time>2026-04-26T19:12:29Z</time></trkpt><trkpt lat="45.3969311136794" lon="10.979799431027283"><ele>50.0</ele><time>2026-04-26T19:12:30Z</time></trkpt><trkpt lat="45.39693240862219" lon="10.980240344462475"><ele>50.0</ele><time>2026-04-26T19:12:31Z</time></trkpt><trkpt lat="45.39694162347152" lon="10.980682191501229"><ele>50.0</ele><time>2026-04-26T19:12:32Z</time></trkpt><trkpt lat="45.39695354379971" lon="10.981124800283478"><ele>50.0</ele><time>2026-04-26T19:12:33Z</time></trkpt><trkpt lat="45.396968625447776" lon="10.981566721065365"><ele>50.0</ele><time>2026-04-26T19:12:34Z</time></trkpt><trkpt lat="45.396987400104706" lon="10.982006791277652"><ele>50.0</ele><time>2026-04-26T19:12:35Z</time></trkpt><trkpt lat="45.39701127283485" lon="10.982444453130713"><ele>50.0</ele><time>2026-04-26T19:12:36Z</time></trkpt><trkpt lat="45.39704134407031" lon="10.982880835329148"><ele>51.0</ele><time>2026-04-26T19:12:37Z</time></trkpt><trkpt lat="45.397075654025755" lon="10.983316612421808"><ele>52.0</ele><time>2026-04-26T19:12:38Z</time></trkpt><trkpt lat="45.397113783888315" lon="10.983750023343134"><ele>53.0</ele><time>2026-04-26T19:12:39Z</time></trkpt><trkpt lat="45.397161009131196" lon="10.98418078707842"><ele>54.0</ele><time>2026-04-26T19:12:40Z</time></trkpt><trkpt lat="45.39721763198771" lon="10.984612246433558"><ele>55.5</ele><time>2026-04-26T19:12:41Z</time></trkpt><trkpt lat="45.39727520232158" lon="10.985044184069828"><ele>57.0</ele><time>2026-04-26T19:12:42Z</time></trkpt><trkpt lat="45.39733404985963" lon="10.98547764827418"><ele>57.5</ele><time>2026-04-26T19:12:43Z</time></trkpt><trkpt lat="45.397391364146806" lon="10.985912151006382"><ele>58.0</ele><time>2026-04-26T19:12:44Z</time></trkpt><trkpt lat="45.397448482236086" lon="10.986346688282215"><ele>57.5</ele><time>2026-04-26T19:12:45Z</time></trkpt><trkpt lat="45.397511943694354" lon="10.986780330560729"><ele>57.0</ele><time>2026-04-26T19:12:46Z</time></trkpt><trkpt lat="45.397578284774674" lon="10.987213483552933"><ele>56.5</ele><time>2026-04-26T19:12:47Z</time></trkpt><trkpt lat="45.39764329817786" lon="10.987647058850769"><ele>56.0</ele><time>2026-04-26T19:12:48Z</time></trkpt><trkpt lat="45.39770637095709" lon="10.988081281226586"><ele>55.0</ele><time>2026-04-26T19:12:49Z</time></trkpt><trkpt lat="45.39776906361554" lon="10.988517311758168"><ele>54.0</ele><time>2026-04-26T19:12:50Z</time></trkpt><trkpt lat="45.397832758696765" lon="10.988954033421871"><ele>53.0</ele><time>2026-04-26T19:12:51Z</time></trkpt><trkpt lat="45.39789479338047" lon="10.989389889738195"><ele>52.0</ele><time>2026-04-26T19:12:52Z</time></trkpt><trkpt lat="45.397956934518795" lon="10.989825285356417"><ele>54.0</ele><time>2026-04-26T19:12:53Z</time></trkpt><trkpt lat="45.39802040028914" lon="10.990258246338113"><ele>56.0</ele><time>2026-04-26T19:12:54Z</time></trkpt><trkpt lat="45.39808016168039" lon="10.990687063435702"><ele>55.5</ele><time>2026-04-26T19:12:55Z</time></trkpt><trkpt lat="45.39813217237487" lon="10.99109693207323"><ele>55.0</ele><time>2026-04-26T19:12:56Z</time></trkpt><trkpt lat="45.39818074404414" lon="10.99150540830824"><ele>55.5</ele><time>2026-04-26T19:12:57Z</time></trkpt><trkpt lat="45.398224515881566" lon="10.991922789671138"><ele>56.0</ele><time>2026-04-26T19:12:58Z</time></trkpt><trkpt lat="45.39826384158072" lon="10.99234361380481"><ele>55.5</ele><time>2026-04-26T19:12:59Z</time></trkpt><trkpt lat="45.3983027074594" lon="10.992766088631896"><ele>55.0</ele><time>2026-04-26T19:13:00Z</time></trkpt><trkpt lat="45.398341141242454" lon="10.993186007296577"><ele>55.0</ele><time>2026-04-26T19:13:01Z</time></trkpt><trkpt lat="45.39838243512662" lon="10.993598079323606"><ele>55.0</ele><time>2026-04-26T19:13:02Z</time></trkpt><trkpt lat="45.398425313955215" lon="10.994008452412231"><ele>55.0</ele><time>2026-04-26T19:13:03Z</time></trkpt><trkpt lat="45.39846668990025" lon="10.994424003446888"><ele>55.0</ele><time>2026-04-26T19:13:04Z</time></trkpt><trkpt lat="45.39850823014559" lon="10.994842470471"><ele>55.0</ele><time>2026-04-26T19:13:05Z</time></trkpt><trkpt lat="45.39855039849306" lon="10.995263544270896"><ele>55.0</ele><time>2026-04-26T19:13:06Z</time></trkpt><trkpt lat="45.398591507810146" lon="10.995684981452756"><ele>55.0</ele><time>2026-04-26T19:13:07Z</time></trkpt><trkpt lat="45.39863140115882" lon="10.9961065806876"><ele>55.0</ele><time>2026-04-26T19:13:08Z</time></trkpt><trkpt lat="45.39866821327317" lon="10.996525553421787"><ele>53.5</ele><time>2026-04-26T19:13:09Z</time></trkpt><trkpt lat="45.39870004007293" lon="10.996945672495185"><ele>52.0</ele><time>2026-04-26T19:13:10Z</time></trkpt><trkpt lat="45.39872611631821" lon="10.997368794405807"><ele>50.5</ele><time>2026-04-26T19:13:11Z</time></trkpt><trkpt lat="45.39875283607642" lon="10.997794511072922"><ele>49.0</ele><time>2026-04-26T19:13:12Z</time></trkpt><trkpt lat="45.3987803583552" lon="10.998217791760778"><ele>49.0</ele><time>2026-04-26T19:13:13Z</time></trkpt><trkpt lat="45.39881009050094" lon="10.998636512954366"><ele>49.0</ele><time>2026-04-26T19:13:14Z</time></trkpt><trkpt lat="45.39884185804831" lon="10.99905791064551"><ele>49.0</ele><time>2026-04-26T19:13:15Z</time></trkpt><trkpt lat="45.39887869244179" lon="10.999476735288825"><ele>49.0</ele><time>2026-04-26T19:13:16Z</time></trkpt><trkpt lat="45.39891998362592" lon="10.999902406824482"><ele>49.0</ele><time>2026-04-26T19:13:17Z</time></trkpt><trkpt lat="45.39896192467721" lon="11.000332608317313"><ele>49.0</ele><time>2026-04-26T19:13:18Z</time></trkpt><trkpt lat="45.39900121655874" lon="11.000765311534503"><ele>48.0</ele><time>2026-04-26T19:13:19Z</time></trkpt><trkpt lat="45.39904036209263" lon="11.001198673408155"><ele>47.0</ele><time>2026-04-26T19:13:20Z</time></trkpt><trkpt lat="45.39908257359699" lon="11.001629924998383"><ele>49.0</ele><time>2026-04-26T19:13:21Z</time></trkpt><trkpt lat="45.39912789155416" lon="11.002060133653506"><ele>51.0</ele><time>2026-04-26T19:13:22Z</time></trkpt><trkpt lat="45.39917042519717" lon="11.002490267112284"><ele>51.0</ele><time>2026-04-26T19:13:23Z</time></trkpt><trkpt lat="45.39921232341225" lon="11.00291841794626"><ele>51.0</ele><time>2026-04-26T19:13:24Z</time></trkpt><trkpt lat="45.39925304980297" lon="11.003345381367373"><ele>51.0</ele><time>2026-04-26T19:13:25Z</time></trkpt><trkpt lat="45.39929607001285" lon="11.003771513060137"><ele>51.0</ele><time>2026-04-26T19:13:26Z</time></trkpt><trkpt lat="45.39933797997847" lon="11.004200687355826"><ele>51.0</ele><time>2026-04-26T19:13:27Z</time></trkpt><trkpt lat="45.399379986064275" lon="11.004629441461615"><ele>51.0</ele><time>2026-04-26T19:13:28Z</time></trkpt><trkpt lat="45.39942293476478" lon="11.005057615116687"><ele>51.0</ele><time>2026-04-26T19:13:29Z</time></trkpt><trkpt lat="45.39946539426075" lon="11.00548748880922"><ele>51.0</ele><time>2026-04-26T19:13:30Z</time></trkpt><trkpt lat="45.39950695479686" lon="11.005919902897956"><ele>50.0</ele><time>2026-04-26T19:13:31Z</time></trkpt><trkpt lat="45.399547477070755" lon="11.006353688299557"><ele>49.0</ele><time>2026-04-26T19:13:32Z</time></trkpt><trkpt lat="45.39958870996498" lon="11.006788548678482"><ele>49.0</ele><time>2026-04-26T19:13:33Z</time></trkpt><trkpt lat="45.39962931630423" lon="11.007221138974508"><ele>49.0</ele><time>2026-04-26T19:13:34Z</time></trkpt><trkpt lat="45.399673035686575" lon="11.007653170938871"><ele>50.5</ele><time>2026-04-26T19:13:35Z</time></trkpt><trkpt lat="45.39971800933094" lon="11.008085496154399"><ele>52.0</ele><time>2026-04-26T19:13:36Z</time></trkpt><trkpt lat="45.39976035210765" lon="11.008519118359118"><ele>52.0</ele><time>2026-04-26T19:13:37Z</time></trkpt><trkpt lat="45.39980378478207" lon="11.008953221126502"><ele>52.0</ele><time>2026-04-26T19:13:38Z</time></trkpt><trkpt lat="45.39984619666451" lon="11.009387375372595"><ele>52.0</ele><time>2026-04-26T19:13:39Z</time></trkpt><trkpt lat="45.399886004843786" lon="11.009821487906285"><ele>52.0</ele><time>2026-04-26T19:13:40Z</time></trkpt><trkpt lat="45.39992786069959" lon="11.010259373192634"><ele>52.5</ele><time>2026-04-26T19:13:41Z</time></trkpt><trkpt lat="45.399972015168586" lon="11.01069816198515"><ele>53.0</ele><time>2026-04-26T19:13:42Z</time></trkpt><trkpt lat="45.40001581894397" lon="11.011135273689112"><ele>53.0</ele><time>2026-04-26T19:13:43Z</time></trkpt><trkpt lat="45.400055834555815" lon="11.011573154916759"><ele>53.0</ele><time>2026-04-26T19:13:44Z</time></trkpt><trkpt lat="45.40009069994463" lon="11.01201164666513"><ele>51.5</ele><time>2026-04-26T19:13:45Z</time></trkpt><trkpt lat="45.40012287277755" lon="11.012451426955698"><ele>50.0</ele><time>2026-04-26T19:13:46Z</time></trkpt><trkpt lat="45.40015929294917" lon="11.01289273320438"><ele>49.0</ele><time>2026-04-26T19:13:47Z</time></trkpt><trkpt lat="45.40020294918431" lon="11.013334131010867"><ele>48.0</ele><time>2026-04-26T19:13:48Z</time></trkpt><trkpt lat="45.40025032343287" lon="11.013774378210018"><ele>48.5</ele><time>2026-04-26T19:13:49Z</time></trkpt><trkpt lat="45.40029597038012" lon="11.014216131068281"><ele>49.0</ele><time>2026-04-26T19:13:50Z</time></trkpt><trkpt lat="45.400339544454894" lon="11.014659838179243"><ele>49.5</ele><time>2026-04-26T19:13:51Z</time></trkpt><trkpt lat="45.40038211289274" lon="11.015106596634734"><ele>50.0</ele><time>2026-04-26T19:13:52Z</time></trkpt><trkpt lat="45.40042621890602" lon="11.015554571540827"><ele>52.0</ele><time>2026-04-26T19:13:53Z</time></trkpt><trkpt lat="45.400473670267864" lon="11.016003846086651"><ele>54.0</ele><time>2026-04-26T19:13:54Z</time></trkpt><trkpt lat="45.40052128088063" lon="11.016449999141422"><ele>53.5</ele><time>2026-04-26T19:13:55Z</time></trkpt><trkpt lat="45.4005675742983" lon="11.0168967032088"><ele>53.0</ele><time>2026-04-26T19:13:56Z</time></trkpt><trkpt lat="45.40061198338365" lon="11.017345108359208"><ele>54.5</ele><time>2026-04-26T19:13:57Z</time></trkpt><trkpt lat="45.40065433040318" lon="11.01779499738068"><ele>56.0</ele><time>2026-04-26T19:13:58Z</time></trkpt><trkpt lat="45.400694595865765" lon="11.01824261937638"><ele>56.0</ele><time>2026-04-26T19:13:59Z</time></trkpt><trkpt lat="45.40073763189629" lon="11.018691235523816"><ele>56.0</ele><time>2026-04-26T19:14:00Z</time></trkpt><trkpt lat="45.40078375059345" lon="11.01914027500997"><ele>55.0</ele><time>2026-04-26T19:14:01Z</time></trkpt><trkpt lat="45.400830121167054" lon="11.019587475897024"><ele>54.0</ele><time>2026-04-26T19:14:02Z</time></trkpt><trkpt lat="45.4008723954535" lon="11.020029454037717"><ele>53.5</ele><time>2026-04-26T19:14:03Z</time></trkpt><trkpt lat="45.400916961017494" lon="11.020471985652092"><ele>53.0</ele><time>2026-04-26T19:14:04Z</time></trkpt><trkpt lat="45.400961676165785" lon="11.020913780944836"><ele>52.0</ele><time>2026-04-26T19:14:05Z</time></trkpt><trkpt lat="45.401005862052365" lon="11.02135654403285"><ele>51.0</ele><time>2026-04-26T19:14:06Z</time></trkpt><trkpt lat="45.40104945627947" lon="11.021799655621807"><ele>51.0</ele><time>2026-04-26T19:14:07Z</time></trkpt><trkpt lat="45.40109386725818" lon="11.02224540076326"><ele>51.0</ele><time>2026-04-26T19:14:08Z</time></trkpt><trkpt lat="45.40113873380706" lon="11.022693503649577"><ele>51.5</ele><time>2026-04-26T19:14:09Z</time></trkpt><trkpt lat="45.401185692915654" lon="11.02314146949381"><ele>52.0</ele><time>2026-04-26T19:14:10Z</time></trkpt><trkpt lat="45.40123572057902" lon="11.023587209207527"><ele>52.5</ele><time>2026-04-26T19:14:11Z</time></trkpt><trkpt lat="45.401288400354204" lon="11.024033016351579"><ele>53.0</ele><time>2026-04-26T19:14:12Z</time></trkpt><trkpt lat="45.40134533451951" lon="11.024479286630521"><ele>51.0</ele><time>2026-04-26T19:14:13Z</time></trkpt><trkpt lat="45.401404734836824" lon="11.024924300933684"><ele>49.0</ele><time>2026-04-26T19:14:14Z</time></trkpt><trkpt lat="45.401465319569205" lon="11.025370122769639"><ele>50.0</ele><time>2026-04-26T19:14:15Z</time></trkpt><trkpt lat="45.40152813512484" lon="11.025816571548857"><ele>51.0</ele><time>2026-04-26T19:14:16Z</time></trkpt><trkpt lat="45.40158916962657" lon="11.026262536445596"><ele>51.5</ele><time>2026-04-26T19:14:17Z</time></trkpt><trkpt lat="45.40164783846016" lon="11.026709598206422"><ele>52.0</ele><time>2026-04-26T19:14:18Z</time></trkpt><trkpt lat="45.401701483390866" lon="11.027158597309413"><ele>51.0</ele><time>2026-04-26T19:14:19Z</time></trkpt><trkpt lat="45.40174999773919" lon="11.027610895955608"><ele>50.0</ele><time>2026-04-26T19:14:20Z</time></trkpt><trkpt lat="45.401799103653715" lon="11.028067517737606"><ele>49.5</ele><time>2026-04-26T19:14:21Z</time></trkpt><trkpt lat="45.401843589826335" lon="11.028523276509567"><ele>49.0</ele><time>2026-04-26T19:14:22Z</time></trkpt><trkpt lat="45.40188762181295" lon="11.028976049424543"><ele>47.5</ele><time>2026-04-26T19:14:23Z</time></trkpt><trkpt lat="45.40193495067701" lon="11.029428560837204"><ele>46.0</ele><time>2026-04-26T19:14:24Z</time></trkpt><trkpt lat="45.40197898027619" lon="11.029879698934531"><ele>45.5</ele><time>2026-04-26T19:14:25Z</time></trkpt><trkpt lat="45.40202333904326" lon="11.030330469108582"><ele>45.0</ele><time>2026-04-26T19:14:26Z</time></trkpt><trkpt lat="45.402067974607505" lon="11.030778054362766"><ele>44.0</ele><time>2026-04-26T19:14:27Z</time></trkpt><trkpt lat="45.40211206156577" lon="11.031223332875133"><ele>43.0</ele><time>2026-04-26T19:14:28Z</time></trkpt><trkpt lat="45.4021572143366" lon="11.031670605611648"><ele>42.0</ele><time>2026-04-26T19:14:29Z</time></trkpt><trkpt lat="45.402201921576406" lon="11.032122409455878"><ele>41.0</ele><time>2026-04-26T19:14:30Z</time></trkpt><trkpt lat="45.402246408107565" lon="11.032575112379067"><ele>41.0</ele><time>2026-04-26T19:14:31Z</time></trkpt><trkpt lat="45.40229125673568" lon="11.033031028964144"><ele>41.0</ele><time>2026-04-26T19:14:32Z</time></trkpt><trkpt lat="45.40233511663485" lon="11.033488360867786"><ele>41.0</ele><time>2026-04-26T19:14:33Z</time></trkpt><trkpt lat="45.40237911398532" lon="11.033942450443675"><ele>41.0</ele><time>2026-04-26T19:14:34Z</time></trkpt><trkpt lat="45.402423828689955" lon="11.034395416880946"><ele>41.0</ele><time>2026-04-26T19:14:35Z</time></trkpt><trkpt lat="45.40246530146688" lon="11.034848404942398"><ele>41.0</ele><time>2026-04-26T19:14:36Z</time></trkpt><trkpt lat="45.40249835981554" lon="11.035304037375687"><ele>40.5</ele><time>2026-04-26T19:14:37Z</time></trkpt><trkpt lat="45.40252563339663" lon="11.035760213518891"><ele>40.0</ele><time>2026-04-26T19:14:38Z</time></trkpt><trkpt lat="45.40254861579719" lon="11.036218802873602"><ele>40.5</ele><time>2026-04-26T19:14:39Z</time></trkpt><trkpt lat="45.402569812972715" lon="11.036679473087705"><ele>41.0</ele><time>2026-04-26T19:14:40Z</time></trkpt><trkpt lat="45.40258860604978" lon="11.037136885433856"><ele>41.5</ele><time>2026-04-26T19:14:41Z</time></trkpt><trkpt lat="45.402607942818626" lon="11.037588741303248"><ele>42.0</ele><time>2026-04-26T19:14:42Z</time></trkpt><trkpt lat="45.40263419104609" lon="11.038034755549047"><ele>43.0</ele><time>2026-04-26T19:14:43Z</time></trkpt><trkpt lat="45.402669145602246" lon="11.038484090757006"><ele>44.0</ele><time>2026-04-26T19:14:44Z</time></trkpt><trkpt lat="45.402709404066556" lon="11.038930277393236"><ele>43.0</ele><time>2026-04-26T19:14:45Z</time></trkpt><trkpt lat="45.402754218437195" lon="11.039366415980847"><ele>42.0</ele><time>2026-04-26T19:14:46Z</time></trkpt><trkpt lat="45.40279617528055" lon="11.039786207877167"><ele>41.5</ele><time>2026-04-26T19:14:47Z</time></trkpt><trkpt lat="45.402837446454896" lon="11.040185714997271"><ele>41.0</ele><time>2026-04-26T19:14:48Z</time></trkpt><trkpt lat="45.402876990390766" lon="11.040579035166745"><ele>39.5</ele><time>2026-04-26T19:14:49Z</time></trkpt><trkpt lat="45.40292199973748" lon="11.040984394377357"><ele>38.0</ele><time>2026-04-26T19:14:50Z</time></trkpt><trkpt lat="45.402976386808604" lon="11.041406151515691"><ele>38.0</ele><time>2026-04-26T19:14:51Z</time></trkpt><trkpt lat="45.40302985228218" lon="11.041842162861114"><ele>38.0</ele><time>2026-04-26T19:14:52Z</time></trkpt><trkpt lat="45.403077933758816" lon="11.042283265569953"><ele>38.0</ele><time>2026-04-26T19:14:53Z</time></trkpt><trkpt lat="45.403120056034105" lon="11.042726002172078"><ele>38.0</ele><time>2026-04-26T19:14:54Z</time></trkpt><trkpt lat="45.40316113668902" lon="11.043166643098369"><ele>37.0</ele><time>2026-04-26T19:14:55Z</time></trkpt><trkpt lat="45.403203468668124" lon="11.043606340306418"><ele>36.0</ele><time>2026-04-26T19:14:56Z</time></trkpt><trkpt lat="45.403247179710235" lon="11.044045045740422"><ele>37.5</ele><time>2026-04-26T19:14:57Z</time></trkpt><trkpt lat="45.40329138089917" lon="11.044481418975833"><ele>39.0</ele><time>2026-04-26T19:14:58Z</time></trkpt><trkpt lat="45.40333452389769" lon="11.044915539341575"><ele>40.0</ele><time>2026-04-26T19:14:59Z</time></trkpt><trkpt lat="45.40337358450719" lon="11.04534670696709"><ele>41.0</ele><time>2026-04-26T19:15:00Z</time></trkpt><trkpt lat="45.40341050554039" lon="11.04577618991193"><ele>40.0</ele><time>2026-04-26T19:15:01Z</time></trkpt><trkpt lat="45.40344018000571" lon="11.04620650123889"><ele>39.0</ele><time>2026-04-26T19:15:02Z</time></trkpt><trkpt lat="45.40346509173332" lon="11.046639428952858"><ele>38.0</ele><time>2026-04-26T19:15:03Z</time></trkpt><trkpt lat="45.40348968486806" lon="11.047073733319957"><ele>37.0</ele><time>2026-04-26T19:15:04Z</time></trkpt><trkpt lat="45.4035204026439" lon="11.047509038249837"><ele>37.0</ele><time>2026-04-26T19:15:05Z</time></trkpt><trkpt lat="45.40356064937263" lon="11.047940243951855"><ele>37.0</ele><time>2026-04-26T19:15:06Z</time></trkpt><trkpt lat="45.40360719665142" lon="11.048370858044674"><ele>37.0</ele><time>2026-04-26T19:15:07Z</time></trkpt><trkpt lat="45.40365288069305" lon="11.048803076999206"><ele>37.0</ele><time>2026-04-26T19:15:08Z</time></trkpt><trkpt lat="45.40369644683459" lon="11.049235445405518"><ele>37.0</ele><time>2026-04-26T19:15:09Z</time></trkpt><trkpt lat="45.403739622672106" lon="11.04967017601413"><ele>37.0</ele><time>2026-04-26T19:15:10Z</time></trkpt><trkpt lat="45.40378200265585" lon="11.050105489986462"><ele>37.0</ele><time>2026-04-26T19:15:11Z</time></trkpt><trkpt lat="45.403824400123646" lon="11.050539890967606"><ele>37.0</ele><time>2026-04-26T19:15:12Z</time></trkpt><trkpt lat="45.40386607541183" lon="11.050974360119955"><ele>37.0</ele><time>2026-04-26T19:15:13Z</time></trkpt><trkpt lat="45.40390913688263" lon="11.051409757230077"><ele>37.0</ele><time>2026-04-26T19:15:14Z</time></trkpt><trkpt lat="45.4039526186651" lon="11.051846007884524"><ele>37.0</ele><time>2026-04-26T19:15:15Z</time></trkpt><trkpt lat="45.403996546471966" lon="11.05228342424846"><ele>37.0</ele><time>2026-04-26T19:15:16Z</time></trkpt><trkpt lat="45.404038740320026" lon="11.052720782910214"><ele>37.5</ele><time>2026-04-26T19:15:17Z</time></trkpt><trkpt lat="45.404079104781275" lon="11.053159257312503"><ele>38.0</ele><time>2026-04-26T19:15:18Z</time></trkpt><trkpt lat="45.404117275167344" lon="11.05360014361556"><ele>38.0</ele><time>2026-04-26T19:15:19Z</time></trkpt><trkpt lat="45.40415542084103" lon="11.054040416357909"><ele>38.0</ele><time>2026-04-26T19:15:20Z</time></trkpt><trkpt lat="45.40419192104719" lon="11.054481890311068"><ele>37.5</ele><time>2026-04-26T19:15:21Z</time></trkpt><trkpt lat="45.404229906890144" lon="11.054922567488292"><ele>37.0</ele><time>2026-04-26T19:15:22Z</time></trkpt><trkpt lat="45.40426655517491" lon="11.055363435518684"><ele>38.0</ele><time>2026-04-26T19:15:23Z</time></trkpt><trkpt lat="45.4043034437453" lon="11.055804613094582"><ele>39.0</ele><time>2026-04-26T19:15:24Z</time></trkpt><trkpt lat="45.4043393764423" lon="11.05624608434317"><ele>38.5</ele><time>2026-04-26T19:15:25Z</time></trkpt><trkpt lat="45.404375485990464" lon="11.056686995703197"><ele>38.0</ele><time>2026-04-26T19:15:26Z</time></trkpt><trkpt lat="45.4044129953527" lon="11.057129403056884"><ele>38.0</ele><time>2026-04-26T19:15:27Z</time></trkpt><trkpt lat="45.404451667306496" lon="11.057573705824835"><ele>38.0</ele><time>2026-04-26T19:15:28Z</time></trkpt><trkpt lat="45.40448993279015" lon="11.058018056297259"><ele>37.5</ele><time>2026-04-26T19:15:29Z</time></trkpt><trkpt lat="45.40452768385709" lon="11.058465399480719"><ele>37.0</ele><time>2026-04-26T19:15:30Z</time></trkpt><trkpt lat="45.40456367097462" lon="11.058914164744568"><ele>36.0</ele><time>2026-04-26T19:15:31Z</time></trkpt><trkpt lat="45.40459859867987" lon="11.059362856139307"><ele>35.0</ele><time>2026-04-26T19:15:32Z</time></trkpt><trkpt lat="45.404634081737356" lon="11.05980832743258"><ele>36.0</ele><time>2026-04-26T19:15:33Z</time></trkpt><trkpt lat="45.40467197834853" lon="11.060252480351883"><ele>37.0</ele><time>2026-04-26T19:15:34Z</time></trkpt><trkpt lat="45.40471188667121" lon="11.06069214630288"><ele>37.5</ele><time>2026-04-26T19:15:35Z</time></trkpt><trkpt lat="45.40475510709939" lon="11.061129216465886"><ele>38.0</ele><time>2026-04-26T19:15:36Z</time></trkpt><trkpt lat="45.40479963350706" lon="11.061566848820469"><ele>38.0</ele><time>2026-04-26T19:15:37Z</time></trkpt><trkpt lat="45.4048424310056" lon="11.062005735015921"><ele>38.0</ele><time>2026-04-26T19:15:38Z</time></trkpt><trkpt lat="45.40488406837866" lon="11.062446778072333"><ele>37.0</ele><time>2026-04-26T19:15:39Z</time></trkpt><trkpt lat="45.40491898745738" lon="11.062862583995916"><ele>36.0</ele><time>2026-04-26T19:15:40Z</time></trkpt><trkpt lat="45.404952976139576" lon="11.06326275668221"><ele>36.5</ele><time>2026-04-26T19:15:41Z</time></trkpt><trkpt lat="45.40498524771299" lon="11.063653864400873"><ele>37.0</ele><time>2026-04-26T19:15:42Z</time></trkpt><trkpt lat="45.40501982071164" lon="11.064050389930632"><ele>36.5</ele><time>2026-04-26T19:15:43Z</time></trkpt><trkpt lat="45.405054836217886" lon="11.064447525323306"><ele>36.0</ele><time>2026-04-26T19:15:44Z</time></trkpt><trkpt lat="45.405097084136194" lon="11.064854969328824"><ele>35.5</ele><time>2026-04-26T19:15:45Z</time></trkpt><trkpt lat="45.40514249263681" lon="11.065278340647069"><ele>35.0</ele><time>2026-04-26T19:15:46Z</time></trkpt><trkpt lat="45.40518443331671" lon="11.065714711677817"><ele>36.0</ele><time>2026-04-26T19:15:47Z</time></trkpt><trkpt lat="45.40522370075408" lon="11.06616049795366"><ele>37.0</ele><time>2026-04-26T19:15:48Z</time></trkpt><trkpt lat="45.40526190319305" lon="11.06660519457766"><ele>37.0</ele><time>2026-04-26T19:15:49Z</time></trkpt><trkpt lat="45.405298275784304" lon="11.067053438456519"><ele>37.0</ele><time>2026-04-26T19:15:50Z</time></trkpt><trkpt lat="45.405333175412025" lon="11.067502089942685"><ele>37.0</ele><time>2026-04-26T19:15:51Z</time></trkpt><trkpt lat="45.4053652700128" lon="11.067949197349366"><ele>37.0</ele><time>2026-04-26T19:15:52Z</time></trkpt><trkpt lat="45.40539743993452" lon="11.068392841368867"><ele>38.0</ele><time>2026-04-26T19:15:53Z</time></trkpt><trkpt lat="45.40543000101461" lon="11.06883195598076"><ele>39.0</ele><time>2026-04-26T19:15:54Z</time></trkpt><trkpt lat="45.405462776068056" lon="11.069265312948465"><ele>39.0</ele><time>2026-04-26T19:15:55Z</time></trkpt><trkpt lat="45.40549954506131" lon="11.069695584873212"><ele>39.0</ele><time>2026-04-26T19:15:56Z</time></trkpt><trkpt lat="45.40554607206205" lon="11.070125189438873"><ele>39.5</ele><time>2026-04-26T19:15:57Z</time></trkpt><trkpt lat="45.40560636429498" lon="11.070548969028536"><ele>40.0</ele><time>2026-04-26T19:15:58Z</time></trkpt><trkpt lat="45.40567254634203" lon="11.07097176073924"><ele>40.0</ele><time>2026-04-26T19:15:59Z</time></trkpt><trkpt lat="45.4057449307536" lon="11.071388759689956"><ele>40.0</ele><time>2026-04-26T19:16:00Z</time></trkpt><trkpt lat="45.40582102566715" lon="11.071801018275742"><ele>40.5</ele><time>2026-04-26T19:16:01Z</time></trkpt><trkpt lat="45.40590051004032" lon="11.072210235249795"><ele>41.0</ele><time>2026-04-26T19:16:02Z</time></trkpt><trkpt lat="45.405982792685705" lon="11.072614885740228"><ele>41.0</ele><time>2026-04-26T19:16:03Z</time></trkpt><trkpt lat="45.40606803523545" lon="11.073015859631267"><ele>41.0</ele><time>2026-04-26T19:16:04Z</time></trkpt><trkpt lat="45.40616057179718" lon="11.073415105411593"><ele>41.0</ele><time>2026-04-26T19:16:05Z</time></trkpt><trkpt lat="45.406256777568075" lon="11.073815242998723"><ele>41.0</ele><time>2026-04-26T19:16:06Z</time></trkpt><trkpt lat="45.40635515210942" lon="11.07421795599387"><ele>41.0</ele><time>2026-04-26T19:16:07Z</time></trkpt><trkpt lat="45.40645696129465" lon="11.074619058889393"><ele>41.0</ele><time>2026-04-26T19:16:08Z</time></trkpt><trkpt lat="45.406565146667276" lon="11.075017169545637"><ele>41.0</ele><time>2026-04-26T19:16:09Z</time></trkpt><trkpt lat="45.40667471913871" lon="11.075412142668297"><ele>41.0</ele><time>2026-04-26T19:16:10Z</time></trkpt><trkpt lat="45.40678331494391" lon="11.07580761757379"><ele>41.0</ele><time>2026-04-26T19:16:11Z</time></trkpt><trkpt lat="45.40688951832252" lon="11.07620463115285"><ele>41.0</ele><time>2026-04-26T19:16:12Z</time></trkpt><trkpt lat="45.406995651953" lon="11.076602969665094"><ele>41.0</ele><time>2026-04-26T19:16:13Z</time></trkpt><trkpt lat="45.40710572918654" lon="11.077002456173172"><ele>41.0</ele><time>2026-04-26T19:16:14Z</time></trkpt><trkpt lat="45.40722026626267" lon="11.077398207524949"><ele>42.5</ele><time>2026-04-26T19:16:15Z</time></trkpt><trkpt lat="45.407337197060286" lon="11.07779938199392"><ele>44.0</ele><time>2026-04-26T19:16:16Z</time></trkpt><trkpt lat="45.407453963929136" lon="11.078203081315586"><ele>43.5</ele><time>2026-04-26T19:16:17Z</time></trkpt><trkpt lat="45.407566723750975" lon="11.078609873371954"><ele>43.0</ele><time>2026-04-26T19:16:18Z</time></trkpt><trkpt lat="45.40767641717336" lon="11.079018724626799"><ele>41.5</ele><time>2026-04-26T19:16:19Z</time></trkpt><trkpt lat="45.407784442310934" lon="11.079426964514221"><ele>40.0</ele><time>2026-04-26T19:16:20Z</time></trkpt><trkpt lat="45.40789266870116" lon="11.079834524020098"><ele>41.5</ele><time>2026-04-26T19:16:21Z</time></trkpt><trkpt lat="45.4080018182395" lon="11.080240704321042"><ele>43.0</ele><time>2026-04-26T19:16:22Z</time></trkpt><trkpt lat="45.40811004268194" lon="11.080646507680937"><ele>43.5</ele><time>2026-04-26T19:16:23Z</time></trkpt><trkpt lat="45.40821860191654" lon="11.081051873869633"><ele>44.0</ele><time>2026-04-26T19:16:24Z</time></trkpt><trkpt lat="45.40832773432779" lon="11.081457281810914"><ele>43.5</ele><time>2026-04-26T19:16:25Z</time></trkpt><trkpt lat="45.40843726121984" lon="11.081862466868204"><ele>43.0</ele><time>2026-04-26T19:16:26Z</time></trkpt><trkpt lat="45.408545740342134" lon="11.082266718165886"><ele>44.0</ele><time>2026-04-26T19:16:27Z</time></trkpt><trkpt lat="45.4086547036704" lon="11.08267084273911"><ele>45.0</ele><time>2026-04-26T19:16:28Z</time></trkpt><trkpt lat="45.408761356095184" lon="11.083072579785641"><ele>44.5</ele><time>2026-04-26T19:16:29Z</time></trkpt><trkpt lat="45.40887202699419" lon="11.083474118594994"><ele>44.0</ele><time>2026-04-26T19:16:30Z</time></trkpt><trkpt lat="45.4089864962988" lon="11.08387241337248"><ele>44.0</ele><time>2026-04-26T19:16:31Z</time></trkpt><trkpt lat="45.40910133140762" lon="11.084267250423176"><ele>44.0</ele><time>2026-04-26T19:16:32Z</time></trkpt><trkpt lat="45.40921627413622" lon="11.084663855501102"><ele>44.0</ele><time>2026-04-26T19:16:33Z</time></trkpt><trkpt lat="45.409325370752185" lon="11.085064124782699"><ele>44.0</ele><time>2026-04-26T19:16:34Z</time></trkpt><trkpt lat="45.40943154666809" lon="11.08546695006413"><ele>44.0</ele><time>2026-04-26T19:16:35Z</time></trkpt><trkpt lat="45.409539575959684" lon="11.085871247805887"><ele>44.0</ele><time>2026-04-26T19:16:36Z</time></trkpt><trkpt lat="45.40964809316912" lon="11.08627669060622"><ele>44.5</ele><time>2026-04-26T19:16:37Z</time></trkpt><trkpt lat="45.40975733337811" lon="11.086684308883735"><ele>45.0</ele><time>2026-04-26T19:16:38Z</time></trkpt><trkpt lat="45.40986621807382" lon="11.08709363869869"><ele>45.0</ele><time>2026-04-26T19:16:39Z</time></trkpt><trkpt lat="45.40997426047529" lon="11.087504835109181"><ele>45.0</ele><time>2026-04-26T19:16:40Z</time></trkpt><trkpt lat="45.41008308996535" lon="11.087918501985003"><ele>44.5</ele><time>2026-04-26T19:16:41Z</time></trkpt><trkpt lat="45.410192186518124" lon="11.088329198973357"><ele>44.0</ele><time>2026-04-26T19:16:42Z</time></trkpt><trkpt lat="45.41030248161602" lon="11.088735522749916"><ele>44.0</ele><time>2026-04-26T19:16:43Z</time></trkpt><trkpt lat="45.41041344365318" lon="11.089139832212139"><ele>44.0</ele><time>2026-04-26T19:16:44Z</time></trkpt><trkpt lat="45.41052235555234" lon="11.089545526576432"><ele>44.0</ele><time>2026-04-26T19:16:45Z</time></trkpt><trkpt lat="45.41062972989438" lon="11.08995309450047"><ele>44.0</ele><time>2026-04-26T19:16:46Z</time></trkpt><trkpt lat="45.41073897200728" lon="11.090357054525285"><ele>44.0</ele><time>2026-04-26T19:16:47Z</time></trkpt><trkpt lat="45.41084720458975" lon="11.090756107233462"><ele>44.0</ele><time>2026-04-26T19:16:48Z</time></trkpt><trkpt lat="45.41095352950338" lon="11.091153394774732"><ele>45.5</ele><time>2026-04-26T19:16:49Z</time></trkpt><trkpt lat="45.41105926492019" lon="11.091552203580997"><ele>47.0</ele><time>2026-04-26T19:16:50Z</time></trkpt><trkpt lat="45.4111636573612" lon="11.09195117140342"><ele>47.5</ele><time>2026-04-26T19:16:51Z</time></trkpt><trkpt lat="45.411269475069886" lon="11.09234989529574"><ele>48.0</ele><time>2026-04-26T19:16:52Z</time></trkpt><trkpt lat="45.41137747660715" lon="11.092749515536473"><ele>47.0</ele><time>2026-04-26T19:16:53Z</time></trkpt><trkpt lat="45.411483377400295" lon="11.093151155771777"><ele>46.0</ele><time>2026-04-26T19:16:54Z</time></trkpt><trkpt lat="45.41159014138644" lon="11.09355695689307"><ele>46.0</ele><time>2026-04-26T19:16:55Z</time></trkpt><trkpt lat="45.41169801898121" lon="11.093965722179467"><ele>46.0</ele><time>2026-04-26T19:16:56Z</time></trkpt><trkpt lat="45.41180714021148" lon="11.094374706549967"><ele>47.0</ele><time>2026-04-26T19:16:57Z</time></trkpt><trkpt lat="45.411916762005426" lon="11.094786202193847"><ele>48.0</ele><time>2026-04-26T19:16:58Z</time></trkpt><trkpt lat="45.41202726820081" lon="11.095195710679725"><ele>48.0</ele><time>2026-04-26T19:16:59Z</time></trkpt><trkpt lat="45.41213787375983" lon="11.095602721394778"><ele>48.0</ele><time>2026-04-26T19:17:00Z</time></trkpt><trkpt lat="45.41224688183739" lon="11.096010969364398"><ele>48.0</ele><time>2026-04-26T19:17:01Z</time></trkpt><trkpt lat="45.412355499003716" lon="11.096420956905995"><ele>48.0</ele><time>2026-04-26T19:17:02Z</time></trkpt><trkpt lat="45.41245850655064" lon="11.096836227011321"><ele>47.0</ele><time>2026-04-26T19:17:03Z</time></trkpt><trkpt lat="45.412560225815966" lon="11.097254686611985"><ele>46.0</ele><time>2026-04-26T19:17:04Z</time></trkpt><trkpt lat="45.412667188069314" lon="11.097688568068843"><ele>45.5</ele><time>2026-04-26T19:17:05Z</time></trkpt><trkpt lat="45.41276890352637" lon="11.09811158870799"><ele>45.0</ele><time>2026-04-26T19:17:06Z</time></trkpt><trkpt lat="45.41286882531337" lon="11.098524550521086"><ele>45.5</ele><time>2026-04-26T19:17:07Z</time></trkpt><trkpt lat="45.412965657284325" lon="11.098942402237066"><ele>46.0</ele><time>2026-04-26T19:17:08Z</time></trkpt><trkpt lat="45.41306176616556" lon="11.099333578277282"><ele>46.0</ele><time>2026-04-26T19:17:09Z</time></trkpt><trkpt lat="45.41316522411672" lon="11.099692919659141"><ele>46.0</ele><time>2026-04-26T19:17:10Z</time></trkpt><trkpt lat="45.41327569891867" lon="11.10005091138918"><ele>45.0</ele><time>2026-04-26T19:17:11Z</time></trkpt><trkpt lat="45.413385994951284" lon="11.100423740728996"><ele>44.0</ele><time>2026-04-26T19:17:12Z</time></trkpt><trkpt lat="45.41349122082838" lon="11.100810100505965"><ele>44.0</ele><time>2026-04-26T19:17:13Z</time></trkpt><trkpt lat="45.413599612175055" lon="11.101200772875739"><ele>44.0</ele><time>2026-04-26T19:17:14Z</time></trkpt><trkpt lat="45.41372110662841" lon="11.101601913118433"><ele>43.5</ele><time>2026-04-26T19:17:15Z</time></trkpt><trkpt lat="45.413845973037795" lon="11.102015422505778"><ele>43.0</ele><time>2026-04-26T19:17:16Z</time></trkpt><trkpt lat="45.4139658213556" lon="11.102441404614476"><ele>43.0</ele><time>2026-04-26T19:17:17Z</time></trkpt><trkpt lat="45.41407869785995" lon="11.1028704992527"><ele>43.0</ele><time>2026-04-26T19:17:18Z</time></trkpt><trkpt lat="45.41419188429515" lon="11.103302132173003"><ele>43.5</ele><time>2026-04-26T19:17:19Z</time></trkpt><trkpt lat="45.414306877018035" lon="11.103731721861564"><ele>44.0</ele><time>2026-04-26T19:17:20Z</time></trkpt><trkpt lat="45.41442065861264" lon="11.104161145886414"><ele>44.0</ele><time>2026-04-26T19:17:21Z</time></trkpt><trkpt lat="45.414526815465926" lon="11.104594077209036"><ele>44.0</ele><time>2026-04-26T19:17:22Z</time></trkpt><trkpt lat="45.414629887141224" lon="11.105027109381226"><ele>44.0</ele><time>2026-04-26T19:17:23Z</time></trkpt><trkpt lat="45.41473553394275" lon="11.10545191075993"><ele>44.0</ele><time>2026-04-26T19:17:24Z</time></trkpt><trkpt lat="45.41484603833205" lon="11.105870104615992"><ele>44.0</ele><time>2026-04-26T19:17:25Z</time></trkpt><trkpt lat="45.41495515010234" lon="11.106282994978718"><ele>44.0</ele><time>2026-04-26T19:17:26Z</time></trkpt><trkpt lat="45.41506352248374" lon="11.106691906356458"><ele>44.0</ele><time>2026-04-26T19:17:27Z</time></trkpt><trkpt lat="45.415173167794954" lon="11.107108128899593"><ele>44.0</ele><time>2026-04-26T19:17:28Z</time></trkpt><trkpt lat="45.4152857485981" lon="11.10752259604177"><ele>42.5</ele><time>2026-04-26T19:17:29Z</time></trkpt><trkpt lat="45.41539933798127" lon="11.107932386199181"><ele>41.0</ele><time>2026-04-26T19:17:30Z</time></trkpt><trkpt lat="45.41551959370872" lon="11.108338985162769"><ele>41.0</ele><time>2026-04-26T19:17:31Z</time></trkpt><trkpt lat="45.415644445874456" lon="11.108743907999004"><ele>41.0</ele><time>2026-04-26T19:17:32Z</time></trkpt><trkpt lat="45.415773032777004" lon="11.109148086205613"><ele>41.0</ele><time>2026-04-26T19:17:33Z</time></trkpt><trkpt lat="45.41590535074607" lon="11.109549303243696"><ele>41.0</ele><time>2026-04-26T19:17:34Z</time></trkpt><trkpt lat="45.416040765829855" lon="11.109946424381437"><ele>40.5</ele><time>2026-04-26T19:17:35Z</time></trkpt><trkpt lat="45.416179995611635" lon="11.110343503383957"><ele>40.0</ele><time>2026-04-26T19:17:36Z</time></trkpt><trkpt lat="45.416321721823735" lon="11.11074578399223"><ele>41.0</ele><time>2026-04-26T19:17:37Z</time></trkpt><trkpt lat="45.41646411853639" lon="11.111148458897798"><ele>42.0</ele><time>2026-04-26T19:17:38Z</time></trkpt><trkpt lat="45.41660687852135" lon="11.111552051127795"><ele>42.0</ele><time>2026-04-26T19:17:39Z</time></trkpt><trkpt lat="45.41674993864715" lon="11.111955948846001"><ele>42.0</ele><time>2026-04-26T19:17:40Z</time></trkpt><trkpt lat="45.41689230022109" lon="11.112359375765111"><ele>42.0</ele><time>2026-04-26T19:17:41Z</time></trkpt><trkpt lat="45.41703388790859" lon="11.112763524756707"><ele>42.0</ele><time>2026-04-26T19:17:42Z</time></trkpt><trkpt lat="45.417174366180454" lon="11.11316749037188"><ele>44.0</ele><time>2026-04-26T19:17:43Z</time></trkpt><trkpt lat="45.41731566203867" lon="11.113570506130136"><ele>46.0</ele><time>2026-04-26T19:17:44Z</time></trkpt><trkpt lat="45.41745862450954" lon="11.113972533904347"><ele>45.5</ele><time>2026-04-26T19:17:45Z</time></trkpt><trkpt lat="45.41760285613573" lon="11.114374827296498"><ele>45.0</ele><time>2026-04-26T19:17:46Z</time></trkpt><trkpt lat="45.41774520206455" lon="11.11477847454805"><ele>45.0</ele><time>2026-04-26T19:17:47Z</time></trkpt><trkpt lat="45.41788509217667" lon="11.115182064539352"><ele>45.0</ele><time>2026-04-26T19:17:48Z</time></trkpt><trkpt lat="45.41802654532557" lon="11.115582898737605"><ele>46.5</ele><time>2026-04-26T19:17:49Z</time></trkpt><trkpt lat="45.418167640877996" lon="11.11598326307262"><ele>48.0</ele><time>2026-04-26T19:17:50Z</time></trkpt><trkpt lat="45.418308714088234" lon="11.11638224546797"><ele>47.0</ele><time>2026-04-26T19:17:51Z</time></trkpt><trkpt lat="45.418450554528796" lon="11.116782026509496"><ele>46.0</ele><time>2026-04-26T19:17:52Z</time></trkpt><trkpt lat="45.41859429112867" lon="11.1171821111245"><ele>46.0</ele><time>2026-04-26T19:17:53Z</time></trkpt><trkpt lat="45.41873916353229" lon="11.117583703380522"><ele>46.0</ele><time>2026-04-26T19:17:54Z</time></trkpt><trkpt lat="45.41888343554889" lon="11.117981829284046"><ele>46.0</ele><time>2026-04-26T19:17:55Z</time></trkpt><trkpt lat="45.419029099466314" lon="11.118373315253546"><ele>46.0</ele><time>2026-04-26T19:17:56Z</time></trkpt><trkpt lat="45.41918011259867" lon="11.118764523286062"><ele>45.5</ele><time>2026-04-26T19:17:57Z</time></trkpt><trkpt lat="45.419328621397305" lon="11.119158450425372"><ele>45.0</ele><time>2026-04-26T19:17:58Z</time></trkpt><trkpt lat="45.41947623115306" lon="11.119555497380983"><ele>44.0</ele><time>2026-04-26T19:17:59Z</time></trkpt><trkpt lat="45.41961904829272" lon="11.119957102357372"><ele>43.0</ele><time>2026-04-26T19:18:00Z</time></trkpt><trkpt lat="45.419755711768246" lon="11.12036564598268"><ele>42.0</ele><time>2026-04-26T19:18:01Z</time></trkpt><trkpt lat="45.41988626111497" lon="11.120779403992795"><ele>41.0</ele><time>2026-04-26T19:18:02Z</time></trkpt><trkpt lat="45.42001752346467" lon="11.121192776939807"><ele>41.0</ele><time>2026-04-26T19:18:03Z</time></trkpt><trkpt lat="45.42015351699313" lon="11.121602242979217"><ele>41.0</ele><time>2026-04-26T19:18:04Z</time></trkpt><trkpt lat="45.42029104721395" lon="11.12200714567849"><ele>41.0</ele><time>2026-04-26T19:18:05Z</time></trkpt><trkpt lat="45.4204243047022" lon="11.122412607109869"><ele>41.0</ele><time>2026-04-26T19:18:06Z</time></trkpt><trkpt lat="45.42054989266176" lon="11.122822666858438"><ele>43.5</ele><time>2026-04-26T19:18:07Z</time></trkpt><trkpt lat="45.420671358995286" lon="11.123238209828964"><ele>46.0</ele><time>2026-04-26T19:18:08Z</time></trkpt><trkpt lat="45.42078726138717" lon="11.123658479070928"><ele>45.5</ele><time>2026-04-26T19:18:09Z</time></trkpt><trkpt lat="45.420899263404266" lon="11.124082537575498"><ele>45.0</ele><time>2026-04-26T19:18:10Z</time></trkpt><trkpt lat="45.42100376923196" lon="11.124509849821845"><ele>43.5</ele><time>2026-04-26T19:18:11Z</time></trkpt><trkpt lat="45.421105992423506" lon="11.124938393465197"><ele>42.0</ele><time>2026-04-26T19:18:12Z</time></trkpt><trkpt lat="45.4212013371631" lon="11.125369835452712"><ele>42.0</ele><time>2026-04-26T19:18:13Z</time></trkpt><trkpt lat="45.42129051939725" lon="11.125803191226321"><ele>42.0</ele><time>2026-04-26T19:18:14Z</time></trkpt><trkpt lat="45.42137289896769" lon="11.126237752365745"><ele>42.0</ele><time>2026-04-26T19:18:15Z</time></trkpt><trkpt lat="45.42144825781938" lon="11.126672336012803"><ele>42.0</ele><time>2026-04-26T19:18:16Z</time></trkpt><trkpt lat="45.421516755060715" lon="11.127110833875474"><ele>41.5</ele><time>2026-04-26T19:18:17Z</time></trkpt><trkpt lat="45.4215788887359" lon="11.127551335657412"><ele>41.0</ele><time>2026-04-26T19:18:18Z</time></trkpt><trkpt lat="45.42163572177873" lon="11.127994054874648"><ele>41.5</ele><time>2026-04-26T19:18:19Z</time></trkpt><trkpt lat="45.4216885964147" lon="11.12843855519704"><ele>42.0</ele><time>2026-04-26T19:18:20Z</time></trkpt><trkpt lat="45.42173699778629" lon="11.128884560950771"><ele>42.0</ele><time>2026-04-26T19:18:21Z</time></trkpt><trkpt lat="45.42178339809648" lon="11.129331060240757"><ele>42.0</ele><time>2026-04-26T19:18:22Z</time></trkpt><trkpt lat="45.42182353034137" lon="11.129777844329013"><ele>42.0</ele><time>2026-04-26T19:18:23Z</time></trkpt><trkpt lat="45.42185637029974" lon="11.130225017784243"><ele>42.0</ele><time>2026-04-26T19:18:24Z</time></trkpt><trkpt lat="45.42188437832964" lon="11.130672845227073"><ele>42.0</ele><time>2026-04-26T19:18:25Z</time></trkpt><trkpt lat="45.42190771892961" lon="11.131118979892998"><ele>42.0</ele><time>2026-04-26T19:18:26Z</time></trkpt><trkpt lat="45.421925724395884" lon="11.131565245480202"><ele>42.0</ele><time>2026-04-26T19:18:27Z</time></trkpt><trkpt lat="45.42193771528736" lon="11.13201078112416"><ele>42.0</ele><time>2026-04-26T19:18:28Z</time></trkpt><trkpt lat="45.421941818193645" lon="11.132456957252453"><ele>43.0</ele><time>2026-04-26T19:18:29Z</time></trkpt><trkpt lat="45.4219388478994" lon="11.132904604421825"><ele>44.0</ele><time>2026-04-26T19:18:30Z</time></trkpt><trkpt lat="45.42193083984945" lon="11.133349537935034"><ele>44.0</ele><time>2026-04-26T19:18:31Z</time></trkpt><trkpt lat="45.42192053872797" lon="11.133794036665986"><ele>44.0</ele><time>2026-04-26T19:18:32Z</time></trkpt><trkpt lat="45.42190284908863" lon="11.134237119591445"><ele>44.0</ele><time>2026-04-26T19:18:33Z</time></trkpt><trkpt lat="45.421879253798544" lon="11.134677247495336"><ele>44.0</ele><time>2026-04-26T19:18:34Z</time></trkpt><trkpt lat="45.421851358677806" lon="11.13511527101211"><ele>44.5</ele><time>2026-04-26T19:18:35Z</time></trkpt><trkpt lat="45.421820202215315" lon="11.135545180254923"><ele>45.0</ele><time>2026-04-26T19:18:36Z</time></trkpt><trkpt lat="45.42179226863506" lon="11.135949073578333"><ele>45.0</ele><time>2026-04-26T19:18:37Z</time></trkpt><trkpt lat="45.421776476227095" lon="11.136343885047978"><ele>45.0</ele><time>2026-04-26T19:18:38Z</time></trkpt><trkpt lat="45.42176364278435" lon="11.136767975373061"><ele>45.5</ele><time>2026-04-26T19:18:39Z</time></trkpt><trkpt lat="45.42174226813512" lon="11.137206225419924"><ele>46.0</ele><time>2026-04-26T19:18:40Z</time></trkpt><trkpt lat="45.42171130974756" lon="11.137656546134062"><ele>46.0</ele><time>2026-04-26T19:18:41Z</time></trkpt><trkpt lat="45.42167116368372" lon="11.13810678192353"><ele>46.0</ele><time>2026-04-26T19:18:42Z</time></trkpt><trkpt lat="45.4216242880167" lon="11.138552740111132"><ele>46.0</ele><time>2026-04-26T19:18:43Z</time></trkpt><trkpt lat="45.421576548007046" lon="11.1389952908456"><ele>46.0</ele><time>2026-04-26T19:18:44Z</time></trkpt><trkpt lat="45.42152963129373" lon="11.139436463830803"><ele>46.5</ele><time>2026-04-26T19:18:45Z</time></trkpt><trkpt lat="45.42148920730062" lon="11.139879225696284"><ele>47.0</ele><time>2026-04-26T19:18:46Z</time></trkpt><trkpt lat="45.421452662104166" lon="11.14031949284752"><ele>46.0</ele><time>2026-04-26T19:18:47Z</time></trkpt><trkpt lat="45.42141664145186" lon="11.140757425209063"><ele>45.0</ele><time>2026-04-26T19:18:48Z</time></trkpt><trkpt lat="45.42137960625749" lon="11.141194070315064"><ele>45.0</ele><time>2026-04-26T19:18:49Z</time></trkpt><trkpt lat="45.42134401281421" lon="11.141628791254382"><ele>45.0</ele><time>2026-04-26T19:18:50Z</time></trkpt><trkpt lat="45.421308927898" lon="11.142065238293226"><ele>45.5</ele><time>2026-04-26T19:18:51Z</time></trkpt><trkpt lat="45.421273564569844" lon="11.142502036759852"><ele>46.0</ele><time>2026-04-26T19:18:52Z</time></trkpt><trkpt lat="45.42123856740431" lon="11.142940553740747"><ele>46.0</ele><time>2026-04-26T19:18:53Z</time></trkpt><trkpt lat="45.421202893609156" lon="11.14337823821159"><ele>46.0</ele><time>2026-04-26T19:18:54Z</time></trkpt><trkpt lat="45.421167378407894" lon="11.143816297388463"><ele>46.5</ele><time>2026-04-26T19:18:55Z</time></trkpt><trkpt lat="45.42113029533198" lon="11.144254603986598"><ele>47.0</ele><time>2026-04-26T19:18:56Z</time></trkpt><trkpt lat="45.421092738716496" lon="11.144693137121415"><ele>47.0</ele><time>2026-04-26T19:18:57Z</time></trkpt><trkpt lat="45.42105469104819" lon="11.145131274050566"><ele>47.0</ele><time>2026-04-26T19:18:58Z</time></trkpt><trkpt lat="45.42102228573084" lon="11.145566959204386"><ele>46.5</ele><time>2026-04-26T19:18:59Z</time></trkpt><trkpt lat="45.42099896078239" lon="11.146004921177209"><ele>46.0</ele><time>2026-04-26T19:19:00Z</time></trkpt><trkpt lat="45.420974146712005" lon="11.14644872724448"><ele>46.0</ele><time>2026-04-26T19:19:01Z</time></trkpt><trkpt lat="45.42094326990985" lon="11.146893724308441"><ele>46.0</ele><time>2026-04-26T19:19:02Z</time></trkpt><trkpt lat="45.42090675755612" lon="11.147339593635074"><ele>45.5</ele><time>2026-04-26T19:19:03Z</time></trkpt><trkpt lat="45.420869744373064" lon="11.14778693327684"><ele>45.0</ele><time>2026-04-26T19:19:04Z</time></trkpt><trkpt lat="45.420832698145105" lon="11.148234352280731"><ele>46.0</ele><time>2026-04-26T19:19:05Z</time></trkpt><trkpt lat="45.42079592902705" lon="11.148681345597163"><ele>47.0</ele><time>2026-04-26T19:19:06Z</time></trkpt><trkpt lat="45.420759905325646" lon="11.149128900109508"><ele>47.5</ele><time>2026-04-26T19:19:07Z</time></trkpt><trkpt lat="45.42072245657749" lon="11.149577889731404"><ele>48.0</ele><time>2026-04-26T19:19:08Z</time></trkpt><trkpt lat="45.420684260881636" lon="11.150025045433521"><ele>48.0</ele><time>2026-04-26T19:19:09Z</time></trkpt><trkpt lat="45.4206455507776" lon="11.150473305443922"><ele>48.0</ele><time>2026-04-26T19:19:10Z</time></trkpt><trkpt lat="45.42060882034261" lon="11.150919785086318"><ele>48.0</ele><time>2026-04-26T19:19:11Z</time></trkpt><trkpt lat="45.420573483322386" lon="11.151364879140795"><ele>48.0</ele><time>2026-04-26T19:19:12Z</time></trkpt><trkpt lat="45.42053654540121" lon="11.151809412761146"><ele>48.0</ele><time>2026-04-26T19:19:13Z</time></trkpt><trkpt lat="45.4204989972787" lon="11.152253313026673"><ele>48.0</ele><time>2026-04-26T19:19:14Z</time></trkpt><trkpt lat="45.420464198949226" lon="11.1526960782557"><ele>47.5</ele><time>2026-04-26T19:19:15Z</time></trkpt><trkpt lat="45.42042838008901" lon="11.153137695123258"><ele>47.0</ele><time>2026-04-26T19:19:16Z</time></trkpt><trkpt lat="45.42039311493171" lon="11.153579911142371"><ele>47.0</ele><time>2026-04-26T19:19:17Z</time></trkpt><trkpt lat="45.420355703790605" lon="11.154020559924918"><ele>47.0</ele><time>2026-04-26T19:19:18Z</time></trkpt><trkpt lat="45.42032052953524" lon="11.154461648291432"><ele>48.0</ele><time>2026-04-26T19:19:19Z</time></trkpt><trkpt lat="45.42028505928947" lon="11.154903271064478"><ele>49.0</ele><time>2026-04-26T19:19:20Z</time></trkpt><trkpt lat="45.42024805063687" lon="11.155346791742899"><ele>49.0</ele><time>2026-04-26T19:19:21Z</time></trkpt><trkpt lat="45.420211983972486" lon="11.155793665910428"><ele>49.0</ele><time>2026-04-26T19:19:22Z</time></trkpt><trkpt lat="45.42017377233023" lon="11.156240442989585"><ele>49.0</ele><time>2026-04-26T19:19:23Z</time></trkpt><trkpt lat="45.420137332152976" lon="11.1566868084422"><ele>49.0</ele><time>2026-04-26T19:19:24Z</time></trkpt><trkpt lat="45.42010140475406" lon="11.157134622268314"><ele>49.5</ele><time>2026-04-26T19:19:25Z</time></trkpt><trkpt lat="45.42006560236849" lon="11.15758298197382"><ele>50.0</ele><time>2026-04-26T19:19:26Z</time></trkpt><trkpt lat="45.42003117111336" lon="11.158034329056061"><ele>50.5</ele><time>2026-04-26T19:19:27Z</time></trkpt><trkpt lat="45.420001492627094" lon="11.158487807427983"><ele>51.0</ele><time>2026-04-26T19:19:28Z</time></trkpt><trkpt lat="45.41997855445551" lon="11.15894295863096"><ele>51.0</ele><time>2026-04-26T19:19:29Z</time></trkpt><trkpt lat="45.41995896023499" lon="11.159399777309302"><ele>51.0</ele><time>2026-04-26T19:19:30Z</time></trkpt><trkpt lat="45.419940910560825" lon="11.15985482344176"><ele>51.0</ele><time>2026-04-26T19:19:31Z</time></trkpt><trkpt lat="45.41991991397065" lon="11.160309163355619"><ele>51.0</ele><time>2026-04-26T19:19:32Z</time></trkpt><trkpt lat="45.41990151541393" lon="11.160763086859635"><ele>50.5</ele><time>2026-04-26T19:19:33Z</time></trkpt><trkpt lat="45.41988057423623" lon="11.16121584615548"><ele>50.0</ele><time>2026-04-26T19:19:34Z</time></trkpt><trkpt lat="45.41985808173749" lon="11.161667416785079"><ele>50.0</ele><time>2026-04-26T19:19:35Z</time></trkpt><trkpt lat="45.419834243323095" lon="11.162116650352766"><ele>50.0</ele><time>2026-04-26T19:19:36Z</time></trkpt><trkpt lat="45.41981333560987" lon="11.16256651517823"><ele>50.0</ele><time>2026-04-26T19:19:37Z</time></trkpt><trkpt lat="45.41979224394903" lon="11.163015743002758"><ele>50.0</ele><time>2026-04-26T19:19:38Z</time></trkpt><trkpt lat="45.41976989310976" lon="11.163464545033449"><ele>50.5</ele><time>2026-04-26T19:19:39Z</time></trkpt><trkpt lat="45.419748624761425" lon="11.163912890851686"><ele>51.0</ele><time>2026-04-26T19:19:40Z</time></trkpt><trkpt lat="45.41972608909888" lon="11.164364379777764"><ele>51.0</ele><time>2026-04-26T19:19:41Z</time></trkpt><trkpt lat="45.41970561680308" lon="11.164816776896833"><ele>51.0</ele><time>2026-04-26T19:19:42Z</time></trkpt><trkpt lat="45.41968320911887" lon="11.165268318381615"><ele>51.0</ele><time>2026-04-26T19:19:43Z</time></trkpt><trkpt lat="45.41965087915272" lon="11.165719435078525"><ele>51.0</ele><time>2026-04-26T19:19:44Z</time></trkpt><trkpt lat="45.41961387417119" lon="11.166171351474896"><ele>50.0</ele><time>2026-04-26T19:19:45Z</time></trkpt><trkpt lat="45.419575481087925" lon="11.166623804766438"><ele>49.0</ele><time>2026-04-26T19:19:46Z</time></trkpt><trkpt lat="45.41954129010225" lon="11.16707696953414"><ele>48.5</ele><time>2026-04-26T19:19:47Z</time></trkpt><trkpt lat="45.419513704001865" lon="11.167530444100787"><ele>48.0</ele><time>2026-04-26T19:19:48Z</time></trkpt><trkpt lat="45.41949243193643" lon="11.167985073380812"><ele>47.5</ele><time>2026-04-26T19:19:49Z</time></trkpt><trkpt lat="45.41947299071204" lon="11.168442600172607"><ele>47.0</ele><time>2026-04-26T19:19:50Z</time></trkpt><trkpt lat="45.419452567312426" lon="11.16890070611899"><ele>47.5</ele><time>2026-04-26T19:19:51Z</time></trkpt><trkpt lat="45.419431875866955" lon="11.16935900305828"><ele>48.0</ele><time>2026-04-26T19:19:52Z</time></trkpt><trkpt lat="45.41941048642954" lon="11.169814790240347"><ele>47.5</ele><time>2026-04-26T19:19:53Z</time></trkpt><trkpt lat="45.41938971144059" lon="11.170268842179809"><ele>47.0</ele><time>2026-04-26T19:19:54Z</time></trkpt><trkpt lat="45.41936771921058" lon="11.170722663819634"><ele>48.0</ele><time>2026-04-26T19:19:55Z</time></trkpt><trkpt lat="45.419343999523974" lon="11.171174713945321"><ele>49.0</ele><time>2026-04-26T19:19:56Z</time></trkpt><trkpt lat="45.41931731302818" lon="11.171627225065627"><ele>50.0</ele><time>2026-04-26T19:19:57Z</time></trkpt><trkpt lat="45.4192838330256" lon="11.172081686988784"><ele>51.0</ele><time>2026-04-26T19:19:58Z</time></trkpt><trkpt lat="45.41924339411888" lon="11.172536137295028"><ele>51.5</ele><time>2026-04-26T19:19:59Z</time></trkpt><trkpt lat="45.41919616266331" lon="11.172989276195244"><ele>52.0</ele><time>2026-04-26T19:20:00Z</time></trkpt><trkpt lat="45.41914315655166" lon="11.173442708263785"><ele>52.0</ele><time>2026-04-26T19:20:01Z</time></trkpt><trkpt lat="45.41908502634592" lon="11.173894629464378"><ele>52.0</ele><time>2026-04-26T19:20:02Z</time></trkpt><trkpt lat="45.41902247287976" lon="11.17434495841164"><ele>51.5</ele><time>2026-04-26T19:20:03Z</time></trkpt><trkpt lat="45.41895490199112" lon="11.17479354898841"><ele>51.0</ele><time>2026-04-26T19:20:04Z</time></trkpt><trkpt lat="45.418881348388034" lon="11.175239092525374"><ele>52.0</ele><time>2026-04-26T19:20:05Z</time></trkpt><trkpt lat="45.418800151553945" lon="11.175680335502406"><ele>53.0</ele><time>2026-04-26T19:20:06Z</time></trkpt><trkpt lat="45.41871402574149" lon="11.176121618179595"><ele>52.0</ele><time>2026-04-26T19:20:07Z</time></trkpt><trkpt lat="45.41862437119533" lon="11.176561681258873"><ele>51.0</ele><time>2026-04-26T19:20:08Z</time></trkpt><trkpt lat="45.418527815691576" lon="11.17699925834588"><ele>51.0</ele><time>2026-04-26T19:20:09Z</time></trkpt><trkpt lat="45.4184232764034" lon="11.177434397017828"><ele>51.0</ele><time>2026-04-26T19:20:10Z</time></trkpt><trkpt lat="45.41831723751418" lon="11.177869755054271"><ele>51.5</ele><time>2026-04-26T19:20:11Z</time></trkpt><trkpt lat="45.4182110583797" lon="11.178306118658888"><ele>52.0</ele><time>2026-04-26T19:20:12Z</time></trkpt><trkpt lat="45.41810925529883" lon="11.17874407340747"><ele>52.0</ele><time>2026-04-26T19:20:13Z</time></trkpt><trkpt lat="45.41801085867575" lon="11.179182811554334"><ele>52.0</ele><time>2026-04-26T19:20:14Z</time></trkpt><trkpt lat="45.41791186476099" lon="11.179623468049197"><ele>51.5</ele><time>2026-04-26T19:20:15Z</time></trkpt><trkpt lat="45.417812989660966" lon="11.18006466121158"><ele>51.0</ele><time>2026-04-26T19:20:16Z</time></trkpt><trkpt lat="45.41771335498506" lon="11.180498089084145"><ele>51.5</ele><time>2026-04-26T19:20:17Z</time></trkpt><trkpt lat="45.41762085102922" lon="11.180908027695152"><ele>52.0</ele><time>2026-04-26T19:20:18Z</time></trkpt><trkpt lat="45.41752433537042" lon="11.181330004425014"><ele>52.0</ele><time>2026-04-26T19:20:19Z</time></trkpt><trkpt lat="45.41742545717449" lon="11.181758370163509"><ele>52.0</ele><time>2026-04-26T19:20:20Z</time></trkpt><trkpt lat="45.41732598476687" lon="11.182189294413094"><ele>51.5</ele><time>2026-04-26T19:20:21Z</time></trkpt><trkpt lat="45.417224951182" lon="11.182623204855103"><ele>51.0</ele><time>2026-04-26T19:20:22Z</time></trkpt><trkpt lat="45.41712461225386" lon="11.183059659698639"><ele>50.5</ele><time>2026-04-26T19:20:23Z</time></trkpt><trkpt lat="45.417024815459285" lon="11.183498812761627"><ele>50.0</ele><time>2026-04-26T19:20:24Z</time></trkpt><trkpt lat="45.41692429285156" lon="11.183939197230195"><ele>50.0</ele><time>2026-04-26T19:20:25Z</time></trkpt><trkpt lat="45.41682446345722" lon="11.184375278443538"><ele>50.0</ele><time>2026-04-26T19:20:26Z</time></trkpt><trkpt lat="45.416724165793475" lon="11.184813926681652"><ele>51.0</ele><time>2026-04-26T19:20:27Z</time></trkpt><trkpt lat="45.41662276368465" lon="11.185253785034233"><ele>52.0</ele><time>2026-04-26T19:20:28Z</time></trkpt><trkpt lat="45.41652345569326" lon="11.185694406455887"><ele>54.5</ele><time>2026-04-26T19:20:29Z</time></trkpt><trkpt lat="45.416425572889004" lon="11.18613488500871"><ele>57.0</ele><time>2026-04-26T19:20:30Z</time></trkpt><trkpt lat="45.41632688152093" lon="11.186573502194015"><ele>54.0</ele><time>2026-04-26T19:20:31Z</time></trkpt><trkpt lat="45.416226370022294" lon="11.18701294146085"><ele>51.0</ele><time>2026-04-26T19:20:32Z</time></trkpt><trkpt lat="45.41612557778645" lon="11.187454824900268"><ele>51.0</ele><time>2026-04-26T19:20:33Z</time></trkpt><trkpt lat="45.41602418625261" lon="11.187901022219792"><ele>51.0</ele><time>2026-04-26T19:20:34Z</time></trkpt><trkpt lat="45.41592056712852" lon="11.18834412830326"><ele>51.0</ele><time>2026-04-26T19:20:35Z</time></trkpt><trkpt lat="45.41581922711903" lon="11.18878787188181"><ele>51.0</ele><time>2026-04-26T19:20:36Z</time></trkpt><trkpt lat="45.41571869540643" lon="11.189233737634403"><ele>50.0</ele><time>2026-04-26T19:20:37Z</time></trkpt><trkpt lat="45.415617799538055" lon="11.18967727636845"><ele>49.0</ele><time>2026-04-26T19:20:38Z</time></trkpt><trkpt lat="45.415520264715944" lon="11.190116087631553"><ele>47.0</ele><time>2026-04-26T19:20:39Z</time></trkpt><trkpt lat="45.41542648461296" lon="11.190551789666893"><ele>45.0</ele><time>2026-04-26T19:20:40Z</time></trkpt><trkpt lat="45.41533518102459" lon="11.190996710639823"><ele>45.0</ele><time>2026-04-26T19:20:41Z</time></trkpt><trkpt lat="45.41524888136922" lon="11.191446810769923"><ele>45.0</ele><time>2026-04-26T19:20:42Z</time></trkpt><trkpt lat="45.41516785513397" lon="11.191900289162268"><ele>44.5</ele><time>2026-04-26T19:20:43Z</time></trkpt><trkpt lat="45.41508944107959" lon="11.19235777222935"><ele>44.0</ele><time>2026-04-26T19:20:44Z</time></trkpt><trkpt lat="45.41501465665738" lon="11.192811401760125"><ele>42.5</ele><time>2026-04-26T19:20:45Z</time></trkpt><trkpt lat="45.414944884209824" lon="11.193265289303632"><ele>41.0</ele><time>2026-04-26T19:20:46Z</time></trkpt><trkpt lat="45.41487931660556" lon="11.19372296962562"><ele>40.0</ele><time>2026-04-26T19:20:47Z</time></trkpt><trkpt lat="45.4148182998911" lon="11.194183238249453"><ele>39.0</ele><time>2026-04-26T19:20:48Z</time></trkpt><trkpt lat="45.41476063507673" lon="11.194644265069124"><ele>38.5</ele><time>2026-04-26T19:20:49Z</time></trkpt><trkpt lat="45.414705514692606" lon="11.195103913108477"><ele>38.0</ele><time>2026-04-26T19:20:50Z</time></trkpt><trkpt lat="45.41465565353157" lon="11.195565289613429"><ele>37.5</ele><time>2026-04-26T19:20:51Z</time></trkpt><trkpt lat="45.4146101056137" lon="11.196026363147784"><ele>37.0</ele><time>2026-04-26T19:20:52Z</time></trkpt><trkpt lat="45.414567681201994" lon="11.196486271330683"><ele>36.5</ele><time>2026-04-26T19:20:53Z</time></trkpt><trkpt lat="45.41452453927168" lon="11.196943125912304"><ele>36.0</ele><time>2026-04-26T19:20:54Z</time></trkpt><trkpt lat="45.41448099828945" lon="11.197398598782508"><ele>36.0</ele><time>2026-04-26T19:20:55Z</time></trkpt><trkpt lat="45.414435626751285" lon="11.19785258117225"><ele>36.0</ele><time>2026-04-26T19:20:56Z</time></trkpt><trkpt lat="45.4143882634933" lon="11.198308065728893"><ele>36.0</ele><time>2026-04-26T19:20:57Z</time></trkpt><trkpt lat="45.41434227114769" lon="11.198765526207726"><ele>36.0</ele><time>2026-04-26T19:20:58Z</time></trkpt><trkpt lat="45.41429848925931" lon="11.199225261231778"><ele>35.5</ele><time>2026-04-26T19:20:59Z</time></trkpt><trkpt lat="45.41425691862837" lon="11.199686286971396"><ele>35.0</ele><time>2026-04-26T19:21:00Z</time></trkpt><trkpt lat="45.414212614227935" lon="11.200144665016113"><ele>34.0</ele><time>2026-04-26T19:21:01Z</time></trkpt><trkpt lat="45.41416714657519" lon="11.200601669072352"><ele>33.0</ele><time>2026-04-26T19:21:02Z</time></trkpt><trkpt lat="45.41412198401513" lon="11.201058716160322"><ele>32.0</ele><time>2026-04-26T19:21:03Z</time></trkpt><trkpt lat="45.414076837560245" lon="11.201515159556738"><ele>31.0</ele><time>2026-04-26T19:21:04Z</time></trkpt><trkpt lat="45.414033663349755" lon="11.201971498648163"><ele>30.5</ele><time>2026-04-26T19:21:05Z</time></trkpt><trkpt lat="45.41399038481306" lon="11.202427661624665"><ele>30.0</ele><time>2026-04-26T19:21:06Z</time></trkpt><trkpt lat="45.41394747810475" lon="11.202884488661873"><ele>30.0</ele><time>2026-04-26T19:21:07Z</time></trkpt><trkpt lat="45.413903518351866" lon="11.203339530103278"><ele>30.0</ele><time>2026-04-26T19:21:08Z</time></trkpt><trkpt lat="45.4138602284169" lon="11.20379378490219"><ele>28.0</ele><time>2026-04-26T19:21:09Z</time></trkpt><trkpt lat="45.413816551551" lon="11.204248462847016"><ele>26.0</ele><time>2026-04-26T19:21:10Z</time></trkpt><trkpt lat="45.41377217775753" lon="11.204705186523245"><ele>27.0</ele><time>2026-04-26T19:21:11Z</time></trkpt><trkpt lat="45.41372822389016" lon="11.205161354687453"><ele>28.0</ele><time>2026-04-26T19:21:12Z</time></trkpt><trkpt lat="45.41368258769632" lon="11.205620836466986"><ele>28.0</ele><time>2026-04-26T19:21:13Z</time></trkpt><trkpt lat="45.41363875029583" lon="11.206081621524179"><ele>28.0</ele><time>2026-04-26T19:21:14Z</time></trkpt><trkpt lat="45.41359539609705" lon="11.206543315504028"><ele>28.0</ele><time>2026-04-26T19:21:15Z</time></trkpt><trkpt lat="45.41355077082449" lon="11.207003329557361"><ele>28.0</ele><time>2026-04-26T19:21:16Z</time></trkpt><trkpt lat="45.41350616596863" lon="11.207451672495534"><ele>28.0</ele><time>2026-04-26T19:21:17Z</time></trkpt><trkpt lat="45.413462298913934" lon="11.20789372950058"><ele>28.0</ele><time>2026-04-26T19:21:18Z</time></trkpt><trkpt lat="45.413416479829515" lon="11.208340760984871"><ele>28.0</ele><time>2026-04-26T19:21:19Z</time></trkpt><trkpt lat="45.41337000353752" lon="11.208790186941984"><ele>28.0</ele><time>2026-04-26T19:21:20Z</time></trkpt><trkpt lat="45.41332478737556" lon="11.20924081929302"><ele>28.5</ele><time>2026-04-26T19:21:21Z</time></trkpt><trkpt lat="45.41328120956284" lon="11.209689232619517"><ele>29.0</ele><time>2026-04-26T19:21:22Z</time></trkpt><trkpt lat="45.41323945011186" lon="11.210138686132929"><ele>29.0</ele><time>2026-04-26T19:21:23Z</time></trkpt><trkpt lat="45.413196603592496" lon="11.210588426729915"><ele>29.0</ele><time>2026-04-26T19:21:24Z</time></trkpt><trkpt lat="45.413152697567256" lon="11.211036151611683"><ele>29.5</ele><time>2026-04-26T19:21:25Z</time></trkpt><trkpt lat="45.4131158393096" lon="11.211485471195394"><ele>30.0</ele><time>2026-04-26T19:21:26Z</time></trkpt><trkpt lat="45.41307926770468" lon="11.211937506146818"><ele>29.5</ele><time>2026-04-26T19:21:27Z</time></trkpt><trkpt lat="45.41304348848943" lon="11.21239738996401"><ele>29.0</ele><time>2026-04-26T19:21:28Z</time></trkpt><trkpt lat="45.41301030747611" lon="11.212858706330262"><ele>28.5</ele><time>2026-04-26T19:21:29Z</time></trkpt><trkpt lat="45.41297006256846" lon="11.213326256098071"><ele>28.0</ele><time>2026-04-26T19:21:30Z</time></trkpt><trkpt lat="45.41292386318255" lon="11.213794193681101"><ele>29.5</ele><time>2026-04-26T19:21:31Z</time></trkpt><trkpt lat="45.412874281159176" lon="11.214262005787663"><ele>31.0</ele><time>2026-04-26T19:21:32Z</time></trkpt><trkpt lat="45.41282673245616" lon="11.214733174377832"><ele>30.5</ele><time>2026-04-26T19:21:33Z</time></trkpt><trkpt lat="45.412781116321945" lon="11.215202095113732"><ele>30.0</ele><time>2026-04-26T19:21:34Z</time></trkpt><trkpt lat="45.41273715785679" lon="11.215668563422367"><ele>30.0</ele><time>2026-04-26T19:21:35Z</time></trkpt><trkpt lat="45.41269070950344" lon="11.216135475147494"><ele>30.0</ele><time>2026-04-26T19:21:36Z</time></trkpt><trkpt lat="45.41263747388702" lon="11.216600023543648"><ele>30.0</ele><time>2026-04-26T19:21:37Z</time></trkpt><trkpt lat="45.412579443776224" lon="11.217063575266861"><ele>30.0</ele><time>2026-04-26T19:21:38Z</time></trkpt><trkpt lat="45.41252268282866" lon="11.217524701711657"><ele>30.0</ele><time>2026-04-26T19:21:39Z</time></trkpt><trkpt lat="45.412471411085086" lon="11.21798405923407"><ele>30.0</ele><time>2026-04-26T19:21:40Z</time></trkpt><trkpt lat="45.41242621779047" lon="11.218439738183108"><ele>30.0</ele><time>2026-04-26T19:21:41Z</time></trkpt><trkpt lat="45.41238640273609" lon="11.218890970134664"><ele>30.0</ele><time>2026-04-26T19:21:42Z</time></trkpt><trkpt lat="45.41234726250399" lon="11.219343828448066"><ele>30.5</ele><time>2026-04-26T19:21:43Z</time></trkpt><trkpt lat="45.41230530323775" lon="11.219796140709455"><ele>31.0</ele><time>2026-04-26T19:21:44Z</time></trkpt><trkpt lat="45.412262614791175" lon="11.220247696025563"><ele>31.5</ele><time>2026-04-26T19:21:45Z</time></trkpt><trkpt lat="45.41221881755404" lon="11.220696927546335"><ele>32.0</ele><time>2026-04-26T19:21:46Z</time></trkpt><trkpt lat="45.412173981641814" lon="11.221146570954314"><ele>31.0</ele><time>2026-04-26T19:21:47Z</time></trkpt><trkpt lat="45.41212799068407" lon="11.221596160985857"><ele>30.0</ele><time>2026-04-26T19:21:48Z</time></trkpt><trkpt lat="45.41208318913707" lon="11.22204575147235"><ele>29.5</ele><time>2026-04-26T19:21:49Z</time></trkpt><trkpt lat="45.412039129270276" lon="11.222494849054552"><ele>29.0</ele><time>2026-04-26T19:21:50Z</time></trkpt><trkpt lat="45.411997113736895" lon="11.222944338077218"><ele>30.0</ele><time>2026-04-26T19:21:51Z</time></trkpt><trkpt lat="45.41195369280009" lon="11.223391020021571"><ele>31.0</ele><time>2026-04-26T19:21:52Z</time></trkpt><trkpt lat="45.41191139679193" lon="11.223839514700101"><ele>30.5</ele><time>2026-04-26T19:21:53Z</time></trkpt><trkpt lat="45.41186803090872" lon="11.224287234168646"><ele>30.0</ele><time>2026-04-26T19:21:54Z</time></trkpt><trkpt lat="45.411823751137696" lon="11.224733643212144"><ele>30.5</ele><time>2026-04-26T19:21:55Z</time></trkpt><trkpt lat="45.41177924580252" lon="11.225176600047446"><ele>31.0</ele><time>2026-04-26T19:21:56Z</time></trkpt><trkpt lat="45.41173578471992" lon="11.22561872719269"><ele>31.5</ele><time>2026-04-26T19:21:57Z</time></trkpt><trkpt lat="45.411692908981024" lon="11.226058222268136"><ele>32.0</ele><time>2026-04-26T19:21:58Z</time></trkpt><trkpt lat="45.411650768662476" lon="11.226497892821383"><ele>30.5</ele><time>2026-04-26T19:21:59Z</time></trkpt><trkpt lat="45.411610264619654" lon="11.226937330025704"><ele>29.0</ele><time>2026-04-26T19:22:00Z</time></trkpt><trkpt lat="45.41156845966171" lon="11.227375010314455"><ele>28.5</ele><time>2026-04-26T19:22:01Z</time></trkpt><trkpt lat="45.41152859865232" lon="11.227813380007602"><ele>28.0</ele><time>2026-04-26T19:22:02Z</time></trkpt><trkpt lat="45.41149261597068" lon="11.2282508485354"><ele>28.0</ele><time>2026-04-26T19:22:03Z</time></trkpt><trkpt lat="45.411460084861545" lon="11.228692039074833"><ele>28.0</ele><time>2026-04-26T19:22:04Z</time></trkpt><trkpt lat="45.41142622201896" lon="11.229137388939119"><ele>28.0</ele><time>2026-04-26T19:22:05Z</time></trkpt><trkpt lat="45.411389764352656" lon="11.229583445211176"><ele>28.0</ele><time>2026-04-26T19:22:06Z</time></trkpt><trkpt lat="45.411349118304415" lon="11.230029143733983"><ele>28.5</ele><time>2026-04-26T19:22:07Z</time></trkpt><trkpt lat="45.41130696166177" lon="11.230472138290223"><ele>29.0</ele><time>2026-04-26T19:22:08Z</time></trkpt><trkpt lat="45.41126351172713" lon="11.23091429383377"><ele>29.0</ele><time>2026-04-26T19:22:09Z</time></trkpt><trkpt lat="45.411220676303515" lon="11.231358569298921"><ele>29.0</ele><time>2026-04-26T19:22:10Z</time></trkpt><trkpt lat="45.41117819351073" lon="11.231803891635955"><ele>29.5</ele><time>2026-04-26T19:22:11Z</time></trkpt><trkpt lat="45.41113367404698" lon="11.232250801250311"><ele>30.0</ele><time>2026-04-26T19:22:12Z</time></trkpt><trkpt lat="45.41108857341492" lon="11.232698365326952"><ele>31.0</ele><time>2026-04-26T19:22:13Z</time></trkpt><trkpt lat="45.41104316997995" lon="11.233141144009144"><ele>32.0</ele><time>2026-04-26T19:22:14Z</time></trkpt><trkpt lat="45.41099995553551" lon="11.233583005500103"><ele>31.5</ele><time>2026-04-26T19:22:15Z</time></trkpt><trkpt lat="45.410959068145225" lon="11.234027906574482"><ele>31.0</ele><time>2026-04-26T19:22:16Z</time></trkpt><trkpt lat="45.410915191237166" lon="11.234473626359845"><ele>31.0</ele><time>2026-04-26T19:22:17Z</time></trkpt><trkpt lat="45.41087055555416" lon="11.234920642225068"><ele>31.0</ele><time>2026-04-26T19:22:18Z</time></trkpt><trkpt lat="45.410825921924996" lon="11.23536638448574"><ele>29.5</ele><time>2026-04-26T19:22:19Z</time></trkpt><trkpt lat="45.41078146650318" lon="11.235810793016359"><ele>28.0</ele><time>2026-04-26T19:22:20Z</time></trkpt><trkpt lat="45.410737604852315" lon="11.236254725875487"><ele>27.5</ele><time>2026-04-26T19:22:21Z</time></trkpt><trkpt lat="45.410695205312834" lon="11.236698385975876"><ele>27.0</ele><time>2026-04-26T19:22:22Z</time></trkpt><trkpt lat="45.41065422511212" lon="11.23714265959217"><ele>27.0</ele><time>2026-04-26T19:22:23Z</time></trkpt><trkpt lat="45.41061460346621" lon="11.237587419243313"><ele>27.0</ele><time>2026-04-26T19:22:24Z</time></trkpt><trkpt lat="45.41057673475167" lon="11.238031730736775"><ele>27.5</ele><time>2026-04-26T19:22:25Z</time></trkpt><trkpt lat="45.41053991365255" lon="11.238476841271307"><ele>28.0</ele><time>2026-04-26T19:22:26Z</time></trkpt><trkpt lat="45.41050221890472" lon="11.238921634384123"><ele>29.0</ele><time>2026-04-26T19:22:27Z</time></trkpt><trkpt lat="45.41046597403848" lon="11.239367395545496"><ele>30.0</ele><time>2026-04-26T19:22:28Z</time></trkpt><trkpt lat="45.41042746297569" lon="11.239812493820894"><ele>30.0</ele><time>2026-04-26T19:22:29Z</time></trkpt><trkpt lat="45.41038601752739" lon="11.240258140150548"><ele>30.0</ele><time>2026-04-26T19:22:30Z</time></trkpt><trkpt lat="45.41034176101672" lon="11.240704780831063"><ele>30.0</ele><time>2026-04-26T19:22:31Z</time></trkpt><trkpt lat="45.410294991574254" lon="11.241151823861994"><ele>30.0</ele><time>2026-04-26T19:22:32Z</time></trkpt><trkpt lat="45.41024931801767" lon="11.241598634713535"><ele>29.5</ele><time>2026-04-26T19:22:33Z</time></trkpt><trkpt lat="45.410204923879206" lon="11.242041511610221"><ele>29.0</ele><time>2026-04-26T19:22:34Z</time></trkpt><trkpt lat="45.41016491969468" lon="11.242475155028744"><ele>29.0</ele><time>2026-04-26T19:22:35Z</time></trkpt><trkpt lat="45.41012244671298" lon="11.242912758566057"><ele>29.0</ele><time>2026-04-26T19:22:36Z</time></trkpt><trkpt lat="45.41008787881759" lon="11.243343554960047"><ele>29.0</ele><time>2026-04-26T19:22:37Z</time></trkpt><trkpt lat="45.41006682309826" lon="11.243767339517433"><ele>29.0</ele><time>2026-04-26T19:22:38Z</time></trkpt><trkpt lat="45.40999924986506" lon="11.244187713198222"><ele>29.5</ele><time>2026-04-26T19:22:39Z</time></trkpt><trkpt lat="45.41001613179992" lon="11.244644613709514"><ele>30.0</ele><time>2026-04-26T19:22:40Z</time></trkpt><trkpt lat="45.40997257864652" lon="11.24509245845826"><ele>30.0</ele><time>2026-04-26T19:22:41Z</time></trkpt><trkpt lat="45.40992173252886" lon="11.245543899343023"><ele>30.0</ele><time>2026-04-26T19:22:42Z</time></trkpt><trkpt lat="45.40986916798586" lon="11.245994623900165"><ele>29.5</ele><time>2026-04-26T19:22:43Z</time></trkpt><trkpt lat="45.40981551874549" lon="11.246441552001922"><ele>29.0</ele><time>2026-04-26T19:22:44Z</time></trkpt><trkpt lat="45.40976734086201" lon="11.246886761542402"><ele>29.5</ele><time>2026-04-26T19:22:45Z</time></trkpt><trkpt lat="45.40972262203701" lon="11.24732933651222"><ele>30.0</ele><time>2026-04-26T19:22:46Z</time></trkpt><trkpt lat="45.40967787309747" lon="11.247771180562399"><ele>31.0</ele><time>2026-04-26T19:22:47Z</time></trkpt><trkpt lat="45.40962868622406" lon="11.248209135796394"><ele>32.0</ele><time>2026-04-26T19:22:48Z</time></trkpt><trkpt lat="45.409575650428536" lon="11.24864519462389"><ele>32.0</ele><time>2026-04-26T19:22:49Z</time></trkpt><trkpt lat="45.40952165462758" lon="11.249080990562142"><ele>32.0</ele><time>2026-04-26T19:22:50Z</time></trkpt><trkpt lat="45.409470715514104" lon="11.249516431770349"><ele>32.0</ele><time>2026-04-26T19:22:51Z</time></trkpt><trkpt lat="45.40942622560933" lon="11.249953076784816"><ele>32.0</ele><time>2026-04-26T19:22:52Z</time></trkpt><trkpt lat="45.409387728244376" lon="11.250395191432146"><ele>31.5</ele><time>2026-04-26T19:22:53Z</time></trkpt><trkpt lat="45.409349326141786" lon="11.250841147073968"><ele>31.0</ele><time>2026-04-26T19:22:54Z</time></trkpt><trkpt lat="45.40930914205366" lon="11.251288703876458"><ele>30.5</ele><time>2026-04-26T19:22:55Z</time></trkpt><trkpt lat="45.40926567825837" lon="11.251732638605944"><ele>30.0</ele><time>2026-04-26T19:22:56Z</time></trkpt><trkpt lat="45.40922134656432" lon="11.252171094437204"><ele>30.5</ele><time>2026-04-26T19:22:57Z</time></trkpt><trkpt lat="45.40918281800416" lon="11.252607435132106"><ele>31.0</ele><time>2026-04-26T19:22:58Z</time></trkpt><trkpt lat="45.40915480955328" lon="11.253046317279269"><ele>31.0</ele><time>2026-04-26T19:22:59Z</time></trkpt><trkpt lat="45.4091274343731" lon="11.253491198556153"><ele>31.0</ele><time>2026-04-26T19:23:00Z</time></trkpt><trkpt lat="45.40909571670232" lon="11.25394321440221"><ele>30.0</ele><time>2026-04-26T19:23:01Z</time></trkpt><trkpt lat="45.40905912578251" lon="11.254396005748056"><ele>29.0</ele><time>2026-04-26T19:23:02Z</time></trkpt><trkpt lat="45.40901665488072" lon="11.254847207689236"><ele>29.0</ele><time>2026-04-26T19:23:03Z</time></trkpt><trkpt lat="45.40896938018278" lon="11.255293915659776"><ele>29.0</ele><time>2026-04-26T19:23:04Z</time></trkpt><trkpt lat="45.4089197566838" lon="11.255737765381367"><ele>29.0</ele><time>2026-04-26T19:23:05Z</time></trkpt><trkpt lat="45.40886878083326" lon="11.25617841924197"><ele>29.0</ele><time>2026-04-26T19:23:06Z</time></trkpt><trkpt lat="45.40881910872108" lon="11.2566165940526"><ele>29.0</ele><time>2026-04-26T19:23:07Z</time></trkpt><trkpt lat="45.40877103902086" lon="11.257048900404506"><ele>29.0</ele><time>2026-04-26T19:23:08Z</time></trkpt><trkpt lat="45.40872894148536" lon="11.257476801724975"><ele>29.5</ele><time>2026-04-26T19:23:09Z</time></trkpt><trkpt lat="45.408696454671585" lon="11.25790393092082"><ele>30.0</ele><time>2026-04-26T19:23:10Z</time></trkpt><trkpt lat="45.40867315003093" lon="11.258335241511201"><ele>30.0</ele><time>2026-04-26T19:23:11Z</time></trkpt><trkpt lat="45.40865607498115" lon="11.258774628163003"><ele>30.0</ele><time>2026-04-26T19:23:12Z</time></trkpt><trkpt lat="45.408648056434224" lon="11.259209204162225"><ele>30.0</ele><time>2026-04-26T19:23:13Z</time></trkpt><trkpt lat="45.40864570322235" lon="11.259645893512978"><ele>30.0</ele><time>2026-04-26T19:23:14Z</time></trkpt><trkpt lat="45.40864702722808" lon="11.260084670028771"><ele>31.0</ele><time>2026-04-26T19:23:15Z</time></trkpt><trkpt lat="45.408653830335176" lon="11.26052149562411"><ele>32.0</ele><time>2026-04-26T19:23:16Z</time></trkpt><trkpt lat="45.40866306328769" lon="11.260960481289489"><ele>32.0</ele><time>2026-04-26T19:23:17Z</time></trkpt><trkpt lat="45.40867391371207" lon="11.26139919229223"><ele>32.0</ele><time>2026-04-26T19:23:18Z</time></trkpt><trkpt lat="45.408685990224605" lon="11.26183732452254"><ele>32.0</ele><time>2026-04-26T19:23:19Z</time></trkpt><trkpt lat="45.408698240951566" lon="11.262276897718607"><ele>32.0</ele><time>2026-04-26T19:23:20Z</time></trkpt><trkpt lat="45.40870751186661" lon="11.262718009747244"><ele>29.5</ele><time>2026-04-26T19:23:21Z</time></trkpt><trkpt lat="45.40871508864008" lon="11.263159065514383"><ele>27.0</ele><time>2026-04-26T19:23:22Z</time></trkpt><trkpt lat="45.40872479963088" lon="11.263599553739384"><ele>27.0</ele><time>2026-04-26T19:23:23Z</time></trkpt><trkpt lat="45.40873655918519" lon="11.264037587167726"><ele>27.0</ele><time>2026-04-26T19:23:24Z</time></trkpt><trkpt lat="45.4087505208144" lon="11.264475951817682"><ele>26.5</ele><time>2026-04-26T19:23:25Z</time></trkpt><trkpt lat="45.408763380808765" lon="11.264908227016846"><ele>26.0</ele><time>2026-04-26T19:23:26Z</time></trkpt><trkpt lat="45.4087846638815" lon="11.265331359817164"><ele>27.0</ele><time>2026-04-26T19:23:27Z</time></trkpt><trkpt lat="45.408814639404866" lon="11.265765323997595"><ele>28.0</ele><time>2026-04-26T19:23:28Z</time></trkpt><trkpt lat="45.408840831089655" lon="11.266211187274278"><ele>28.0</ele><time>2026-04-26T19:23:29Z</time></trkpt><trkpt lat="45.408859833358264" lon="11.266661160886908"><ele>28.0</ele><time>2026-04-26T19:23:30Z</time></trkpt><trkpt lat="45.4088733111065" lon="11.267116809137889"><ele>28.0</ele><time>2026-04-26T19:23:31Z</time></trkpt><trkpt lat="45.408877227453154" lon="11.267575678302666"><ele>28.0</ele><time>2026-04-26T19:23:32Z</time></trkpt><trkpt lat="45.408878147516134" lon="11.26803632686583"><ele>28.0</ele><time>2026-04-26T19:23:33Z</time></trkpt><trkpt lat="45.40888209459501" lon="11.268495234701147"><ele>28.0</ele><time>2026-04-26T19:23:34Z</time></trkpt><trkpt lat="45.4088964663033" lon="11.268949326577262"><ele>27.5</ele><time>2026-04-26T19:23:35Z</time></trkpt><trkpt lat="45.40892226893951" lon="11.269397952579787"><ele>27.0</ele><time>2026-04-26T19:23:36Z</time></trkpt><trkpt lat="45.40895796291248" lon="11.269841557440058"><ele>27.5</ele><time>2026-04-26T19:23:37Z</time></trkpt><trkpt lat="45.40899708680005" lon="11.270283057166376"><ele>28.0</ele><time>2026-04-26T19:23:38Z</time></trkpt><trkpt lat="45.409037181777144" lon="11.270724631878315"><ele>28.0</ele><time>2026-04-26T19:23:39Z</time></trkpt><trkpt lat="45.40907946608484" lon="11.271166008512024"><ele>28.0</ele><time>2026-04-26T19:23:40Z</time></trkpt><trkpt lat="45.40912762024246" lon="11.27160365206372"><ele>28.5</ele><time>2026-04-26T19:23:41Z</time></trkpt><trkpt lat="45.40918264940804" lon="11.272035115026927"><ele>29.0</ele><time>2026-04-26T19:23:42Z</time></trkpt><trkpt lat="45.40924659822158" lon="11.272467426853744"><ele>29.0</ele><time>2026-04-26T19:23:43Z</time></trkpt><trkpt lat="45.409316663655744" lon="11.272900123961838"><ele>29.0</ele><time>2026-04-26T19:23:44Z</time></trkpt><trkpt lat="45.40939178601534" lon="11.273331958251763"><ele>28.5</ele><time>2026-04-26T19:23:45Z</time></trkpt><trkpt lat="45.40947377061212" lon="11.273760605034033"><ele>28.0</ele><time>2026-04-26T19:23:46Z</time></trkpt><trkpt lat="45.40955954951668" lon="11.274185533138718"><ele>28.0</ele><time>2026-04-26T19:23:47Z</time></trkpt><trkpt lat="45.4096519338641" lon="11.274611270497385"><ele>28.0</ele><time>2026-04-26T19:23:48Z</time></trkpt><trkpt lat="45.40974862932612" lon="11.275039601222774"><ele>28.5</ele><time>2026-04-26T19:23:49Z</time></trkpt><trkpt lat="45.40984920945892" lon="11.275465888263604"><ele>29.0</ele><time>2026-04-26T19:23:50Z</time></trkpt><trkpt lat="45.409950713921404" lon="11.275890545107695"><ele>29.0</ele><time>2026-04-26T19:23:51Z</time></trkpt><trkpt lat="45.410058374433085" lon="11.276311117205632"><ele>29.0</ele><time>2026-04-26T19:23:52Z</time></trkpt><trkpt lat="45.410170601587424" lon="11.276729898300152"><ele>29.5</ele><time>2026-04-26T19:23:53Z</time></trkpt><trkpt lat="45.41028070507494" lon="11.277152868398394"><ele>30.0</ele><time>2026-04-26T19:23:54Z</time></trkpt><trkpt lat="45.41038859661477" lon="11.277578987805505"><ele>31.0</ele><time>2026-04-26T19:23:55Z</time></trkpt><trkpt lat="45.41048876734031" lon="11.278010247085184"><ele>32.0</ele><time>2026-04-26T19:23:56Z</time></trkpt><trkpt lat="45.410588710337535" lon="11.27844276944121"><ele>32.0</ele><time>2026-04-26T19:23:57Z</time></trkpt><trkpt lat="45.41068393198939" lon="11.278873274808845"><ele>32.0</ele><time>2026-04-26T19:23:58Z</time></trkpt><trkpt lat="45.41077106149331" lon="11.27930546027009"><ele>31.0</ele><time>2026-04-26T19:23:59Z</time></trkpt><trkpt lat="45.410859783634585" lon="11.279738125022297"><ele>30.0</ele><time>2026-04-26T19:24:00Z</time></trkpt><trkpt lat="45.41095517947417" lon="11.28017092538631"><ele>30.0</ele><time>2026-04-26T19:24:01Z</time></trkpt><trkpt lat="45.4110569069473" lon="11.280601079569943"><ele>30.0</ele><time>2026-04-26T19:24:02Z</time></trkpt><trkpt lat="45.41116093488202" lon="11.281032094826063"><ele>29.5</ele><time>2026-04-26T19:24:03Z</time></trkpt><trkpt lat="45.41126405799845" lon="11.281465819482328"><ele>29.0</ele><time>2026-04-26T19:24:04Z</time></trkpt><trkpt lat="45.4113660294129" lon="11.281901236488023"><ele>29.0</ele><time>2026-04-26T19:24:05Z</time></trkpt><trkpt lat="45.41146705965574" lon="11.28233517393682"><ele>29.0</ele><time>2026-04-26T19:24:06Z</time></trkpt><trkpt lat="45.41157007110087" lon="11.282768106584504"><ele>29.5</ele><time>2026-04-26T19:24:07Z</time></trkpt><trkpt lat="45.4116720927849" lon="11.283197365968672"><ele>30.0</ele><time>2026-04-26T19:24:08Z</time></trkpt><trkpt lat="45.411775070287455" lon="11.28362458489065"><ele>31.0</ele><time>2026-04-26T19:24:09Z</time></trkpt><trkpt lat="45.4118771328445" lon="11.28404999078208"><ele>32.0</ele><time>2026-04-26T19:24:10Z</time></trkpt><trkpt lat="45.41197933333216" lon="11.284474394295021"><ele>32.0</ele><time>2026-04-26T19:24:11Z</time></trkpt><trkpt lat="45.41207957445811" lon="11.28489936568845"><ele>32.0</ele><time>2026-04-26T19:24:12Z</time></trkpt><trkpt lat="45.412178542712695" lon="11.28532440492339"><ele>33.0</ele><time>2026-04-26T19:24:13Z</time></trkpt><trkpt lat="45.412274979129364" lon="11.285748153840306"><ele>34.0</ele><time>2026-04-26T19:24:14Z</time></trkpt><trkpt lat="45.41237492209663" lon="11.28617055272152"><ele>33.5</ele><time>2026-04-26T19:24:15Z</time></trkpt><trkpt lat="45.4124748600696" lon="11.286593461704744"><ele>33.0</ele><time>2026-04-26T19:24:16Z</time></trkpt><trkpt lat="45.41257560161907" lon="11.287017508771253"><ele>32.5</ele><time>2026-04-26T19:24:17Z</time></trkpt><trkpt lat="45.412676533722525" lon="11.287442856055824"><ele>32.0</ele><time>2026-04-26T19:24:18Z</time></trkpt><trkpt lat="45.41277944488621" lon="11.287870926544358"><ele>31.5</ele><time>2026-04-26T19:24:19Z</time></trkpt><trkpt lat="45.41288204271807" lon="11.288300141490083"><ele>31.0</ele><time>2026-04-26T19:24:20Z</time></trkpt><trkpt lat="45.41298255130945" lon="11.288729978934853"><ele>31.5</ele><time>2026-04-26T19:24:21Z</time></trkpt><trkpt lat="45.41308410983313" lon="11.289160171051915"><ele>32.0</ele><time>2026-04-26T19:24:22Z</time></trkpt><trkpt lat="45.41318493005203" lon="11.28959071584753"><ele>32.0</ele><time>2026-04-26T19:24:23Z</time></trkpt><trkpt lat="45.41328578003949" lon="11.29002088071377"><ele>32.0</ele><time>2026-04-26T19:24:24Z</time></trkpt><trkpt lat="45.41338478168594" lon="11.290448336529694"><ele>31.0</ele><time>2026-04-26T19:24:25Z</time></trkpt><trkpt lat="45.41348499900299" lon="11.290873501329772"><ele>30.0</ele><time>2026-04-26T19:24:26Z</time></trkpt><trkpt lat="45.41358720079339" lon="11.291299152975322"><ele>30.0</ele><time>2026-04-26T19:24:27Z</time></trkpt><trkpt lat="45.413688710320585" lon="11.291725560368585"><ele>30.0</ele><time>2026-04-26T19:24:28Z</time></trkpt><trkpt lat="45.413789296612414" lon="11.292152881567816"><ele>30.5</ele><time>2026-04-26T19:24:29Z</time></trkpt><trkpt lat="45.413888865638526" lon="11.292581107871406"><ele>31.0</ele><time>2026-04-26T19:24:30Z</time></trkpt><trkpt lat="45.41398830857715" lon="11.293009575742834"><ele>31.0</ele><time>2026-04-26T19:24:31Z</time></trkpt><trkpt lat="45.41408751737028" lon="11.293437338455512"><ele>31.0</ele><time>2026-04-26T19:24:32Z</time></trkpt><trkpt lat="45.41418724530386" lon="11.29386405896449"><ele>30.5</ele><time>2026-04-26T19:24:33Z</time></trkpt><trkpt lat="45.414287687381545" lon="11.294289749354238"><ele>30.0</ele><time>2026-04-26T19:24:34Z</time></trkpt><trkpt lat="45.414390179288944" lon="11.294714236335476"><ele>29.5</ele><time>2026-04-26T19:24:35Z</time></trkpt><trkpt lat="45.41449198057174" lon="11.295140149850237"><ele>29.0</ele><time>2026-04-26T19:24:36Z</time></trkpt><trkpt lat="45.41459274515983" lon="11.295564858749083"><ele>31.0</ele><time>2026-04-26T19:24:37Z</time></trkpt><trkpt lat="45.41469341760081" lon="11.295989700871267"><ele>33.0</ele><time>2026-04-26T19:24:38Z</time></trkpt><trkpt lat="45.41479459155816" lon="11.296413712671761"><ele>33.0</ele><time>2026-04-26T19:24:39Z</time></trkpt><trkpt lat="45.41489498012748" lon="11.296837356994214"><ele>33.0</ele><time>2026-04-26T19:24:40Z</time></trkpt><trkpt lat="45.414995575683534" lon="11.297261228576662"><ele>33.0</ele><time>2026-04-26T19:24:41Z</time></trkpt><trkpt lat="45.415096306943646" lon="11.297686893182671"><ele>33.0</ele><time>2026-04-26T19:24:42Z</time></trkpt><trkpt lat="45.41519667078507" lon="11.298111061865841"><ele>32.0</ele><time>2026-04-26T19:24:43Z</time></trkpt><trkpt lat="45.415297465327185" lon="11.298534311831615"><ele>31.0</ele><time>2026-04-26T19:24:44Z</time></trkpt><trkpt lat="45.41539924766195" lon="11.298959703806329"><ele>31.5</ele><time>2026-04-26T19:24:45Z</time></trkpt><trkpt lat="45.415499701365" lon="11.299385696868283"><ele>32.0</ele><time>2026-04-26T19:24:46Z</time></trkpt><trkpt lat="45.415600126785876" lon="11.299813195886573"><ele>32.0</ele><time>2026-04-26T19:24:47Z</time></trkpt><trkpt lat="45.415700856677006" lon="11.300242168627522"><ele>32.0</ele><time>2026-04-26T19:24:48Z</time></trkpt><trkpt lat="45.41580174587351" lon="11.300669804745066"><ele>32.5</ele><time>2026-04-26T19:24:49Z</time></trkpt><trkpt lat="45.41590208264757" lon="11.301096975455472"><ele>33.0</ele><time>2026-04-26T19:24:50Z</time></trkpt><trkpt lat="45.416000784230164" lon="11.301526136671594"><ele>32.0</ele><time>2026-04-26T19:24:51Z</time></trkpt><trkpt lat="45.416101353516694" lon="11.30195466844224"><ele>31.0</ele><time>2026-04-26T19:24:52Z</time></trkpt><trkpt lat="45.41620259267656" lon="11.30238141757388"><ele>30.5</ele><time>2026-04-26T19:24:53Z</time></trkpt><trkpt lat="45.4163054896935" lon="11.302808314988845"><ele>30.0</ele><time>2026-04-26T19:24:54Z</time></trkpt><trkpt lat="45.416407716966994" lon="11.303238882478144"><ele>30.0</ele><time>2026-04-26T19:24:55Z</time></trkpt><trkpt lat="45.41650935379939" lon="11.303671254768902"><ele>30.0</ele><time>2026-04-26T19:24:56Z</time></trkpt><trkpt lat="45.41661453343429" lon="11.304104185258867"><ele>30.0</ele><time>2026-04-26T19:24:57Z</time></trkpt><trkpt lat="45.416715712014664" lon="11.304539207961493"><ele>30.0</ele><time>2026-04-26T19:24:58Z</time></trkpt><trkpt lat="45.416816928190514" lon="11.304973459699122"><ele>30.5</ele><time>2026-04-26T19:24:59Z</time></trkpt><trkpt lat="45.41691664730839" lon="11.305404578459777"><ele>31.0</ele><time>2026-04-26T19:25:00Z</time></trkpt><trkpt lat="45.417016431584194" lon="11.305834657497929"><ele>31.0</ele><time>2026-04-26T19:25:01Z</time></trkpt><trkpt lat="45.41711563705176" lon="11.306264361369916"><ele>31.0</ele><time>2026-04-26T19:25:02Z</time></trkpt><trkpt lat="45.41721381753188" lon="11.306694854582595"><ele>31.0</ele><time>2026-04-26T19:25:03Z</time></trkpt><trkpt lat="45.417316545702256" lon="11.307125997091402"><ele>31.0</ele><time>2026-04-26T19:25:04Z</time></trkpt><trkpt lat="45.41742142127952" lon="11.3075576070613"><ele>31.0</ele><time>2026-04-26T19:25:05Z</time></trkpt><trkpt lat="45.41752411558988" lon="11.307989590496511"><ele>31.0</ele><time>2026-04-26T19:25:06Z</time></trkpt><trkpt lat="45.417628091742785" lon="11.308421384112222"><ele>31.0</ele><time>2026-04-26T19:25:07Z</time></trkpt><trkpt lat="45.41773246612169" lon="11.30885391399703"><ele>31.0</ele><time>2026-04-26T19:25:08Z</time></trkpt><trkpt lat="45.417831180300965" lon="11.309288424673586"><ele>30.5</ele><time>2026-04-26T19:25:09Z</time></trkpt><trkpt lat="45.417930513845654" lon="11.309717151562529"><ele>30.0</ele><time>2026-04-26T19:25:10Z</time></trkpt><trkpt lat="45.418023947166965" lon="11.310129289718784"><ele>30.0</ele><time>2026-04-26T19:25:11Z</time></trkpt><trkpt lat="45.41812273382735" lon="11.310545849356304"><ele>30.0</ele><time>2026-04-26T19:25:12Z</time></trkpt><trkpt lat="45.41822353599419" lon="11.310969582447386"><ele>30.0</ele><time>2026-04-26T19:25:13Z</time></trkpt><trkpt lat="45.41832595536423" lon="11.311396687354899"><ele>30.0</ele><time>2026-04-26T19:25:14Z</time></trkpt><trkpt lat="45.41842707939423" lon="11.311823613773162"><ele>30.5</ele><time>2026-04-26T19:25:15Z</time></trkpt><trkpt lat="45.41852521471953" lon="11.312250065892297"><ele>31.0</ele><time>2026-04-26T19:25:16Z</time></trkpt><trkpt lat="45.418622058413405" lon="11.312677752716539"><ele>30.5</ele><time>2026-04-26T19:25:17Z</time></trkpt><trkpt lat="45.41872164809547" lon="11.313104370928452"><ele>30.0</ele><time>2026-04-26T19:25:18Z</time></trkpt><trkpt lat="45.41882314454491" lon="11.313530179453755"><ele>30.5</ele><time>2026-04-26T19:25:19Z</time></trkpt><trkpt lat="45.418925031981" lon="11.313955565468044"><ele>31.0</ele><time>2026-04-26T19:25:20Z</time></trkpt><trkpt lat="45.419026837295625" lon="11.314381955730006"><ele>31.0</ele><time>2026-04-26T19:25:21Z</time></trkpt><trkpt lat="45.41912893357515" lon="11.314806034630864"><ele>31.0</ele><time>2026-04-26T19:25:22Z</time></trkpt><trkpt lat="45.419230592011125" lon="11.315228373529461"><ele>30.5</ele><time>2026-04-26T19:25:23Z</time></trkpt><trkpt lat="45.41933456305015" lon="11.315646550501288"><ele>30.0</ele><time>2026-04-26T19:25:24Z</time></trkpt><trkpt lat="45.41944150330721" lon="11.316065389013621"><ele>30.5</ele><time>2026-04-26T19:25:25Z</time></trkpt><trkpt lat="45.41955509088158" lon="11.316483473457913"><ele>31.0</ele><time>2026-04-26T19:25:26Z</time></trkpt><trkpt lat="45.41967746249278" lon="11.316898687653637"><ele>32.0</ele><time>2026-04-26T19:25:27Z</time></trkpt><trkpt lat="45.419806679222845" lon="11.317309610518937"><ele>33.0</ele><time>2026-04-26T19:25:28Z</time></trkpt><trkpt lat="45.41993881230676" lon="11.31772073265116"><ele>32.0</ele><time>2026-04-26T19:25:29Z</time></trkpt><trkpt lat="45.420075024404014" lon="11.318129027390308"><ele>31.0</ele><time>2026-04-26T19:25:30Z</time></trkpt><trkpt lat="45.420215166393845" lon="11.318530741149214"><ele>31.0</ele><time>2026-04-26T19:25:31Z</time></trkpt><trkpt lat="45.42036282524125" lon="11.318926934030733"><ele>31.0</ele><time>2026-04-26T19:25:32Z</time></trkpt><trkpt lat="45.42051379164683" lon="11.319321694548107"><ele>31.5</ele><time>2026-04-26T19:25:33Z</time></trkpt><trkpt lat="45.42067260172179" lon="11.319714460437796"><ele>32.0</ele><time>2026-04-26T19:25:34Z</time></trkpt><trkpt lat="45.42083648912623" lon="11.320104933489567"><ele>32.0</ele><time>2026-04-26T19:25:35Z</time></trkpt><trkpt lat="45.42100293391289" lon="11.320489298601501"><ele>32.0</ele><time>2026-04-26T19:25:36Z</time></trkpt><trkpt lat="45.42117130030562" lon="11.320871777863996"><ele>32.5</ele><time>2026-04-26T19:25:37Z</time></trkpt><trkpt lat="45.42133739485069" lon="11.321249723129704"><ele>33.0</ele><time>2026-04-26T19:25:38Z</time></trkpt><trkpt lat="45.42150114675225" lon="11.321627142567555"><ele>33.5</ele><time>2026-04-26T19:25:39Z</time></trkpt><trkpt lat="45.42166428806822" lon="11.322005987159868"><ele>34.0</ele><time>2026-04-26T19:25:40Z</time></trkpt><trkpt lat="45.42182661990434" lon="11.322384387711972"><ele>34.0</ele><time>2026-04-26T19:25:41Z</time></trkpt><trkpt lat="45.42198957757257" lon="11.3227619084885"><ele>34.0</ele><time>2026-04-26T19:25:42Z</time></trkpt><trkpt lat="45.42215140405609" lon="11.323140515151765"><ele>34.5</ele><time>2026-04-26T19:25:43Z</time></trkpt><trkpt lat="45.42231301130421" lon="11.323520033889286"><ele>35.0</ele><time>2026-04-26T19:25:44Z</time></trkpt><trkpt lat="45.42247554816648" lon="11.323900065524278"><ele>35.0</ele><time>2026-04-26T19:25:45Z</time></trkpt><trkpt lat="45.42263762961251" lon="11.324281495595207"><ele>35.0</ele><time>2026-04-26T19:25:46Z</time></trkpt><trkpt lat="45.42280042155252" lon="11.324664705306711"><ele>35.5</ele><time>2026-04-26T19:25:47Z</time></trkpt><trkpt lat="45.422964831366855" lon="11.325046466988873"><ele>36.0</ele><time>2026-04-26T19:25:48Z</time></trkpt><trkpt lat="45.423129860733006" lon="11.325426818464294"><ele>37.0</ele><time>2026-04-26T19:25:49Z</time></trkpt><trkpt lat="45.42329502104636" lon="11.32580598412181"><ele>38.0</ele><time>2026-04-26T19:25:50Z</time></trkpt><trkpt lat="45.42346018497872" lon="11.326186744736674"><ele>36.0</ele><time>2026-04-26T19:25:51Z</time></trkpt><trkpt lat="45.42362549870407" lon="11.326570072520349"><ele>34.0</ele><time>2026-04-26T19:25:52Z</time></trkpt><trkpt lat="45.423791413569425" lon="11.326958086867787"><ele>34.5</ele><time>2026-04-26T19:25:53Z</time></trkpt><trkpt lat="45.42395705192882" lon="11.327347508350634"><ele>35.0</ele><time>2026-04-26T19:25:54Z</time></trkpt><trkpt lat="45.42412312366701" lon="11.327739065765796"><ele>33.5</ele><time>2026-04-26T19:25:55Z</time></trkpt><trkpt lat="45.42429095641854" lon="11.328129305094585"><ele>32.0</ele><time>2026-04-26T19:25:56Z</time></trkpt><trkpt lat="45.42445641285383" lon="11.328513980517302"><ele>32.0</ele><time>2026-04-26T19:25:57Z</time></trkpt><trkpt lat="45.42462008187901" lon="11.32889475254878"><ele>32.0</ele><time>2026-04-26T19:25:58Z</time></trkpt><trkpt lat="45.42478397247666" lon="11.329274509639456"><ele>32.0</ele><time>2026-04-26T19:25:59Z</time></trkpt><trkpt lat="45.424948427964246" lon="11.329658622304425"><ele>32.0</ele><time>2026-04-26T19:26:00Z</time></trkpt><trkpt lat="45.425112210546" lon="11.330043672949868"><ele>31.5</ele><time>2026-04-26T19:26:01Z</time></trkpt><trkpt lat="45.425274970161546" lon="11.330428735258772"><ele>31.0</ele><time>2026-04-26T19:26:02Z</time></trkpt><trkpt lat="45.425438050513506" lon="11.330809758141367"><ele>32.5</ele><time>2026-04-26T19:26:03Z</time></trkpt><trkpt lat="45.4256014230732" lon="11.331189119531508"><ele>34.0</ele><time>2026-04-26T19:26:04Z</time></trkpt><trkpt lat="45.42576451243905" lon="11.33156769597328"><ele>34.0</ele><time>2026-04-26T19:26:05Z</time></trkpt><trkpt lat="45.4259268612568" lon="11.331946209854708"><ele>34.0</ele><time>2026-04-26T19:26:06Z</time></trkpt><trkpt lat="45.42609226602703" lon="11.332321436102378"><ele>34.5</ele><time>2026-04-26T19:26:07Z</time></trkpt><trkpt lat="45.426261099936426" lon="11.332691180722799"><ele>35.0</ele><time>2026-04-26T19:26:08Z</time></trkpt><trkpt lat="45.42643038621448" lon="11.333058283183234"><ele>35.0</ele><time>2026-04-26T19:26:09Z</time></trkpt><trkpt lat="45.42659859859664" lon="11.33342972904797"><ele>35.0</ele><time>2026-04-26T19:26:10Z</time></trkpt><trkpt lat="45.42676311765326" lon="11.333804132275203"><ele>34.5</ele><time>2026-04-26T19:26:11Z</time></trkpt><trkpt lat="45.426929368973724" lon="11.334171767923847"><ele>34.0</ele><time>2026-04-26T19:26:12Z</time></trkpt><trkpt lat="45.42710111302015" lon="11.334544524549106"><ele>34.5</ele><time>2026-04-26T19:26:13Z</time></trkpt><trkpt lat="45.42727029572891" lon="11.334919744532485"><ele>35.0</ele><time>2026-04-26T19:26:14Z</time></trkpt><trkpt lat="45.42743637732072" lon="11.335300271408045"><ele>34.5</ele><time>2026-04-26T19:26:15Z</time></trkpt><trkpt lat="45.42759989295823" lon="11.335683139775487"><ele>34.0</ele><time>2026-04-26T19:26:16Z</time></trkpt><trkpt lat="45.427764144617655" lon="11.336066364339219"><ele>34.0</ele><time>2026-04-26T19:26:17Z</time></trkpt><trkpt lat="45.42792895235785" lon="11.336450072538897"><ele>34.0</ele><time>2026-04-26T19:26:18Z</time></trkpt><trkpt lat="45.42809377112134" lon="11.33683198208776"><ele>34.0</ele><time>2026-04-26T19:26:19Z</time></trkpt><trkpt lat="45.428259086232885" lon="11.33721525590525"><ele>34.0</ele><time>2026-04-26T19:26:20Z</time></trkpt><trkpt lat="45.428424093387505" lon="11.337599873802233"><ele>34.0</ele><time>2026-04-26T19:26:21Z</time></trkpt><trkpt lat="45.42858852508379" lon="11.337983707909183"><ele>34.0</ele><time>2026-04-26T19:26:22Z</time></trkpt><trkpt lat="45.42875319705487" lon="11.338368262999143"><ele>34.5</ele><time>2026-04-26T19:26:23Z</time></trkpt><trkpt lat="45.42891738543168" lon="11.33875214839662"><ele>35.0</ele><time>2026-04-26T19:26:24Z</time></trkpt><trkpt lat="45.42908147789523" lon="11.339134835791853"><ele>35.0</ele><time>2026-04-26T19:26:25Z</time></trkpt><trkpt lat="45.429246043989785" lon="11.339517712648012"><ele>35.0</ele><time>2026-04-26T19:26:26Z</time></trkpt><trkpt lat="45.42941048517691" lon="11.33990375031605"><ele>35.0</ele><time>2026-04-26T19:26:27Z</time></trkpt><trkpt lat="45.42957555615014" lon="11.340290716338984"><ele>35.0</ele><time>2026-04-26T19:26:28Z</time></trkpt><trkpt lat="45.42974026862255" lon="11.340674110967399"><ele>35.0</ele><time>2026-04-26T19:26:29Z</time></trkpt><trkpt lat="45.42990567377754" lon="11.341057864518845"><ele>35.0</ele><time>2026-04-26T19:26:30Z</time></trkpt><trkpt lat="45.4300714277547" lon="11.341442934844096"><ele>34.5</ele><time>2026-04-26T19:26:31Z</time></trkpt><trkpt lat="45.4302364727758" lon="11.341828571929318"><ele>34.0</ele><time>2026-04-26T19:26:32Z</time></trkpt><trkpt lat="45.43040229458615" lon="11.342213593353277"><ele>34.5</ele><time>2026-04-26T19:26:33Z</time></trkpt><trkpt lat="45.43056651243544" lon="11.342599705069002"><ele>35.0</ele><time>2026-04-26T19:26:34Z</time></trkpt><trkpt lat="45.43073306058327" lon="11.342986408573836"><ele>35.5</ele><time>2026-04-26T19:26:35Z</time></trkpt><trkpt lat="45.43089754748173" lon="11.343374382791136"><ele>36.0</ele><time>2026-04-26T19:26:36Z</time></trkpt><trkpt lat="45.43105363590031" lon="11.34377104095468"><ele>35.0</ele><time>2026-04-26T19:26:37Z</time></trkpt><trkpt lat="45.43120300842812" lon="11.344171256883785"><ele>34.0</ele><time>2026-04-26T19:26:38Z</time></trkpt><trkpt lat="45.431354710059544" lon="11.344570605425938"><ele>33.5</ele><time>2026-04-26T19:26:39Z</time></trkpt><trkpt lat="45.4315111464983" lon="11.344964347294297"><ele>33.0</ele><time>2026-04-26T19:26:40Z</time></trkpt><trkpt lat="45.43167320171388" lon="11.345352394639171"><ele>35.0</ele><time>2026-04-26T19:26:41Z</time></trkpt><trkpt lat="45.43183827400156" lon="11.345738724737576"><ele>37.0</ele><time>2026-04-26T19:26:42Z</time></trkpt><trkpt lat="45.432005820647774" lon="11.346122604459376"><ele>36.5</ele><time>2026-04-26T19:26:43Z</time></trkpt><trkpt lat="45.432169710310156" lon="11.346508615342543"><ele>36.0</ele><time>2026-04-26T19:26:44Z</time></trkpt><trkpt lat="45.43233550772196" lon="11.346889520905476"><ele>35.0</ele><time>2026-04-26T19:26:45Z</time></trkpt><trkpt lat="45.43249983985246" lon="11.347269127454826"><ele>34.0</ele><time>2026-04-26T19:26:46Z</time></trkpt><trkpt lat="45.432662667136064" lon="11.347646675489125"><ele>34.0</ele><time>2026-04-26T19:26:47Z</time></trkpt><trkpt lat="45.43282353733599" lon="11.348025373324857"><ele>34.0</ele><time>2026-04-26T19:26:48Z</time></trkpt><trkpt lat="45.43298357279165" lon="11.348401463786292"><ele>35.5</ele><time>2026-04-26T19:26:49Z</time></trkpt><trkpt lat="45.43314279353097" lon="11.34877375888987"><ele>37.0</ele><time>2026-04-26T19:26:50Z</time></trkpt><trkpt lat="45.433303490066514" lon="11.349146951005835"><ele>37.0</ele><time>2026-04-26T19:26:51Z</time></trkpt><trkpt lat="45.43346556319772" lon="11.349519554131197"><ele>37.0</ele><time>2026-04-26T19:26:52Z</time></trkpt><trkpt lat="45.43362627082546" lon="11.349891857058054"><ele>37.0</ele><time>2026-04-26T19:26:53Z</time></trkpt><trkpt lat="45.433784443890374" lon="11.350263458322194"><ele>37.0</ele><time>2026-04-26T19:26:54Z</time></trkpt><trkpt lat="45.433942477904374" lon="11.350635833124658"><ele>37.0</ele><time>2026-04-26T19:26:55Z</time></trkpt><trkpt lat="45.43410156272342" lon="11.351006132535925"><ele>37.0</ele><time>2026-04-26T19:26:56Z</time></trkpt><trkpt lat="45.43426055963756" lon="11.351376256780586"><ele>36.5</ele><time>2026-04-26T19:26:57Z</time></trkpt><trkpt lat="45.43441989564388" lon="11.351747837253779"><ele>36.0</ele><time>2026-04-26T19:26:58Z</time></trkpt><trkpt lat="45.43458006289345" lon="11.35212008427754"><ele>37.5</ele><time>2026-04-26T19:26:59Z</time></trkpt><trkpt lat="45.4347405656019" lon="11.352491481190803"><ele>39.0</ele><time>2026-04-26T19:27:00Z</time></trkpt><trkpt lat="45.43490281294754" lon="11.35286237910201"><ele>37.5</ele><time>2026-04-26T19:27:01Z</time></trkpt><trkpt lat="45.43506640535086" lon="11.35323482655146"><ele>36.0</ele><time>2026-04-26T19:27:02Z</time></trkpt><trkpt lat="45.4352285049005" lon="11.353607395525383"><ele>36.5</ele><time>2026-04-26T19:27:03Z</time></trkpt><trkpt lat="45.435389274055666" lon="11.35398121376676"><ele>37.0</ele><time>2026-04-26T19:27:04Z</time></trkpt><trkpt lat="45.4355483254567" lon="11.354356529800652"><ele>38.5</ele><time>2026-04-26T19:27:05Z</time></trkpt><trkpt lat="45.4357084108183" lon="11.35473211921653"><ele>40.0</ele><time>2026-04-26T19:27:06Z</time></trkpt><trkpt lat="45.43587057486472" lon="11.35510850632401"><ele>40.0</ele><time>2026-04-26T19:27:07Z</time></trkpt><trkpt lat="45.43603071333211" lon="11.355485660918037"><ele>40.0</ele><time>2026-04-26T19:27:08Z</time></trkpt><trkpt lat="45.43619005093627" lon="11.355863614815076"><ele>39.0</ele><time>2026-04-26T19:27:09Z</time></trkpt><trkpt lat="45.4363506889005" lon="11.356240915337475"><ele>38.0</ele><time>2026-04-26T19:27:10Z</time></trkpt><trkpt lat="45.436511663754864" lon="11.356616661548497"><ele>38.0</ele><time>2026-04-26T19:27:11Z</time></trkpt><trkpt lat="45.43667447150168" lon="11.356993072338978"><ele>38.0</ele><time>2026-04-26T19:27:12Z</time></trkpt><trkpt lat="45.4368363583986" lon="11.3573700741609"><ele>38.0</ele><time>2026-04-26T19:27:13Z</time></trkpt><trkpt lat="45.437000183319725" lon="11.35774652240326"><ele>38.0</ele><time>2026-04-26T19:27:14Z</time></trkpt><trkpt lat="45.4371608491722" lon="11.358124292467878"><ele>38.0</ele><time>2026-04-26T19:27:15Z</time></trkpt><trkpt lat="45.43732100567482" lon="11.35849986143615"><ele>38.0</ele><time>2026-04-26T19:27:16Z</time></trkpt><trkpt lat="45.43748034658297" lon="11.358874574965611"><ele>38.0</ele><time>2026-04-26T19:27:17Z</time></trkpt><trkpt lat="45.43764158492662" lon="11.359249656688332"><ele>38.0</ele><time>2026-04-26T19:27:18Z</time></trkpt><trkpt lat="45.43780287886435" lon="11.359625208670236"><ele>38.0</ele><time>2026-04-26T19:27:19Z</time></trkpt><trkpt lat="45.43796089082462" lon="11.360000153379612"><ele>38.0</ele><time>2026-04-26T19:27:20Z</time></trkpt><trkpt lat="45.43812337009392" lon="11.360380732448961"><ele>39.0</ele><time>2026-04-26T19:27:21Z</time></trkpt><trkpt lat="45.438287363018404" lon="11.360758664336506"><ele>40.0</ele><time>2026-04-26T19:27:22Z</time></trkpt><trkpt lat="45.43845263382122" lon="11.361136645584192"><ele>38.5</ele><time>2026-04-26T19:27:23Z</time></trkpt><trkpt lat="45.438614732343694" lon="11.361517894265717"><ele>37.0</ele><time>2026-04-26T19:27:24Z</time></trkpt><trkpt lat="45.43877902585669" lon="11.361900223108643"><ele>37.5</ele><time>2026-04-26T19:27:25Z</time></trkpt><trkpt lat="45.43894009419391" lon="11.362286082811234"><ele>38.0</ele><time>2026-04-26T19:27:26Z</time></trkpt><trkpt lat="45.43909682868655" lon="11.362675965634962"><ele>38.0</ele><time>2026-04-26T19:27:27Z</time></trkpt><trkpt lat="45.43925314121767" lon="11.363065467643128"><ele>38.0</ele><time>2026-04-26T19:27:28Z</time></trkpt><trkpt lat="45.439404540448976" lon="11.363458556936088"><ele>38.0</ele><time>2026-04-26T19:27:29Z</time></trkpt><trkpt lat="45.439553431992636" lon="11.363855147235357"><ele>38.0</ele><time>2026-04-26T19:27:30Z</time></trkpt><trkpt lat="45.4396973073862" lon="11.364255999008405"><ele>39.5</ele><time>2026-04-26T19:27:31Z</time></trkpt><trkpt lat="45.4398307713094" lon="11.36466332118063"><ele>41.0</ele><time>2026-04-26T19:27:32Z</time></trkpt><trkpt lat="45.43995763667071" lon="11.365074160731952"><ele>41.0</ele><time>2026-04-26T19:27:33Z</time></trkpt><trkpt lat="45.44008020477862" lon="11.365484698246288"><ele>41.0</ele><time>2026-04-26T19:27:34Z</time></trkpt><trkpt lat="45.44019866771853" lon="11.365903995155895"><ele>40.5</ele><time>2026-04-26T19:27:35Z</time></trkpt><trkpt lat="45.44031569824017" lon="11.366322237139698"><ele>40.0</ele><time>2026-04-26T19:27:36Z</time></trkpt><trkpt lat="45.44043257386453" lon="11.366745863338856"><ele>41.0</ele><time>2026-04-26T19:27:37Z</time></trkpt><trkpt lat="45.4405433339385" lon="11.367174054321522"><ele>42.0</ele><time>2026-04-26T19:27:38Z</time></trkpt><trkpt lat="45.440650251447906" lon="11.36760604131062"><ele>42.0</ele><time>2026-04-26T19:27:39Z</time></trkpt><trkpt lat="45.440755469549025" lon="11.368038763864103"><ele>42.0</ele><time>2026-04-26T19:27:40Z</time></trkpt><trkpt lat="45.4408620345992" lon="11.368470508439797"><ele>41.5</ele><time>2026-04-26T19:27:41Z</time></trkpt><trkpt lat="45.440969924218344" lon="11.368900179980985"><ele>41.0</ele><time>2026-04-26T19:27:42Z</time></trkpt><trkpt lat="45.44107638345167" lon="11.369327645250085"><ele>42.5</ele><time>2026-04-26T19:27:43Z</time></trkpt><trkpt lat="45.441182327365006" lon="11.369751452083465"><ele>44.0</ele><time>2026-04-26T19:27:44Z</time></trkpt><trkpt lat="45.44128777322427" lon="11.370167045250655"><ele>43.5</ele><time>2026-04-26T19:27:45Z</time></trkpt><trkpt lat="45.44138744555282" lon="11.370561852878962"><ele>43.0</ele><time>2026-04-26T19:27:46Z</time></trkpt><trkpt lat="45.44149171551517" lon="11.370964043834718"><ele>42.0</ele><time>2026-04-26T19:27:47Z</time></trkpt><trkpt lat="45.44159927376561" lon="11.37137004357578"><ele>41.0</ele><time>2026-04-26T19:27:48Z</time></trkpt><trkpt lat="45.441713615491324" lon="11.37177455264242"><ele>41.0</ele><time>2026-04-26T19:27:49Z</time></trkpt><trkpt lat="45.441832561159195" lon="11.372177097009308"><ele>41.0</ele><time>2026-04-26T19:27:50Z</time></trkpt><trkpt lat="45.44195989623116" lon="11.372577325659547"><ele>40.0</ele><time>2026-04-26T19:27:51Z</time></trkpt><trkpt lat="45.44209243601588" lon="11.372971928544455"><ele>39.0</ele><time>2026-04-26T19:27:52Z</time></trkpt><trkpt lat="45.44223009481885" lon="11.373364964119885"><ele>41.0</ele><time>2026-04-26T19:27:53Z</time></trkpt><trkpt lat="45.44237161432593" lon="11.373754045159696"><ele>43.0</ele><time>2026-04-26T19:27:54Z</time></trkpt><trkpt lat="45.44252100845548" lon="11.374140216655068"><ele>43.0</ele><time>2026-04-26T19:27:55Z</time></trkpt><trkpt lat="45.44267395950394" lon="11.374523486786773"><ele>43.0</ele><time>2026-04-26T19:27:56Z</time></trkpt><trkpt lat="45.44283212942939" lon="11.374903883454841"><ele>43.5</ele><time>2026-04-26T19:27:57Z</time></trkpt><trkpt lat="45.442996492377475" lon="11.375281973994095"><ele>44.0</ele><time>2026-04-26T19:27:58Z</time></trkpt><trkpt lat="45.44316387143351" lon="11.375657400130406"><ele>44.0</ele><time>2026-04-26T19:27:59Z</time></trkpt><trkpt lat="45.44333377932855" lon="11.376027215879846"><ele>44.0</ele><time>2026-04-26T19:28:00Z</time></trkpt><trkpt lat="45.443507310287536" lon="11.376389802575732"><ele>44.0</ele><time>2026-04-26T19:28:01Z</time></trkpt><trkpt lat="45.443686218599666" lon="11.37674626962034"><ele>44.0</ele><time>2026-04-26T19:28:02Z</time></trkpt><trkpt lat="45.44387198086562" lon="11.377097740779389"><ele>44.5</ele><time>2026-04-26T19:28:03Z</time></trkpt><trkpt lat="45.44406284156556" lon="11.37744382247202"><ele>45.0</ele><time>2026-04-26T19:28:04Z</time></trkpt><trkpt lat="45.444260116961026" lon="11.37778444216726"><ele>45.0</ele><time>2026-04-26T19:28:05Z</time></trkpt><trkpt lat="45.44446424721101" lon="11.378124820784475"><ele>45.0</ele><time>2026-04-26T19:28:06Z</time></trkpt><trkpt lat="45.4446710382154" lon="11.378463597169137"><ele>44.0</ele><time>2026-04-26T19:28:07Z</time></trkpt><trkpt lat="45.44488002933981" lon="11.378800604399734"><ele>43.0</ele><time>2026-04-26T19:28:08Z</time></trkpt><trkpt lat="45.445089922048474" lon="11.379133422973817"><ele>43.0</ele><time>2026-04-26T19:28:09Z</time></trkpt><trkpt lat="45.44530274373037" lon="11.379459982646024"><ele>43.0</ele><time>2026-04-26T19:28:10Z</time></trkpt><trkpt lat="45.44552060874725" lon="11.379778573117223"><ele>44.0</ele><time>2026-04-26T19:28:11Z</time></trkpt><trkpt lat="45.44574040380746" lon="11.380090109011247"><ele>45.0</ele><time>2026-04-26T19:28:12Z</time></trkpt><trkpt lat="45.445963185429825" lon="11.380393195436667"><ele>44.5</ele><time>2026-04-26T19:28:13Z</time></trkpt><trkpt lat="45.44618982314931" lon="11.380690785646122"><ele>44.0</ele><time>2026-04-26T19:28:14Z</time></trkpt><trkpt lat="45.4464196766591" lon="11.380988388119684"><ele>45.0</ele><time>2026-04-26T19:28:15Z</time></trkpt><trkpt lat="45.44665026335461" lon="11.381287361451404"><ele>46.0</ele><time>2026-04-26T19:28:16Z</time></trkpt><trkpt lat="45.44687942855415" lon="11.38159015836676"><ele>46.0</ele><time>2026-04-26T19:28:17Z</time></trkpt><trkpt lat="45.44710750772872" lon="11.38189565065849"><ele>46.0</ele><time>2026-04-26T19:28:18Z</time></trkpt><trkpt lat="45.44733376208144" lon="11.382205269681899"><ele>46.0</ele><time>2026-04-26T19:28:19Z</time></trkpt><trkpt lat="45.44755580423379" lon="11.382521199865941"><ele>46.0</ele><time>2026-04-26T19:28:20Z</time></trkpt><trkpt lat="45.44777903572901" lon="11.382834137402153"><ele>46.0</ele><time>2026-04-26T19:28:21Z</time></trkpt><trkpt lat="45.4480055486135" lon="11.383142363184778"><ele>46.0</ele><time>2026-04-26T19:28:22Z</time></trkpt><trkpt lat="45.44823503942126" lon="11.383445116080209"><ele>46.0</ele><time>2026-04-26T19:28:23Z</time></trkpt><trkpt lat="45.44846777128191" lon="11.383744570604804"><ele>46.0</ele><time>2026-04-26T19:28:24Z</time></trkpt><trkpt lat="45.44869823408538" lon="11.384043764080863"><ele>46.5</ele><time>2026-04-26T19:28:25Z</time></trkpt><trkpt lat="45.448928024557105" lon="11.384344411987612"><ele>47.0</ele><time>2026-04-26T19:28:26Z</time></trkpt><trkpt lat="45.44915811663729" lon="11.384646958904323"><ele>45.5</ele><time>2026-04-26T19:28:27Z</time></trkpt><trkpt lat="45.449388137000575" lon="11.384950188495527"><ele>44.0</ele><time>2026-04-26T19:28:28Z</time></trkpt><trkpt lat="45.449619139329464" lon="11.385253473838079"><ele>45.5</ele><time>2026-04-26T19:28:29Z</time></trkpt><trkpt lat="45.44985006487313" lon="11.385556715455078"><ele>47.0</ele><time>2026-04-26T19:28:30Z</time></trkpt><trkpt lat="45.45008047689654" lon="11.385861061603661"><ele>47.0</ele><time>2026-04-26T19:28:31Z</time></trkpt><trkpt lat="45.45031138410824" lon="11.386163549735"><ele>47.0</ele><time>2026-04-26T19:28:32Z</time></trkpt><trkpt lat="45.45054209945265" lon="11.386467448415274"><ele>47.0</ele><time>2026-04-26T19:28:33Z</time></trkpt><trkpt lat="45.450773313152254" lon="11.38677232166215"><ele>47.0</ele><time>2026-04-26T19:28:34Z</time></trkpt><trkpt lat="45.45100177431985" lon="11.387078341216705"><ele>47.0</ele><time>2026-04-26T19:28:35Z</time></trkpt><trkpt lat="45.451225948800456" lon="11.387385627848008"><ele>47.0</ele><time>2026-04-26T19:28:36Z</time></trkpt><trkpt lat="45.451447291230856" lon="11.38769705076077"><ele>47.5</ele><time>2026-04-26T19:28:37Z</time></trkpt><trkpt lat="45.45166506462662" lon="11.388013317036112"><ele>48.0</ele><time>2026-04-26T19:28:38Z</time></trkpt><trkpt lat="45.45187624442322" lon="11.388335667225165"><ele>48.0</ele><time>2026-04-26T19:28:39Z</time></trkpt><trkpt lat="45.452080461785094" lon="11.388664429832632"><ele>48.0</ele><time>2026-04-26T19:28:40Z</time></trkpt><trkpt lat="45.45228033003857" lon="11.388998904658603"><ele>48.5</ele><time>2026-04-26T19:28:41Z</time></trkpt><trkpt lat="45.45247621822815" lon="11.389337027954868"><ele>49.0</ele><time>2026-04-26T19:28:42Z</time></trkpt><trkpt lat="45.4526686565399" lon="11.389678027651756"><ele>49.5</ele><time>2026-04-26T19:28:43Z</time></trkpt><trkpt lat="45.45285926198414" lon="11.390021102517508"><ele>50.0</ele><time>2026-04-26T19:28:44Z</time></trkpt><trkpt lat="45.4530485107893" lon="11.390368911320918"><ele>50.5</ele><time>2026-04-26T19:28:45Z</time></trkpt><trkpt lat="45.45323200363429" lon="11.390720984509992"><ele>51.0</ele><time>2026-04-26T19:28:46Z</time></trkpt><trkpt lat="45.45340992396519" lon="11.391077455155337"><ele>51.5</ele><time>2026-04-26T19:28:47Z</time></trkpt><trkpt lat="45.45358272446727" lon="11.391440800447974"><ele>52.0</ele><time>2026-04-26T19:28:48Z</time></trkpt><trkpt lat="45.45374992641281" lon="11.391808072089436"><ele>52.0</ele><time>2026-04-26T19:28:49Z</time></trkpt><trkpt lat="45.45391369022149" lon="11.392170779060216"><ele>52.0</ele><time>2026-04-26T19:28:50Z</time></trkpt><trkpt lat="45.454075928336806" lon="11.392523383704923"><ele>51.0</ele><time>2026-04-26T19:28:51Z</time></trkpt><trkpt lat="45.454234283165725" lon="11.39287789157446"><ele>50.0</ele><time>2026-04-26T19:28:52Z</time></trkpt><trkpt lat="45.45438735227085" lon="11.393240430676453"><ele>50.0</ele><time>2026-04-26T19:28:53Z</time></trkpt><trkpt lat="45.45453839906159" lon="11.393606866347852"><ele>50.0</ele><time>2026-04-26T19:28:54Z</time></trkpt><trkpt lat="45.454697282582785" lon="11.393974877175554"><ele>50.0</ele><time>2026-04-26T19:28:55Z</time></trkpt><trkpt lat="45.45486024993177" lon="11.394352988381957"><ele>50.0</ele><time>2026-04-26T19:28:56Z</time></trkpt><trkpt lat="45.455022000695216" lon="11.394739752119033"><ele>49.5</ele><time>2026-04-26T19:28:57Z</time></trkpt><trkpt lat="45.455182488802095" lon="11.39513267244668"><ele>49.0</ele><time>2026-04-26T19:28:58Z</time></trkpt><trkpt lat="45.45534573565335" lon="11.395526283224818"><ele>51.0</ele><time>2026-04-26T19:28:59Z</time></trkpt><trkpt lat="45.45551645603001" lon="11.395915650048645"><ele>53.0</ele><time>2026-04-26T19:29:00Z</time></trkpt><trkpt lat="45.45568949741986" lon="11.39629750497011"><ele>53.5</ele><time>2026-04-26T19:29:01Z</time></trkpt><trkpt lat="45.45586400657689" lon="11.396670383905875"><ele>54.0</ele><time>2026-04-26T19:29:02Z</time></trkpt><trkpt lat="45.45604352446827" lon="11.397040044830607"><ele>53.0</ele><time>2026-04-26T19:29:03Z</time></trkpt><trkpt lat="45.45622438769943" lon="11.397410551304592"><ele>52.0</ele><time>2026-04-26T19:29:04Z</time></trkpt><trkpt lat="45.45640557606928" lon="11.397778465123647"><ele>52.5</ele><time>2026-04-26T19:29:05Z</time></trkpt><trkpt lat="45.45658988924574" lon="11.39814003783524"><ele>53.0</ele><time>2026-04-26T19:29:06Z</time></trkpt><trkpt lat="45.456782645619036" lon="11.398489961566003"><ele>53.0</ele><time>2026-04-26T19:29:07Z</time></trkpt><trkpt lat="45.45698117470888" lon="11.39883107209949"><ele>53.0</ele><time>2026-04-26T19:29:08Z</time></trkpt><trkpt lat="45.45718562619473" lon="11.399162733337599"><ele>54.0</ele><time>2026-04-26T19:29:09Z</time></trkpt><trkpt lat="45.45739361810543" lon="11.3994884208355"><ele>55.0</ele><time>2026-04-26T19:29:10Z</time></trkpt><trkpt lat="45.45760268198097" lon="11.399806083736271"><ele>55.5</ele><time>2026-04-26T19:29:11Z</time></trkpt><trkpt lat="45.45781375033429" lon="11.400115114144729"><ele>56.0</ele><time>2026-04-26T19:29:12Z</time></trkpt><trkpt lat="45.45802772368776" lon="11.40041817455509"><ele>57.5</ele><time>2026-04-26T19:29:13Z</time></trkpt><trkpt lat="45.45824702654759" lon="11.400717537189633"><ele>59.0</ele><time>2026-04-26T19:29:14Z</time></trkpt><trkpt lat="45.458469798847645" lon="11.401015794692444"><ele>59.0</ele><time>2026-04-26T19:29:15Z</time></trkpt><trkpt lat="45.45869380928888" lon="11.401306210414901"><ele>59.0</ele><time>2026-04-26T19:29:16Z</time></trkpt><trkpt lat="45.45892143160755" lon="11.401589512752144"><ele>57.5</ele><time>2026-04-26T19:29:17Z</time></trkpt><trkpt lat="45.45915208284028" lon="11.401871396005765"><ele>56.0</ele><time>2026-04-26T19:29:18Z</time></trkpt><trkpt lat="45.459380240471035" lon="11.402146870712034"><ele>56.0</ele><time>2026-04-26T19:29:19Z</time></trkpt><trkpt lat="45.459602545704456" lon="11.402415928879645"><ele>56.0</ele><time>2026-04-26T19:29:20Z</time></trkpt><trkpt lat="45.45982258398819" lon="11.402678813449528"><ele>56.0</ele><time>2026-04-26T19:29:21Z</time></trkpt><trkpt lat="45.46003610100561" lon="11.402936112889144"><ele>56.0</ele><time>2026-04-26T19:29:22Z</time></trkpt><trkpt lat="45.46024196370566" lon="11.403185236663358"><ele>56.0</ele><time>2026-04-26T19:29:23Z</time></trkpt><trkpt lat="45.46045314270325" lon="11.40344344426757"><ele>56.0</ele><time>2026-04-26T19:29:24Z</time></trkpt><trkpt lat="45.460658119107336" lon="11.403692037831673"><ele>56.0</ele><time>2026-04-26T19:29:25Z</time></trkpt><trkpt lat="45.46085378802294" lon="11.403921989146466"><ele>56.0</ele><time>2026-04-26T19:29:26Z</time></trkpt><trkpt lat="45.461057780840385" lon="11.404150784222812"><ele>56.0</ele><time>2026-04-26T19:29:27Z</time></trkpt><trkpt lat="45.46127260043818" lon="11.404388705792739"><ele>56.0</ele><time>2026-04-26T19:29:28Z</time></trkpt><trkpt lat="45.46149140691594" lon="11.404638385627267"><ele>55.0</ele><time>2026-04-26T19:29:29Z</time></trkpt><trkpt lat="45.46171115519371" lon="11.404892377167567"><ele>54.0</ele><time>2026-04-26T19:29:30Z</time></trkpt><trkpt lat="45.46193402383365" lon="11.405151973426019"><ele>54.0</ele><time>2026-04-26T19:29:31Z</time></trkpt><trkpt lat="45.46215839491462" lon="11.405416332116017"><ele>54.0</ele><time>2026-04-26T19:29:32Z</time></trkpt><trkpt lat="45.462383619061164" lon="11.405686661783891"><ele>54.0</ele><time>2026-04-26T19:29:33Z</time></trkpt><trkpt lat="45.46261125572764" lon="11.405962263108895"><ele>54.0</ele><time>2026-04-26T19:29:34Z</time></trkpt><trkpt lat="45.46284203747802" lon="11.406243204909321"><ele>54.0</ele><time>2026-04-26T19:29:35Z</time></trkpt><trkpt lat="45.46306412737086" lon="11.406522100875227"><ele>54.0</ele><time>2026-04-26T19:29:36Z</time></trkpt><trkpt lat="45.463277957193895" lon="11.406805805767767"><ele>54.0</ele><time>2026-04-26T19:29:37Z</time></trkpt><trkpt lat="45.463493001237104" lon="11.407100796700702"><ele>54.0</ele><time>2026-04-26T19:29:38Z</time></trkpt><trkpt lat="45.46370559435661" lon="11.407401057319133"><ele>53.0</ele><time>2026-04-26T19:29:39Z</time></trkpt><trkpt lat="45.46391603313132" lon="11.407706082048238"><ele>52.0</ele><time>2026-04-26T19:29:40Z</time></trkpt><trkpt lat="45.46412553346089" lon="11.408010204311937"><ele>52.0</ele><time>2026-04-26T19:29:41Z</time></trkpt><trkpt lat="45.464333869155354" lon="11.408314877405525"><ele>52.0</ele><time>2026-04-26T19:29:42Z</time></trkpt><trkpt lat="45.46454148120688" lon="11.408621279033847"><ele>51.0</ele><time>2026-04-26T19:29:43Z</time></trkpt><trkpt lat="45.46475277316847" lon="11.40892591728339"><ele>50.0</ele><time>2026-04-26T19:29:44Z</time></trkpt><trkpt lat="45.464961493500695" lon="11.409236195410093"><ele>50.0</ele><time>2026-04-26T19:29:45Z</time></trkpt><trkpt lat="45.46517273699376" lon="11.40954655673752"><ele>50.0</ele><time>2026-04-26T19:29:46Z</time></trkpt><trkpt lat="45.46538392366359" lon="11.409857834439633"><ele>50.5</ele><time>2026-04-26T19:29:47Z</time></trkpt><trkpt lat="45.46559673141155" lon="11.410168026879273"><ele>51.0</ele><time>2026-04-26T19:29:48Z</time></trkpt><trkpt lat="45.465810624916195" lon="11.410477727930967"><ele>51.0</ele><time>2026-04-26T19:29:49Z</time></trkpt><trkpt lat="45.46602403576106" lon="11.410786421415292"><ele>51.0</ele><time>2026-04-26T19:29:50Z</time></trkpt><trkpt lat="45.466236999662115" lon="11.411095741350733"><ele>52.0</ele><time>2026-04-26T19:29:51Z</time></trkpt><trkpt lat="45.466448783738386" lon="11.411406587343192"><ele>53.0</ele><time>2026-04-26T19:29:52Z</time></trkpt><trkpt lat="45.466659669011364" lon="11.411715801340774"><ele>53.0</ele><time>2026-04-26T19:29:53Z</time></trkpt><trkpt lat="45.46687031460626" lon="11.4120231710995"><ele>53.0</ele><time>2026-04-26T19:29:54Z</time></trkpt><trkpt lat="45.46707998591353" lon="11.412329218914666"><ele>51.0</ele><time>2026-04-26T19:29:55Z</time></trkpt><trkpt lat="45.467290515580245" lon="11.412636948700774"><ele>49.0</ele><time>2026-04-26T19:29:56Z</time></trkpt><trkpt lat="45.467500096668815" lon="11.412946107078444"><ele>50.0</ele><time>2026-04-26T19:29:57Z</time></trkpt><trkpt lat="45.46770915540002" lon="11.413254769592518"><ele>51.0</ele><time>2026-04-26T19:29:58Z</time></trkpt><trkpt lat="45.46792190270659" lon="11.413560472924287"><ele>49.5</ele><time>2026-04-26T19:29:59Z</time></trkpt><trkpt lat="45.46813371884519" lon="11.413866551323476"><ele>48.0</ele><time>2026-04-26T19:30:00Z</time></trkpt><trkpt lat="45.46834432367851" lon="11.414172994380136"><ele>48.0</ele><time>2026-04-26T19:30:01Z</time></trkpt><trkpt lat="45.468553551984186" lon="11.414480301841941"><ele>48.0</ele><time>2026-04-26T19:30:02Z</time></trkpt><trkpt lat="45.468764685723606" lon="11.414786630336444"><ele>48.0</ele><time>2026-04-26T19:30:03Z</time></trkpt><trkpt lat="45.468976554372155" lon="11.415095516072688"><ele>48.0</ele><time>2026-04-26T19:30:04Z</time></trkpt><trkpt lat="45.4691857190666" lon="11.415406155303472"><ele>49.0</ele><time>2026-04-26T19:30:05Z</time></trkpt><trkpt lat="45.46939714298149" lon="11.415717364904475"><ele>50.0</ele><time>2026-04-26T19:30:06Z</time></trkpt><trkpt lat="45.469609931151496" lon="11.41602726301378"><ele>50.5</ele><time>2026-04-26T19:30:07Z</time></trkpt><trkpt lat="45.46982414581279" lon="11.416339755877008"><ele>51.0</ele><time>2026-04-26T19:30:08Z</time></trkpt><trkpt lat="45.470037402027344" lon="11.416654593335432"><ele>51.0</ele><time>2026-04-26T19:30:09Z</time></trkpt><trkpt lat="45.47024791251001" lon="11.416974000295744"><ele>51.0</ele><time>2026-04-26T19:30:10Z</time></trkpt><trkpt lat="45.470450237100344" lon="11.417300958019192"><ele>51.5</ele><time>2026-04-26T19:30:11Z</time></trkpt><trkpt lat="45.47065066167883" lon="11.417629819085723"><ele>52.0</ele><time>2026-04-26T19:30:12Z</time></trkpt><trkpt lat="45.47085204541289" lon="11.417957216011748"><ele>52.5</ele><time>2026-04-26T19:30:13Z</time></trkpt><trkpt lat="45.471055853306396" lon="11.418284179927163"><ele>53.0</ele><time>2026-04-26T19:30:14Z</time></trkpt><trkpt lat="45.47126129932216" lon="11.418613702484897"><ele>54.5</ele><time>2026-04-26T19:30:15Z</time></trkpt><trkpt lat="45.47146418527399" lon="11.418943047230206"><ele>56.0</ele><time>2026-04-26T19:30:16Z</time></trkpt><trkpt lat="45.47166380756276" lon="11.419270550199974"><ele>56.0</ele><time>2026-04-26T19:30:17Z</time></trkpt><trkpt lat="45.47186202430395" lon="11.41959487050786"><ele>56.0</ele><time>2026-04-26T19:30:18Z</time></trkpt><trkpt lat="45.47205819735287" lon="11.419914245677237"><ele>56.0</ele><time>2026-04-26T19:30:19Z</time></trkpt><trkpt lat="45.472253114470455" lon="11.42023179126022"><ele>56.0</ele><time>2026-04-26T19:30:20Z</time></trkpt><trkpt lat="45.47244779151555" lon="11.420550963408152"><ele>56.0</ele><time>2026-04-26T19:30:21Z</time></trkpt><trkpt lat="45.47264257431649" lon="11.42087258433675"><ele>56.0</ele><time>2026-04-26T19:30:22Z</time></trkpt><trkpt lat="45.47283749599262" lon="11.42119316477498"><ele>56.0</ele><time>2026-04-26T19:30:23Z</time></trkpt><trkpt lat="45.47303304189571" lon="11.421512762678125"><ele>56.0</ele><time>2026-04-26T19:30:24Z</time></trkpt><trkpt lat="45.473230939361954" lon="11.42183409419862"><ele>53.0</ele><time>2026-04-26T19:30:25Z</time></trkpt><trkpt lat="45.473423731903814" lon="11.422155928358448"><ele>50.0</ele><time>2026-04-26T19:30:26Z</time></trkpt><trkpt lat="45.47360649952018" lon="11.422461455929007"><ele>51.5</ele><time>2026-04-26T19:30:27Z</time></trkpt><trkpt lat="45.47379536717625" lon="11.422773309148232"><ele>53.0</ele><time>2026-04-26T19:30:28Z</time></trkpt><trkpt lat="45.47399169069226" lon="11.42308111578292"><ele>53.0</ele><time>2026-04-26T19:30:29Z</time></trkpt><trkpt lat="45.47419788623763" lon="11.423387967035168"><ele>53.0</ele><time>2026-04-26T19:30:30Z</time></trkpt><trkpt lat="45.4744098359121" lon="11.423695988804202"><ele>53.0</ele><time>2026-04-26T19:30:31Z</time></trkpt><trkpt lat="45.47462173229015" lon="11.42400679627269"><ele>53.0</ele><time>2026-04-26T19:30:32Z</time></trkpt><trkpt lat="45.47483662040273" lon="11.4243167642591"><ele>53.0</ele><time>2026-04-26T19:30:33Z</time></trkpt><trkpt lat="45.47505350337051" lon="11.424627548743025"><ele>53.0</ele><time>2026-04-26T19:30:34Z</time></trkpt><trkpt lat="45.4752737385706" lon="11.424932208438069"><ele>53.0</ele><time>2026-04-26T19:30:35Z</time></trkpt><trkpt lat="45.47549939502191" lon="11.425232802931566"><ele>53.0</ele><time>2026-04-26T19:30:36Z</time></trkpt><trkpt lat="45.47573134261586" lon="11.4255283438698"><ele>55.5</ele><time>2026-04-26T19:30:37Z</time></trkpt><trkpt lat="45.47596629627229" lon="11.425818121656363"><ele>58.0</ele><time>2026-04-26T19:30:38Z</time></trkpt><trkpt lat="45.4762037512242" lon="11.426102999209709"><ele>57.5</ele><time>2026-04-26T19:30:39Z</time></trkpt><trkpt lat="45.47644429189384" lon="11.426381960942544"><ele>57.0</ele><time>2026-04-26T19:30:40Z</time></trkpt><trkpt lat="45.47668752179446" lon="11.426663122378708"><ele>57.0</ele><time>2026-04-26T19:30:41Z</time></trkpt><trkpt lat="45.476933266677065" lon="11.426940192592644"><ele>57.0</ele><time>2026-04-26T19:30:42Z</time></trkpt><trkpt lat="45.47718251600762" lon="11.427218759171371"><ele>54.0</ele><time>2026-04-26T19:30:43Z</time></trkpt><trkpt lat="45.47742941563112" lon="11.427504946381202"><ele>51.0</ele><time>2026-04-26T19:30:44Z</time></trkpt><trkpt lat="45.47767471575657" lon="11.427800211598166"><ele>51.0</ele><time>2026-04-26T19:30:45Z</time></trkpt><trkpt lat="45.477917912463546" lon="11.42809612999662"><ele>51.0</ele><time>2026-04-26T19:30:46Z</time></trkpt><trkpt lat="45.47816108126932" lon="11.428394963588506"><ele>51.0</ele><time>2026-04-26T19:30:47Z</time></trkpt><trkpt lat="45.47840492723823" lon="11.428695576726659"><ele>51.0</ele><time>2026-04-26T19:30:48Z</time></trkpt><trkpt lat="45.47865316540876" lon="11.428988614300154"><ele>51.0</ele><time>2026-04-26T19:30:49Z</time></trkpt><trkpt lat="45.47890303072797" lon="11.429273335531645"><ele>51.0</ele><time>2026-04-26T19:30:50Z</time></trkpt><trkpt lat="45.47915510070911" lon="11.429553722719234"><ele>50.5</ele><time>2026-04-26T19:30:51Z</time></trkpt><trkpt lat="45.47940731235774" lon="11.429833446403304"><ele>50.0</ele><time>2026-04-26T19:30:52Z</time></trkpt><trkpt lat="45.47965915965788" lon="11.43011536702813"><ele>50.0</ele><time>2026-04-26T19:30:53Z</time></trkpt><trkpt lat="45.47990919351742" lon="11.430395669001987"><ele>50.0</ele><time>2026-04-26T19:30:54Z</time></trkpt><trkpt lat="45.480157559021386" lon="11.430674026851557"><ele>49.0</ele><time>2026-04-26T19:30:55Z</time></trkpt><trkpt lat="45.48040836983894" lon="11.430951861018501"><ele>48.0</ele><time>2026-04-26T19:30:56Z</time></trkpt><trkpt lat="45.480659507236844" lon="11.431227299958053"><ele>48.5</ele><time>2026-04-26T19:30:57Z</time></trkpt><trkpt lat="45.48090911981575" lon="11.431502822056228"><ele>49.0</ele><time>2026-04-26T19:30:58Z</time></trkpt><trkpt lat="45.481156339842954" lon="11.431780427708045"><ele>49.5</ele><time>2026-04-26T19:30:59Z</time></trkpt><trkpt lat="45.48140249446503" lon="11.432059582143484"><ele>50.0</ele><time>2026-04-26T19:31:00Z</time></trkpt><trkpt lat="45.481646544707665" lon="11.432339488129559"><ele>50.0</ele><time>2026-04-26T19:31:01Z</time></trkpt><trkpt lat="45.48188935642661" lon="11.432620422055564"><ele>50.0</ele><time>2026-04-26T19:31:02Z</time></trkpt><trkpt lat="45.48213218343309" lon="11.432898668368802"><ele>50.5</ele><time>2026-04-26T19:31:03Z</time></trkpt><trkpt lat="45.48237582058346" lon="11.433172416112686"><ele>51.0</ele><time>2026-04-26T19:31:04Z</time></trkpt><trkpt lat="45.48262173678099" lon="11.433438449077723"><ele>51.0</ele><time>2026-04-26T19:31:05Z</time></trkpt><trkpt lat="45.48287071276643" lon="11.43370298404332"><ele>51.0</ele><time>2026-04-26T19:31:06Z</time></trkpt><trkpt lat="45.4831209737722" lon="11.433968514714431"><ele>51.0</ele><time>2026-04-26T19:31:07Z</time></trkpt><trkpt lat="45.48337038351851" lon="11.434237480184404"><ele>51.0</ele><time>2026-04-26T19:31:08Z</time></trkpt><trkpt lat="45.48361651575027" lon="11.434509422235484"><ele>52.0</ele><time>2026-04-26T19:31:09Z</time></trkpt><trkpt lat="45.48385901488058" lon="11.434784905791982"><ele>53.0</ele><time>2026-04-26T19:31:10Z</time></trkpt><trkpt lat="45.484101050482096" lon="11.435058256929594"><ele>53.0</ele><time>2026-04-26T19:31:11Z</time></trkpt><trkpt lat="45.484342682475656" lon="11.435330795171929"><ele>53.0</ele><time>2026-04-26T19:31:12Z</time></trkpt><trkpt lat="45.48458284007018" lon="11.435603089559159"><ele>52.0</ele><time>2026-04-26T19:31:13Z</time></trkpt><trkpt lat="45.48482473922" lon="11.43587680196029"><ele>51.0</ele><time>2026-04-26T19:31:14Z</time></trkpt><trkpt lat="45.48506628396044" lon="11.436152106329217"><ele>51.5</ele><time>2026-04-26T19:31:15Z</time></trkpt><trkpt lat="45.485300983597234" lon="11.436435963847325"><ele>52.0</ele><time>2026-04-26T19:31:16Z</time></trkpt><trkpt lat="45.4855336323184" lon="11.436721319996938"><ele>52.0</ele><time>2026-04-26T19:31:17Z</time></trkpt><trkpt lat="45.485768839345326" lon="11.437003394162593"><ele>52.0</ele><time>2026-04-26T19:31:18Z</time></trkpt><trkpt lat="45.48600844262682" lon="11.437277958158347"><ele>52.0</ele><time>2026-04-26T19:31:19Z</time></trkpt><trkpt lat="45.48625344176148" lon="11.43754831717909"><ele>52.0</ele><time>2026-04-26T19:31:20Z</time></trkpt><trkpt lat="45.48650083273422" lon="11.437821482837503"><ele>52.0</ele><time>2026-04-26T19:31:21Z</time></trkpt><trkpt lat="45.48674800945679" lon="11.438097328934555"><ele>52.0</ele><time>2026-04-26T19:31:22Z</time></trkpt><trkpt lat="45.48699440507629" lon="11.438378778974796"><ele>52.0</ele><time>2026-04-26T19:31:23Z</time></trkpt><trkpt lat="45.48724264296982" lon="11.43865921978565"><ele>52.0</ele><time>2026-04-26T19:31:24Z</time></trkpt><trkpt lat="45.487492181802914" lon="11.438940797472489"><ele>52.0</ele><time>2026-04-26T19:31:25Z</time></trkpt><trkpt lat="45.48773990946062" lon="11.439217927545831"><ele>52.0</ele><time>2026-04-26T19:31:26Z</time></trkpt><trkpt lat="45.48798793034537" lon="11.439495646562078"><ele>52.0</ele><time>2026-04-26T19:31:27Z</time></trkpt><trkpt lat="45.48823769310933" lon="11.43977350462736"><ele>52.0</ele><time>2026-04-26T19:31:28Z</time></trkpt><trkpt lat="45.48848502295648" lon="11.440053505011731"><ele>52.0</ele><time>2026-04-26T19:31:29Z</time></trkpt><trkpt lat="45.48873293282736" lon="11.440333214297183"><ele>52.0</ele><time>2026-04-26T19:31:30Z</time></trkpt><trkpt lat="45.48898087054462" lon="11.440611210302903"><ele>52.5</ele><time>2026-04-26T19:31:31Z</time></trkpt><trkpt lat="45.48922834175943" lon="11.440888855478743"><ele>53.0</ele><time>2026-04-26T19:31:32Z</time></trkpt><trkpt lat="45.489474551191165" lon="11.441167734023454"><ele>54.5</ele><time>2026-04-26T19:31:33Z</time></trkpt><trkpt lat="45.48971998139648" lon="11.44144691861386"><ele>56.0</ele><time>2026-04-26T19:31:34Z</time></trkpt><trkpt lat="45.48996629190196" lon="11.441725263289506"><ele>56.0</ele><time>2026-04-26T19:31:35Z</time></trkpt><trkpt lat="45.49021375933482" lon="11.442004196640047"><ele>56.0</ele><time>2026-04-26T19:31:36Z</time></trkpt><trkpt lat="45.4904626339089" lon="11.442284104150438"><ele>55.0</ele><time>2026-04-26T19:31:37Z</time></trkpt><trkpt lat="45.49071134447331" lon="11.44256759314126"><ele>54.0</ele><time>2026-04-26T19:31:38Z</time></trkpt><trkpt lat="45.490960817348004" lon="11.442847201818422"><ele>53.5</ele><time>2026-04-26T19:31:39Z</time></trkpt><trkpt lat="45.491213837197506" lon="11.44312542092273"><ele>53.0</ele><time>2026-04-26T19:31:40Z</time></trkpt><trkpt lat="45.491466369561486" lon="11.443404758679812"><ele>52.5</ele><time>2026-04-26T19:31:41Z</time></trkpt><trkpt lat="45.491718566714624" lon="11.443687368669556"><ele>52.0</ele><time>2026-04-26T19:31:42Z</time></trkpt><trkpt lat="45.49197024381989" lon="11.44397328458129"><ele>53.0</ele><time>2026-04-26T19:31:43Z</time></trkpt><trkpt lat="45.4922210133593" lon="11.444260835103332"><ele>54.0</ele><time>2026-04-26T19:31:44Z</time></trkpt><trkpt lat="45.492472510633434" lon="11.44454557066706"><ele>53.5</ele><time>2026-04-26T19:31:45Z</time></trkpt><trkpt lat="45.49272391659266" lon="11.444826939150364"><ele>53.0</ele><time>2026-04-26T19:31:46Z</time></trkpt><trkpt lat="45.492975542543334" lon="11.445108511721484"><ele>53.0</ele><time>2026-04-26T19:31:47Z</time></trkpt><trkpt lat="45.49322641033436" lon="11.445390751325897"><ele>53.0</ele><time>2026-04-26T19:31:48Z</time></trkpt><trkpt lat="45.493475909537835" lon="11.445671715205895"><ele>53.5</ele><time>2026-04-26T19:31:49Z</time></trkpt><trkpt lat="45.493726291970276" lon="11.445952137998118"><ele>54.0</ele><time>2026-04-26T19:31:50Z</time></trkpt><trkpt lat="45.49397590144268" lon="11.446233945309134"><ele>54.0</ele><time>2026-04-26T19:31:51Z</time></trkpt><trkpt lat="45.49422263859855" lon="11.446518175268821"><ele>54.0</ele><time>2026-04-26T19:31:52Z</time></trkpt><trkpt lat="45.49446894271627" lon="11.446802416278677"><ele>54.0</ele><time>2026-04-26T19:31:53Z</time></trkpt><trkpt lat="45.49471474439606" lon="11.447084030540813"><ele>54.0</ele><time>2026-04-26T19:31:54Z</time></trkpt><trkpt lat="45.49496151378024" lon="11.447365216861233"><ele>54.0</ele><time>2026-04-26T19:31:55Z</time></trkpt><trkpt lat="45.49520874421634" lon="11.44764535638432"><ele>54.0</ele><time>2026-04-26T19:31:56Z</time></trkpt><trkpt lat="45.495459595719666" lon="11.447921850785349"><ele>54.0</ele><time>2026-04-26T19:31:57Z</time></trkpt><trkpt lat="45.49570996858842" lon="11.448198750214162"><ele>54.0</ele><time>2026-04-26T19:31:58Z</time></trkpt><trkpt lat="45.49595956169828" lon="11.448477933651048"><ele>54.0</ele><time>2026-04-26T19:31:59Z</time></trkpt><trkpt lat="45.49620765053932" lon="11.44876306410803"><ele>54.0</ele><time>2026-04-26T19:32:00Z</time></trkpt><trkpt lat="45.496456508981474" lon="11.449047856328011"><ele>54.5</ele><time>2026-04-26T19:32:01Z</time></trkpt><trkpt lat="45.496708072976574" lon="11.449332628818425"><ele>55.0</ele><time>2026-04-26T19:32:02Z</time></trkpt><trkpt lat="45.49695935783049" lon="11.449619463659788"><ele>53.5</ele><time>2026-04-26T19:32:03Z</time></trkpt><trkpt lat="45.497215162624" lon="11.449903573789735"><ele>52.0</ele><time>2026-04-26T19:32:04Z</time></trkpt><trkpt lat="45.49746741836857" lon="11.450190706456057"><ele>51.5</ele><time>2026-04-26T19:32:05Z</time></trkpt><trkpt lat="45.497720701293666" lon="11.450478243918253"><ele>51.0</ele><time>2026-04-26T19:32:06Z</time></trkpt><trkpt lat="45.49797552592592" lon="11.45076297140041"><ele>51.0</ele><time>2026-04-26T19:32:07Z</time></trkpt><trkpt lat="45.49822981802766" lon="11.451050835840594"><ele>51.0</ele><time>2026-04-26T19:32:08Z</time></trkpt><trkpt lat="45.498486811212814" lon="11.451337060002592"><ele>51.5</ele><time>2026-04-26T19:32:09Z</time></trkpt><trkpt lat="45.49874158306663" lon="11.451626018993304"><ele>52.0</ele><time>2026-04-26T19:32:10Z</time></trkpt><trkpt lat="45.49899758806789" lon="11.451914048366843"><ele>54.0</ele><time>2026-04-26T19:32:11Z</time></trkpt><trkpt lat="45.49925216163388" lon="11.452204234817355"><ele>56.0</ele><time>2026-04-26T19:32:12Z</time></trkpt><trkpt lat="45.49950700045048" lon="11.45249111336761"><ele>57.0</ele><time>2026-04-26T19:32:13Z</time></trkpt><trkpt lat="45.49976265921293" lon="11.452776458949435"><ele>58.0</ele><time>2026-04-26T19:32:14Z</time></trkpt><trkpt lat="45.50001711159188" lon="11.453066821316199"><ele>58.0</ele><time>2026-04-26T19:32:15Z</time></trkpt><trkpt lat="45.50026852126301" lon="11.453352889095672"><ele>58.0</ele><time>2026-04-26T19:32:16Z</time></trkpt><trkpt lat="45.50051427024541" lon="11.453651864071945"><ele>56.0</ele><time>2026-04-26T19:32:17Z</time></trkpt><trkpt lat="45.50075449603412" lon="11.45395984020646"><ele>54.0</ele><time>2026-04-26T19:32:18Z</time></trkpt><trkpt lat="45.500989895218254" lon="11.454277021182456"><ele>54.0</ele><time>2026-04-26T19:32:19Z</time></trkpt><trkpt lat="45.5012192023847" lon="11.454602161552693"><ele>54.0</ele><time>2026-04-26T19:32:20Z</time></trkpt><trkpt lat="45.50144249169576" lon="11.454935385821944"><ele>54.5</ele><time>2026-04-26T19:32:21Z</time></trkpt><trkpt lat="45.50166290194687" lon="11.455272353647358"><ele>55.0</ele><time>2026-04-26T19:32:22Z</time></trkpt><trkpt lat="45.50187733138472" lon="11.455617795727694"><ele>52.5</ele><time>2026-04-26T19:32:23Z</time></trkpt><trkpt lat="45.50208717853323" lon="11.455970546528427"><ele>50.0</ele><time>2026-04-26T19:32:24Z</time></trkpt><trkpt lat="45.50229133832442" lon="11.456330641131528"><ele>50.0</ele><time>2026-04-26T19:32:25Z</time></trkpt><trkpt lat="45.50249080002261" lon="11.456697307230268"><ele>50.0</ele><time>2026-04-26T19:32:26Z</time></trkpt><trkpt lat="45.50268564922478" lon="11.457068557882982"><ele>48.5</ele><time>2026-04-26T19:32:27Z</time></trkpt><trkpt lat="45.50287471880475" lon="11.457443844556792"><ele>47.0</ele><time>2026-04-26T19:32:28Z</time></trkpt><trkpt lat="45.50305577980321" lon="11.457822056799142"><ele>49.0</ele><time>2026-04-26T19:32:29Z</time></trkpt><trkpt lat="45.50322669196711" lon="11.458189235451806"><ele>51.0</ele><time>2026-04-26T19:32:30Z</time></trkpt><trkpt lat="45.503396912999214" lon="11.45856041100737"><ele>51.0</ele><time>2026-04-26T19:32:31Z</time></trkpt><trkpt lat="45.50357090400696" lon="11.458947112030728"><ele>51.0</ele><time>2026-04-26T19:32:32Z</time></trkpt><trkpt lat="45.50374443828845" lon="11.459339006997146"><ele>51.0</ele><time>2026-04-26T19:32:33Z</time></trkpt><trkpt lat="45.50391391762814" lon="11.459739100028706"><ele>51.0</ele><time>2026-04-26T19:32:34Z</time></trkpt><trkpt lat="45.50407184842115" lon="11.460144980938823"><ele>52.5</ele><time>2026-04-26T19:32:35Z</time></trkpt><trkpt lat="45.50422025465414" lon="11.460551499167254"><ele>54.0</ele><time>2026-04-26T19:32:36Z</time></trkpt><trkpt lat="45.5043589467041" lon="11.46096108087029"><ele>54.0</ele><time>2026-04-26T19:32:37Z</time></trkpt><trkpt lat="45.504494135828466" lon="11.461370759981985"><ele>54.0</ele><time>2026-04-26T19:32:38Z</time></trkpt><trkpt lat="45.504629263719465" lon="11.46178374992992"><ele>50.0</ele><time>2026-04-26T19:32:39Z</time></trkpt><trkpt lat="45.50475959192087" lon="11.462200291568328"><ele>46.0</ele><time>2026-04-26T19:32:40Z</time></trkpt><trkpt lat="45.50488453782772" lon="11.462619196789673"><ele>46.0</ele><time>2026-04-26T19:32:41Z</time></trkpt><trkpt lat="45.50500477000269" lon="11.463042356784833"><ele>46.0</ele><time>2026-04-26T19:32:42Z</time></trkpt><trkpt lat="45.50512162261872" lon="11.463472780338657"><ele>44.5</ele><time>2026-04-26T19:32:43Z</time></trkpt><trkpt lat="45.50523326835515" lon="11.463903908232489"><ele>43.0</ele><time>2026-04-26T19:32:44Z</time></trkpt><trkpt lat="45.50533732179435" lon="11.464336819937198"><ele>43.5</ele><time>2026-04-26T19:32:45Z</time></trkpt><trkpt lat="45.505437985358704" lon="11.464768189881937"><ele>44.0</ele><time>2026-04-26T19:32:46Z</time></trkpt><trkpt lat="45.505536697760775" lon="11.465197907535584"><ele>44.0</ele><time>2026-04-26T19:32:47Z</time></trkpt><trkpt lat="45.50563359261418" lon="11.465630291795774"><ele>44.0</ele><time>2026-04-26T19:32:48Z</time></trkpt><trkpt lat="45.505729561258626" lon="11.466062567235795"><ele>43.5</ele><time>2026-04-26T19:32:49Z</time></trkpt><trkpt lat="45.50582538776364" lon="11.466493677948238"><ele>43.0</ele><time>2026-04-26T19:32:50Z</time></trkpt><trkpt lat="45.50592214732858" lon="11.466922654328322"><ele>42.5</ele><time>2026-04-26T19:32:51Z</time></trkpt><trkpt lat="45.50602081621719" lon="11.467349780616878"><ele>42.0</ele><time>2026-04-26T19:32:52Z</time></trkpt><trkpt lat="45.506123571851596" lon="11.467773013272508"><ele>42.5</ele><time>2026-04-26T19:32:53Z</time></trkpt><trkpt lat="45.50623405298965" lon="11.46819117650161"><ele>43.0</ele><time>2026-04-26T19:32:54Z</time></trkpt><trkpt lat="45.50634910819738" lon="11.468603791608523"><ele>43.0</ele><time>2026-04-26T19:32:55Z</time></trkpt><trkpt lat="45.506470496318194" lon="11.469013968473256"><ele>43.0</ele><time>2026-04-26T19:32:56Z</time></trkpt><trkpt lat="45.50659682710652" lon="11.469422810930155"><ele>42.5</ele><time>2026-04-26T19:32:57Z</time></trkpt><trkpt lat="45.50672730361877" lon="11.469828234112132"><ele>42.0</ele><time>2026-04-26T19:32:58Z</time></trkpt><trkpt lat="45.50686218143064" lon="11.470230280144552"><ele>42.5</ele><time>2026-04-26T19:32:59Z</time></trkpt><trkpt lat="45.50700046988122" lon="11.470629390719216"><ele>43.0</ele><time>2026-04-26T19:33:00Z</time></trkpt><trkpt lat="45.507144514799734" lon="11.47102486506775"><ele>42.5</ele><time>2026-04-26T19:33:01Z</time></trkpt><trkpt lat="45.50729040521291" lon="11.471418821920858"><ele>42.0</ele><time>2026-04-26T19:33:02Z</time></trkpt><trkpt lat="45.5074351726116" lon="11.471814341774156"><ele>40.5</ele><time>2026-04-26T19:33:03Z</time></trkpt><trkpt lat="45.50757657409455" lon="11.472211429776122"><ele>39.0</ele><time>2026-04-26T19:33:04Z</time></trkpt><trkpt lat="45.507716949154585" lon="11.472610910995172"><ele>39.5</ele><time>2026-04-26T19:33:05Z</time></trkpt><trkpt lat="45.5078572568712" lon="11.473010468756973"><ele>40.0</ele><time>2026-04-26T19:33:06Z</time></trkpt><trkpt lat="45.507998546290096" lon="11.473409222353315"><ele>39.0</ele><time>2026-04-26T19:33:07Z</time></trkpt><trkpt lat="45.50813768498911" lon="11.473808850998132"><ele>38.0</ele><time>2026-04-26T19:33:08Z</time></trkpt><trkpt lat="45.508274892742456" lon="11.474209944937643"><ele>38.0</ele><time>2026-04-26T19:33:09Z</time></trkpt><trkpt lat="45.50840873261724" lon="11.474613764376626"><ele>38.0</ele><time>2026-04-26T19:33:10Z</time></trkpt><trkpt lat="45.508542075746064" lon="11.475018791345944"><ele>38.0</ele><time>2026-04-26T19:33:11Z</time></trkpt><trkpt lat="45.508675697899285" lon="11.475427665668759"><ele>38.0</ele><time>2026-04-26T19:33:12Z</time></trkpt><trkpt lat="45.508811782033966" lon="11.475833144658287"><ele>38.0</ele><time>2026-04-26T19:33:13Z</time></trkpt><trkpt lat="45.508947356915115" lon="11.476234573175873"><ele>38.0</ele><time>2026-04-26T19:33:14Z</time></trkpt><trkpt lat="45.50908473761417" lon="11.4766350819957"><ele>38.0</ele><time>2026-04-26T19:33:15Z</time></trkpt><trkpt lat="45.50922319285347" lon="11.477028311838499"><ele>38.0</ele><time>2026-04-26T19:33:16Z</time></trkpt><trkpt lat="45.50936492910396" lon="11.477417110959035"><ele>37.5</ele><time>2026-04-26T19:33:17Z</time></trkpt><trkpt lat="45.50950706127631" lon="11.477804727766026"><ele>37.0</ele><time>2026-04-26T19:33:18Z</time></trkpt><trkpt lat="45.50964920648939" lon="11.478194074486206"><ele>36.5</ele><time>2026-04-26T19:33:19Z</time></trkpt><trkpt lat="45.50979102570129" lon="11.478584195333285"><ele>36.0</ele><time>2026-04-26T19:33:20Z</time></trkpt><trkpt lat="45.50993847987543" lon="11.478969267328045"><ele>35.5</ele><time>2026-04-26T19:33:21Z</time></trkpt><trkpt lat="45.51009316996812" lon="11.479350952223715"><ele>35.0</ele><time>2026-04-26T19:33:22Z</time></trkpt><trkpt lat="45.510248003738916" lon="11.479739315501437"><ele>36.0</ele><time>2026-04-26T19:33:23Z</time></trkpt><trkpt lat="45.510403675966685" lon="11.480135134372327"><ele>37.0</ele><time>2026-04-26T19:33:24Z</time></trkpt><trkpt lat="45.510557308942566" lon="11.480535165675446"><ele>37.0</ele><time>2026-04-26T19:33:25Z</time></trkpt><trkpt lat="45.51070926787111" lon="11.480939588833577"><ele>37.0</ele><time>2026-04-26T19:33:26Z</time></trkpt><trkpt lat="45.51085845242529" lon="11.481349782467714"><ele>37.5</ele><time>2026-04-26T19:33:27Z</time></trkpt><trkpt lat="45.51100412726929" lon="11.48176335361994"><ele>38.0</ele><time>2026-04-26T19:33:28Z</time></trkpt><trkpt lat="45.5111523096679" lon="11.482173810303824"><ele>37.5</ele><time>2026-04-26T19:33:29Z</time></trkpt><trkpt lat="45.511298948734414" lon="11.48258317075745"><ele>37.0</ele><time>2026-04-26T19:33:30Z</time></trkpt><trkpt lat="45.5114437125432" lon="11.482993278510797"><ele>35.5</ele><time>2026-04-26T19:33:31Z</time></trkpt><trkpt lat="45.511586978684235" lon="11.483414161517556"><ele>34.0</ele><time>2026-04-26T19:33:32Z</time></trkpt><trkpt lat="45.511732437680884" lon="11.48384949164808"><ele>32.0</ele><time>2026-04-26T19:33:33Z</time></trkpt><trkpt lat="45.511878241665855" lon="11.48428332593512"><ele>30.0</ele><time>2026-04-26T19:33:34Z</time></trkpt><trkpt lat="45.512020904492495" lon="11.484714680939101"><ele>31.0</ele><time>2026-04-26T19:33:35Z</time></trkpt><trkpt lat="45.51216377891482" lon="11.48514035088446"><ele>32.0</ele><time>2026-04-26T19:33:36Z</time></trkpt><trkpt lat="45.512308442081434" lon="11.4855618602084"><ele>32.0</ele><time>2026-04-26T19:33:37Z</time></trkpt><trkpt lat="45.51245423808393" lon="11.48598136100861"><ele>32.0</ele><time>2026-04-26T19:33:38Z</time></trkpt><trkpt lat="45.51260095530035" lon="11.486400233893509"><ele>30.5</ele><time>2026-04-26T19:33:39Z</time></trkpt><trkpt lat="45.512747352193585" lon="11.486815545591849"><ele>29.0</ele><time>2026-04-26T19:33:40Z</time></trkpt><trkpt lat="45.512893878018154" lon="11.487230546177392"><ele>31.5</ele><time>2026-04-26T19:33:41Z</time></trkpt><trkpt lat="45.51303994002825" lon="11.487639913002823"><ele>34.0</ele><time>2026-04-26T19:33:42Z</time></trkpt><trkpt lat="45.513186068082206" lon="11.488045743188756"><ele>34.0</ele><time>2026-04-26T19:33:43Z</time></trkpt><trkpt lat="45.513333040347476" lon="11.4884505099094"><ele>34.0</ele><time>2026-04-26T19:33:44Z</time></trkpt><trkpt lat="45.513479898667754" lon="11.488855852732353"><ele>33.5</ele><time>2026-04-26T19:33:45Z</time></trkpt><trkpt lat="45.51362595626894" lon="11.489260341193756"><ele>33.0</ele><time>2026-04-26T19:33:46Z</time></trkpt><trkpt lat="45.51377244786801" lon="11.489665297316048"><ele>33.0</ele><time>2026-04-26T19:33:47Z</time></trkpt><trkpt lat="45.513919154769" lon="11.490069096600548"><ele>33.0</ele><time>2026-04-26T19:33:48Z</time></trkpt><trkpt lat="45.51406548873484" lon="11.490472643250058"><ele>32.5</ele><time>2026-04-26T19:33:49Z</time></trkpt><trkpt lat="45.514213868435526" lon="11.490875681200718"><ele>32.0</ele><time>2026-04-26T19:33:50Z</time></trkpt><trkpt lat="45.51436128339536" lon="11.49127916893028"><ele>31.5</ele><time>2026-04-26T19:33:51Z</time></trkpt><trkpt lat="45.51450605439222" lon="11.491681101230052"><ele>31.0</ele><time>2026-04-26T19:33:52Z</time></trkpt><trkpt lat="45.51465088790864" lon="11.49208524499076"><ele>33.0</ele><time>2026-04-26T19:33:53Z</time></trkpt><trkpt lat="45.5147955590162" lon="11.49249049121362"><ele>35.0</ele><time>2026-04-26T19:33:54Z</time></trkpt><trkpt lat="45.514941139909666" lon="11.492896700401776"><ele>33.0</ele><time>2026-04-26T19:33:55Z</time></trkpt><trkpt lat="45.515086687059366" lon="11.493303080253941"><ele>31.0</ele><time>2026-04-26T19:33:56Z</time></trkpt><trkpt lat="45.515230528092886" lon="11.493709872003095"><ele>31.5</ele><time>2026-04-26T19:33:57Z</time></trkpt><trkpt lat="45.51537404925448" lon="11.494116550089869"><ele>32.0</ele><time>2026-04-26T19:33:58Z</time></trkpt><trkpt lat="45.515513342906345" lon="11.494523930877884"><ele>32.5</ele><time>2026-04-26T19:33:59Z</time></trkpt><trkpt lat="45.51565135165018" lon="11.494932001409214"><ele>33.0</ele><time>2026-04-26T19:34:00Z</time></trkpt><trkpt lat="45.51578783369258" lon="11.49534051815955"><ele>32.5</ele><time>2026-04-26T19:34:01Z</time></trkpt><trkpt lat="45.51592552636895" lon="11.4957494571414"><ele>32.0</ele><time>2026-04-26T19:34:02Z</time></trkpt><trkpt lat="45.51606416245161" lon="11.496157723779964"><ele>31.0</ele><time>2026-04-26T19:34:03Z</time></trkpt><trkpt lat="45.51620473630325" lon="11.496567500379209"><ele>30.0</ele><time>2026-04-26T19:34:04Z</time></trkpt><trkpt lat="45.51634703482865" lon="11.496975796805597"><ele>31.5</ele><time>2026-04-26T19:34:05Z</time></trkpt><trkpt lat="45.51649487296117" lon="11.4973773928686"><ele>33.0</ele><time>2026-04-26T19:34:06Z</time></trkpt><trkpt lat="45.51664350159518" lon="11.4977800716853"><ele>32.0</ele><time>2026-04-26T19:34:07Z</time></trkpt><trkpt lat="45.51679120318322" lon="11.498185467669927"><ele>31.0</ele><time>2026-04-26T19:34:08Z</time></trkpt><trkpt lat="45.51693084703902" lon="11.498593204662777"><ele>31.0</ele><time>2026-04-26T19:34:09Z</time></trkpt><trkpt lat="45.51706661200784" lon="11.4989997835504"><ele>31.0</ele><time>2026-04-26T19:34:10Z</time></trkpt><trkpt lat="45.517196984400556" lon="11.499409677281418"><ele>31.5</ele><time>2026-04-26T19:34:11Z</time></trkpt><trkpt lat="45.517314551068814" lon="11.49982356597778"><ele>32.0</ele><time>2026-04-26T19:34:12Z</time></trkpt><trkpt lat="45.51742008107693" lon="11.50024003565735"><ele>31.5</ele><time>2026-04-26T19:34:13Z</time></trkpt><trkpt lat="45.517508120847616" lon="11.50066323704588"><ele>31.0</ele><time>2026-04-26T19:34:14Z</time></trkpt><trkpt lat="45.517588479637304" lon="11.501099385821414"><ele>31.0</ele><time>2026-04-26T19:34:15Z</time></trkpt><trkpt lat="45.51765990458291" lon="11.501541533487979"><ele>31.0</ele><time>2026-04-26T19:34:16Z</time></trkpt><trkpt lat="45.517720115284675" lon="11.501987108362611"><ele>32.0</ele><time>2026-04-26T19:34:17Z</time></trkpt><trkpt lat="45.517770254277266" lon="11.502429322566192"><ele>33.0</ele><time>2026-04-26T19:34:18Z</time></trkpt><trkpt lat="45.51780836383183" lon="11.502854919956658"><ele>31.5</ele><time>2026-04-26T19:34:19Z</time></trkpt><trkpt lat="45.517837193505436" lon="11.503300026951774"><ele>30.0</ele><time>2026-04-26T19:34:20Z</time></trkpt><trkpt lat="45.51785331246056" lon="11.503749175004844"><ele>30.0</ele><time>2026-04-26T19:34:21Z</time></trkpt><trkpt lat="45.51786302569966" lon="11.504200375335492"><ele>30.0</ele><time>2026-04-26T19:34:22Z</time></trkpt><trkpt lat="45.517868886821006" lon="11.504648772601238"><ele>28.5</ele><time>2026-04-26T19:34:23Z</time></trkpt><trkpt lat="45.517875771429594" lon="11.505097966186694"><ele>27.0</ele><time>2026-04-26T19:34:24Z</time></trkpt><trkpt lat="45.51788436209334" lon="11.505545166021852"><ele>27.0</ele><time>2026-04-26T19:34:25Z</time></trkpt><trkpt lat="45.51789384748022" lon="11.505993239394275"><ele>27.0</ele><time>2026-04-26T19:34:26Z</time></trkpt><trkpt lat="45.517904400289694" lon="11.506441434178512"><ele>28.0</ele><time>2026-04-26T19:34:27Z</time></trkpt><trkpt lat="45.51791745234918" lon="11.506891129886661"><ele>29.0</ele><time>2026-04-26T19:34:28Z</time></trkpt><trkpt lat="45.51793086988306" lon="11.507343064790753"><ele>30.5</ele><time>2026-04-26T19:34:29Z</time></trkpt><trkpt lat="45.51794127097887" lon="11.507791895544397"><ele>32.0</ele><time>2026-04-26T19:34:30Z</time></trkpt><trkpt lat="45.51795131142379" lon="11.508241740868755"><ele>32.0</ele><time>2026-04-26T19:34:31Z</time></trkpt><trkpt lat="45.51796118367369" lon="11.50869052437372"><ele>32.0</ele><time>2026-04-26T19:34:32Z</time></trkpt><trkpt lat="45.51796997779862" lon="11.50913763315617"><ele>31.5</ele><time>2026-04-26T19:34:33Z</time></trkpt><trkpt lat="45.51797440627263" lon="11.509582876986725"><ele>31.0</ele><time>2026-04-26T19:34:34Z</time></trkpt><trkpt lat="45.51797627111532" lon="11.510027462132419"><ele>30.0</ele><time>2026-04-26T19:34:35Z</time></trkpt><trkpt lat="45.517979161294555" lon="11.5104719932948"><ele>29.0</ele><time>2026-04-26T19:34:36Z</time></trkpt><trkpt lat="45.517977597996165" lon="11.510913676594223"><ele>30.0</ele><time>2026-04-26T19:34:37Z</time></trkpt><trkpt lat="45.51797569904743" lon="11.511355826717537"><ele>31.0</ele><time>2026-04-26T19:34:38Z</time></trkpt><trkpt lat="45.51797597027451" lon="11.51179844661626"><ele>31.5</ele><time>2026-04-26T19:34:39Z</time></trkpt><trkpt lat="45.51797833406211" lon="11.512242423359874"><ele>32.0</ele><time>2026-04-26T19:34:40Z</time></trkpt><trkpt lat="45.51798185858123" lon="11.512688180811642"><ele>33.0</ele><time>2026-04-26T19:34:41Z</time></trkpt><trkpt lat="45.51798683345483" lon="11.513134987560674"><ele>34.0</ele><time>2026-04-26T19:34:42Z</time></trkpt><trkpt lat="45.51799134454228" lon="11.513583869567967"><ele>33.0</ele><time>2026-04-26T19:34:43Z</time></trkpt><trkpt lat="45.51799606338495" lon="11.51403342880046"><ele>32.0</ele><time>2026-04-26T19:34:44Z</time></trkpt><trkpt lat="45.51799973160416" lon="11.514479581708107"><ele>30.5</ele><time>2026-04-26T19:34:45Z</time></trkpt><trkpt lat="45.518003572308984" lon="11.514937650645228"><ele>29.0</ele><time>2026-04-26T19:34:46Z</time></trkpt><trkpt lat="45.518006831129874" lon="11.515394693914526"><ele>29.0</ele><time>2026-04-26T19:34:47Z</time></trkpt><trkpt lat="45.51801122449607" lon="11.515852070659076"><ele>29.0</ele><time>2026-04-26T19:34:48Z</time></trkpt><trkpt lat="45.51801407930639" lon="11.516309884067212"><ele>28.5</ele><time>2026-04-26T19:34:49Z</time></trkpt><trkpt lat="45.51801726433592" lon="11.516769798490557"><ele>28.0</ele><time>2026-04-26T19:34:50Z</time></trkpt><trkpt lat="45.51801785328362" lon="11.517226283653025"><ele>28.0</ele><time>2026-04-26T19:34:51Z</time></trkpt><trkpt lat="45.51801977929648" lon="11.517681063439419"><ele>28.0</ele><time>2026-04-26T19:34:52Z</time></trkpt><trkpt lat="45.51802251939181" lon="11.518134723707186"><ele>28.0</ele><time>2026-04-26T19:34:53Z</time></trkpt><trkpt lat="45.518025635436565" lon="11.518587969970635"><ele>28.0</ele><time>2026-04-26T19:34:54Z</time></trkpt><trkpt lat="45.51802942920095" lon="11.519041953909927"><ele>28.0</ele><time>2026-04-26T19:34:55Z</time></trkpt><trkpt lat="45.51802984978629" lon="11.519496392954657"><ele>28.0</ele><time>2026-04-26T19:34:56Z</time></trkpt><trkpt lat="45.518026116708974" lon="11.519950047130434"><ele>30.0</ele><time>2026-04-26T19:34:57Z</time></trkpt><trkpt lat="45.518014057482915" lon="11.520404646700138"><ele>32.0</ele><time>2026-04-26T19:34:58Z</time></trkpt><trkpt lat="45.51800405516751" lon="11.52086075655389"><ele>31.5</ele><time>2026-04-26T19:34:59Z</time></trkpt><trkpt lat="45.51800014203463" lon="11.521317206817798"><ele>31.0</ele><time>2026-04-26T19:35:00Z</time></trkpt><trkpt lat="45.51800493742027" lon="11.521774145348926"><ele>30.5</ele><time>2026-04-26T19:35:01Z</time></trkpt><trkpt lat="45.518009736897994" lon="11.522232200550905"><ele>30.0</ele><time>2026-04-26T19:35:02Z</time></trkpt><trkpt lat="45.51801092803052" lon="11.522690253835057"><ele>29.5</ele><time>2026-04-26T19:35:03Z</time></trkpt><trkpt lat="45.51800639990914" lon="11.52314683672646"><ele>29.0</ele><time>2026-04-26T19:35:04Z</time></trkpt><trkpt lat="45.51799322861877" lon="11.523600395395842"><ele>29.0</ele><time>2026-04-26T19:35:05Z</time></trkpt><trkpt lat="45.5179749685988" lon="11.524055239577129"><ele>29.0</ele><time>2026-04-26T19:35:06Z</time></trkpt><trkpt lat="45.51794943589966" lon="11.524512157638354"><ele>29.0</ele><time>2026-04-26T19:35:07Z</time></trkpt><trkpt lat="45.51791932360889" lon="11.524967948744873"><ele>29.0</ele><time>2026-04-26T19:35:08Z</time></trkpt><trkpt lat="45.5178843444929" lon="11.525418996084445"><ele>29.0</ele><time>2026-04-26T19:35:09Z</time></trkpt><trkpt lat="45.51785026111474" lon="11.525866931359042"><ele>29.0</ele><time>2026-04-26T19:35:10Z</time></trkpt><trkpt lat="45.51781090185126" lon="11.526310475670655"><ele>29.0</ele><time>2026-04-26T19:35:11Z</time></trkpt><trkpt lat="45.517762633677556" lon="11.526749164131562"><ele>29.0</ele><time>2026-04-26T19:35:12Z</time></trkpt><trkpt lat="45.5177047254316" lon="11.527183492104037"><ele>29.0</ele><time>2026-04-26T19:35:13Z</time></trkpt><trkpt lat="45.51763902752751" lon="11.527613345878976"><ele>29.0</ele><time>2026-04-26T19:35:14Z</time></trkpt><trkpt lat="45.51757087988343" lon="11.528040652401627"><ele>30.0</ele><time>2026-04-26T19:35:15Z</time></trkpt><trkpt lat="45.51749767694828" lon="11.528465519275361"><ele>31.0</ele><time>2026-04-26T19:35:16Z</time></trkpt><trkpt lat="45.517422330587735" lon="11.528891068585176"><ele>30.5</ele><time>2026-04-26T19:35:17Z</time></trkpt><trkpt lat="45.517347575520276" lon="11.529318659655432"><ele>30.0</ele><time>2026-04-26T19:35:18Z</time></trkpt><trkpt lat="45.51727493534871" lon="11.529749196667696"><ele>30.0</ele><time>2026-04-26T19:35:19Z</time></trkpt><trkpt lat="45.517205785357326" lon="11.530183160379638"><ele>30.0</ele><time>2026-04-26T19:35:20Z</time></trkpt><trkpt lat="45.51714516223434" lon="11.530617535170718"><ele>29.0</ele><time>2026-04-26T19:35:21Z</time></trkpt><trkpt lat="45.51709118521193" lon="11.531057388876496"><ele>28.0</ele><time>2026-04-26T19:35:22Z</time></trkpt><trkpt lat="45.51704209180266" lon="11.531500141745347"><ele>30.0</ele><time>2026-04-26T19:35:23Z</time></trkpt><trkpt lat="45.51699783045244" lon="11.531939049814918"><ele>32.0</ele><time>2026-04-26T19:35:24Z</time></trkpt><trkpt lat="45.51696220898296" lon="11.532376437282512"><ele>33.5</ele><time>2026-04-26T19:35:25Z</time></trkpt><trkpt lat="45.5169240987323" lon="11.532833266878244"><ele>35.0</ele><time>2026-04-26T19:35:26Z</time></trkpt><trkpt lat="45.516889864752166" lon="11.533282954544093"><ele>53.5</ele><time>2026-04-26T19:35:27Z</time></trkpt><trkpt lat="45.51686155317809" lon="11.533739758755335"><ele>72.0</ele><time>2026-04-26T19:35:28Z</time></trkpt><trkpt lat="45.51682831190881" lon="11.534196882043668"><ele>76.5</ele><time>2026-04-26T19:35:29Z</time></trkpt><trkpt lat="45.51679558887045" lon="11.534656546007593"><ele>81.0</ele><time>2026-04-26T19:35:30Z</time></trkpt><trkpt lat="45.516763273719135" lon="11.535119790008135"><ele>78.5</ele><time>2026-04-26T19:35:31Z</time></trkpt><trkpt lat="45.51673216830793" lon="11.535585023875983"><ele>76.0</ele><time>2026-04-26T19:35:32Z</time></trkpt><trkpt lat="45.516701962660306" lon="11.536053033601233"><ele>67.0</ele><time>2026-04-26T19:35:33Z</time></trkpt><trkpt lat="45.51667052170792" lon="11.536522228172796"><ele>58.0</ele><time>2026-04-26T19:35:34Z</time></trkpt><trkpt lat="45.51663758915205" lon="11.536987216322194"><ele>48.0</ele><time>2026-04-26T19:35:35Z</time></trkpt><trkpt lat="45.51660560484089" lon="11.537442262672755"><ele>38.0</ele><time>2026-04-26T19:35:36Z</time></trkpt><trkpt lat="45.516568047647375" lon="11.53788476121784"><ele>38.0</ele><time>2026-04-26T19:35:37Z</time></trkpt><trkpt lat="45.51653089502515" lon="11.538329422527006"><ele>38.0</ele><time>2026-04-26T19:35:38Z</time></trkpt><trkpt lat="45.51649089260126" lon="11.538767930679136"><ele>39.0</ele><time>2026-04-26T19:35:39Z</time></trkpt><trkpt lat="45.51645009750421" lon="11.539206743441188"><ele>40.0</ele><time>2026-04-26T19:35:40Z</time></trkpt><trkpt lat="45.516411251604715" lon="11.539647335865116"><ele>40.0</ele><time>2026-04-26T19:35:41Z</time></trkpt><trkpt lat="45.516372809996525" lon="11.540083478324323"><ele>40.0</ele><time>2026-04-26T19:35:42Z</time></trkpt><trkpt lat="45.51634022584185" lon="11.540522661051897"><ele>42.5</ele><time>2026-04-26T19:35:43Z</time></trkpt><trkpt lat="45.51630732920536" lon="11.540964428767975"><ele>45.0</ele><time>2026-04-26T19:35:44Z</time></trkpt><trkpt lat="45.51627634543088" lon="11.54140912240905"><ele>52.5</ele><time>2026-04-26T19:35:45Z</time></trkpt><trkpt lat="45.51624209809447" lon="11.541858018995972"><ele>60.0</ele><time>2026-04-26T19:35:46Z</time></trkpt><trkpt lat="45.51620553212529" lon="11.542311822356917"><ele>71.5</ele><time>2026-04-26T19:35:47Z</time></trkpt><trkpt lat="45.51616776714617" lon="11.542767662104032"><ele>83.0</ele><time>2026-04-26T19:35:48Z</time></trkpt><trkpt lat="45.51613183661182" lon="11.543222981529887"><ele>93.0</ele><time>2026-04-26T19:35:49Z</time></trkpt><trkpt lat="45.51610084859527" lon="11.543678006961645"><ele>103.0</ele><time>2026-04-26T19:35:50Z</time></trkpt><trkpt lat="45.51607519983583" lon="11.544135290541853"><ele>123.0</ele><time>2026-04-26T19:35:51Z</time></trkpt><trkpt lat="45.516049382464146" lon="11.544596221230613"><ele>143.0</ele><time>2026-04-26T19:35:52Z</time></trkpt><trkpt lat="45.51602185832016" lon="11.545058269597632"><ele>140.5</ele><time>2026-04-26T19:35:53Z</time></trkpt><trkpt lat="45.51599233416599" lon="11.545520551883437"><ele>138.0</ele><time>2026-04-26T19:35:54Z</time></trkpt><trkpt lat="45.5159602113971" lon="11.545983403748316"><ele>127.5</ele><time>2026-04-26T19:35:55Z</time></trkpt><trkpt lat="45.51590998964375" lon="11.546447211993144"><ele>117.0</ele><time>2026-04-26T19:35:56Z</time></trkpt><trkpt lat="45.5158670707682" lon="11.546901539019656"><ele>104.0</ele><time>2026-04-26T19:35:57Z</time></trkpt><trkpt lat="45.51582963044463" lon="11.547357107632372"><ele>91.0</ele><time>2026-04-26T19:35:58Z</time></trkpt><trkpt lat="45.51580783770594" lon="11.547801452396978"><ele>79.5</ele><time>2026-04-26T19:35:59Z</time></trkpt><trkpt lat="45.51578721887288" lon="11.548239494792952"><ele>68.0</ele><time>2026-04-26T19:36:00Z</time></trkpt><trkpt lat="45.51576286338279" lon="11.548686860499835"><ele>60.0</ele><time>2026-04-26T19:36:01Z</time></trkpt><trkpt lat="45.515735792030455" lon="11.549135915790322"><ele>52.0</ele><time>2026-04-26T19:36:02Z</time></trkpt><trkpt lat="45.51570890589193" lon="11.549584099094837"><ele>49.0</ele><time>2026-04-26T19:36:03Z</time></trkpt><trkpt lat="45.51557308005789" lon="11.550014677956764"><ele>46.0</ele><time>2026-04-26T19:36:04Z</time></trkpt><trkpt lat="45.51565808499536" lon="11.55048268358243"><ele>43.5</ele><time>2026-04-26T19:36:05Z</time></trkpt><trkpt lat="45.51562097856845" lon="11.550905230107404"><ele>41.0</ele><time>2026-04-26T19:36:06Z</time></trkpt><trkpt lat="45.5156231203664" lon="11.551332844899518"><ele>39.5</ele><time>2026-04-26T19:36:07Z</time></trkpt><trkpt lat="45.51561920204879" lon="11.551760696627213"><ele>38.0</ele><time>2026-04-26T19:36:08Z</time></trkpt><trkpt lat="45.515623806809344" lon="11.552193370793345"><ele>37.5</ele><time>2026-04-26T19:36:09Z</time></trkpt><trkpt lat="45.515636234095105" lon="11.552626951748172"><ele>37.0</ele><time>2026-04-26T19:36:10Z</time></trkpt><trkpt lat="45.51565857081842" lon="11.553065456484898"><ele>36.5</ele><time>2026-04-26T19:36:11Z</time></trkpt><trkpt lat="45.515686097820534" lon="11.553506342692677"><ele>36.0</ele><time>2026-04-26T19:36:12Z</time></trkpt><trkpt lat="45.5157123650666" lon="11.553949934306134"><ele>36.0</ele><time>2026-04-26T19:36:13Z</time></trkpt><trkpt lat="45.515735031012454" lon="11.554399415484193"><ele>36.0</ele><time>2026-04-26T19:36:14Z</time></trkpt><trkpt lat="45.51575354569062" lon="11.55485073396217"><ele>36.5</ele><time>2026-04-26T19:36:15Z</time></trkpt><trkpt lat="45.51576290424201" lon="11.555304666890112"><ele>37.0</ele><time>2026-04-26T19:36:16Z</time></trkpt><trkpt lat="45.515764161296104" lon="11.555760458907395"><ele>37.5</ele><time>2026-04-26T19:36:17Z</time></trkpt><trkpt lat="45.51575647783624" lon="11.556219550239382"><ele>38.0</ele><time>2026-04-26T19:36:18Z</time></trkpt><trkpt lat="45.515741559339595" lon="11.556683337303253"><ele>36.5</ele><time>2026-04-26T19:36:19Z</time></trkpt><trkpt lat="45.51572371849067" lon="11.557149560617658"><ele>35.0</ele><time>2026-04-26T19:36:20Z</time></trkpt><trkpt lat="45.515708885442926" lon="11.5576180766822"><ele>33.5</ele><time>2026-04-26T19:36:21Z</time></trkpt><trkpt lat="45.51569668775812" lon="11.558092327476286"><ele>32.0</ele><time>2026-04-26T19:36:22Z</time></trkpt><trkpt lat="45.51568456331558" lon="11.558566550348905"><ele>31.5</ele><time>2026-04-26T19:36:23Z</time></trkpt><trkpt lat="45.51567382201095" lon="11.559040293552746"><ele>31.0</ele><time>2026-04-26T19:36:24Z</time></trkpt><trkpt lat="45.51566965404967" lon="11.55950889615609"><ele>30.5</ele><time>2026-04-26T19:36:25Z</time></trkpt><trkpt lat="45.51567496265596" lon="11.559977062772948"><ele>30.0</ele><time>2026-04-26T19:36:26Z</time></trkpt><trkpt lat="45.51568624183879" lon="11.56044714733362"><ele>30.5</ele><time>2026-04-26T19:36:27Z</time></trkpt><trkpt lat="45.515701903388695" lon="11.560912906023175"><ele>31.0</ele><time>2026-04-26T19:36:28Z</time></trkpt><trkpt lat="45.515714445366534" lon="11.56137112538437"><ele>31.0</ele><time>2026-04-26T19:36:29Z</time></trkpt><trkpt lat="45.51572620258026" lon="11.561836366228412"><ele>31.0</ele><time>2026-04-26T19:36:30Z</time></trkpt><trkpt lat="45.51573985084542" lon="11.562296493359874"><ele>30.0</ele><time>2026-04-26T19:36:31Z</time></trkpt><trkpt lat="45.515759395717915" lon="11.562753221502648"><ele>29.0</ele><time>2026-04-26T19:36:32Z</time></trkpt><trkpt lat="45.51577915037231" lon="11.56321408417231"><ele>29.0</ele><time>2026-04-26T19:36:33Z</time></trkpt><trkpt lat="45.515801236553955" lon="11.563674236954823"><ele>29.0</ele><time>2026-04-26T19:36:34Z</time></trkpt><trkpt lat="45.515826431008264" lon="11.5641349177803"><ele>29.5</ele><time>2026-04-26T19:36:35Z</time></trkpt><trkpt lat="45.51585335795338" lon="11.564596381625522"><ele>30.0</ele><time>2026-04-26T19:36:36Z</time></trkpt><trkpt lat="45.51588377590744" lon="11.565061142586435"><ele>30.5</ele><time>2026-04-26T19:36:37Z</time></trkpt><trkpt lat="45.51591717110871" lon="11.565525604224273"><ele>31.0</ele><time>2026-04-26T19:36:38Z</time></trkpt><trkpt lat="45.515954482244425" lon="11.56598877615086"><ele>31.0</ele><time>2026-04-26T19:36:39Z</time></trkpt><trkpt lat="45.51599659922241" lon="11.566451307820259"><ele>31.0</ele><time>2026-04-26T19:36:40Z</time></trkpt><trkpt lat="45.5160457193685" lon="11.566912328520552"><ele>30.5</ele><time>2026-04-26T19:36:41Z</time></trkpt><trkpt lat="45.51609526601181" lon="11.567374674470324"><ele>30.0</ele><time>2026-04-26T19:36:42Z</time></trkpt><trkpt lat="45.5161446682892" lon="11.567836128577916"><ele>29.5</ele><time>2026-04-26T19:36:43Z</time></trkpt><trkpt lat="45.516196958335655" lon="11.568297527319261"><ele>29.0</ele><time>2026-04-26T19:36:44Z</time></trkpt><trkpt lat="45.51625250193037" lon="11.568758043245905"><ele>30.0</ele><time>2026-04-26T19:36:45Z</time></trkpt><trkpt lat="45.51630479194285" lon="11.569218266702853"><ele>31.0</ele><time>2026-04-26T19:36:46Z</time></trkpt><trkpt lat="45.516351570879515" lon="11.569679472391243"><ele>31.0</ele><time>2026-04-26T19:36:47Z</time></trkpt><trkpt lat="45.51639140132681" lon="11.570141892244806"><ele>31.0</ele><time>2026-04-26T19:36:48Z</time></trkpt><trkpt lat="45.51642863979328" lon="11.570605505392932"><ele>31.0</ele><time>2026-04-26T19:36:49Z</time></trkpt><trkpt lat="45.516463483552535" lon="11.571068894109938"><ele>31.0</ele><time>2026-04-26T19:36:50Z</time></trkpt><trkpt lat="45.51649388151376" lon="11.571532956676815"><ele>31.0</ele><time>2026-04-26T19:36:51Z</time></trkpt><trkpt lat="45.516526129106836" lon="11.571998333761359"><ele>31.0</ele><time>2026-04-26T19:36:52Z</time></trkpt><trkpt lat="45.516557711499814" lon="11.572457982903082"><ele>30.0</ele><time>2026-04-26T19:36:53Z</time></trkpt><trkpt lat="45.51658695862485" lon="11.57289133263167"><ele>29.0</ele><time>2026-04-26T19:36:54Z</time></trkpt><trkpt lat="45.51661796034108" lon="11.573329345570997"><ele>29.0</ele><time>2026-04-26T19:36:55Z</time></trkpt><trkpt lat="45.516650611311064" lon="11.573779712416092"><ele>29.0</ele><time>2026-04-26T19:36:56Z</time></trkpt><trkpt lat="45.516683182653246" lon="11.574233965007874"><ele>28.0</ele><time>2026-04-26T19:36:57Z</time></trkpt><trkpt lat="45.516715274625014" lon="11.574684079699058"><ele>27.0</ele><time>2026-04-26T19:36:58Z</time></trkpt><trkpt lat="45.516747220125325" lon="11.575133859486694"><ele>26.5</ele><time>2026-04-26T19:36:59Z</time></trkpt><trkpt lat="45.516780618493755" lon="11.575585829888412"><ele>26.0</ele><time>2026-04-26T19:37:00Z</time></trkpt><trkpt lat="45.516812292094684" lon="11.576039030738482"><ele>27.0</ele><time>2026-04-26T19:37:01Z</time></trkpt><trkpt lat="45.5168448277605" lon="11.576496116212432"><ele>28.0</ele><time>2026-04-26T19:37:02Z</time></trkpt><trkpt lat="45.51687855236473" lon="11.576954982194989"><ele>28.0</ele><time>2026-04-26T19:37:03Z</time></trkpt><trkpt lat="45.51691334983717" lon="11.577410888626222"><ele>28.0</ele><time>2026-04-26T19:37:04Z</time></trkpt><trkpt lat="45.51694555175586" lon="11.577864177590222"><ele>27.5</ele><time>2026-04-26T19:37:05Z</time></trkpt><trkpt lat="45.51697681929929" lon="11.578315725079241"><ele>27.0</ele><time>2026-04-26T19:37:06Z</time></trkpt><trkpt lat="45.51700885984003" lon="11.578764658276082"><ele>26.5</ele><time>2026-04-26T19:37:07Z</time></trkpt><trkpt lat="45.517036487646" lon="11.579214159901289"><ele>26.0</ele><time>2026-04-26T19:37:08Z</time></trkpt><trkpt lat="45.51705231796396" lon="11.579664639220846"><ele>27.0</ele><time>2026-04-26T19:37:09Z</time></trkpt><trkpt lat="45.51705697723428" lon="11.580114508140175"><ele>28.0</ele><time>2026-04-26T19:37:10Z</time></trkpt><trkpt lat="45.517050136526684" lon="11.58056362598052"><ele>28.5</ele><time>2026-04-26T19:37:11Z</time></trkpt><trkpt lat="45.51702799633846" lon="11.581010372090484"><ele>29.0</ele><time>2026-04-26T19:37:12Z</time></trkpt><trkpt lat="45.51699444321768" lon="11.581454456572166"><ele>29.0</ele><time>2026-04-26T19:37:13Z</time></trkpt><trkpt lat="45.51695060419195" lon="11.5818967785693"><ele>29.0</ele><time>2026-04-26T19:37:14Z</time></trkpt><trkpt lat="45.516898172773246" lon="11.582337283558125"><ele>29.0</ele><time>2026-04-26T19:37:15Z</time></trkpt><trkpt lat="45.51683366959615" lon="11.582774381468873"><ele>29.0</ele><time>2026-04-26T19:37:16Z</time></trkpt><trkpt lat="45.516756872129115" lon="11.583208281663639"><ele>29.0</ele><time>2026-04-26T19:37:17Z</time></trkpt><trkpt lat="45.51667130567835" lon="11.583640886686373"><ele>29.0</ele><time>2026-04-26T19:37:18Z</time></trkpt><trkpt lat="45.51657484081188" lon="11.584072726248678"><ele>29.5</ele><time>2026-04-26T19:37:19Z</time></trkpt><trkpt lat="45.516468234423" lon="11.584503815807667"><ele>30.0</ele><time>2026-04-26T19:37:20Z</time></trkpt><trkpt lat="45.51635291139881" lon="11.584931863011123"><ele>29.5</ele><time>2026-04-26T19:37:21Z</time></trkpt><trkpt lat="45.516231445056334" lon="11.585358045055203"><ele>29.0</ele><time>2026-04-26T19:37:22Z</time></trkpt><trkpt lat="45.516108432789984" lon="11.585779062571234"><ele>27.5</ele><time>2026-04-26T19:37:23Z</time></trkpt><trkpt lat="45.51598212826179" lon="11.5862001361418"><ele>26.0</ele><time>2026-04-26T19:37:24Z</time></trkpt><trkpt lat="45.515859533171565" lon="11.586618137305088"><ele>26.5</ele><time>2026-04-26T19:37:25Z</time></trkpt><trkpt lat="45.51574151566623" lon="11.587034446779933"><ele>27.0</ele><time>2026-04-26T19:37:26Z</time></trkpt><trkpt lat="45.515623108488114" lon="11.587452157902792"><ele>27.0</ele><time>2026-04-26T19:37:27Z</time></trkpt><trkpt lat="45.5155044882231" lon="11.587867639955533"><ele>27.0</ele><time>2026-04-26T19:37:28Z</time></trkpt><trkpt lat="45.515394748717526" lon="11.588283739624512"><ele>27.0</ele><time>2026-04-26T19:37:29Z</time></trkpt><trkpt lat="45.51529145800399" lon="11.588710006687084"><ele>27.0</ele><time>2026-04-26T19:37:30Z</time></trkpt><trkpt lat="45.515186285554" lon="11.589142744490616"><ele>27.0</ele><time>2026-04-26T19:37:31Z</time></trkpt><trkpt lat="45.515071385505244" lon="11.589576065717214"><ele>27.0</ele><time>2026-04-26T19:37:32Z</time></trkpt><trkpt lat="45.514945471248176" lon="11.590004527799614"><ele>26.5</ele><time>2026-04-26T19:37:33Z</time></trkpt><trkpt lat="45.514817275677956" lon="11.59043501864405"><ele>26.0</ele><time>2026-04-26T19:37:34Z</time></trkpt><trkpt lat="45.514689386705754" lon="11.590867710921607"><ele>25.5</ele><time>2026-04-26T19:37:35Z</time></trkpt><trkpt lat="45.514563841767256" lon="11.591302261583131"><ele>25.0</ele><time>2026-04-26T19:37:36Z</time></trkpt><trkpt lat="45.514437180283586" lon="11.591734945348403"><ele>25.5</ele><time>2026-04-26T19:37:37Z</time></trkpt><trkpt lat="45.51430355235909" lon="11.592161074946292"><ele>26.0</ele><time>2026-04-26T19:37:38Z</time></trkpt><trkpt lat="45.514166265533945" lon="11.59258686961421"><ele>26.5</ele><time>2026-04-26T19:37:39Z</time></trkpt><trkpt lat="45.51403293531815" lon="11.593017405631393"><ele>27.0</ele><time>2026-04-26T19:37:40Z</time></trkpt><trkpt lat="45.51390395138503" lon="11.59344955783041"><ele>27.0</ele><time>2026-04-26T19:37:41Z</time></trkpt><trkpt lat="45.51377716773117" lon="11.59387746643421"><ele>27.0</ele><time>2026-04-26T19:37:42Z</time></trkpt><trkpt lat="45.5136535105388" lon="11.594299375579762"><ele>26.0</ele><time>2026-04-26T19:37:43Z</time></trkpt><trkpt lat="45.51353150452578" lon="11.594720293107208"><ele>25.0</ele><time>2026-04-26T19:37:44Z</time></trkpt><trkpt lat="45.51341044726926" lon="11.59513859720006"><ele>25.5</ele><time>2026-04-26T19:37:45Z</time></trkpt><trkpt lat="45.51328974340147" lon="11.59555463076059"><ele>26.0</ele><time>2026-04-26T19:37:46Z</time></trkpt><trkpt lat="45.51316994244545" lon="11.595970059647291"><ele>26.0</ele><time>2026-04-26T19:37:47Z</time></trkpt><trkpt lat="45.51305054432001" lon="11.596383627741803"><ele>26.0</ele><time>2026-04-26T19:37:48Z</time></trkpt><trkpt lat="45.51293184731646" lon="11.59679624970472"><ele>27.5</ele><time>2026-04-26T19:37:49Z</time></trkpt><trkpt lat="45.512812840513014" lon="11.597209024778754"><ele>29.0</ele><time>2026-04-26T19:37:50Z</time></trkpt><trkpt lat="45.51269340967784" lon="11.597622322161408"><ele>29.5</ele><time>2026-04-26T19:37:51Z</time></trkpt><trkpt lat="45.51257077916987" lon="11.598032832274587"><ele>30.0</ele><time>2026-04-26T19:37:52Z</time></trkpt><trkpt lat="45.512441455604055" lon="11.598441870625093"><ele>29.5</ele><time>2026-04-26T19:37:53Z</time></trkpt><trkpt lat="45.51231043568908" lon="11.598850918117062"><ele>29.0</ele><time>2026-04-26T19:37:54Z</time></trkpt><trkpt lat="45.512182581927625" lon="11.599262376424964"><ele>27.5</ele><time>2026-04-26T19:37:55Z</time></trkpt><trkpt lat="45.5120590469877" lon="11.599672212291859"><ele>26.0</ele><time>2026-04-26T19:37:56Z</time></trkpt><trkpt lat="45.511938253343246" lon="11.600082076338238"><ele>27.5</ele><time>2026-04-26T19:37:57Z</time></trkpt><trkpt lat="45.51182141729695" lon="11.600492614744093"><ele>29.0</ele><time>2026-04-26T19:37:58Z</time></trkpt><trkpt lat="45.51170385454274" lon="11.600904019292134"><ele>29.5</ele><time>2026-04-26T19:37:59Z</time></trkpt><trkpt lat="45.511584223804135" lon="11.601314169852989"><ele>30.0</ele><time>2026-04-26T19:38:00Z</time></trkpt><trkpt lat="45.51146526971774" lon="11.601722952414775"><ele>29.0</ele><time>2026-04-26T19:38:01Z</time></trkpt><trkpt lat="45.51134799403013" lon="11.60213228337999"><ele>28.0</ele><time>2026-04-26T19:38:02Z</time></trkpt><trkpt lat="45.51122893317398" lon="11.602540007688077"><ele>28.5</ele><time>2026-04-26T19:38:03Z</time></trkpt><trkpt lat="45.51110872138549" lon="11.602949171244749"><ele>29.0</ele><time>2026-04-26T19:38:04Z</time></trkpt><trkpt lat="45.51098889966989" lon="11.60335935645626"><ele>28.5</ele><time>2026-04-26T19:38:05Z</time></trkpt><trkpt lat="45.510866822182635" lon="11.60376860359169"><ele>28.0</ele><time>2026-04-26T19:38:06Z</time></trkpt><trkpt lat="45.51074622202095" lon="11.604178055578249"><ele>27.5</ele><time>2026-04-26T19:38:07Z</time></trkpt><trkpt lat="45.510627572850545" lon="11.604586915276077"><ele>27.0</ele><time>2026-04-26T19:38:08Z</time></trkpt><trkpt lat="45.51050908141405" lon="11.604998751014438"><ele>28.0</ele><time>2026-04-26T19:38:09Z</time></trkpt><trkpt lat="45.51039065730459" lon="11.605415042598036"><ele>29.0</ele><time>2026-04-26T19:38:10Z</time></trkpt><trkpt lat="45.51027077040195" lon="11.605838427513309"><ele>28.0</ele><time>2026-04-26T19:38:11Z</time></trkpt><trkpt lat="45.51014997979937" lon="11.606256087020352"><ele>27.0</ele><time>2026-04-26T19:38:12Z</time></trkpt><trkpt lat="45.51002868165911" lon="11.606675238652832"><ele>27.0</ele><time>2026-04-26T19:38:13Z</time></trkpt><trkpt lat="45.50990705410227" lon="11.607090831234853"><ele>27.0</ele><time>2026-04-26T19:38:14Z</time></trkpt><trkpt lat="45.50978633088721" lon="11.607504366371202"><ele>27.0</ele><time>2026-04-26T19:38:15Z</time></trkpt><trkpt lat="45.50966576736959" lon="11.607917212158055"><ele>27.0</ele><time>2026-04-26T19:38:16Z</time></trkpt><trkpt lat="45.50954401212966" lon="11.608328515385493"><ele>27.5</ele><time>2026-04-26T19:38:17Z</time></trkpt><trkpt lat="45.509421667576625" lon="11.608737804670808"><ele>28.0</ele><time>2026-04-26T19:38:18Z</time></trkpt><trkpt lat="45.50929568562423" lon="11.609144005166474"><ele>27.5</ele><time>2026-04-26T19:38:19Z</time></trkpt><trkpt lat="45.50917045223021" lon="11.609547910010932"><ele>27.0</ele><time>2026-04-26T19:38:20Z</time></trkpt><trkpt lat="45.50904841944468" lon="11.60995058000295"><ele>27.0</ele><time>2026-04-26T19:38:21Z</time></trkpt><trkpt lat="45.50892712170979" lon="11.61035633621791"><ele>27.0</ele><time>2026-04-26T19:38:22Z</time></trkpt><trkpt lat="45.50880537909065" lon="11.6107611925307"><ele>29.0</ele><time>2026-04-26T19:38:23Z</time></trkpt><trkpt lat="45.508682143913155" lon="11.61116646989606"><ele>31.0</ele><time>2026-04-26T19:38:24Z</time></trkpt><trkpt lat="45.508560372964126" lon="11.611572933019216"><ele>31.0</ele><time>2026-04-26T19:38:25Z</time></trkpt><trkpt lat="45.50843803876413" lon="11.611982087157202"><ele>31.0</ele><time>2026-04-26T19:38:26Z</time></trkpt><trkpt lat="45.50831784904266" lon="11.61239288933902"><ele>29.5</ele><time>2026-04-26T19:38:27Z</time></trkpt><trkpt lat="45.508197934618956" lon="11.612807017929523"><ele>28.0</ele><time>2026-04-26T19:38:28Z</time></trkpt><trkpt lat="45.50807767576324" lon="11.613223956645077"><ele>27.5</ele><time>2026-04-26T19:38:29Z</time></trkpt><trkpt lat="45.507959536071766" lon="11.613643918316285"><ele>27.0</ele><time>2026-04-26T19:38:30Z</time></trkpt><trkpt lat="45.50784004251275" lon="11.614064537766371"><ele>27.0</ele><time>2026-04-26T19:38:31Z</time></trkpt><trkpt lat="45.50771914268717" lon="11.614486170453993"><ele>27.0</ele><time>2026-04-26T19:38:32Z</time></trkpt><trkpt lat="45.50759581845819" lon="11.61490601284475"><ele>27.5</ele><time>2026-04-26T19:38:33Z</time></trkpt><trkpt lat="45.507471929480666" lon="11.615325634307098"><ele>28.0</ele><time>2026-04-26T19:38:34Z</time></trkpt><trkpt lat="45.50735135607676" lon="11.61574712598405"><ele>28.0</ele><time>2026-04-26T19:38:35Z</time></trkpt><trkpt lat="45.50722991425726" lon="11.61616576049579"><ele>28.0</ele><time>2026-04-26T19:38:36Z</time></trkpt><trkpt lat="45.507108131894945" lon="11.616583857125429"><ele>25.5</ele><time>2026-04-26T19:38:37Z</time></trkpt><trkpt lat="45.506987235360945" lon="11.617000605511949"><ele>23.0</ele><time>2026-04-26T19:38:38Z</time></trkpt><trkpt lat="45.50686667227517" lon="11.61742224184689"><ele>24.0</ele><time>2026-04-26T19:38:39Z</time></trkpt><trkpt lat="45.506742134030084" lon="11.617832514120646"><ele>25.0</ele><time>2026-04-26T19:38:40Z</time></trkpt><trkpt lat="45.506621466756705" lon="11.618246056720094"><ele>26.0</ele><time>2026-04-26T19:38:41Z</time></trkpt><trkpt lat="45.506500963940205" lon="11.618659891733591"><ele>27.0</ele><time>2026-04-26T19:38:42Z</time></trkpt><trkpt lat="45.50637600247056" lon="11.619076820724864"><ele>27.0</ele><time>2026-04-26T19:38:43Z</time></trkpt><trkpt lat="45.50625933886249" lon="11.619492657086276"><ele>27.0</ele><time>2026-04-26T19:38:44Z</time></trkpt><trkpt lat="45.50613863377355" lon="11.619908091468108"><ele>26.5</ele><time>2026-04-26T19:38:45Z</time></trkpt><trkpt lat="45.50601541074672" lon="11.620323339841171"><ele>26.0</ele><time>2026-04-26T19:38:46Z</time></trkpt><trkpt lat="45.505894324623924" lon="11.620738323648514"><ele>25.5</ele><time>2026-04-26T19:38:47Z</time></trkpt><trkpt lat="45.50577488893385" lon="11.621157702437536"><ele>25.0</ele><time>2026-04-26T19:38:48Z</time></trkpt><trkpt lat="45.50565424006496" lon="11.621577281931364"><ele>24.5</ele><time>2026-04-26T19:38:49Z</time></trkpt><trkpt lat="45.50553285341166" lon="11.621995993536096"><ele>24.0</ele><time>2026-04-26T19:38:50Z</time></trkpt><trkpt lat="45.505409324717334" lon="11.622416464707973"><ele>25.0</ele><time>2026-04-26T19:38:51Z</time></trkpt><trkpt lat="45.50528828673337" lon="11.622837806232408"><ele>26.0</ele><time>2026-04-26T19:38:52Z</time></trkpt><trkpt lat="45.505166878444946" lon="11.623259790449755"><ele>27.0</ele><time>2026-04-26T19:38:53Z</time></trkpt><trkpt lat="45.50504441886468" lon="11.623681575923834"><ele>28.0</ele><time>2026-04-26T19:38:54Z</time></trkpt><trkpt lat="45.50491982682147" lon="11.624103100641497"><ele>27.5</ele><time>2026-04-26T19:38:55Z</time></trkpt><trkpt lat="45.50479425864731" lon="11.624524758895737"><ele>27.0</ele><time>2026-04-26T19:38:56Z</time></trkpt><trkpt lat="45.504668745058154" lon="11.62494691743371"><ele>27.5</ele><time>2026-04-26T19:38:57Z</time></trkpt><trkpt lat="45.504544158749624" lon="11.625367026240381"><ele>28.0</ele><time>2026-04-26T19:38:58Z</time></trkpt><trkpt lat="45.50442232521541" lon="11.625783953992412"><ele>27.5</ele><time>2026-04-26T19:38:59Z</time></trkpt><trkpt lat="45.50430100637211" lon="11.626199126738971"><ele>27.0</ele><time>2026-04-26T19:39:00Z</time></trkpt><trkpt lat="45.504183225449964" lon="11.626614006489339"><ele>27.0</ele><time>2026-04-26T19:39:01Z</time></trkpt><trkpt lat="45.504067127112364" lon="11.627033107240843"><ele>27.0</ele><time>2026-04-26T19:39:02Z</time></trkpt><trkpt lat="45.5039540095" lon="11.627455973742556"><ele>26.5</ele><time>2026-04-26T19:39:03Z</time></trkpt><trkpt lat="45.50384075720157" lon="11.627880917848"><ele>26.0</ele><time>2026-04-26T19:39:04Z</time></trkpt><trkpt lat="45.50372435627955" lon="11.62830494509481"><ele>27.0</ele><time>2026-04-26T19:39:05Z</time></trkpt><trkpt lat="45.5036041990756" lon="11.62872580623962"><ele>28.0</ele><time>2026-04-26T19:39:06Z</time></trkpt><trkpt lat="45.50348185673058" lon="11.629146494543022"><ele>29.0</ele><time>2026-04-26T19:39:07Z</time></trkpt><trkpt lat="45.50336089399158" lon="11.629568499655115"><ele>30.0</ele><time>2026-04-26T19:39:08Z</time></trkpt><trkpt lat="45.50323727960031" lon="11.629989339213033"><ele>29.0</ele><time>2026-04-26T19:39:09Z</time></trkpt><trkpt lat="45.503112136197586" lon="11.630410440450913"><ele>28.0</ele><time>2026-04-26T19:39:10Z</time></trkpt><trkpt lat="45.50298853505478" lon="11.630830948445663"><ele>27.0</ele><time>2026-04-26T19:39:11Z</time></trkpt><trkpt lat="45.50286751678896" lon="11.631251153491736"><ele>26.0</ele><time>2026-04-26T19:39:12Z</time></trkpt><trkpt lat="45.50274651213316" lon="11.63167005055483"><ele>26.0</ele><time>2026-04-26T19:39:13Z</time></trkpt><trkpt lat="45.502625257965484" lon="11.63209073798149"><ele>26.0</ele><time>2026-04-26T19:39:14Z</time></trkpt><trkpt lat="45.50250240570863" lon="11.632509938762238"><ele>26.5</ele><time>2026-04-26T19:39:15Z</time></trkpt><trkpt lat="45.502379025277065" lon="11.632928652205033"><ele>27.0</ele><time>2026-04-26T19:39:16Z</time></trkpt><trkpt lat="45.502256008001915" lon="11.633347275455382"><ele>26.5</ele><time>2026-04-26T19:39:17Z</time></trkpt><trkpt lat="45.50213486111232" lon="11.63376483883821"><ele>26.0</ele><time>2026-04-26T19:39:18Z</time></trkpt><trkpt lat="45.5020144208257" lon="11.634181822807061"><ele>27.0</ele><time>2026-04-26T19:39:19Z</time></trkpt><trkpt lat="45.501893151936486" lon="11.634600074710288"><ele>28.0</ele><time>2026-04-26T19:39:20Z</time></trkpt><trkpt lat="45.50176919480283" lon="11.63501704089542"><ele>27.5</ele><time>2026-04-26T19:39:21Z</time></trkpt><trkpt lat="45.501643100677185" lon="11.635433312914747"><ele>27.0</ele><time>2026-04-26T19:39:22Z</time></trkpt><trkpt lat="45.501515211981854" lon="11.635849894858456"><ele>27.0</ele><time>2026-04-26T19:39:23Z</time></trkpt><trkpt lat="45.50138486195904" lon="11.636265350286363"><ele>27.0</ele><time>2026-04-26T19:39:24Z</time></trkpt><trkpt lat="45.501250374457264" lon="11.636678654490403"><ele>26.0</ele><time>2026-04-26T19:39:25Z</time></trkpt><trkpt lat="45.50111217315383" lon="11.637090666486632"><ele>25.0</ele><time>2026-04-26T19:39:26Z</time></trkpt><trkpt lat="45.50096960530498" lon="11.63749987696782"><ele>25.0</ele><time>2026-04-26T19:39:27Z</time></trkpt><trkpt lat="45.50082589414318" lon="11.637908474059344"><ele>25.0</ele><time>2026-04-26T19:39:28Z</time></trkpt><trkpt lat="45.50068219308221" lon="11.638319324747183"><ele>25.0</ele><time>2026-04-26T19:39:29Z</time></trkpt><trkpt lat="45.500543932183284" lon="11.638730378619478"><ele>25.0</ele><time>2026-04-26T19:39:30Z</time></trkpt><trkpt lat="45.500409629130466" lon="11.639144532321062"><ele>24.5</ele><time>2026-04-26T19:39:31Z</time></trkpt><trkpt lat="45.50027577403867" lon="11.63956404279732"><ele>24.0</ele><time>2026-04-26T19:39:32Z</time></trkpt><trkpt lat="45.500138333803875" lon="11.63998372032303"><ele>24.5</ele><time>2026-04-26T19:39:33Z</time></trkpt><trkpt lat="45.49999668353807" lon="11.640400249007735"><ele>25.0</ele><time>2026-04-26T19:39:34Z</time></trkpt><trkpt lat="45.499848942574374" lon="11.64081124672284"><ele>25.5</ele><time>2026-04-26T19:39:35Z</time></trkpt><trkpt lat="45.49969729417381" lon="11.641216006660887"><ele>26.0</ele><time>2026-04-26T19:39:36Z</time></trkpt><trkpt lat="45.4995433760522" lon="11.64161632219134"><ele>25.5</ele><time>2026-04-26T19:39:37Z</time></trkpt><trkpt lat="45.49939108967818" lon="11.642017054014671"><ele>25.0</ele><time>2026-04-26T19:39:38Z</time></trkpt><trkpt lat="45.499242861248604" lon="11.642420154691504"><ele>26.0</ele><time>2026-04-26T19:39:39Z</time></trkpt><trkpt lat="45.499100062712195" lon="11.642827408491012"><ele>27.0</ele><time>2026-04-26T19:39:40Z</time></trkpt><trkpt lat="45.49896025062746" lon="11.643239724328238"><ele>26.5</ele><time>2026-04-26T19:39:41Z</time></trkpt><trkpt lat="45.49881787399788" lon="11.643650772353325"><ele>26.0</ele><time>2026-04-26T19:39:42Z</time></trkpt><trkpt lat="45.498675849327" lon="11.644063543402574"><ele>26.0</ele><time>2026-04-26T19:39:43Z</time></trkpt><trkpt lat="45.49853426798385" lon="11.644474909251725"><ele>26.0</ele><time>2026-04-26T19:39:44Z</time></trkpt><trkpt lat="45.49839238621512" lon="11.644887452295851"><ele>26.5</ele><time>2026-04-26T19:39:45Z</time></trkpt><trkpt lat="45.498249981831" lon="11.645298563361363"><ele>27.0</ele><time>2026-04-26T19:39:46Z</time></trkpt><trkpt lat="45.49810734362574" lon="11.645710189932155"><ele>27.0</ele><time>2026-04-26T19:39:47Z</time></trkpt><trkpt lat="45.497964373040055" lon="11.64612196900474"><ele>27.0</ele><time>2026-04-26T19:39:48Z</time></trkpt><trkpt lat="45.4978203322331" lon="11.64653427776911"><ele>26.0</ele><time>2026-04-26T19:39:49Z</time></trkpt><trkpt lat="45.49767487348775" lon="11.64694589536803"><ele>25.0</ele><time>2026-04-26T19:39:50Z</time></trkpt><trkpt lat="45.49752932278332" lon="11.647357800935616"><ele>25.0</ele><time>2026-04-26T19:39:51Z</time></trkpt><trkpt lat="45.4973845920965" lon="11.647770821518645"><ele>25.0</ele><time>2026-04-26T19:39:52Z</time></trkpt><trkpt lat="45.49724016837745" lon="11.648184221033269"><ele>25.0</ele><time>2026-04-26T19:39:53Z</time></trkpt><trkpt lat="45.49709496427577" lon="11.648596634780638"><ele>25.0</ele><time>2026-04-26T19:39:54Z</time></trkpt><trkpt lat="45.496950343558375" lon="11.649004770889972"><ele>26.0</ele><time>2026-04-26T19:39:55Z</time></trkpt><trkpt lat="45.496807429629975" lon="11.649414228619031"><ele>27.0</ele><time>2026-04-26T19:39:56Z</time></trkpt><trkpt lat="45.4966675473755" lon="11.649824215360118"><ele>27.0</ele><time>2026-04-26T19:39:57Z</time></trkpt><trkpt lat="45.49652695412305" lon="11.650235449534255"><ele>27.0</ele><time>2026-04-26T19:39:58Z</time></trkpt><trkpt lat="45.49638639289182" lon="11.650646165361268"><ele>26.0</ele><time>2026-04-26T19:39:59Z</time></trkpt><trkpt lat="45.49624321925781" lon="11.65105598107673"><ele>25.0</ele><time>2026-04-26T19:40:00Z</time></trkpt><trkpt lat="45.49609894043243" lon="11.651466023688117"><ele>25.0</ele><time>2026-04-26T19:40:01Z</time></trkpt><trkpt lat="45.49595386464167" lon="11.65187363478813"><ele>25.0</ele><time>2026-04-26T19:40:02Z</time></trkpt><trkpt lat="45.49581194071144" lon="11.652278399912174"><ele>26.0</ele><time>2026-04-26T19:40:03Z</time></trkpt><trkpt lat="45.49567158396657" lon="11.65268260559453"><ele>27.0</ele><time>2026-04-26T19:40:04Z</time></trkpt><trkpt lat="45.495530863158976" lon="11.653088600525535"><ele>26.5</ele><time>2026-04-26T19:40:05Z</time></trkpt><trkpt lat="45.49538897708559" lon="11.6534960039476"><ele>26.0</ele><time>2026-04-26T19:40:06Z</time></trkpt><trkpt lat="45.49524617105931" lon="11.65390604721133"><ele>26.0</ele><time>2026-04-26T19:40:07Z</time></trkpt><trkpt lat="45.49510550591292" lon="11.65431632188571"><ele>26.0</ele><time>2026-04-26T19:40:08Z</time></trkpt><trkpt lat="45.49496790405916" lon="11.654729362883328"><ele>26.5</ele><time>2026-04-26T19:40:09Z</time></trkpt><trkpt lat="45.494831511560854" lon="11.655144564978428"><ele>27.0</ele><time>2026-04-26T19:40:10Z</time></trkpt><trkpt lat="45.49469415977792" lon="11.655560505053828"><ele>25.5</ele><time>2026-04-26T19:40:11Z</time></trkpt><trkpt lat="45.49455497529307" lon="11.655974978007226"><ele>24.0</ele><time>2026-04-26T19:40:12Z</time></trkpt><trkpt lat="45.4944138328272" lon="11.656387452135059"><ele>24.0</ele><time>2026-04-26T19:40:13Z</time></trkpt><trkpt lat="45.49427097642085" lon="11.65679784331681"><ele>24.0</ele><time>2026-04-26T19:40:14Z</time></trkpt><trkpt lat="45.49412885801294" lon="11.657206732746475"><ele>24.0</ele><time>2026-04-26T19:40:15Z</time></trkpt><trkpt lat="45.49398629453576" lon="11.65761467810984"><ele>24.0</ele><time>2026-04-26T19:40:16Z</time></trkpt><trkpt lat="45.49384247160906" lon="11.658019507600144"><ele>24.0</ele><time>2026-04-26T19:40:17Z</time></trkpt><trkpt lat="45.493692270169475" lon="11.658416380225052"><ele>24.0</ele><time>2026-04-26T19:40:18Z</time></trkpt><trkpt lat="45.4935384843305" lon="11.658809479801965"><ele>24.5</ele><time>2026-04-26T19:40:19Z</time></trkpt><trkpt lat="45.49338868886665" lon="11.65920431122604"><ele>25.0</ele><time>2026-04-26T19:40:20Z</time></trkpt><trkpt lat="45.49324809471843" lon="11.659607929034433"><ele>25.5</ele><time>2026-04-26T19:40:21Z</time></trkpt><trkpt lat="45.493111037795195" lon="11.660017535739843"><ele>26.0</ele><time>2026-04-26T19:40:22Z</time></trkpt><trkpt lat="45.492973510903084" lon="11.660430107983663"><ele>26.0</ele><time>2026-04-26T19:40:23Z</time></trkpt><trkpt lat="45.49283846955241" lon="11.660846290143674"><ele>26.0</ele><time>2026-04-26T19:40:24Z</time></trkpt><trkpt lat="45.492711974538814" lon="11.661265503408584"><ele>25.5</ele><time>2026-04-26T19:40:25Z</time></trkpt><trkpt lat="45.49259254022634" lon="11.661688607691717"><ele>25.0</ele><time>2026-04-26T19:40:26Z</time></trkpt><trkpt lat="45.49247609047253" lon="11.66211616117342"><ele>25.0</ele><time>2026-04-26T19:40:27Z</time></trkpt><trkpt lat="45.49236064217145" lon="11.662549151876663"><ele>25.0</ele><time>2026-04-26T19:40:28Z</time></trkpt><trkpt lat="45.49224347028866" lon="11.662982774019195"><ele>25.5</ele><time>2026-04-26T19:40:29Z</time></trkpt><trkpt lat="45.49212796184437" lon="11.66340821955067"><ele>26.0</ele><time>2026-04-26T19:40:30Z</time></trkpt><trkpt lat="45.49201845005776" lon="11.663811532920002"><ele>26.0</ele><time>2026-04-26T19:40:31Z</time></trkpt><trkpt lat="45.491907140820345" lon="11.664225560280112"><ele>26.0</ele><time>2026-04-26T19:40:32Z</time></trkpt><trkpt lat="45.491791438593026" lon="11.66464473855764"><ele>25.5</ele><time>2026-04-26T19:40:33Z</time></trkpt><trkpt lat="45.49167514932513" lon="11.66506682579405"><ele>25.0</ele><time>2026-04-26T19:40:34Z</time></trkpt><trkpt lat="45.49155781667524" lon="11.665490147120984"><ele>24.5</ele><time>2026-04-26T19:40:35Z</time></trkpt><trkpt lat="45.49143928735579" lon="11.665912862749051"><ele>24.0</ele><time>2026-04-26T19:40:36Z</time></trkpt><trkpt lat="45.49132035458277" lon="11.66633550018061"><ele>24.0</ele><time>2026-04-26T19:40:37Z</time></trkpt><trkpt lat="45.49120192324629" lon="11.66675689886626"><ele>24.0</ele><time>2026-04-26T19:40:38Z</time></trkpt><trkpt lat="45.491086274734585" lon="11.667180392139656"><ele>24.0</ele><time>2026-04-26T19:40:39Z</time></trkpt><trkpt lat="45.49097017722634" lon="11.667603953211966"><ele>24.0</ele><time>2026-04-26T19:40:40Z</time></trkpt><trkpt lat="45.49085320162556" lon="11.668026199309397"><ele>23.5</ele><time>2026-04-26T19:40:41Z</time></trkpt><trkpt lat="45.49073867966903" lon="11.668448317114061"><ele>23.0</ele><time>2026-04-26T19:40:42Z</time></trkpt><trkpt lat="45.49062509352626" lon="11.668871135524356"><ele>22.5</ele><time>2026-04-26T19:40:43Z</time></trkpt><trkpt lat="45.490510175357656" lon="11.669292402644938"><ele>22.0</ele><time>2026-04-26T19:40:44Z</time></trkpt><trkpt lat="45.49039306829891" lon="11.669712460762558"><ele>22.0</ele><time>2026-04-26T19:40:45Z</time></trkpt><trkpt lat="45.49027773252097" lon="11.670132488191852"><ele>22.0</ele><time>2026-04-26T19:40:46Z</time></trkpt><trkpt lat="45.49016241044629" lon="11.670552387122534"><ele>22.0</ele><time>2026-04-26T19:40:47Z</time></trkpt><trkpt lat="45.49004647756204" lon="11.670972986124523"><ele>22.0</ele><time>2026-04-26T19:40:48Z</time></trkpt><trkpt lat="45.4899302656942" lon="11.671392559026222"><ele>21.5</ele><time>2026-04-26T19:40:49Z</time></trkpt><trkpt lat="45.48981320920025" lon="11.671810395576962"><ele>21.0</ele><time>2026-04-26T19:40:50Z</time></trkpt><trkpt lat="45.48969747526018" lon="11.672228198190714"><ele>21.0</ele><time>2026-04-26T19:40:51Z</time></trkpt><trkpt lat="45.48958219436955" lon="11.672646464475907"><ele>21.0</ele><time>2026-04-26T19:40:52Z</time></trkpt><trkpt lat="45.48946641176902" lon="11.673064740195427"><ele>20.5</ele><time>2026-04-26T19:40:53Z</time></trkpt><trkpt lat="45.48935159157411" lon="11.673485531974094"><ele>20.0</ele><time>2026-04-26T19:40:54Z</time></trkpt><trkpt lat="45.48923709858369" lon="11.673905896872425"><ele>20.0</ele><time>2026-04-26T19:40:55Z</time></trkpt><trkpt lat="45.48912181545117" lon="11.674325332851756"><ele>20.0</ele><time>2026-04-26T19:40:56Z</time></trkpt><trkpt lat="45.48900662173628" lon="11.674742904711811"><ele>20.0</ele><time>2026-04-26T19:40:57Z</time></trkpt><trkpt lat="45.4888924249892" lon="11.67516167545868"><ele>20.0</ele><time>2026-04-26T19:40:58Z</time></trkpt><trkpt lat="45.48877834726103" lon="11.675579997583815"><ele>20.5</ele><time>2026-04-26T19:40:59Z</time></trkpt><trkpt lat="45.48866457181603" lon="11.675994688667297"><ele>21.0</ele><time>2026-04-26T19:41:00Z</time></trkpt><trkpt lat="45.488550660123806" lon="11.676406935292611"><ele>21.0</ele><time>2026-04-26T19:41:01Z</time></trkpt><trkpt lat="45.488436672238905" lon="11.676816063338102"><ele>21.0</ele><time>2026-04-26T19:41:02Z</time></trkpt><trkpt lat="45.488322673180456" lon="11.677226165838173"><ele>21.5</ele><time>2026-04-26T19:41:03Z</time></trkpt><trkpt lat="45.488208968867504" lon="11.677636352147982"><ele>22.0</ele><time>2026-04-26T19:41:04Z</time></trkpt><trkpt lat="45.48809782003595" lon="11.678045916578565"><ele>22.0</ele><time>2026-04-26T19:41:05Z</time></trkpt><trkpt lat="45.48798996857825" lon="11.67845684708558"><ele>22.0</ele><time>2026-04-26T19:41:06Z</time></trkpt><trkpt lat="45.48787883354131" lon="11.678871521824398"><ele>21.5</ele><time>2026-04-26T19:41:07Z</time></trkpt><trkpt lat="45.48775925194865" lon="11.679282363671556"><ele>21.0</ele><time>2026-04-26T19:41:08Z</time></trkpt><trkpt lat="45.4876301569113" lon="11.679689663382117"><ele>20.5</ele><time>2026-04-26T19:41:09Z</time></trkpt><trkpt lat="45.48749065957387" lon="11.680091028554964"><ele>20.0</ele><time>2026-04-26T19:41:10Z</time></trkpt><trkpt lat="45.48734161081795" lon="11.680485103353071"><ele>20.0</ele><time>2026-04-26T19:41:11Z</time></trkpt><trkpt lat="45.48718495534914" lon="11.680872353374557"><ele>20.0</ele><time>2026-04-26T19:41:12Z</time></trkpt><trkpt lat="45.48702729362487" lon="11.681257957400723"><ele>20.5</ele><time>2026-04-26T19:41:13Z</time></trkpt><trkpt lat="45.48687151262232" lon="11.681644575214897"><ele>21.0</ele><time>2026-04-26T19:41:14Z</time></trkpt><trkpt lat="45.486722018737325" lon="11.682036811668233"><ele>21.5</ele><time>2026-04-26T19:41:15Z</time></trkpt><trkpt lat="45.48657598615529" lon="11.682432723194653"><ele>22.0</ele><time>2026-04-26T19:41:16Z</time></trkpt><trkpt lat="45.48642835170452" lon="11.68282928062073"><ele>22.5</ele><time>2026-04-26T19:41:17Z</time></trkpt><trkpt lat="45.48628068712885" lon="11.683224754627734"><ele>23.0</ele><time>2026-04-26T19:41:18Z</time></trkpt><trkpt lat="45.4861331709926" lon="11.683620294841635"><ele>23.0</ele><time>2026-04-26T19:41:19Z</time></trkpt><trkpt lat="45.48598430055031" lon="11.684015420256348"><ele>23.0</ele><time>2026-04-26T19:41:20Z</time></trkpt><trkpt lat="45.48583685207445" lon="11.68440948520582"><ele>23.0</ele><time>2026-04-26T19:41:21Z</time></trkpt><trkpt lat="45.485691599921054" lon="11.684803795484878"><ele>23.0</ele><time>2026-04-26T19:41:22Z</time></trkpt><trkpt lat="45.48554759368923" lon="11.68519707557717"><ele>22.5</ele><time>2026-04-26T19:41:23Z</time></trkpt><trkpt lat="45.48540240755007" lon="11.685588570782302"><ele>22.0</ele><time>2026-04-26T19:41:24Z</time></trkpt><trkpt lat="45.485255656699486" lon="11.685980184632273"><ele>22.0</ele><time>2026-04-26T19:41:25Z</time></trkpt><trkpt lat="45.4851096131224" lon="11.686371764203518"><ele>22.0</ele><time>2026-04-26T19:41:26Z</time></trkpt><trkpt lat="45.48496341073588" lon="11.686761500610094"><ele>21.5</ele><time>2026-04-26T19:41:27Z</time></trkpt><trkpt lat="45.48481610020106" lon="11.687151071645426"><ele>21.0</ele><time>2026-04-26T19:41:28Z</time></trkpt><trkpt lat="45.48466873785987" lon="11.68754101561208"><ele>21.5</ele><time>2026-04-26T19:41:29Z</time></trkpt><trkpt lat="45.484522308635775" lon="11.687932016884938"><ele>22.0</ele><time>2026-04-26T19:41:30Z</time></trkpt><trkpt lat="45.48437568439825" lon="11.688325133015129"><ele>22.0</ele><time>2026-04-26T19:41:31Z</time></trkpt><trkpt lat="45.484227483699385" lon="11.68872281990151"><ele>22.0</ele><time>2026-04-26T19:41:32Z</time></trkpt><trkpt lat="45.48407672498594" lon="11.68911999616196"><ele>21.5</ele><time>2026-04-26T19:41:33Z</time></trkpt><trkpt lat="45.483925345987714" lon="11.689518184153581"><ele>21.0</ele><time>2026-04-26T19:41:34Z</time></trkpt><trkpt lat="45.48377542349543" lon="11.689916410176231"><ele>21.0</ele><time>2026-04-26T19:41:35Z</time></trkpt><trkpt lat="45.48362756816742" lon="11.69031310877103"><ele>21.0</ele><time>2026-04-26T19:41:36Z</time></trkpt><trkpt lat="45.48348248934349" lon="11.690709117545078"><ele>21.0</ele><time>2026-04-26T19:41:37Z</time></trkpt><trkpt lat="45.4833437972149" lon="11.691107973510995"><ele>21.0</ele><time>2026-04-26T19:41:38Z</time></trkpt><trkpt lat="45.48321334899058" lon="11.691512868142306"><ele>21.0</ele><time>2026-04-26T19:41:39Z</time></trkpt><trkpt lat="45.48308520018439" lon="11.691921429381216"><ele>21.0</ele><time>2026-04-26T19:41:40Z</time></trkpt><trkpt lat="45.482956446772185" lon="11.692331815668904"><ele>21.5</ele><time>2026-04-26T19:41:41Z</time></trkpt><trkpt lat="45.482825243227225" lon="11.69274125775562"><ele>22.0</ele><time>2026-04-26T19:41:42Z</time></trkpt><trkpt lat="45.48269069192248" lon="11.693148649771066"><ele>22.0</ele><time>2026-04-26T19:41:43Z</time></trkpt><trkpt lat="45.48255588054891" lon="11.693555814584172"><ele>22.0</ele><time>2026-04-26T19:41:44Z</time></trkpt><trkpt lat="45.4824230404659" lon="11.693963533115477"><ele>22.0</ele><time>2026-04-26T19:41:45Z</time></trkpt><trkpt lat="45.48228992789429" lon="11.694370636381892"><ele>22.0</ele><time>2026-04-26T19:41:46Z</time></trkpt><trkpt lat="45.48215784981533" lon="11.694778099063155"><ele>22.0</ele><time>2026-04-26T19:41:47Z</time></trkpt><trkpt lat="45.482025507421874" lon="11.695184698608307"><ele>22.0</ele><time>2026-04-26T19:41:48Z</time></trkpt><trkpt lat="45.48189395597458" lon="11.695589854715077"><ele>21.5</ele><time>2026-04-26T19:41:49Z</time></trkpt><trkpt lat="45.48176277694983" lon="11.695993643337635"><ele>21.0</ele><time>2026-04-26T19:41:50Z</time></trkpt><trkpt lat="45.48163202193766" lon="11.696397258011832"><ele>21.0</ele><time>2026-04-26T19:41:51Z</time></trkpt><trkpt lat="45.48150166010197" lon="11.696800845686736"><ele>21.0</ele><time>2026-04-26T19:41:52Z</time></trkpt><trkpt lat="45.4813706962252" lon="11.697204409524632"><ele>21.0</ele><time>2026-04-26T19:41:53Z</time></trkpt><trkpt lat="45.481239817118706" lon="11.697609398649893"><ele>21.0</ele><time>2026-04-26T19:41:54Z</time></trkpt><trkpt lat="45.48110797436137" lon="11.698017590784584"><ele>21.0</ele><time>2026-04-26T19:41:55Z</time></trkpt><trkpt lat="45.48097587493247" lon="11.698427672259776"><ele>21.0</ele><time>2026-04-26T19:41:56Z</time></trkpt><trkpt lat="45.48084366960418" lon="11.698840101974824"><ele>21.0</ele><time>2026-04-26T19:41:57Z</time></trkpt><trkpt lat="45.48070970749769" lon="11.699253545815958"><ele>21.0</ele><time>2026-04-26T19:41:58Z</time></trkpt><trkpt lat="45.480574269105574" lon="11.699667723427359"><ele>21.0</ele><time>2026-04-26T19:41:59Z</time></trkpt><trkpt lat="45.48043913882319" lon="11.700082570416338"><ele>21.0</ele><time>2026-04-26T19:42:00Z</time></trkpt><trkpt lat="45.4803044003937" lon="11.70049783113022"><ele>21.0</ele><time>2026-04-26T19:42:01Z</time></trkpt><trkpt lat="45.48016994249663" lon="11.700913569649037"><ele>21.0</ele><time>2026-04-26T19:42:02Z</time></trkpt><trkpt lat="45.48003530799804" lon="11.701328984079856"><ele>21.0</ele><time>2026-04-26T19:42:03Z</time></trkpt><trkpt lat="45.47989985081673" lon="11.701742972912351"><ele>21.0</ele><time>2026-04-26T19:42:04Z</time></trkpt><trkpt lat="45.479766787048554" lon="11.70215397409562"><ele>21.5</ele><time>2026-04-26T19:42:05Z</time></trkpt><trkpt lat="45.479634189391994" lon="11.702561829066834"><ele>22.0</ele><time>2026-04-26T19:42:06Z</time></trkpt><trkpt lat="45.479506837528085" lon="11.702969246128225"><ele>23.0</ele><time>2026-04-26T19:42:07Z</time></trkpt><trkpt lat="45.47938919232112" lon="11.703380896881516"><ele>24.0</ele><time>2026-04-26T19:42:08Z</time></trkpt><trkpt lat="45.479271662277355" lon="11.703805414866787"><ele>24.5</ele><time>2026-04-26T19:42:09Z</time></trkpt><trkpt lat="45.479148659355516" lon="11.704234595100075"><ele>25.0</ele><time>2026-04-26T19:42:10Z</time></trkpt><trkpt lat="45.47901947562569" lon="11.704664007902585"><ele>24.0</ele><time>2026-04-26T19:42:11Z</time></trkpt><trkpt lat="45.47888171660471" lon="11.705090793358488"><ele>23.0</ele><time>2026-04-26T19:42:12Z</time></trkpt><trkpt lat="45.478736948164695" lon="11.7055149524552"><ele>23.0</ele><time>2026-04-26T19:42:13Z</time></trkpt><trkpt lat="45.47859218664276" lon="11.705936242892623"><ele>23.0</ele><time>2026-04-26T19:42:14Z</time></trkpt><trkpt lat="45.4784457054777" lon="11.706352719895499"><ele>23.0</ele><time>2026-04-26T19:42:15Z</time></trkpt><trkpt lat="45.47830372980085" lon="11.70676365544245"><ele>23.0</ele><time>2026-04-26T19:42:16Z</time></trkpt><trkpt lat="45.47816463588652" lon="11.70717013875526"><ele>22.5</ele><time>2026-04-26T19:42:17Z</time></trkpt><trkpt lat="45.47803157186157" lon="11.707580436357265"><ele>22.0</ele><time>2026-04-26T19:42:18Z</time></trkpt><trkpt lat="45.477898746486886" lon="11.707987367374022"><ele>22.0</ele><time>2026-04-26T19:42:19Z</time></trkpt><trkpt lat="45.47776417563249" lon="11.708390855493601"><ele>22.0</ele><time>2026-04-26T19:42:20Z</time></trkpt><trkpt lat="45.47762402522532" lon="11.708791322526569"><ele>22.5</ele><time>2026-04-26T19:42:21Z</time></trkpt><trkpt lat="45.477482504905886" lon="11.709194263462678"><ele>23.0</ele><time>2026-04-26T19:42:22Z</time></trkpt><trkpt lat="45.47734511407189" lon="11.709601752461987"><ele>22.0</ele><time>2026-04-26T19:42:23Z</time></trkpt><trkpt lat="45.47721088340936" lon="11.710012827517858"><ele>21.0</ele><time>2026-04-26T19:42:24Z</time></trkpt><trkpt lat="45.477077355470875" lon="11.710425264601845"><ele>21.0</ele><time>2026-04-26T19:42:25Z</time></trkpt><trkpt lat="45.47694410816988" lon="11.71083812540642"><ele>21.0</ele><time>2026-04-26T19:42:26Z</time></trkpt><trkpt lat="45.476810508564284" lon="11.711251965847215"><ele>21.0</ele><time>2026-04-26T19:42:27Z</time></trkpt><trkpt lat="45.47667578880609" lon="11.711665849294834"><ele>21.0</ele><time>2026-04-26T19:42:28Z</time></trkpt><trkpt lat="45.47654183893952" lon="11.712078599283291"><ele>21.0</ele><time>2026-04-26T19:42:29Z</time></trkpt><trkpt lat="45.47640781799486" lon="11.71249234501398"><ele>21.0</ele><time>2026-04-26T19:42:30Z</time></trkpt><trkpt lat="45.476271995956886" lon="11.71290834451085"><ele>21.0</ele><time>2026-04-26T19:42:31Z</time></trkpt><trkpt lat="45.47613573419083" lon="11.71332427940124"><ele>21.0</ele><time>2026-04-26T19:42:32Z</time></trkpt><trkpt lat="45.47599959359072" lon="11.713740560881556"><ele>21.0</ele><time>2026-04-26T19:42:33Z</time></trkpt><trkpt lat="45.47586409201585" lon="11.714155555170306"><ele>21.0</ele><time>2026-04-26T19:42:34Z</time></trkpt><trkpt lat="45.475730841745765" lon="11.714569397500268"><ele>21.5</ele><time>2026-04-26T19:42:35Z</time></trkpt><trkpt lat="45.47559778460987" lon="11.714983857372987"><ele>22.0</ele><time>2026-04-26T19:42:36Z</time></trkpt><trkpt lat="45.47546315318192" lon="11.715397861781046"><ele>21.5</ele><time>2026-04-26T19:42:37Z</time></trkpt><trkpt lat="45.47532903231052" lon="11.715812966176205"><ele>21.0</ele><time>2026-04-26T19:42:38Z</time></trkpt><trkpt lat="45.4751955662285" lon="11.716227238892266"><ele>20.5</ele><time>2026-04-26T19:42:39Z</time></trkpt><trkpt lat="45.4750607440176" lon="11.716640420804396"><ele>20.0</ele><time>2026-04-26T19:42:40Z</time></trkpt><trkpt lat="45.47492606662889" lon="11.717053174472094"><ele>19.5</ele><time>2026-04-26T19:42:41Z</time></trkpt><trkpt lat="45.47479142685123" lon="11.717464886252563"><ele>19.0</ele><time>2026-04-26T19:42:42Z</time></trkpt><trkpt lat="45.47465704677388" lon="11.717875652263096"><ele>19.0</ele><time>2026-04-26T19:42:43Z</time></trkpt><trkpt lat="45.47452366044193" lon="11.718286286721817"><ele>19.0</ele><time>2026-04-26T19:42:44Z</time></trkpt><trkpt lat="45.474390986522806" lon="11.718696880479815"><ele>19.0</ele><time>2026-04-26T19:42:45Z</time></trkpt><trkpt lat="45.4742585900981" lon="11.719107094088496"><ele>19.0</ele><time>2026-04-26T19:42:46Z</time></trkpt><trkpt lat="45.47412576960054" lon="11.719517298883584"><ele>19.0</ele><time>2026-04-26T19:42:47Z</time></trkpt><trkpt lat="45.47399245146916" lon="11.719926431898818"><ele>19.0</ele><time>2026-04-26T19:42:48Z</time></trkpt><trkpt lat="45.4738581725088" lon="11.720335585662275"><ele>19.0</ele><time>2026-04-26T19:42:49Z</time></trkpt><trkpt lat="45.47372257214302" lon="11.720746630480887"><ele>19.0</ele><time>2026-04-26T19:42:50Z</time></trkpt><trkpt lat="45.47358646333185" lon="11.72116081919593"><ele>19.0</ele><time>2026-04-26T19:42:51Z</time></trkpt><trkpt lat="45.473450743771146" lon="11.721579124922188"><ele>19.0</ele><time>2026-04-26T19:42:52Z</time></trkpt><trkpt lat="45.47331688722421" lon="11.72199888073019"><ele>19.0</ele><time>2026-04-26T19:42:53Z</time></trkpt><trkpt lat="45.473185367583234" lon="11.722420014775993"><ele>19.0</ele><time>2026-04-26T19:42:54Z</time></trkpt><trkpt lat="45.473058434398325" lon="11.722848834185625"><ele>19.0</ele><time>2026-04-26T19:42:55Z</time></trkpt><trkpt lat="45.47293119999162" lon="11.723279341677179"><ele>19.0</ele><time>2026-04-26T19:42:56Z</time></trkpt><trkpt lat="45.472801845236894" lon="11.723708945577954"><ele>19.0</ele><time>2026-04-26T19:42:57Z</time></trkpt><trkpt lat="45.47266784559298" lon="11.724135934403092"><ele>19.0</ele><time>2026-04-26T19:42:58Z</time></trkpt><trkpt lat="45.47252810968986" lon="11.724559032445198"><ele>19.0</ele><time>2026-04-26T19:42:59Z</time></trkpt><trkpt lat="45.47238300551596" lon="11.724977056558032"><ele>19.0</ele><time>2026-04-26T19:43:00Z</time></trkpt><trkpt lat="45.47223374130628" lon="11.725392371903595"><ele>19.0</ele><time>2026-04-26T19:43:01Z</time></trkpt><trkpt lat="45.472085174469214" lon="11.725809984310688"><ele>19.0</ele><time>2026-04-26T19:43:02Z</time></trkpt><trkpt lat="45.471941903740934" lon="11.726229480486571"><ele>19.0</ele><time>2026-04-26T19:43:03Z</time></trkpt><trkpt lat="45.47180418637008" lon="11.726649961520694"><ele>19.0</ele><time>2026-04-26T19:43:04Z</time></trkpt><trkpt lat="45.47166769822745" lon="11.727072554609284"><ele>19.0</ele><time>2026-04-26T19:43:05Z</time></trkpt><trkpt lat="45.471531734175926" lon="11.727492192029766"><ele>19.0</ele><time>2026-04-26T19:43:06Z</time></trkpt><trkpt lat="45.47139612248111" lon="11.727910049702373"><ele>18.5</ele><time>2026-04-26T19:43:07Z</time></trkpt><trkpt lat="45.471260393526286" lon="11.728326864705737"><ele>18.0</ele><time>2026-04-26T19:43:08Z</time></trkpt><trkpt lat="45.471126243297235" lon="11.72874244618529"><ele>18.0</ele><time>2026-04-26T19:43:09Z</time></trkpt><trkpt lat="45.47099183265937" lon="11.729158437239498"><ele>18.0</ele><time>2026-04-26T19:43:10Z</time></trkpt><trkpt lat="45.4708596119532" lon="11.729575254956655"><ele>18.0</ele><time>2026-04-26T19:43:11Z</time></trkpt><trkpt lat="45.47072718468255" lon="11.72999000205896"><ele>18.0</ele><time>2026-04-26T19:43:12Z</time></trkpt><trkpt lat="45.470595163584065" lon="11.730403829537101"><ele>17.5</ele><time>2026-04-26T19:43:13Z</time></trkpt><trkpt lat="45.47046214153376" lon="11.730816024337408"><ele>17.0</ele><time>2026-04-26T19:43:14Z</time></trkpt><trkpt lat="45.470329374214664" lon="11.731227093768613"><ele>18.0</ele><time>2026-04-26T19:43:15Z</time></trkpt><trkpt lat="45.470198009583136" lon="11.731638382876216"><ele>19.0</ele><time>2026-04-26T19:43:16Z</time></trkpt><trkpt lat="45.470064411432794" lon="11.732048630044835"><ele>19.0</ele><time>2026-04-26T19:43:17Z</time></trkpt><trkpt lat="45.4699320730701" lon="11.732457130426969"><ele>19.0</ele><time>2026-04-26T19:43:18Z</time></trkpt><trkpt lat="45.46980101783451" lon="11.732865183424176"><ele>18.5</ele><time>2026-04-26T19:43:19Z</time></trkpt><trkpt lat="45.46967038472351" lon="11.733270929850955"><ele>18.0</ele><time>2026-04-26T19:43:20Z</time></trkpt><trkpt lat="45.469541309527074" lon="11.733677478230081"><ele>18.0</ele><time>2026-04-26T19:43:21Z</time></trkpt><trkpt lat="45.4694175674513" lon="11.734083928403287"><ele>18.0</ele><time>2026-04-26T19:43:22Z</time></trkpt><trkpt lat="45.46929877993709" lon="11.734493021642027"><ele>18.0</ele><time>2026-04-26T19:43:23Z</time></trkpt><trkpt lat="45.469188034299094" lon="11.73490506947621"><ele>18.0</ele><time>2026-04-26T19:43:24Z</time></trkpt><trkpt lat="45.46908386582447" lon="11.735324836664772"><ele>17.5</ele><time>2026-04-26T19:43:25Z</time></trkpt><trkpt lat="45.468982738596566" lon="11.735747645361165"><ele>17.0</ele><time>2026-04-26T19:43:26Z</time></trkpt><trkpt lat="45.468886517236484" lon="11.736172388862757"><ele>17.0</ele><time>2026-04-26T19:43:27Z</time></trkpt><trkpt lat="45.46879623869314" lon="11.736600183013056"><ele>17.0</ele><time>2026-04-26T19:43:28.001Z</time></trkpt><trkpt lat="45.46871117307081" lon="11.737031580363455"><ele>17.0</ele><time>2026-04-26T19:43:29.001Z</time></trkpt><trkpt lat="45.468630247198064" lon="11.737465548548915"><ele>17.0</ele><time>2026-04-26T19:43:30.001Z</time></trkpt><trkpt lat="45.46855237137684" lon="11.737900442018892"><ele>17.0</ele><time>2026-04-26T19:43:31.001Z</time></trkpt><trkpt lat="45.46847862633104" lon="11.738337393792953"><ele>17.0</ele><time>2026-04-26T19:43:32.001Z</time></trkpt><trkpt lat="45.46840706246735" lon="11.738775892723673"><ele>17.0</ele><time>2026-04-26T19:43:33.001Z</time></trkpt><trkpt lat="45.46833892327911" lon="11.739217750775676"><ele>17.0</ele><time>2026-04-26T19:43:34.001Z</time></trkpt><trkpt lat="45.468271532173986" lon="11.73966257429924"><ele>17.0</ele><time>2026-04-26T19:43:35.001Z</time></trkpt><trkpt lat="45.46820076872095" lon="11.740109944665116"><ele>17.0</ele><time>2026-04-26T19:43:36.001Z</time></trkpt><trkpt lat="45.46812685455559" lon="11.740554247682777"><ele>17.0</ele><time>2026-04-26T19:43:37.001Z</time></trkpt><trkpt lat="45.46805506736415" lon="11.740979720562297"><ele>17.0</ele><time>2026-04-26T19:43:38.001Z</time></trkpt><trkpt lat="45.46798559447695" lon="11.741397553067099"><ele>17.0</ele><time>2026-04-26T19:43:39.001Z</time></trkpt><trkpt lat="45.46791293877231" lon="11.741828227314882"><ele>17.0</ele><time>2026-04-26T19:43:40.001Z</time></trkpt><trkpt lat="45.46783932343181" lon="11.74226263236382"><ele>17.0</ele><time>2026-04-26T19:43:41.001Z</time></trkpt><trkpt lat="45.46776680431275" lon="11.742697298668457"><ele>17.0</ele><time>2026-04-26T19:43:42.001Z</time></trkpt><trkpt lat="45.4676937298583" lon="11.743136356801951"><ele>16.5</ele><time>2026-04-26T19:43:43.001Z</time></trkpt><trkpt lat="45.46762216718013" lon="11.743575773630893"><ele>16.0</ele><time>2026-04-26T19:43:44.001Z</time></trkpt><trkpt lat="45.467551613489185" lon="11.744017713615126"><ele>17.0</ele><time>2026-04-26T19:43:45.001Z</time></trkpt><trkpt lat="45.46748202874662" lon="11.744459337784953"><ele>18.0</ele><time>2026-04-26T19:43:46.001Z</time></trkpt><trkpt lat="45.46741132477361" lon="11.744902003890395"><ele>18.5</ele><time>2026-04-26T19:43:47.001Z</time></trkpt><trkpt lat="45.467339976302995" lon="11.745344332909136"><ele>19.0</ele><time>2026-04-26T19:43:48.001Z</time></trkpt><trkpt lat="45.46726736185552" lon="11.745787235649036"><ele>18.0</ele><time>2026-04-26T19:43:49.001Z</time></trkpt><trkpt lat="45.467194510634634" lon="11.746230755768549"><ele>17.0</ele><time>2026-04-26T19:43:50.001Z</time></trkpt><trkpt lat="45.46712143302724" lon="11.746674296188345"><ele>18.0</ele><time>2026-04-26T19:43:51.001Z</time></trkpt><trkpt lat="45.467048307238535" lon="11.747119825927008"><ele>19.0</ele><time>2026-04-26T19:43:52.001Z</time></trkpt><trkpt lat="45.466975039688926" lon="11.74756723520712"><ele>18.5</ele><time>2026-04-26T19:43:53.001Z</time></trkpt><trkpt lat="45.466901019977726" lon="11.748016669969848"><ele>18.0</ele><time>2026-04-26T19:43:54.001Z</time></trkpt><trkpt lat="45.46682674736121" lon="11.748466298515954"><ele>18.5</ele><time>2026-04-26T19:43:55.001Z</time></trkpt><trkpt lat="45.4667516806434" lon="11.748916054199329"><ele>19.0</ele><time>2026-04-26T19:43:56.001Z</time></trkpt><trkpt lat="45.466678778196524" lon="11.749367810969733"><ele>19.5</ele><time>2026-04-26T19:43:57.001Z</time></trkpt><trkpt lat="45.46660664797654" lon="11.74982006702574"><ele>20.0</ele><time>2026-04-26T19:43:58.001Z</time></trkpt><trkpt lat="45.466533975335935" lon="11.750269780859197"><ele>20.5</ele><time>2026-04-26T19:43:59.001Z</time></trkpt><trkpt lat="45.46646217220678" lon="11.750715582376818"><ele>21.0</ele><time>2026-04-26T19:44:00.001Z</time></trkpt><trkpt lat="45.46639032021328" lon="11.75116145172674"><ele>21.0</ele><time>2026-04-26T19:44:01.001Z</time></trkpt><trkpt lat="45.466319002240844" lon="11.751607490565501"><ele>21.0</ele><time>2026-04-26T19:44:02.001Z</time></trkpt><trkpt lat="45.46624698204463" lon="11.752053016211793"><ele>20.5</ele><time>2026-04-26T19:44:03.001Z</time></trkpt><trkpt lat="45.46617532256047" lon="11.752496784690301"><ele>20.0</ele><time>2026-04-26T19:44:04.001Z</time></trkpt><trkpt lat="45.46610436370943" lon="11.752938014361698"><ele>20.0</ele><time>2026-04-26T19:44:05.001Z</time></trkpt><trkpt lat="45.4660328255245" lon="11.753376934648225"><ele>20.0</ele><time>2026-04-26T19:44:06.001Z</time></trkpt><trkpt lat="45.4659597860636" lon="11.753819384036078"><ele>20.5</ele><time>2026-04-26T19:44:07.001Z</time></trkpt><trkpt lat="45.46588790231302" lon="11.754262666467548"><ele>21.0</ele><time>2026-04-26T19:44:08.001Z</time></trkpt><trkpt lat="45.46581728116749" lon="11.754704892823698"><ele>21.0</ele><time>2026-04-26T19:44:09.001Z</time></trkpt><trkpt lat="45.4657445104125" lon="11.75514642042196"><ele>21.0</ele><time>2026-04-26T19:44:10.001Z</time></trkpt><trkpt lat="45.46567227393661" lon="11.755589868128263"><ele>21.0</ele><time>2026-04-26T19:44:11.001Z</time></trkpt><trkpt lat="45.46559896181226" lon="11.756032580746329"><ele>21.0</ele><time>2026-04-26T19:44:12.001Z</time></trkpt><trkpt lat="45.46552803349382" lon="11.756475279475683"><ele>20.5</ele><time>2026-04-26T19:44:13.001Z</time></trkpt><trkpt lat="45.4654568574412" lon="11.756917607136733"><ele>20.0</ele><time>2026-04-26T19:44:14.001Z</time></trkpt><trkpt lat="45.46538581606596" lon="11.757360076135686"><ele>20.5</ele><time>2026-04-26T19:44:15.001Z</time></trkpt><trkpt lat="45.46531323643707" lon="11.75780105104315"><ele>21.0</ele><time>2026-04-26T19:44:16.001Z</time></trkpt><trkpt lat="45.46524167798477" lon="11.758241493071173"><ele>21.0</ele><time>2026-04-26T19:44:17.001Z</time></trkpt><trkpt lat="45.465171941934166" lon="11.758681796730684"><ele>21.0</ele><time>2026-04-26T19:44:18.001Z</time></trkpt><trkpt lat="45.46509919650311" lon="11.759120735803945"><ele>20.0</ele><time>2026-04-26T19:44:19.001Z</time></trkpt><trkpt lat="45.46503652799946" lon="11.75956509164681"><ele>19.0</ele><time>2026-04-26T19:44:20.001Z</time></trkpt><trkpt lat="45.464972816301966" lon="11.760007570449076"><ele>18.5</ele><time>2026-04-26T19:44:21.001Z</time></trkpt><trkpt lat="45.464908568154776" lon="11.760450202128865"><ele>18.0</ele><time>2026-04-26T19:44:22.001Z</time></trkpt><trkpt lat="45.46484057564083" lon="11.760892322078844"><ele>17.5</ele><time>2026-04-26T19:44:23.001Z</time></trkpt><trkpt lat="45.464770138219585" lon="11.76133327060161"><ele>17.0</ele><time>2026-04-26T19:44:24.001Z</time></trkpt><trkpt lat="45.46469818003713" lon="11.761775770424862"><ele>17.5</ele><time>2026-04-26T19:44:25.001Z</time></trkpt><trkpt lat="45.46461975458498" lon="11.762218718335784"><ele>18.0</ele><time>2026-04-26T19:44:26.001Z</time></trkpt><trkpt lat="45.46453207045492" lon="11.762657956023885"><ele>18.5</ele><time>2026-04-26T19:44:27.001Z</time></trkpt><trkpt lat="45.46443733191782" lon="11.763094852536938"><ele>19.0</ele><time>2026-04-26T19:44:28.001Z</time></trkpt><trkpt lat="45.464340155264786" lon="11.76353013973651"><ele>18.5</ele><time>2026-04-26T19:44:29.001Z</time></trkpt><trkpt lat="45.46424027993539" lon="11.763967407644937"><ele>18.0</ele><time>2026-04-26T19:44:30.001Z</time></trkpt><trkpt lat="45.464137690552015" lon="11.764404166903667"><ele>18.0</ele><time>2026-04-26T19:44:31.001Z</time></trkpt><trkpt lat="45.46402949449516" lon="11.764840145126955"><ele>18.0</ele><time>2026-04-26T19:44:32.001Z</time></trkpt><trkpt lat="45.46391626130188" lon="11.765271798451723"><ele>18.0</ele><time>2026-04-26T19:44:33.001Z</time></trkpt><trkpt lat="45.46379531637388" lon="11.765697199452639"><ele>18.0</ele><time>2026-04-26T19:44:34.001Z</time></trkpt><trkpt lat="45.46367124735732" lon="11.766118819304493"><ele>18.0</ele><time>2026-04-26T19:44:35.001Z</time></trkpt><trkpt lat="45.463543031959034" lon="11.766540095978968"><ele>18.0</ele><time>2026-04-26T19:44:36.001Z</time></trkpt><trkpt lat="45.463414325204255" lon="11.766960755223844"><ele>18.0</ele><time>2026-04-26T19:44:37.001Z</time></trkpt><trkpt lat="45.46328673503161" lon="11.76738107255815"><ele>18.0</ele><time>2026-04-26T19:44:38.001Z</time></trkpt><trkpt lat="45.46315975037192" lon="11.767801478939775"><ele>17.5</ele><time>2026-04-26T19:44:39.001Z</time></trkpt><trkpt lat="45.46303339815931" lon="11.768222353054533"><ele>17.0</ele><time>2026-04-26T19:44:40.001Z</time></trkpt><trkpt lat="45.462908583495945" lon="11.768642917619383"><ele>17.0</ele><time>2026-04-26T19:44:41.001Z</time></trkpt><trkpt lat="45.46278406013899" lon="11.769063059403543"><ele>17.0</ele><time>2026-04-26T19:44:42.001Z</time></trkpt><trkpt lat="45.462658757043215" lon="11.769482239318078"><ele>17.0</ele><time>2026-04-26T19:44:43.001Z</time></trkpt><trkpt lat="45.4625361423218" lon="11.76990032616136"><ele>17.0</ele><time>2026-04-26T19:44:44.001Z</time></trkpt><trkpt lat="45.46241068529577" lon="11.770319952458776"><ele>17.0</ele><time>2026-04-26T19:44:45.001Z</time></trkpt><trkpt lat="45.46228444024272" lon="11.77073972619364"><ele>17.0</ele><time>2026-04-26T19:44:46.001Z</time></trkpt><trkpt lat="45.462157717649724" lon="11.771159432563987"><ele>17.5</ele><time>2026-04-26T19:44:47.001Z</time></trkpt><trkpt lat="45.46203065150179" lon="11.771578574067819"><ele>18.0</ele><time>2026-04-26T19:44:48.001Z</time></trkpt><trkpt lat="45.461904191960336" lon="11.771997318037357"><ele>18.0</ele><time>2026-04-26T19:44:49.001Z</time></trkpt><trkpt lat="45.461778810949156" lon="11.77241438023517"><ele>18.0</ele><time>2026-04-26T19:44:50.001Z</time></trkpt><trkpt lat="45.46165305393282" lon="11.772831845561457"><ele>18.0</ele><time>2026-04-26T19:44:51.001Z</time></trkpt><trkpt lat="45.46152826061997" lon="11.773249520633351"><ele>18.0</ele><time>2026-04-26T19:44:52.001Z</time></trkpt><trkpt lat="45.46140418409798" lon="11.773666222597452"><ele>17.5</ele><time>2026-04-26T19:44:53.001Z</time></trkpt><trkpt lat="45.46127935029511" lon="11.774083432036072"><ele>17.0</ele><time>2026-04-26T19:44:54.001Z</time></trkpt><trkpt lat="45.46115199597544" lon="11.77449987522651"><ele>16.5</ele><time>2026-04-26T19:44:55.001Z</time></trkpt><trkpt lat="45.46102322801579" lon="11.774919059430689"><ele>16.0</ele><time>2026-04-26T19:44:56.001Z</time></trkpt><trkpt lat="45.46089418003391" lon="11.775340558864936"><ele>17.0</ele><time>2026-04-26T19:44:57.001Z</time></trkpt><trkpt lat="45.460764541825746" lon="11.775763468108956"><ele>18.0</ele><time>2026-04-26T19:44:58.001Z</time></trkpt><trkpt lat="45.46063725278382" lon="11.776186407653453"><ele>18.0</ele><time>2026-04-26T19:44:59.001Z</time></trkpt><trkpt lat="45.46050887437396" lon="11.776608445798372"><ele>18.0</ele><time>2026-04-26T19:45:00.001Z</time></trkpt><trkpt lat="45.46038152690543" lon="11.777030045113591"><ele>18.0</ele><time>2026-04-26T19:45:01.001Z</time></trkpt><trkpt lat="45.46025423271617" lon="11.777451043795578"><ele>18.0</ele><time>2026-04-26T19:45:02.001Z</time></trkpt><trkpt lat="45.4601278715928" lon="11.777870971198638"><ele>18.0</ele><time>2026-04-26T19:45:03.001Z</time></trkpt><trkpt lat="45.45999971963388" lon="11.778290441800735"><ele>18.0</ele><time>2026-04-26T19:45:04.001Z</time></trkpt><trkpt lat="45.459874380144996" lon="11.77870825291269"><ele>17.5</ele><time>2026-04-26T19:45:05.001Z</time></trkpt><trkpt lat="45.459747276420934" lon="11.779128058561074"><ele>17.0</ele><time>2026-04-26T19:45:06.001Z</time></trkpt><trkpt lat="45.4596243813458" lon="11.779551047844505"><ele>17.0</ele><time>2026-04-26T19:45:07.001Z</time></trkpt><trkpt lat="45.45949862965561" lon="11.779972867112088"><ele>17.0</ele><time>2026-04-26T19:45:08.001Z</time></trkpt><trkpt lat="45.45937197231111" lon="11.780394423116187"><ele>17.0</ele><time>2026-04-26T19:45:09.001Z</time></trkpt><trkpt lat="45.45924729087566" lon="11.780816401102602"><ele>17.0</ele><time>2026-04-26T19:45:10.001Z</time></trkpt><trkpt lat="45.45912632760912" lon="11.78123944457963"><ele>17.0</ele><time>2026-04-26T19:45:11.001Z</time></trkpt><trkpt lat="45.459007231426845" lon="11.781664220153107"><ele>17.0</ele><time>2026-04-26T19:45:12.001Z</time></trkpt><trkpt lat="45.458884153345785" lon="11.782087360625466"><ele>16.5</ele><time>2026-04-26T19:45:13.001Z</time></trkpt><trkpt lat="45.458763172164396" lon="11.78251841124655"><ele>16.0</ele><time>2026-04-26T19:45:14.001Z</time></trkpt><trkpt lat="45.45863799865659" lon="11.782942936947228"><ele>16.0</ele><time>2026-04-26T19:45:15.001Z</time></trkpt><trkpt lat="45.45851112498258" lon="11.783367634985181"><ele>16.0</ele><time>2026-04-26T19:45:16.001Z</time></trkpt><trkpt lat="45.458384858523196" lon="11.783791841388124"><ele>16.5</ele><time>2026-04-26T19:45:17.001Z</time></trkpt><trkpt lat="45.45825741441958" lon="11.78421599082553"><ele>17.0</ele><time>2026-04-26T19:45:18.001Z</time></trkpt><trkpt lat="45.45812819474163" lon="11.784640323648937"><ele>16.5</ele><time>2026-04-26T19:45:19.001Z</time></trkpt><trkpt lat="45.457996353245385" lon="11.785061536426364"><ele>16.0</ele><time>2026-04-26T19:45:20.001Z</time></trkpt><trkpt lat="45.45786513698308" lon="11.78548176029374"><ele>16.0</ele><time>2026-04-26T19:45:21.001Z</time></trkpt><trkpt lat="45.45773686464448" lon="11.785901515862399"><ele>16.0</ele><time>2026-04-26T19:45:22.001Z</time></trkpt><trkpt lat="45.45761169481979" lon="11.786321050013365"><ele>16.0</ele><time>2026-04-26T19:45:23.001Z</time></trkpt><trkpt lat="45.45748439090072" lon="11.786739593348539"><ele>16.0</ele><time>2026-04-26T19:45:24.001Z</time></trkpt><trkpt lat="45.457354986794705" lon="11.78715622114806"><ele>16.0</ele><time>2026-04-26T19:45:25.001Z</time></trkpt><trkpt lat="45.457226370477784" lon="11.787572149510911"><ele>16.0</ele><time>2026-04-26T19:45:26.001Z</time></trkpt><trkpt lat="45.457101453687194" lon="11.787989112164988"><ele>16.0</ele><time>2026-04-26T19:45:27.001Z</time></trkpt><trkpt lat="45.456976751746254" lon="11.788405562527112"><ele>16.0</ele><time>2026-04-26T19:45:28.001Z</time></trkpt><trkpt lat="45.456851860127706" lon="11.788823076318103"><ele>16.0</ele><time>2026-04-26T19:45:29.001Z</time></trkpt><trkpt lat="45.45672725557841" lon="11.789242253675035"><ele>16.0</ele><time>2026-04-26T19:45:30.001Z</time></trkpt><trkpt lat="45.45660657909562" lon="11.789663958471797"><ele>16.0</ele><time>2026-04-26T19:45:31.001Z</time></trkpt><trkpt lat="45.45648669725244" lon="11.790086374565476"><ele>16.0</ele><time>2026-04-26T19:45:32.001Z</time></trkpt><trkpt lat="45.45637488423211" lon="11.790513689880614"><ele>15.5</ele><time>2026-04-26T19:45:33.001Z</time></trkpt><trkpt lat="45.45626828038548" lon="11.790946001441156"><ele>15.0</ele><time>2026-04-26T19:45:34.001Z</time></trkpt><trkpt lat="45.456165958690626" lon="11.791381031619341"><ele>15.0</ele><time>2026-04-26T19:45:35.001Z</time></trkpt><trkpt lat="45.45606439237583" lon="11.791817013348203"><ele>15.0</ele><time>2026-04-26T19:45:36.001Z</time></trkpt><trkpt lat="45.45596183931827" lon="11.792250553796684"><ele>15.0</ele><time>2026-04-26T19:45:37.001Z</time></trkpt><trkpt lat="45.45586561029539" lon="11.792685949336384"><ele>15.0</ele><time>2026-04-26T19:45:38.001Z</time></trkpt><trkpt lat="45.455782689978584" lon="11.793125781945834"><ele>15.5</ele><time>2026-04-26T19:45:39.001Z</time></trkpt><trkpt lat="45.45571084638705" lon="11.793571776450257"><ele>16.0</ele><time>2026-04-26T19:45:40Z</time></trkpt><trkpt lat="45.45564462568889" lon="11.794019595844214"><ele>15.5</ele><time>2026-04-26T19:45:41.001Z</time></trkpt><trkpt lat="45.45558207539306" lon="11.79447160031477"><ele>15.0</ele><time>2026-04-26T19:45:42Z</time></trkpt><trkpt lat="45.45552243755242" lon="11.794927427593816"><ele>15.0</ele><time>2026-04-26T19:45:43Z</time></trkpt><trkpt lat="45.45546644624767" lon="11.795384361870097"><ele>15.0</ele><time>2026-04-26T19:45:44Z</time></trkpt><trkpt lat="45.455414880459635" lon="11.795844375503378"><ele>16.0</ele><time>2026-04-26T19:45:45Z</time></trkpt><trkpt lat="45.4553619677842" lon="11.796304045423899"><ele>17.0</ele><time>2026-04-26T19:45:46Z</time></trkpt><trkpt lat="45.45530512914876" lon="11.796763438757258"><ele>17.0</ele><time>2026-04-26T19:45:47Z</time></trkpt><trkpt lat="45.45524530979703" lon="11.797221759341205"><ele>17.0</ele><time>2026-04-26T19:45:48Z</time></trkpt><trkpt lat="45.45518417631402" lon="11.797678957591753"><ele>17.0</ele><time>2026-04-26T19:45:49Z</time></trkpt><trkpt lat="45.45512359942358" lon="11.79813411841475"><ele>17.0</ele><time>2026-04-26T19:45:50Z</time></trkpt><trkpt lat="45.45506232278386" lon="11.798588262613547"><ele>17.5</ele><time>2026-04-26T19:45:51Z</time></trkpt><trkpt lat="45.45499939404657" lon="11.799042834573735"><ele>18.0</ele><time>2026-04-26T19:45:52Z</time></trkpt><trkpt lat="45.45493420735346" lon="11.799496267136114"><ele>17.0</ele><time>2026-04-26T19:45:53Z</time></trkpt><trkpt lat="45.45486381470452" lon="11.799947459135467"><ele>16.0</ele><time>2026-04-26T19:45:54Z</time></trkpt><trkpt lat="45.45478970121137" lon="11.800396799874056"><ele>16.0</ele><time>2026-04-26T19:45:55Z</time></trkpt><trkpt lat="45.45471841149794" lon="11.800846097984628"><ele>16.0</ele><time>2026-04-26T19:45:56Z</time></trkpt><trkpt lat="45.45465204768224" lon="11.80129583728834"><ele>16.5</ele><time>2026-04-26T19:45:57.001Z</time></trkpt><trkpt lat="45.4545909954529" lon="11.801745017183324"><ele>17.0</ele><time>2026-04-26T19:45:58.001Z</time></trkpt><trkpt lat="45.4545319256029" lon="11.80219650578834"><ele>17.0</ele><time>2026-04-26T19:45:59.001Z</time></trkpt><trkpt lat="45.454470953284215" lon="11.80264867602118"><ele>17.0</ele><time>2026-04-26T19:46:00.001Z</time></trkpt><trkpt lat="45.454410333099865" lon="11.803101372045"><ele>17.0</ele><time>2026-04-26T19:46:01.001Z</time></trkpt><trkpt lat="45.4543473872076" lon="11.803553153169407"><ele>17.0</ele><time>2026-04-26T19:46:02.001Z</time></trkpt><trkpt lat="45.45428529850784" lon="11.804005306472456"><ele>16.5</ele><time>2026-04-26T19:46:03.001Z</time></trkpt><trkpt lat="45.45422244692408" lon="11.804456901467429"><ele>16.0</ele><time>2026-04-26T19:46:04.001Z</time></trkpt><trkpt lat="45.454161752749854" lon="11.804908156630127"><ele>16.0</ele><time>2026-04-26T19:46:05.001Z</time></trkpt><trkpt lat="45.4541026436848" lon="11.805359809618398"><ele>16.0</ele><time>2026-04-26T19:46:06.001Z</time></trkpt><trkpt lat="45.45404398063137" lon="11.805811999489414"><ele>16.0</ele><time>2026-04-26T19:46:07.001Z</time></trkpt><trkpt lat="45.453984948667056" lon="11.806264354239284"><ele>16.0</ele><time>2026-04-26T19:46:08.001Z</time></trkpt><trkpt lat="45.45392443560899" lon="11.806714963467517"><ele>15.5</ele><time>2026-04-26T19:46:09.001Z</time></trkpt><trkpt lat="45.453863728399014" lon="11.807165219401842"><ele>15.0</ele><time>2026-04-26T19:46:10.001Z</time></trkpt><trkpt lat="45.45380353765137" lon="11.807616819733639"><ele>15.5</ele><time>2026-04-26T19:46:11.001Z</time></trkpt><trkpt lat="45.453742343464" lon="11.808068652837727"><ele>16.0</ele><time>2026-04-26T19:46:12.001Z</time></trkpt><trkpt lat="45.45368088303678" lon="11.80852067365493"><ele>16.0</ele><time>2026-04-26T19:46:13.001Z</time></trkpt><trkpt lat="45.45361845911109" lon="11.808973819582148"><ele>16.0</ele><time>2026-04-26T19:46:14.001Z</time></trkpt><trkpt lat="45.45355621760312" lon="11.809426755225925"><ele>15.5</ele><time>2026-04-26T19:46:15.001Z</time></trkpt><trkpt lat="45.45349341523288" lon="11.809880131004563"><ele>15.0</ele><time>2026-04-26T19:46:16.001Z</time></trkpt><trkpt lat="45.45343187191316" lon="11.81033193391752"><ele>15.0</ele><time>2026-04-26T19:46:17.001Z</time></trkpt><trkpt lat="45.45337101816553" lon="11.810782805531584"><ele>15.0</ele><time>2026-04-26T19:46:18.001Z</time></trkpt><trkpt lat="45.453312206602746" lon="11.81123426096186"><ele>15.5</ele><time>2026-04-26T19:46:19.001Z</time></trkpt><trkpt lat="45.45325686633114" lon="11.811685936024226"><ele>16.0</ele><time>2026-04-26T19:46:20.001Z</time></trkpt><trkpt lat="45.453204755293086" lon="11.812140598668062"><ele>16.0</ele><time>2026-04-26T19:46:21.001Z</time></trkpt><trkpt lat="45.45315115065627" lon="11.812599201808219"><ele>16.0</ele><time>2026-04-26T19:46:22.001Z</time></trkpt><trkpt lat="45.45309588482198" lon="11.813057337871092"><ele>16.5</ele><time>2026-04-26T19:46:23.001Z</time></trkpt><trkpt lat="45.453036100202766" lon="11.81351373442138"><ele>17.0</ele><time>2026-04-26T19:46:24.001Z</time></trkpt><trkpt lat="45.45297344390711" lon="11.81396897108596"><ele>16.0</ele><time>2026-04-26T19:46:25.001Z</time></trkpt><trkpt lat="45.452910418676886" lon="11.814421766503528"><ele>15.0</ele><time>2026-04-26T19:46:26.001Z</time></trkpt><trkpt lat="45.45284928757005" lon="11.814874754941078"><ele>15.0</ele><time>2026-04-26T19:46:27.001Z</time></trkpt><trkpt lat="45.45278837362938" lon="11.815327110356451"><ele>15.0</ele><time>2026-04-26T19:46:28.001Z</time></trkpt><trkpt lat="45.45272511684636" lon="11.81577552207196"><ele>15.5</ele><time>2026-04-26T19:46:29.001Z</time></trkpt><trkpt lat="45.452661168521075" lon="11.816224303363528"><ele>16.0</ele><time>2026-04-26T19:46:30.001Z</time></trkpt><trkpt lat="45.452598651725545" lon="11.816672814768195"><ele>16.0</ele><time>2026-04-26T19:46:31.001Z</time></trkpt><trkpt lat="45.452537078453695" lon="11.817118509067958"><ele>16.0</ele><time>2026-04-26T19:46:32.001Z</time></trkpt><trkpt lat="45.452477525550464" lon="11.817565110674554"><ele>17.0</ele><time>2026-04-26T19:46:33.001Z</time></trkpt><trkpt lat="45.45241931796427" lon="11.818011486126787"><ele>18.0</ele><time>2026-04-26T19:46:34.001Z</time></trkpt><trkpt lat="45.45235986299975" lon="11.818456714249187"><ele>16.5</ele><time>2026-04-26T19:46:35.001Z</time></trkpt><trkpt lat="45.452297648698" lon="11.818903556956467"><ele>15.0</ele><time>2026-04-26T19:46:36.001Z</time></trkpt><trkpt lat="45.45223638618365" lon="11.81934997601541"><ele>15.0</ele><time>2026-04-26T19:46:37.001Z</time></trkpt><trkpt lat="45.45217698117854" lon="11.819799273825788"><ele>15.0</ele><time>2026-04-26T19:46:38.001Z</time></trkpt><trkpt lat="45.4521154553372" lon="11.82025013551925"><ele>14.5</ele><time>2026-04-26T19:46:39.001Z</time></trkpt><trkpt lat="45.45205336165904" lon="11.820701601628134"><ele>14.0</ele><time>2026-04-26T19:46:40.001Z</time></trkpt><trkpt lat="45.4519924113967" lon="11.821153047477914"><ele>14.0</ele><time>2026-04-26T19:46:41.001Z</time></trkpt><trkpt lat="45.45193131296479" lon="11.821605652471563"><ele>14.0</ele><time>2026-04-26T19:46:42.001Z</time></trkpt><trkpt lat="45.451870678779464" lon="11.822058888041704"><ele>13.5</ele><time>2026-04-26T19:46:43.001Z</time></trkpt><trkpt lat="45.45180956168475" lon="11.822512707929047"><ele>13.0</ele><time>2026-04-26T19:46:44.001Z</time></trkpt><trkpt lat="45.451746951692726" lon="11.822967211150443"><ele>13.0</ele><time>2026-04-26T19:46:45.001Z</time></trkpt><trkpt lat="45.451683625554445" lon="11.823422097840387"><ele>13.0</ele><time>2026-04-26T19:46:46.001Z</time></trkpt><trkpt lat="45.451620868751775" lon="11.823875764612135"><ele>14.5</ele><time>2026-04-26T19:46:47.001Z</time></trkpt><trkpt lat="45.45155989109861" lon="11.8243284636847"><ele>16.0</ele><time>2026-04-26T19:46:48.001Z</time></trkpt><trkpt lat="45.45149937341783" lon="11.824783377008865"><ele>16.5</ele><time>2026-04-26T19:46:49.001Z</time></trkpt><trkpt lat="45.45143746816939" lon="11.825238722069678"><ele>17.0</ele><time>2026-04-26T19:46:50.001Z</time></trkpt><trkpt lat="45.451375655763286" lon="11.825693816309354"><ele>17.0</ele><time>2026-04-26T19:46:51.001Z</time></trkpt><trkpt lat="45.45131327963736" lon="11.826148549857223"><ele>17.0</ele><time>2026-04-26T19:46:52.001Z</time></trkpt><trkpt lat="45.451251259055674" lon="11.826601730712659"><ele>16.5</ele><time>2026-04-26T19:46:53.001Z</time></trkpt><trkpt lat="45.45119060766077" lon="11.827049157300658"><ele>16.0</ele><time>2026-04-26T19:46:54.001Z</time></trkpt><trkpt lat="45.45113229556696" lon="11.827489999047332"><ele>16.0</ele><time>2026-04-26T19:46:55.001Z</time></trkpt><trkpt lat="45.451074177615865" lon="11.827906012425503"><ele>16.0</ele><time>2026-04-26T19:46:56.001Z</time></trkpt><trkpt lat="45.45101497086487" lon="11.828335864290736"><ele>16.5</ele><time>2026-04-26T19:46:57.001Z</time></trkpt><trkpt lat="45.45095536931512" lon="11.828774337984463"><ele>17.0</ele><time>2026-04-26T19:46:58.001Z</time></trkpt><trkpt lat="45.45089785228962" lon="11.82921950848257"><ele>17.5</ele><time>2026-04-26T19:46:59.001Z</time></trkpt><trkpt lat="45.45083791259953" lon="11.829657573064347"><ele>18.0</ele><time>2026-04-26T19:47:00.001Z</time></trkpt><trkpt lat="45.45077782290338" lon="11.830096175088556"><ele>18.5</ele><time>2026-04-26T19:47:01.001Z</time></trkpt><trkpt lat="45.45071772277887" lon="11.830536126395673"><ele>19.0</ele><time>2026-04-26T19:47:02.001Z</time></trkpt><trkpt lat="45.450654560362935" lon="11.830973905590321"><ele>19.0</ele><time>2026-04-26T19:47:03.001Z</time></trkpt><trkpt lat="45.450586330047486" lon="11.831412026820752"><ele>19.0</ele><time>2026-04-26T19:47:04.001Z</time></trkpt><trkpt lat="45.45051617831615" lon="11.831848651759566"><ele>17.5</ele><time>2026-04-26T19:47:05.001Z</time></trkpt><trkpt lat="45.4504484560492" lon="11.832284077989105"><ele>16.0</ele><time>2026-04-26T19:47:06.001Z</time></trkpt><trkpt lat="45.45038501144378" lon="11.832720589790513"><ele>15.5</ele><time>2026-04-26T19:47:07.001Z</time></trkpt><trkpt lat="45.45032383889303" lon="11.83316250243424"><ele>15.0</ele><time>2026-04-26T19:47:08.001Z</time></trkpt><trkpt lat="45.450264477475116" lon="11.833605664361288"><ele>15.5</ele><time>2026-04-26T19:47:09.001Z</time></trkpt><trkpt lat="45.450203213596765" lon="11.834048840201753"><ele>16.0</ele><time>2026-04-26T19:47:10.001Z</time></trkpt><trkpt lat="45.45014305080416" lon="11.83449298488735"><ele>16.0</ele><time>2026-04-26T19:47:11.001Z</time></trkpt><trkpt lat="45.450084672324955" lon="11.834934807869363"><ele>16.0</ele><time>2026-04-26T19:47:12.001Z</time></trkpt><trkpt lat="45.45002648088407" lon="11.835376565828266"><ele>15.0</ele><time>2026-04-26T19:47:13.001Z</time></trkpt><trkpt lat="45.449967978166505" lon="11.835819744791166"><ele>14.0</ele><time>2026-04-26T19:47:14.001Z</time></trkpt><trkpt lat="45.44990842849539" lon="11.83626184627948"><ele>14.0</ele><time>2026-04-26T19:47:15.001Z</time></trkpt><trkpt lat="45.449847909996635" lon="11.836702999718064"><ele>14.0</ele><time>2026-04-26T19:47:16.001Z</time></trkpt><trkpt lat="45.44978604253649" lon="11.837141122170417"><ele>14.5</ele><time>2026-04-26T19:47:17.001Z</time></trkpt><trkpt lat="45.44972206217284" lon="11.837578211909014"><ele>15.0</ele><time>2026-04-26T19:47:18.001Z</time></trkpt><trkpt lat="45.44965587255182" lon="11.838012394804865"><ele>14.0</ele><time>2026-04-26T19:47:19.001Z</time></trkpt><trkpt lat="45.44958867526722" lon="11.83844330359267"><ele>13.0</ele><time>2026-04-26T19:47:20.001Z</time></trkpt><trkpt lat="45.44952200520718" lon="11.838871566308509"><ele>13.0</ele><time>2026-04-26T19:47:21.001Z</time></trkpt><trkpt lat="45.449457551096884" lon="11.839299636093521"><ele>13.0</ele><time>2026-04-26T19:47:22.001Z</time></trkpt><trkpt lat="45.44939679698889" lon="11.83972453217788"><ele>13.5</ele><time>2026-04-26T19:47:23.001Z</time></trkpt><trkpt lat="45.4493367604652" lon="11.840155708549014"><ele>14.0</ele><time>2026-04-26T19:47:24.001Z</time></trkpt><trkpt lat="45.44927991013726" lon="11.840589808426257"><ele>13.5</ele><time>2026-04-26T19:47:25.001Z</time></trkpt><trkpt lat="45.44922192969142" lon="11.841025477014904"><ele>13.0</ele><time>2026-04-26T19:47:26.001Z</time></trkpt><trkpt lat="45.44916231514131" lon="11.841461843954944"><ele>13.5</ele><time>2026-04-26T19:47:27.001Z</time></trkpt><trkpt lat="45.44910167914216" lon="11.841900716295504"><ele>14.0</ele><time>2026-04-26T19:47:28.001Z</time></trkpt><trkpt lat="45.44904252396819" lon="11.842341182404963"><ele>14.0</ele><time>2026-04-26T19:47:29.001Z</time></trkpt><trkpt lat="45.4489830901515" lon="11.84278246707022"><ele>14.0</ele><time>2026-04-26T19:47:30.001Z</time></trkpt><trkpt lat="45.44892465973509" lon="11.843225222404405"><ele>14.5</ele><time>2026-04-26T19:47:31.001Z</time></trkpt><trkpt lat="45.44886544904404" lon="11.843669100861835"><ele>15.0</ele><time>2026-04-26T19:47:32.001Z</time></trkpt><trkpt lat="45.44880554280918" lon="11.844115644325614"><ele>16.5</ele><time>2026-04-26T19:47:33.001Z</time></trkpt><trkpt lat="45.44874640123008" lon="11.844561551252239"><ele>18.0</ele><time>2026-04-26T19:47:34.001Z</time></trkpt><trkpt lat="45.448686829503565" lon="11.845005607576644"><ele>16.5</ele><time>2026-04-26T19:47:35.001Z</time></trkpt><trkpt lat="45.448628697285876" lon="11.845447097960225"><ele>15.0</ele><time>2026-04-26T19:47:36.001Z</time></trkpt><trkpt lat="45.448575187292874" lon="11.845889496464794"><ele>14.5</ele><time>2026-04-26T19:47:37.001Z</time></trkpt><trkpt lat="45.44852303470855" lon="11.846329456902517"><ele>14.0</ele><time>2026-04-26T19:47:38.001Z</time></trkpt><trkpt lat="45.44846986242207" lon="11.846764437541164"><ele>14.0</ele><time>2026-04-26T19:47:39.001Z</time></trkpt><trkpt lat="45.44841365671423" lon="11.847197568483288"><ele>14.0</ele><time>2026-04-26T19:47:40.001Z</time></trkpt><trkpt lat="45.44835536072881" lon="11.847633665905258"><ele>14.0</ele><time>2026-04-26T19:47:41.001Z</time></trkpt><trkpt lat="45.4483026490153" lon="11.848070849948085"><ele>14.0</ele><time>2026-04-26T19:47:42.001Z</time></trkpt><trkpt lat="45.44825361380638" lon="11.848519855495546"><ele>14.5</ele><time>2026-04-26T19:47:43.001Z</time></trkpt><trkpt lat="45.44819626748321" lon="11.848968426148708"><ele>15.0</ele><time>2026-04-26T19:47:44.001Z</time></trkpt><trkpt lat="45.44813297443074" lon="11.849413241019342"><ele>15.5</ele><time>2026-04-26T19:47:45Z</time></trkpt><trkpt lat="45.448062419093965" lon="11.849857735357231"><ele>16.0</ele><time>2026-04-26T19:47:46Z</time></trkpt><trkpt lat="45.44798187680429" lon="11.850299859234475"><ele>15.0</ele><time>2026-04-26T19:47:47Z</time></trkpt><trkpt lat="45.447894647835646" lon="11.850739870261364"><ele>14.0</ele><time>2026-04-26T19:47:48Z</time></trkpt><trkpt lat="45.44780744076206" lon="11.851178362296901"><ele>13.5</ele><time>2026-04-26T19:47:49Z</time></trkpt><trkpt lat="45.4477235288997" lon="11.851618600857444"><ele>13.0</ele><time>2026-04-26T19:47:50Z</time></trkpt><trkpt lat="45.44763972862311" lon="11.852057771314136"><ele>13.0</ele><time>2026-04-26T19:47:51Z</time></trkpt><trkpt lat="45.44755707550234" lon="11.852495324248663"><ele>13.0</ele><time>2026-04-26T19:47:52Z</time></trkpt><trkpt lat="45.44747485762555" lon="11.852933510157994"><ele>13.0</ele><time>2026-04-26T19:47:53Z</time></trkpt><trkpt lat="45.44739348449376" lon="11.853372321558526"><ele>13.0</ele><time>2026-04-26T19:47:54Z</time></trkpt><trkpt lat="45.44730913855548" lon="11.853809077755384"><ele>13.0</ele><time>2026-04-26T19:47:55Z</time></trkpt><trkpt lat="45.44721898445019" lon="11.8542431344449"><ele>13.0</ele><time>2026-04-26T19:47:56Z</time></trkpt><trkpt lat="45.447128282052304" lon="11.854674697492234"><ele>13.0</ele><time>2026-04-26T19:47:57Z</time></trkpt><trkpt lat="45.44703987277638" lon="11.855107368410785"><ele>13.0</ele><time>2026-04-26T19:47:58Z</time></trkpt><trkpt lat="45.446956024180736" lon="11.855539323924557"><ele>12.0</ele><time>2026-04-26T19:47:59Z</time></trkpt><trkpt lat="45.44687551405544" lon="11.85596988722851"><ele>11.0</ele><time>2026-04-26T19:48:00Z</time></trkpt><trkpt lat="45.44679587048063" lon="11.856402665572187"><ele>11.5</ele><time>2026-04-26T19:48:01Z</time></trkpt><trkpt lat="45.44671540332905" lon="11.856836298036496"><ele>12.0</ele><time>2026-04-26T19:48:02Z</time></trkpt><trkpt lat="45.44663421427976" lon="11.85726879110606"><ele>12.5</ele><time>2026-04-26T19:48:03Z</time></trkpt><trkpt lat="45.446553250735604" lon="11.857699210338785"><ele>13.0</ele><time>2026-04-26T19:48:04Z</time></trkpt><trkpt lat="45.44647128006214" lon="11.858127632566655"><ele>12.0</ele><time>2026-04-26T19:48:05Z</time></trkpt><trkpt lat="45.446388783850054" lon="11.858553027382962"><ele>11.0</ele><time>2026-04-26T19:48:06Z</time></trkpt><trkpt lat="45.44630759790803" lon="11.858977654316"><ele>12.5</ele><time>2026-04-26T19:48:07Z</time></trkpt><trkpt lat="45.446228479118254" lon="11.859398657040531"><ele>14.0</ele><time>2026-04-26T19:48:08Z</time></trkpt><trkpt lat="45.44614908719225" lon="11.859817277933418"><ele>14.5</ele><time>2026-04-26T19:48:09Z</time></trkpt><trkpt lat="45.44606945022997" lon="11.860234632937733"><ele>15.0</ele><time>2026-04-26T19:48:10Z</time></trkpt><trkpt lat="45.445990056968974" lon="11.860651289266972"><ele>14.5</ele><time>2026-04-26T19:48:11Z</time></trkpt><trkpt lat="45.445911666535345" lon="11.86106951279601"><ele>14.0</ele><time>2026-04-26T19:48:12Z</time></trkpt><trkpt lat="45.44583172318382" lon="11.861489289690255"><ele>13.5</ele><time>2026-04-26T19:48:13.001Z</time></trkpt><trkpt lat="45.445750184172" lon="11.861909844929253"><ele>13.0</ele><time>2026-04-26T19:48:14.001Z</time></trkpt><trkpt lat="45.44566733089189" lon="11.862330887272975"><ele>14.0</ele><time>2026-04-26T19:48:15.001Z</time></trkpt><trkpt lat="45.44558106672973" lon="11.862751108794468"><ele>15.0</ele><time>2026-04-26T19:48:16.001Z</time></trkpt><trkpt lat="45.4454903699632" lon="11.863167547370951"><ele>15.5</ele><time>2026-04-26T19:48:17.001Z</time></trkpt><trkpt lat="45.44540464989375" lon="11.863583212588992"><ele>16.0</ele><time>2026-04-26T19:48:18.001Z</time></trkpt><trkpt lat="45.445322765821075" lon="11.863999619334555"><ele>15.5</ele><time>2026-04-26T19:48:19.001Z</time></trkpt><trkpt lat="45.445242579991" lon="11.864413807978643"><ele>15.0</ele><time>2026-04-26T19:48:20.001Z</time></trkpt><trkpt lat="45.445164242948096" lon="11.864830663698049"><ele>14.5</ele><time>2026-04-26T19:48:21.001Z</time></trkpt><trkpt lat="45.44508676489248" lon="11.865248567288498"><ele>14.0</ele><time>2026-04-26T19:48:22.001Z</time></trkpt><trkpt lat="45.445009085617485" lon="11.865666622370362"><ele>13.0</ele><time>2026-04-26T19:48:23.001Z</time></trkpt><trkpt lat="45.44492990258739" lon="11.86608511357901"><ele>12.0</ele><time>2026-04-26T19:48:24.001Z</time></trkpt><trkpt lat="45.444848997597205" lon="11.866502244814333"><ele>12.5</ele><time>2026-04-26T19:48:25.001Z</time></trkpt><trkpt lat="45.444767302872116" lon="11.866917362919681"><ele>13.0</ele><time>2026-04-26T19:48:26.001Z</time></trkpt><trkpt lat="45.44468624245718" lon="11.867333341999212"><ele>12.5</ele><time>2026-04-26T19:48:27.001Z</time></trkpt><trkpt lat="45.44460546868745" lon="11.867748212585674"><ele>12.0</ele><time>2026-04-26T19:48:28.001Z</time></trkpt><trkpt lat="45.444526250106286" lon="11.868166488234468"><ele>12.0</ele><time>2026-04-26T19:48:29.001Z</time></trkpt><trkpt lat="45.44444852517312" lon="11.868584182262943"><ele>12.0</ele><time>2026-04-26T19:48:30.001Z</time></trkpt><trkpt lat="45.44437266537817" lon="11.869001979807756"><ele>11.5</ele><time>2026-04-26T19:48:31.001Z</time></trkpt><trkpt lat="45.44429635650047" lon="11.869419410110671"><ele>11.0</ele><time>2026-04-26T19:48:32.001Z</time></trkpt><trkpt lat="45.44421764294744" lon="11.869836825414216"><ele>13.0</ele><time>2026-04-26T19:48:33.001Z</time></trkpt><trkpt lat="45.444135837524094" lon="11.870253729077152"><ele>15.0</ele><time>2026-04-26T19:48:34.001Z</time></trkpt><trkpt lat="45.44405430778999" lon="11.870671901429946"><ele>15.5</ele><time>2026-04-26T19:48:35.001Z</time></trkpt><trkpt lat="45.443974783715426" lon="11.87109015086951"><ele>16.0</ele><time>2026-04-26T19:48:36.001Z</time></trkpt><trkpt lat="45.44389830972713" lon="11.871507582496378"><ele>16.0</ele><time>2026-04-26T19:48:37.001Z</time></trkpt><trkpt lat="45.443822368082394" lon="11.871923898243116"><ele>16.0</ele><time>2026-04-26T19:48:38.001Z</time></trkpt><trkpt lat="45.443746087588806" lon="11.872339575133996"><ele>14.5</ele><time>2026-04-26T19:48:39.001Z</time></trkpt><trkpt lat="45.44366920623534" lon="11.87275464420562"><ele>13.0</ele><time>2026-04-26T19:48:40.001Z</time></trkpt><trkpt lat="45.443592525898175" lon="11.873169538666422"><ele>13.0</ele><time>2026-04-26T19:48:41.001Z</time></trkpt><trkpt lat="45.443515423992594" lon="11.873582479446464"><ele>13.0</ele><time>2026-04-26T19:48:42.001Z</time></trkpt><trkpt lat="45.44343767456505" lon="11.873993901315295"><ele>12.5</ele><time>2026-04-26T19:48:43.001Z</time></trkpt><trkpt lat="45.44336036971341" lon="11.874405249731453"><ele>12.0</ele><time>2026-04-26T19:48:44.001Z</time></trkpt><trkpt lat="45.44328197991655" lon="11.874816833925362"><ele>12.5</ele><time>2026-04-26T19:48:45.001Z</time></trkpt><trkpt lat="45.44320276057435" lon="11.875230256694646"><ele>13.0</ele><time>2026-04-26T19:48:46.001Z</time></trkpt><trkpt lat="45.443121684084936" lon="11.875645210974934"><ele>12.5</ele><time>2026-04-26T19:48:47.001Z</time></trkpt><trkpt lat="45.44304137907219" lon="11.876058833981777"><ele>12.0</ele><time>2026-04-26T19:48:48.001Z</time></trkpt><trkpt lat="45.44296056514162" lon="11.876475933768948"><ele>12.0</ele><time>2026-04-26T19:48:49.001Z</time></trkpt><trkpt lat="45.442881052823935" lon="11.87689421151601"><ele>12.0</ele><time>2026-04-26T19:48:50.001Z</time></trkpt><trkpt lat="45.442801815538026" lon="11.877313538333462"><ele>11.5</ele><time>2026-04-26T19:48:51.001Z</time></trkpt><trkpt lat="45.442722476581935" lon="11.877732455743573"><ele>11.0</ele><time>2026-04-26T19:48:52.001Z</time></trkpt><trkpt lat="45.44264423435158" lon="11.878152695767588"><ele>11.5</ele><time>2026-04-26T19:48:53.001Z</time></trkpt><trkpt lat="45.44256727662938" lon="11.878573918159494"><ele>12.0</ele><time>2026-04-26T19:48:54.001Z</time></trkpt><trkpt lat="45.442490117884255" lon="11.878995602823194"><ele>11.5</ele><time>2026-04-26T19:48:55.001Z</time></trkpt><trkpt lat="45.442411147448965" lon="11.879416668636917"><ele>11.0</ele><time>2026-04-26T19:48:56.001Z</time></trkpt><trkpt lat="45.442330540474195" lon="11.879837645149998"><ele>11.0</ele><time>2026-04-26T19:48:57.001Z</time></trkpt><trkpt lat="45.44224806828094" lon="11.880258994233403"><ele>11.0</ele><time>2026-04-26T19:48:58.001Z</time></trkpt><trkpt lat="45.44216627063938" lon="11.880680545556771"><ele>11.5</ele><time>2026-04-26T19:48:59.001Z</time></trkpt><trkpt lat="45.44208668141797" lon="11.881102079775788"><ele>12.0</ele><time>2026-04-26T19:49:00.001Z</time></trkpt><trkpt lat="45.44200916751743" lon="11.881522555300606"><ele>12.5</ele><time>2026-04-26T19:49:01.001Z</time></trkpt><trkpt lat="45.44193195540254" lon="11.881942244521596"><ele>13.0</ele><time>2026-04-26T19:49:02.001Z</time></trkpt><trkpt lat="45.44185590096902" lon="11.882355601725203"><ele>13.0</ele><time>2026-04-26T19:49:03.001Z</time></trkpt><trkpt lat="45.441782540989145" lon="11.882741630701311"><ele>13.0</ele><time>2026-04-26T19:49:04.001Z</time></trkpt><trkpt lat="45.4417095856339" lon="11.883121389267215"><ele>14.5</ele><time>2026-04-26T19:49:05.001Z</time></trkpt><trkpt lat="45.44163534159336" lon="11.883509124883163"><ele>16.0</ele><time>2026-04-26T19:49:06.001Z</time></trkpt><trkpt lat="45.441560776808664" lon="11.883896209469702"><ele>12.5</ele><time>2026-04-26T19:49:07.001Z</time></trkpt><trkpt lat="45.441487943664136" lon="11.884277604281971"><ele>9.0</ele><time>2026-04-26T19:49:08.001Z</time></trkpt><trkpt lat="45.44141983630506" lon="11.884642787239285"><ele>9.0</ele><time>2026-04-26T19:49:09.001Z</time></trkpt><trkpt lat="45.44136520162547" lon="11.88500128016576"><ele>9.0</ele><time>2026-04-26T19:49:10.001Z</time></trkpt><trkpt lat="45.44131861666686" lon="11.885385418620652"><ele>10.5</ele><time>2026-04-26T19:49:11.001Z</time></trkpt><trkpt lat="45.44126383976895" lon="11.885788867748463"><ele>12.0</ele><time>2026-04-26T19:49:12.001Z</time></trkpt><trkpt lat="45.44119389492884" lon="11.886202788060825"><ele>12.0</ele><time>2026-04-26T19:49:13.001Z</time></trkpt><trkpt lat="45.44111278646719" lon="11.886622443492449"><ele>12.0</ele><time>2026-04-26T19:49:14.001Z</time></trkpt><trkpt lat="45.441026134602026" lon="11.887046889419388"><ele>12.0</ele><time>2026-04-26T19:49:15.001Z</time></trkpt><trkpt lat="45.440930684142955" lon="11.887474276871252"><ele>12.0</ele><time>2026-04-26T19:49:16.001Z</time></trkpt><trkpt lat="45.440824380473835" lon="11.887898102628126"><ele>12.0</ele><time>2026-04-26T19:49:17.001Z</time></trkpt><trkpt lat="45.44070869848429" lon="11.888316399402191"><ele>12.0</ele><time>2026-04-26T19:49:18.001Z</time></trkpt><trkpt lat="45.44059145794306" lon="11.888732800588423"><ele>12.0</ele><time>2026-04-26T19:49:19.001Z</time></trkpt><trkpt lat="45.44046812181046" lon="11.8891473652903"><ele>12.0</ele><time>2026-04-26T19:49:20.001Z</time></trkpt><trkpt lat="45.44034141195506" lon="11.889556268776246"><ele>12.5</ele><time>2026-04-26T19:49:21.001Z</time></trkpt><trkpt lat="45.44021032905271" lon="11.889959836855093"><ele>13.0</ele><time>2026-04-26T19:49:22.001Z</time></trkpt><trkpt lat="45.4400777413917" lon="11.890358559278047"><ele>13.0</ele><time>2026-04-26T19:49:23.001Z</time></trkpt><trkpt lat="45.43994495118591" lon="11.890754902596392"><ele>13.0</ele><time>2026-04-26T19:49:24.001Z</time></trkpt><trkpt lat="45.43981242675224" lon="11.891148765363473"><ele>12.5</ele><time>2026-04-26T19:49:25.001Z</time></trkpt><trkpt lat="45.43967750816863" lon="11.891542789601711"><ele>12.0</ele><time>2026-04-26T19:49:26.001Z</time></trkpt><trkpt lat="45.43954218460711" lon="11.891938844662237"><ele>13.0</ele><time>2026-04-26T19:49:27.001Z</time></trkpt><trkpt lat="45.439406672331735" lon="11.892336772818943"><ele>14.0</ele><time>2026-04-26T19:49:28.001Z</time></trkpt><trkpt lat="45.4392710307801" lon="11.89273352931417"><ele>14.5</ele><time>2026-04-26T19:49:29.001Z</time></trkpt><trkpt lat="45.4391351429967" lon="11.893127830316248"><ele>15.0</ele><time>2026-04-26T19:49:30.001Z</time></trkpt><trkpt lat="45.43899944393836" lon="11.893524341998727"><ele>15.0</ele><time>2026-04-26T19:49:31.001Z</time></trkpt><trkpt lat="45.43886250780448" lon="11.893923428158901"><ele>15.0</ele><time>2026-04-26T19:49:32.001Z</time></trkpt><trkpt lat="45.43872408511049" lon="11.894320677290533"><ele>14.5</ele><time>2026-04-26T19:49:33.001Z</time></trkpt><trkpt lat="45.438586884252665" lon="11.8947193093501"><ele>14.0</ele><time>2026-04-26T19:49:34.001Z</time></trkpt><trkpt lat="45.4384505190442" lon="11.895119424910172"><ele>14.0</ele><time>2026-04-26T19:49:35.001Z</time></trkpt><trkpt lat="45.43831378413558" lon="11.895520930755401"><ele>14.0</ele><time>2026-04-26T19:49:36.001Z</time></trkpt><trkpt lat="45.438175884631335" lon="11.895921923052155"><ele>13.5</ele><time>2026-04-26T19:49:37.001Z</time></trkpt><trkpt lat="45.43803874073265" lon="11.896322607153607"><ele>13.0</ele><time>2026-04-26T19:49:38.001Z</time></trkpt><trkpt lat="45.437903098088064" lon="11.89672522502491"><ele>12.5</ele><time>2026-04-26T19:49:39.001Z</time></trkpt><trkpt lat="45.43776635894399" lon="11.897126013155383"><ele>12.0</ele><time>2026-04-26T19:49:40.001Z</time></trkpt><trkpt lat="45.43762652177009" lon="11.897528324774703"><ele>12.5</ele><time>2026-04-26T19:49:41.001Z</time></trkpt><trkpt lat="45.43748419870298" lon="11.897933674246133"><ele>13.0</ele><time>2026-04-26T19:49:42.001Z</time></trkpt><trkpt lat="45.43734300114535" lon="11.898340812164502"><ele>12.0</ele><time>2026-04-26T19:49:43.001Z</time></trkpt><trkpt lat="45.43720330185521" lon="11.898749024798883"><ele>11.0</ele><time>2026-04-26T19:49:44.001Z</time></trkpt><trkpt lat="45.43706820603873" lon="11.899158617194141"><ele>10.0</ele><time>2026-04-26T19:49:45.001Z</time></trkpt><trkpt lat="45.43693278743287" lon="11.899565292980332"><ele>9.0</ele><time>2026-04-26T19:49:46.001Z</time></trkpt><trkpt lat="45.4367931403203" lon="11.899968401281775"><ele>10.0</ele><time>2026-04-26T19:49:47.001Z</time></trkpt><trkpt lat="45.436657849477555" lon="11.9003699702857"><ele>11.0</ele><time>2026-04-26T19:49:48.001Z</time></trkpt><trkpt lat="45.436529454834805" lon="11.90076845044066"><ele>11.0</ele><time>2026-04-26T19:49:49.001Z</time></trkpt><trkpt lat="45.43639239950472" lon="11.901163935729274"><ele>11.0</ele><time>2026-04-26T19:49:50.001Z</time></trkpt><trkpt lat="45.436253132310824" lon="11.901558030860448"><ele>12.5</ele><time>2026-04-26T19:49:51Z</time></trkpt><trkpt lat="45.436114745116264" lon="11.901952742457018"><ele>14.0</ele><time>2026-04-26T19:49:52Z</time></trkpt><trkpt lat="45.435978050051254" lon="11.902349266359856"><ele>13.0</ele><time>2026-04-26T19:49:53Z</time></trkpt><trkpt lat="45.43583677576783" lon="11.902743060204292"><ele>12.0</ele><time>2026-04-26T19:49:54Z</time></trkpt><trkpt lat="45.43568851471988" lon="11.903133234940459"><ele>11.0</ele><time>2026-04-26T19:49:55Z</time></trkpt><trkpt lat="45.43553324950165" lon="11.903520606325223"><ele>10.0</ele><time>2026-04-26T19:49:56Z</time></trkpt><trkpt lat="45.435377416744984" lon="11.903906219817406"><ele>9.0</ele><time>2026-04-26T19:49:57Z</time></trkpt><trkpt lat="45.43522471191231" lon="11.904288244244787"><ele>8.0</ele><time>2026-04-26T19:49:58Z</time></trkpt><trkpt lat="45.43507872720959" lon="11.904653364102742"><ele>8.0</ele><time>2026-04-26T19:49:59Z</time></trkpt><trkpt lat="45.434935177080206" lon="11.905016318677438"><ele>8.0</ele><time>2026-04-26T19:50:00Z</time></trkpt><trkpt lat="45.43478760704115" lon="11.905388470308315"><ele>9.0</ele><time>2026-04-26T19:50:01Z</time></trkpt><trkpt lat="45.43463717384869" lon="11.905762365525652"><ele>10.0</ele><time>2026-04-26T19:50:02Z</time></trkpt><trkpt lat="45.43448745641252" lon="11.906136606726664"><ele>10.0</ele><time>2026-04-26T19:50:03Z</time></trkpt><trkpt lat="45.434336067864" lon="11.906502903482128"><ele>10.0</ele><time>2026-04-26T19:50:04Z</time></trkpt><trkpt lat="45.43418837972793" lon="11.906863460817966"><ele>11.0</ele><time>2026-04-26T19:50:05Z</time></trkpt><trkpt lat="45.43404595827495" lon="11.907222219656205"><ele>12.0</ele><time>2026-04-26T19:50:06Z</time></trkpt><trkpt lat="45.43390662092018" lon="11.907577377704367"><ele>10.5</ele><time>2026-04-26T19:50:07Z</time></trkpt><trkpt lat="45.43376470629797" lon="11.907931001624656"><ele>9.0</ele><time>2026-04-26T19:50:08Z</time></trkpt><trkpt lat="45.43362140187335" lon="11.908285383307659"><ele>8.5</ele><time>2026-04-26T19:50:09Z</time></trkpt><trkpt lat="45.43347814917097" lon="11.908644401564612"><ele>8.0</ele><time>2026-04-26T19:50:10Z</time></trkpt><trkpt lat="45.43333648195488" lon="11.909009029408052"><ele>8.5</ele><time>2026-04-26T19:50:11Z</time></trkpt><trkpt lat="45.4331933165548" lon="11.909375745847457"><ele>9.0</ele><time>2026-04-26T19:50:12Z</time></trkpt><trkpt lat="45.433048562422016" lon="11.909741321214522"><ele>8.0</ele><time>2026-04-26T19:50:13Z</time></trkpt><trkpt lat="45.43290502423809" lon="11.91010253007854"><ele>7.0</ele><time>2026-04-26T19:50:14Z</time></trkpt><trkpt lat="45.432761124003456" lon="11.910461076202862"><ele>7.0</ele><time>2026-04-26T19:50:15Z</time></trkpt><trkpt lat="45.43261837832543" lon="11.91081533415829"><ele>7.0</ele><time>2026-04-26T19:50:16Z</time></trkpt><trkpt lat="45.43247936477558" lon="11.911169520688007"><ele>7.5</ele><time>2026-04-26T19:50:17Z</time></trkpt><trkpt lat="45.43233767356984" lon="11.911527100848506"><ele>8.0</ele><time>2026-04-26T19:50:18Z</time></trkpt><trkpt lat="45.432193011398645" lon="11.911887335904199"><ele>8.5</ele><time>2026-04-26T19:50:19Z</time></trkpt><trkpt lat="45.43204653898625" lon="11.912248066443084"><ele>9.0</ele><time>2026-04-26T19:50:20Z</time></trkpt><trkpt lat="45.43190154458554" lon="11.912611957192105"><ele>9.0</ele><time>2026-04-26T19:50:21Z</time></trkpt><trkpt lat="45.43175788239037" lon="11.912976300414849"><ele>9.0</ele><time>2026-04-26T19:50:22Z</time></trkpt><trkpt lat="45.43161303759537" lon="11.913342252142828"><ele>9.5</ele><time>2026-04-26T19:50:23Z</time></trkpt><trkpt lat="45.43146839941875" lon="11.913709142421009"><ele>10.0</ele><time>2026-04-26T19:50:24Z</time></trkpt><trkpt lat="45.43132312496774" lon="11.91407700656931"><ele>10.5</ele><time>2026-04-26T19:50:25Z</time></trkpt><trkpt lat="45.43118527184803" lon="11.91444953815689"><ele>11.0</ele><time>2026-04-26T19:50:26Z</time></trkpt><trkpt lat="45.43104982553181" lon="11.914823049978832"><ele>10.5</ele><time>2026-04-26T19:50:27Z</time></trkpt><trkpt lat="45.43090577185789" lon="11.915210722069315"><ele>10.0</ele><time>2026-04-26T19:50:28.001Z</time></trkpt><trkpt lat="45.43075640516165" lon="11.91560097205064"><ele>10.0</ele><time>2026-04-26T19:50:29.001Z</time></trkpt><trkpt lat="45.43060307505601" lon="11.915990224442545"><ele>10.0</ele><time>2026-04-26T19:50:30.001Z</time></trkpt><trkpt lat="45.430449606854424" lon="11.916383142887986"><ele>9.5</ele><time>2026-04-26T19:50:31.001Z</time></trkpt><trkpt lat="45.43029186205395" lon="11.916775609460359"><ele>9.0</ele><time>2026-04-26T19:50:32.001Z</time></trkpt><trkpt lat="45.43013436249479" lon="11.917166186694773"><ele>9.0</ele><time>2026-04-26T19:50:33.001Z</time></trkpt><trkpt lat="45.42997395797324" lon="11.917551496853829"><ele>9.0</ele><time>2026-04-26T19:50:34.001Z</time></trkpt><trkpt lat="45.42980479619361" lon="11.917931268777789"><ele>8.5</ele><time>2026-04-26T19:50:35.001Z</time></trkpt><trkpt lat="45.429627211379945" lon="11.918309134038834"><ele>8.0</ele><time>2026-04-26T19:50:36.001Z</time></trkpt><trkpt lat="45.42944728135395" lon="11.918684246919355"><ele>8.0</ele><time>2026-04-26T19:50:37.001Z</time></trkpt><trkpt lat="45.429259481567875" lon="11.91905374140592"><ele>8.0</ele><time>2026-04-26T19:50:38.001Z</time></trkpt><trkpt lat="45.4290661492046" lon="11.919417424989248"><ele>8.5</ele><time>2026-04-26T19:50:39.001Z</time></trkpt><trkpt lat="45.42886551315107" lon="11.919772113309431"><ele>9.0</ele><time>2026-04-26T19:50:40.001Z</time></trkpt><trkpt lat="45.42866393294797" lon="11.920124690399705"><ele>9.5</ele><time>2026-04-26T19:50:41.001Z</time></trkpt><trkpt lat="45.42846533837083" lon="11.920479514237426"><ele>10.0</ele><time>2026-04-26T19:50:42.001Z</time></trkpt><trkpt lat="45.428270975538425" lon="11.920838469868308"><ele>10.0</ele><time>2026-04-26T19:50:43.001Z</time></trkpt><trkpt lat="45.428075751263286" lon="11.92120141378286"><ele>10.0</ele><time>2026-04-26T19:50:44.001Z</time></trkpt><trkpt lat="45.42788097970147" lon="11.921564307933542"><ele>9.5</ele><time>2026-04-26T19:50:45.001Z</time></trkpt><trkpt lat="45.42768739709115" lon="11.921922272500955"><ele>9.0</ele><time>2026-04-26T19:50:46.001Z</time></trkpt><trkpt lat="45.42749837286817" lon="11.9222796789067"><ele>9.0</ele><time>2026-04-26T19:50:47.001Z</time></trkpt><trkpt lat="45.4273092746877" lon="11.92263734233583"><ele>9.0</ele><time>2026-04-26T19:50:48.001Z</time></trkpt><trkpt lat="45.42712096202154" lon="11.922993768194981"><ele>9.0</ele><time>2026-04-26T19:50:49.001Z</time></trkpt><trkpt lat="45.42693250570963" lon="11.923347781221246"><ele>9.0</ele><time>2026-04-26T19:50:50.001Z</time></trkpt><trkpt lat="45.426744562346066" lon="11.923700345568172"><ele>9.0</ele><time>2026-04-26T19:50:51.001Z</time></trkpt><trkpt lat="45.42655887985041" lon="11.92405208913135"><ele>9.0</ele><time>2026-04-26T19:50:52.001Z</time></trkpt><trkpt lat="45.42637090202689" lon="11.92440552025787"><ele>10.5</ele><time>2026-04-26T19:50:53.001Z</time></trkpt><trkpt lat="45.426182644410865" lon="11.924758506526146"><ele>12.0</ele><time>2026-04-26T19:50:54.001Z</time></trkpt><trkpt lat="45.42599667687084" lon="11.92511055765428"><ele>12.0</ele><time>2026-04-26T19:50:55.001Z</time></trkpt><trkpt lat="45.425807531576666" lon="11.925468656404915"><ele>12.0</ele><time>2026-04-26T19:50:56.001Z</time></trkpt><trkpt lat="45.42561943326169" lon="11.925826035307944"><ele>12.0</ele><time>2026-04-26T19:50:57.001Z</time></trkpt><trkpt lat="45.42543083203846" lon="11.926185196517219"><ele>12.0</ele><time>2026-04-26T19:50:58.001Z</time></trkpt><trkpt lat="45.42524149055457" lon="11.926544620022172"><ele>12.0</ele><time>2026-04-26T19:50:59.001Z</time></trkpt><trkpt lat="45.42505281885607" lon="11.92690464864986"><ele>12.0</ele><time>2026-04-26T19:51:00.001Z</time></trkpt><trkpt lat="45.42486328729251" lon="11.927263046710243"><ele>11.5</ele><time>2026-04-26T19:51:01.001Z</time></trkpt><trkpt lat="45.42467177421108" lon="11.927621219791504"><ele>11.0</ele><time>2026-04-26T19:51:02.001Z</time></trkpt><trkpt lat="45.42448042687791" lon="11.927978101494773"><ele>11.0</ele><time>2026-04-26T19:51:03.001Z</time></trkpt><trkpt lat="45.424289274916404" lon="11.928337146165385"><ele>11.0</ele><time>2026-04-26T19:51:04.001Z</time></trkpt><trkpt lat="45.42409659417455" lon="11.928693010399812"><ele>10.5</ele><time>2026-04-26T19:51:05.001Z</time></trkpt><trkpt lat="45.423905677279606" lon="11.929049595108514"><ele>10.0</ele><time>2026-04-26T19:51:06.001Z</time></trkpt><trkpt lat="45.42371624668505" lon="11.929406786695889"><ele>10.0</ele><time>2026-04-26T19:51:07.001Z</time></trkpt><trkpt lat="45.42352390280155" lon="11.929766613774328"><ele>10.0</ele><time>2026-04-26T19:51:08.001Z</time></trkpt><trkpt lat="45.42332908678092" lon="11.9301235457016"><ele>10.0</ele><time>2026-04-26T19:51:09.001Z</time></trkpt><trkpt lat="45.42312795727037" lon="11.93047235390092"><ele>10.0</ele><time>2026-04-26T19:51:10.001Z</time></trkpt><trkpt lat="45.4229248249243" lon="11.930820421863796"><ele>10.0</ele><time>2026-04-26T19:51:11.001Z</time></trkpt><trkpt lat="45.422726701748346" lon="11.931172799013293"><ele>10.0</ele><time>2026-04-26T19:51:12.001Z</time></trkpt><trkpt lat="45.4225360355293" lon="11.931535728842661"><ele>9.0</ele><time>2026-04-26T19:51:13.001Z</time></trkpt><trkpt lat="45.42234672186871" lon="11.931896586375977"><ele>8.0</ele><time>2026-04-26T19:51:14.001Z</time></trkpt><trkpt lat="45.422152343806204" lon="11.932257060558698"><ele>8.0</ele><time>2026-04-26T19:51:15.001Z</time></trkpt><trkpt lat="45.42195961915982" lon="11.932615615714832"><ele>8.0</ele><time>2026-04-26T19:51:16.001Z</time></trkpt><trkpt lat="45.42176787433893" lon="11.932972387473955"><ele>8.0</ele><time>2026-04-26T19:51:17.001Z</time></trkpt><trkpt lat="45.42157663682514" lon="11.93332841671522"><ele>8.0</ele><time>2026-04-26T19:51:18.001Z</time></trkpt><trkpt lat="45.421385668004795" lon="11.933684758920323"><ele>9.5</ele><time>2026-04-26T19:51:19.001Z</time></trkpt><trkpt lat="45.42119307599732" lon="11.934038575095597"><ele>11.0</ele><time>2026-04-26T19:51:20.001Z</time></trkpt><trkpt lat="45.420997924676946" lon="11.9343892393706"><ele>11.5</ele><time>2026-04-26T19:51:21.001Z</time></trkpt><trkpt lat="45.42080101147513" lon="11.93473470450155"><ele>12.0</ele><time>2026-04-26T19:51:22.001Z</time></trkpt><trkpt lat="45.42060639020435" lon="11.935081375074228"><ele>11.0</ele><time>2026-04-26T19:51:23.001Z</time></trkpt><trkpt lat="45.42041873252606" lon="11.93543185488332"><ele>10.0</ele><time>2026-04-26T19:51:24.001Z</time></trkpt><trkpt lat="45.42024548789466" lon="11.935790980582958"><ele>8.5</ele><time>2026-04-26T19:51:25.001Z</time></trkpt><trkpt lat="45.420082916063336" lon="11.936161828469945"><ele>7.0</ele><time>2026-04-26T19:51:26.001Z</time></trkpt><trkpt lat="45.41993114619788" lon="11.93654355750061"><ele>7.0</ele><time>2026-04-26T19:51:27.001Z</time></trkpt><trkpt lat="45.419793976010716" lon="11.93693046041061"><ele>7.0</ele><time>2026-04-26T19:51:28.001Z</time></trkpt><trkpt lat="45.41966600949871" lon="11.937324615534235"><ele>8.5</ele><time>2026-04-26T19:51:29.001Z</time></trkpt><trkpt lat="45.4195483398345" lon="11.937726461493659"><ele>10.0</ele><time>2026-04-26T19:51:30.001Z</time></trkpt><trkpt lat="45.41944432612217" lon="11.938137554638837"><ele>9.0</ele><time>2026-04-26T19:51:31.001Z</time></trkpt><trkpt lat="45.419351312482945" lon="11.938554261918398"><ele>8.0</ele><time>2026-04-26T19:51:32.001Z</time></trkpt><trkpt lat="45.41927264794298" lon="11.93897667022553"><ele>7.5</ele><time>2026-04-26T19:51:33.001Z</time></trkpt><trkpt lat="45.41920192201842" lon="11.939401786048597"><ele>7.0</ele><time>2026-04-26T19:51:34.001Z</time></trkpt><trkpt lat="45.41914846802822" lon="11.93982910916175"><ele>6.5</ele><time>2026-04-26T19:51:35.001Z</time></trkpt><trkpt lat="45.419106128715406" lon="11.940263051372725"><ele>6.0</ele><time>2026-04-26T19:51:36.001Z</time></trkpt><trkpt lat="45.41907739424201" lon="11.940699328565037"><ele>6.5</ele><time>2026-04-26T19:51:37.001Z</time></trkpt><trkpt lat="45.419060795222336" lon="11.941137852381939"><ele>7.0</ele><time>2026-04-26T19:51:38.001Z</time></trkpt><trkpt lat="45.41905972817915" lon="11.941577692688458"><ele>7.5</ele><time>2026-04-26T19:51:39.001Z</time></trkpt><trkpt lat="45.4190734148113" lon="11.942017747856095"><ele>8.0</ele><time>2026-04-26T19:51:40.001Z</time></trkpt><trkpt lat="45.419100790576785" lon="11.942456907965685"><ele>7.5</ele><time>2026-04-26T19:51:41.001Z</time></trkpt><trkpt lat="45.41914664254593" lon="11.942890503663897"><ele>7.0</ele><time>2026-04-26T19:51:42.001Z</time></trkpt><trkpt lat="45.41920939021332" lon="11.943320290965236"><ele>8.0</ele><time>2026-04-26T19:51:43.001Z</time></trkpt><trkpt lat="45.41928637010385" lon="11.943749583987763"><ele>9.0</ele><time>2026-04-26T19:51:44.001Z</time></trkpt><trkpt lat="45.4193692766772" lon="11.944180970746235"><ele>9.5</ele><time>2026-04-26T19:51:45.001Z</time></trkpt><trkpt lat="45.41945406547616" lon="11.944609375959159"><ele>10.0</ele><time>2026-04-26T19:51:46.001Z</time></trkpt><trkpt lat="45.419546914069386" lon="11.945035157464666"><ele>10.0</ele><time>2026-04-26T19:51:47.001Z</time></trkpt><trkpt lat="45.41964063666253" lon="11.945461012234842"><ele>10.0</ele><time>2026-04-26T19:51:48.001Z</time></trkpt><trkpt lat="45.41972748430665" lon="11.94588843317726"><ele>10.0</ele><time>2026-04-26T19:51:49.001Z</time></trkpt><trkpt lat="45.41981397683899" lon="11.946315460205941"><ele>10.0</ele><time>2026-04-26T19:51:50.001Z</time></trkpt><trkpt lat="45.4199004480443" lon="11.946741499222597"><ele>10.5</ele><time>2026-04-26T19:51:51.001Z</time></trkpt><trkpt lat="45.41998929738316" lon="11.947165805018228"><ele>11.0</ele><time>2026-04-26T19:51:52.001Z</time></trkpt><trkpt lat="45.42007714830978" lon="11.947588518895417"><ele>11.5</ele><time>2026-04-26T19:51:53.001Z</time></trkpt><trkpt lat="45.4201642002297" lon="11.948007481928986"><ele>12.0</ele><time>2026-04-26T19:51:54.001Z</time></trkpt><trkpt lat="45.420249560481544" lon="11.948426502184232"><ele>12.0</ele><time>2026-04-26T19:51:55.001Z</time></trkpt><trkpt lat="45.420336980942096" lon="11.948847549121107"><ele>12.0</ele><time>2026-04-26T19:51:56.001Z</time></trkpt><trkpt lat="45.42042379856708" lon="11.949267388309089"><ele>12.0</ele><time>2026-04-26T19:51:57Z</time></trkpt><trkpt lat="45.42051153916721" lon="11.949689542133463"><ele>12.0</ele><time>2026-04-26T19:51:58Z</time></trkpt><trkpt lat="45.42059896399993" lon="11.9501112282737"><ele>12.0</ele><time>2026-04-26T19:51:59Z</time></trkpt><trkpt lat="45.42068928153562" lon="11.950533761169025"><ele>12.0</ele><time>2026-04-26T19:52:00Z</time></trkpt><trkpt lat="45.420779009280494" lon="11.95095808903722"><ele>12.0</ele><time>2026-04-26T19:52:01Z</time></trkpt><trkpt lat="45.420869342844384" lon="11.95138353572837"><ele>12.0</ele><time>2026-04-26T19:52:02Z</time></trkpt><trkpt lat="45.42095825904508" lon="11.951807448404901"><ele>12.0</ele><time>2026-04-26T19:52:03Z</time></trkpt><trkpt lat="45.4210427826802" lon="11.952215592181014"><ele>12.0</ele><time>2026-04-26T19:52:04Z</time></trkpt><trkpt lat="45.42112823906656" lon="11.952626427996504"><ele>12.0</ele><time>2026-04-26T19:52:05Z</time></trkpt><trkpt lat="45.421214458052646" lon="11.953046805275015"><ele>12.0</ele><time>2026-04-26T19:52:06Z</time></trkpt><trkpt lat="45.42130087179677" lon="11.95346495207761"><ele>11.5</ele><time>2026-04-26T19:52:07Z</time></trkpt><trkpt lat="45.42138507792716" lon="11.953864622436924"><ele>11.0</ele><time>2026-04-26T19:52:08Z</time></trkpt><trkpt lat="45.42146532872443" lon="11.954242434203778"><ele>11.0</ele><time>2026-04-26T19:52:09Z</time></trkpt><trkpt lat="45.42154154413719" lon="11.954605855619267"><ele>11.0</ele><time>2026-04-26T19:52:10Z</time></trkpt><trkpt lat="45.42162385104561" lon="11.954982972583327"><ele>11.0</ele><time>2026-04-26T19:52:11Z</time></trkpt><trkpt lat="45.42171587193317" lon="11.955366324019359"><ele>11.0</ele><time>2026-04-26T19:52:12Z</time></trkpt><trkpt lat="45.4218114152969" lon="11.955766614044173"><ele>9.5</ele><time>2026-04-26T19:52:13Z</time></trkpt><trkpt lat="45.42190394062391" lon="11.956180465510727"><ele>8.0</ele><time>2026-04-26T19:52:14Z</time></trkpt><trkpt lat="45.42199235614405" lon="11.956604126778267"><ele>8.0</ele><time>2026-04-26T19:52:15Z</time></trkpt><trkpt lat="45.42207835941542" lon="11.957033967763463"><ele>8.0</ele><time>2026-04-26T19:52:16Z</time></trkpt><trkpt lat="45.422168717741116" lon="11.957465165343136"><ele>8.5</ele><time>2026-04-26T19:52:17Z</time></trkpt><trkpt lat="45.422257436179464" lon="11.957896349719762"><ele>9.0</ele><time>2026-04-26T19:52:18Z</time></trkpt><trkpt lat="45.422347324349914" lon="11.958328881857835"><ele>9.5</ele><time>2026-04-26T19:52:19Z</time></trkpt><trkpt lat="45.42243632566195" lon="11.958761036749749"><ele>10.0</ele><time>2026-04-26T19:52:20Z</time></trkpt><trkpt lat="45.42252596532013" lon="11.95919146778051"><ele>10.0</ele><time>2026-04-26T19:52:21Z</time></trkpt><trkpt lat="45.42261431416109" lon="11.95961965162962"><ele>10.0</ele><time>2026-04-26T19:52:22Z</time></trkpt><trkpt lat="45.42270256968951" lon="11.960043207687052"><ele>10.0</ele><time>2026-04-26T19:52:23Z</time></trkpt><trkpt lat="45.42278967588772" lon="11.960463924670837"><ele>10.0</ele><time>2026-04-26T19:52:24Z</time></trkpt><trkpt lat="45.42287529575629" lon="11.960881707438888"><ele>9.5</ele><time>2026-04-26T19:52:25Z</time></trkpt><trkpt lat="45.42296186241439" lon="11.961300882575014"><ele>9.0</ele><time>2026-04-26T19:52:26Z</time></trkpt><trkpt lat="45.423042912257756" lon="11.96172040320337"><ele>6.0</ele><time>2026-04-26T19:52:27Z</time></trkpt><trkpt lat="45.42312158640633" lon="11.962143832982614"><ele>3.0</ele><time>2026-04-26T19:52:28Z</time></trkpt><trkpt lat="45.423206354164726" lon="11.96256919456281"><ele>3.0</ele><time>2026-04-26T19:52:29Z</time></trkpt><trkpt lat="45.42329271177587" lon="11.962995781051438"><ele>3.0</ele><time>2026-04-26T19:52:30Z</time></trkpt><trkpt lat="45.42337985402992" lon="11.963421643197455"><ele>5.5</ele><time>2026-04-26T19:52:31Z</time></trkpt><trkpt lat="45.42346633469586" lon="11.963847695698252"><ele>8.0</ele><time>2026-04-26T19:52:32Z</time></trkpt><trkpt lat="45.42355274661819" lon="11.964274586004633"><ele>8.0</ele><time>2026-04-26T19:52:33Z</time></trkpt><trkpt lat="45.423638390665" lon="11.964703015154912"><ele>8.0</ele><time>2026-04-26T19:52:34Z</time></trkpt><trkpt lat="45.42372340837738" lon="11.965131990737538"><ele>8.0</ele><time>2026-04-26T19:52:35Z</time></trkpt><trkpt lat="45.42380959632769" lon="11.965561890363276"><ele>8.0</ele><time>2026-04-26T19:52:36Z</time></trkpt><trkpt lat="45.42389594885278" lon="11.965991947770755"><ele>9.5</ele><time>2026-04-26T19:52:37Z</time></trkpt><trkpt lat="45.423984523866054" lon="11.966422000175054"><ele>11.0</ele><time>2026-04-26T19:52:38Z</time></trkpt><trkpt lat="45.42407459905027" lon="11.966849762471636"><ele>11.0</ele><time>2026-04-26T19:52:39Z</time></trkpt><trkpt lat="45.42416448490893" lon="11.967276670494877"><ele>11.0</ele><time>2026-04-26T19:52:40Z</time></trkpt><trkpt lat="45.42425209279191" lon="11.967704463372113"><ele>10.0</ele><time>2026-04-26T19:52:41.001Z</time></trkpt><trkpt lat="45.42433962313362" lon="11.968132810444848"><ele>9.0</ele><time>2026-04-26T19:52:42.001Z</time></trkpt><trkpt lat="45.42442565026381" lon="11.968561402734489"><ele>9.0</ele><time>2026-04-26T19:52:43.001Z</time></trkpt><trkpt lat="45.424506690285206" lon="11.968989332905815"><ele>9.0</ele><time>2026-04-26T19:52:44.001Z</time></trkpt><trkpt lat="45.424585266058514" lon="11.969416927299193"><ele>9.5</ele><time>2026-04-26T19:52:45.001Z</time></trkpt><trkpt lat="45.42466646126065" lon="11.969839318641725"><ele>10.0</ele><time>2026-04-26T19:52:46.001Z</time></trkpt><trkpt lat="45.42475521695954" lon="11.970253257808057"><ele>10.0</ele><time>2026-04-26T19:52:47.001Z</time></trkpt><trkpt lat="45.42484259756979" lon="11.970671490855088"><ele>10.0</ele><time>2026-04-26T19:52:48.001Z</time></trkpt><trkpt lat="45.42492729539318" lon="11.971093931339054"><ele>9.0</ele><time>2026-04-26T19:52:49.001Z</time></trkpt><trkpt lat="45.425013038274464" lon="11.97151708853308"><ele>8.0</ele><time>2026-04-26T19:52:50.001Z</time></trkpt><trkpt lat="45.42510101830502" lon="11.971936760405312"><ele>8.0</ele><time>2026-04-26T19:52:51.001Z</time></trkpt><trkpt lat="45.425188530950216" lon="11.97235521035412"><ele>8.0</ele><time>2026-04-26T19:52:52.001Z</time></trkpt><trkpt lat="45.42527497737572" lon="11.972771496354309"><ele>8.0</ele><time>2026-04-26T19:52:53.001Z</time></trkpt><trkpt lat="45.42536094270918" lon="11.97318576852144"><ele>8.0</ele><time>2026-04-26T19:52:54.001Z</time></trkpt><trkpt lat="45.42544689563323" lon="11.973599792752358"><ele>8.0</ele><time>2026-04-26T19:52:55.001Z</time></trkpt><trkpt lat="45.42553284716124" lon="11.974012182430979"><ele>8.0</ele><time>2026-04-26T19:52:56.001Z</time></trkpt><trkpt lat="45.425621428396575" lon="11.974418726776797"><ele>8.5</ele><time>2026-04-26T19:52:57.001Z</time></trkpt><trkpt lat="45.425712711192865" lon="11.974825886310128"><ele>9.0</ele><time>2026-04-26T19:52:58.001Z</time></trkpt><trkpt lat="45.42580241033503" lon="11.975234473123065"><ele>9.0</ele><time>2026-04-26T19:52:59.001Z</time></trkpt><trkpt lat="45.42588804055876" lon="11.975641641907123"><ele>9.0</ele><time>2026-04-26T19:53:00.001Z</time></trkpt><trkpt lat="45.425970473458975" lon="11.976050051486249"><ele>9.0</ele><time>2026-04-26T19:53:01.001Z</time></trkpt><trkpt lat="45.42605464193979" lon="11.97645901073677"><ele>9.0</ele><time>2026-04-26T19:53:02.001Z</time></trkpt><trkpt lat="45.426139761212255" lon="11.976869647807145"><ele>8.5</ele><time>2026-04-26T19:53:03.001Z</time></trkpt><trkpt lat="45.42622518680425" lon="11.977284898877754"><ele>8.0</ele><time>2026-04-26T19:53:04.001Z</time></trkpt><trkpt lat="45.42631100492522" lon="11.977698563723024"><ele>7.5</ele><time>2026-04-26T19:53:05.001Z</time></trkpt><trkpt lat="45.426396622059364" lon="11.978113317771927"><ele>7.0</ele><time>2026-04-26T19:53:06.001Z</time></trkpt><trkpt lat="45.42648215958342" lon="11.978528923008282"><ele>7.0</ele><time>2026-04-26T19:53:07.001Z</time></trkpt><trkpt lat="45.42657047558165" lon="11.978945101151004"><ele>7.0</ele><time>2026-04-26T19:53:08.001Z</time></trkpt><trkpt lat="45.42666266949226" lon="11.979355143025716"><ele>7.0</ele><time>2026-04-26T19:53:09.001Z</time></trkpt><trkpt lat="45.426759262050005" lon="11.979763529591553"><ele>7.0</ele><time>2026-04-26T19:53:10.001Z</time></trkpt><trkpt lat="45.42685313770159" lon="11.980176255256488"><ele>7.0</ele><time>2026-04-26T19:53:11.001Z</time></trkpt><trkpt lat="45.42694231274771" lon="11.980592539101966"><ele>7.0</ele><time>2026-04-26T19:53:12.001Z</time></trkpt><trkpt lat="45.427029069875445" lon="11.98101061656457"><ele>6.5</ele><time>2026-04-26T19:53:13.001Z</time></trkpt><trkpt lat="45.42711513018375" lon="11.98142881224839"><ele>6.0</ele><time>2026-04-26T19:53:14.001Z</time></trkpt><trkpt lat="45.42720149886961" lon="11.981847341101117"><ele>6.0</ele><time>2026-04-26T19:53:15.001Z</time></trkpt><trkpt lat="45.42728749514928" lon="11.982265970078958"><ele>6.0</ele><time>2026-04-26T19:53:16.001Z</time></trkpt><trkpt lat="45.42736981330416" lon="11.982686564342966"><ele>6.0</ele><time>2026-04-26T19:53:17.001Z</time></trkpt><trkpt lat="45.427451598697964" lon="11.983106790174855"><ele>6.0</ele><time>2026-04-26T19:53:18.001Z</time></trkpt><trkpt lat="45.42753713483819" lon="11.983527305021836"><ele>5.5</ele><time>2026-04-26T19:53:19.001Z</time></trkpt><trkpt lat="45.4276225219431" lon="11.9839469577011"><ele>5.0</ele><time>2026-04-26T19:53:20.001Z</time></trkpt><trkpt lat="45.42771033790144" lon="11.984365597960172"><ele>5.0</ele><time>2026-04-26T19:53:21.001Z</time></trkpt><trkpt lat="45.42779897372326" lon="11.984785513842574"><ele>5.0</ele><time>2026-04-26T19:53:22.001Z</time></trkpt><trkpt lat="45.42788471551246" lon="11.985204008299103"><ele>5.0</ele><time>2026-04-26T19:53:23.001Z</time></trkpt><trkpt lat="45.427970534281464" lon="11.985622998820359"><ele>5.0</ele><time>2026-04-26T19:53:24.001Z</time></trkpt><trkpt lat="45.428056327116806" lon="11.986041508389496"><ele>5.0</ele><time>2026-04-26T19:53:25.001Z</time></trkpt><trkpt lat="45.42814217226469" lon="11.98646002963227"><ele>5.0</ele><time>2026-04-26T19:53:26.001Z</time></trkpt><trkpt lat="45.4282287283136" lon="11.986878716801758"><ele>5.0</ele><time>2026-04-26T19:53:27.001Z</time></trkpt><trkpt lat="45.42831439266017" lon="11.987299578068752"><ele>5.0</ele><time>2026-04-26T19:53:28.001Z</time></trkpt><trkpt lat="45.42840058990717" lon="11.98772089562118"><ele>5.0</ele><time>2026-04-26T19:53:29.001Z</time></trkpt><trkpt lat="45.4284882452802" lon="11.98814267871659"><ele>5.0</ele><time>2026-04-26T19:53:30.001Z</time></trkpt><trkpt lat="45.428575964848505" lon="11.988565405312563"><ele>5.0</ele><time>2026-04-26T19:53:31.001Z</time></trkpt><trkpt lat="45.428662212117445" lon="11.988989539342073"><ele>5.0</ele><time>2026-04-26T19:53:32.001Z</time></trkpt><trkpt lat="45.42874924806312" lon="11.989413146333497"><ele>4.5</ele><time>2026-04-26T19:53:33.001Z</time></trkpt><trkpt lat="45.42883665263635" lon="11.98983902436539"><ele>4.0</ele><time>2026-04-26T19:53:34.001Z</time></trkpt><trkpt lat="45.42892347835865" lon="11.990264113077359"><ele>4.0</ele><time>2026-04-26T19:53:35.001Z</time></trkpt><trkpt lat="45.42901043410586" lon="11.990690381678892"><ele>4.0</ele><time>2026-04-26T19:53:36.001Z</time></trkpt><trkpt lat="45.42909920090624" lon="11.991114679840646"><ele>5.0</ele><time>2026-04-26T19:53:37.001Z</time></trkpt><trkpt lat="45.42918592515595" lon="11.991538446550626"><ele>6.0</ele><time>2026-04-26T19:53:38.001Z</time></trkpt><trkpt lat="45.42927160754018" lon="11.99196150836718"><ele>6.0</ele><time>2026-04-26T19:53:39.001Z</time></trkpt><trkpt lat="45.429356703169795" lon="11.992383169983738"><ele>6.0</ele><time>2026-04-26T19:53:40.001Z</time></trkpt><trkpt lat="45.4294407534644" lon="11.992803918213546"><ele>5.0</ele><time>2026-04-26T19:53:41.001Z</time></trkpt><trkpt lat="45.42952353061742" lon="11.993226039307029"><ele>4.0</ele><time>2026-04-26T19:53:42.001Z</time></trkpt><trkpt lat="45.429607434954704" lon="11.993645802593587"><ele>4.0</ele><time>2026-04-26T19:53:43.001Z</time></trkpt><trkpt lat="45.42969419587288" lon="11.994065952338234"><ele>4.0</ele><time>2026-04-26T19:53:44.001Z</time></trkpt><trkpt lat="45.42978122008449" lon="11.994488918506613"><ele>4.5</ele><time>2026-04-26T19:53:45.001Z</time></trkpt><trkpt lat="45.4298631285852" lon="11.99491273938024"><ele>5.0</ele><time>2026-04-26T19:53:46.001Z</time></trkpt><trkpt lat="45.42994219489608" lon="11.995340098139987"><ele>5.0</ele><time>2026-04-26T19:53:47.001Z</time></trkpt><trkpt lat="45.43002341763638" lon="11.995768369272096"><ele>5.0</ele><time>2026-04-26T19:53:48.001Z</time></trkpt><trkpt lat="45.430108512330136" lon="11.996196745492494"><ele>5.0</ele><time>2026-04-26T19:53:49.001Z</time></trkpt><trkpt lat="45.43019837259528" lon="11.99662510949952"><ele>5.0</ele><time>2026-04-26T19:53:50.001Z</time></trkpt><trkpt lat="45.43028772227739" lon="11.997053586660892"><ele>5.0</ele><time>2026-04-26T19:53:51.001Z</time></trkpt><trkpt lat="45.43037567104202" lon="11.997491737247515"><ele>5.0</ele><time>2026-04-26T19:53:52.001Z</time></trkpt><trkpt lat="45.4304647220211" lon="11.997927180548052"><ele>5.5</ele><time>2026-04-26T19:53:53.001Z</time></trkpt><trkpt lat="45.43055648668981" lon="11.998362147167196"><ele>6.0</ele><time>2026-04-26T19:53:54.001Z</time></trkpt><trkpt lat="45.430649180660815" lon="11.998796224994974"><ele>5.5</ele><time>2026-04-26T19:53:55.001Z</time></trkpt><trkpt lat="45.43074131151392" lon="11.999232382209701"><ele>5.0</ele><time>2026-04-26T19:53:56.001Z</time></trkpt><trkpt lat="45.430830512513275" lon="11.999667654569231"><ele>5.0</ele><time>2026-04-26T19:53:57.001Z</time></trkpt><trkpt lat="45.43091876721213" lon="12.000102192536348"><ele>5.0</ele><time>2026-04-26T19:53:58.001Z</time></trkpt><trkpt lat="45.43100643566422" lon="12.000535464874151"><ele>4.0</ele><time>2026-04-26T19:53:59.001Z</time></trkpt><trkpt lat="45.43110003425316" lon="12.00096644736519"><ele>3.0</ele><time>2026-04-26T19:54:00.001Z</time></trkpt><trkpt lat="45.431196171888104" lon="12.00139605587348"><ele>2.5</ele><time>2026-04-26T19:54:01.001Z</time></trkpt><trkpt lat="45.43129318173808" lon="12.001827775815933"><ele>2.0</ele><time>2026-04-26T19:54:02.001Z</time></trkpt><trkpt lat="45.43139198858549" lon="12.002260743421939"><ele>3.5</ele><time>2026-04-26T19:54:03Z</time></trkpt><trkpt lat="45.43148484125701" lon="12.002697641536875"><ele>5.0</ele><time>2026-04-26T19:54:04Z</time></trkpt><trkpt lat="45.431574660574476" lon="12.003134888755007"><ele>4.5</ele><time>2026-04-26T19:54:05Z</time></trkpt><trkpt lat="45.431663225262824" lon="12.00357213422289"><ele>4.0</ele><time>2026-04-26T19:54:06Z</time></trkpt><trkpt lat="45.43175213280167" lon="12.004008447540908"><ele>3.5</ele><time>2026-04-26T19:54:07Z</time></trkpt><trkpt lat="45.4318431243772" lon="12.004443757134652"><ele>3.0</ele><time>2026-04-26T19:54:08Z</time></trkpt><trkpt lat="45.431933109714414" lon="12.004878973937245"><ele>4.0</ele><time>2026-04-26T19:54:09Z</time></trkpt><trkpt lat="45.43202278890135" lon="12.005315620045625"><ele>5.0</ele><time>2026-04-26T19:54:10Z</time></trkpt><trkpt lat="45.43211209192548" lon="12.005754737272488"><ele>4.5</ele><time>2026-04-26T19:54:11Z</time></trkpt><trkpt lat="45.43220005932109" lon="12.00619426120445"><ele>4.0</ele><time>2026-04-26T19:54:12Z</time></trkpt><trkpt lat="45.432288487534" lon="12.006632253612914"><ele>4.0</ele><time>2026-04-26T19:54:13Z</time></trkpt><trkpt lat="45.43237895240034" lon="12.007066761855732"><ele>4.0</ele><time>2026-04-26T19:54:14Z</time></trkpt><trkpt lat="45.43247076175293" lon="12.007497986686376"><ele>4.0</ele><time>2026-04-26T19:54:15Z</time></trkpt><trkpt lat="45.43256115066914" lon="12.007927996653528"><ele>4.0</ele><time>2026-04-26T19:54:16Z</time></trkpt><trkpt lat="45.432647551061955" lon="12.008352257768864"><ele>4.0</ele><time>2026-04-26T19:54:17Z</time></trkpt><trkpt lat="45.43273212537886" lon="12.00875684776959"><ele>4.0</ele><time>2026-04-26T19:54:18Z</time></trkpt><trkpt lat="45.432820031353046" lon="12.009179402979395"><ele>4.0</ele><time>2026-04-26T19:54:19Z</time></trkpt><trkpt lat="45.432908814178376" lon="12.009609846710523"><ele>4.0</ele><time>2026-04-26T19:54:20Z</time></trkpt><trkpt lat="45.43299585031719" lon="12.010041698199071"><ele>3.5</ele><time>2026-04-26T19:54:21Z</time></trkpt><trkpt lat="45.43308246160744" lon="12.010471228997218"><ele>3.0</ele><time>2026-04-26T19:54:22Z</time></trkpt><trkpt lat="45.433168748267775" lon="12.010898383817056"><ele>3.0</ele><time>2026-04-26T19:54:23Z</time></trkpt><trkpt lat="45.43325461078532" lon="12.011324845297315"><ele>3.0</ele><time>2026-04-26T19:54:24Z</time></trkpt><trkpt lat="45.43334146351058" lon="12.011749517891138"><ele>3.0</ele><time>2026-04-26T19:54:25Z</time></trkpt><trkpt lat="45.433427253893065" lon="12.012173399299085"><ele>3.0</ele><time>2026-04-26T19:54:26Z</time></trkpt><trkpt lat="45.43351479558317" lon="12.012595719281558"><ele>3.0</ele><time>2026-04-26T19:54:27Z</time></trkpt><trkpt lat="45.433602137753745" lon="12.013018867101431"><ele>3.0</ele><time>2026-04-26T19:54:28Z</time></trkpt><trkpt lat="45.43369058886482" lon="12.013442704571501"><ele>3.5</ele><time>2026-04-26T19:54:29Z</time></trkpt><trkpt lat="45.433778035469096" lon="12.013865929728961"><ele>4.0</ele><time>2026-04-26T19:54:30Z</time></trkpt><trkpt lat="45.43386594044912" lon="12.014289657578137"><ele>4.0</ele><time>2026-04-26T19:54:31Z</time></trkpt><trkpt lat="45.433953475286394" lon="12.014713910887469"><ele>4.0</ele><time>2026-04-26T19:54:32Z</time></trkpt><trkpt lat="45.43404117884383" lon="12.015139000429668"><ele>5.0</ele><time>2026-04-26T19:54:33Z</time></trkpt><trkpt lat="45.434130806433146" lon="12.015562360045262"><ele>6.0</ele><time>2026-04-26T19:54:34Z</time></trkpt><trkpt lat="45.4342215530548" lon="12.015987814772458"><ele>7.0</ele><time>2026-04-26T19:54:35Z</time></trkpt><trkpt lat="45.43431239213242" lon="12.01641168000922"><ele>8.0</ele><time>2026-04-26T19:54:36Z</time></trkpt><trkpt lat="45.43439530863531" lon="12.016836511589668"><ele>6.0</ele><time>2026-04-26T19:54:37Z</time></trkpt><trkpt lat="45.434471484467686" lon="12.017263735417371"><ele>4.0</ele><time>2026-04-26T19:54:38Z</time></trkpt><trkpt lat="45.434547887273034" lon="12.017691513089904"><ele>4.0</ele><time>2026-04-26T19:54:39Z</time></trkpt><trkpt lat="45.43462812117523" lon="12.018118640560733"><ele>4.0</ele><time>2026-04-26T19:54:40Z</time></trkpt><trkpt lat="45.43471597702778" lon="12.018548682777924"><ele>4.0</ele><time>2026-04-26T19:54:41Z</time></trkpt><trkpt lat="45.43480865093811" lon="12.018984092464756"><ele>4.0</ele><time>2026-04-26T19:54:42Z</time></trkpt><trkpt lat="45.434900478387355" lon="12.019421115517952"><ele>4.0</ele><time>2026-04-26T19:54:43Z</time></trkpt><trkpt lat="45.43498938526389" lon="12.019861129518933"><ele>4.0</ele><time>2026-04-26T19:54:44Z</time></trkpt><trkpt lat="45.43508009063776" lon="12.020301297337891"><ele>4.0</ele><time>2026-04-26T19:54:45Z</time></trkpt><trkpt lat="45.43516940773112" lon="12.020740376280415"><ele>4.0</ele><time>2026-04-26T19:54:46Z</time></trkpt><trkpt lat="45.4352583614957" lon="12.021176464906326"><ele>3.5</ele><time>2026-04-26T19:54:47Z</time></trkpt><trkpt lat="45.435349212580284" lon="12.021610828735156"><ele>3.0</ele><time>2026-04-26T19:54:48Z</time></trkpt><trkpt lat="45.43544024807226" lon="12.02204116889051"><ele>2.5</ele><time>2026-04-26T19:54:49Z</time></trkpt><trkpt lat="45.43553039877047" lon="12.022470884483985"><ele>2.0</ele><time>2026-04-26T19:54:50Z</time></trkpt><trkpt lat="45.43561807673558" lon="12.02289962866029"><ele>3.5</ele><time>2026-04-26T19:54:51Z</time></trkpt><trkpt lat="45.43570373217869" lon="12.023327906507507"><ele>5.0</ele><time>2026-04-26T19:54:52Z</time></trkpt><trkpt lat="45.43579041185994" lon="12.023756138113816"><ele>4.5</ele><time>2026-04-26T19:54:53Z</time></trkpt><trkpt lat="45.43587659680332" lon="12.024183374861074"><ele>4.0</ele><time>2026-04-26T19:54:54Z</time></trkpt><trkpt lat="45.43596512294883" lon="12.024608828317945"><ele>4.5</ele><time>2026-04-26T19:54:55Z</time></trkpt><trkpt lat="45.436054853191166" lon="12.025034221953977"><ele>5.0</ele><time>2026-04-26T19:54:56Z</time></trkpt><trkpt lat="45.436143982032355" lon="12.02545860609281"><ele>4.5</ele><time>2026-04-26T19:54:57Z</time></trkpt><trkpt lat="45.436231681308485" lon="12.025883374820026"><ele>4.0</ele><time>2026-04-26T19:54:58.001Z</time></trkpt><trkpt lat="45.43631965250557" lon="12.026307122928733"><ele>4.5</ele><time>2026-04-26T19:54:59.001Z</time></trkpt><trkpt lat="45.43640569269211" lon="12.02672995290751"><ele>5.0</ele><time>2026-04-26T19:55:00.001Z</time></trkpt><trkpt lat="45.43649053272917" lon="12.02714802173071"><ele>4.5</ele><time>2026-04-26T19:55:01.001Z</time></trkpt><trkpt lat="45.43657472518758" lon="12.027566256715652"><ele>4.0</ele><time>2026-04-26T19:55:02.001Z</time></trkpt><trkpt lat="45.43666149992334" lon="12.02798167140651"><ele>3.5</ele><time>2026-04-26T19:55:03.001Z</time></trkpt><trkpt lat="45.43674876982745" lon="12.02839788316873"><ele>3.0</ele><time>2026-04-26T19:55:04.001Z</time></trkpt><trkpt lat="45.436838246159525" lon="12.028823795723621"><ele>3.5</ele><time>2026-04-26T19:55:05.001Z</time></trkpt><trkpt lat="45.43692661579688" lon="12.029250391831656"><ele>4.0</ele><time>2026-04-26T19:55:06.001Z</time></trkpt><trkpt lat="45.437014362867664" lon="12.029674396849812"><ele>4.0</ele><time>2026-04-26T19:55:07.001Z</time></trkpt><trkpt lat="45.43710165464663" lon="12.030098592405137"><ele>4.0</ele><time>2026-04-26T19:55:08.001Z</time></trkpt><trkpt lat="45.43718870661315" lon="12.030521797208067"><ele>4.0</ele><time>2026-04-26T19:55:09.001Z</time></trkpt><trkpt lat="45.437276850596604" lon="12.030948869375734"><ele>4.0</ele><time>2026-04-26T19:55:10.001Z</time></trkpt><trkpt lat="45.43736556533927" lon="12.031378759494148"><ele>4.5</ele><time>2026-04-26T19:55:11.001Z</time></trkpt><trkpt lat="45.43745373461078" lon="12.031809637444276"><ele>5.0</ele><time>2026-04-26T19:55:12.001Z</time></trkpt><trkpt lat="45.43754301769894" lon="12.032239541493325"><ele>4.5</ele><time>2026-04-26T19:55:13.001Z</time></trkpt><trkpt lat="45.43763175509413" lon="12.032669159994043"><ele>4.0</ele><time>2026-04-26T19:55:14.001Z</time></trkpt><trkpt lat="45.43772045236224" lon="12.03309930862767"><ele>4.0</ele><time>2026-04-26T19:55:15.001Z</time></trkpt><trkpt lat="45.43780892651481" lon="12.033530218478981"><ele>4.0</ele><time>2026-04-26T19:55:16.001Z</time></trkpt><trkpt lat="45.43789687439339" lon="12.033961068124437"><ele>4.5</ele><time>2026-04-26T19:55:17.001Z</time></trkpt><trkpt lat="45.43798553743965" lon="12.034391442557599"><ele>5.0</ele><time>2026-04-26T19:55:18.001Z</time></trkpt><trkpt lat="45.43807200961556" lon="12.034821812938619"><ele>5.0</ele><time>2026-04-26T19:55:19.001Z</time></trkpt><trkpt lat="45.438160828163866" lon="12.035250615833041"><ele>5.0</ele><time>2026-04-26T19:55:20.001Z</time></trkpt><trkpt lat="45.438248887932566" lon="12.035678502059712"><ele>4.5</ele><time>2026-04-26T19:55:21.001Z</time></trkpt><trkpt lat="45.43833783584904" lon="12.03610469869847"><ele>4.0</ele><time>2026-04-26T19:55:22.001Z</time></trkpt><trkpt lat="45.438425044212174" lon="12.036529257603775"><ele>3.5</ele><time>2026-04-26T19:55:23.001Z</time></trkpt><trkpt lat="45.43851360667139" lon="12.036951259980016"><ele>3.0</ele><time>2026-04-26T19:55:24.001Z</time></trkpt><trkpt lat="45.43859797094712" lon="12.037373077052163"><ele>4.0</ele><time>2026-04-26T19:55:25.001Z</time></trkpt><trkpt lat="45.43868435324854" lon="12.037793098843173"><ele>5.0</ele><time>2026-04-26T19:55:26.001Z</time></trkpt><trkpt lat="45.438775502159174" lon="12.038210230617203"><ele>4.5</ele><time>2026-04-26T19:55:27.001Z</time></trkpt><trkpt lat="45.43886647745619" lon="12.0386275296838"><ele>4.0</ele><time>2026-04-26T19:55:28.001Z</time></trkpt><trkpt lat="45.43896209409746" lon="12.03904703838101"><ele>4.0</ele><time>2026-04-26T19:55:29.001Z</time></trkpt><trkpt lat="45.43905670423192" lon="12.039470066305475"><ele>4.0</ele><time>2026-04-26T19:55:30.001Z</time></trkpt><trkpt lat="45.439145959298024" lon="12.039899107816453"><ele>4.0</ele><time>2026-04-26T19:55:31.001Z</time></trkpt><trkpt lat="45.43923638601564" lon="12.0403241923217"><ele>4.0</ele><time>2026-04-26T19:55:32.001Z</time></trkpt><trkpt lat="45.439323656185685" lon="12.040751038545528"><ele>4.0</ele><time>2026-04-26T19:55:33.001Z</time></trkpt><trkpt lat="45.43940852971128" lon="12.041174143350359"><ele>4.0</ele><time>2026-04-26T19:55:34.001Z</time></trkpt><trkpt lat="45.439493325520615" lon="12.041594066791694"><ele>4.0</ele><time>2026-04-26T19:55:35.001Z</time></trkpt><trkpt lat="45.43957857738717" lon="12.042011397938877"><ele>4.0</ele><time>2026-04-26T19:55:36.001Z</time></trkpt><trkpt lat="45.43966230951023" lon="12.042425435217073"><ele>4.0</ele><time>2026-04-26T19:55:37.001Z</time></trkpt><trkpt lat="45.43974651916571" lon="12.042838745388762"><ele>4.0</ele><time>2026-04-26T19:55:38.001Z</time></trkpt><trkpt lat="45.43982913769741" lon="12.04325143842653"><ele>4.5</ele><time>2026-04-26T19:55:39.001Z</time></trkpt><trkpt lat="45.439914006982306" lon="12.043664906007278"><ele>5.0</ele><time>2026-04-26T19:55:40.001Z</time></trkpt><trkpt lat="45.43999978799774" lon="12.044077289699723"><ele>5.0</ele><time>2026-04-26T19:55:41.001Z</time></trkpt><trkpt lat="45.44008632357434" lon="12.044489626430387"><ele>5.0</ele><time>2026-04-26T19:55:42.001Z</time></trkpt><trkpt lat="45.440174758224394" lon="12.044898821509982"><ele>5.5</ele><time>2026-04-26T19:55:43.001Z</time></trkpt><trkpt lat="45.44026128182568" lon="12.045306135139418"><ele>6.0</ele><time>2026-04-26T19:55:44.001Z</time></trkpt><trkpt lat="45.440344905901675" lon="12.045713510946415"><ele>6.5</ele><time>2026-04-26T19:55:45.001Z</time></trkpt><trkpt lat="45.440429433294206" lon="12.04612278773603"><ele>7.0</ele><time>2026-04-26T19:55:46.001Z</time></trkpt><trkpt lat="45.44051506269034" lon="12.046531326713069"><ele>6.0</ele><time>2026-04-26T19:55:47.001Z</time></trkpt><trkpt lat="45.44060481237283" lon="12.046933407470192"><ele>5.0</ele><time>2026-04-26T19:55:48.001Z</time></trkpt><trkpt lat="45.44069616574516" lon="12.047337643420974"><ele>4.0</ele><time>2026-04-26T19:55:49.001Z</time></trkpt><trkpt lat="45.44078231348" lon="12.047743995519957"><ele>3.0</ele><time>2026-04-26T19:55:50.001Z</time></trkpt><trkpt lat="45.44086639968952" lon="12.048154769578721"><ele>2.0</ele><time>2026-04-26T19:55:51.001Z</time></trkpt><trkpt lat="45.44094977707552" lon="12.048567641244597"><ele>1.0</ele><time>2026-04-26T19:55:52.001Z</time></trkpt><trkpt lat="45.4410356614412" lon="12.048982703927464"><ele>1.5</ele><time>2026-04-26T19:55:53.001Z</time></trkpt><trkpt lat="45.441118964537" lon="12.049400682106427"><ele>2.0</ele><time>2026-04-26T19:55:54.001Z</time></trkpt><trkpt lat="45.44119909734249" lon="12.049821132724793"><ele>2.5</ele><time>2026-04-26T19:55:55.001Z</time></trkpt><trkpt lat="45.44127557712969" lon="12.050245268088446"><ele>3.0</ele><time>2026-04-26T19:55:56.001Z</time></trkpt><trkpt lat="45.44134747935903" lon="12.050671469315649"><ele>4.0</ele><time>2026-04-26T19:55:57.001Z</time></trkpt><trkpt lat="45.44141927544778" lon="12.051098901217516"><ele>5.0</ele><time>2026-04-26T19:55:58.001Z</time></trkpt><trkpt lat="45.44149630572025" lon="12.0515235381499"><ele>4.0</ele><time>2026-04-26T19:55:59.001Z</time></trkpt><trkpt lat="45.44158012489875" lon="12.051944477440964"><ele>3.0</ele><time>2026-04-26T19:56:00.001Z</time></trkpt><trkpt lat="45.441669895329426" lon="12.052361201366416"><ele>3.5</ele><time>2026-04-26T19:56:01.001Z</time></trkpt><trkpt lat="45.44175996627113" lon="12.052776126429066"><ele>4.0</ele><time>2026-04-26T19:56:02.001Z</time></trkpt><trkpt lat="45.44184828976732" lon="12.053191424671626"><ele>3.5</ele><time>2026-04-26T19:56:03.001Z</time></trkpt><trkpt lat="45.44193574158426" lon="12.053609519098517"><ele>3.0</ele><time>2026-04-26T19:56:04.001Z</time></trkpt><trkpt lat="45.4420232775737" lon="12.054028598039324"><ele>2.5</ele><time>2026-04-26T19:56:05.001Z</time></trkpt><trkpt lat="45.44211070009403" lon="12.054447488239141"><ele>2.0</ele><time>2026-04-26T19:56:06.001Z</time></trkpt><trkpt lat="45.4421973562022" lon="12.054865571985665"><ele>3.5</ele><time>2026-04-26T19:56:07.001Z</time></trkpt><trkpt lat="45.44228340254115" lon="12.055282691334732"><ele>5.0</ele><time>2026-04-26T19:56:08.001Z</time></trkpt><trkpt lat="45.44236928694165" lon="12.055698923949436"><ele>4.5</ele><time>2026-04-26T19:56:09Z</time></trkpt><trkpt lat="45.44245299950175" lon="12.056114710701207"><ele>4.0</ele><time>2026-04-26T19:56:10Z</time></trkpt><trkpt lat="45.44253765472323" lon="12.056529374351213"><ele>3.0</ele><time>2026-04-26T19:56:11Z</time></trkpt><trkpt lat="45.4426262244772" lon="12.056939416472735"><ele>2.0</ele><time>2026-04-26T19:56:12Z</time></trkpt><trkpt lat="45.442717308276585" lon="12.057347025742416"><ele>2.5</ele><time>2026-04-26T19:56:13Z</time></trkpt><trkpt lat="45.44280898356916" lon="12.057754268599036"><ele>3.0</ele><time>2026-04-26T19:56:14Z</time></trkpt><trkpt lat="45.44289949813378" lon="12.058164076365125"><ele>3.5</ele><time>2026-04-26T19:56:15Z</time></trkpt><trkpt lat="45.44298924172877" lon="12.058577313499963"><ele>4.0</ele><time>2026-04-26T19:56:16Z</time></trkpt><trkpt lat="45.44307527489705" lon="12.058995368351596"><ele>3.0</ele><time>2026-04-26T19:56:17Z</time></trkpt><trkpt lat="45.44316120120048" lon="12.059416441415964"><ele>2.0</ele><time>2026-04-26T19:56:18Z</time></trkpt><trkpt lat="45.44324723805206" lon="12.059840402634121"><ele>2.0</ele><time>2026-04-26T19:56:19Z</time></trkpt><trkpt lat="45.44333492566642" lon="12.060267210114553"><ele>2.0</ele><time>2026-04-26T19:56:20Z</time></trkpt><trkpt lat="45.44342323759844" lon="12.060691538588747"><ele>2.0</ele><time>2026-04-26T19:56:21Z</time></trkpt><trkpt lat="45.443510509109984" lon="12.061117286883732"><ele>2.0</ele><time>2026-04-26T19:56:22Z</time></trkpt><trkpt lat="45.44359744967419" lon="12.061541888564257"><ele>2.0</ele><time>2026-04-26T19:56:23Z</time></trkpt><trkpt lat="45.44368056916087" lon="12.061967132665103"><ele>2.0</ele><time>2026-04-26T19:56:24Z</time></trkpt><trkpt lat="45.44376107663825" lon="12.062384630749294"><ele>2.0</ele><time>2026-04-26T19:56:25Z</time></trkpt><trkpt lat="45.44385307645019" lon="12.062803128527666"><ele>2.0</ele><time>2026-04-26T19:56:26Z</time></trkpt><trkpt lat="45.44394432427009" lon="12.063223381461894"><ele>2.5</ele><time>2026-04-26T19:56:27Z</time></trkpt><trkpt lat="45.44402637587934" lon="12.06364536243657"><ele>3.0</ele><time>2026-04-26T19:56:28Z</time></trkpt><trkpt lat="45.44410795503932" lon="12.064065947741335"><ele>3.0</ele><time>2026-04-26T19:56:29Z</time></trkpt><trkpt lat="45.44419709634402" lon="12.064482974433218"><ele>3.0</ele><time>2026-04-26T19:56:30Z</time></trkpt><trkpt lat="45.444290998595974" lon="12.064898456189754"><ele>2.5</ele><time>2026-04-26T19:56:31Z</time></trkpt><trkpt lat="45.44437969168145" lon="12.065315300802252"><ele>2.0</ele><time>2026-04-26T19:56:32Z</time></trkpt><trkpt lat="45.44446635716297" lon="12.065732733440456"><ele>2.0</ele><time>2026-04-26T19:56:33Z</time></trkpt><trkpt lat="45.44455226124176" lon="12.066151515455287"><ele>2.0</ele><time>2026-04-26T19:56:34Z</time></trkpt><trkpt lat="45.44463519147107" lon="12.0665565390816"><ele>2.0</ele><time>2026-04-26T19:56:35Z</time></trkpt><trkpt lat="45.44471494586237" lon="12.06694747590559"><ele>2.0</ele><time>2026-04-26T19:56:36Z</time></trkpt><trkpt lat="45.44479636315644" lon="12.067351136080395"><ele>2.5</ele><time>2026-04-26T19:56:37Z</time></trkpt><trkpt lat="45.44487875188138" lon="12.067757085283917"><ele>3.0</ele><time>2026-04-26T19:56:38Z</time></trkpt><trkpt lat="45.4449630097671" lon="12.068165032627292"><ele>3.0</ele><time>2026-04-26T19:56:39Z</time></trkpt><trkpt lat="45.44504676304886" lon="12.068572865108473"><ele>3.0</ele><time>2026-04-26T19:56:40Z</time></trkpt><trkpt lat="45.44512730216654" lon="12.068979818602786"><ele>3.0</ele><time>2026-04-26T19:56:41Z</time></trkpt><trkpt lat="45.44520566717715" lon="12.069386897851254"><ele>3.0</ele><time>2026-04-26T19:56:42Z</time></trkpt><trkpt lat="45.44528844222099" lon="12.069792023993836"><ele>3.5</ele><time>2026-04-26T19:56:43Z</time></trkpt><trkpt lat="45.44537592842776" lon="12.070193256427126"><ele>4.0</ele><time>2026-04-26T19:56:44Z</time></trkpt><trkpt lat="45.44546386538449" lon="12.070593032957015"><ele>4.5</ele><time>2026-04-26T19:56:45Z</time></trkpt><trkpt lat="45.44554877184671" lon="12.0709954505996"><ele>5.0</ele><time>2026-04-26T19:56:46Z</time></trkpt><trkpt lat="45.445625650894705" lon="12.071399945176534"><ele>4.5</ele><time>2026-04-26T19:56:47Z</time></trkpt><trkpt lat="45.445703717595826" lon="12.071800614519871"><ele>4.0</ele><time>2026-04-26T19:56:48Z</time></trkpt><trkpt lat="45.445785066420896" lon="12.072202194078198"><ele>4.5</ele><time>2026-04-26T19:56:49Z</time></trkpt><trkpt lat="45.445869873371265" lon="12.07259916585913"><ele>5.0</ele><time>2026-04-26T19:56:50Z</time></trkpt><trkpt lat="45.44595760514595" lon="12.072992100339333"><ele>5.5</ele><time>2026-04-26T19:56:51Z</time></trkpt><trkpt lat="45.44604269679134" lon="12.073386575359677"><ele>6.0</ele><time>2026-04-26T19:56:52Z</time></trkpt><trkpt lat="45.44612217341999" lon="12.073781731377137"><ele>5.0</ele><time>2026-04-26T19:56:53Z</time></trkpt><trkpt lat="45.44619727127121" lon="12.074175966354328"><ele>4.0</ele><time>2026-04-26T19:56:54Z</time></trkpt><trkpt lat="45.446275397009046" lon="12.074568811266785"><ele>4.5</ele><time>2026-04-26T19:56:55Z</time></trkpt><trkpt lat="45.446364861338566" lon="12.074959297122115"><ele>5.0</ele><time>2026-04-26T19:56:56Z</time></trkpt><trkpt lat="45.44645244130428" lon="12.075357155443635"><ele>5.0</ele><time>2026-04-26T19:56:57Z</time></trkpt><trkpt lat="45.44654383644013" lon="12.075761140335263"><ele>5.0</ele><time>2026-04-26T19:56:58Z</time></trkpt><trkpt lat="45.44663731456926" lon="12.076175286711793"><ele>4.5</ele><time>2026-04-26T19:56:59Z</time></trkpt><trkpt lat="45.446728188435024" lon="12.076597469790354"><ele>4.0</ele><time>2026-04-26T19:57:00Z</time></trkpt><trkpt lat="45.446814836848354" lon="12.077028193933142"><ele>3.5</ele><time>2026-04-26T19:57:01Z</time></trkpt><trkpt lat="45.44689942059839" lon="12.07746444239524"><ele>3.0</ele><time>2026-04-26T19:57:02Z</time></trkpt><trkpt lat="45.4469896974408" lon="12.07790033638854"><ele>3.0</ele><time>2026-04-26T19:57:03Z</time></trkpt><trkpt lat="45.44707896227189" lon="12.078333087533544"><ele>3.0</ele><time>2026-04-26T19:57:04Z</time></trkpt><trkpt lat="45.44717016218379" lon="12.078766513178893"><ele>2.5</ele><time>2026-04-26T19:57:05.001Z</time></trkpt><trkpt lat="45.44725859516884" lon="12.079201776555244"><ele>2.0</ele><time>2026-04-26T19:57:06.001Z</time></trkpt><trkpt lat="45.44734188395861" lon="12.079636905478713"><ele>2.5</ele><time>2026-04-26T19:57:07.001Z</time></trkpt><trkpt lat="45.44742373020603" lon="12.080071875386157"><ele>3.0</ele><time>2026-04-26T19:57:08.001Z</time></trkpt><trkpt lat="45.44750841541048" lon="12.080505654890292"><ele>3.5</ele><time>2026-04-26T19:57:09.001Z</time></trkpt><trkpt lat="45.44759720968142" lon="12.080939202643439"><ele>4.0</ele><time>2026-04-26T19:57:10.001Z</time></trkpt><trkpt lat="45.447692491580014" lon="12.081369721790944"><ele>3.0</ele><time>2026-04-26T19:57:11.001Z</time></trkpt><trkpt lat="45.4477973429146" lon="12.081794399486695"><ele>2.0</ele><time>2026-04-26T19:57:12.001Z</time></trkpt><trkpt lat="45.44791150669351" lon="12.082213464172206"><ele>2.0</ele><time>2026-04-26T19:57:13.001Z</time></trkpt><trkpt lat="45.44803440706397" lon="12.082626885824874"><ele>2.0</ele><time>2026-04-26T19:57:14.001Z</time></trkpt><trkpt lat="45.44816113049723" lon="12.08303711904893"><ele>2.5</ele><time>2026-04-26T19:57:15.001Z</time></trkpt><trkpt lat="45.44829464393255" lon="12.083442589357448"><ele>3.0</ele><time>2026-04-26T19:57:16.001Z</time></trkpt><trkpt lat="45.44843512106593" lon="12.083844034017426"><ele>4.0</ele><time>2026-04-26T19:57:17.001Z</time></trkpt><trkpt lat="45.44858047697143" lon="12.084240258026265"><ele>5.0</ele><time>2026-04-26T19:57:18.001Z</time></trkpt><trkpt lat="45.4487312161798" lon="12.084635207328372"><ele>3.5</ele><time>2026-04-26T19:57:19.001Z</time></trkpt><trkpt lat="45.44888815043352" lon="12.085029070418775"><ele>2.0</ele><time>2026-04-26T19:57:20.001Z</time></trkpt><trkpt lat="45.44904798923764" lon="12.085414189215777"><ele>2.0</ele><time>2026-04-26T19:57:21.001Z</time></trkpt><trkpt lat="45.449214425319816" lon="12.085794148493706"><ele>2.0</ele><time>2026-04-26T19:57:22.001Z</time></trkpt><trkpt lat="45.44938971430948" lon="12.086167711726889"><ele>2.0</ele><time>2026-04-26T19:57:23.001Z</time></trkpt><trkpt lat="45.44957137055186" lon="12.0865385880481"><ele>2.0</ele><time>2026-04-26T19:57:24.001Z</time></trkpt><trkpt lat="45.44975363903088" lon="12.086903927929148"><ele>2.5</ele><time>2026-04-26T19:57:25.001Z</time></trkpt><trkpt lat="45.44993939304847" lon="12.087263782891007"><ele>3.0</ele><time>2026-04-26T19:57:26.001Z</time></trkpt><trkpt lat="45.45012842181236" lon="12.08761844252726"><ele>3.0</ele><time>2026-04-26T19:57:27.001Z</time></trkpt><trkpt lat="45.450326454065134" lon="12.08796472187408"><ele>3.0</ele><time>2026-04-26T19:57:28.001Z</time></trkpt><trkpt lat="45.45053075506518" lon="12.08830450181343"><ele>4.5</ele><time>2026-04-26T19:57:29.001Z</time></trkpt><trkpt lat="45.450740090691696" lon="12.088637713542958"><ele>6.0</ele><time>2026-04-26T19:57:30.001Z</time></trkpt><trkpt lat="45.450954052759876" lon="12.088963263131314"><ele>4.5</ele><time>2026-04-26T19:57:31.001Z</time></trkpt><trkpt lat="45.451171447403915" lon="12.08928373213698"><ele>3.0</ele><time>2026-04-26T19:57:32.001Z</time></trkpt><trkpt lat="45.45139273606109" lon="12.089598435647721"><ele>3.0</ele><time>2026-04-26T19:57:33.001Z</time></trkpt><trkpt lat="45.451618843207505" lon="12.089908201382908"><ele>3.0</ele><time>2026-04-26T19:57:34.001Z</time></trkpt><trkpt lat="45.45184957152776" lon="12.090210368789805"><ele>3.0</ele><time>2026-04-26T19:57:35.001Z</time></trkpt><trkpt lat="45.45208465744436" lon="12.090503357689132"><ele>3.0</ele><time>2026-04-26T19:57:36.001Z</time></trkpt><trkpt lat="45.45232524151307" lon="12.090789435793043"><ele>1.0</ele><time>2026-04-26T19:57:37.001Z</time></trkpt><trkpt lat="45.452569968597274" lon="12.09106944482061"><ele>-1.0</ele><time>2026-04-26T19:57:38.001Z</time></trkpt><trkpt lat="45.4528178922017" lon="12.091343897512909"><ele>0.0</ele><time>2026-04-26T19:57:39.001Z</time></trkpt><trkpt lat="45.453070647019366" lon="12.091612539126185"><ele>1.0</ele><time>2026-04-26T19:57:40.001Z</time></trkpt><trkpt lat="45.453326707707795" lon="12.091874049812008"><ele>1.0</ele><time>2026-04-26T19:57:41.001Z</time></trkpt><trkpt lat="45.45358560592304" lon="12.092127820305414"><ele>1.0</ele><time>2026-04-26T19:57:42.001Z</time></trkpt><trkpt lat="45.45384647677833" lon="12.09237473836919"><ele>0.0</ele><time>2026-04-26T19:57:43.001Z</time></trkpt><trkpt lat="45.45411043589807" lon="12.092613069272506"><ele>-1.0</ele><time>2026-04-26T19:57:44.001Z</time></trkpt><trkpt lat="45.45437723112198" lon="12.092842793726925"><ele>0.0</ele><time>2026-04-26T19:57:45.001Z</time></trkpt><trkpt lat="45.45464827318977" lon="12.093062910109715"><ele>1.0</ele><time>2026-04-26T19:57:46.001Z</time></trkpt><trkpt lat="45.454923563125604" lon="12.093278839630676"><ele>1.0</ele><time>2026-04-26T19:57:47.001Z</time></trkpt><trkpt lat="45.45520183525594" lon="12.093493511546008"><ele>1.0</ele><time>2026-04-26T19:57:48.001Z</time></trkpt><trkpt lat="45.45548220198202" lon="12.093707435243568"><ele>1.0</ele><time>2026-04-26T19:57:49.001Z</time></trkpt><trkpt lat="45.45576329255343" lon="12.093921880815417"><ele>1.0</ele><time>2026-04-26T19:57:50.001Z</time></trkpt><trkpt lat="45.456044886895086" lon="12.094135898226162"><ele>1.5</ele><time>2026-04-26T19:57:51.001Z</time></trkpt><trkpt lat="45.45632912408274" lon="12.094346804169502"><ele>2.0</ele><time>2026-04-26T19:57:52.001Z</time></trkpt><trkpt lat="45.45661419296326" lon="12.094552933392963"><ele>2.0</ele><time>2026-04-26T19:57:53.001Z</time></trkpt><trkpt lat="45.45689802016977" lon="12.094758396116664"><ele>2.0</ele><time>2026-04-26T19:57:54.001Z</time></trkpt><trkpt lat="45.457181149742006" lon="12.094960245002492"><ele>2.0</ele><time>2026-04-26T19:57:55.001Z</time></trkpt><trkpt lat="45.45746229913558" lon="12.095162649604804"><ele>2.0</ele><time>2026-04-26T19:57:56.001Z</time></trkpt><trkpt lat="45.457741628036885" lon="12.095366695534318"><ele>2.0</ele><time>2026-04-26T19:57:57.001Z</time></trkpt><trkpt lat="45.45801915436329" lon="12.095568970572364"><ele>2.0</ele><time>2026-04-26T19:57:58.001Z</time></trkpt><trkpt lat="45.45829409432659" lon="12.095768945597337"><ele>2.0</ele><time>2026-04-26T19:57:59.001Z</time></trkpt><trkpt lat="45.45856719165701" lon="12.095967906136616"><ele>2.0</ele><time>2026-04-26T19:58:00.001Z</time></trkpt><trkpt lat="45.45883897706902" lon="12.09616400928166"><ele>2.0</ele><time>2026-04-26T19:58:01.001Z</time></trkpt><trkpt lat="45.45911766585145" lon="12.096376163606442"><ele>2.0</ele><time>2026-04-26T19:58:02.001Z</time></trkpt><trkpt lat="45.459381288138715" lon="12.096589091605804"><ele>2.0</ele><time>2026-04-26T19:58:03.001Z</time></trkpt><trkpt lat="45.45965779088194" lon="12.096796654350753"><ele>2.0</ele><time>2026-04-26T19:58:04.001Z</time></trkpt><trkpt lat="45.45993574549908" lon="12.096994117581943"><ele>2.0</ele><time>2026-04-26T19:58:05.001Z</time></trkpt><trkpt lat="45.46021271697721" lon="12.097193730315997"><ele>2.0</ele><time>2026-04-26T19:58:06.001Z</time></trkpt><trkpt lat="45.46048828581386" lon="12.097392044447238"><ele>1.0</ele><time>2026-04-26T19:58:07.001Z</time></trkpt><trkpt lat="45.460765410494766" lon="12.097590599380043"><ele>0.0</ele><time>2026-04-26T19:58:08.001Z</time></trkpt><trkpt lat="45.46104414361753" lon="12.097787455069229"><ele>0.0</ele><time>2026-04-26T19:58:09.001Z</time></trkpt><trkpt lat="45.4613246201116" lon="12.097987300690773"><ele>0.0</ele><time>2026-04-26T19:58:10.001Z</time></trkpt><trkpt lat="45.461606498471966" lon="12.098189347342132"><ele>0.0</ele><time>2026-04-26T19:58:11.001Z</time></trkpt><trkpt lat="45.461887521922236" lon="12.098392585449664"><ele>0.0</ele><time>2026-04-26T19:58:12.001Z</time></trkpt><trkpt lat="45.46216602214758" lon="12.09859550229458"><ele>0.0</ele><time>2026-04-26T19:58:13.001Z</time></trkpt><trkpt lat="45.46244425895033" lon="12.098798747853476"><ele>0.0</ele><time>2026-04-26T19:58:14.001Z</time></trkpt><trkpt lat="45.462717220782025" lon="12.099008241805832"><ele>0.0</ele><time>2026-04-26T19:58:15Z</time></trkpt><trkpt lat="45.46298629726335" lon="12.099226492209077"><ele>0.0</ele><time>2026-04-26T19:58:16Z</time></trkpt><trkpt lat="45.46325635767466" lon="12.099441863070275"><ele>0.0</ele><time>2026-04-26T19:58:17Z</time></trkpt><trkpt lat="45.463528290649904" lon="12.099649295172105"><ele>0.0</ele><time>2026-04-26T19:58:18Z</time></trkpt><trkpt lat="45.46380424065988" lon="12.099853651837078"><ele>0.5</ele><time>2026-04-26T19:58:19Z</time></trkpt><trkpt lat="45.46408247369063" lon="12.100055138286967"><ele>1.0</ele><time>2026-04-26T19:58:20Z</time></trkpt><trkpt lat="45.464362504730396" lon="12.100259528161178"><ele>1.5</ele><time>2026-04-26T19:58:21Z</time></trkpt><trkpt lat="45.464641505105334" lon="12.10046696047628"><ele>2.0</ele><time>2026-04-26T19:58:22Z</time></trkpt><trkpt lat="45.464921150856505" lon="12.100676725473498"><ele>1.5</ele><time>2026-04-26T19:58:23Z</time></trkpt><trkpt lat="45.465201674475836" lon="12.100884990883914"><ele>1.0</ele><time>2026-04-26T19:58:24Z</time></trkpt><trkpt lat="45.465482319764455" lon="12.101092836487501"><ele>1.0</ele><time>2026-04-26T19:58:25Z</time></trkpt><trkpt lat="45.46576524492776" lon="12.1013009014351"><ele>1.0</ele><time>2026-04-26T19:58:26Z</time></trkpt><trkpt lat="45.46604914494147" lon="12.101510561258428"><ele>1.0</ele><time>2026-04-26T19:58:27Z</time></trkpt><trkpt lat="45.46633329579587" lon="12.101722345702761"><ele>1.0</ele><time>2026-04-26T19:58:28Z</time></trkpt><trkpt lat="45.46661798069613" lon="12.101937194178417"><ele>1.0</ele><time>2026-04-26T19:58:29Z</time></trkpt><trkpt lat="45.46690231714431" lon="12.10215516866783"><ele>1.0</ele><time>2026-04-26T19:58:30Z</time></trkpt><trkpt lat="45.46718458612028" lon="12.102377049648748"><ele>1.0</ele><time>2026-04-26T19:58:31Z</time></trkpt><trkpt lat="45.46746608812991" lon="12.102601804547854"><ele>1.0</ele><time>2026-04-26T19:58:32Z</time></trkpt><trkpt lat="45.46774255332071" lon="12.102833502481133"><ele>1.0</ele><time>2026-04-26T19:58:33Z</time></trkpt><trkpt lat="45.468008304849704" lon="12.103066132422994"><ele>1.0</ele><time>2026-04-26T19:58:34Z</time></trkpt><trkpt lat="45.468257460646605" lon="12.103295026080866"><ele>1.0</ele><time>2026-04-26T19:58:35Z</time></trkpt><trkpt lat="45.46851256784451" lon="12.103535958238401"><ele>1.0</ele><time>2026-04-26T19:58:36Z</time></trkpt><trkpt lat="45.46876619171325" lon="12.103788133098695"><ele>1.5</ele><time>2026-04-26T19:58:37Z</time></trkpt><trkpt lat="45.469016617283" lon="12.10404935196214"><ele>2.0</ele><time>2026-04-26T19:58:38Z</time></trkpt><trkpt lat="45.46926062468014" lon="12.104322173212442"><ele>2.0</ele><time>2026-04-26T19:58:39Z</time></trkpt><trkpt lat="45.469497680920576" lon="12.104603373011766"><ele>2.0</ele><time>2026-04-26T19:58:40Z</time></trkpt><trkpt lat="45.46973123115779" lon="12.104898838652701"><ele>1.5</ele><time>2026-04-26T19:58:41Z</time></trkpt><trkpt lat="45.46995241827623" lon="12.105193999581118"><ele>1.0</ele><time>2026-04-26T19:58:42Z</time></trkpt><trkpt lat="45.47017965339711" lon="12.105504848505584"><ele>1.0</ele><time>2026-04-26T19:58:43Z</time></trkpt><trkpt lat="45.4703935034138" lon="12.105817773741295"><ele>1.0</ele><time>2026-04-26T19:58:44Z</time></trkpt><trkpt lat="45.470603947299445" lon="12.106137681723688"><ele>1.5</ele><time>2026-04-26T19:58:45Z</time></trkpt><trkpt lat="45.47080821585371" lon="12.106465823662488"><ele>2.0</ele><time>2026-04-26T19:58:46Z</time></trkpt><trkpt lat="45.471007002675854" lon="12.106800917716814"><ele>2.0</ele><time>2026-04-26T19:58:47Z</time></trkpt><trkpt lat="45.471199566036944" lon="12.10714281915518"><ele>2.0</ele><time>2026-04-26T19:58:48Z</time></trkpt><trkpt lat="45.471384429662685" lon="12.107490981791436"><ele>2.0</ele><time>2026-04-26T19:58:49Z</time></trkpt><trkpt lat="45.471563601688366" lon="12.107845819709038"><ele>2.0</ele><time>2026-04-26T19:58:50Z</time></trkpt><trkpt lat="45.471738124855754" lon="12.108206278700262"><ele>2.5</ele><time>2026-04-26T19:58:51Z</time></trkpt><trkpt lat="45.47190732545256" lon="12.10857143020333"><ele>3.0</ele><time>2026-04-26T19:58:52Z</time></trkpt><trkpt lat="45.47206966346922" lon="12.108942137981499"><ele>3.5</ele><time>2026-04-26T19:58:53Z</time></trkpt><trkpt lat="45.47222422080515" lon="12.109318273265316"><ele>4.0</ele><time>2026-04-26T19:58:54Z</time></trkpt><trkpt lat="45.47237060509358" lon="12.109699875428305"><ele>3.5</ele><time>2026-04-26T19:58:55Z</time></trkpt><trkpt lat="45.4725098633416" lon="12.110088672667697"><ele>3.0</ele><time>2026-04-26T19:58:56Z</time></trkpt><trkpt lat="45.47264173673718" lon="12.110485592272386"><ele>2.5</ele><time>2026-04-26T19:58:57Z</time></trkpt><trkpt lat="45.472771094007804" lon="12.110880377076032"><ele>2.0</ele><time>2026-04-26T19:58:58Z</time></trkpt><trkpt lat="45.472893052659465" lon="12.111280348646483"><ele>1.0</ele><time>2026-04-26T19:58:59Z</time></trkpt><trkpt lat="45.47301214251225" lon="12.111683009269225"><ele>0.0</ele><time>2026-04-26T19:59:00Z</time></trkpt><trkpt lat="45.47312709046148" lon="12.11208911841476"><ele>0.5</ele><time>2026-04-26T19:59:01Z</time></trkpt><trkpt lat="45.473236665871276" lon="12.1124966969931"><ele>1.0</ele><time>2026-04-26T19:59:02Z</time></trkpt><trkpt lat="45.473341191909356" lon="12.11290689179213"><ele>0.0</ele><time>2026-04-26T19:59:03Z</time></trkpt><trkpt lat="45.4734433675529" lon="12.11331789845169"><ele>-1.0</ele><time>2026-04-26T19:59:04Z</time></trkpt><trkpt lat="45.47354261534318" lon="12.11372990161437"><ele>-0.5</ele><time>2026-04-26T19:59:05Z</time></trkpt><trkpt lat="45.47363834447636" lon="12.114141896884737"><ele>0.0</ele><time>2026-04-26T19:59:06Z</time></trkpt><trkpt lat="45.473735525580175" lon="12.114553833213268"><ele>-0.5</ele><time>2026-04-26T19:59:07Z</time></trkpt><trkpt lat="45.4738301723483" lon="12.114967270811873"><ele>-1.0</ele><time>2026-04-26T19:59:08Z</time></trkpt><trkpt lat="45.473926866066975" lon="12.115379058950548"><ele>-1.0</ele><time>2026-04-26T19:59:09Z</time></trkpt><trkpt lat="45.47402342981847" lon="12.115787557759763"><ele>-1.0</ele><time>2026-04-26T19:59:10Z</time></trkpt><trkpt lat="45.47412005293417" lon="12.116195740145594"><ele>-0.5</ele><time>2026-04-26T19:59:11Z</time></trkpt><trkpt lat="45.47421478565246" lon="12.116598264403176"><ele>0.0</ele><time>2026-04-26T19:59:12Z</time></trkpt><trkpt lat="45.474307045283005" lon="12.116993654001563"><ele>0.0</ele><time>2026-04-26T19:59:13Z</time></trkpt><trkpt lat="45.474397029667564" lon="12.11738545989677"><ele>0.0</ele><time>2026-04-26T19:59:14Z</time></trkpt><trkpt lat="45.474487308645365" lon="12.117772838951796"><ele>0.0</ele><time>2026-04-26T19:59:15Z</time></trkpt><trkpt lat="45.47457771777287" lon="12.118161001892918"><ele>0.0</ele><time>2026-04-26T19:59:16Z</time></trkpt><trkpt lat="45.474668228263575" lon="12.118548699206174"><ele>-0.5</ele><time>2026-04-26T19:59:17Z</time></trkpt><trkpt lat="45.47475913627887" lon="12.118933394273014"><ele>-1.0</ele><time>2026-04-26T19:59:18Z</time></trkpt><trkpt lat="45.474848031650254" lon="12.119314287744375"><ele>-1.0</ele><time>2026-04-26T19:59:19Z</time></trkpt><trkpt lat="45.474932981448255" lon="12.119680177656667"><ele>-1.0</ele><time>2026-04-26T19:59:20Z</time></trkpt><trkpt lat="45.475012469956866" lon="12.120027089332686"><ele>-0.5</ele><time>2026-04-26T19:59:21Z</time></trkpt><trkpt lat="45.475086146931325" lon="12.120364235204383"><ele>0.0</ele><time>2026-04-26T19:59:22Z</time></trkpt><trkpt lat="45.47516067921178" lon="12.120703471509945"><ele>-0.5</ele><time>2026-04-26T19:59:23Z</time></trkpt><trkpt lat="45.47523566746408" lon="12.121039335370682"><ele>-1.0</ele><time>2026-04-26T19:59:24Z</time></trkpt><trkpt lat="45.475310321920595" lon="12.121375627906755"><ele>-1.5</ele><time>2026-04-26T19:59:25Z</time></trkpt><trkpt lat="45.47538398990612" lon="12.12171165872184"><ele>-2.0</ele><time>2026-04-26T19:59:26Z</time></trkpt><trkpt lat="45.475458802830445" lon="12.122049863863884"><ele>-1.0</ele><time>2026-04-26T19:59:27Z</time></trkpt><trkpt lat="45.475538150833366" lon="12.122384111656178"><ele>0.0</ele><time>2026-04-26T19:59:28Z</time></trkpt><trkpt lat="45.47562128303939" lon="12.122715502862624"><ele>0.0</ele><time>2026-04-26T19:59:29.001Z</time></trkpt><trkpt lat="45.47570657919787" lon="12.123043086323808"><ele>0.0</ele><time>2026-04-26T19:59:30.001Z</time></trkpt><trkpt lat="45.475795707399435" lon="12.123364783474843"><ele>-0.5</ele><time>2026-04-26T19:59:31.001Z</time></trkpt><trkpt lat="45.47588573106248" lon="12.12368080002396"><ele>-1.0</ele><time>2026-04-26T19:59:32.001Z</time></trkpt><trkpt lat="45.47597301219364" lon="12.12398683729798"><ele>-0.3333333333333333</ele><time>2026-04-26T19:59:33.001Z</time></trkpt><trkpt lat="45.47605118996282" lon="12.12428006649231"><ele>0.3333333333333333</ele><time>2026-04-26T19:59:34.001Z</time></trkpt><trkpt lat="45.47612086342459" lon="12.124565592147798"><ele>1.0</ele><time>2026-04-26T19:59:35.001Z</time></trkpt><trkpt lat="45.47618709423282" lon="12.12484081664426"><ele>1.0</ele><time>2026-04-26T19:59:36.001Z</time></trkpt><trkpt lat="45.47625528883392" lon="12.125094817815533"><ele>1.0</ele><time>2026-04-26T19:59:37.001Z</time></trkpt><trkpt lat="45.47633155786991" lon="12.125327845043286"><ele>1.0</ele><time>2026-04-26T19:59:38.001Z</time></trkpt><trkpt lat="45.476415052768914" lon="12.125545562165424"><ele>0.6666666666666666</ele><time>2026-04-26T19:59:39.001Z</time></trkpt><trkpt lat="45.47649946515657" lon="12.125749105925694"><ele>0.3333333333333333</ele><time>2026-04-26T19:59:40.001Z</time></trkpt><trkpt lat="45.47657955922408" lon="12.125940249536288"><ele>0.0</ele><time>2026-04-26T19:59:41.001Z</time></trkpt><trkpt lat="45.47665944014483" lon="12.126123598904336"><ele>0.0</ele><time>2026-04-26T19:59:42.001Z</time></trkpt><trkpt lat="45.47673691442558" lon="12.126300773943324"><ele>0.0</ele><time>2026-04-26T19:59:43.001Z</time></trkpt><trkpt lat="45.476809776746315" lon="12.12646408890458"><ele>0.0</ele><time>2026-04-26T19:59:44.001Z</time></trkpt><trkpt lat="45.47687875073544" lon="12.126615136571553"><ele>0.0</ele><time>2026-04-26T19:59:45.001Z</time></trkpt><trkpt lat="45.47694631328632" lon="12.1267556970352"><ele>0.0</ele><time>2026-04-26T19:59:46.001Z</time></trkpt><trkpt lat="45.477008199740084" lon="12.126884302172533"><ele>0.0</ele><time>2026-04-26T19:59:47.001Z</time></trkpt><trkpt lat="45.47706714957046" lon="12.127006758270788"><ele>0.0</ele><time>2026-04-26T19:59:48.001Z</time></trkpt><trkpt lat="45.477118847974936" lon="12.12711356652174"><ele>0.0</ele><time>2026-04-26T19:59:49.001Z</time></trkpt><trkpt lat="45.47716057666805" lon="12.127197491295231"><ele>0.0</ele><time>2026-04-26T19:59:50.001Z</time></trkpt><trkpt lat="45.477226967275385" lon="12.127333266218654"><ele>0.2</ele><time>2026-04-26T19:59:52.001Z</time></trkpt><trkpt lat="45.47729241516589" lon="12.127460503967765"><ele>0.4</ele><time>2026-04-26T19:59:54.001Z</time></trkpt><trkpt lat="45.47733497604717" lon="12.12754085784095"><ele>0.6000000000000001</ele><time>2026-04-26T19:59:55.001Z</time></trkpt><trkpt lat="45.47738411256812" lon="12.127632406766677"><ele>0.8</ele><time>2026-04-26T19:59:56.001Z</time></trkpt><trkpt lat="45.47744889196714" lon="12.127755538043022"><ele>1.0</ele><time>2026-04-26T19:59:57.001Z</time></trkpt><trkpt lat="45.477525186165856" lon="12.127902341013236"><ele>1.0</ele><time>2026-04-26T19:59:58.001Z</time></trkpt><trkpt lat="45.4776125776393" lon="12.12807191949356"><ele>1.0</ele><time>2026-04-26T19:59:59.001Z</time></trkpt><trkpt lat="45.47770016798831" lon="12.128240423897298"><ele>1.0</ele><time>2026-04-26T20:00:00.001Z</time></trkpt><trkpt lat="45.477801250187404" lon="12.12841404015067"><ele>1.0</ele><time>2026-04-26T20:00:01.001Z</time></trkpt><trkpt lat="45.47791457615123" lon="12.128597245991992"><ele>1.0</ele><time>2026-04-26T20:00:02.001Z</time></trkpt><trkpt lat="45.47804232157119" lon="12.128794520473345"><ele>1.0</ele><time>2026-04-26T20:00:03.001Z</time></trkpt><trkpt lat="45.47817589112012" lon="12.129000306575598"><ele>0.6666666666666666</ele><time>2026-04-26T20:00:04.001Z</time></trkpt><trkpt lat="45.47830848240746" lon="12.129196760242499"><ele>0.3333333333333333</ele><time>2026-04-26T20:00:05.001Z</time></trkpt><trkpt lat="45.47845010410804" lon="12.129396408285254"><ele>0.0</ele><time>2026-04-26T20:00:06.001Z</time></trkpt><trkpt lat="45.47860149958401" lon="12.129593413454794"><ele>0.0</ele><time>2026-04-26T20:00:07.001Z</time></trkpt><trkpt lat="45.478753217383755" lon="12.129786173254141"><ele>0.0</ele><time>2026-04-26T20:00:08.001Z</time></trkpt><trkpt lat="45.478905422059555" lon="12.129974957109267"><ele>0.0</ele><time>2026-04-26T20:00:09.001Z</time></trkpt><trkpt lat="45.47905674446727" lon="12.130158445887233"><ele>1.0</ele><time>2026-04-26T20:00:10.001Z</time></trkpt><trkpt lat="45.47919909864239" lon="12.130333817949232"><ele>2.0</ele><time>2026-04-26T20:00:11.001Z</time></trkpt><trkpt lat="45.47933288855739" lon="12.130498564597607"><ele>3.0</ele><time>2026-04-26T20:00:12.001Z</time></trkpt><trkpt lat="45.479462335934414" lon="12.130654098976866"><ele>3.0</ele><time>2026-04-26T20:00:13.001Z</time></trkpt><trkpt lat="45.47958735479896" lon="12.13080252466102"><ele>3.0</ele><time>2026-04-26T20:00:14.001Z</time></trkpt><trkpt lat="45.47970078059231" lon="12.130950131003486"><ele>3.0</ele><time>2026-04-26T20:00:15.001Z</time></trkpt><trkpt lat="45.479815244978816" lon="12.131089263244245"><ele>3.25</ele><time>2026-04-26T20:00:16.001Z</time></trkpt><trkpt lat="45.47989727620239" lon="12.13124970129004"><ele>3.5</ele><time>2026-04-26T20:00:17.001Z</time></trkpt><trkpt lat="45.47995760449319" lon="12.131425197877734"><ele>3.75</ele><time>2026-04-26T20:00:18.001Z</time></trkpt><trkpt lat="45.47994441301901" lon="12.131628157613324"><ele>4.0</ele><time>2026-04-26T20:00:19.001Z</time></trkpt><trkpt lat="45.47995592039601" lon="12.131834187573485"><ele>3.0</ele><time>2026-04-26T20:00:20.001Z</time></trkpt><trkpt lat="45.48002488994563" lon="12.132053243482936"><ele>2.0</ele><time>2026-04-26T20:00:21Z</time></trkpt><trkpt lat="45.48012760095724" lon="12.13221528168078"><ele>1.0</ele><time>2026-04-26T20:00:22Z</time></trkpt><trkpt lat="45.480259794367356" lon="12.132337625644075"><ele>1.0</ele><time>2026-04-26T20:00:23Z</time></trkpt><trkpt lat="45.480413186469555" lon="12.132386435751087"><ele>1.0</ele><time>2026-04-26T20:00:24Z</time></trkpt><trkpt lat="45.48056072406931" lon="12.132372304070538"><ele>1.0</ele><time>2026-04-26T20:00:25Z</time></trkpt><trkpt lat="45.48071533032113" lon="12.132312471191334"><ele>1.3333333333333333</ele><time>2026-04-26T20:00:26Z</time></trkpt><trkpt lat="45.48085777036291" lon="12.13219551245488"><ele>1.6666666666666665</ele><time>2026-04-26T20:00:27Z</time></trkpt><trkpt lat="45.480962896860035" lon="12.132022882900259"><ele>2.0</ele><time>2026-04-26T20:00:28Z</time></trkpt><trkpt lat="45.48105355633617" lon="12.131802019371461"><ele>2.0</ele><time>2026-04-26T20:00:29Z</time></trkpt><trkpt lat="45.48113913870727" lon="12.131577790580158"><ele>2.0</ele><time>2026-04-26T20:00:30Z</time></trkpt><trkpt lat="45.48119562583442" lon="12.131357909651507"><ele>2.0</ele><time>2026-04-26T20:00:31Z</time></trkpt><trkpt lat="45.481223121986034" lon="12.131141392191601"><ele>1.5</ele><time>2026-04-26T20:00:32Z</time></trkpt><trkpt lat="45.48119136885157" lon="12.130955888219727"><ele>1.0</ele><time>2026-04-26T20:00:33Z</time></trkpt><trkpt lat="45.481153154774994" lon="12.130822888068323"><ele>0.5</ele><time>2026-04-26T20:00:34Z</time></trkpt><trkpt lat="45.48113488887463" lon="12.130587263479747"><ele>0.0</ele><time>2026-04-26T20:00:35Z</time></trkpt><trkpt lat="45.481139442746425" lon="12.130373601260857"><ele>-0.3333333333333333</ele><time>2026-04-26T20:00:36Z</time></trkpt><trkpt lat="45.48118802341527" lon="12.130188328616086"><ele>-0.6666666666666666</ele><time>2026-04-26T20:00:37Z</time></trkpt><trkpt lat="45.481321243413326" lon="12.13008375288346"><ele>-1.0</ele><time>2026-04-26T20:00:38Z</time></trkpt><trkpt lat="45.48146569666391" lon="12.1299464053989"><ele>0.0</ele><time>2026-04-26T20:00:39Z</time></trkpt><trkpt lat="45.4816566287839" lon="12.129802089917863"><ele>1.0</ele><time>2026-04-26T20:00:40Z</time></trkpt><trkpt lat="45.48188538386958" lon="12.129667486319548"><ele>1.0</ele><time>2026-04-26T20:00:41Z</time></trkpt><trkpt lat="45.48214599618973" lon="12.129562006873625"><ele>1.0</ele><time>2026-04-26T20:00:42Z</time></trkpt><trkpt lat="45.48243413569537" lon="12.129499734431315"><ele>1.0</ele><time>2026-04-26T20:00:43Z</time></trkpt><trkpt lat="45.48273436076299" lon="12.129490155534423"><ele>1.0</ele><time>2026-04-26T20:00:44Z</time></trkpt><trkpt lat="45.48305333785894" lon="12.1295253522907"><ele>0.5</ele><time>2026-04-26T20:00:45Z</time></trkpt><trkpt lat="45.48337374495871" lon="12.129596681668165"><ele>0.0</ele><time>2026-04-26T20:00:46Z</time></trkpt><trkpt lat="45.483699031891035" lon="12.129700321330965"><ele>0.5</ele><time>2026-04-26T20:00:47Z</time></trkpt><trkpt lat="45.48399605367379" lon="12.129802841242538"><ele>1.0</ele><time>2026-04-26T20:00:48Z</time></trkpt><trkpt lat="45.48427062130675" lon="12.129895830814784"><ele>1.5</ele><time>2026-04-26T20:00:49Z</time></trkpt><trkpt lat="45.484533088877576" lon="12.129984199289366"><ele>2.0</ele><time>2026-04-26T20:00:50Z</time></trkpt><trkpt lat="45.48479179786997" lon="12.130072491925063"><ele>2.0</ele><time>2026-04-26T20:00:51Z</time></trkpt><trkpt lat="45.485040269071796" lon="12.130157290590194"><ele>2.0</ele><time>2026-04-26T20:00:52Z</time></trkpt><trkpt lat="45.48527386119671" lon="12.130237011300286"><ele>2.6666666666666665</ele><time>2026-04-26T20:00:53Z</time></trkpt><trkpt lat="45.485487443260006" lon="12.13030889582504"><ele>3.333333333333333</ele><time>2026-04-26T20:00:54Z</time></trkpt><trkpt lat="45.48566008453626" lon="12.130364750743219"><ele>4.0</ele><time>2026-04-26T20:00:55Z</time></trkpt><trkpt lat="45.48580398381413" lon="12.130410445787321"><ele>4.0</ele><time>2026-04-26T20:00:56Z</time></trkpt><trkpt lat="45.48591789166227" lon="12.130476153132593"><ele>4.0</ele><time>2026-04-26T20:00:57Z</time></trkpt><trkpt lat="45.4860133908479" lon="12.130599220815652"><ele>4.0</ele><time>2026-04-26T20:00:58Z</time></trkpt><trkpt lat="45.48609964414804" lon="12.130751691773744"><ele>4.0</ele><time>2026-04-26T20:00:59Z</time></trkpt><trkpt lat="45.48616944429571" lon="12.130929057688128"><ele>3.5</ele><time>2026-04-26T20:01:00Z</time></trkpt><trkpt lat="45.48627791706086" lon="12.131027067628786"><ele>3.0</ele><time>2026-04-26T20:01:01Z</time></trkpt><trkpt lat="45.48639664600337" lon="12.131065641362701"><ele>2.5</ele><time>2026-04-26T20:01:02Z</time></trkpt><trkpt lat="45.486516022105434" lon="12.131032242753362"><ele>2.0</ele><time>2026-04-26T20:01:03Z</time></trkpt><trkpt lat="45.48664671065432" lon="12.131102202256361"><ele>2.0</ele><time>2026-04-26T20:01:04Z</time></trkpt><trkpt lat="45.486757964003964" lon="12.131185920356483"><ele>2.0</ele><time>2026-04-26T20:01:05Z</time></trkpt><trkpt lat="45.48687376467626" lon="12.131229202546589"><ele>2.0</ele><time>2026-04-26T20:01:06Z</time></trkpt><trkpt lat="45.48686825779772" lon="12.13151708690546"><ele>2.0</ele><time>2026-04-26T20:01:07Z</time></trkpt><trkpt lat="45.48687570200054" lon="12.131718614796787"><ele>2.0</ele><time>2026-04-26T20:01:08Z</time></trkpt><trkpt lat="45.486896563363665" lon="12.131969667997893"><ele>2.0</ele><time>2026-04-26T20:01:09Z</time></trkpt><trkpt lat="45.48692046617434" lon="12.13224636804772"><ele>2.0</ele><time>2026-04-26T20:01:10Z</time></trkpt><trkpt lat="45.48696223278358" lon="12.13254209656346"><ele>2.0</ele><time>2026-04-26T20:01:11Z</time></trkpt><trkpt lat="45.486972063746336" lon="12.132834644942013"><ele>2.0</ele><time>2026-04-26T20:01:12Z</time></trkpt><trkpt lat="45.48702015922419" lon="12.133126272697933"><ele>2.0</ele><time>2026-04-26T20:01:13Z</time></trkpt><trkpt lat="45.48704467209728" lon="12.133439521691287"><ele>1.5</ele><time>2026-04-26T20:01:14Z</time></trkpt><trkpt lat="45.48707177346855" lon="12.13376373676083"><ele>1.0</ele><time>2026-04-26T20:01:15Z</time></trkpt><trkpt lat="45.487105629224054" lon="12.134088973274983"><ele>1.0</ele><time>2026-04-26T20:01:16Z</time></trkpt><trkpt lat="45.48713287216199" lon="12.134396332388654"><ele>1.0</ele><time>2026-04-26T20:01:17Z</time></trkpt><trkpt lat="45.48715943627474" lon="12.134710396151817"><ele>1.0</ele><time>2026-04-26T20:01:18Z</time></trkpt><trkpt lat="45.4871644295633" lon="12.135036656765813"><ele>1.0</ele><time>2026-04-26T20:01:19Z</time></trkpt><trkpt lat="45.4871928265327" lon="12.135360982310536"><ele>1.0</ele><time>2026-04-26T20:01:20Z</time></trkpt><trkpt lat="45.48722111106677" lon="12.13568207954066"><ele>1.0</ele><time>2026-04-26T20:01:21Z</time></trkpt><trkpt lat="45.48724759778719" lon="12.135994563372984"><ele>1.0</ele><time>2026-04-26T20:01:22Z</time></trkpt><trkpt lat="45.48727340064757" lon="12.13628946929605"><ele>1.0</ele><time>2026-04-26T20:01:23Z</time></trkpt><trkpt lat="45.487296933112695" lon="12.136567117527497"><ele>1.3333333333333333</ele><time>2026-04-26T20:01:24Z</time></trkpt><trkpt lat="45.487321130323316" lon="12.136848465448685"><ele>1.6666666666666665</ele><time>2026-04-26T20:01:25Z</time></trkpt><trkpt lat="45.48734616823864" lon="12.137139588529026"><ele>2.0</ele><time>2026-04-26T20:01:26Z</time></trkpt><trkpt lat="45.487371475041364" lon="12.13743577005742"><ele>2.333333333333333</ele><time>2026-04-26T20:01:27Z</time></trkpt><trkpt lat="45.48739607068434" lon="12.137725028140547"><ele>2.6666666666666665</ele><time>2026-04-26T20:01:28Z</time></trkpt><trkpt lat="45.487419677921" lon="12.13800188371001"><ele>3.0</ele><time>2026-04-26T20:01:29Z</time></trkpt><trkpt lat="45.487442075076146" lon="12.13826016043812"><ele>2.5</ele><time>2026-04-26T20:01:30Z</time></trkpt><trkpt lat="45.48746128659834" lon="12.138481701436135"><ele>2.0</ele><time>2026-04-26T20:01:31Z</time></trkpt><trkpt lat="45.48747829836998" lon="12.138674089226765"><ele>1.5</ele><time>2026-04-26T20:01:32Z</time></trkpt><trkpt lat="45.48749361922257" lon="12.138847508114486"><ele>1.0</ele><time>2026-04-26T20:01:33Z</time></trkpt><trkpt lat="45.487467856146345" lon="12.138982049296791"><ele>1.25</ele><time>2026-04-26T20:01:34Z</time></trkpt><trkpt lat="45.487418659898545" lon="12.139132429519014"><ele>1.5</ele><time>2026-04-26T20:01:35Z</time></trkpt><trkpt lat="45.48734747789562" lon="12.139311687474704"><ele>1.75</ele><time>2026-04-26T20:01:36Z</time></trkpt><trkpt lat="45.48724405817243" lon="12.13947078293016"><ele>2.0</ele><time>2026-04-26T20:01:37.001Z</time></trkpt><trkpt lat="45.48715998235737" lon="12.139642254603636"><ele>2.0</ele><time>2026-04-26T20:01:38.001Z</time></trkpt><trkpt lat="45.48710561174065" lon="12.139823824940985"><ele>2.0</ele><time>2026-04-26T20:01:39.001Z</time></trkpt><trkpt lat="45.48711070090534" lon="12.140042411215598"><ele>2.0</ele><time>2026-04-26T20:01:40.001Z</time></trkpt><trkpt lat="45.48715451958931" lon="12.140247641411415"><ele>2.0</ele><time>2026-04-26T20:01:41.001Z</time></trkpt><trkpt lat="45.48723457238928" lon="12.140422687639658"><ele>2.25</ele><time>2026-04-26T20:01:42.001Z</time></trkpt><trkpt lat="45.48735374037872" lon="12.140536647831276"><ele>2.5</ele><time>2026-04-26T20:01:43.001Z</time></trkpt><trkpt lat="45.48747653307568" lon="12.140623939768874"><ele>2.75</ele><time>2026-04-26T20:01:44.001Z</time></trkpt><trkpt lat="45.48761854171406" lon="12.140661043343291"><ele>3.0</ele><time>2026-04-26T20:01:45.001Z</time></trkpt><trkpt lat="45.48776055967576" lon="12.140640661375453"><ele>3.0</ele><time>2026-04-26T20:01:46.001Z</time></trkpt><trkpt lat="45.48789614776325" lon="12.140564367183297"><ele>3.0</ele><time>2026-04-26T20:01:47.001Z</time></trkpt><trkpt lat="45.48800946894499" lon="12.140439202373312"><ele>3.0</ele><time>2026-04-26T20:01:48.001Z</time></trkpt><trkpt lat="45.48809826520671" lon="12.140269760587111"><ele>3.0</ele><time>2026-04-26T20:01:49.001Z</time></trkpt><trkpt lat="45.48818053090846" lon="12.140093144338234"><ele>3.0</ele><time>2026-04-26T20:01:50.001Z</time></trkpt><trkpt lat="45.488286483874404" lon="12.139970505606385"><ele>3.0</ele><time>2026-04-26T20:01:51.001Z</time></trkpt><trkpt lat="45.48842158487447" lon="12.13989846663352"><ele>3.0</ele><time>2026-04-26T20:01:52.001Z</time></trkpt><trkpt lat="45.488592859291316" lon="12.139917014790408"><ele>2.6666666666666665</ele><time>2026-04-26T20:01:53.001Z</time></trkpt><trkpt lat="45.48878332869213" lon="12.139906416176334"><ele>2.333333333333333</ele><time>2026-04-26T20:01:54.001Z</time></trkpt><trkpt lat="45.48898608363647" lon="12.139882157408834"><ele>2.0</ele><time>2026-04-26T20:01:55.001Z</time></trkpt><trkpt lat="45.489185997602625" lon="12.13988155375367"><ele>2.0</ele><time>2026-04-26T20:01:56.001Z</time></trkpt><trkpt lat="45.48938849095035" lon="12.139871135117003"><ele>2.0</ele><time>2026-04-26T20:01:57.001Z</time></trkpt><trkpt lat="45.48960056277799" lon="12.139853053604025"><ele>2.0</ele><time>2026-04-26T20:01:58.001Z</time></trkpt><trkpt lat="45.489811847323146" lon="12.139838515207286"><ele>2.333333333333333</ele><time>2026-04-26T20:01:59.001Z</time></trkpt><trkpt lat="45.49002191569333" lon="12.139824761226192"><ele>2.6666666666666665</ele><time>2026-04-26T20:02:00.001Z</time></trkpt><trkpt lat="45.490237876992424" lon="12.139811281033698"><ele>3.0</ele><time>2026-04-26T20:02:01.001Z</time></trkpt><trkpt lat="45.49045495800114" lon="12.139796841419363"><ele>3.0</ele><time>2026-04-26T20:02:02.001Z</time></trkpt><trkpt lat="45.490666227556005" lon="12.139781710964392"><ele>3.0</ele><time>2026-04-26T20:02:03.001Z</time></trkpt><trkpt lat="45.49087687021806" lon="12.139768170630893"><ele>3.0</ele><time>2026-04-26T20:02:04.001Z</time></trkpt><trkpt lat="45.49109058282424" lon="12.139755719222583"><ele>2.6666666666666665</ele><time>2026-04-26T20:02:05.001Z</time></trkpt><trkpt lat="45.491304676129886" lon="12.13974397974275"><ele>2.333333333333333</ele><time>2026-04-26T20:02:06.001Z</time></trkpt><trkpt lat="45.491517546594146" lon="12.139731456406155"><ele>2.0</ele><time>2026-04-26T20:02:07.001Z</time></trkpt><trkpt lat="45.49172718002439" lon="12.139719957012804"><ele>2.0</ele><time>2026-04-26T20:02:08.001Z</time></trkpt><trkpt lat="45.4919360926157" lon="12.139707480421617"><ele>2.0</ele><time>2026-04-26T20:02:09.001Z</time></trkpt><trkpt lat="45.492141645072834" lon="12.139695722544726"><ele>2.0</ele><time>2026-04-26T20:02:10.001Z</time></trkpt><trkpt lat="45.49234346527482" lon="12.139684124435762"><ele>2.333333333333333</ele><time>2026-04-26T20:02:11.001Z</time></trkpt><trkpt lat="45.4925397181198" lon="12.1396732673724"><ele>2.6666666666666665</ele><time>2026-04-26T20:02:12.001Z</time></trkpt><trkpt lat="45.49272649457283" lon="12.139665580899267"><ele>3.0</ele><time>2026-04-26T20:02:13.001Z</time></trkpt><trkpt lat="45.49290444516129" lon="12.139659024865532"><ele>2.6666666666666665</ele><time>2026-04-26T20:02:14.001Z</time></trkpt><trkpt lat="45.49307945115687" lon="12.13965003769273"><ele>2.333333333333333</ele><time>2026-04-26T20:02:15.001Z</time></trkpt><trkpt lat="45.493251918997856" lon="12.139638389273191"><ele>2.0</ele><time>2026-04-26T20:02:16.001Z</time></trkpt><trkpt lat="45.4934211668893" lon="12.139621995486781"><ele>2.0</ele><time>2026-04-26T20:02:17.001Z</time></trkpt><trkpt lat="45.493589058894216" lon="12.139606521325437"><ele>2.0</ele><time>2026-04-26T20:02:18.001Z</time></trkpt><trkpt lat="45.49375356117832" lon="12.139595741641028"><ele>2.0</ele><time>2026-04-26T20:02:19.001Z</time></trkpt><trkpt lat="45.49390836324547" lon="12.139586613560581"><ele>2.5</ele><time>2026-04-26T20:02:20.001Z</time></trkpt><trkpt lat="45.49405263054004" lon="12.1395792154868"><ele>3.0</ele><time>2026-04-26T20:02:21.001Z</time></trkpt><trkpt lat="45.49418718113271" lon="12.139576707140955"><ele>3.5</ele><time>2026-04-26T20:02:22.001Z</time></trkpt><trkpt lat="45.494311755746644" lon="12.139578771474403"><ele>4.0</ele><time>2026-04-26T20:02:23.001Z</time></trkpt><trkpt lat="45.49442818222065" lon="12.139588148554587"><ele>4.0</ele><time>2026-04-26T20:02:24.001Z</time></trkpt><trkpt lat="45.49453849551761" lon="12.13961326740472"><ele>4.0</ele><time>2026-04-26T20:02:25.001Z</time></trkpt><trkpt lat="45.49465052506024" lon="12.13964644205215"><ele>4.0</ele><time>2026-04-26T20:02:26.001Z</time></trkpt><trkpt lat="45.49476716929212" lon="12.139694953673239"><ele>4.0</ele><time>2026-04-26T20:02:27Z</time></trkpt><trkpt lat="45.494882595311445" lon="12.139755932625516"><ele>4.0</ele><time>2026-04-26T20:02:28Z</time></trkpt><trkpt lat="45.49499740146217" lon="12.139834455171451"><ele>4.0</ele><time>2026-04-26T20:02:29Z</time></trkpt><trkpt lat="45.4951063088365" lon="12.139922002713911"><ele>4.0</ele><time>2026-04-26T20:02:30Z</time></trkpt><trkpt lat="45.49521210962048" lon="12.140021584078747"><ele>4.0</ele><time>2026-04-26T20:02:31Z</time></trkpt><trkpt lat="45.49531678380017" lon="12.140128877814812"><ele>4.75</ele><time>2026-04-26T20:02:32Z</time></trkpt><trkpt lat="45.49542545773791" lon="12.140245601614925"><ele>5.5</ele><time>2026-04-26T20:02:33Z</time></trkpt><trkpt lat="45.49553618144278" lon="12.140351064866595"><ele>6.25</ele><time>2026-04-26T20:02:34Z</time></trkpt><trkpt lat="45.49565307988444" lon="12.140434756383083"><ele>7.0</ele><time>2026-04-26T20:02:35Z</time></trkpt><trkpt lat="45.49578125138409" lon="12.140485629888735"><ele>7.0</ele><time>2026-04-26T20:02:36Z</time></trkpt><trkpt lat="45.49591211395059" lon="12.140467164612819"><ele>7.0</ele><time>2026-04-26T20:02:37Z</time></trkpt><trkpt lat="45.49603906234502" lon="12.140463891125318"><ele>7.0</ele><time>2026-04-26T20:02:38Z</time></trkpt><trkpt lat="45.49615662642351" lon="12.140402932196855"><ele>7.0</ele><time>2026-04-26T20:02:39Z</time></trkpt><trkpt lat="45.49626154691341" lon="12.140318028293821"><ele>6.6</ele><time>2026-04-26T20:02:40Z</time></trkpt><trkpt lat="45.49634838956157" lon="12.140224255570809"><ele>6.199999999999999</ele><time>2026-04-26T20:02:41Z</time></trkpt><trkpt lat="45.49643639379591" lon="12.140139504888817"><ele>5.8</ele><time>2026-04-26T20:02:42Z</time></trkpt><trkpt lat="45.49653935665163" lon="12.14010040324615"><ele>5.4</ele><time>2026-04-26T20:02:43Z</time></trkpt><trkpt lat="45.496649634020734" lon="12.140107889869023"><ele>5.0</ele><time>2026-04-26T20:02:44Z</time></trkpt><trkpt lat="45.496764402087436" lon="12.140155743746673"><ele>5.0</ele><time>2026-04-26T20:02:45Z</time></trkpt><trkpt lat="45.496876315049555" lon="12.14022850458031"><ele>5.0</ele><time>2026-04-26T20:02:46Z</time></trkpt><trkpt lat="45.496978941769896" lon="12.14032623743678"><ele>5.0</ele><time>2026-04-26T20:02:47Z</time></trkpt><trkpt lat="45.49707284149296" lon="12.140442059163458"><ele>5.0</ele><time>2026-04-26T20:02:48Z</time></trkpt><trkpt lat="45.497160664747824" lon="12.140569543403428"><ele>4.5</ele><time>2026-04-26T20:02:49Z</time></trkpt><trkpt lat="45.49724814839589" lon="12.140705232155423"><ele>4.0</ele><time>2026-04-26T20:02:50Z</time></trkpt><trkpt lat="45.49733585879201" lon="12.140846038808025"><ele>3.5</ele><time>2026-04-26T20:02:51Z</time></trkpt><trkpt lat="45.49743142443603" lon="12.140982483837059"><ele>3.0</ele><time>2026-04-26T20:02:52Z</time></trkpt><trkpt lat="45.497539680467696" lon="12.141133087416598"><ele>3.0</ele><time>2026-04-26T20:02:53Z</time></trkpt><trkpt lat="45.497668496652366" lon="12.141272507378142"><ele>3.0</ele><time>2026-04-26T20:02:54Z</time></trkpt><trkpt lat="45.49781551276088" lon="12.141451926135801"><ele>3.0</ele><time>2026-04-26T20:02:55Z</time></trkpt><trkpt lat="45.49799998851441" lon="12.141648014405627"><ele>2.0</ele><time>2026-04-26T20:02:56Z</time></trkpt><trkpt lat="45.49820725248661" lon="12.141836819641119"><ele>1.0</ele><time>2026-04-26T20:02:57Z</time></trkpt><trkpt lat="45.49840876661128" lon="12.14199257987866"><ele>1.0</ele><time>2026-04-26T20:02:58Z</time></trkpt><trkpt lat="45.498607188846094" lon="12.142150824884949"><ele>1.0</ele><time>2026-04-26T20:02:59Z</time></trkpt><trkpt lat="45.49881326293731" lon="12.14229442600304"><ele>1.6666666666666665</ele><time>2026-04-26T20:03:00Z</time></trkpt><trkpt lat="45.499014970815644" lon="12.142428721397874"><ele>2.3333333333333335</ele><time>2026-04-26T20:03:01Z</time></trkpt><trkpt lat="45.49921267753127" lon="12.142554505387205"><ele>3.0</ele><time>2026-04-26T20:03:02Z</time></trkpt><trkpt lat="45.499395620393145" lon="12.14267423079382"><ele>3.0</ele><time>2026-04-26T20:03:03Z</time></trkpt><trkpt lat="45.49957172279774" lon="12.142793073736382"><ele>3.0</ele><time>2026-04-26T20:03:04Z</time></trkpt><trkpt lat="45.49974555844021" lon="12.142913364485098"><ele>3.0</ele><time>2026-04-26T20:03:05Z</time></trkpt><trkpt lat="45.49991406079352" lon="12.143027307228273"><ele>3.0</ele><time>2026-04-26T20:03:06Z</time></trkpt><trkpt lat="45.50007487269291" lon="12.14313214771076"><ele>3.0</ele><time>2026-04-26T20:03:07Z</time></trkpt><trkpt lat="45.50022676378491" lon="12.14323313276125"><ele>3.0</ele><time>2026-04-26T20:03:08Z</time></trkpt><trkpt lat="45.50036723261059" lon="12.14333174939853"><ele>3.25</ele><time>2026-04-26T20:03:09Z</time></trkpt><trkpt lat="45.500495799274496" lon="12.143430743316799"><ele>3.5</ele><time>2026-04-26T20:03:10Z</time></trkpt><trkpt lat="45.50060840463059" lon="12.143541767201103"><ele>3.75</ele><time>2026-04-26T20:03:11Z</time></trkpt><trkpt lat="45.50069900909777" lon="12.143673101826085"><ele>4.0</ele><time>2026-04-26T20:03:12Z</time></trkpt><trkpt lat="45.50076464185862" lon="12.143819641942343"><ele>4.0</ele><time>2026-04-26T20:03:13Z</time></trkpt><trkpt lat="45.500789544975184" lon="12.143971043939983"><ele>4.0</ele><time>2026-04-26T20:03:14Z</time></trkpt><trkpt lat="45.50083977734097" lon="12.144067035404738"><ele>4.0</ele><time>2026-04-26T20:03:15Z</time></trkpt><trkpt lat="45.500921278275975" lon="12.144111076895596"><ele>4.0</ele><time>2026-04-26T20:03:16Z</time></trkpt><trkpt lat="45.50100430525431" lon="12.144123912358669"><ele>4.0</ele><time>2026-04-26T20:03:17Z</time></trkpt><trkpt lat="45.50108502127945" lon="12.144080496872014"><ele>4.0</ele><time>2026-04-26T20:03:18Z</time></trkpt><trkpt lat="45.5011475173808" lon="12.143990338119815"><ele>4.0</ele><time>2026-04-26T20:03:19Z</time></trkpt><trkpt lat="45.50120331786712" lon="12.143888568170345"><ele>4.0</ele><time>2026-04-26T20:03:20Z</time></trkpt><trkpt lat="45.501215975606605" lon="12.143697488851787"><ele>4.0</ele><time>2026-04-26T20:03:21Z</time></trkpt><trkpt lat="45.50126034698546" lon="12.143523952695997"><ele>4.0</ele><time>2026-04-26T20:03:22Z</time></trkpt><trkpt lat="45.50131383041321" lon="12.143362205667241"><ele>4.5</ele><time>2026-04-26T20:03:23Z</time></trkpt><trkpt lat="45.501372483640495" lon="12.14317875806139"><ele>5.0</ele><time>2026-04-26T20:03:24Z</time></trkpt><trkpt lat="45.5014288735185" lon="12.142986645992785"><ele>5.5</ele><time>2026-04-26T20:03:25Z</time></trkpt><trkpt lat="45.50149622484624" lon="12.142788354870826"><ele>6.0</ele><time>2026-04-26T20:03:26Z</time></trkpt><trkpt lat="45.50156562502818" lon="12.142596488969382"><ele>6.0</ele><time>2026-04-26T20:03:27Z</time></trkpt><trkpt lat="45.501627642763204" lon="12.14240304058702"><ele>6.0</ele><time>2026-04-26T20:03:28Z</time></trkpt><trkpt lat="45.50169231703275" lon="12.142208630810966"><ele>6.0</ele><time>2026-04-26T20:03:29Z</time></trkpt><trkpt lat="45.50175537423628" lon="12.142014590678299"><ele>6.0</ele><time>2026-04-26T20:03:30Z</time></trkpt><trkpt lat="45.501818568240786" lon="12.141820864222066"><ele>6.0</ele><time>2026-04-26T20:03:31Z</time></trkpt><trkpt lat="45.50188221611538" lon="12.1416282603492"><ele>6.0</ele><time>2026-04-26T20:03:32Z</time></trkpt><trkpt lat="45.50194733893989" lon="12.141434695995024"><ele>6.0</ele><time>2026-04-26T20:03:33Z</time></trkpt><trkpt lat="45.50201576811853" lon="12.141242171885537"><ele>6.0</ele><time>2026-04-26T20:03:34Z</time></trkpt><trkpt lat="45.502081103159796" lon="12.141048825373108"><ele>6.0</ele><time>2026-04-26T20:03:35Z</time></trkpt><trkpt lat="45.50213816546941" lon="12.140852064809366"><ele>6.0</ele><time>2026-04-26T20:03:36Z</time></trkpt><trkpt lat="45.502181709973335" lon="12.140650428507328"><ele>6.0</ele><time>2026-04-26T20:03:37Z</time></trkpt><trkpt lat="45.502210748293955" lon="12.140443549511582"><ele>5.666666666666667</ele><time>2026-04-26T20:03:38Z</time></trkpt><trkpt lat="45.50224547483968" lon="12.140231314808398"><ele>5.333333333333334</ele><time>2026-04-26T20:03:39Z</time></trkpt><trkpt lat="45.50230637984087" lon="12.140023816401929"><ele>5.0</ele><time>2026-04-26T20:03:40Z</time></trkpt><trkpt lat="45.5023890490647" lon="12.139822343312632"><ele>4.666666666666667</ele><time>2026-04-26T20:03:41Z</time></trkpt><trkpt lat="45.50248333827728" lon="12.139610365215043"><ele>4.333333333333333</ele><time>2026-04-26T20:03:42Z</time></trkpt><trkpt lat="45.502579792851" lon="12.139388800645953"><ele>4.0</ele><time>2026-04-26T20:03:43Z</time></trkpt><trkpt lat="45.502686640959304" lon="12.13918415149581"><ele>4.0</ele><time>2026-04-26T20:03:44Z</time></trkpt><trkpt lat="45.502768856088466" lon="12.138957134579732"><ele>4.0</ele><time>2026-04-26T20:03:45Z</time></trkpt><trkpt lat="45.50287055287949" lon="12.138740792606553"><ele>4.0</ele><time>2026-04-26T20:03:46Z</time></trkpt><trkpt lat="45.50297065391172" lon="12.138521798983424"><ele>4.0</ele><time>2026-04-26T20:03:47Z</time></trkpt><trkpt lat="45.50306996408402" lon="12.138300515432618"><ele>4.0</ele><time>2026-04-26T20:03:48Z</time></trkpt><trkpt lat="45.50315781086124" lon="12.138081596597537"><ele>4.0</ele><time>2026-04-26T20:03:49Z</time></trkpt><trkpt lat="45.50324720123936" lon="12.137889863117897"><ele>3.75</ele><time>2026-04-26T20:03:50Z</time></trkpt><trkpt lat="45.5033483318847" lon="12.137730018461275"><ele>3.5</ele><time>2026-04-26T20:03:51Z</time></trkpt><trkpt lat="45.50346022426128" lon="12.13760242307395"><ele>3.25</ele><time>2026-04-26T20:03:52Z</time></trkpt><trkpt lat="45.503582656967325" lon="12.137524321590035"><ele>3.0</ele><time>2026-04-26T20:03:53Z</time></trkpt><trkpt lat="45.503693237228624" lon="12.137435875956315"><ele>3.0</ele><time>2026-04-26T20:03:54Z</time></trkpt><trkpt lat="45.503776464501875" lon="12.137305095044002"><ele>3.0</ele><time>2026-04-26T20:03:55Z</time></trkpt><trkpt lat="45.50385061941103" lon="12.137180063553899"><ele>3.0</ele><time>2026-04-26T20:03:56Z</time></trkpt><trkpt lat="45.50390953973136" lon="12.137042536711045"><ele>3.0</ele><time>2026-04-26T20:03:57Z</time></trkpt><trkpt lat="45.503975079917915" lon="12.136909492933261"><ele>3.0</ele><time>2026-04-26T20:03:58Z</time></trkpt><trkpt lat="45.50402273615385" lon="12.136764075830637"><ele>3.0</ele><time>2026-04-26T20:03:59Z</time></trkpt><trkpt lat="45.50407019666655" lon="12.136612807827929"><ele>3.0</ele><time>2026-04-26T20:04:00Z</time></trkpt><trkpt lat="45.504117719192884" lon="12.136461272079709"><ele>3.0</ele><time>2026-04-26T20:04:01.001Z</time></trkpt><trkpt lat="45.504166783965246" lon="12.136303008479038"><ele>3.25</ele><time>2026-04-26T20:04:02.001Z</time></trkpt><trkpt lat="45.50421847511859" lon="12.136135534258468"><ele>3.5</ele><time>2026-04-26T20:04:03.001Z</time></trkpt><trkpt lat="45.50427230131656" lon="12.135961142702328"><ele>3.75</ele><time>2026-04-26T20:04:04.001Z</time></trkpt><trkpt lat="45.504324055981336" lon="12.135793462710668"><ele>4.0</ele><time>2026-04-26T20:04:05.001Z</time></trkpt><trkpt lat="45.50437730608143" lon="12.135620106858063"><ele>4.0</ele><time>2026-04-26T20:04:06.001Z</time></trkpt><trkpt lat="45.50442903300948" lon="12.13543896426642"><ele>4.0</ele><time>2026-04-26T20:04:07.001Z</time></trkpt><trkpt lat="45.50446506406445" lon="12.135246940306994"><ele>4.0</ele><time>2026-04-26T20:04:08.001Z</time></trkpt><trkpt lat="45.50451718324858" lon="12.135062603392898"><ele>4.0</ele><time>2026-04-26T20:04:09.001Z</time></trkpt><trkpt lat="45.50457915673365" lon="12.134887270167285"><ele>4.0</ele><time>2026-04-26T20:04:10.001Z</time></trkpt><trkpt lat="45.50461066431725" lon="12.13469702650695"><ele>4.0</ele><time>2026-04-26T20:04:11.001Z</time></trkpt><trkpt lat="45.504607692162566" lon="12.134505358937734"><ele>4.0</ele><time>2026-04-26T20:04:12.001Z</time></trkpt><trkpt lat="45.50461006955176" lon="12.134312451368734"><ele>4.0</ele><time>2026-04-26T20:04:13.001Z</time></trkpt><trkpt lat="45.50461911165917" lon="12.134120173389498"><ele>4.5</ele><time>2026-04-26T20:04:14.001Z</time></trkpt><trkpt lat="45.50467311222107" lon="12.133944372407484"><ele>5.0</ele><time>2026-04-26T20:04:15.001Z</time></trkpt><trkpt lat="45.50472401388193" lon="12.133762447305667"><ele>5.5</ele><time>2026-04-26T20:04:16.001Z</time></trkpt><trkpt lat="45.50478063106579" lon="12.133581019416543"><ele>6.0</ele><time>2026-04-26T20:04:17.001Z</time></trkpt><trkpt lat="45.50482602511501" lon="12.133391469239301"><ele>5.75</ele><time>2026-04-26T20:04:18.001Z</time></trkpt><trkpt lat="45.50489333635231" lon="12.133215727079767"><ele>5.5</ele><time>2026-04-26T20:04:19.001Z</time></trkpt><trkpt lat="45.50496460558737" lon="12.133046084395312"><ele>5.25</ele><time>2026-04-26T20:04:20.001Z</time></trkpt><trkpt lat="45.50504378758645" lon="12.13288455568451"><ele>5.0</ele><time>2026-04-26T20:04:21.001Z</time></trkpt><trkpt lat="45.50512398200125" lon="12.132738037100673"><ele>5.0</ele><time>2026-04-26T20:04:22.001Z</time></trkpt><trkpt lat="45.50521293972295" lon="12.13261151803554"><ele>5.0</ele><time>2026-04-26T20:04:23.001Z</time></trkpt><trkpt lat="45.50529006464983" lon="12.132472691764248"><ele>5.0</ele><time>2026-04-26T20:04:24.001Z</time></trkpt><trkpt lat="45.50536045052812" lon="12.132325689724478"><ele>5.0</ele><time>2026-04-26T20:04:25.001Z</time></trkpt><trkpt lat="45.505421577608374" lon="12.13217167657385"><ele>5.25</ele><time>2026-04-26T20:04:26.001Z</time></trkpt><trkpt lat="45.50548155541201" lon="12.132014202937023"><ele>5.5</ele><time>2026-04-26T20:04:27.001Z</time></trkpt><trkpt lat="45.505541478658316" lon="12.13185698320092"><ele>5.75</ele><time>2026-04-26T20:04:28.001Z</time></trkpt><trkpt lat="45.50560204490867" lon="12.131698095113446"><ele>6.0</ele><time>2026-04-26T20:04:29.001Z</time></trkpt><trkpt lat="45.50566473257882" lon="12.131535708966744"><ele>6.0</ele><time>2026-04-26T20:04:30.001Z</time></trkpt><trkpt lat="45.50572603450578" lon="12.131365735110052"><ele>6.0</ele><time>2026-04-26T20:04:31.001Z</time></trkpt><trkpt lat="45.50578617099809" lon="12.131189675545652"><ele>6.0</ele><time>2026-04-26T20:04:32.001Z</time></trkpt><trkpt lat="45.50584747727709" lon="12.13100758545849"><ele>6.0</ele><time>2026-04-26T20:04:33Z</time></trkpt><trkpt lat="45.50590947995686" lon="12.130820196660974"><ele>5.666666666666667</ele><time>2026-04-26T20:04:34Z</time></trkpt><trkpt lat="45.505970292870416" lon="12.130626356703257"><ele>5.333333333333334</ele><time>2026-04-26T20:04:35Z</time></trkpt><trkpt lat="45.50603011182147" lon="12.130430418623272"><ele>5.0</ele><time>2026-04-26T20:04:36Z</time></trkpt><trkpt lat="45.506090827597426" lon="12.130230262260968"><ele>5.0</ele><time>2026-04-26T20:04:37Z</time></trkpt><trkpt lat="45.50615229416258" lon="12.130032185656106"><ele>5.0</ele><time>2026-04-26T20:04:38Z</time></trkpt><trkpt lat="45.506215359256004" lon="12.129846115176429"><ele>5.0</ele><time>2026-04-26T20:04:39Z</time></trkpt><trkpt lat="45.50627986429889" lon="12.129672322182836"><ele>5.0</ele><time>2026-04-26T20:04:40Z</time></trkpt><trkpt lat="45.50633200479503" lon="12.1294893809213"><ele>5.0</ele><time>2026-04-26T20:04:41Z</time></trkpt><trkpt lat="45.50639972033628" lon="12.129317063594334"><ele>5.0</ele><time>2026-04-26T20:04:42Z</time></trkpt><trkpt lat="45.50645323147494" lon="12.129135715550886"><ele>5.0</ele><time>2026-04-26T20:04:43Z</time></trkpt><trkpt lat="45.50649443083755" lon="12.12894848193443"><ele>5.0</ele><time>2026-04-26T20:04:44Z</time></trkpt><trkpt lat="45.50652586859601" lon="12.128755220127262"><ele>5.25</ele><time>2026-04-26T20:04:45Z</time></trkpt><trkpt lat="45.506554825725146" lon="12.128561586556074"><ele>5.5</ele><time>2026-04-26T20:04:46Z</time></trkpt><trkpt lat="45.50658290853884" lon="12.128366117804894"><ele>5.75</ele><time>2026-04-26T20:04:47Z</time></trkpt><trkpt lat="45.50661116816363" lon="12.128172244828217"><ele>6.0</ele><time>2026-04-26T20:04:48Z</time></trkpt><trkpt lat="45.50663562749764" lon="12.127980564958772"><ele>6.0</ele><time>2026-04-26T20:04:49Z</time></trkpt><trkpt lat="45.50665966020435" lon="12.127788381390928"><ele>6.0</ele><time>2026-04-26T20:04:50Z</time></trkpt><trkpt lat="45.50668176026077" lon="12.127598735627451"><ele>6.0</ele><time>2026-04-26T20:04:51Z</time></trkpt><trkpt lat="45.50670489295534" lon="12.127410090733278"><ele>6.0</ele><time>2026-04-26T20:04:52Z</time></trkpt><trkpt lat="45.50673289364444" lon="12.12722402917652"><ele>5.75</ele><time>2026-04-26T20:04:53Z</time></trkpt><trkpt lat="45.50677290678111" lon="12.127043014226622"><ele>5.5</ele><time>2026-04-26T20:04:54Z</time></trkpt><trkpt lat="45.50682563800075" lon="12.126868803123894"><ele>5.25</ele><time>2026-04-26T20:04:55Z</time></trkpt><trkpt lat="45.50688487405951" lon="12.126696682063521"><ele>5.0</ele><time>2026-04-26T20:04:56Z</time></trkpt><trkpt lat="45.50694860169676" lon="12.126527817607089"><ele>5.0</ele><time>2026-04-26T20:04:57Z</time></trkpt><trkpt lat="45.50701697597726" lon="12.12636299089185"><ele>5.0</ele><time>2026-04-26T20:04:58Z</time></trkpt><trkpt lat="45.5070869858924" lon="12.126215157589504"><ele>5.0</ele><time>2026-04-26T20:04:59Z</time></trkpt><trkpt lat="45.50716055409552" lon="12.126079070978097"><ele>5.0</ele><time>2026-04-26T20:05:00Z</time></trkpt><trkpt lat="45.50723732089794" lon="12.125954138181402"><ele>5.25</ele><time>2026-04-26T20:05:01Z</time></trkpt><trkpt lat="45.50732267628905" lon="12.12583883687615"><ele>5.5</ele><time>2026-04-26T20:05:02Z</time></trkpt><trkpt lat="45.50742090597356" lon="12.125735915088342"><ele>5.75</ele><time>2026-04-26T20:05:03Z</time></trkpt><trkpt lat="45.50753784679241" lon="12.12566915346144"><ele>6.0</ele><time>2026-04-26T20:05:04Z</time></trkpt><trkpt lat="45.50765068668823" lon="12.125585305283924"><ele>5.75</ele><time>2026-04-26T20:05:05Z</time></trkpt><trkpt lat="45.50775723407187" lon="12.12548033832884"><ele>5.5</ele><time>2026-04-26T20:05:06Z</time></trkpt><trkpt lat="45.50788033485853" lon="12.125417805106567"><ele>5.25</ele><time>2026-04-26T20:05:07Z</time></trkpt><trkpt lat="45.50799600102446" lon="12.125334738614308"><ele>5.0</ele><time>2026-04-26T20:05:08Z</time></trkpt><trkpt lat="45.50810937701834" lon="12.125250673076842"><ele>5.0</ele><time>2026-04-26T20:05:09Z</time></trkpt><trkpt lat="45.50822119807573" lon="12.125165142409168"><ele>5.0</ele><time>2026-04-26T20:05:10Z</time></trkpt><trkpt lat="45.50832071377604" lon="12.125056006679184"><ele>5.0</ele><time>2026-04-26T20:05:11Z</time></trkpt><trkpt lat="45.508434499001716" lon="12.124977161536567"><ele>5.0</ele><time>2026-04-26T20:05:12Z</time></trkpt><trkpt lat="45.50853755145215" lon="12.124869316315829"><ele>4.75</ele><time>2026-04-26T20:05:13Z</time></trkpt><trkpt lat="45.50863652354906" lon="12.124746136346106"><ele>4.5</ele><time>2026-04-26T20:05:14Z</time></trkpt><trkpt lat="45.508727017647224" lon="12.12461155765918"><ele>4.25</ele><time>2026-04-26T20:05:15Z</time></trkpt><trkpt lat="45.508815010247424" lon="12.124475275692415"><ele>4.0</ele><time>2026-04-26T20:05:16Z</time></trkpt><trkpt lat="45.508902228908234" lon="12.124339771806492"><ele>4.0</ele><time>2026-04-26T20:05:17Z</time></trkpt><trkpt lat="45.50898955443464" lon="12.124204101896371"><ele>4.0</ele><time>2026-04-26T20:05:18Z</time></trkpt><trkpt lat="45.50907703225221" lon="12.124068195387876"><ele>4.0</ele><time>2026-04-26T20:05:19Z</time></trkpt><trkpt lat="45.50916397284358" lon="12.123935328621762"><ele>4.0</ele><time>2026-04-26T20:05:20Z</time></trkpt><trkpt lat="45.50925190325845" lon="12.12380286179357"><ele>4.25</ele><time>2026-04-26T20:05:21Z</time></trkpt><trkpt lat="45.50933909088124" lon="12.123676579590288"><ele>4.5</ele><time>2026-04-26T20:05:22Z</time></trkpt><trkpt lat="45.509422682197325" lon="12.123564225003342"><ele>4.75</ele><time>2026-04-26T20:05:23Z</time></trkpt><trkpt lat="45.50950616204647" lon="12.123455676870147"><ele>5.0</ele><time>2026-04-26T20:05:24Z</time></trkpt><trkpt lat="45.509592630908145" lon="12.123348090552293"><ele>5.0</ele><time>2026-04-26T20:05:25Z</time></trkpt><trkpt lat="45.50968228641664" lon="12.123237824072143"><ele>5.0</ele><time>2026-04-26T20:05:26Z</time></trkpt><trkpt lat="45.509773696088544" lon="12.12312540019031"><ele>5.0</ele><time>2026-04-26T20:05:27Z</time></trkpt><trkpt lat="45.50986480840794" lon="12.123013342015513"><ele>5.0</ele><time>2026-04-26T20:05:28Z</time></trkpt><trkpt lat="45.509954101322606" lon="12.122903521455033"><ele>5.0</ele><time>2026-04-26T20:05:29Z</time></trkpt><trkpt lat="45.510043039005666" lon="12.122794137843838"><ele>5.0</ele><time>2026-04-26T20:05:30Z</time></trkpt><trkpt lat="45.51013229842886" lon="12.122684358496263"><ele>5.0</ele><time>2026-04-26T20:05:31Z</time></trkpt><trkpt lat="45.51022231117402" lon="12.12257610115888"><ele>5.0</ele><time>2026-04-26T20:05:32Z</time></trkpt><trkpt lat="45.510310670649844" lon="12.12246994734361"><ele>5.0</ele><time>2026-04-26T20:05:33Z</time></trkpt><trkpt lat="45.510393651688794" lon="12.122368996723173"><ele>5.0</ele><time>2026-04-26T20:05:34Z</time></trkpt><trkpt lat="45.51047045354252" lon="12.122274975651697"><ele>5.0</ele><time>2026-04-26T20:05:35Z</time></trkpt><trkpt lat="45.510547100085375" lon="12.12218114487251"><ele>5.0</ele><time>2026-04-26T20:05:36Z</time></trkpt><trkpt lat="45.510622574711974" lon="12.12209023952667"><ele>5.0</ele><time>2026-04-26T20:05:37Z</time></trkpt><trkpt lat="45.510688781617134" lon="12.122010186462088"><ele>5.0</ele><time>2026-04-26T20:05:38Z</time></trkpt><trkpt lat="45.510743044148526" lon="12.121942074346748"><ele>5.0</ele><time>2026-04-26T20:05:39Z</time></trkpt><trkpt lat="45.51082010439715" lon="12.121842083955647"><ele>5.0</ele><time>2026-04-26T20:05:41Z</time></trkpt><trkpt lat="45.510868192756895" lon="12.12174383014693"><ele>5.0</ele><time>2026-04-26T20:05:43Z</time></trkpt><trkpt lat="45.51096100134906" lon="12.121631317460437"><ele>5.0</ele><time>2026-04-26T20:05:45Z</time></trkpt><trkpt lat="45.51101676695715" lon="12.121540480481181"><ele>5.25</ele><time>2026-04-26T20:05:46Z</time></trkpt><trkpt lat="45.51108272572549" lon="12.121428989549274"><ele>5.5</ele><time>2026-04-26T20:05:47Z</time></trkpt><trkpt lat="45.51114987747757" lon="12.12130281485359"><ele>5.75</ele><time>2026-04-26T20:05:48Z</time></trkpt><trkpt lat="45.511213426609096" lon="12.121163457005652"><ele>6.0</ele><time>2026-04-26T20:05:49Z</time></trkpt><trkpt lat="45.51128278620978" lon="12.121009137208663"><ele>6.0</ele><time>2026-04-26T20:05:50Z</time></trkpt><trkpt lat="45.51135403854838" lon="12.120850606149212"><ele>6.0</ele><time>2026-04-26T20:05:51Z</time></trkpt><trkpt lat="45.51142285375291" lon="12.120698534534025"><ele>6.0</ele><time>2026-04-26T20:05:52Z</time></trkpt><trkpt lat="45.51149262550462" lon="12.120551272336206"><ele>6.0</ele><time>2026-04-26T20:05:53Z</time></trkpt><trkpt lat="45.511567644780605" lon="12.120401930703816"><ele>6.25</ele><time>2026-04-26T20:05:54Z</time></trkpt><trkpt lat="45.511646543214994" lon="12.120248056591727"><ele>6.5</ele><time>2026-04-26T20:05:55Z</time></trkpt><trkpt lat="45.5117245665916" lon="12.120095889106253"><ele>6.75</ele><time>2026-04-26T20:05:56Z</time></trkpt><trkpt lat="45.51180239089657" lon="12.119944109897334"><ele>7.0</ele><time>2026-04-26T20:05:57Z</time></trkpt><trkpt lat="45.51187905934528" lon="12.119794584898422"><ele>7.0</ele><time>2026-04-26T20:05:58Z</time></trkpt><trkpt lat="45.511953975641944" lon="12.119646597515427"><ele>7.0</ele><time>2026-04-26T20:05:59Z</time></trkpt><trkpt lat="45.512023918253796" lon="12.119497600029991"><ele>7.0</ele><time>2026-04-26T20:06:00Z</time></trkpt><trkpt lat="45.5120867418989" lon="12.119340661183417"><ele>7.0</ele><time>2026-04-26T20:06:01Z</time></trkpt><trkpt lat="45.51214238028749" lon="12.119170329904463"><ele>6.75</ele><time>2026-04-26T20:06:02Z</time></trkpt><trkpt lat="45.51218813377599" lon="12.118986559770814"><ele>6.5</ele><time>2026-04-26T20:06:03Z</time></trkpt><trkpt lat="45.51221388947068" lon="12.118789739328191"><ele>6.25</ele><time>2026-04-26T20:06:04Z</time></trkpt><trkpt lat="45.512271368961876" lon="12.118605122987944"><ele>6.0</ele><time>2026-04-26T20:06:05Z</time></trkpt><trkpt lat="45.512314377881395" lon="12.118414807772307"><ele>6.0</ele><time>2026-04-26T20:06:06Z</time></trkpt><trkpt lat="45.51234430339539" lon="12.118222713842833"><ele>6.0</ele><time>2026-04-26T20:06:07.001Z</time></trkpt><trkpt lat="45.512394460503494" lon="12.118044081488206"><ele>6.0</ele><time>2026-04-26T20:06:08.001Z</time></trkpt><trkpt lat="45.51245713232961" lon="12.11787570727864"><ele>6.0</ele><time>2026-04-26T20:06:09.001Z</time></trkpt><trkpt lat="45.51250448531095" lon="12.11769749672497"><ele>6.0</ele><time>2026-04-26T20:06:10.001Z</time></trkpt><trkpt lat="45.512531281984415" lon="12.117510554665877"><ele>6.0</ele><time>2026-04-26T20:06:11.001Z</time></trkpt><trkpt lat="45.51256583740444" lon="12.117327922751343"><ele>6.0</ele><time>2026-04-26T20:06:12.001Z</time></trkpt><trkpt lat="45.512595738745084" lon="12.117143722211452"><ele>6.0</ele><time>2026-04-26T20:06:13.001Z</time></trkpt><trkpt lat="45.512626414379596" lon="12.116959976851705"><ele>6.0</ele><time>2026-04-26T20:06:14.001Z</time></trkpt><trkpt lat="45.51265382465353" lon="12.116777664859429"><ele>6.0</ele><time>2026-04-26T20:06:15.001Z</time></trkpt><trkpt lat="45.51267029283596" lon="12.11659510762308"><ele>6.0</ele><time>2026-04-26T20:06:16.001Z</time></trkpt><trkpt lat="45.51267733710369" lon="12.116409441128567"><ele>6.0</ele><time>2026-04-26T20:06:17.001Z</time></trkpt><trkpt lat="45.51267414852216" lon="12.116215793579928"><ele>6.0</ele><time>2026-04-26T20:06:18.001Z</time></trkpt><trkpt lat="45.51266397375976" lon="12.116019591340857"><ele>6.0</ele><time>2026-04-26T20:06:19.001Z</time></trkpt><trkpt lat="45.512653634743074" lon="12.115824530491656"><ele>6.0</ele><time>2026-04-26T20:06:20.001Z</time></trkpt><trkpt lat="45.512644963871594" lon="12.115633489587543"><ele>6.0</ele><time>2026-04-26T20:06:21.001Z</time></trkpt><trkpt lat="45.51263848553353" lon="12.115449190687274"><ele>6.0</ele><time>2026-04-26T20:06:22.001Z</time></trkpt><trkpt lat="45.51263147140101" lon="12.115265426498375"><ele>6.0</ele><time>2026-04-26T20:06:23.001Z</time></trkpt><trkpt lat="45.51262469944044" lon="12.11508068106397"><ele>6.0</ele><time>2026-04-26T20:06:24.001Z</time></trkpt><trkpt lat="45.5126185922205" lon="12.114897636317734"><ele>6.0</ele><time>2026-04-26T20:06:25.001Z</time></trkpt><trkpt lat="45.51261261395201" lon="12.114717312424652"><ele>6.0</ele><time>2026-04-26T20:06:26.001Z</time></trkpt><trkpt lat="45.51260464683949" lon="12.114536962760551"><ele>6.0</ele><time>2026-04-26T20:06:27.001Z</time></trkpt><trkpt lat="45.51259670231858" lon="12.114356636136986"><ele>6.0</ele><time>2026-04-26T20:06:28.001Z</time></trkpt><trkpt lat="45.51258877634936" lon="12.114183025215873"><ele>6.0</ele><time>2026-04-26T20:06:29.001Z</time></trkpt><trkpt lat="45.512583308665704" lon="12.114022846007112"><ele>5.833333333333333</ele><time>2026-04-26T20:06:30.001Z</time></trkpt><trkpt lat="45.51257856465157" lon="12.113872691116581"><ele>5.666666666666667</ele><time>2026-04-26T20:06:31.001Z</time></trkpt><trkpt lat="45.51257380205907" lon="12.113732795300056"><ele>5.5</ele><time>2026-04-26T20:06:32.001Z</time></trkpt><trkpt lat="45.51257120422761" lon="12.113604572725807"><ele>5.333333333333334</ele><time>2026-04-26T20:06:33.001Z</time></trkpt><trkpt lat="45.51257341048279" lon="12.113488304418386"><ele>5.166666666666667</ele><time>2026-04-26T20:06:34.001Z</time></trkpt><trkpt lat="45.512582231667686" lon="12.11339078493616"><ele>5.0</ele><time>2026-04-26T20:06:35.001Z</time></trkpt><trkpt lat="45.51260258087013" lon="12.113302006320994"><ele>4.666666666666667</ele><time>2026-04-26T20:06:36.001Z</time></trkpt><trkpt lat="45.512646322209115" lon="12.113219313685484"><ele>4.333333333333334</ele><time>2026-04-26T20:06:37.001Z</time></trkpt><trkpt lat="45.51271096794914" lon="12.113146758663031"><ele>4.0</ele><time>2026-04-26T20:06:38.001Z</time></trkpt><trkpt lat="45.51278175895242" lon="12.113106035586208"><ele>3.666666666666667</ele><time>2026-04-26T20:06:39Z</time></trkpt><trkpt lat="45.512808519691106" lon="12.112971252085135"><ele>3.3333333333333335</ele><time>2026-04-26T20:06:40Z</time></trkpt><trkpt lat="45.51283117371561" lon="12.112851165233627"><ele>3.0</ele><time>2026-04-26T20:06:41Z</time></trkpt><trkpt lat="45.51284647403628" lon="12.11272201887717"><ele>3.0</ele><time>2026-04-26T20:06:42Z</time></trkpt><trkpt lat="45.512881662219634" lon="12.112585197894369"><ele>3.0</ele><time>2026-04-26T20:06:43Z</time></trkpt><trkpt lat="45.51293230300142" lon="12.112451547609897"><ele>3.0</ele><time>2026-04-26T20:06:44Z</time></trkpt><trkpt lat="45.51298505981376" lon="12.112322275426937"><ele>3.0</ele><time>2026-04-26T20:06:45Z</time></trkpt><trkpt lat="45.513038993849854" lon="12.11219258815725"><ele>3.0</ele><time>2026-04-26T20:06:46Z</time></trkpt><trkpt lat="45.513097456135895" lon="12.112051045828485"><ele>3.5</ele><time>2026-04-26T20:06:47Z</time></trkpt><trkpt lat="45.51315826604487" lon="12.111904989321461"><ele>4.0</ele><time>2026-04-26T20:06:48Z</time></trkpt><trkpt lat="45.51322027259752" lon="12.111753797897638"><ele>4.5</ele><time>2026-04-26T20:06:49Z</time></trkpt><trkpt lat="45.51328127694365" lon="12.111598641243887"><ele>5.0</ele><time>2026-04-26T20:06:50Z</time></trkpt><trkpt lat="45.51334364779613" lon="12.111438299322051"><ele>5.0</ele><time>2026-04-26T20:06:51Z</time></trkpt><trkpt lat="45.51340705303969" lon="12.111274075533219"><ele>5.0</ele><time>2026-04-26T20:06:52Z</time></trkpt><trkpt lat="45.513470961110734" lon="12.111107451214627"><ele>5.0</ele><time>2026-04-26T20:06:53Z</time></trkpt><trkpt lat="45.5135369387822" lon="12.110937854293425"><ele>5.0</ele><time>2026-04-26T20:06:54Z</time></trkpt><trkpt lat="45.51360130298073" lon="12.110773189685835"><ele>5.0</ele><time>2026-04-26T20:06:55Z</time></trkpt><trkpt lat="45.513668130746154" lon="12.110600129113518"><ele>5.0</ele><time>2026-04-26T20:06:56Z</time></trkpt><trkpt lat="45.5137374496734" lon="12.110421298553138"><ele>5.0</ele><time>2026-04-26T20:06:57Z</time></trkpt><trkpt lat="45.51381010705367" lon="12.11024174093837"><ele>5.0</ele><time>2026-04-26T20:06:58Z</time></trkpt><trkpt lat="45.51388443759115" lon="12.110063320408646"><ele>5.5</ele><time>2026-04-26T20:06:59Z</time></trkpt><trkpt lat="45.51395772939564" lon="12.10988313974301"><ele>6.0</ele><time>2026-04-26T20:07:00Z</time></trkpt><trkpt lat="45.51402972608078" lon="12.109700502642214"><ele>6.5</ele><time>2026-04-26T20:07:01Z</time></trkpt><trkpt lat="45.514102441206525" lon="12.109513558329844"><ele>7.0</ele><time>2026-04-26T20:07:02Z</time></trkpt><trkpt lat="45.51417358878413" lon="12.109327555901984"><ele>7.0</ele><time>2026-04-26T20:07:03Z</time></trkpt><trkpt lat="45.51424560968009" lon="12.109142839339857"><ele>7.0</ele><time>2026-04-26T20:07:04Z</time></trkpt><trkpt lat="45.51431839663951" lon="12.108959582369808"><ele>7.0</ele><time>2026-04-26T20:07:05Z</time></trkpt><trkpt lat="45.51439242887563" lon="12.10877576485939"><ele>7.0</ele><time>2026-04-26T20:07:06Z</time></trkpt><trkpt lat="45.51446524331858" lon="12.108591191680038"><ele>7.0</ele><time>2026-04-26T20:07:07Z</time></trkpt><trkpt lat="45.51453953927978" lon="12.1084046844976"><ele>7.0</ele><time>2026-04-26T20:07:08Z</time></trkpt><trkpt lat="45.51461400652264" lon="12.108216487520902"><ele>7.0</ele><time>2026-04-26T20:07:09Z</time></trkpt><trkpt lat="45.5146887181425" lon="12.108027435867836"><ele>8.0</ele><time>2026-04-26T20:07:10Z</time></trkpt><trkpt lat="45.51476306750511" lon="12.107835677034505"><ele>9.0</ele><time>2026-04-26T20:07:11Z</time></trkpt><trkpt lat="45.51483738487597" lon="12.107643604579025"><ele>10.0</ele><time>2026-04-26T20:07:12Z</time></trkpt><trkpt lat="45.514911209174784" lon="12.107451271013062"><ele>9.666666666666668</ele><time>2026-04-26T20:07:13Z</time></trkpt><trkpt lat="45.51498487961473" lon="12.107257262700324"><ele>9.333333333333334</ele><time>2026-04-26T20:07:14Z</time></trkpt><trkpt lat="45.51506000341831" lon="12.1070637973483"><ele>9.0</ele><time>2026-04-26T20:07:15Z</time></trkpt><trkpt lat="45.51513599052534" lon="12.106871627129527"><ele>9.0</ele><time>2026-04-26T20:07:16Z</time></trkpt><trkpt lat="45.51521051074959" lon="12.10667795497602"><ele>9.0</ele><time>2026-04-26T20:07:17Z</time></trkpt><trkpt lat="45.51528696476406" lon="12.10648153878964"><ele>9.0</ele><time>2026-04-26T20:07:18Z</time></trkpt><trkpt lat="45.51536462975944" lon="12.106281963931446"><ele>8.666666666666666</ele><time>2026-04-26T20:07:19Z</time></trkpt><trkpt lat="45.51544447105389" lon="12.106078426882606"><ele>8.333333333333332</ele><time>2026-04-26T20:07:20Z</time></trkpt><trkpt lat="45.51552567191471" lon="12.105871351606632"><ele>8.0</ele><time>2026-04-26T20:07:21Z</time></trkpt><trkpt lat="45.51560705686645" lon="12.105659916311367"><ele>7.666666666666666</ele><time>2026-04-26T20:07:22Z</time></trkpt><trkpt lat="45.515689444503984" lon="12.10544532494934"><ele>7.333333333333334</ele><time>2026-04-26T20:07:23Z</time></trkpt><trkpt lat="45.51577121793394" lon="12.105239187480882"><ele>7.0</ele><time>2026-04-26T20:07:24Z</time></trkpt><trkpt lat="45.51585471426327" lon="12.105036151245772"><ele>6.666666666666667</ele><time>2026-04-26T20:07:25Z</time></trkpt><trkpt lat="45.51593802680276" lon="12.104825378443834"><ele>6.333333333333334</ele><time>2026-04-26T20:07:26Z</time></trkpt><trkpt lat="45.51602567702848" lon="12.104618254356504"><ele>6.0</ele><time>2026-04-26T20:07:27Z</time></trkpt><trkpt lat="45.5161183093842" lon="12.104416512887633"><ele>6.0</ele><time>2026-04-26T20:07:28Z</time></trkpt><trkpt lat="45.51621091382034" lon="12.104218379674284"><ele>6.0</ele><time>2026-04-26T20:07:29Z</time></trkpt><trkpt lat="45.51630493224661" lon="12.104026448690092"><ele>6.0</ele><time>2026-04-26T20:07:30Z</time></trkpt><trkpt lat="45.516398710912824" lon="12.103841922321338"><ele>6.333333333333334</ele><time>2026-04-26T20:07:31Z</time></trkpt><trkpt lat="45.51649067011916" lon="12.103669306317016"><ele>6.666666666666667</ele><time>2026-04-26T20:07:32Z</time></trkpt><trkpt lat="45.516582374244344" lon="12.103501187448817"><ele>7.0</ele><time>2026-04-26T20:07:33Z</time></trkpt><trkpt lat="45.516674878417575" lon="12.103332761167913"><ele>7.0</ele><time>2026-04-26T20:07:34Z</time></trkpt><trkpt lat="45.5167687486863" lon="12.103165356444778"><ele>7.0</ele><time>2026-04-26T20:07:35Z</time></trkpt><trkpt lat="45.51686067925775" lon="12.102994097753177"><ele>7.0</ele><time>2026-04-26T20:07:36Z</time></trkpt><trkpt lat="45.51695255944023" lon="12.102820621538404"><ele>7.0</ele><time>2026-04-26T20:07:37Z</time></trkpt><trkpt lat="45.51704619325179" lon="12.102645811630072"><ele>7.0</ele><time>2026-04-26T20:07:38Z</time></trkpt><trkpt lat="45.517139032084174" lon="12.102471300772752"><ele>7.0</ele><time>2026-04-26T20:07:39Z</time></trkpt><trkpt lat="45.51723363557301" lon="12.102296364038281"><ele>7.0</ele><time>2026-04-26T20:07:40Z</time></trkpt><trkpt lat="45.51732943542305" lon="12.102119803794587"><ele>7.0</ele><time>2026-04-26T20:07:41Z</time></trkpt><trkpt lat="45.51742465957958" lon="12.101944475456198"><ele>7.0</ele><time>2026-04-26T20:07:42Z</time></trkpt><trkpt lat="45.51752010835302" lon="12.101769368324799"><ele>7.0</ele><time>2026-04-26T20:07:43Z</time></trkpt><trkpt lat="45.51761592069234" lon="12.101595449499452"><ele>7.0</ele><time>2026-04-26T20:07:44Z</time></trkpt><trkpt lat="45.51771128424976" lon="12.101421650523074"><ele>7.0</ele><time>2026-04-26T20:07:45Z</time></trkpt><trkpt lat="45.517806691673734" lon="12.101245471135623"><ele>7.0</ele><time>2026-04-26T20:07:46Z</time></trkpt><trkpt lat="45.51790013790331" lon="12.10106848714219"><ele>7.0</ele><time>2026-04-26T20:07:47Z</time></trkpt><trkpt lat="45.51799457474289" lon="12.100892159096572"><ele>7.0</ele><time>2026-04-26T20:07:48Z</time></trkpt><trkpt lat="45.518089718478684" lon="12.100717025545848"><ele>7.0</ele><time>2026-04-26T20:07:49Z</time></trkpt><trkpt lat="45.5181851099521" lon="12.100541504331009"><ele>7.0</ele><time>2026-04-26T20:07:50Z</time></trkpt><trkpt lat="45.51828094578508" lon="12.100366308477893"><ele>7.0</ele><time>2026-04-26T20:07:51Z</time></trkpt><trkpt lat="45.51837627135452" lon="12.100189930219157"><ele>7.0</ele><time>2026-04-26T20:07:52Z</time></trkpt><trkpt lat="45.518471696803395" lon="12.100013655796047"><ele>7.0</ele><time>2026-04-26T20:07:53Z</time></trkpt><trkpt lat="45.51856710844273" lon="12.099835455466758"><ele>7.0</ele><time>2026-04-26T20:07:54Z</time></trkpt><trkpt lat="45.51866172295575" lon="12.099657438848087"><ele>7.666666666666667</ele><time>2026-04-26T20:07:55Z</time></trkpt><trkpt lat="45.51875911156877" lon="12.099478607145379"><ele>8.333333333333334</ele><time>2026-04-26T20:07:56Z</time></trkpt><trkpt lat="45.51885749616261" lon="12.099299809211834"><ele>9.0</ele><time>2026-04-26T20:07:57Z</time></trkpt><trkpt lat="45.51895770000068" lon="12.09912395728241"><ele>8.666666666666666</ele><time>2026-04-26T20:07:58Z</time></trkpt><trkpt lat="45.5190597070921" lon="12.098947951487617"><ele>8.333333333333332</ele><time>2026-04-26T20:07:59Z</time></trkpt><trkpt lat="45.51916283236689" lon="12.098777089595744"><ele>8.0</ele><time>2026-04-26T20:08:00Z</time></trkpt><trkpt lat="45.51926716849872" lon="12.098608048045215"><ele>8.0</ele><time>2026-04-26T20:08:01Z</time></trkpt><trkpt lat="45.51937064218118" lon="12.098441141666104"><ele>8.0</ele><time>2026-04-26T20:08:02Z</time></trkpt><trkpt lat="45.51947369097663" lon="12.098274041755921"><ele>8.0</ele><time>2026-04-26T20:08:03Z</time></trkpt><trkpt lat="45.51957653074798" lon="12.098106441226385"><ele>8.0</ele><time>2026-04-26T20:08:04Z</time></trkpt><trkpt lat="45.51967837318251" lon="12.097939036501685"><ele>8.0</ele><time>2026-04-26T20:08:05Z</time></trkpt><trkpt lat="45.519779147583186" lon="12.09777294587462"><ele>8.0</ele><time>2026-04-26T20:08:06Z</time></trkpt><trkpt lat="45.51987984794389" lon="12.097610629836947"><ele>8.0</ele><time>2026-04-26T20:08:07Z</time></trkpt><trkpt lat="45.519980003007625" lon="12.09744882545797"><ele>8.0</ele><time>2026-04-26T20:08:08Z</time></trkpt><trkpt lat="45.52007347218012" lon="12.097290421507983"><ele>8.0</ele><time>2026-04-26T20:08:09Z</time></trkpt><trkpt lat="45.5201659309949" lon="12.09713766189413"><ele>8.0</ele><time>2026-04-26T20:08:10Z</time></trkpt><trkpt lat="45.520252696807574" lon="12.096994953587723"><ele>8.0</ele><time>2026-04-26T20:08:11Z</time></trkpt><trkpt lat="45.520337204313606" lon="12.096861816349897"><ele>8.0</ele><time>2026-04-26T20:08:12Z</time></trkpt><trkpt lat="45.52041987396718" lon="12.096730375990445"><ele>8.0</ele><time>2026-04-26T20:08:13Z</time></trkpt><trkpt lat="45.52049951057905" lon="12.096600861788302"><ele>8.0</ele><time>2026-04-26T20:08:14Z</time></trkpt><trkpt lat="45.520575289986546" lon="12.096474839274736"><ele>8.200000000000001</ele><time>2026-04-26T20:08:15Z</time></trkpt><trkpt lat="45.520649280759876" lon="12.096349660779806"><ele>8.4</ele><time>2026-04-26T20:08:16Z</time></trkpt><trkpt lat="45.52072247481642" lon="12.096227219437285"><ele>8.600000000000001</ele><time>2026-04-26T20:08:17Z</time></trkpt><trkpt lat="45.52078901870591" lon="12.096115297704053"><ele>8.8</ele><time>2026-04-26T20:08:18Z</time></trkpt><trkpt lat="45.52085197557128" lon="12.096012618944044"><ele>9.0</ele><time>2026-04-26T20:08:19Z</time></trkpt><trkpt lat="45.520911222444546" lon="12.095917285877599"><ele>9.0</ele><time>2026-04-26T20:08:20Z</time></trkpt><trkpt lat="45.52096334126906" lon="12.095834089740304"><ele>9.0</ele><time>2026-04-26T20:08:21Z</time></trkpt><trkpt lat="45.52101183997063" lon="12.095760556220927"><ele>9.0</ele><time>2026-04-26T20:08:22Z</time></trkpt><trkpt lat="45.52110411079619" lon="12.09566504333321"><ele>9.0</ele><time>2026-04-26T20:08:24Z</time></trkpt><trkpt lat="45.521168283030704" lon="12.095651531090336"><ele>9.0</ele><time>2026-04-26T20:08:25.001Z</time></trkpt><trkpt lat="45.52123675431204" lon="12.09565099436767"><ele>9.0</ele><time>2026-04-26T20:08:26.001Z</time></trkpt><trkpt lat="45.52134068324488" lon="12.095540237120462"><ele>9.0</ele><time>2026-04-26T20:08:28.001Z</time></trkpt><trkpt lat="45.52136376991465" lon="12.095448264054133"><ele>9.0</ele><time>2026-04-26T20:08:29.001Z</time></trkpt><trkpt lat="45.521369520974076" lon="12.095357870380804"><ele>9.0</ele><time>2026-04-26T20:08:30.001Z</time></trkpt><trkpt lat="45.52138524000553" lon="12.095206453505542"><ele>9.0</ele><time>2026-04-26T20:08:32.001Z</time></trkpt><trkpt lat="45.52141547574257" lon="12.09512003820373"><ele>9.0</ele><time>2026-04-26T20:08:33.001Z</time></trkpt><trkpt lat="45.5214510908881" lon="12.095021356161126"><ele>9.0</ele><time>2026-04-26T20:08:34.001Z</time></trkpt><trkpt lat="45.521487166281865" lon="12.09491635126817"><ele>8.833333333333334</ele><time>2026-04-26T20:08:35.001Z</time></trkpt><trkpt lat="45.52152808525702" lon="12.094808761149833"><ele>8.666666666666666</ele><time>2026-04-26T20:08:36.001Z</time></trkpt><trkpt lat="45.5215719716445" lon="12.094703417427814"><ele>8.5</ele><time>2026-04-26T20:08:37.001Z</time></trkpt><trkpt lat="45.52162046476251" lon="12.094600794778673"><ele>8.333333333333332</ele><time>2026-04-26T20:08:38.001Z</time></trkpt><trkpt lat="45.521672224151246" lon="12.094500439951743"><ele>8.166666666666666</ele><time>2026-04-26T20:08:39.001Z</time></trkpt><trkpt lat="45.52173198145336" lon="12.094386634177743"><ele>8.0</ele><time>2026-04-26T20:08:40.001Z</time></trkpt><trkpt lat="45.521799407460676" lon="12.094262074952676"><ele>8.0</ele><time>2026-04-26T20:08:41.001Z</time></trkpt><trkpt lat="45.52186284122543" lon="12.094146728889916"><ele>8.0</ele><time>2026-04-26T20:08:42.001Z</time></trkpt><trkpt lat="45.52192540904388" lon="12.094028847648012"><ele>8.0</ele><time>2026-04-26T20:08:43.001Z</time></trkpt><trkpt lat="45.52198837970542" lon="12.093903226280778"><ele>8.0</ele><time>2026-04-26T20:08:44.001Z</time></trkpt><trkpt lat="45.52205505153633" lon="12.093771839798551"><ele>8.0</ele><time>2026-04-26T20:08:45Z</time></trkpt><trkpt lat="45.52212192526313" lon="12.093642480547102"><ele>8.0</ele><time>2026-04-26T20:08:46Z</time></trkpt><trkpt lat="45.522190302847065" lon="12.093513383306188"><ele>8.0</ele><time>2026-04-26T20:08:47Z</time></trkpt><trkpt lat="45.52225899914571" lon="12.093383286089317"><ele>8.0</ele><time>2026-04-26T20:08:48Z</time></trkpt><trkpt lat="45.52232975841972" lon="12.093252332646747"><ele>8.0</ele><time>2026-04-26T20:08:49Z</time></trkpt><trkpt lat="45.52239939536195" lon="12.093119251595255"><ele>8.0</ele><time>2026-04-26T20:08:50Z</time></trkpt><trkpt lat="45.52246813249663" lon="12.09298265257914"><ele>8.0</ele><time>2026-04-26T20:08:51Z</time></trkpt><trkpt lat="45.52255128512146" lon="12.092859087243538"><ele>8.0</ele><time>2026-04-26T20:08:52Z</time></trkpt><trkpt lat="45.52262343787917" lon="12.092722026729264"><ele>8.0</ele><time>2026-04-26T20:08:53Z</time></trkpt><trkpt lat="45.52269569515664" lon="12.09258476855321"><ele>8.0</ele><time>2026-04-26T20:08:54Z</time></trkpt><trkpt lat="45.522767931016304" lon="12.092448006124775"><ele>8.0</ele><time>2026-04-26T20:08:55Z</time></trkpt><trkpt lat="45.52282950026362" lon="12.09229617142035"><ele>8.0</ele><time>2026-04-26T20:08:56Z</time></trkpt><trkpt lat="45.52290311628473" lon="12.092157940615236"><ele>8.0</ele><time>2026-04-26T20:08:57Z</time></trkpt><trkpt lat="45.522976508764124" lon="12.092018479682636"><ele>8.0</ele><time>2026-04-26T20:08:58Z</time></trkpt><trkpt lat="45.523049201178615" lon="12.091878823171172"><ele>8.0</ele><time>2026-04-26T20:08:59Z</time></trkpt><trkpt lat="45.52313610692169" lon="12.091753775403218"><ele>8.0</ele><time>2026-04-26T20:09:00Z</time></trkpt><trkpt lat="45.52321055700678" lon="12.091613818383783"><ele>8.0</ele><time>2026-04-26T20:09:01Z</time></trkpt><trkpt lat="45.52328508741143" lon="12.091473697302199"><ele>8.0</ele><time>2026-04-26T20:09:02Z</time></trkpt><trkpt lat="45.523361538645055" lon="12.091331125302204"><ele>8.0</ele><time>2026-04-26T20:09:03Z</time></trkpt><trkpt lat="45.52344283142888" lon="12.09117929146097"><ele>8.0</ele><time>2026-04-26T20:09:04Z</time></trkpt><trkpt lat="45.523527795812434" lon="12.09102059997929"><ele>8.0</ele><time>2026-04-26T20:09:05Z</time></trkpt><trkpt lat="45.523610541048114" lon="12.090866053862172"><ele>8.333333333333332</ele><time>2026-04-26T20:09:06Z</time></trkpt><trkpt lat="45.523696655892074" lon="12.090704212397586"><ele>8.666666666666666</ele><time>2026-04-26T20:09:07Z</time></trkpt><trkpt lat="45.52378814603538" lon="12.090532421603136"><ele>9.0</ele><time>2026-04-26T20:09:08Z</time></trkpt><trkpt lat="45.523882830051" lon="12.090354633622395"><ele>9.0</ele><time>2026-04-26T20:09:09Z</time></trkpt><trkpt lat="45.52397944722028" lon="12.090173217346972"><ele>9.0</ele><time>2026-04-26T20:09:10Z</time></trkpt><trkpt lat="45.524076917969566" lon="12.089989773842134"><ele>9.0</ele><time>2026-04-26T20:09:11Z</time></trkpt><trkpt lat="45.52415428761068" lon="12.08978043453229"><ele>9.666666666666666</ele><time>2026-04-26T20:09:12Z</time></trkpt><trkpt lat="45.52425453684283" lon="12.089594461937804"><ele>10.333333333333332</ele><time>2026-04-26T20:09:13Z</time></trkpt><trkpt lat="45.524355817177" lon="12.089409296825924"><ele>11.0</ele><time>2026-04-26T20:09:14Z</time></trkpt><trkpt lat="45.524456160770676" lon="12.089223243305241"><ele>11.0</ele><time>2026-04-26T20:09:15Z</time></trkpt><trkpt lat="45.52455431806225" lon="12.08903813966682"><ele>11.0</ele><time>2026-04-26T20:09:16Z</time></trkpt><trkpt lat="45.52466666878274" lon="12.088869774566358"><ele>11.0</ele><time>2026-04-26T20:09:17Z</time></trkpt><trkpt lat="45.52476278931482" lon="12.088686354905075"><ele>10.333333333333332</ele><time>2026-04-26T20:09:18Z</time></trkpt><trkpt lat="45.52484440888687" lon="12.088489593120682"><ele>9.666666666666666</ele><time>2026-04-26T20:09:19Z</time></trkpt><trkpt lat="45.52493852539055" lon="12.088308993510676"><ele>9.0</ele><time>2026-04-26T20:09:20Z</time></trkpt><trkpt lat="45.5250317088964" lon="12.088129613988562"><ele>8.666666666666666</ele><time>2026-04-26T20:09:21Z</time></trkpt><trkpt lat="45.52512562602015" lon="12.08795121745632"><ele>8.333333333333332</ele><time>2026-04-26T20:09:22Z</time></trkpt><trkpt lat="45.52521806945294" lon="12.08777336386507"><ele>8.0</ele><time>2026-04-26T20:09:23Z</time></trkpt><trkpt lat="45.52530951963563" lon="12.087593869397809"><ele>9.0</ele><time>2026-04-26T20:09:24Z</time></trkpt><trkpt lat="45.52540317295005" lon="12.087408837214387"><ele>10.0</ele><time>2026-04-26T20:09:25Z</time></trkpt><trkpt lat="45.52549938555486" lon="12.087222948809533"><ele>11.0</ele><time>2026-04-26T20:09:26Z</time></trkpt><trkpt lat="45.52559637940266" lon="12.08703657327462"><ele>11.0</ele><time>2026-04-26T20:09:27Z</time></trkpt><trkpt lat="45.525691514914534" lon="12.086849155893239"><ele>11.0</ele><time>2026-04-26T20:09:28Z</time></trkpt><trkpt lat="45.52580746175459" lon="12.086700210516359"><ele>11.0</ele><time>2026-04-26T20:09:29Z</time></trkpt><trkpt lat="45.525895259349774" lon="12.086530085722753"><ele>11.0</ele><time>2026-04-26T20:09:30Z</time></trkpt><trkpt lat="45.52598630322474" lon="12.08635566228735"><ele>11.0</ele><time>2026-04-26T20:09:31Z</time></trkpt><trkpt lat="45.526078882901345" lon="12.086177944699399"><ele>11.0</ele><time>2026-04-26T20:09:32Z</time></trkpt><trkpt lat="45.526170888210395" lon="12.086001952622954"><ele>10.333333333333332</ele><time>2026-04-26T20:09:33Z</time></trkpt><trkpt lat="45.52626231641876" lon="12.085827058052416"><ele>9.666666666666666</ele><time>2026-04-26T20:09:34Z</time></trkpt><trkpt lat="45.52635340256363" lon="12.085653061009472"><ele>9.0</ele><time>2026-04-26T20:09:35Z</time></trkpt><trkpt lat="45.52644515072648" lon="12.085478146490448"><ele>8.666666666666666</ele><time>2026-04-26T20:09:36Z</time></trkpt><trkpt lat="45.526536958762186" lon="12.085303117819215"><ele>8.333333333333332</ele><time>2026-04-26T20:09:37Z</time></trkpt><trkpt lat="45.52662892924499" lon="12.085127779453439"><ele>8.0</ele><time>2026-04-26T20:09:38Z</time></trkpt><trkpt lat="45.52672100950775" lon="12.084953575265779"><ele>8.333333333333332</ele><time>2026-04-26T20:09:39Z</time></trkpt><trkpt lat="45.526814592440935" lon="12.08477946108958"><ele>8.666666666666666</ele><time>2026-04-26T20:09:40Z</time></trkpt><trkpt lat="45.52690457838045" lon="12.084603976059068"><ele>9.0</ele><time>2026-04-26T20:09:41Z</time></trkpt><trkpt lat="45.526998038114584" lon="12.084428537484285"><ele>9.0</ele><time>2026-04-26T20:09:42Z</time></trkpt><trkpt lat="45.52709357417042" lon="12.08425051827374"><ele>9.0</ele><time>2026-04-26T20:09:43Z</time></trkpt><trkpt lat="45.52718026025666" lon="12.08406033099469"><ele>9.0</ele><time>2026-04-26T20:09:44Z</time></trkpt><trkpt lat="45.527306916485045" lon="12.08391962606675"><ele>9.0</ele><time>2026-04-26T20:09:45Z</time></trkpt><trkpt lat="45.52742930428829" lon="12.083776234538897"><ele>9.0</ele><time>2026-04-26T20:09:46Z</time></trkpt><trkpt lat="45.527560084029524" lon="12.083644873912744"><ele>9.0</ele><time>2026-04-26T20:09:47Z</time></trkpt><trkpt lat="45.52769549759549" lon="12.083532656677953"><ele>9.0</ele><time>2026-04-26T20:09:48Z</time></trkpt><trkpt lat="45.527834668625346" lon="12.08344463589991"><ele>9.0</ele><time>2026-04-26T20:09:49Z</time></trkpt><trkpt lat="45.52797100634785" lon="12.083371377850158"><ele>9.0</ele><time>2026-04-26T20:09:50Z</time></trkpt><trkpt lat="45.52810275045229" lon="12.083321064860485"><ele>9.0</ele><time>2026-04-26T20:09:51Z</time></trkpt><trkpt lat="45.52823259699106" lon="12.083281109614923"><ele>8.75</ele><time>2026-04-26T20:09:52Z</time></trkpt><trkpt lat="45.528366944218185" lon="12.08324794565759"><ele>8.5</ele><time>2026-04-26T20:09:53Z</time></trkpt><trkpt lat="45.52850673874522" lon="12.083235494372563"><ele>8.25</ele><time>2026-04-26T20:09:54Z</time></trkpt><trkpt lat="45.52865234507129" lon="12.083221232523437"><ele>8.0</ele><time>2026-04-26T20:09:55Z</time></trkpt><trkpt lat="45.52880209528241" lon="12.083207409426414"><ele>8.0</ele><time>2026-04-26T20:09:56Z</time></trkpt><trkpt lat="45.52895358678216" lon="12.08319342559727"><ele>8.0</ele><time>2026-04-26T20:09:57Z</time></trkpt><trkpt lat="45.529105319110535" lon="12.08317941955665"><ele>8.0</ele><time>2026-04-26T20:09:58Z</time></trkpt><trkpt lat="45.52925894232676" lon="12.083165272467324"><ele>8.0</ele><time>2026-04-26T20:09:59Z</time></trkpt><trkpt lat="45.52941313731365" lon="12.0831499087505"><ele>8.0</ele><time>2026-04-26T20:10:00Z</time></trkpt><trkpt lat="45.529567404557724" lon="12.083134753234692"><ele>8.0</ele><time>2026-04-26T20:10:01Z</time></trkpt><trkpt lat="45.52972390117457" lon="12.083119446039413"><ele>8.333333333333332</ele><time>2026-04-26T20:10:02Z</time></trkpt><trkpt lat="45.52988258050971" lon="12.083105692439434"><ele>8.666666666666666</ele><time>2026-04-26T20:10:03Z</time></trkpt><trkpt lat="45.530045269149255" lon="12.08309184615974"><ele>9.0</ele><time>2026-04-26T20:10:04Z</time></trkpt><trkpt lat="45.53020925560347" lon="12.083077889424533"><ele>9.0</ele><time>2026-04-26T20:10:05Z</time></trkpt><trkpt lat="45.53037447923848" lon="12.083063827393083"><ele>9.0</ele><time>2026-04-26T20:10:06Z</time></trkpt><trkpt lat="45.53054023456013" lon="12.083049722143798"><ele>9.0</ele><time>2026-04-26T20:10:07Z</time></trkpt><trkpt lat="45.53070445848157" lon="12.083037033300387"><ele>9.0</ele><time>2026-04-26T20:10:08Z</time></trkpt><trkpt lat="45.530868539997535" lon="12.083024292186169"><ele>9.0</ele><time>2026-04-26T20:10:09Z</time></trkpt><trkpt lat="45.53103300543537" lon="12.08301152125395"><ele>9.0</ele><time>2026-04-26T20:10:10Z</time></trkpt><trkpt lat="45.53119943727779" lon="12.083000955614608"><ele>9.0</ele><time>2026-04-26T20:10:11Z</time></trkpt><trkpt lat="45.53136680282667" lon="12.082991013282134"><ele>9.0</ele><time>2026-04-26T20:10:12Z</time></trkpt><trkpt lat="45.53153660796688" lon="12.082985557696517"><ele>9.0</ele><time>2026-04-26T20:10:13Z</time></trkpt><trkpt lat="45.53170583479018" lon="12.082983482838875"><ele>9.0</ele><time>2026-04-26T20:10:14Z</time></trkpt><trkpt lat="45.53187375132243" lon="12.082986073373219"><ele>9.0</ele><time>2026-04-26T20:10:15Z</time></trkpt><trkpt lat="45.532038323813175" lon="12.082994129445312"><ele>9.0</ele><time>2026-04-26T20:10:16Z</time></trkpt><trkpt lat="45.53220171687659" lon="12.083004090661612"><ele>9.0</ele><time>2026-04-26T20:10:17Z</time></trkpt><trkpt lat="45.53236003136583" lon="12.083015537733273"><ele>9.0</ele><time>2026-04-26T20:10:18Z</time></trkpt><trkpt lat="45.53250699288123" lon="12.083028487625274"><ele>9.0</ele><time>2026-04-26T20:10:19Z</time></trkpt><trkpt lat="45.532651711088576" lon="12.083041824390975"><ele>9.0</ele><time>2026-04-26T20:10:20Z</time></trkpt><trkpt lat="45.53279625402156" lon="12.083037340473776"><ele>9.0</ele><time>2026-04-26T20:10:21Z</time></trkpt><trkpt lat="45.53293974263403" lon="12.083056175869125"><ele>9.0</ele><time>2026-04-26T20:10:22Z</time></trkpt><trkpt lat="45.53308310218048" lon="12.083072903196314"><ele>9.0</ele><time>2026-04-26T20:10:23Z</time></trkpt><trkpt lat="45.53322634269697" lon="12.083090536869012"><ele>8.75</ele><time>2026-04-26T20:10:24Z</time></trkpt><trkpt lat="45.53337158276626" lon="12.083109232097549"><ele>8.5</ele><time>2026-04-26T20:10:25Z</time></trkpt><trkpt lat="45.53351822181155" lon="12.083128303552998"><ele>8.25</ele><time>2026-04-26T20:10:26Z</time></trkpt><trkpt lat="45.533667030955975" lon="12.083144531528443"><ele>8.0</ele><time>2026-04-26T20:10:27Z</time></trkpt><trkpt lat="45.533815944839915" lon="12.083160600433743"><ele>8.666666666666666</ele><time>2026-04-26T20:10:28Z</time></trkpt><trkpt lat="45.53396601405056" lon="12.08317717314692"><ele>9.333333333333334</ele><time>2026-04-26T20:10:29Z</time></trkpt><trkpt lat="45.534116981383995" lon="12.08319438789924"><ele>10.0</ele><time>2026-04-26T20:10:30Z</time></trkpt><trkpt lat="45.534267950870614" lon="12.083211917196603"><ele>10.0</ele><time>2026-04-26T20:10:31Z</time></trkpt><trkpt lat="45.534419408805476" lon="12.083228802171726"><ele>10.0</ele><time>2026-04-26T20:10:32Z</time></trkpt><trkpt lat="45.534570928740514" lon="12.083244050794606"><ele>10.0</ele><time>2026-04-26T20:10:33Z</time></trkpt><trkpt lat="45.53472178133222" lon="12.083259572834253"><ele>10.0</ele><time>2026-04-26T20:10:34Z</time></trkpt><trkpt lat="45.534871329775505" lon="12.083276102296747"><ele>10.0</ele><time>2026-04-26T20:10:35Z</time></trkpt><trkpt lat="45.53501929031134" lon="12.083294339823395"><ele>10.0</ele><time>2026-04-26T20:10:36Z</time></trkpt><trkpt lat="45.53515941590898" lon="12.083315490331026"><ele>10.0</ele><time>2026-04-26T20:10:37Z</time></trkpt><trkpt lat="45.53528903335653" lon="12.083336526449544"><ele>9.8</ele><time>2026-04-26T20:10:38Z</time></trkpt><trkpt lat="45.53539440102063" lon="12.083356216777556"><ele>9.6</ele><time>2026-04-26T20:10:39Z</time></trkpt><trkpt lat="45.53547989464433" lon="12.083374792014162"><ele>9.4</ele><time>2026-04-26T20:10:40.001Z</time></trkpt><trkpt lat="45.53555212563047" lon="12.08339356228505"><ele>9.2</ele><time>2026-04-26T20:10:41.001Z</time></trkpt><trkpt lat="45.53570810681253" lon="12.083378372354787"><ele>9.0</ele><time>2026-04-26T20:10:43.001Z</time></trkpt><trkpt lat="45.5357787777278" lon="12.083460657351232"><ele>9.0</ele><time>2026-04-26T20:10:45.001Z</time></trkpt><trkpt lat="45.53589833114877" lon="12.083421475471628"><ele>9.0</ele><time>2026-04-26T20:10:47.001Z</time></trkpt><trkpt lat="45.53595195170481" lon="12.083343352012049"><ele>9.0</ele><time>2026-04-26T20:10:48.001Z</time></trkpt><trkpt lat="45.53602924094601" lon="12.083309446534631"><ele>9.0</ele><time>2026-04-26T20:10:49.001Z</time></trkpt><trkpt lat="45.536129483183956" lon="12.083298028822504"><ele>9.0</ele><time>2026-04-26T20:10:50.001Z</time></trkpt><trkpt lat="45.536251167175664" lon="12.083276705253436"><ele>9.666666666666666</ele><time>2026-04-26T20:10:51Z</time></trkpt><trkpt lat="45.53637543175772" lon="12.083254914515104"><ele>10.333333333333332</ele><time>2026-04-26T20:10:52Z</time></trkpt><trkpt lat="45.536537140785946" lon="12.083225840179507"><ele>11.0</ele><time>2026-04-26T20:10:53Z</time></trkpt><trkpt lat="45.536727741153435" lon="12.08319157127372"><ele>11.0</ele><time>2026-04-26T20:10:54Z</time></trkpt><trkpt lat="45.53695569314446" lon="12.083157946602768"><ele>11.0</ele><time>2026-04-26T20:10:55Z</time></trkpt><trkpt lat="45.53717714978135" lon="12.083127759124794"><ele>10.666666666666666</ele><time>2026-04-26T20:10:56Z</time></trkpt><trkpt lat="45.53739427196325" lon="12.083117356451446"><ele>10.333333333333334</ele><time>2026-04-26T20:10:57Z</time></trkpt><trkpt lat="45.53760796755164" lon="12.083117152549772"><ele>10.0</ele><time>2026-04-26T20:10:58Z</time></trkpt><trkpt lat="45.53781878328832" lon="12.083130370344518"><ele>9.666666666666668</ele><time>2026-04-26T20:10:59Z</time></trkpt><trkpt lat="45.53802548450434" lon="12.083148609347667"><ele>9.333333333333334</ele><time>2026-04-26T20:11:00Z</time></trkpt><trkpt lat="45.538228398863644" lon="12.083165044306007"><ele>9.0</ele><time>2026-04-26T20:11:01Z</time></trkpt><trkpt lat="45.53842594856833" lon="12.08318104479595"><ele>9.0</ele><time>2026-04-26T20:11:02Z</time></trkpt><trkpt lat="45.538618756700586" lon="12.083176268415821"><ele>9.0</ele><time>2026-04-26T20:11:03Z</time></trkpt><trkpt lat="45.538806205695145" lon="12.083194777329053"><ele>9.0</ele><time>2026-04-26T20:11:04Z</time></trkpt><trkpt lat="45.53899313944836" lon="12.08320964570853"><ele>8.666666666666666</ele><time>2026-04-26T20:11:05Z</time></trkpt><trkpt lat="45.539182444897335" lon="12.083225447615213"><ele>8.333333333333332</ele><time>2026-04-26T20:11:06Z</time></trkpt><trkpt lat="45.539369566351304" lon="12.083240260024127"><ele>8.0</ele><time>2026-04-26T20:11:07Z</time></trkpt><trkpt lat="45.53954570066447" lon="12.083253765219547"><ele>8.666666666666666</ele><time>2026-04-26T20:11:08Z</time></trkpt><trkpt lat="45.53971284049911" lon="12.083256470238553"><ele>9.333333333333334</ele><time>2026-04-26T20:11:09Z</time></trkpt><trkpt lat="45.53987114359412" lon="12.083228241494556"><ele>10.0</ele><time>2026-04-26T20:11:10Z</time></trkpt><trkpt lat="45.54003010092216" lon="12.083170723691747"><ele>10.0</ele><time>2026-04-26T20:11:11Z</time></trkpt><trkpt lat="45.540193896526034" lon="12.083085191199729"><ele>10.0</ele><time>2026-04-26T20:11:12Z</time></trkpt><trkpt lat="45.54036533959266" lon="12.082984731289864"><ele>10.0</ele><time>2026-04-26T20:11:13Z</time></trkpt><trkpt lat="45.54054345832469" lon="12.082881625657928"><ele>9.666666666666668</ele><time>2026-04-26T20:11:14Z</time></trkpt><trkpt lat="45.54072147429916" lon="12.082773763658333"><ele>9.333333333333334</ele><time>2026-04-26T20:11:15Z</time></trkpt><trkpt lat="45.54089903995371" lon="12.082658416549805"><ele>9.0</ele><time>2026-04-26T20:11:16Z</time></trkpt><trkpt lat="45.54107872842824" lon="12.082542385866136"><ele>9.333333333333334</ele><time>2026-04-26T20:11:17Z</time></trkpt><trkpt lat="45.541258209064836" lon="12.082430899581787"><ele>9.666666666666668</ele><time>2026-04-26T20:11:18Z</time></trkpt><trkpt lat="45.54143097218334" lon="12.082325501805078"><ele>10.0</ele><time>2026-04-26T20:11:19Z</time></trkpt><trkpt lat="45.54160561509867" lon="12.08221647543399"><ele>10.0</ele><time>2026-04-26T20:11:20Z</time></trkpt><trkpt lat="45.54177743887706" lon="12.082103508875432"><ele>10.0</ele><time>2026-04-26T20:11:21Z</time></trkpt><trkpt lat="45.54194155528296" lon="12.081989472498295"><ele>10.0</ele><time>2026-04-26T20:11:22Z</time></trkpt><trkpt lat="45.54209646552106" lon="12.081881936328607"><ele>10.0</ele><time>2026-04-26T20:11:23Z</time></trkpt><trkpt lat="45.542249354573634" lon="12.081787209398973"><ele>10.0</ele><time>2026-04-26T20:11:24Z</time></trkpt><trkpt lat="45.54239894751555" lon="12.08171849846486"><ele>10.0</ele><time>2026-04-26T20:11:25Z</time></trkpt><trkpt lat="45.54254886398505" lon="12.081681342639074"><ele>10.0</ele><time>2026-04-26T20:11:26Z</time></trkpt><trkpt lat="45.54269346170424" lon="12.081687453639718"><ele>10.0</ele><time>2026-04-26T20:11:27Z</time></trkpt><trkpt lat="45.54283726283606" lon="12.081717385648805"><ele>10.0</ele><time>2026-04-26T20:11:28Z</time></trkpt><trkpt lat="45.54296297998689" lon="12.081768194096858"><ele>10.0</ele><time>2026-04-26T20:11:29Z</time></trkpt><trkpt lat="45.54306383494154" lon="12.081828464228394"><ele>10.25</ele><time>2026-04-26T20:11:30Z</time></trkpt><trkpt lat="45.543145670542565" lon="12.0819009419922"><ele>10.5</ele><time>2026-04-26T20:11:31Z</time></trkpt><trkpt lat="45.54322806173892" lon="12.082000410109965"><ele>10.75</ele><time>2026-04-26T20:11:32Z</time></trkpt><trkpt lat="45.54329382331556" lon="12.082146989556213"><ele>11.0</ele><time>2026-04-26T20:11:33Z</time></trkpt><trkpt lat="45.54338797493666" lon="12.082274939683266"><ele>11.0</ele><time>2026-04-26T20:11:34Z</time></trkpt><trkpt lat="45.54350701700153" lon="12.082352875217312"><ele>11.0</ele><time>2026-04-26T20:11:35Z</time></trkpt><trkpt lat="45.543631133403686" lon="12.082372883922332"><ele>11.0</ele><time>2026-04-26T20:11:36Z</time></trkpt><trkpt lat="45.54375551049912" lon="12.0823090435699"><ele>11.0</ele><time>2026-04-26T20:11:37Z</time></trkpt><trkpt lat="45.543855980545615" lon="12.08220022118258"><ele>11.0</ele><time>2026-04-26T20:11:38Z</time></trkpt><trkpt lat="45.54389472472237" lon="12.08202531740904"><ele>11.0</ele><time>2026-04-26T20:11:39Z</time></trkpt><trkpt lat="45.54392025476141" lon="12.081867596259139"><ele>11.0</ele><time>2026-04-26T20:11:40Z</time></trkpt><trkpt lat="45.54390673323096" lon="12.081705528537663"><ele>11.0</ele><time>2026-04-26T20:11:41Z</time></trkpt><trkpt lat="45.54385660722351" lon="12.081562407822123"><ele>11.0</ele><time>2026-04-26T20:11:42Z</time></trkpt><trkpt lat="45.54377437544615" lon="12.081454698227484"><ele>11.0</ele><time>2026-04-26T20:11:43Z</time></trkpt><trkpt lat="45.54367672006353" lon="12.081365595833146"><ele>11.0</ele><time>2026-04-26T20:11:44Z</time></trkpt><trkpt lat="45.543567431963595" lon="12.081274858732211"><ele>11.0</ele><time>2026-04-26T20:11:45Z</time></trkpt><trkpt lat="45.54346975263988" lon="12.081155741950976"><ele>11.0</ele><time>2026-04-26T20:11:46Z</time></trkpt><trkpt lat="45.5433896625556" lon="12.080993730096221"><ele>11.0</ele><time>2026-04-26T20:11:47Z</time></trkpt><trkpt lat="45.54332588018303" lon="12.08079665671513"><ele>11.0</ele><time>2026-04-26T20:11:48Z</time></trkpt><trkpt lat="45.54326793197899" lon="12.080580615649067"><ele>11.0</ele><time>2026-04-26T20:11:49Z</time></trkpt><trkpt lat="45.543205181799436" lon="12.080358459389084"><ele>11.0</ele><time>2026-04-26T20:11:50Z</time></trkpt><trkpt lat="45.54314733005401" lon="12.080142633505318"><ele>11.0</ele><time>2026-04-26T20:11:51Z</time></trkpt><trkpt lat="45.54309159439918" lon="12.079916795205964"><ele>11.333333333333332</ele><time>2026-04-26T20:11:52Z</time></trkpt><trkpt lat="45.54304129221121" lon="12.079676050922124"><ele>11.666666666666666</ele><time>2026-04-26T20:11:53Z</time></trkpt><trkpt lat="45.543000393304226" lon="12.079434776338486"><ele>12.0</ele><time>2026-04-26T20:11:54Z</time></trkpt><trkpt lat="45.54296830201888" lon="12.079189845455996"><ele>12.333333333333332</ele><time>2026-04-26T20:11:55Z</time></trkpt><trkpt lat="45.54294002889703" lon="12.078932328777567"><ele>12.666666666666666</ele><time>2026-04-26T20:11:56Z</time></trkpt><trkpt lat="45.542912280980026" lon="12.07867499670251"><ele>13.0</ele><time>2026-04-26T20:11:57Z</time></trkpt><trkpt lat="45.54288476637429" lon="12.078419264702202"><ele>12.666666666666666</ele><time>2026-04-26T20:11:58Z</time></trkpt><trkpt lat="45.54285840491239" lon="12.07816685501219"><ele>12.333333333333332</ele><time>2026-04-26T20:11:59Z</time></trkpt><trkpt lat="45.542834206330994" lon="12.077919427648872"><ele>12.0</ele><time>2026-04-26T20:12:00Z</time></trkpt><trkpt lat="45.54280752439583" lon="12.077673776249352"><ele>12.0</ele><time>2026-04-26T20:12:01Z</time></trkpt><trkpt lat="45.54278155486448" lon="12.077421422788149"><ele>12.0</ele><time>2026-04-26T20:12:02Z</time></trkpt><trkpt lat="45.54275937282798" lon="12.077164419465179"><ele>12.0</ele><time>2026-04-26T20:12:03Z</time></trkpt><trkpt lat="45.54274489940766" lon="12.076904718765356"><ele>12.0</ele><time>2026-04-26T20:12:04Z</time></trkpt><trkpt lat="45.54274150828547" lon="12.076641222415555"><ele>12.0</ele><time>2026-04-26T20:12:05Z</time></trkpt><trkpt lat="45.542751317345825" lon="12.076383900223055"><ele>12.0</ele><time>2026-04-26T20:12:06Z</time></trkpt><trkpt lat="45.542765492913105" lon="12.076130501052107"><ele>11.666666666666666</ele><time>2026-04-26T20:12:07Z</time></trkpt><trkpt lat="45.542780647238565" lon="12.075871252635512"><ele>11.333333333333332</ele><time>2026-04-26T20:12:08Z</time></trkpt><trkpt lat="45.542795863474616" lon="12.075617241257664"><ele>11.0</ele><time>2026-04-26T20:12:09Z</time></trkpt><trkpt lat="45.54281177647403" lon="12.075366177679431"><ele>11.0</ele><time>2026-04-26T20:12:10Z</time></trkpt><trkpt lat="45.542825796526266" lon="12.075117919267"><ele>11.0</ele><time>2026-04-26T20:12:11Z</time></trkpt><trkpt lat="45.542836908609566" lon="12.07487075570248"><ele>11.0</ele><time>2026-04-26T20:12:12Z</time></trkpt><trkpt lat="45.542847455201795" lon="12.074624490811459"><ele>11.0</ele><time>2026-04-26T20:12:13Z</time></trkpt><trkpt lat="45.54286146228966" lon="12.074378115077137"><ele>11.0</ele><time>2026-04-26T20:12:14Z</time></trkpt><trkpt lat="45.54287647136699" lon="12.074134114999216"><ele>11.0</ele><time>2026-04-26T20:12:15Z</time></trkpt><trkpt lat="45.5428864096189" lon="12.073890680732555"><ele>11.333333333333332</ele><time>2026-04-26T20:12:16Z</time></trkpt><trkpt lat="45.542896202692475" lon="12.07364845508531"><ele>11.666666666666666</ele><time>2026-04-26T20:12:17Z</time></trkpt><trkpt lat="45.54290788637996" lon="12.073406349728801"><ele>12.0</ele><time>2026-04-26T20:12:18Z</time></trkpt><trkpt lat="45.54292037284281" lon="12.073166837683273"><ele>12.333333333333332</ele><time>2026-04-26T20:12:19Z</time></trkpt><trkpt lat="45.54293311689768" lon="12.072930862296738"><ele>12.666666666666666</ele><time>2026-04-26T20:12:20Z</time></trkpt><trkpt lat="45.54294592604465" lon="12.072696885586737"><ele>13.0</ele><time>2026-04-26T20:12:21Z</time></trkpt><trkpt lat="45.54295711932626" lon="12.072463546895698"><ele>13.0</ele><time>2026-04-26T20:12:22Z</time></trkpt><trkpt lat="45.54296701062102" lon="12.072230394442583"><ele>13.0</ele><time>2026-04-26T20:12:23Z</time></trkpt><trkpt lat="45.542977921826925" lon="12.071999371600711"><ele>13.0</ele><time>2026-04-26T20:12:24Z</time></trkpt><trkpt lat="45.54299119122452" lon="12.071768726736769"><ele>12.75</ele><time>2026-04-26T20:12:25Z</time></trkpt><trkpt lat="45.54300404248609" lon="12.071547275181501"><ele>12.5</ele><time>2026-04-26T20:12:26Z</time></trkpt><trkpt lat="45.54301741432599" lon="12.071338015350578"><ele>12.25</ele><time>2026-04-26T20:12:27Z</time></trkpt><trkpt lat="45.54303152615176" lon="12.071139073871441"><ele>12.0</ele><time>2026-04-26T20:12:28Z</time></trkpt><trkpt lat="45.54304851501216" lon="12.070949692129112"><ele>11.75</ele><time>2026-04-26T20:12:29Z</time></trkpt><trkpt lat="45.54306929889241" lon="12.07077188249614"><ele>11.5</ele><time>2026-04-26T20:12:30Z</time></trkpt><trkpt lat="45.543106202886705" lon="12.070596254953125"><ele>11.25</ele><time>2026-04-26T20:12:31Z</time></trkpt><trkpt lat="45.54314777396753" lon="12.070462448884715"><ele>11.0</ele><time>2026-04-26T20:12:32Z</time></trkpt><trkpt lat="45.54321947647492" lon="12.070356182234825"><ele>11.0</ele><time>2026-04-26T20:12:33Z</time></trkpt><trkpt lat="45.54331081032392" lon="12.070273645419169"><ele>11.0</ele><time>2026-04-26T20:12:34Z</time></trkpt><trkpt lat="45.54341755994603" lon="12.070200078414745"><ele>11.0</ele><time>2026-04-26T20:12:35Z</time></trkpt><trkpt lat="45.543536556963225" lon="12.070151507862043"><ele>11.0</ele><time>2026-04-26T20:12:36Z</time></trkpt><trkpt lat="45.54366384994766" lon="12.070133242465303"><ele>11.0</ele><time>2026-04-26T20:12:37Z</time></trkpt><trkpt lat="45.54379893861482" lon="12.070138983250892"><ele>11.0</ele><time>2026-04-26T20:12:38Z</time></trkpt><trkpt lat="45.543939353927755" lon="12.0701750287591"><ele>11.0</ele><time>2026-04-26T20:12:39Z</time></trkpt><trkpt lat="45.54408729119119" lon="12.070218468557002"><ele>11.0</ele><time>2026-04-26T20:12:40Z</time></trkpt><trkpt lat="45.54423390029461" lon="12.07026203727856"><ele>11.0</ele><time>2026-04-26T20:12:41Z</time></trkpt><trkpt lat="45.544383735100766" lon="12.070306493629394"><ele>11.0</ele><time>2026-04-26T20:12:42Z</time></trkpt><trkpt lat="45.54453804399211" lon="12.070352203696324"><ele>11.0</ele><time>2026-04-26T20:12:43Z</time></trkpt><trkpt lat="45.544687044262226" lon="12.07039367708078"><ele>10.75</ele><time>2026-04-26T20:12:44Z</time></trkpt><trkpt lat="45.54483276093891" lon="12.070431740080958"><ele>10.5</ele><time>2026-04-26T20:12:45Z</time></trkpt><trkpt lat="45.54497511626481" lon="12.070470087044011"><ele>10.25</ele><time>2026-04-26T20:12:46Z</time></trkpt><trkpt lat="45.54511481115166" lon="12.070508634741572"><ele>10.0</ele><time>2026-04-26T20:12:47Z</time></trkpt><trkpt lat="45.545254062211775" lon="12.070547682035285"><ele>10.5</ele><time>2026-04-26T20:12:48Z</time></trkpt><trkpt lat="45.54539230928514" lon="12.070588069729627"><ele>11.0</ele><time>2026-04-26T20:12:49Z</time></trkpt><trkpt lat="45.545529666673595" lon="12.07062660602736"><ele>11.5</ele><time>2026-04-26T20:12:50Z</time></trkpt><trkpt lat="45.54566563105359" lon="12.070664898604864"><ele>12.0</ele><time>2026-04-26T20:12:51Z</time></trkpt><trkpt lat="45.5458005428464" lon="12.070702955268258"><ele>12.0</ele><time>2026-04-26T20:12:52Z</time></trkpt><trkpt lat="45.545932317267535" lon="12.07073729199"><ele>12.0</ele><time>2026-04-26T20:12:53Z</time></trkpt><trkpt lat="45.54605399174237" lon="12.07077187416795"><ele>12.0</ele><time>2026-04-26T20:12:54.001Z</time></trkpt><trkpt lat="45.54615298413131" lon="12.070802263317253"><ele>12.0</ele><time>2026-04-26T20:12:55.001Z</time></trkpt><trkpt lat="45.54622839538566" lon="12.070827177786539"><ele>12.0</ele><time>2026-04-26T20:12:56.001Z</time></trkpt><trkpt lat="45.5462938644875" lon="12.070856218553676"><ele>12.0</ele><time>2026-04-26T20:12:57Z</time></trkpt><trkpt lat="45.54635323634077" lon="12.07090777378244"><ele>12.0</ele><time>2026-04-26T20:12:58Z</time></trkpt><trkpt lat="45.54640157111426" lon="12.070981518086706"><ele>12.0</ele><time>2026-04-26T20:12:59Z</time></trkpt><trkpt lat="45.54650269172957" lon="12.071043184775066"><ele>12.0</ele><time>2026-04-26T20:13:01Z</time></trkpt><trkpt lat="45.54657636801963" lon="12.071018371164662"><ele>12.0</ele><time>2026-04-26T20:13:02Z</time></trkpt><trkpt lat="45.54666490188636" lon="12.070987825390695"><ele>12.0</ele><time>2026-04-26T20:13:03Z</time></trkpt><trkpt lat="45.54676874415229" lon="12.070984041949886"><ele>12.0</ele><time>2026-04-26T20:13:04Z</time></trkpt><trkpt lat="45.5468829458853" lon="12.071004334375008"><ele>12.0</ele><time>2026-04-26T20:13:05Z</time></trkpt><trkpt lat="45.54698800917595" lon="12.071031629632879"><ele>12.0</ele><time>2026-04-26T20:13:06Z</time></trkpt><trkpt lat="45.54709248500852" lon="12.071060177549374"><ele>12.0</ele><time>2026-04-26T20:13:07Z</time></trkpt><trkpt lat="45.54719482905224" lon="12.071087863152941"><ele>12.0</ele><time>2026-04-26T20:13:08Z</time></trkpt><trkpt lat="45.54729517750336" lon="12.071112937001393"><ele>12.166666666666666</ele><time>2026-04-26T20:13:09Z</time></trkpt><trkpt lat="45.5473891203743" lon="12.071135188194974"><ele>12.333333333333332</ele><time>2026-04-26T20:13:10Z</time></trkpt><trkpt lat="45.547474438835565" lon="12.071156253394959"><ele>12.5</ele><time>2026-04-26T20:13:11Z</time></trkpt><trkpt lat="45.54755214270076" lon="12.07117940345867"><ele>12.666666666666666</ele><time>2026-04-26T20:13:12Z</time></trkpt><trkpt lat="45.547624615506805" lon="12.071200672681947"><ele>12.833333333333332</ele><time>2026-04-26T20:13:13Z</time></trkpt><trkpt lat="45.547722273033635" lon="12.07123052382291"><ele>13.0</ele><time>2026-04-26T20:13:15Z</time></trkpt><trkpt lat="45.547796183053045" lon="12.071263389742576"><ele>13.0</ele><time>2026-04-26T20:13:18Z</time></trkpt><trkpt lat="45.54783166769382" lon="12.071079954596602"><ele>13.0</ele><time>2026-04-26T20:13:20Z</time></trkpt><trkpt lat="45.547809863037195" lon="12.07096237253892"><ele>13.0</ele><time>2026-04-26T20:13:21Z</time></trkpt><trkpt lat="45.54779188257712" lon="12.070826955959111"><ele>13.0</ele><time>2026-04-26T20:13:22Z</time></trkpt><trkpt lat="45.54777334158267" lon="12.070672436317098"><ele>13.0</ele><time>2026-04-26T20:13:23Z</time></trkpt><trkpt lat="45.547760499276045" lon="12.070511654234412"><ele>13.0</ele><time>2026-04-26T20:13:24Z</time></trkpt><trkpt lat="45.547757202352706" lon="12.070348230334625"><ele>13.0</ele><time>2026-04-26T20:13:25Z</time></trkpt><trkpt lat="45.54776222795244" lon="12.070173034662817"><ele>13.0</ele><time>2026-04-26T20:13:26Z</time></trkpt><trkpt lat="45.547777502003235" lon="12.069994321715068"><ele>13.0</ele><time>2026-04-26T20:13:27Z</time></trkpt><trkpt lat="45.547799471592796" lon="12.069815900121831"><ele>13.0</ele><time>2026-04-26T20:13:28Z</time></trkpt><trkpt lat="45.547826503914024" lon="12.06964060641359"><ele>13.0</ele><time>2026-04-26T20:13:29Z</time></trkpt><trkpt lat="45.54785967727522" lon="12.069470904041495"><ele>13.0</ele><time>2026-04-26T20:13:30Z</time></trkpt><trkpt lat="45.54789120093426" lon="12.06930806571273"><ele>13.0</ele><time>2026-04-26T20:13:31Z</time></trkpt><trkpt lat="45.54791348276583" lon="12.06914795167446"><ele>13.2</ele><time>2026-04-26T20:13:32Z</time></trkpt><trkpt lat="45.54794595521242" lon="12.068993879986508"><ele>13.4</ele><time>2026-04-26T20:13:33Z</time></trkpt><trkpt lat="45.547957408167655" lon="12.068843657550028"><ele>13.599999999999998</ele><time>2026-04-26T20:13:34Z</time></trkpt><trkpt lat="45.54795403007883" lon="12.068703595715697"><ele>13.799999999999999</ele><time>2026-04-26T20:13:35Z</time></trkpt><trkpt lat="45.547963142165536" lon="12.068574491981137"><ele>14.0</ele><time>2026-04-26T20:13:36Z</time></trkpt><trkpt lat="45.54796193366661" lon="12.068445629802087"><ele>14.0</ele><time>2026-04-26T20:13:37Z</time></trkpt><trkpt lat="45.547966293323014" lon="12.068308803722084"><ele>13.999999999999998</ele><time>2026-04-26T20:13:38Z</time></trkpt><trkpt lat="45.54796503714401" lon="12.068152635593409"><ele>13.999999999999998</ele><time>2026-04-26T20:13:39Z</time></trkpt><trkpt lat="45.547961053724045" lon="12.06798677057235"><ele>14.0</ele><time>2026-04-26T20:13:40Z</time></trkpt><trkpt lat="45.54795783089365" lon="12.06781969516718"><ele>14.0</ele><time>2026-04-26T20:13:41Z</time></trkpt><trkpt lat="45.547954747457005" lon="12.067658247514354"><ele>14.0</ele><time>2026-04-26T20:13:42Z</time></trkpt><trkpt lat="45.547951277488025" lon="12.067509513193425"><ele>13.999999999999998</ele><time>2026-04-26T20:13:43Z</time></trkpt><trkpt lat="45.54795276526053" lon="12.067371288933366"><ele>13.999999999999998</ele><time>2026-04-26T20:13:44Z</time></trkpt><trkpt lat="45.54794325202403" lon="12.067243992582185"><ele>14.0</ele><time>2026-04-26T20:13:45Z</time></trkpt><trkpt lat="45.54795150053478" lon="12.067110570509135"><ele>14.0</ele><time>2026-04-26T20:13:46Z</time></trkpt><trkpt lat="45.547934494289656" lon="12.066962438170107"><ele>14.0</ele><time>2026-04-26T20:13:47Z</time></trkpt><trkpt lat="45.54793370215688" lon="12.066805234211486"><ele>14.0</ele><time>2026-04-26T20:13:48Z</time></trkpt><trkpt lat="45.5479299324951" lon="12.06662968052174"><ele>14.0</ele><time>2026-04-26T20:13:49Z</time></trkpt><trkpt lat="45.547922160079956" lon="12.066454920876106"><ele>14.0</ele><time>2026-04-26T20:13:50Z</time></trkpt><trkpt lat="45.547915212784524" lon="12.06628030265697"><ele>13.5</ele><time>2026-04-26T20:13:51Z</time></trkpt><trkpt lat="45.547916398037856" lon="12.06610695782266"><ele>13.0</ele><time>2026-04-26T20:13:52Z</time></trkpt><trkpt lat="45.547923136196935" lon="12.06593390781465"><ele>12.5</ele><time>2026-04-26T20:13:53Z</time></trkpt><trkpt lat="45.54793301411206" lon="12.06575590254672"><ele>12.0</ele><time>2026-04-26T20:13:54Z</time></trkpt><trkpt lat="45.547943443648755" lon="12.065574153228502"><ele>11.75</ele><time>2026-04-26T20:13:55Z</time></trkpt><trkpt lat="45.54795965156826" lon="12.065391380622724"><ele>11.5</ele><time>2026-04-26T20:13:56Z</time></trkpt><trkpt lat="45.54797346512941" lon="12.065208446991711"><ele>11.25</ele><time>2026-04-26T20:13:57Z</time></trkpt><trkpt lat="45.54799023335026" lon="12.065024324966345"><ele>11.0</ele><time>2026-04-26T20:13:58Z</time></trkpt><trkpt lat="45.54801319836705" lon="12.064842189792902"><ele>11.0</ele><time>2026-04-26T20:13:59Z</time></trkpt><trkpt lat="45.54804234349468" lon="12.064661326340481"><ele>11.0</ele><time>2026-04-26T20:14:00Z</time></trkpt><trkpt lat="45.54807103609839" lon="12.064483586662131"><ele>11.0</ele><time>2026-04-26T20:14:01Z</time></trkpt><trkpt lat="45.548119969294774" lon="12.06431657839247"><ele>11.0</ele><time>2026-04-26T20:14:02Z</time></trkpt><trkpt lat="45.54813931750019" lon="12.064138436991223"><ele>11.25</ele><time>2026-04-26T20:14:03Z</time></trkpt><trkpt lat="45.54817051286523" lon="12.063976044193144"><ele>11.5</ele><time>2026-04-26T20:14:04Z</time></trkpt><trkpt lat="45.54820055483164" lon="12.063822611497796"><ele>11.75</ele><time>2026-04-26T20:14:05Z</time></trkpt><trkpt lat="45.54823338503174" lon="12.063670508163547"><ele>12.0</ele><time>2026-04-26T20:14:06Z</time></trkpt><trkpt lat="45.548265122991964" lon="12.063517916786763"><ele>12.0</ele><time>2026-04-26T20:14:07Z</time></trkpt><trkpt lat="45.54829667508611" lon="12.06336477459588"><ele>12.0</ele><time>2026-04-26T20:14:08Z</time></trkpt><trkpt lat="45.548320051915894" lon="12.063213465454758"><ele>12.0</ele><time>2026-04-26T20:14:09Z</time></trkpt><trkpt lat="45.54835305176502" lon="12.063059616286546"><ele>12.0</ele><time>2026-04-26T20:14:10Z</time></trkpt><trkpt lat="45.548390857715916" lon="12.062891022180812"><ele>12.0</ele><time>2026-04-26T20:14:11Z</time></trkpt><trkpt lat="45.548430128965286" lon="12.062712948086704"><ele>12.0</ele><time>2026-04-26T20:14:12Z</time></trkpt><trkpt lat="45.548473773730876" lon="12.062526631116674"><ele>12.0</ele><time>2026-04-26T20:14:13Z</time></trkpt><trkpt lat="45.548519584730414" lon="12.062346704716072"><ele>12.0</ele><time>2026-04-26T20:14:14Z</time></trkpt><trkpt lat="45.54856624083167" lon="12.06216369675205"><ele>12.0</ele><time>2026-04-26T20:14:15Z</time></trkpt><trkpt lat="45.548612140097575" lon="12.061977988136997"><ele>12.0</ele><time>2026-04-26T20:14:16Z</time></trkpt><trkpt lat="45.54865779922948" lon="12.06178929555445"><ele>12.0</ele><time>2026-04-26T20:14:17Z</time></trkpt><trkpt lat="45.548702354204885" lon="12.061602729819542"><ele>12.0</ele><time>2026-04-26T20:14:18Z</time></trkpt><trkpt lat="45.548746026577334" lon="12.061416203451605"><ele>12.0</ele><time>2026-04-26T20:14:19Z</time></trkpt><trkpt lat="45.548790374063785" lon="12.061227335195277"><ele>12.0</ele><time>2026-04-26T20:14:20Z</time></trkpt><trkpt lat="45.5488301627838" lon="12.061042235668145"><ele>12.0</ele><time>2026-04-26T20:14:21Z</time></trkpt><trkpt lat="45.54886705819389" lon="12.06085812986506"><ele>12.0</ele><time>2026-04-26T20:14:22Z</time></trkpt><trkpt lat="45.54890352172832" lon="12.060676306719197"><ele>12.0</ele><time>2026-04-26T20:14:23Z</time></trkpt><trkpt lat="45.54894006945336" lon="12.06049645683931"><ele>12.0</ele><time>2026-04-26T20:14:24Z</time></trkpt><trkpt lat="45.54897714416323" lon="12.060317641094569"><ele>12.0</ele><time>2026-04-26T20:14:25Z</time></trkpt><trkpt lat="45.54901705383998" lon="12.060137787131227"><ele>12.0</ele><time>2026-04-26T20:14:26Z</time></trkpt><trkpt lat="45.549061088309024" lon="12.059959285329699"><ele>12.25</ele><time>2026-04-26T20:14:27Z</time></trkpt><trkpt lat="45.54910623972992" lon="12.059783878889931"><ele>12.5</ele><time>2026-04-26T20:14:28Z</time></trkpt><trkpt lat="45.54916043705388" lon="12.05961771899234"><ele>12.75</ele><time>2026-04-26T20:14:29Z</time></trkpt><trkpt lat="45.54922640388694" lon="12.059456767792183"><ele>13.0</ele><time>2026-04-26T20:14:30Z</time></trkpt><trkpt lat="45.549298468860364" lon="12.059295004726136"><ele>13.0</ele><time>2026-04-26T20:14:31Z</time></trkpt><trkpt lat="45.54937138502502" lon="12.059131909358726"><ele>13.0</ele><time>2026-04-26T20:14:32Z</time></trkpt><trkpt lat="45.54944020346916" lon="12.0589670187129"><ele>13.0</ele><time>2026-04-26T20:14:33Z</time></trkpt><trkpt lat="45.54950762976589" lon="12.058802602329491"><ele>13.0</ele><time>2026-04-26T20:14:34Z</time></trkpt><trkpt lat="45.5495747192695" lon="12.058640078819387"><ele>12.5</ele><time>2026-04-26T20:14:35Z</time></trkpt><trkpt lat="45.549636309229754" lon="12.058477446232184"><ele>12.0</ele><time>2026-04-26T20:14:36Z</time></trkpt><trkpt lat="45.54968477951433" lon="12.058313915329038"><ele>11.5</ele><time>2026-04-26T20:14:37Z</time></trkpt><trkpt lat="45.54971410345827" lon="12.058142148566574"><ele>11.0</ele><time>2026-04-26T20:14:38Z</time></trkpt><trkpt lat="45.54972982719802" lon="12.057960733800165"><ele>10.75</ele><time>2026-04-26T20:14:39Z</time></trkpt><trkpt lat="45.54973952044857" lon="12.057775421885445"><ele>10.5</ele><time>2026-04-26T20:14:40Z</time></trkpt><trkpt lat="45.54975399382612" lon="12.057590029510951"><ele>10.25</ele><time>2026-04-26T20:14:41Z</time></trkpt><trkpt lat="45.54977475900156" lon="12.057404652314476"><ele>10.0</ele><time>2026-04-26T20:14:42Z</time></trkpt><trkpt lat="45.54978997931213" lon="12.057218721628143"><ele>10.0</ele><time>2026-04-26T20:14:43Z</time></trkpt><trkpt lat="45.5498016808491" lon="12.057025574400855"><ele>10.0</ele><time>2026-04-26T20:14:44Z</time></trkpt><trkpt lat="45.549821475368745" lon="12.056826186453527"><ele>10.0</ele><time>2026-04-26T20:14:45Z</time></trkpt><trkpt lat="45.54985373228157" lon="12.056630830358673"><ele>10.0</ele><time>2026-04-26T20:14:46Z</time></trkpt><trkpt lat="45.54989586135147" lon="12.056435187332937"><ele>10.25</ele><time>2026-04-26T20:14:47Z</time></trkpt><trkpt lat="45.549951495417154" lon="12.056242684351599"><ele>10.5</ele><time>2026-04-26T20:14:48Z</time></trkpt><trkpt lat="45.55001935785682" lon="12.056055301503392"><ele>10.75</ele><time>2026-04-26T20:14:49Z</time></trkpt><trkpt lat="45.55009640531354" lon="12.055872377243453"><ele>11.0</ele><time>2026-04-26T20:14:50Z</time></trkpt><trkpt lat="45.55017941936147" lon="12.055695937056713"><ele>11.0</ele><time>2026-04-26T20:14:51Z</time></trkpt><trkpt lat="45.55027672444627" lon="12.055535787928253"><ele>11.0</ele><time>2026-04-26T20:14:52Z</time></trkpt><trkpt lat="45.5503596185757" lon="12.055366961666357"><ele>11.0</ele><time>2026-04-26T20:14:53Z</time></trkpt><trkpt lat="45.550437160184536" lon="12.05521151012894"><ele>11.0</ele><time>2026-04-26T20:14:54Z</time></trkpt><trkpt lat="45.55050539461252" lon="12.055062954025098"><ele>11.0</ele><time>2026-04-26T20:14:55Z</time></trkpt><trkpt lat="45.55060032199889" lon="12.054968319258231"><ele>11.0</ele><time>2026-04-26T20:14:56Z</time></trkpt><trkpt lat="45.55070472606674" lon="12.054930464575845"><ele>11.0</ele><time>2026-04-26T20:14:57Z</time></trkpt><trkpt lat="45.55081845364985" lon="12.054938030566838"><ele>11.0</ele><time>2026-04-26T20:14:58Z</time></trkpt><trkpt lat="45.55094774411963" lon="12.054954178768748"><ele>11.0</ele><time>2026-04-26T20:14:59Z</time></trkpt><trkpt lat="45.55108778546408" lon="12.054965815941953"><ele>11.0</ele><time>2026-04-26T20:15:00Z</time></trkpt><trkpt lat="45.55122995049405" lon="12.054976196436101"><ele>11.0</ele><time>2026-04-26T20:15:01Z</time></trkpt><trkpt lat="45.55136394887943" lon="12.054986703362166"><ele>11.0</ele><time>2026-04-26T20:15:02Z</time></trkpt><trkpt lat="45.551494332019985" lon="12.054995487595"><ele>11.25</ele><time>2026-04-26T20:15:03Z</time></trkpt><trkpt lat="45.551622411979956" lon="12.05500055661061"><ele>11.5</ele><time>2026-04-26T20:15:04Z</time></trkpt><trkpt lat="45.55174408763769" lon="12.055004748890097"><ele>11.75</ele><time>2026-04-26T20:15:05Z</time></trkpt><trkpt lat="45.55185713731588" lon="12.055013768746706"><ele>12.0</ele><time>2026-04-26T20:15:06Z</time></trkpt><trkpt lat="45.55195613493876" lon="12.055025086208328"><ele>12.0</ele><time>2026-04-26T20:15:07Z</time></trkpt><trkpt lat="45.55203745282791" lon="12.055035458298834"><ele>12.0</ele><time>2026-04-26T20:15:08Z</time></trkpt><trkpt lat="45.55213111062015" lon="12.055052560117865"><ele>12.0</ele><time>2026-04-26T20:15:10Z</time></trkpt><trkpt lat="45.55219577615594" lon="12.055059446782872"><ele>12.0</ele><time>2026-04-26T20:15:13Z</time></trkpt><trkpt lat="45.55226337152717" lon="12.055066911161417"><ele>12.0</ele><time>2026-04-26T20:15:17Z</time></trkpt><trkpt lat="45.55234697727603" lon="12.055077535990602"><ele>12.0</ele><time>2026-04-26T20:15:23Z</time></trkpt><trkpt lat="45.552377960527345" lon="12.054841295152295"><ele>12.0</ele><time>2026-04-26T20:15:25Z</time></trkpt><trkpt lat="45.55238959606387" lon="12.05470101050585"><ele>12.0</ele><time>2026-04-26T20:15:26Z</time></trkpt><trkpt lat="45.55240403205373" lon="12.054572316004151"><ele>12.0</ele><time>2026-04-26T20:15:27Z</time></trkpt><trkpt lat="45.552422296044874" lon="12.054412280183685"><ele>12.0</ele><time>2026-04-26T20:15:28Z</time></trkpt><trkpt lat="45.55244317802612" lon="12.054232732834206"><ele>12.0</ele><time>2026-04-26T20:15:29Z</time></trkpt><trkpt lat="45.552464124068386" lon="12.054035068599621"><ele>12.0</ele><time>2026-04-26T20:15:30Z</time></trkpt><trkpt lat="45.55248470483737" lon="12.053837836521273"><ele>12.0</ele><time>2026-04-26T20:15:31Z</time></trkpt><trkpt lat="45.552506993476975" lon="12.053623243295743"><ele>12.0</ele><time>2026-04-26T20:15:32Z</time></trkpt><trkpt lat="45.55252999660943" lon="12.053388359052438"><ele>12.333333333333332</ele><time>2026-04-26T20:15:33Z</time></trkpt><trkpt lat="45.55255456522361" lon="12.053148257918371"><ele>12.666666666666666</ele><time>2026-04-26T20:15:34Z</time></trkpt><trkpt lat="45.5525771979658" lon="12.052919401178416"><ele>13.0</ele><time>2026-04-26T20:15:35Z</time></trkpt><trkpt lat="45.55260052575697" lon="12.052691377712122"><ele>13.0</ele><time>2026-04-26T20:15:36Z</time></trkpt><trkpt lat="45.55262331852552" lon="12.052465105042854"><ele>13.0</ele><time>2026-04-26T20:15:37Z</time></trkpt><trkpt lat="45.55264563122305" lon="12.052239378476383"><ele>13.0</ele><time>2026-04-26T20:15:38Z</time></trkpt><trkpt lat="45.55266846628585" lon="12.05201568522322"><ele>13.0</ele><time>2026-04-26T20:15:39Z</time></trkpt><trkpt lat="45.55269284688565" lon="12.051792588441714"><ele>13.0</ele><time>2026-04-26T20:15:40Z</time></trkpt><trkpt lat="45.552716385261355" lon="12.051570259614586"><ele>13.0</ele><time>2026-04-26T20:15:41Z</time></trkpt><trkpt lat="45.55273942840465" lon="12.051346852364494"><ele>13.0</ele><time>2026-04-26T20:15:42Z</time></trkpt><trkpt lat="45.55276131112939" lon="12.051124174894568"><ele>13.0</ele><time>2026-04-26T20:15:43Z</time></trkpt><trkpt lat="45.55278342982004" lon="12.050902158631674"><ele>13.0</ele><time>2026-04-26T20:15:44Z</time></trkpt><trkpt lat="45.55280353678721" lon="12.050678631269706"><ele>13.0</ele><time>2026-04-26T20:15:45Z</time></trkpt><trkpt lat="45.55284177998834" lon="12.050457608136677"><ele>13.0</ele><time>2026-04-26T20:15:46Z</time></trkpt><trkpt lat="45.5528648946836" lon="12.050230925574061"><ele>13.0</ele><time>2026-04-26T20:15:47Z</time></trkpt><trkpt lat="45.5528882846024" lon="12.050001543934187"><ele>13.0</ele><time>2026-04-26T20:15:48Z</time></trkpt><trkpt lat="45.552896576731044" lon="12.049767964852892"><ele>13.0</ele><time>2026-04-26T20:15:49Z</time></trkpt><trkpt lat="45.55292317831131" lon="12.04953675856076"><ele>13.0</ele><time>2026-04-26T20:15:50Z</time></trkpt><trkpt lat="45.55294773074938" lon="12.049304707822687"><ele>13.0</ele><time>2026-04-26T20:15:51Z</time></trkpt><trkpt lat="45.552971584845324" lon="12.049074651406158"><ele>13.0</ele><time>2026-04-26T20:15:52Z</time></trkpt><trkpt lat="45.552996464488785" lon="12.048843829374595"><ele>13.0</ele><time>2026-04-26T20:15:53Z</time></trkpt><trkpt lat="45.5530204873091" lon="12.048611044688496"><ele>13.0</ele><time>2026-04-26T20:15:54Z</time></trkpt><trkpt lat="45.55304270513072" lon="12.048380022868097"><ele>13.0</ele><time>2026-04-26T20:15:55Z</time></trkpt><trkpt lat="45.553062966844024" lon="12.048144523256733"><ele>13.0</ele><time>2026-04-26T20:15:56Z</time></trkpt><trkpt lat="45.55308660352215" lon="12.047902700721863"><ele>13.333333333333332</ele><time>2026-04-26T20:15:57Z</time></trkpt><trkpt lat="45.553110866313574" lon="12.047658214291717"><ele>13.666666666666668</ele><time>2026-04-26T20:15:58Z</time></trkpt><trkpt lat="45.55313687502171" lon="12.047417802807447"><ele>14.0</ele><time>2026-04-26T20:15:59Z</time></trkpt><trkpt lat="45.55316447701518" lon="12.047160284069273"><ele>14.0</ele><time>2026-04-26T20:16:00Z</time></trkpt><trkpt lat="45.55319206926391" lon="12.046897507984283"><ele>14.0</ele><time>2026-04-26T20:16:01Z</time></trkpt><trkpt lat="45.5532183892145" lon="12.046633441276745"><ele>14.0</ele><time>2026-04-26T20:16:02Z</time></trkpt><trkpt lat="45.553243766574674" lon="12.046368839919515"><ele>13.333333333333334</ele><time>2026-04-26T20:16:03Z</time></trkpt><trkpt lat="45.55327016295268" lon="12.046104997692018"><ele>12.666666666666668</ele><time>2026-04-26T20:16:04Z</time></trkpt><trkpt lat="45.55331125759067" lon="12.045845990144748"><ele>12.0</ele><time>2026-04-26T20:16:05Z</time></trkpt><trkpt lat="45.55333608329039" lon="12.04558723845034"><ele>12.0</ele><time>2026-04-26T20:16:06Z</time></trkpt><trkpt lat="45.55335848397623" lon="12.045328466162996"><ele>12.0</ele><time>2026-04-26T20:16:07Z</time></trkpt><trkpt lat="45.55336427298049" lon="12.045069364021208"><ele>12.0</ele><time>2026-04-26T20:16:08Z</time></trkpt><trkpt lat="45.553401325534" lon="12.044812070128978"><ele>12.0</ele><time>2026-04-26T20:16:09Z</time></trkpt><trkpt lat="45.55340441330427" lon="12.044554905022848"><ele>12.0</ele><time>2026-04-26T20:16:10Z</time></trkpt><trkpt lat="45.553425219761856" lon="12.044301967633979"><ele>12.0</ele><time>2026-04-26T20:16:11Z</time></trkpt><trkpt lat="45.55344586686008" lon="12.044047318716864"><ele>12.0</ele><time>2026-04-26T20:16:12Z</time></trkpt><trkpt lat="45.55346461107866" lon="12.04378710420549"><ele>12.0</ele><time>2026-04-26T20:16:13Z</time></trkpt><trkpt lat="45.553499478871025" lon="12.043528132486443"><ele>12.0</ele><time>2026-04-26T20:16:14Z</time></trkpt><trkpt lat="45.553519156492584" lon="12.043265388831907"><ele>12.333333333333332</ele><time>2026-04-26T20:16:15Z</time></trkpt><trkpt lat="45.553538664270455" lon="12.043002778028569"><ele>12.666666666666666</ele><time>2026-04-26T20:16:16Z</time></trkpt><trkpt lat="45.55355774826392" lon="12.042739521924085"><ele>13.0</ele><time>2026-04-26T20:16:17Z</time></trkpt><trkpt lat="45.55357681943135" lon="12.042476442747766"><ele>13.0</ele><time>2026-04-26T20:16:18Z</time></trkpt><trkpt lat="45.55359593939222" lon="12.0422126904838"><ele>13.0</ele><time>2026-04-26T20:16:19Z</time></trkpt><trkpt lat="45.55361553526609" lon="12.041948953611255"><ele>13.0</ele><time>2026-04-26T20:16:20Z</time></trkpt><trkpt lat="45.553635254041424" lon="12.04168602702143"><ele>12.666666666666666</ele><time>2026-04-26T20:16:21Z</time></trkpt><trkpt lat="45.55365483234637" lon="12.041424973436994"><ele>12.333333333333332</ele><time>2026-04-26T20:16:22Z</time></trkpt><trkpt lat="45.55367428382995" lon="12.041163663983136"><ele>12.0</ele><time>2026-04-26T20:16:23Z</time></trkpt><trkpt lat="45.5536931650705" lon="12.040903009647556"><ele>12.666666666666668</ele><time>2026-04-26T20:16:24Z</time></trkpt><trkpt lat="45.55371207939814" lon="12.040641137725679"><ele>13.333333333333334</ele><time>2026-04-26T20:16:25Z</time></trkpt><trkpt lat="45.553731091952606" lon="12.040379657584694"><ele>14.0</ele><time>2026-04-26T20:16:26Z</time></trkpt><trkpt lat="45.55373355968835" lon="12.040116119963546"><ele>13.666666666666668</ele><time>2026-04-26T20:16:27Z</time></trkpt><trkpt lat="45.55376913273113" lon="12.039857350941753"><ele>13.333333333333332</ele><time>2026-04-26T20:16:28Z</time></trkpt><trkpt lat="45.5537881530389" lon="12.039596198740238"><ele>13.0</ele><time>2026-04-26T20:16:29Z</time></trkpt><trkpt lat="45.55380718949929" lon="12.039334825012912"><ele>12.666666666666666</ele><time>2026-04-26T20:16:30Z</time></trkpt><trkpt lat="45.55381156533638" lon="12.039071794686063"><ele>12.333333333333332</ele><time>2026-04-26T20:16:31Z</time></trkpt><trkpt lat="45.55383282770821" lon="12.038812338930244"><ele>12.0</ele><time>2026-04-26T20:16:32Z</time></trkpt><trkpt lat="45.55385210990975" lon="12.038552122761795"><ele>12.333333333333332</ele><time>2026-04-26T20:16:33Z</time></trkpt><trkpt lat="45.5538702259428" lon="12.038292406225002"><ele>12.666666666666666</ele><time>2026-04-26T20:16:34Z</time></trkpt><trkpt lat="45.55389046675048" lon="12.038032889433834"><ele>13.0</ele><time>2026-04-26T20:16:35Z</time></trkpt><trkpt lat="45.55391018444209" lon="12.037773397609843"><ele>13.0</ele><time>2026-04-26T20:16:36Z</time></trkpt><trkpt lat="45.55392856541049" lon="12.037513176100571"><ele>13.0</ele><time>2026-04-26T20:16:37Z</time></trkpt><trkpt lat="45.55394561948873" lon="12.037254079449777"><ele>13.0</ele><time>2026-04-26T20:16:38Z</time></trkpt><trkpt lat="45.55396330390096" lon="12.036992864782427"><ele>13.0</ele><time>2026-04-26T20:16:39Z</time></trkpt><trkpt lat="45.553999238335564" lon="12.036733858999378"><ele>13.0</ele><time>2026-04-26T20:16:40Z</time></trkpt><trkpt lat="45.55401931871568" lon="12.03647591419669"><ele>13.0</ele><time>2026-04-26T20:16:41Z</time></trkpt><trkpt lat="45.55403820598924" lon="12.036228737276566"><ele>13.333333333333332</ele><time>2026-04-26T20:16:42Z</time></trkpt><trkpt lat="45.5540404973313" lon="12.035991661587422"><ele>13.666666666666668</ele><time>2026-04-26T20:16:43Z</time></trkpt><trkpt lat="45.55406000522412" lon="12.035761502078723"><ele>14.0</ele><time>2026-04-26T20:16:44Z</time></trkpt><trkpt lat="45.554077762535975" lon="12.035527768731532"><ele>14.0</ele><time>2026-04-26T20:16:45Z</time></trkpt><trkpt lat="45.554096231141266" lon="12.03528846962513"><ele>14.0</ele><time>2026-04-26T20:16:46Z</time></trkpt><trkpt lat="45.55411183140563" lon="12.035044331235557"><ele>14.0</ele><time>2026-04-26T20:16:47Z</time></trkpt><trkpt lat="45.55412844196968" lon="12.034800035075355"><ele>14.0</ele><time>2026-04-26T20:16:48Z</time></trkpt><trkpt lat="45.5541432242688" lon="12.034562321297209"><ele>14.0</ele><time>2026-04-26T20:16:49Z</time></trkpt><trkpt lat="45.55415773813465" lon="12.034332338527596"><ele>14.0</ele><time>2026-04-26T20:16:50Z</time></trkpt><trkpt lat="45.55417155472427" lon="12.034114531544887"><ele>14.0</ele><time>2026-04-26T20:16:51Z</time></trkpt><trkpt lat="45.55418132111519" lon="12.033902442329808"><ele>14.0</ele><time>2026-04-26T20:16:52Z</time></trkpt><trkpt lat="45.55419096825164" lon="12.03369997763193"><ele>14.0</ele><time>2026-04-26T20:16:53Z</time></trkpt><trkpt lat="45.55419739017158" lon="12.033503958411327"><ele>14.0</ele><time>2026-04-26T20:16:54Z</time></trkpt><trkpt lat="45.55420229978905" lon="12.033310997584456"><ele>14.0</ele><time>2026-04-26T20:16:55Z</time></trkpt><trkpt lat="45.554206684413295" lon="12.033121542486711"><ele>14.0</ele><time>2026-04-26T20:16:56Z</time></trkpt><trkpt lat="45.55421064276639" lon="12.032931387816033"><ele>14.0</ele><time>2026-04-26T20:16:57Z</time></trkpt><trkpt lat="45.55421617872691" lon="12.032737741471092"><ele>14.0</ele><time>2026-04-26T20:16:58Z</time></trkpt><trkpt lat="45.55422652272883" lon="12.032541117891386"><ele>14.0</ele><time>2026-04-26T20:16:59Z</time></trkpt><trkpt lat="45.55423553449097" lon="12.03234455198689"><ele>14.0</ele><time>2026-04-26T20:17:00Z</time></trkpt><trkpt lat="45.55424337375084" lon="12.032148396416948"><ele>14.0</ele><time>2026-04-26T20:17:01Z</time></trkpt><trkpt lat="45.5542519096453" lon="12.031952842812604"><ele>14.0</ele><time>2026-04-26T20:17:02Z</time></trkpt><trkpt lat="45.55426118374116" lon="12.031756710978847"><ele>13.75</ele><time>2026-04-26T20:17:03Z</time></trkpt><trkpt lat="45.55427247539951" lon="12.031562502066839"><ele>13.5</ele><time>2026-04-26T20:17:04Z</time></trkpt><trkpt lat="45.55428118560428" lon="12.031367974568502"><ele>13.25</ele><time>2026-04-26T20:17:05Z</time></trkpt><trkpt lat="45.5542899711979" lon="12.031180037486294"><ele>13.0</ele><time>2026-04-26T20:17:06Z</time></trkpt><trkpt lat="45.55429784824658" lon="12.031001568381416"><ele>13.0</ele><time>2026-04-26T20:17:07Z</time></trkpt><trkpt lat="45.55430458240033" lon="12.030823516813063"><ele>13.0</ele><time>2026-04-26T20:17:08Z</time></trkpt><trkpt lat="45.5543104654701" lon="12.030645920067466"><ele>13.0</ele><time>2026-04-26T20:17:09Z</time></trkpt><trkpt lat="45.55431824243713" lon="12.030468015841777"><ele>13.0</ele><time>2026-04-26T20:17:10Z</time></trkpt><trkpt lat="45.554324727422795" lon="12.030290326505328"><ele>13.25</ele><time>2026-04-26T20:17:11Z</time></trkpt><trkpt lat="45.554333928832065" lon="12.030111694343542"><ele>13.5</ele><time>2026-04-26T20:17:12Z</time></trkpt><trkpt lat="45.5543435633405" lon="12.02993116795627"><ele>13.75</ele><time>2026-04-26T20:17:13Z</time></trkpt><trkpt lat="45.55435214175122" lon="12.0297502848008"><ele>14.0</ele><time>2026-04-26T20:17:14Z</time></trkpt><trkpt lat="45.55436051192017" lon="12.029570917613384"><ele>14.0</ele><time>2026-04-26T20:17:15Z</time></trkpt><trkpt lat="45.55436865949336" lon="12.029402581406137"><ele>13.999999999999998</ele><time>2026-04-26T20:17:16Z</time></trkpt><trkpt lat="45.55437644981096" lon="12.02924689384204"><ele>13.999999999999998</ele><time>2026-04-26T20:17:17Z</time></trkpt><trkpt lat="45.554381879479266" lon="12.029114100547359"><ele>14.0</ele><time>2026-04-26T20:17:18Z</time></trkpt><trkpt lat="45.55439435203268" lon="12.02901684892667"><ele>14.0</ele><time>2026-04-26T20:17:19Z</time></trkpt><trkpt lat="45.55447109523158" lon="12.028904892842016"><ele>14.0</ele><time>2026-04-26T20:17:21Z</time></trkpt><trkpt lat="45.55460574022304" lon="12.028909895140751"><ele>14.0</ele><time>2026-04-26T20:17:23Z</time></trkpt><trkpt lat="45.554704737373214" lon="12.028922812138852"><ele>14.0</ele><time>2026-04-26T20:17:24Z</time></trkpt><trkpt lat="45.55482389735579" lon="12.028931538291294"><ele>14.0</ele><time>2026-04-26T20:17:25Z</time></trkpt><trkpt lat="45.55495750683321" lon="12.028940763685284"><ele>14.0</ele><time>2026-04-26T20:17:26Z</time></trkpt><trkpt lat="45.55508457759453" lon="12.028949781306483"><ele>14.0</ele><time>2026-04-26T20:17:27Z</time></trkpt><trkpt lat="45.55522098824092" lon="12.028959700661934"><ele>14.0</ele><time>2026-04-26T20:17:28Z</time></trkpt><trkpt lat="45.55536175406005" lon="12.028974301966507"><ele>14.0</ele><time>2026-04-26T20:17:29Z</time></trkpt><trkpt lat="45.5555002784144" lon="12.028992422623755"><ele>13.75</ele><time>2026-04-26T20:17:30Z</time></trkpt><trkpt lat="45.55562818139056" lon="12.029004754259388"><ele>13.5</ele><time>2026-04-26T20:17:31Z</time></trkpt><trkpt lat="45.55574775225187" lon="12.02901654930926"><ele>13.25</ele><time>2026-04-26T20:17:32Z</time></trkpt><trkpt lat="45.55585741743133" lon="12.029031212041955"><ele>13.0</ele><time>2026-04-26T20:17:33Z</time></trkpt><trkpt lat="45.55595059370803" lon="12.029024543992229"><ele>13.0</ele><time>2026-04-26T20:17:34Z</time></trkpt><trkpt lat="45.55602191195934" lon="12.028974710327159"><ele>13.0</ele><time>2026-04-26T20:17:35Z</time></trkpt><trkpt lat="45.556064266909594" lon="12.028886220989259"><ele>13.0</ele><time>2026-04-26T20:17:36Z</time></trkpt><trkpt lat="45.55608414916691" lon="12.028763702016736"><ele>13.0</ele><time>2026-04-26T20:17:37Z</time></trkpt><trkpt lat="45.556090372651255" lon="12.028608851744877"><ele>13.0</ele><time>2026-04-26T20:17:38Z</time></trkpt><trkpt lat="45.55609631324714" lon="12.028429092249606"><ele>13.0</ele><time>2026-04-26T20:17:39Z</time></trkpt><trkpt lat="45.55610775223043" lon="12.02822587606073"><ele>13.0</ele><time>2026-04-26T20:17:40Z</time></trkpt><trkpt lat="45.55612403603483" lon="12.02800609785239"><ele>13.0</ele><time>2026-04-26T20:17:41Z</time></trkpt><trkpt lat="45.55614275836685" lon="12.027772183260268"><ele>13.0</ele><time>2026-04-26T20:17:42Z</time></trkpt><trkpt lat="45.55616289819078" lon="12.027528225060703"><ele>13.0</ele><time>2026-04-26T20:17:43Z</time></trkpt><trkpt lat="45.55618166884388" lon="12.027288390983882"><ele>13.0</ele><time>2026-04-26T20:17:44Z</time></trkpt><trkpt lat="45.55619802293181" lon="12.02706753170219"><ele>13.2</ele><time>2026-04-26T20:17:45Z</time></trkpt><trkpt lat="45.55621269586064" lon="12.026865866496541"><ele>13.4</ele><time>2026-04-26T20:17:46Z</time></trkpt><trkpt lat="45.55622936682342" lon="12.026699327767714"><ele>13.599999999999998</ele><time>2026-04-26T20:17:47Z</time></trkpt><trkpt lat="45.55626385777493" lon="12.026571126719391"><ele>13.799999999999999</ele><time>2026-04-26T20:17:48Z</time></trkpt><trkpt lat="45.55632080207675" lon="12.026488818687467"><ele>14.0</ele><time>2026-04-26T20:17:49Z</time></trkpt><trkpt lat="45.55639400522542" lon="12.02645589086905"><ele>14.0</ele><time>2026-04-26T20:17:50Z</time></trkpt><trkpt lat="45.55648694473481" lon="12.026452064473911"><ele>14.0</ele><time>2026-04-26T20:17:51Z</time></trkpt><trkpt lat="45.55659737477648" lon="12.026451776675666"><ele>14.0</ele><time>2026-04-26T20:17:52Z</time></trkpt><trkpt lat="45.55672415380917" lon="12.026442173173898"><ele>14.0</ele><time>2026-04-26T20:17:53Z</time></trkpt><trkpt lat="45.55685443869034" lon="12.026433099836579"><ele>14.0</ele><time>2026-04-26T20:17:54Z</time></trkpt><trkpt lat="45.55697293803804" lon="12.026426115814987"><ele>13.999999999999998</ele><time>2026-04-26T20:17:55Z</time></trkpt><trkpt lat="45.55708208833328" lon="12.026425832559427"><ele>13.999999999999998</ele><time>2026-04-26T20:17:56Z</time></trkpt><trkpt lat="45.55717481275329" lon="12.026411332314318"><ele>14.0</ele><time>2026-04-26T20:17:57Z</time></trkpt><trkpt lat="45.55724358426225" lon="12.026365395824794"><ele>14.0</ele><time>2026-04-26T20:17:58Z</time></trkpt><trkpt lat="45.5572866743189" lon="12.026280412240748"><ele>13.799999999999999</ele><time>2026-04-26T20:17:59Z</time></trkpt><trkpt lat="45.557305666983325" lon="12.026164186144"><ele>13.599999999999998</ele><time>2026-04-26T20:18:00Z</time></trkpt><trkpt lat="45.557346989537564" lon="12.026053014259679"><ele>13.4</ele><time>2026-04-26T20:18:01Z</time></trkpt><trkpt lat="45.557392416229625" lon="12.025943351615547"><ele>13.2</ele><time>2026-04-26T20:18:02Z</time></trkpt><trkpt lat="45.5574752076019" lon="12.025884116955853"><ele>13.0</ele><time>2026-04-26T20:18:03Z</time></trkpt><trkpt lat="45.55758005527231" lon="12.025905103990006"><ele>13.0</ele><time>2026-04-26T20:18:04Z</time></trkpt><trkpt lat="45.557697495737266" lon="12.025883358154056"><ele>13.0</ele><time>2026-04-26T20:18:05Z</time></trkpt><trkpt lat="45.5578360282602" lon="12.025888408353929"><ele>13.0</ele><time>2026-04-26T20:18:06Z</time></trkpt><trkpt lat="45.55799510028739" lon="12.025883889947934"><ele>13.0</ele><time>2026-04-26T20:18:07Z</time></trkpt><trkpt lat="45.55816792326485" lon="12.02588825479542"><ele>13.0</ele><time>2026-04-26T20:18:08Z</time></trkpt><trkpt lat="45.55833235614255" lon="12.025890562066179"><ele>13.0</ele><time>2026-04-26T20:18:09Z</time></trkpt><trkpt lat="45.55850879404766" lon="12.025889284335499"><ele>13.0</ele><time>2026-04-26T20:18:10Z</time></trkpt><trkpt lat="45.55869373439901" lon="12.025901229064555"><ele>13.666666666666666</ele><time>2026-04-26T20:18:11Z</time></trkpt><trkpt lat="45.55888534737707" lon="12.02587917031203"><ele>14.333333333333332</ele><time>2026-04-26T20:18:12Z</time></trkpt><trkpt lat="45.55906804961554" lon="12.025872894469568"><ele>15.0</ele><time>2026-04-26T20:18:13Z</time></trkpt><trkpt lat="45.55926204520603" lon="12.02586328770831"><ele>15.0</ele><time>2026-04-26T20:18:14Z</time></trkpt><trkpt lat="45.55946016960685" lon="12.025855018364865"><ele>15.0</ele><time>2026-04-26T20:18:15Z</time></trkpt><trkpt lat="45.55964844499925" lon="12.025849470898368"><ele>15.0</ele><time>2026-04-26T20:18:16Z</time></trkpt><trkpt lat="45.55983877879184" lon="12.02584761364722"><ele>14.333333333333332</ele><time>2026-04-26T20:18:17Z</time></trkpt><trkpt lat="45.56003393821176" lon="12.02585240349862"><ele>13.666666666666666</ele><time>2026-04-26T20:18:18Z</time></trkpt><trkpt lat="45.56022842793623" lon="12.025857250786252"><ele>13.0</ele><time>2026-04-26T20:18:19Z</time></trkpt><trkpt lat="45.56042190878705" lon="12.025859829893909"><ele>13.0</ele><time>2026-04-26T20:18:20Z</time></trkpt><trkpt lat="45.56061369975419" lon="12.025864808349326"><ele>13.0</ele><time>2026-04-26T20:18:21Z</time></trkpt><trkpt lat="45.56080251763428" lon="12.02587200930641"><ele>13.0</ele><time>2026-04-26T20:18:22Z</time></trkpt><trkpt lat="45.56098849835941" lon="12.025878359863583"><ele>13.0</ele><time>2026-04-26T20:18:23Z</time></trkpt><trkpt lat="45.561172202797394" lon="12.02588374486943"><ele>13.0</ele><time>2026-04-26T20:18:24Z</time></trkpt><trkpt lat="45.56135442399078" lon="12.025892345226092"><ele>13.0</ele><time>2026-04-26T20:18:25Z</time></trkpt><trkpt lat="45.56153478388824" lon="12.025900899026752"><ele>13.666666666666666</ele><time>2026-04-26T20:18:26Z</time></trkpt><trkpt lat="45.56171302295331" lon="12.02590996841261"><ele>14.333333333333332</ele><time>2026-04-26T20:18:27Z</time></trkpt><trkpt lat="45.56188936912798" lon="12.0259237757219"><ele>15.0</ele><time>2026-04-26T20:18:28Z</time></trkpt><trkpt lat="45.562062034245635" lon="12.025941201996273"><ele>15.0</ele><time>2026-04-26T20:18:29Z</time></trkpt><trkpt lat="45.56223471468464" lon="12.0259524430075"><ele>15.0</ele><time>2026-04-26T20:18:30Z</time></trkpt><trkpt lat="45.56240820367244" lon="12.025961653387034"><ele>15.0</ele><time>2026-04-26T20:18:31Z</time></trkpt><trkpt lat="45.56258126140446" lon="12.02596812512391"><ele>15.0</ele><time>2026-04-26T20:18:32Z</time></trkpt><trkpt lat="45.56275094770578" lon="12.025975695210702"><ele>15.0</ele><time>2026-04-26T20:18:33Z</time></trkpt><trkpt lat="45.56291040586186" lon="12.025983719586508"><ele>15.0</ele><time>2026-04-26T20:18:34Z</time></trkpt><trkpt lat="45.563054416897884" lon="12.025992040130845"><ele>15.2</ele><time>2026-04-26T20:18:35Z</time></trkpt><trkpt lat="45.56316709537733" lon="12.026006555004203"><ele>15.4</ele><time>2026-04-26T20:18:36Z</time></trkpt><trkpt lat="45.563269276803176" lon="12.026031520269651"><ele>15.600000000000001</ele><time>2026-04-26T20:18:37Z</time></trkpt><trkpt lat="45.563346091589885" lon="12.026085458291453"><ele>15.8</ele><time>2026-04-26T20:18:38Z</time></trkpt><trkpt lat="45.5633964832645" lon="12.02615976725494"><ele>16.0</ele><time>2026-04-26T20:18:39Z</time></trkpt><trkpt lat="45.56343509660832" lon="12.02626852506937"><ele>16.0</ele><time>2026-04-26T20:18:40Z</time></trkpt><trkpt lat="45.56347959097762" lon="12.026384473839153"><ele>16.0</ele><time>2026-04-26T20:18:41Z</time></trkpt><trkpt lat="45.563535215904245" lon="12.0265097018486"><ele>16.0</ele><time>2026-04-26T20:18:42Z</time></trkpt><trkpt lat="45.56360101826575" lon="12.02663837723284"><ele>16.0</ele><time>2026-04-26T20:18:43Z</time></trkpt><trkpt lat="45.56366753615167" lon="12.026755614460523"><ele>16.0</ele><time>2026-04-26T20:18:44Z</time></trkpt><trkpt lat="45.56373029991862" lon="12.026856758248341"><ele>15.166666666666666</ele><time>2026-04-26T20:18:45Z</time></trkpt><trkpt lat="45.56378802284733" lon="12.026944528525982"><ele>14.333333333333332</ele><time>2026-04-26T20:18:46Z</time></trkpt><trkpt lat="45.56385493075726" lon="12.026994414827636"><ele>13.5</ele><time>2026-04-26T20:18:47Z</time></trkpt><trkpt lat="45.56393276404788" lon="12.026997378239876"><ele>12.666666666666666</ele><time>2026-04-26T20:18:48Z</time></trkpt><trkpt lat="45.56402294739119" lon="12.026968902681846"><ele>11.833333333333332</ele><time>2026-04-26T20:18:49Z</time></trkpt><trkpt lat="45.564129825206926" lon="12.026953713444305"><ele>11.0</ele><time>2026-04-26T20:18:50Z</time></trkpt><trkpt lat="45.564258051751814" lon="12.02695547888244"><ele>11.0</ele><time>2026-04-26T20:18:51Z</time></trkpt><trkpt lat="45.564400365856635" lon="12.026959705813352"><ele>11.0</ele><time>2026-04-26T20:18:52Z</time></trkpt><trkpt lat="45.56455284399141" lon="12.026967458076715"><ele>11.0</ele><time>2026-04-26T20:18:53Z</time></trkpt><trkpt lat="45.56470508765995" lon="12.02697629876744"><ele>11.0</ele><time>2026-04-26T20:18:54Z</time></trkpt><trkpt lat="45.564853344205666" lon="12.026988238769116"><ele>12.0</ele><time>2026-04-26T20:18:55Z</time></trkpt><trkpt lat="45.564989460411596" lon="12.027004628209257"><ele>13.0</ele><time>2026-04-26T20:18:56Z</time></trkpt><trkpt lat="45.56511816489826" lon="12.027024026339994"><ele>14.0</ele><time>2026-04-26T20:18:57Z</time></trkpt><trkpt lat="45.5652283640383" lon="12.027089114323775"><ele>15.0</ele><time>2026-04-26T20:18:58Z</time></trkpt><trkpt lat="45.56531575403077" lon="12.027168024100712"><ele>15.0</ele><time>2026-04-26T20:18:59Z</time></trkpt><trkpt lat="45.56538396661926" lon="12.027251809712007"><ele>15.0</ele><time>2026-04-26T20:19:00Z</time></trkpt><trkpt lat="45.56538388797635" lon="12.027378154424706"><ele>15.0</ele><time>2026-04-26T20:19:01Z</time></trkpt><trkpt lat="45.56538678175799" lon="12.027503426637093"><ele>15.0</ele><time>2026-04-26T20:19:02Z</time></trkpt><trkpt lat="45.565377047055385" lon="12.027659795289766"><ele>15.0</ele><time>2026-04-26T20:19:03Z</time></trkpt><trkpt lat="45.56536070229578" lon="12.02784088855233"><ele>15.0</ele><time>2026-04-26T20:19:04Z</time></trkpt><trkpt lat="45.56534135345319" lon="12.02804822126264"><ele>15.0</ele><time>2026-04-26T20:19:05Z</time></trkpt><trkpt lat="45.56532176019305" lon="12.028259185469835"><ele>15.0</ele><time>2026-04-26T20:19:06Z</time></trkpt><trkpt lat="45.56530298066847" lon="12.02846142051402"><ele>15.0</ele><time>2026-04-26T20:19:07Z</time></trkpt><trkpt lat="45.56528455856521" lon="12.028659873750058"><ele>15.0</ele><time>2026-04-26T20:19:08Z</time></trkpt><trkpt lat="45.56526750267238" lon="12.028843609424413"><ele>15.0</ele><time>2026-04-26T20:19:09Z</time></trkpt><trkpt lat="45.5652520227149" lon="12.029010367877435"><ele>15.0</ele><time>2026-04-26T20:19:10Z</time></trkpt><trkpt lat="45.56524655881312" lon="12.029150946931578"><ele>15.0</ele><time>2026-04-26T20:19:11Z</time></trkpt><trkpt lat="45.56525913589005" lon="12.029279807740018"><ele>15.0</ele><time>2026-04-26T20:19:12Z</time></trkpt><trkpt lat="45.56531180231076" lon="12.02936980005083"><ele>15.0</ele><time>2026-04-26T20:19:13Z</time></trkpt><trkpt lat="45.56536650951527" lon="12.029433739729525"><ele>15.0</ele><time>2026-04-26T20:19:14Z</time></trkpt><trkpt lat="45.565443819916645" lon="12.029463460106617"><ele>15.0</ele><time>2026-04-26T20:19:15Z</time></trkpt><trkpt lat="45.565535018720496" lon="12.02948332250594"><ele>15.0</ele><time>2026-04-26T20:19:16Z</time></trkpt><trkpt lat="45.565650533928036" lon="12.029494596507076"><ele>15.0</ele><time>2026-04-26T20:19:17Z</time></trkpt><trkpt lat="45.56578832421315" lon="12.029505416563133"><ele>15.0</ele><time>2026-04-26T20:19:18Z</time></trkpt><trkpt lat="45.56594823924154" lon="12.029518249284571"><ele>15.0</ele><time>2026-04-26T20:19:19Z</time></trkpt><trkpt lat="45.56610662255949" lon="12.029531145111624"><ele>15.0</ele><time>2026-04-26T20:19:20Z</time></trkpt><trkpt lat="45.56626559643884" lon="12.029544356711726"><ele>15.0</ele><time>2026-04-26T20:19:21Z</time></trkpt><trkpt lat="45.56644289742756" lon="12.029560548291983"><ele>15.0</ele><time>2026-04-26T20:19:22Z</time></trkpt><trkpt lat="45.56662128908097" lon="12.029577067454042"><ele>15.0</ele><time>2026-04-26T20:19:23Z</time></trkpt><trkpt lat="45.56679394681059" lon="12.029592893618767"><ele>15.0</ele><time>2026-04-26T20:19:24Z</time></trkpt><trkpt lat="45.566977087917586" lon="12.029607558035135"><ele>15.0</ele><time>2026-04-26T20:19:25Z</time></trkpt><trkpt lat="45.56716032549373" lon="12.029620825771197"><ele>15.0</ele><time>2026-04-26T20:19:26Z</time></trkpt><trkpt lat="45.56734314431603" lon="12.029636699697448"><ele>15.333333333333332</ele><time>2026-04-26T20:19:27Z</time></trkpt><trkpt lat="45.56752397397897" lon="12.029652287949789"><ele>15.666666666666666</ele><time>2026-04-26T20:19:28Z</time></trkpt><trkpt lat="45.567702665207285" lon="12.02966781422853"><ele>16.0</ele><time>2026-04-26T20:19:29Z</time></trkpt><trkpt lat="45.56788046210174" lon="12.029682716761878"><ele>16.0</ele><time>2026-04-26T20:19:30Z</time></trkpt><trkpt lat="45.568058336933014" lon="12.029697061692938"><ele>16.0</ele><time>2026-04-26T20:19:31Z</time></trkpt><trkpt lat="45.56824069430043" lon="12.029713977950347"><ele>16.0</ele><time>2026-04-26T20:19:32Z</time></trkpt><trkpt lat="45.56842308682492" lon="12.02973028388383"><ele>16.0</ele><time>2026-04-26T20:19:33Z</time></trkpt><trkpt lat="45.56860641288304" lon="12.02974636680615"><ele>16.0</ele><time>2026-04-26T20:19:34Z</time></trkpt><trkpt lat="45.56878887937232" lon="12.029759428886308"><ele>16.0</ele><time>2026-04-26T20:19:35Z</time></trkpt><trkpt lat="45.56896928702938" lon="12.029770709316507"><ele>16.0</ele><time>2026-04-26T20:19:36Z</time></trkpt><trkpt lat="45.56914297570363" lon="12.029783664507406"><ele>16.0</ele><time>2026-04-26T20:19:37Z</time></trkpt><trkpt lat="45.569306169768566" lon="12.029794335507248"><ele>16.0</ele><time>2026-04-26T20:19:38Z</time></trkpt><trkpt lat="45.569461187285796" lon="12.029806567880572"><ele>16.0</ele><time>2026-04-26T20:19:39Z</time></trkpt><trkpt lat="45.56959989352551" lon="12.029818043322695"><ele>16.0</ele><time>2026-04-26T20:19:40Z</time></trkpt><trkpt lat="45.56971247391124" lon="12.029834302657754"><ele>16.0</ele><time>2026-04-26T20:19:41Z</time></trkpt><trkpt lat="45.56980884393692" lon="12.02987266266238"><ele>16.0</ele><time>2026-04-26T20:19:42Z</time></trkpt><trkpt lat="45.56987675062254" lon="12.029959739942585"><ele>16.0</ele><time>2026-04-26T20:19:43Z</time></trkpt><trkpt lat="45.56994296495646" lon="12.03003640467397"><ele>15.75</ele><time>2026-04-26T20:19:44Z</time></trkpt><trkpt lat="45.56994537974433" lon="12.030175657006545"><ele>15.5</ele><time>2026-04-26T20:19:45Z</time></trkpt><trkpt lat="45.56995642939881" lon="12.0303322416804"><ele>15.25</ele><time>2026-04-26T20:19:46Z</time></trkpt><trkpt lat="45.56996615744993" lon="12.03051795911499"><ele>15.0</ele><time>2026-04-26T20:19:47Z</time></trkpt><trkpt lat="45.569975645597225" lon="12.030711193220764"><ele>15.2</ele><time>2026-04-26T20:19:48Z</time></trkpt><trkpt lat="45.56998457700493" lon="12.030893088963639"><ele>15.4</ele><time>2026-04-26T20:19:49Z</time></trkpt><trkpt lat="45.5699927281969" lon="12.031059094878593"><ele>15.600000000000001</ele><time>2026-04-26T20:19:50Z</time></trkpt><trkpt lat="45.57000673320702" lon="12.031202060058101"><ele>15.8</ele><time>2026-04-26T20:19:51Z</time></trkpt><trkpt lat="45.57005040958448" lon="12.03130637948542"><ele>16.0</ele><time>2026-04-26T20:19:52Z</time></trkpt><trkpt lat="45.57009894924979" lon="12.031389887767684"><ele>16.0</ele><time>2026-04-26T20:19:53Z</time></trkpt><trkpt lat="45.57016687172001" lon="12.031445267078636"><ele>16.0</ele><time>2026-04-26T20:19:54Z</time></trkpt><trkpt lat="45.57025557335679" lon="12.031472867258321"><ele>16.0</ele><time>2026-04-26T20:19:55Z</time></trkpt><trkpt lat="45.570362311093135" lon="12.031480200037562"><ele>16.0</ele><time>2026-04-26T20:19:56Z</time></trkpt><trkpt lat="45.57048773076649" lon="12.031481840928134"><ele>16.0</ele><time>2026-04-26T20:19:57Z</time></trkpt><trkpt lat="45.57063274232794" lon="12.031486684073709"><ele>16.333333333333332</ele><time>2026-04-26T20:19:58Z</time></trkpt><trkpt lat="45.570795205297074" lon="12.03149287410709"><ele>16.666666666666668</ele><time>2026-04-26T20:19:59Z</time></trkpt><trkpt lat="45.57097088182707" lon="12.031498573078833"><ele>17.0</ele><time>2026-04-26T20:20:00Z</time></trkpt><trkpt lat="45.571137762052636" lon="12.031507093651932"><ele>16.333333333333336</ele><time>2026-04-26T20:20:01Z</time></trkpt><trkpt lat="45.57132442128892" lon="12.031516819530276"><ele>15.666666666666668</ele><time>2026-04-26T20:20:02Z</time></trkpt><trkpt lat="45.57152226944301" lon="12.031527269584668"><ele>15.0</ele><time>2026-04-26T20:20:03Z</time></trkpt><trkpt lat="45.571707539621414" lon="12.031537555026356"><ele>15.0</ele><time>2026-04-26T20:20:04Z</time></trkpt><trkpt lat="45.571892749019476" lon="12.031544952522932"><ele>15.0</ele><time>2026-04-26T20:20:05Z</time></trkpt><trkpt lat="45.572079418100564" lon="12.031550140746958"><ele>15.0</ele><time>2026-04-26T20:20:06Z</time></trkpt><trkpt lat="45.57226445200485" lon="12.031555550367289"><ele>15.0</ele><time>2026-04-26T20:20:07Z</time></trkpt><trkpt lat="45.572444177901225" lon="12.031562800791407"><ele>15.0</ele><time>2026-04-26T20:20:08Z</time></trkpt><trkpt lat="45.572612379635146" lon="12.031571748497672"><ele>15.0</ele><time>2026-04-26T20:20:09Z</time></trkpt><trkpt lat="45.57277228752768" lon="12.031582677611999"><ele>15.25</ele><time>2026-04-26T20:20:10Z</time></trkpt><trkpt lat="45.57291468909944" lon="12.031643030093143"><ele>15.5</ele><time>2026-04-26T20:20:11Z</time></trkpt><trkpt lat="45.57305387668683" lon="12.031709849576963"><ele>15.75</ele><time>2026-04-26T20:20:12Z</time></trkpt><trkpt lat="45.57318631266192" lon="12.031785210646756"><ele>16.0</ele><time>2026-04-26T20:20:13Z</time></trkpt><trkpt lat="45.5733262069955" lon="12.031843854709358"><ele>16.0</ele><time>2026-04-26T20:20:14Z</time></trkpt><trkpt lat="45.5734635516523" lon="12.031928219485712"><ele>16.0</ele><time>2026-04-26T20:20:15Z</time></trkpt><trkpt lat="45.5735812348859" lon="12.032033969550147"><ele>16.0</ele><time>2026-04-26T20:20:16Z</time></trkpt><trkpt lat="45.57368309087879" lon="12.03213573862294"><ele>16.0</ele><time>2026-04-26T20:20:17Z</time></trkpt><trkpt lat="45.5737541367302" lon="12.032264252319758"><ele>15.8</ele><time>2026-04-26T20:20:18Z</time></trkpt><trkpt lat="45.573811454018944" lon="12.03239503308538"><ele>15.600000000000001</ele><time>2026-04-26T20:20:19Z</time></trkpt><trkpt lat="45.57386898102905" lon="12.032518017734477"><ele>15.4</ele><time>2026-04-26T20:20:20Z</time></trkpt><trkpt lat="45.57395092560829" lon="12.032607839217567"><ele>15.2</ele><time>2026-04-26T20:20:21Z</time></trkpt><trkpt lat="45.57403652368405" lon="12.032675485477588"><ele>15.0</ele><time>2026-04-26T20:20:22Z</time></trkpt><trkpt lat="45.57414055115729" lon="12.032714897325306"><ele>15.0</ele><time>2026-04-26T20:20:23Z</time></trkpt><trkpt lat="45.57427009613233" lon="12.032728292171706"><ele>15.0</ele><time>2026-04-26T20:20:24Z</time></trkpt><trkpt lat="45.57441016280201" lon="12.03273772509872"><ele>15.0</ele><time>2026-04-26T20:20:25Z</time></trkpt><trkpt lat="45.574565212070205" lon="12.032752968937535"><ele>15.0</ele><time>2026-04-26T20:20:26Z</time></trkpt><trkpt lat="45.5747323433034" lon="12.03277265717592"><ele>15.0</ele><time>2026-04-26T20:20:27Z</time></trkpt><trkpt lat="45.57489104301519" lon="12.032790412478647"><ele>15.0</ele><time>2026-04-26T20:20:28Z</time></trkpt><trkpt lat="45.57506129165296" lon="12.032808567855056"><ele>15.0</ele><time>2026-04-26T20:20:29Z</time></trkpt><trkpt lat="45.575239750773285" lon="12.032829905847672"><ele>15.333333333333332</ele><time>2026-04-26T20:20:30Z</time></trkpt><trkpt lat="45.575417749788826" lon="12.032854865436734"><ele>15.666666666666666</ele><time>2026-04-26T20:20:31Z</time></trkpt><trkpt lat="45.57558619931032" lon="12.03287464356735"><ele>16.0</ele><time>2026-04-26T20:20:32Z</time></trkpt><trkpt lat="45.575742484530984" lon="12.032888594189671"><ele>16.0</ele><time>2026-04-26T20:20:33Z</time></trkpt><trkpt lat="45.57589548216478" lon="12.032892411294226"><ele>16.0</ele><time>2026-04-26T20:20:34Z</time></trkpt><trkpt lat="45.57605717418884" lon="12.032879017905996"><ele>16.0</ele><time>2026-04-26T20:20:35Z</time></trkpt><trkpt lat="45.57622506087974" lon="12.03285831660569"><ele>16.0</ele><time>2026-04-26T20:20:36Z</time></trkpt><trkpt lat="45.576394293297554" lon="12.03283603919721"><ele>16.0</ele><time>2026-04-26T20:20:37Z</time></trkpt><trkpt lat="45.576565646542896" lon="12.032826936428426"><ele>16.0</ele><time>2026-04-26T20:20:38Z</time></trkpt><trkpt lat="45.5767365594595" lon="12.032842035755927"><ele>16.0</ele><time>2026-04-26T20:20:39Z</time></trkpt><trkpt lat="45.57690075491592" lon="12.032892179113997"><ele>16.0</ele><time>2026-04-26T20:20:40Z</time></trkpt><trkpt lat="45.577065624016335" lon="12.032971755354946"><ele>16.0</ele><time>2026-04-26T20:20:41Z</time></trkpt><trkpt lat="45.57723731612599" lon="12.033058253220482"><ele>15.666666666666666</ele><time>2026-04-26T20:20:42Z</time></trkpt><trkpt lat="45.577419211339695" lon="12.033141389793258"><ele>15.333333333333332</ele><time>2026-04-26T20:20:43Z</time></trkpt><trkpt lat="45.57760670033095" lon="12.03322758469448"><ele>15.0</ele><time>2026-04-26T20:20:44Z</time></trkpt><trkpt lat="45.57778477568885" lon="12.033313433101965"><ele>15.0</ele><time>2026-04-26T20:20:45Z</time></trkpt><trkpt lat="45.57796016576726" lon="12.033397403312291"><ele>15.0</ele><time>2026-04-26T20:20:46Z</time></trkpt><trkpt lat="45.578147050111355" lon="12.033482686247886"><ele>15.0</ele><time>2026-04-26T20:20:47Z</time></trkpt><trkpt lat="45.57833877231268" lon="12.033565366270079"><ele>15.0</ele><time>2026-04-26T20:20:48Z</time></trkpt><trkpt lat="45.57853203828381" lon="12.033642159380431"><ele>15.0</ele><time>2026-04-26T20:20:49Z</time></trkpt><trkpt lat="45.57872545465542" lon="12.03371148110053"><ele>15.0</ele><time>2026-04-26T20:20:50Z</time></trkpt><trkpt lat="45.57891783765003" lon="12.033767948618348"><ele>15.666666666666668</ele><time>2026-04-26T20:20:51Z</time></trkpt><trkpt lat="45.5791104249089" lon="12.033812659533648"><ele>16.333333333333336</ele><time>2026-04-26T20:20:52Z</time></trkpt><trkpt lat="45.579304000022255" lon="12.033850711631809"><ele>17.0</ele><time>2026-04-26T20:20:53Z</time></trkpt><trkpt lat="45.57949987738936" lon="12.033885169797955"><ele>17.0</ele><time>2026-04-26T20:20:54Z</time></trkpt><trkpt lat="45.579695027480746" lon="12.03391239361727"><ele>17.0</ele><time>2026-04-26T20:20:55Z</time></trkpt><trkpt lat="45.5798837478209" lon="12.033931754800344"><ele>17.0</ele><time>2026-04-26T20:20:56Z</time></trkpt><trkpt lat="45.58006029012943" lon="12.033941885048849"><ele>17.0</ele><time>2026-04-26T20:20:57Z</time></trkpt><trkpt lat="45.58022736612711" lon="12.033949956577386"><ele>17.0</ele><time>2026-04-26T20:20:58Z</time></trkpt><trkpt lat="45.580389163635935" lon="12.033958103800915"><ele>17.0</ele><time>2026-04-26T20:20:59Z</time></trkpt><trkpt lat="45.58053835309089" lon="12.033963231644822"><ele>17.2</ele><time>2026-04-26T20:21:00Z</time></trkpt><trkpt lat="45.580665808234706" lon="12.0339653247431"><ele>17.4</ele><time>2026-04-26T20:21:01Z</time></trkpt><trkpt lat="45.58077312223595" lon="12.03396643722102"><ele>17.6</ele><time>2026-04-26T20:21:02Z</time></trkpt><trkpt lat="45.58086364316266" lon="12.033966641600736"><ele>17.8</ele><time>2026-04-26T20:21:03Z</time></trkpt><trkpt lat="45.58092840563246" lon="12.033964935693758"><ele>18.0</ele><time>2026-04-26T20:21:04Z</time></trkpt><trkpt lat="45.581003261715615" lon="12.033959550150353"><ele>18.0</ele><time>2026-04-26T20:21:06Z</time></trkpt><trkpt lat="45.58107285524568" lon="12.033963272349608"><ele>18.0</ele><time>2026-04-26T20:21:08Z</time></trkpt><trkpt lat="45.58109569543861" lon="12.034103103372198"><ele>18.0</ele><time>2026-04-26T20:21:09Z</time></trkpt><trkpt lat="45.58111970219117" lon="12.034214930474976"><ele>18.0</ele><time>2026-04-26T20:21:10Z</time></trkpt><trkpt lat="45.58111364206588" lon="12.03435432371511"><ele>18.0</ele><time>2026-04-26T20:21:11Z</time></trkpt><trkpt lat="45.58108672732695" lon="12.034511587031105"><ele>17.75</ele><time>2026-04-26T20:21:12Z</time></trkpt><trkpt lat="45.58103296901128" lon="12.034678003633127"><ele>17.5</ele><time>2026-04-26T20:21:13Z</time></trkpt><trkpt lat="45.580946088555" lon="12.034807654151422"><ele>17.25</ele><time>2026-04-26T20:21:14Z</time></trkpt><trkpt lat="45.58086015008156" lon="12.034954726992652"><ele>17.0</ele><time>2026-04-26T20:21:15Z</time></trkpt><trkpt lat="45.58076930841855" lon="12.035121783347137"><ele>17.0</ele><time>2026-04-26T20:21:16Z</time></trkpt><trkpt lat="45.58066151459651" lon="12.03528265496083"><ele>17.0</ele><time>2026-04-26T20:21:17Z</time></trkpt><trkpt lat="45.580551181438686" lon="12.035454394588047"><ele>17.0</ele><time>2026-04-26T20:21:18Z</time></trkpt><trkpt lat="45.58044266326671" lon="12.03561874009086"><ele>16.666666666666668</ele><time>2026-04-26T20:21:19Z</time></trkpt><trkpt lat="45.58033001493167" lon="12.035792551531857"><ele>16.333333333333332</ele><time>2026-04-26T20:21:20Z</time></trkpt><trkpt lat="45.58021787470381" lon="12.035970364194668"><ele>16.0</ele><time>2026-04-26T20:21:21Z</time></trkpt><trkpt lat="45.58010588230961" lon="12.03614596119886"><ele>16.0</ele><time>2026-04-26T20:21:22Z</time></trkpt><trkpt lat="45.58000323975054" lon="12.036317846291562"><ele>16.0</ele><time>2026-04-26T20:21:23Z</time></trkpt><trkpt lat="45.579914100438806" lon="12.036502500057214"><ele>16.0</ele><time>2026-04-26T20:21:24Z</time></trkpt><trkpt lat="45.57984810978169" lon="12.036707167598575"><ele>16.0</ele><time>2026-04-26T20:21:25Z</time></trkpt><trkpt lat="45.579812348062006" lon="12.036928201698666"><ele>16.0</ele><time>2026-04-26T20:21:26Z</time></trkpt><trkpt lat="45.57980497242282" lon="12.037156052323738"><ele>16.0</ele><time>2026-04-26T20:21:27Z</time></trkpt><trkpt lat="45.57982620662447" lon="12.03738503288876"><ele>16.333333333333332</ele><time>2026-04-26T20:21:28Z</time></trkpt><trkpt lat="45.57987347762199" lon="12.037613401890786"><ele>16.666666666666668</ele><time>2026-04-26T20:21:29Z</time></trkpt><trkpt lat="45.579945056008405" lon="12.037841705041842"><ele>17.0</ele><time>2026-04-26T20:21:30Z</time></trkpt><trkpt lat="45.58003473711313" lon="12.038076424040703"><ele>17.0</ele><time>2026-04-26T20:21:31Z</time></trkpt><trkpt lat="45.58012545369806" lon="12.03832120314398"><ele>17.0</ele><time>2026-04-26T20:21:32Z</time></trkpt><trkpt lat="45.58021521066353" lon="12.038567566291224"><ele>17.0</ele><time>2026-04-26T20:21:33Z</time></trkpt><trkpt lat="45.58031112081506" lon="12.038803701156326"><ele>17.0</ele><time>2026-04-26T20:21:34Z</time></trkpt><trkpt lat="45.58042471619321" lon="12.03900329962772"><ele>17.0</ele><time>2026-04-26T20:21:35Z</time></trkpt><trkpt lat="45.58055293160863" lon="12.039154628182981"><ele>17.0</ele><time>2026-04-26T20:21:36Z</time></trkpt><trkpt lat="45.58070721235909" lon="12.039260037009944"><ele>17.0</ele><time>2026-04-26T20:21:37Z</time></trkpt><trkpt lat="45.58087138504734" lon="12.039327762299004"><ele>17.0</ele><time>2026-04-26T20:21:38Z</time></trkpt><trkpt lat="45.58104114157254" lon="12.03936602209027"><ele>17.0</ele><time>2026-04-26T20:21:39Z</time></trkpt><trkpt lat="45.58121179644289" lon="12.039402302476729"><ele>17.333333333333336</ele><time>2026-04-26T20:21:40Z</time></trkpt><trkpt lat="45.581366924552015" lon="12.0394395665113"><ele>17.666666666666668</ele><time>2026-04-26T20:21:41Z</time></trkpt><trkpt lat="45.58151645464013" lon="12.03948305753184"><ele>18.0</ele><time>2026-04-26T20:21:42Z</time></trkpt><trkpt lat="45.58165401858793" lon="12.039536420070274"><ele>18.0</ele><time>2026-04-26T20:21:43Z</time></trkpt><trkpt lat="45.58177495624898" lon="12.039615521837543"><ele>18.0</ele><time>2026-04-26T20:21:44Z</time></trkpt><trkpt lat="45.58186855713444" lon="12.039735797505243"><ele>18.0</ele><time>2026-04-26T20:21:45Z</time></trkpt><trkpt lat="45.58194677770314" lon="12.039859100642229"><ele>18.0</ele><time>2026-04-26T20:21:46Z</time></trkpt><trkpt lat="45.58203975872975" lon="12.039952482853375"><ele>17.5</ele><time>2026-04-26T20:21:47Z</time></trkpt><trkpt lat="45.58213667675244" lon="12.040049335805314"><ele>17.0</ele><time>2026-04-26T20:21:48Z</time></trkpt><trkpt lat="45.58221590788337" lon="12.040193932873738"><ele>16.5</ele><time>2026-04-26T20:21:49Z</time></trkpt><trkpt lat="45.58225980560206" lon="12.040378439074814"><ele>16.0</ele><time>2026-04-26T20:21:50Z</time></trkpt><trkpt lat="45.582312032437876" lon="12.040576513095182"><ele>16.0</ele><time>2026-04-26T20:21:51Z</time></trkpt><trkpt lat="45.582364377312345" lon="12.040780885586765"><ele>16.0</ele><time>2026-04-26T20:21:52Z</time></trkpt><trkpt lat="45.58241413083129" lon="12.040987671220789"><ele>16.0</ele><time>2026-04-26T20:21:53Z</time></trkpt><trkpt lat="45.58246178630601" lon="12.041196421946598"><ele>16.333333333333332</ele><time>2026-04-26T20:21:54Z</time></trkpt><trkpt lat="45.582500476029644" lon="12.041408638510667"><ele>16.666666666666668</ele><time>2026-04-26T20:21:55Z</time></trkpt><trkpt lat="45.58252950524906" lon="12.041624446077234"><ele>17.0</ele><time>2026-04-26T20:21:56Z</time></trkpt><trkpt lat="45.58254566534815" lon="12.041842630450311"><ele>17.25</ele><time>2026-04-26T20:21:57Z</time></trkpt><trkpt lat="45.58254566003306" lon="12.042059895470524"><ele>17.5</ele><time>2026-04-26T20:21:58Z</time></trkpt><trkpt lat="45.58253709512563" lon="12.042278665136013"><ele>17.75</ele><time>2026-04-26T20:21:59Z</time></trkpt><trkpt lat="45.58252562873586" lon="12.042482316774695"><ele>18.0</ele><time>2026-04-26T20:22:00Z</time></trkpt><trkpt lat="45.58251514003074" lon="12.042669286652544"><ele>18.2</ele><time>2026-04-26T20:22:01Z</time></trkpt><trkpt lat="45.582506484343874" lon="12.042823581196094"><ele>18.4</ele><time>2026-04-26T20:22:02Z</time></trkpt><trkpt lat="45.58249728853945" lon="12.042957510378166"><ele>18.599999999999998</ele><time>2026-04-26T20:22:03Z</time></trkpt><trkpt lat="45.58248088247589" lon="12.043082072861212"><ele>18.8</ele><time>2026-04-26T20:22:04Z</time></trkpt><trkpt lat="45.58240398527974" lon="12.043170866280414"><ele>19.0</ele><time>2026-04-26T20:22:05Z</time></trkpt><trkpt lat="45.582385495071925" lon="12.043312008620612"><ele>18.599999999999998</ele><time>2026-04-26T20:22:06Z</time></trkpt><trkpt lat="45.582386811961705" lon="12.043437401621867"><ele>18.2</ele><time>2026-04-26T20:22:07Z</time></trkpt><trkpt lat="45.58242521391897" lon="12.043565517428258"><ele>17.799999999999997</ele><time>2026-04-26T20:22:08Z</time></trkpt><trkpt lat="45.5824609844973" lon="12.043712798800659"><ele>17.4</ele><time>2026-04-26T20:22:09Z</time></trkpt><trkpt lat="45.58244618624249" lon="12.043888067517772"><ele>17.0</ele><time>2026-04-26T20:22:10Z</time></trkpt><trkpt lat="45.58243569680822" lon="12.044083800268504"><ele>17.333333333333336</ele><time>2026-04-26T20:22:11Z</time></trkpt><trkpt lat="45.5824238025949" lon="12.044301763478718"><ele>17.666666666666668</ele><time>2026-04-26T20:22:12Z</time></trkpt><trkpt lat="45.58241228438454" lon="12.04451283607324"><ele>18.0</ele><time>2026-04-26T20:22:13Z</time></trkpt><trkpt lat="45.58240153932217" lon="12.044728408411101"><ele>18.0</ele><time>2026-04-26T20:22:14Z</time></trkpt><trkpt lat="45.582390728415426" lon="12.044955108209157"><ele>18.0</ele><time>2026-04-26T20:22:15Z</time></trkpt><trkpt lat="45.582380421276646" lon="12.04517181995228"><ele>18.0</ele><time>2026-04-26T20:22:16Z</time></trkpt><trkpt lat="45.58237108532649" lon="12.045381223944132"><ele>17.75</ele><time>2026-04-26T20:22:17Z</time></trkpt><trkpt lat="45.582364764268256" lon="12.04558726073697"><ele>17.5</ele><time>2026-04-26T20:22:18Z</time></trkpt><trkpt lat="45.582366363248" lon="12.045793694237569"><ele>17.25</ele><time>2026-04-26T20:22:19Z</time></trkpt><trkpt lat="45.58238216702986" lon="12.045994931139461"><ele>17.0</ele><time>2026-04-26T20:22:20Z</time></trkpt><trkpt lat="45.58243174166678" lon="12.046180341290711"><ele>17.0</ele><time>2026-04-26T20:22:21Z</time></trkpt><trkpt lat="45.58248464929933" lon="12.046355796115051"><ele>17.0</ele><time>2026-04-26T20:22:22Z</time></trkpt><trkpt lat="45.58256252769456" lon="12.046510465875615"><ele>17.0</ele><time>2026-04-26T20:22:23Z</time></trkpt><trkpt lat="45.58266634871132" lon="12.046648882923478"><ele>17.0</ele><time>2026-04-26T20:22:24Z</time></trkpt><trkpt lat="45.58278820259805" lon="12.046775397286552"><ele>17.0</ele><time>2026-04-26T20:22:25Z</time></trkpt><trkpt lat="45.5829177434875" lon="12.046901430674763"><ele>17.0</ele><time>2026-04-26T20:22:26Z</time></trkpt><trkpt lat="45.58304527590259" lon="12.047033697926908"><ele>17.0</ele><time>2026-04-26T20:22:27Z</time></trkpt><trkpt lat="45.58316763455815" lon="12.047163570289529"><ele>17.0</ele><time>2026-04-26T20:22:28Z</time></trkpt><trkpt lat="45.58329395363453" lon="12.04729926698267"><ele>17.0</ele><time>2026-04-26T20:22:29Z</time></trkpt><trkpt lat="45.58342090092347" lon="12.047435183310299"><ele>17.0</ele><time>2026-04-26T20:22:30Z</time></trkpt><trkpt lat="45.58354883212095" lon="12.047569585720622"><ele>17.0</ele><time>2026-04-26T20:22:31Z</time></trkpt><trkpt lat="45.583675565553044" lon="12.047704044262511"><ele>17.0</ele><time>2026-04-26T20:22:32Z</time></trkpt><trkpt lat="45.58380141513839" lon="12.04784026787478"><ele>17.0</ele><time>2026-04-26T20:22:33Z</time></trkpt><trkpt lat="45.583925063305834" lon="12.047977304119843"><ele>17.333333333333336</ele><time>2026-04-26T20:22:34Z</time></trkpt><trkpt lat="45.58404862301666" lon="12.048110823734753"><ele>17.666666666666668</ele><time>2026-04-26T20:22:35Z</time></trkpt><trkpt lat="45.584172312490196" lon="12.048241116212546"><ele>18.0</ele><time>2026-04-26T20:22:36Z</time></trkpt><trkpt lat="45.58429652773687" lon="12.048371777018287"><ele>18.0</ele><time>2026-04-26T20:22:37Z</time></trkpt><trkpt lat="45.584419067045104" lon="12.0485040676867"><ele>18.0</ele><time>2026-04-26T20:22:38Z</time></trkpt><trkpt lat="45.584540187001835" lon="12.048636148659712"><ele>18.0</ele><time>2026-04-26T20:22:39Z</time></trkpt><trkpt lat="45.58466121043736" lon="12.048767742075473"><ele>17.666666666666668</ele><time>2026-04-26T20:22:40Z</time></trkpt><trkpt lat="45.58478120353399" lon="12.048899195329936"><ele>17.333333333333336</ele><time>2026-04-26T20:22:41Z</time></trkpt><trkpt lat="45.584900507860276" lon="12.049029852661011"><ele>17.0</ele><time>2026-04-26T20:22:42Z</time></trkpt><trkpt lat="45.585020801929126" lon="12.049160233175211"><ele>17.0</ele><time>2026-04-26T20:22:43Z</time></trkpt><trkpt lat="45.58514115480615" lon="12.049290854787051"><ele>17.0</ele><time>2026-04-26T20:22:44Z</time></trkpt><trkpt lat="45.585260283834934" lon="12.049420421060903"><ele>17.0</ele><time>2026-04-26T20:22:45Z</time></trkpt><trkpt lat="45.58538111833852" lon="12.04954692471123"><ele>16.75</ele><time>2026-04-26T20:22:46Z</time></trkpt><trkpt lat="45.585500593393476" lon="12.049676333244761"><ele>16.5</ele><time>2026-04-26T20:22:47Z</time></trkpt><trkpt lat="45.58561935988251" lon="12.049805568097502"><ele>16.25</ele><time>2026-04-26T20:22:48Z</time></trkpt><trkpt lat="45.58573765734136" lon="12.049934406611708"><ele>16.0</ele><time>2026-04-26T20:22:49Z</time></trkpt><trkpt lat="45.58585759735948" lon="12.05006114560884"><ele>16.0</ele><time>2026-04-26T20:22:50Z</time></trkpt><trkpt lat="45.585978704277885" lon="12.05018499040374"><ele>16.0</ele><time>2026-04-26T20:22:51Z</time></trkpt><trkpt lat="45.586098543782974" lon="12.050310012401766"><ele>16.0</ele><time>2026-04-26T20:22:52Z</time></trkpt><trkpt lat="45.586219842548736" lon="12.050435109461642"><ele>16.0</ele><time>2026-04-26T20:22:53Z</time></trkpt><trkpt lat="45.586340112313486" lon="12.05055978826039"><ele>16.0</ele><time>2026-04-26T20:22:54Z</time></trkpt><trkpt lat="45.58645046652852" lon="12.050701908189163"><ele>16.0</ele><time>2026-04-26T20:22:55Z</time></trkpt><trkpt lat="45.586564398795" lon="12.0508240135058"><ele>16.0</ele><time>2026-04-26T20:22:56Z</time></trkpt><trkpt lat="45.58667989654196" lon="12.050916462496803"><ele>16.0</ele><time>2026-04-26T20:22:57Z</time></trkpt><trkpt lat="45.58677692892189" lon="12.05102486821381"><ele>16.0</ele><time>2026-04-26T20:22:58Z</time></trkpt><trkpt lat="45.58684813320636" lon="12.051149900877574"><ele>16.0</ele><time>2026-04-26T20:22:59Z</time></trkpt><trkpt lat="45.58692901075087" lon="12.051244937479423"><ele>16.0</ele><time>2026-04-26T20:23:00Z</time></trkpt><trkpt lat="45.58696928566917" lon="12.051363639983752"><ele>16.0</ele><time>2026-04-26T20:23:01Z</time></trkpt><trkpt lat="45.58698660656353" lon="12.051488596125813"><ele>16.0</ele><time>2026-04-26T20:23:02Z</time></trkpt><trkpt lat="45.586989367060504" lon="12.05160437764478"><ele>16.166666666666664</ele><time>2026-04-26T20:23:03Z</time></trkpt><trkpt lat="45.58701207760406" lon="12.051701666068855"><ele>16.333333333333332</ele><time>2026-04-26T20:23:04Z</time></trkpt><trkpt lat="45.587063442959" lon="12.051771807504323"><ele>16.5</ele><time>2026-04-26T20:23:05Z</time></trkpt><trkpt lat="45.587127717835294" lon="12.051804831597638"><ele>16.666666666666668</ele><time>2026-04-26T20:23:06Z</time></trkpt><trkpt lat="45.58720524698616" lon="12.0517934815301"><ele>16.833333333333336</ele><time>2026-04-26T20:23:07Z</time></trkpt><trkpt lat="45.587285930865676" lon="12.05172928452045"><ele>17.0</ele><time>2026-04-26T20:23:08Z</time></trkpt><trkpt lat="45.587362470907735" lon="12.051639459224617"><ele>17.5</ele><time>2026-04-26T20:23:09Z</time></trkpt><trkpt lat="45.587457924870264" lon="12.05154437579579"><ele>18.0</ele><time>2026-04-26T20:23:10Z</time></trkpt><trkpt lat="45.58757525673086" lon="12.051462488690198"><ele>18.5</ele><time>2026-04-26T20:23:11Z</time></trkpt><trkpt lat="45.58768966130723" lon="12.051394722589704"><ele>19.0</ele><time>2026-04-26T20:23:12Z</time></trkpt><trkpt lat="45.587811120686546" lon="12.051327988241901"><ele>19.0</ele><time>2026-04-26T20:23:13Z</time></trkpt><trkpt lat="45.58794023913036" lon="12.05127465897559"><ele>19.0</ele><time>2026-04-26T20:23:14Z</time></trkpt><trkpt lat="45.58807413197681" lon="12.051235655565964"><ele>19.0</ele><time>2026-04-26T20:23:15Z</time></trkpt><trkpt lat="45.58821104683876" lon="12.051210180759544"><ele>19.0</ele><time>2026-04-26T20:23:16Z</time></trkpt><trkpt lat="45.588346950055325" lon="12.051191600444884"><ele>19.0</ele><time>2026-04-26T20:23:17Z</time></trkpt><trkpt lat="45.58847867611957" lon="12.051183221362052"><ele>19.0</ele><time>2026-04-26T20:23:18Z</time></trkpt><trkpt lat="45.58861114305592" lon="12.05118323556677"><ele>19.0</ele><time>2026-04-26T20:23:19Z</time></trkpt><trkpt lat="45.588748601366056" lon="12.051184273675183"><ele>19.0</ele><time>2026-04-26T20:23:20Z</time></trkpt><trkpt lat="45.58888675957439" lon="12.051185541008723"><ele>18.75</ele><time>2026-04-26T20:23:21Z</time></trkpt><trkpt lat="45.58902406406424" lon="12.051183495424011"><ele>18.5</ele><time>2026-04-26T20:23:22Z</time></trkpt><trkpt lat="45.58915896120019" lon="12.051180525555331"><ele>18.25</ele><time>2026-04-26T20:23:23Z</time></trkpt><trkpt lat="45.589292117745" lon="12.051181712017936"><ele>18.0</ele><time>2026-04-26T20:23:24Z</time></trkpt><trkpt lat="45.58942240874296" lon="12.051179966403124"><ele>18.0</ele><time>2026-04-26T20:23:25Z</time></trkpt><trkpt lat="45.58955097490242" lon="12.051175194842772"><ele>18.0</ele><time>2026-04-26T20:23:26Z</time></trkpt><trkpt lat="45.58967836131693" lon="12.051171919975902"><ele>18.0</ele><time>2026-04-26T20:23:27Z</time></trkpt><trkpt lat="45.58980412554579" lon="12.051170866663181"><ele>18.0</ele><time>2026-04-26T20:23:28Z</time></trkpt><trkpt lat="45.58992967359579" lon="12.05117272339561"><ele>18.0</ele><time>2026-04-26T20:23:29Z</time></trkpt><trkpt lat="45.59005524226318" lon="12.051170390468007"><ele>18.0</ele><time>2026-04-26T20:23:30Z</time></trkpt><trkpt lat="45.5901789602463" lon="12.051167599418937"><ele>18.0</ele><time>2026-04-26T20:23:31Z</time></trkpt><trkpt lat="45.590302213538635" lon="12.051190556589788"><ele>18.0</ele><time>2026-04-26T20:23:32Z</time></trkpt><trkpt lat="45.59042629055368" lon="12.051167055418837"><ele>18.5</ele><time>2026-04-26T20:23:33Z</time></trkpt><trkpt lat="45.59055044667839" lon="12.05117296418955"><ele>19.0</ele><time>2026-04-26T20:23:34Z</time></trkpt><trkpt lat="45.59067106375278" lon="12.051175732660962"><ele>19.5</ele><time>2026-04-26T20:23:35Z</time></trkpt><trkpt lat="45.59079006646893" lon="12.051198226860407"><ele>20.0</ele><time>2026-04-26T20:23:36Z</time></trkpt><trkpt lat="45.59091040417173" lon="12.051184507572192"><ele>20.0</ele><time>2026-04-26T20:23:37Z</time></trkpt><trkpt lat="45.5910317074541" lon="12.051208180123162"><ele>20.0</ele><time>2026-04-26T20:23:38Z</time></trkpt><trkpt lat="45.59115115312315" lon="12.051232057837542"><ele>20.0</ele><time>2026-04-26T20:23:39Z</time></trkpt><trkpt lat="45.591261821774886" lon="12.051242401488134"><ele>20.0</ele><time>2026-04-26T20:23:40Z</time></trkpt><trkpt lat="45.59136458310854" lon="12.051240606181672"><ele>20.0</ele><time>2026-04-26T20:23:41Z</time></trkpt><trkpt lat="45.59144981981855" lon="12.05124314333861"><ele>20.0</ele><time>2026-04-26T20:23:42Z</time></trkpt><trkpt lat="45.591547785782105" lon="12.05131769869509"><ele>20.0</ele><time>2026-04-26T20:23:44Z</time></trkpt><trkpt lat="45.59156633316571" lon="12.05141568531622"><ele>20.0</ele><time>2026-04-26T20:23:45Z</time></trkpt><trkpt lat="45.59156836842462" lon="12.051542424191645"><ele>20.0</ele><time>2026-04-26T20:23:46Z</time></trkpt><trkpt lat="45.591574781153916" lon="12.051692050566368"><ele>20.25</ele><time>2026-04-26T20:23:47Z</time></trkpt><trkpt lat="45.59158206396955" lon="12.051866214341446"><ele>20.5</ele><time>2026-04-26T20:23:48Z</time></trkpt><trkpt lat="45.59158968325717" lon="12.052043209287781"><ele>20.75</ele><time>2026-04-26T20:23:49Z</time></trkpt><trkpt lat="45.59159669761166" lon="12.052220047253972"><ele>21.0</ele><time>2026-04-26T20:23:50Z</time></trkpt><trkpt lat="45.59158836987392" lon="12.052407843310744"><ele>20.75</ele><time>2026-04-26T20:23:51Z</time></trkpt><trkpt lat="45.591594874097595" lon="12.052597274081473"><ele>20.5</ele><time>2026-04-26T20:23:52Z</time></trkpt><trkpt lat="45.59160125266816" lon="12.052783045128088"><ele>20.25</ele><time>2026-04-26T20:23:53Z</time></trkpt><trkpt lat="45.59160741902454" lon="12.05296263576441"><ele>20.0</ele><time>2026-04-26T20:23:54Z</time></trkpt><trkpt lat="45.59161319513763" lon="12.053127820342171"><ele>20.0</ele><time>2026-04-26T20:23:55Z</time></trkpt><trkpt lat="45.59161858392548" lon="12.053281434237"><ele>20.0</ele><time>2026-04-26T20:23:56Z</time></trkpt><trkpt lat="45.59162347983485" lon="12.053420998267917"><ele>20.0</ele><time>2026-04-26T20:23:57Z</time></trkpt><trkpt lat="45.59162748845653" lon="12.053535273998216"><ele>20.0</ele><time>2026-04-26T20:23:58Z</time></trkpt><trkpt lat="45.59163423291707" lon="12.053686153235647"><ele>20.0</ele><time>2026-04-26T20:24:00Z</time></trkpt><trkpt lat="45.59174519422804" lon="12.053727954955415"><ele>19.833333333333336</ele><time>2026-04-26T20:24:02Z</time></trkpt><trkpt lat="45.59181489433696" lon="12.053716333694531"><ele>19.666666666666668</ele><time>2026-04-26T20:24:03Z</time></trkpt><trkpt lat="45.59189052625256" lon="12.053709569914737"><ele>19.5</ele><time>2026-04-26T20:24:04Z</time></trkpt><trkpt lat="45.59197173376506" lon="12.053711395640253"><ele>19.333333333333332</ele><time>2026-04-26T20:24:05Z</time></trkpt><trkpt lat="45.592055418447174" lon="12.053713111703072"><ele>19.166666666666664</ele><time>2026-04-26T20:24:06Z</time></trkpt><trkpt lat="45.592135888055836" lon="12.053712511776425"><ele>19.0</ele><time>2026-04-26T20:24:07Z</time></trkpt><trkpt lat="45.59220407391971" lon="12.053710105833138"><ele>18.833333333333332</ele><time>2026-04-26T20:24:08Z</time></trkpt><trkpt lat="45.592296161187576" lon="12.0537501154876"><ele>18.666666666666664</ele><time>2026-04-26T20:24:10Z</time></trkpt><trkpt lat="45.59230123828186" lon="12.053891565551986"><ele>18.5</ele><time>2026-04-26T20:24:12Z</time></trkpt><trkpt lat="45.5923143426997" lon="12.053996694283216"><ele>18.333333333333332</ele><time>2026-04-26T20:24:13Z</time></trkpt><trkpt lat="45.59230871442274" lon="12.054112323279181"><ele>18.166666666666668</ele><time>2026-04-26T20:24:14Z</time></trkpt><trkpt lat="45.592305967346896" lon="12.054233398267753"><ele>18.0</ele><time>2026-04-26T20:24:15Z</time></trkpt><trkpt lat="45.592301213294306" lon="12.054359922874477"><ele>17.857142857142858</ele><time>2026-04-26T20:24:16Z</time></trkpt><trkpt lat="45.59229749456732" lon="12.05448151416725"><ele>17.714285714285715</ele><time>2026-04-26T20:24:17Z</time></trkpt><trkpt lat="45.59229428578012" lon="12.054588147897803"><ele>17.57142857142857</ele><time>2026-04-26T20:24:18Z</time></trkpt><trkpt lat="45.5922889884145" lon="12.054684472659822"><ele>17.42857142857143</ele><time>2026-04-26T20:24:19Z</time></trkpt><trkpt lat="45.592327031448264" lon="12.054762574826476"><ele>17.285714285714285</ele><time>2026-04-26T20:24:20Z</time></trkpt><trkpt lat="45.592395482133846" lon="12.054784685713694"><ele>17.142857142857142</ele><time>2026-04-26T20:24:21Z</time></trkpt><trkpt lat="45.59246426187545" lon="12.054799212478214"><ele>17.0</ele><time>2026-04-26T20:24:22Z</time></trkpt><trkpt lat="45.59254397824197" lon="12.054800082298154"><ele>17.0</ele><time>2026-04-26T20:24:23Z</time></trkpt><trkpt lat="45.59263048505777" lon="12.05481646614093"><ele>17.0</ele><time>2026-04-26T20:24:24Z</time></trkpt><trkpt lat="45.59272171644213" lon="12.05482786757431"><ele>17.0</ele><time>2026-04-26T20:24:25Z</time></trkpt><trkpt lat="45.59281578343714" lon="12.054837863207842"><ele>17.0</ele><time>2026-04-26T20:24:26Z</time></trkpt><trkpt lat="45.59291108586921" lon="12.054845775281688"><ele>17.0</ele><time>2026-04-26T20:24:27Z</time></trkpt><trkpt lat="45.592995865558386" lon="12.054852780745428"><ele>17.0</ele><time>2026-04-26T20:24:28Z</time></trkpt><trkpt lat="45.59306567034466" lon="12.054881810304629"><ele>17.0</ele><time>2026-04-26T20:24:29Z</time></trkpt><trkpt lat="45.59315706254295" lon="12.054871163914406"><ele>17.0</ele><time>2026-04-26T20:24:31Z</time></trkpt><trkpt lat="45.59320872113668" lon="12.054941776397799"><ele>17.0</ele><time>2026-04-26T20:25:25Z</time></trkpt><trkpt lat="45.593204837286244" lon="12.055041166876581"><ele>17.0</ele><time>2026-04-26T20:25:28Z</time></trkpt><trkpt lat="45.593194686695824" lon="12.05514880729891"><ele>17.0</ele><time>2026-04-26T20:25:30Z</time></trkpt></trkseg></trk></gpx>